<?xml version="1.0" encoding="UTF-8" standalone="no" ?>
<gpx xmlns="http://www.topografix.com/GPX/1/1" xmlns:xsi="http://www.w3.org/2001/XMLSchema-instance" xsi:schemaLocation="http://www.topografix.com/GPX/1/1 http://www.topografix.com/GPX/1/1/gpx.xsd" version="1.1" creator="VisuGPX - https://www.visugpx.com">
  <metadata>
    <name>Raid Vauban 2012</name>
    <desc><![CDATA[Raid Vauban 2012]]></desc>
  </metadata>
  <trk>
    <name><![CDATA[JUN-11-12 20:36:07_1_1_1_1_1]]></name>
    <trkseg>
      <trkpt lat="44.62264" lon="6.63346">
        <ele>1864.13</ele>
        <time>2012-06-10T06:12:16.000Z</time>
      </trkpt>
      <trkpt lat="44.62264" lon="6.63346">
        <ele>1863.65</ele>
        <time>2012-06-10T06:12:28.000Z</time>
      </trkpt>
      <trkpt lat="44.62263" lon="6.63346">
        <ele>1864.13</ele>
        <time>2012-06-10T06:13:49.000Z</time>
      </trkpt>
      <trkpt lat="44.62262" lon="6.63346">
        <ele>1864.13</ele>
        <time>2012-06-10T06:15:08.000Z</time>
      </trkpt>
      <trkpt lat="44.62235" lon="6.63345">
        <ele>1865.58</ele>
        <time>2012-06-10T06:15:18.000Z</time>
      </trkpt>
      <trkpt lat="44.6221" lon="6.63319">
        <ele>1867.5</ele>
        <time>2012-06-10T06:15:27.000Z</time>
      </trkpt>
      <trkpt lat="44.62207" lon="6.63313">
        <ele>1867.98</ele>
        <time>2012-06-10T06:15:28.000Z</time>
      </trkpt>
      <trkpt lat="44.62204" lon="6.63307">
        <ele>1867.5</ele>
        <time>2012-06-10T06:15:29.000Z</time>
      </trkpt>
      <trkpt lat="44.622" lon="6.63303">
        <ele>1867.98</ele>
        <time>2012-06-10T06:15:30.000Z</time>
      </trkpt>
      <trkpt lat="44.62195" lon="6.63299">
        <ele>1868.46</ele>
        <time>2012-06-10T06:15:31.000Z</time>
      </trkpt>
      <trkpt lat="44.62191" lon="6.63297">
        <ele>1868.94</ele>
        <time>2012-06-10T06:15:32.000Z</time>
      </trkpt>
      <trkpt lat="44.62186" lon="6.63295">
        <ele>1868.94</ele>
        <time>2012-06-10T06:15:33.000Z</time>
      </trkpt>
      <trkpt lat="44.62182" lon="6.63294">
        <ele>1868.94</ele>
        <time>2012-06-10T06:15:34.000Z</time>
      </trkpt>
      <trkpt lat="44.62159" lon="6.63294">
        <ele>1872.3</ele>
        <time>2012-06-10T06:15:42.000Z</time>
      </trkpt>
      <trkpt lat="44.62133" lon="6.63299">
        <ele>1875.19</ele>
        <time>2012-06-10T06:15:52.000Z</time>
      </trkpt>
      <trkpt lat="44.621" lon="6.63309">
        <ele>1877.11</ele>
        <time>2012-06-10T06:16:03.000Z</time>
      </trkpt>
      <trkpt lat="44.62065" lon="6.63304">
        <ele>1878.55</ele>
        <time>2012-06-10T06:16:15.000Z</time>
      </trkpt>
      <trkpt lat="44.62057" lon="6.63295">
        <ele>1880</ele>
        <time>2012-06-10T06:16:19.000Z</time>
      </trkpt>
      <trkpt lat="44.62053" lon="6.6326">
        <ele>1880.96</ele>
        <time>2012-06-10T06:16:28.000Z</time>
      </trkpt>
      <trkpt lat="44.62055" lon="6.63257">
        <ele>1881.44</ele>
        <time>2012-06-10T06:16:29.000Z</time>
      </trkpt>
      <trkpt lat="44.62057" lon="6.63254">
        <ele>1881.92</ele>
        <time>2012-06-10T06:16:30.000Z</time>
      </trkpt>
      <trkpt lat="44.62062" lon="6.6325">
        <ele>1881.92</ele>
        <time>2012-06-10T06:16:32.000Z</time>
      </trkpt>
      <trkpt lat="44.62067" lon="6.63248">
        <ele>1882.4</ele>
        <time>2012-06-10T06:16:34.000Z</time>
      </trkpt>
      <trkpt lat="44.621" lon="6.63232">
        <ele>1884.32</ele>
        <time>2012-06-10T06:16:46.000Z</time>
      </trkpt>
      <trkpt lat="44.62115" lon="6.63221">
        <ele>1885.76</ele>
        <time>2012-06-10T06:16:52.000Z</time>
      </trkpt>
      <trkpt lat="44.62136" lon="6.63193">
        <ele>1887.21</ele>
        <time>2012-06-10T06:17:03.000Z</time>
      </trkpt>
      <trkpt lat="44.6214" lon="6.63183">
        <ele>1888.65</ele>
        <time>2012-06-10T06:17:08.000Z</time>
      </trkpt>
      <trkpt lat="44.62139" lon="6.6318">
        <ele>1889.13</ele>
        <time>2012-06-10T06:17:09.000Z</time>
      </trkpt>
      <trkpt lat="44.62137" lon="6.63159">
        <ele>1892.49</ele>
        <time>2012-06-10T06:17:18.000Z</time>
      </trkpt>
      <trkpt lat="44.62127" lon="6.63135">
        <ele>1894.9</ele>
        <time>2012-06-10T06:17:31.000Z</time>
      </trkpt>
      <trkpt lat="44.62106" lon="6.63126">
        <ele>1897.78</ele>
        <time>2012-06-10T06:17:44.000Z</time>
      </trkpt>
      <trkpt lat="44.62082" lon="6.63121">
        <ele>1901.14</ele>
        <time>2012-06-10T06:17:55.000Z</time>
      </trkpt>
      <trkpt lat="44.62056" lon="6.6312">
        <ele>1904.03</ele>
        <time>2012-06-10T06:18:08.000Z</time>
      </trkpt>
      <trkpt lat="44.62053" lon="6.63118">
        <ele>1904.03</ele>
        <time>2012-06-10T06:18:10.000Z</time>
      </trkpt>
      <trkpt lat="44.62051" lon="6.63116">
        <ele>1904.03</ele>
        <time>2012-06-10T06:18:11.000Z</time>
      </trkpt>
      <trkpt lat="44.6205" lon="6.63115">
        <ele>1905.95</ele>
        <time>2012-06-10T06:18:12.000Z</time>
      </trkpt>
      <trkpt lat="44.62049" lon="6.63113">
        <ele>1905.47</ele>
        <time>2012-06-10T06:18:13.000Z</time>
      </trkpt>
      <trkpt lat="44.62048" lon="6.63111">
        <ele>1905.95</ele>
        <time>2012-06-10T06:18:14.000Z</time>
      </trkpt>
      <trkpt lat="44.62047" lon="6.63108">
        <ele>1905.95</ele>
        <time>2012-06-10T06:18:15.000Z</time>
      </trkpt>
      <trkpt lat="44.62047" lon="6.63106">
        <ele>1906.43</ele>
        <time>2012-06-10T06:18:16.000Z</time>
      </trkpt>
      <trkpt lat="44.62046" lon="6.63083">
        <ele>1909.32</ele>
        <time>2012-06-10T06:18:25.000Z</time>
      </trkpt>
      <trkpt lat="44.6205" lon="6.63044">
        <ele>1911.72</ele>
        <time>2012-06-10T06:18:40.000Z</time>
      </trkpt>
      <trkpt lat="44.62046" lon="6.63004">
        <ele>1914.6</ele>
        <time>2012-06-10T06:18:53.000Z</time>
      </trkpt>
      <trkpt lat="44.6204" lon="6.62971">
        <ele>1917.01</ele>
        <time>2012-06-10T06:19:05.000Z</time>
      </trkpt>
      <trkpt lat="44.6204" lon="6.62966">
        <ele>1917.49</ele>
        <time>2012-06-10T06:19:07.000Z</time>
      </trkpt>
      <trkpt lat="44.6204" lon="6.62963">
        <ele>1917.97</ele>
        <time>2012-06-10T06:19:08.000Z</time>
      </trkpt>
      <trkpt lat="44.62041" lon="6.62961">
        <ele>1917.97</ele>
        <time>2012-06-10T06:19:09.000Z</time>
      </trkpt>
      <trkpt lat="44.62041" lon="6.62959">
        <ele>1917.97</ele>
        <time>2012-06-10T06:19:10.000Z</time>
      </trkpt>
      <trkpt lat="44.62042" lon="6.62956">
        <ele>1918.93</ele>
        <time>2012-06-10T06:19:11.000Z</time>
      </trkpt>
      <trkpt lat="44.62042" lon="6.62954">
        <ele>1918.93</ele>
        <time>2012-06-10T06:19:12.000Z</time>
      </trkpt>
      <trkpt lat="44.62042" lon="6.62952">
        <ele>1919.41</ele>
        <time>2012-06-10T06:19:13.000Z</time>
      </trkpt>
      <trkpt lat="44.62045" lon="6.62922">
        <ele>1922.77</ele>
        <time>2012-06-10T06:19:26.000Z</time>
      </trkpt>
      <trkpt lat="44.62067" lon="6.62888">
        <ele>1925.18</ele>
        <time>2012-06-10T06:19:42.000Z</time>
      </trkpt>
      <trkpt lat="44.62105" lon="6.62875">
        <ele>1924.7</ele>
        <time>2012-06-10T06:19:54.000Z</time>
      </trkpt>
      <trkpt lat="44.62131" lon="6.62873">
        <ele>1921.81</ele>
        <time>2012-06-10T06:19:58.000Z</time>
      </trkpt>
      <trkpt lat="44.62138" lon="6.62868">
        <ele>1921.33</ele>
        <time>2012-06-10T06:19:59.000Z</time>
      </trkpt>
      <trkpt lat="44.62144" lon="6.62862">
        <ele>1920.37</ele>
        <time>2012-06-10T06:20:00.000Z</time>
      </trkpt>
      <trkpt lat="44.62149" lon="6.62854">
        <ele>1920.85</ele>
        <time>2012-06-10T06:20:01.000Z</time>
      </trkpt>
      <trkpt lat="44.62153" lon="6.62847">
        <ele>1920.85</ele>
        <time>2012-06-10T06:20:02.000Z</time>
      </trkpt>
      <trkpt lat="44.62165" lon="6.62826">
        <ele>1922.29</ele>
        <time>2012-06-10T06:20:06.000Z</time>
      </trkpt>
      <trkpt lat="44.6218" lon="6.62809">
        <ele>1924.22</ele>
        <time>2012-06-10T06:20:12.000Z</time>
      </trkpt>
      <trkpt lat="44.62218" lon="6.6276">
        <ele>1927.58</ele>
        <time>2012-06-10T06:20:27.000Z</time>
      </trkpt>
      <trkpt lat="44.62221" lon="6.62756">
        <ele>1927.58</ele>
        <time>2012-06-10T06:20:28.000Z</time>
      </trkpt>
      <trkpt lat="44.62257" lon="6.62713">
        <ele>1929.98</ele>
        <time>2012-06-10T06:20:42.000Z</time>
      </trkpt>
      <trkpt lat="44.62284" lon="6.6268">
        <ele>1933.35</ele>
        <time>2012-06-10T06:20:55.000Z</time>
      </trkpt>
      <trkpt lat="44.62308" lon="6.62647">
        <ele>1936.71</ele>
        <time>2012-06-10T06:21:08.000Z</time>
      </trkpt>
      <trkpt lat="44.62327" lon="6.62611">
        <ele>1940.08</ele>
        <time>2012-06-10T06:21:20.000Z</time>
      </trkpt>
      <trkpt lat="44.62348" lon="6.62576">
        <ele>1942.96</ele>
        <time>2012-06-10T06:21:32.000Z</time>
      </trkpt>
      <trkpt lat="44.6235" lon="6.62573">
        <ele>1943.44</ele>
        <time>2012-06-10T06:21:33.000Z</time>
      </trkpt>
      <trkpt lat="44.62373" lon="6.62548">
        <ele>1946.33</ele>
        <time>2012-06-10T06:21:45.000Z</time>
      </trkpt>
      <trkpt lat="44.62389" lon="6.62515">
        <ele>1949.21</ele>
        <time>2012-06-10T06:21:57.000Z</time>
      </trkpt>
      <trkpt lat="44.62398" lon="6.62482">
        <ele>1951.61</ele>
        <time>2012-06-10T06:22:09.000Z</time>
      </trkpt>
      <trkpt lat="44.62395" lon="6.62452">
        <ele>1954.5</ele>
        <time>2012-06-10T06:22:21.000Z</time>
      </trkpt>
      <trkpt lat="44.62396" lon="6.62446">
        <ele>1954.98</ele>
        <time>2012-06-10T06:22:23.000Z</time>
      </trkpt>
      <trkpt lat="44.62397" lon="6.62444">
        <ele>1954.98</ele>
        <time>2012-06-10T06:22:24.000Z</time>
      </trkpt>
      <trkpt lat="44.62397" lon="6.62441">
        <ele>1955.46</ele>
        <time>2012-06-10T06:22:25.000Z</time>
      </trkpt>
      <trkpt lat="44.62398" lon="6.62438">
        <ele>1955.94</ele>
        <time>2012-06-10T06:22:26.000Z</time>
      </trkpt>
      <trkpt lat="44.62398" lon="6.62436">
        <ele>1955.94</ele>
        <time>2012-06-10T06:22:27.000Z</time>
      </trkpt>
      <trkpt lat="44.62398" lon="6.62428">
        <ele>1956.9</ele>
        <time>2012-06-10T06:22:30.000Z</time>
      </trkpt>
      <trkpt lat="44.62399" lon="6.62425">
        <ele>1957.38</ele>
        <time>2012-06-10T06:22:31.000Z</time>
      </trkpt>
      <trkpt lat="44.62399" lon="6.62423">
        <ele>1956.9</ele>
        <time>2012-06-10T06:22:32.000Z</time>
      </trkpt>
      <trkpt lat="44.624" lon="6.62421">
        <ele>1957.38</ele>
        <time>2012-06-10T06:22:33.000Z</time>
      </trkpt>
      <trkpt lat="44.624" lon="6.62419">
        <ele>1957.86</ele>
        <time>2012-06-10T06:22:34.000Z</time>
      </trkpt>
      <trkpt lat="44.62402" lon="6.62417">
        <ele>1958.34</ele>
        <time>2012-06-10T06:22:35.000Z</time>
      </trkpt>
      <trkpt lat="44.62412" lon="6.62407">
        <ele>1959.3</ele>
        <time>2012-06-10T06:22:42.000Z</time>
      </trkpt>
      <trkpt lat="44.62414" lon="6.62407">
        <ele>1959.78</ele>
        <time>2012-06-10T06:22:43.000Z</time>
      </trkpt>
      <trkpt lat="44.6242" lon="6.62408">
        <ele>1960.27</ele>
        <time>2012-06-10T06:22:46.000Z</time>
      </trkpt>
      <trkpt lat="44.62443" lon="6.62423">
        <ele>1962.19</ele>
        <time>2012-06-10T06:22:58.000Z</time>
      </trkpt>
      <trkpt lat="44.62467" lon="6.62429">
        <ele>1964.11</ele>
        <time>2012-06-10T06:23:09.000Z</time>
      </trkpt>
      <trkpt lat="44.62468" lon="6.62428">
        <ele>1964.11</ele>
        <time>2012-06-10T06:23:10.000Z</time>
      </trkpt>
      <trkpt lat="44.62469" lon="6.62427">
        <ele>1964.59</ele>
        <time>2012-06-10T06:23:11.000Z</time>
      </trkpt>
      <trkpt lat="44.62469" lon="6.62425">
        <ele>1964.59</ele>
        <time>2012-06-10T06:23:12.000Z</time>
      </trkpt>
      <trkpt lat="44.62469" lon="6.62423">
        <ele>1964.59</ele>
        <time>2012-06-10T06:23:13.000Z</time>
      </trkpt>
      <trkpt lat="44.62468" lon="6.62421">
        <ele>1965.07</ele>
        <time>2012-06-10T06:23:14.000Z</time>
      </trkpt>
      <trkpt lat="44.62466" lon="6.62419">
        <ele>1965.07</ele>
        <time>2012-06-10T06:23:15.000Z</time>
      </trkpt>
      <trkpt lat="44.6246" lon="6.62414">
        <ele>1966.99</ele>
        <time>2012-06-10T06:23:19.000Z</time>
      </trkpt>
      <trkpt lat="44.6244" lon="6.62393">
        <ele>1969.88</ele>
        <time>2012-06-10T06:23:33.000Z</time>
      </trkpt>
      <trkpt lat="44.62433" lon="6.62379">
        <ele>1971.32</ele>
        <time>2012-06-10T06:23:39.000Z</time>
      </trkpt>
      <trkpt lat="44.62433" lon="6.62366">
        <ele>1972.28</ele>
        <time>2012-06-10T06:23:44.000Z</time>
      </trkpt>
      <trkpt lat="44.62434" lon="6.62364">
        <ele>1972.76</ele>
        <time>2012-06-10T06:23:45.000Z</time>
      </trkpt>
      <trkpt lat="44.62435" lon="6.62363">
        <ele>1973.24</ele>
        <time>2012-06-10T06:23:46.000Z</time>
      </trkpt>
      <trkpt lat="44.62438" lon="6.62358">
        <ele>1974.2</ele>
        <time>2012-06-10T06:23:49.000Z</time>
      </trkpt>
      <trkpt lat="44.6244" lon="6.62357">
        <ele>1974.2</ele>
        <time>2012-06-10T06:23:50.000Z</time>
      </trkpt>
      <trkpt lat="44.62442" lon="6.62357">
        <ele>1975.17</ele>
        <time>2012-06-10T06:23:51.000Z</time>
      </trkpt>
      <trkpt lat="44.62454" lon="6.62361">
        <ele>1976.13</ele>
        <time>2012-06-10T06:23:57.000Z</time>
      </trkpt>
      <trkpt lat="44.62456" lon="6.62362">
        <ele>1976.13</ele>
        <time>2012-06-10T06:23:58.000Z</time>
      </trkpt>
      <trkpt lat="44.62487" lon="6.6238">
        <ele>1978.53</ele>
        <time>2012-06-10T06:24:13.000Z</time>
      </trkpt>
      <trkpt lat="44.62496" lon="6.62381">
        <ele>1979.49</ele>
        <time>2012-06-10T06:24:17.000Z</time>
      </trkpt>
      <trkpt lat="44.62498" lon="6.62382">
        <ele>1979.49</ele>
        <time>2012-06-10T06:24:18.000Z</time>
      </trkpt>
      <trkpt lat="44.625" lon="6.62383">
        <ele>1979.97</ele>
        <time>2012-06-10T06:24:19.000Z</time>
      </trkpt>
      <trkpt lat="44.62503" lon="6.62382">
        <ele>1979.97</ele>
        <time>2012-06-10T06:24:20.000Z</time>
      </trkpt>
      <trkpt lat="44.62505" lon="6.62381">
        <ele>1980.45</ele>
        <time>2012-06-10T06:24:21.000Z</time>
      </trkpt>
      <trkpt lat="44.62507" lon="6.6238">
        <ele>1980.45</ele>
        <time>2012-06-10T06:24:22.000Z</time>
      </trkpt>
      <trkpt lat="44.62509" lon="6.62379">
        <ele>1980.93</ele>
        <time>2012-06-10T06:24:23.000Z</time>
      </trkpt>
      <trkpt lat="44.62527" lon="6.62352">
        <ele>1983.34</ele>
        <time>2012-06-10T06:24:35.000Z</time>
      </trkpt>
      <trkpt lat="44.62543" lon="6.62327">
        <ele>1986.7</ele>
        <time>2012-06-10T06:24:46.000Z</time>
      </trkpt>
      <trkpt lat="44.62568" lon="6.6232">
        <ele>1990.07</ele>
        <time>2012-06-10T06:24:59.000Z</time>
      </trkpt>
      <trkpt lat="44.6257" lon="6.62319">
        <ele>1989.59</ele>
        <time>2012-06-10T06:25:00.000Z</time>
      </trkpt>
      <trkpt lat="44.62572" lon="6.62319">
        <ele>1989.59</ele>
        <time>2012-06-10T06:25:01.000Z</time>
      </trkpt>
      <trkpt lat="44.62598" lon="6.62299">
        <ele>1992.47</ele>
        <time>2012-06-10T06:25:15.000Z</time>
      </trkpt>
      <trkpt lat="44.62605" lon="6.62291">
        <ele>1993.91</ele>
        <time>2012-06-10T06:25:20.000Z</time>
      </trkpt>
      <trkpt lat="44.62607" lon="6.62288">
        <ele>1994.39</ele>
        <time>2012-06-10T06:25:21.000Z</time>
      </trkpt>
      <trkpt lat="44.62626" lon="6.62257">
        <ele>1997.28</ele>
        <time>2012-06-10T06:25:35.000Z</time>
      </trkpt>
      <trkpt lat="44.62637" lon="6.62227">
        <ele>1999.68</ele>
        <time>2012-06-10T06:25:45.000Z</time>
      </trkpt>
      <trkpt lat="44.62644" lon="6.62212">
        <ele>2001.12</ele>
        <time>2012-06-10T06:25:50.000Z</time>
      </trkpt>
      <trkpt lat="44.62664" lon="6.62185">
        <ele>2004.49</ele>
        <time>2012-06-10T06:26:03.000Z</time>
      </trkpt>
      <trkpt lat="44.62684" lon="6.62157">
        <ele>2006.89</ele>
        <time>2012-06-10T06:26:16.000Z</time>
      </trkpt>
      <trkpt lat="44.62701" lon="6.62132">
        <ele>2010.25</ele>
        <time>2012-06-10T06:26:28.000Z</time>
      </trkpt>
      <trkpt lat="44.62717" lon="6.62103">
        <ele>2013.14</ele>
        <time>2012-06-10T06:26:40.000Z</time>
      </trkpt>
      <trkpt lat="44.6274" lon="6.6208">
        <ele>2016.5</ele>
        <time>2012-06-10T06:26:53.000Z</time>
      </trkpt>
      <trkpt lat="44.62751" lon="6.62072">
        <ele>2017.46</ele>
        <time>2012-06-10T06:26:59.000Z</time>
      </trkpt>
      <trkpt lat="44.62764" lon="6.62071">
        <ele>2018.91</ele>
        <time>2012-06-10T06:27:06.000Z</time>
      </trkpt>
      <trkpt lat="44.62798" lon="6.62066">
        <ele>2022.27</ele>
        <time>2012-06-10T06:27:21.000Z</time>
      </trkpt>
      <trkpt lat="44.6281" lon="6.6203">
        <ele>2024.19</ele>
        <time>2012-06-10T06:27:34.000Z</time>
      </trkpt>
      <trkpt lat="44.62813" lon="6.62013">
        <ele>2026.6</ele>
        <time>2012-06-10T06:27:41.000Z</time>
      </trkpt>
      <trkpt lat="44.62812" lon="6.6201">
        <ele>2026.6</ele>
        <time>2012-06-10T06:27:42.000Z</time>
      </trkpt>
      <trkpt lat="44.62811" lon="6.62008">
        <ele>2026.6</ele>
        <time>2012-06-10T06:27:43.000Z</time>
      </trkpt>
      <trkpt lat="44.62809" lon="6.62007">
        <ele>2026.6</ele>
        <time>2012-06-10T06:27:44.000Z</time>
      </trkpt>
      <trkpt lat="44.62806" lon="6.62007">
        <ele>2026.6</ele>
        <time>2012-06-10T06:27:45.000Z</time>
      </trkpt>
      <trkpt lat="44.62804" lon="6.62007">
        <ele>2026.6</ele>
        <time>2012-06-10T06:27:46.000Z</time>
      </trkpt>
      <trkpt lat="44.62801" lon="6.62008">
        <ele>2027.08</ele>
        <time>2012-06-10T06:27:47.000Z</time>
      </trkpt>
      <trkpt lat="44.62799" lon="6.62008">
        <ele>2027.08</ele>
        <time>2012-06-10T06:27:48.000Z</time>
      </trkpt>
      <trkpt lat="44.62796" lon="6.62008">
        <ele>2027.08</ele>
        <time>2012-06-10T06:27:49.000Z</time>
      </trkpt>
      <trkpt lat="44.62794" lon="6.62008">
        <ele>2027.08</ele>
        <time>2012-06-10T06:27:50.000Z</time>
      </trkpt>
      <trkpt lat="44.6277" lon="6.62011">
        <ele>2029.48</ele>
        <time>2012-06-10T06:28:01.000Z</time>
      </trkpt>
      <trkpt lat="44.62743" lon="6.62013">
        <ele>2031.88</ele>
        <time>2012-06-10T06:28:14.000Z</time>
      </trkpt>
      <trkpt lat="44.62708" lon="6.62015">
        <ele>2035.25</ele>
        <time>2012-06-10T06:28:29.000Z</time>
      </trkpt>
      <trkpt lat="44.62697" lon="6.6202">
        <ele>2034.77</ele>
        <time>2012-06-10T06:28:32.000Z</time>
      </trkpt>
      <trkpt lat="44.62693" lon="6.62023">
        <ele>2034.29</ele>
        <time>2012-06-10T06:28:33.000Z</time>
      </trkpt>
      <trkpt lat="44.6269" lon="6.62024">
        <ele>2034.29</ele>
        <time>2012-06-10T06:28:34.000Z</time>
      </trkpt>
      <trkpt lat="44.6266" lon="6.62038">
        <ele>2034.29</ele>
        <time>2012-06-10T06:28:41.000Z</time>
      </trkpt>
      <trkpt lat="44.62651" lon="6.62046">
        <ele>2033.33</ele>
        <time>2012-06-10T06:28:43.000Z</time>
      </trkpt>
      <trkpt lat="44.62635" lon="6.6206">
        <ele>2031.88</ele>
        <time>2012-06-10T06:28:46.000Z</time>
      </trkpt>
      <trkpt lat="44.62629" lon="6.62064">
        <ele>2031.4</ele>
        <time>2012-06-10T06:28:47.000Z</time>
      </trkpt>
      <trkpt lat="44.62612" lon="6.62078">
        <ele>2030.92</ele>
        <time>2012-06-10T06:28:50.000Z</time>
      </trkpt>
      <trkpt lat="44.62607" lon="6.6208">
        <ele>2030.92</ele>
        <time>2012-06-10T06:28:51.000Z</time>
      </trkpt>
      <trkpt lat="44.62603" lon="6.62082">
        <ele>2031.4</ele>
        <time>2012-06-10T06:28:52.000Z</time>
      </trkpt>
      <trkpt lat="44.62599" lon="6.62082">
        <ele>2031.88</ele>
        <time>2012-06-10T06:28:53.000Z</time>
      </trkpt>
      <trkpt lat="44.62595" lon="6.62082">
        <ele>2031.4</ele>
        <time>2012-06-10T06:28:54.000Z</time>
      </trkpt>
      <trkpt lat="44.62574" lon="6.62079">
        <ele>2034.77</ele>
        <time>2012-06-10T06:29:03.000Z</time>
      </trkpt>
      <trkpt lat="44.62564" lon="6.6208">
        <ele>2036.69</ele>
        <time>2012-06-10T06:29:10.000Z</time>
      </trkpt>
      <trkpt lat="44.62563" lon="6.6208">
        <ele>2037.17</ele>
        <time>2012-06-10T06:29:11.000Z</time>
      </trkpt>
      <trkpt lat="44.62561" lon="6.6208">
        <ele>2037.65</ele>
        <time>2012-06-10T06:29:12.000Z</time>
      </trkpt>
      <trkpt lat="44.6256" lon="6.62081">
        <ele>2038.13</ele>
        <time>2012-06-10T06:29:13.000Z</time>
      </trkpt>
      <trkpt lat="44.62559" lon="6.62081">
        <ele>2038.13</ele>
        <time>2012-06-10T06:29:14.000Z</time>
      </trkpt>
      <trkpt lat="44.62557" lon="6.62081">
        <ele>2038.13</ele>
        <time>2012-06-10T06:29:15.000Z</time>
      </trkpt>
      <trkpt lat="44.62555" lon="6.62081">
        <ele>2038.61</ele>
        <time>2012-06-10T06:29:16.000Z</time>
      </trkpt>
      <trkpt lat="44.62553" lon="6.62082">
        <ele>2038.61</ele>
        <time>2012-06-10T06:29:17.000Z</time>
      </trkpt>
      <trkpt lat="44.62551" lon="6.62082">
        <ele>2039.09</ele>
        <time>2012-06-10T06:29:18.000Z</time>
      </trkpt>
      <trkpt lat="44.62548" lon="6.62083">
        <ele>2039.57</ele>
        <time>2012-06-10T06:29:19.000Z</time>
      </trkpt>
      <trkpt lat="44.62518" lon="6.62085">
        <ele>2041.02</ele>
        <time>2012-06-10T06:29:33.000Z</time>
      </trkpt>
      <trkpt lat="44.62496" lon="6.62085">
        <ele>2043.9</ele>
        <time>2012-06-10T06:29:44.000Z</time>
      </trkpt>
      <trkpt lat="44.62477" lon="6.62082">
        <ele>2046.3</ele>
        <time>2012-06-10T06:29:55.000Z</time>
      </trkpt>
      <trkpt lat="44.62458" lon="6.62078">
        <ele>2049.67</ele>
        <time>2012-06-10T06:30:07.000Z</time>
      </trkpt>
      <trkpt lat="44.62443" lon="6.62067">
        <ele>2052.07</ele>
        <time>2012-06-10T06:30:19.000Z</time>
      </trkpt>
      <trkpt lat="44.6244" lon="6.62065">
        <ele>2053.03</ele>
        <time>2012-06-10T06:30:21.000Z</time>
      </trkpt>
      <trkpt lat="44.62433" lon="6.62051">
        <ele>2056.4</ele>
        <time>2012-06-10T06:30:32.000Z</time>
      </trkpt>
      <trkpt lat="44.62431" lon="6.62046">
        <ele>2057.36</ele>
        <time>2012-06-10T06:30:36.000Z</time>
      </trkpt>
      <trkpt lat="44.6243" lon="6.62045">
        <ele>2057.84</ele>
        <time>2012-06-10T06:30:37.000Z</time>
      </trkpt>
      <trkpt lat="44.62429" lon="6.62044">
        <ele>2057.84</ele>
        <time>2012-06-10T06:30:38.000Z</time>
      </trkpt>
      <trkpt lat="44.62416" lon="6.62031">
        <ele>2061.2</ele>
        <time>2012-06-10T06:30:49.000Z</time>
      </trkpt>
      <trkpt lat="44.62415" lon="6.62029">
        <ele>2061.68</ele>
        <time>2012-06-10T06:30:50.000Z</time>
      </trkpt>
      <trkpt lat="44.62406" lon="6.62016">
        <ele>2063.61</ele>
        <time>2012-06-10T06:31:00.000Z</time>
      </trkpt>
      <trkpt lat="44.62404" lon="6.62015">
        <ele>2063.61</ele>
        <time>2012-06-10T06:31:01.000Z</time>
      </trkpt>
      <trkpt lat="44.62403" lon="6.62014">
        <ele>2064.09</ele>
        <time>2012-06-10T06:31:02.000Z</time>
      </trkpt>
      <trkpt lat="44.62401" lon="6.62013">
        <ele>2064.09</ele>
        <time>2012-06-10T06:31:03.000Z</time>
      </trkpt>
      <trkpt lat="44.62399" lon="6.62011">
        <ele>2064.57</ele>
        <time>2012-06-10T06:31:04.000Z</time>
      </trkpt>
      <trkpt lat="44.62398" lon="6.6201">
        <ele>2064.57</ele>
        <time>2012-06-10T06:31:05.000Z</time>
      </trkpt>
      <trkpt lat="44.62396" lon="6.62008">
        <ele>2065.05</ele>
        <time>2012-06-10T06:31:06.000Z</time>
      </trkpt>
      <trkpt lat="44.62394" lon="6.62008">
        <ele>2065.05</ele>
        <time>2012-06-10T06:31:07.000Z</time>
      </trkpt>
      <trkpt lat="44.62392" lon="6.62008">
        <ele>2065.05</ele>
        <time>2012-06-10T06:31:08.000Z</time>
      </trkpt>
      <trkpt lat="44.6238" lon="6.62006">
        <ele>2066.01</ele>
        <time>2012-06-10T06:31:15.000Z</time>
      </trkpt>
      <trkpt lat="44.62378" lon="6.62005">
        <ele>2066.01</ele>
        <time>2012-06-10T06:31:16.000Z</time>
      </trkpt>
      <trkpt lat="44.62377" lon="6.62005">
        <ele>2066.49</ele>
        <time>2012-06-10T06:31:17.000Z</time>
      </trkpt>
      <trkpt lat="44.62376" lon="6.62004">
        <ele>2066.49</ele>
        <time>2012-06-10T06:31:18.000Z</time>
      </trkpt>
      <trkpt lat="44.62375" lon="6.62004">
        <ele>2066.49</ele>
        <time>2012-06-10T06:31:19.000Z</time>
      </trkpt>
      <trkpt lat="44.62373" lon="6.62004">
        <ele>2066.97</ele>
        <time>2012-06-10T06:31:20.000Z</time>
      </trkpt>
      <trkpt lat="44.62355" lon="6.62003">
        <ele>2068.89</ele>
        <time>2012-06-10T06:31:32.000Z</time>
      </trkpt>
      <trkpt lat="44.62354" lon="6.62002">
        <ele>2069.38</ele>
        <time>2012-06-10T06:31:33.000Z</time>
      </trkpt>
      <trkpt lat="44.62353" lon="6.62001">
        <ele>2069.38</ele>
        <time>2012-06-10T06:31:34.000Z</time>
      </trkpt>
      <trkpt lat="44.62336" lon="6.61998">
        <ele>2072.26</ele>
        <time>2012-06-10T06:31:45.000Z</time>
      </trkpt>
      <trkpt lat="44.62334" lon="6.61996">
        <ele>2072.74</ele>
        <time>2012-06-10T06:31:46.000Z</time>
      </trkpt>
      <trkpt lat="44.62333" lon="6.61995">
        <ele>2072.74</ele>
        <time>2012-06-10T06:31:47.000Z</time>
      </trkpt>
      <trkpt lat="44.62331" lon="6.61993">
        <ele>2073.7</ele>
        <time>2012-06-10T06:31:48.000Z</time>
      </trkpt>
      <trkpt lat="44.6233" lon="6.61992">
        <ele>2074.66</ele>
        <time>2012-06-10T06:31:49.000Z</time>
      </trkpt>
      <trkpt lat="44.62329" lon="6.6199">
        <ele>2074.66</ele>
        <time>2012-06-10T06:31:50.000Z</time>
      </trkpt>
      <trkpt lat="44.62328" lon="6.61988">
        <ele>2075.62</ele>
        <time>2012-06-10T06:31:51.000Z</time>
      </trkpt>
      <trkpt lat="44.62322" lon="6.61985">
        <ele>2077.07</ele>
        <time>2012-06-10T06:31:56.000Z</time>
      </trkpt>
      <trkpt lat="44.62293" lon="6.61995">
        <ele>2078.03</ele>
        <time>2012-06-10T06:32:07.000Z</time>
      </trkpt>
      <trkpt lat="44.62276" lon="6.61998">
        <ele>2079.95</ele>
        <time>2012-06-10T06:32:16.000Z</time>
      </trkpt>
      <trkpt lat="44.62246" lon="6.62025">
        <ele>2079.47</ele>
        <time>2012-06-10T06:32:28.000Z</time>
      </trkpt>
      <trkpt lat="44.62243" lon="6.62028">
        <ele>2078.99</ele>
        <time>2012-06-10T06:32:29.000Z</time>
      </trkpt>
      <trkpt lat="44.62227" lon="6.62049">
        <ele>2074.66</ele>
        <time>2012-06-10T06:32:33.000Z</time>
      </trkpt>
      <trkpt lat="44.62223" lon="6.62055">
        <ele>2074.18</ele>
        <time>2012-06-10T06:32:34.000Z</time>
      </trkpt>
      <trkpt lat="44.62216" lon="6.62068">
        <ele>2071.3</ele>
        <time>2012-06-10T06:32:36.000Z</time>
      </trkpt>
      <trkpt lat="44.62209" lon="6.62077">
        <ele>2068.41</ele>
        <time>2012-06-10T06:32:39.000Z</time>
      </trkpt>
      <trkpt lat="44.62202" lon="6.62096">
        <ele>2067.93</ele>
        <time>2012-06-10T06:32:43.000Z</time>
      </trkpt>
      <trkpt lat="44.62198" lon="6.62105">
        <ele>2066.97</ele>
        <time>2012-06-10T06:32:45.000Z</time>
      </trkpt>
      <trkpt lat="44.62191" lon="6.6214">
        <ele>2064.09</ele>
        <time>2012-06-10T06:32:50.000Z</time>
      </trkpt>
      <trkpt lat="44.62178" lon="6.62165">
        <ele>2063.61</ele>
        <time>2012-06-10T06:32:55.000Z</time>
      </trkpt>
      <trkpt lat="44.62159" lon="6.62187">
        <ele>2064.09</ele>
        <time>2012-06-10T06:33:01.000Z</time>
      </trkpt>
      <trkpt lat="44.62141" lon="6.62203">
        <ele>2064.57</ele>
        <time>2012-06-10T06:33:06.000Z</time>
      </trkpt>
      <trkpt lat="44.62099" lon="6.62234">
        <ele>2066.97</ele>
        <time>2012-06-10T06:33:19.000Z</time>
      </trkpt>
      <trkpt lat="44.62093" lon="6.6224">
        <ele>2068.41</ele>
        <time>2012-06-10T06:33:23.000Z</time>
      </trkpt>
      <trkpt lat="44.62083" lon="6.62256">
        <ele>2071.3</ele>
        <time>2012-06-10T06:33:31.000Z</time>
      </trkpt>
      <trkpt lat="44.62054" lon="6.62276">
        <ele>2073.22</ele>
        <time>2012-06-10T06:33:43.000Z</time>
      </trkpt>
      <trkpt lat="44.62033" lon="6.62288">
        <ele>2074.66</ele>
        <time>2012-06-10T06:33:53.000Z</time>
      </trkpt>
      <trkpt lat="44.62017" lon="6.62289">
        <ele>2075.14</ele>
        <time>2012-06-10T06:33:58.000Z</time>
      </trkpt>
      <trkpt lat="44.61987" lon="6.62291">
        <ele>2075.14</ele>
        <time>2012-06-10T06:34:07.000Z</time>
      </trkpt>
      <trkpt lat="44.61952" lon="6.62284">
        <ele>2073.22</ele>
        <time>2012-06-10T06:34:15.000Z</time>
      </trkpt>
      <trkpt lat="44.61931" lon="6.62289">
        <ele>2072.26</ele>
        <time>2012-06-10T06:34:19.000Z</time>
      </trkpt>
      <trkpt lat="44.61894" lon="6.62301">
        <ele>2070.34</ele>
        <time>2012-06-10T06:34:25.000Z</time>
      </trkpt>
      <trkpt lat="44.61872" lon="6.62313">
        <ele>2068.89</ele>
        <time>2012-06-10T06:34:32.000Z</time>
      </trkpt>
      <trkpt lat="44.61869" lon="6.62314">
        <ele>2069.38</ele>
        <time>2012-06-10T06:34:39.000Z</time>
      </trkpt>
      <trkpt lat="44.61848" lon="6.62327">
        <ele>2069.38</ele>
        <time>2012-06-10T06:34:48.000Z</time>
      </trkpt>
      <trkpt lat="44.61805" lon="6.62334">
        <ele>2072.74</ele>
        <time>2012-06-10T06:35:00.000Z</time>
      </trkpt>
      <trkpt lat="44.61785" lon="6.62325">
        <ele>2071.78</ele>
        <time>2012-06-10T06:35:06.000Z</time>
      </trkpt>
      <trkpt lat="44.61773" lon="6.62331">
        <ele>2073.22</ele>
        <time>2012-06-10T06:35:12.000Z</time>
      </trkpt>
      <trkpt lat="44.61772" lon="6.62331">
        <ele>2073.22</ele>
        <time>2012-06-10T06:35:13.000Z</time>
      </trkpt>
      <trkpt lat="44.6176" lon="6.62331">
        <ele>2073.7</ele>
        <time>2012-06-10T06:35:17.000Z</time>
      </trkpt>
      <trkpt lat="44.61745" lon="6.62334">
        <ele>2073.7</ele>
        <time>2012-06-10T06:35:20.000Z</time>
      </trkpt>
      <trkpt lat="44.61726" lon="6.62337">
        <ele>2075.14</ele>
        <time>2012-06-10T06:35:25.000Z</time>
      </trkpt>
      <trkpt lat="44.61708" lon="6.62327">
        <ele>2074.18</ele>
        <time>2012-06-10T06:35:29.000Z</time>
      </trkpt>
      <trkpt lat="44.6168" lon="6.62324">
        <ele>2072.74</ele>
        <time>2012-06-10T06:35:35.000Z</time>
      </trkpt>
      <trkpt lat="44.61674" lon="6.62332">
        <ele>2073.22</ele>
        <time>2012-06-10T06:35:37.000Z</time>
      </trkpt>
      <trkpt lat="44.61666" lon="6.62351">
        <ele>2074.18</ele>
        <time>2012-06-10T06:35:41.000Z</time>
      </trkpt>
      <trkpt lat="44.6165" lon="6.62371">
        <ele>2075.62</ele>
        <time>2012-06-10T06:35:49.000Z</time>
      </trkpt>
      <trkpt lat="44.61635" lon="6.62384">
        <ele>2074.66</ele>
        <time>2012-06-10T06:35:53.000Z</time>
      </trkpt>
      <trkpt lat="44.61605" lon="6.62403">
        <ele>2075.62</ele>
        <time>2012-06-10T06:36:02.000Z</time>
      </trkpt>
      <trkpt lat="44.616" lon="6.62411">
        <ele>2074.66</ele>
        <time>2012-06-10T06:36:04.000Z</time>
      </trkpt>
      <trkpt lat="44.61597" lon="6.62417">
        <ele>2074.66</ele>
        <time>2012-06-10T06:36:05.000Z</time>
      </trkpt>
      <trkpt lat="44.61595" lon="6.62434">
        <ele>2073.22</ele>
        <time>2012-06-10T06:36:08.000Z</time>
      </trkpt>
      <trkpt lat="44.61592" lon="6.62439">
        <ele>2071.3</ele>
        <time>2012-06-10T06:36:09.000Z</time>
      </trkpt>
      <trkpt lat="44.61588" lon="6.62442">
        <ele>2071.3</ele>
        <time>2012-06-10T06:36:10.000Z</time>
      </trkpt>
      <trkpt lat="44.61584" lon="6.62444">
        <ele>2071.3</ele>
        <time>2012-06-10T06:36:11.000Z</time>
      </trkpt>
      <trkpt lat="44.61581" lon="6.62445">
        <ele>2072.26</ele>
        <time>2012-06-10T06:36:12.000Z</time>
      </trkpt>
      <trkpt lat="44.61578" lon="6.62445">
        <ele>2072.26</ele>
        <time>2012-06-10T06:36:13.000Z</time>
      </trkpt>
      <trkpt lat="44.61575" lon="6.62445">
        <ele>2072.26</ele>
        <time>2012-06-10T06:36:14.000Z</time>
      </trkpt>
      <trkpt lat="44.61572" lon="6.62445">
        <ele>2072.74</ele>
        <time>2012-06-10T06:36:15.000Z</time>
      </trkpt>
      <trkpt lat="44.61542" lon="6.62447">
        <ele>2076.1</ele>
        <time>2012-06-10T06:36:27.000Z</time>
      </trkpt>
      <trkpt lat="44.61511" lon="6.62437">
        <ele>2079.47</ele>
        <time>2012-06-10T06:36:41.000Z</time>
      </trkpt>
      <trkpt lat="44.6149" lon="6.62412">
        <ele>2082.83</ele>
        <time>2012-06-10T06:36:54.000Z</time>
      </trkpt>
      <trkpt lat="44.61471" lon="6.62408">
        <ele>2085.24</ele>
        <time>2012-06-10T06:37:05.000Z</time>
      </trkpt>
      <trkpt lat="44.61464" lon="6.62445">
        <ele>2087.16</ele>
        <time>2012-06-10T06:37:16.000Z</time>
      </trkpt>
      <trkpt lat="44.61446" lon="6.6248">
        <ele>2090.04</ele>
        <time>2012-06-10T06:37:29.000Z</time>
      </trkpt>
      <trkpt lat="44.6142" lon="6.62491">
        <ele>2091.97</ele>
        <time>2012-06-10T06:37:41.000Z</time>
      </trkpt>
      <trkpt lat="44.61388" lon="6.62475">
        <ele>2094.85</ele>
        <time>2012-06-10T06:37:55.000Z</time>
      </trkpt>
      <trkpt lat="44.61365" lon="6.62458">
        <ele>2097.73</ele>
        <time>2012-06-10T06:38:07.000Z</time>
      </trkpt>
      <trkpt lat="44.61346" lon="6.62425">
        <ele>2100.14</ele>
        <time>2012-06-10T06:38:20.000Z</time>
      </trkpt>
      <trkpt lat="44.61316" lon="6.62427">
        <ele>2103.02</ele>
        <time>2012-06-10T06:38:33.000Z</time>
      </trkpt>
      <trkpt lat="44.6129" lon="6.62424">
        <ele>2105.42</ele>
        <time>2012-06-10T06:38:44.000Z</time>
      </trkpt>
      <trkpt lat="44.6125" lon="6.62413">
        <ele>2107.83</ele>
        <time>2012-06-10T06:39:00.000Z</time>
      </trkpt>
      <trkpt lat="44.61218" lon="6.62431">
        <ele>2108.79</ele>
        <time>2012-06-10T06:39:11.000Z</time>
      </trkpt>
      <trkpt lat="44.61189" lon="6.62465">
        <ele>2110.23</ele>
        <time>2012-06-10T06:39:24.000Z</time>
      </trkpt>
      <trkpt lat="44.61155" lon="6.62468">
        <ele>2113.12</ele>
        <time>2012-06-10T06:39:37.000Z</time>
      </trkpt>
      <trkpt lat="44.61132" lon="6.62466">
        <ele>2115.52</ele>
        <time>2012-06-10T06:39:48.000Z</time>
      </trkpt>
      <trkpt lat="44.61115" lon="6.62467">
        <ele>2117.92</ele>
        <time>2012-06-10T06:39:57.000Z</time>
      </trkpt>
      <trkpt lat="44.61113" lon="6.62468">
        <ele>2117.92</ele>
        <time>2012-06-10T06:39:58.000Z</time>
      </trkpt>
      <trkpt lat="44.61111" lon="6.62468">
        <ele>2117.92</ele>
        <time>2012-06-10T06:39:59.000Z</time>
      </trkpt>
      <trkpt lat="44.61109" lon="6.62468">
        <ele>2118.88</ele>
        <time>2012-06-10T06:40:00.000Z</time>
      </trkpt>
      <trkpt lat="44.61107" lon="6.62469">
        <ele>2118.88</ele>
        <time>2012-06-10T06:40:01.000Z</time>
      </trkpt>
      <trkpt lat="44.61105" lon="6.62469">
        <ele>2118.88</ele>
        <time>2012-06-10T06:40:02.000Z</time>
      </trkpt>
      <trkpt lat="44.61103" lon="6.62469">
        <ele>2119.36</ele>
        <time>2012-06-10T06:40:03.000Z</time>
      </trkpt>
      <trkpt lat="44.61102" lon="6.6247">
        <ele>2119.36</ele>
        <time>2012-06-10T06:40:04.000Z</time>
      </trkpt>
      <trkpt lat="44.61081" lon="6.6248">
        <ele>2122.25</ele>
        <time>2012-06-10T06:40:15.000Z</time>
      </trkpt>
      <trkpt lat="44.61054" lon="6.62474">
        <ele>2125.61</ele>
        <time>2012-06-10T06:40:29.000Z</time>
      </trkpt>
      <trkpt lat="44.61038" lon="6.62452">
        <ele>2128.98</ele>
        <time>2012-06-10T06:40:42.000Z</time>
      </trkpt>
      <trkpt lat="44.61022" lon="6.62434">
        <ele>2131.86</ele>
        <time>2012-06-10T06:40:54.000Z</time>
      </trkpt>
      <trkpt lat="44.61001" lon="6.6241">
        <ele>2134.74</ele>
        <time>2012-06-10T06:41:09.000Z</time>
      </trkpt>
      <trkpt lat="44.60982" lon="6.62386">
        <ele>2138.11</ele>
        <time>2012-06-10T06:41:23.000Z</time>
      </trkpt>
      <trkpt lat="44.60955" lon="6.62365">
        <ele>2140.51</ele>
        <time>2012-06-10T06:41:37.000Z</time>
      </trkpt>
      <trkpt lat="44.60931" lon="6.62368">
        <ele>2142.92</ele>
        <time>2012-06-10T06:41:49.000Z</time>
      </trkpt>
      <trkpt lat="44.60905" lon="6.62382">
        <ele>2145.32</ele>
        <time>2012-06-10T06:42:03.000Z</time>
      </trkpt>
      <trkpt lat="44.60886" lon="6.62403">
        <ele>2148.2</ele>
        <time>2012-06-10T06:42:16.000Z</time>
      </trkpt>
      <trkpt lat="44.60871" lon="6.62429">
        <ele>2150.61</ele>
        <time>2012-06-10T06:42:27.000Z</time>
      </trkpt>
      <trkpt lat="44.60884" lon="6.62461">
        <ele>2151.09</ele>
        <time>2012-06-10T06:42:37.000Z</time>
      </trkpt>
      <trkpt lat="44.60888" lon="6.62465">
        <ele>2152.05</ele>
        <time>2012-06-10T06:42:39.000Z</time>
      </trkpt>
      <trkpt lat="44.60889" lon="6.62468">
        <ele>2152.05</ele>
        <time>2012-06-10T06:42:40.000Z</time>
      </trkpt>
      <trkpt lat="44.6089" lon="6.62469">
        <ele>2152.05</ele>
        <time>2012-06-10T06:42:41.000Z</time>
      </trkpt>
      <trkpt lat="44.60912" lon="6.62499">
        <ele>2153.49</ele>
        <time>2012-06-10T06:42:53.000Z</time>
      </trkpt>
      <trkpt lat="44.60899" lon="6.62527">
        <ele>2154.45</ele>
        <time>2012-06-10T06:43:02.000Z</time>
      </trkpt>
      <trkpt lat="44.60876" lon="6.6252">
        <ele>2157.34</ele>
        <time>2012-06-10T06:43:13.000Z</time>
      </trkpt>
      <trkpt lat="44.60868" lon="6.62514">
        <ele>2158.3</ele>
        <time>2012-06-10T06:43:17.000Z</time>
      </trkpt>
      <trkpt lat="44.60867" lon="6.62513">
        <ele>2158.78</ele>
        <time>2012-06-10T06:43:18.000Z</time>
      </trkpt>
      <trkpt lat="44.60866" lon="6.62511">
        <ele>2159.26</ele>
        <time>2012-06-10T06:43:19.000Z</time>
      </trkpt>
      <trkpt lat="44.60864" lon="6.62509">
        <ele>2159.26</ele>
        <time>2012-06-10T06:43:20.000Z</time>
      </trkpt>
      <trkpt lat="44.60863" lon="6.62507">
        <ele>2159.74</ele>
        <time>2012-06-10T06:43:21.000Z</time>
      </trkpt>
      <trkpt lat="44.60854" lon="6.6249">
        <ele>2161.18</ele>
        <time>2012-06-10T06:43:30.000Z</time>
      </trkpt>
      <trkpt lat="44.60849" lon="6.62491">
        <ele>2163.1</ele>
        <time>2012-06-10T06:43:34.000Z</time>
      </trkpt>
      <trkpt lat="44.60841" lon="6.62504">
        <ele>2166.47</ele>
        <time>2012-06-10T06:43:43.000Z</time>
      </trkpt>
      <trkpt lat="44.60842" lon="6.62536">
        <ele>2167.91</ele>
        <time>2012-06-10T06:43:56.000Z</time>
      </trkpt>
      <trkpt lat="44.60844" lon="6.62569">
        <ele>2170.79</ele>
        <time>2012-06-10T06:44:09.000Z</time>
      </trkpt>
      <trkpt lat="44.60856" lon="6.62597">
        <ele>2173.2</ele>
        <time>2012-06-10T06:44:21.000Z</time>
      </trkpt>
      <trkpt lat="44.60862" lon="6.62617">
        <ele>2174.64</ele>
        <time>2012-06-10T06:44:29.000Z</time>
      </trkpt>
      <trkpt lat="44.6085" lon="6.62647">
        <ele>2177.52</ele>
        <time>2012-06-10T06:44:42.000Z</time>
      </trkpt>
      <trkpt lat="44.60836" lon="6.62679">
        <ele>2179.93</ele>
        <time>2012-06-10T06:44:54.000Z</time>
      </trkpt>
      <trkpt lat="44.60836" lon="6.6272">
        <ele>2183.29</ele>
        <time>2012-06-10T06:45:07.000Z</time>
      </trkpt>
      <trkpt lat="44.60839" lon="6.62762">
        <ele>2185.69</ele>
        <time>2012-06-10T06:45:20.000Z</time>
      </trkpt>
      <trkpt lat="44.60825" lon="6.62795">
        <ele>2189.06</ele>
        <time>2012-06-10T06:45:33.000Z</time>
      </trkpt>
      <trkpt lat="44.60806" lon="6.62812">
        <ele>2191.94</ele>
        <time>2012-06-10T06:45:44.000Z</time>
      </trkpt>
      <trkpt lat="44.60786" lon="6.62831">
        <ele>2194.83</ele>
        <time>2012-06-10T06:45:56.000Z</time>
      </trkpt>
      <trkpt lat="44.60776" lon="6.62859">
        <ele>2198.19</ele>
        <time>2012-06-10T06:46:08.000Z</time>
      </trkpt>
      <trkpt lat="44.6077" lon="6.62894">
        <ele>2200.59</ele>
        <time>2012-06-10T06:46:21.000Z</time>
      </trkpt>
      <trkpt lat="44.6075" lon="6.62921">
        <ele>2203.48</ele>
        <time>2012-06-10T06:46:35.000Z</time>
      </trkpt>
      <trkpt lat="44.60727" lon="6.62939">
        <ele>2206.36</ele>
        <time>2012-06-10T06:46:48.000Z</time>
      </trkpt>
      <trkpt lat="44.60708" lon="6.62958">
        <ele>2208.29</ele>
        <time>2012-06-10T06:46:59.000Z</time>
      </trkpt>
      <trkpt lat="44.60687" lon="6.62968">
        <ele>2211.65</ele>
        <time>2012-06-10T06:47:10.000Z</time>
      </trkpt>
      <trkpt lat="44.60663" lon="6.62976">
        <ele>2214.53</ele>
        <time>2012-06-10T06:47:23.000Z</time>
      </trkpt>
      <trkpt lat="44.60654" lon="6.62978">
        <ele>2215.5</ele>
        <time>2012-06-10T06:47:28.000Z</time>
      </trkpt>
      <trkpt lat="44.60632" lon="6.62992">
        <ele>2218.38</ele>
        <time>2012-06-10T06:47:40.000Z</time>
      </trkpt>
      <trkpt lat="44.60625" lon="6.63001">
        <ele>2219.34</ele>
        <time>2012-06-10T06:47:45.000Z</time>
      </trkpt>
      <trkpt lat="44.60609" lon="6.6301">
        <ele>2220.78</ele>
        <time>2012-06-10T06:47:53.000Z</time>
      </trkpt>
      <trkpt lat="44.60579" lon="6.63016">
        <ele>2224.15</ele>
        <time>2012-06-10T06:48:08.000Z</time>
      </trkpt>
      <trkpt lat="44.60558" lon="6.63003">
        <ele>2225.59</ele>
        <time>2012-06-10T06:48:20.000Z</time>
      </trkpt>
      <trkpt lat="44.60567" lon="6.62976">
        <ele>2228.47</ele>
        <time>2012-06-10T06:48:31.000Z</time>
      </trkpt>
      <trkpt lat="44.60586" lon="6.6295">
        <ele>2230.88</ele>
        <time>2012-06-10T06:48:44.000Z</time>
      </trkpt>
      <trkpt lat="44.606" lon="6.62921">
        <ele>2234.24</ele>
        <time>2012-06-10T06:48:57.000Z</time>
      </trkpt>
      <trkpt lat="44.6061" lon="6.62892">
        <ele>2237.13</ele>
        <time>2012-06-10T06:49:09.000Z</time>
      </trkpt>
      <trkpt lat="44.60612" lon="6.62869">
        <ele>2239.05</ele>
        <time>2012-06-10T06:49:18.000Z</time>
      </trkpt>
      <trkpt lat="44.60601" lon="6.62877">
        <ele>2240.49</ele>
        <time>2012-06-10T06:49:25.000Z</time>
      </trkpt>
      <trkpt lat="44.60582" lon="6.62911">
        <ele>2242.41</ele>
        <time>2012-06-10T06:49:39.000Z</time>
      </trkpt>
      <trkpt lat="44.60559" lon="6.62922">
        <ele>2245.3</ele>
        <time>2012-06-10T06:49:51.000Z</time>
      </trkpt>
      <trkpt lat="44.60533" lon="6.62933">
        <ele>2248.18</ele>
        <time>2012-06-10T06:50:05.000Z</time>
      </trkpt>
      <trkpt lat="44.60514" lon="6.62923">
        <ele>2250.58</ele>
        <time>2012-06-10T06:50:17.000Z</time>
      </trkpt>
      <trkpt lat="44.60515" lon="6.62915">
        <ele>2252.03</ele>
        <time>2012-06-10T06:50:20.000Z</time>
      </trkpt>
      <trkpt lat="44.60524" lon="6.62904">
        <ele>2253.47</ele>
        <time>2012-06-10T06:50:26.000Z</time>
      </trkpt>
      <trkpt lat="44.60554" lon="6.62883">
        <ele>2255.39</ele>
        <time>2012-06-10T06:50:41.000Z</time>
      </trkpt>
      <trkpt lat="44.60556" lon="6.6288">
        <ele>2255.87</ele>
        <time>2012-06-10T06:50:43.000Z</time>
      </trkpt>
      <trkpt lat="44.60554" lon="6.62846">
        <ele>2258.75</ele>
        <time>2012-06-10T06:50:55.000Z</time>
      </trkpt>
      <trkpt lat="44.60535" lon="6.62826">
        <ele>2261.64</ele>
        <time>2012-06-10T06:51:07.000Z</time>
      </trkpt>
      <trkpt lat="44.60527" lon="6.62793">
        <ele>2264.04</ele>
        <time>2012-06-10T06:51:21.000Z</time>
      </trkpt>
      <trkpt lat="44.60529" lon="6.6279">
        <ele>2265</ele>
        <time>2012-06-10T06:51:23.000Z</time>
      </trkpt>
      <trkpt lat="44.60549" lon="6.62764">
        <ele>2267.89</ele>
        <time>2012-06-10T06:51:37.000Z</time>
      </trkpt>
      <trkpt lat="44.60569" lon="6.62746">
        <ele>2269.81</ele>
        <time>2012-06-10T06:51:49.000Z</time>
      </trkpt>
      <trkpt lat="44.60578" lon="6.6271">
        <ele>2272.69</ele>
        <time>2012-06-10T06:52:02.000Z</time>
      </trkpt>
      <trkpt lat="44.60561" lon="6.62683">
        <ele>2275.1</ele>
        <time>2012-06-10T06:52:15.000Z</time>
      </trkpt>
      <trkpt lat="44.60534" lon="6.62654">
        <ele>2277.5</ele>
        <time>2012-06-10T06:52:30.000Z</time>
      </trkpt>
      <trkpt lat="44.60503" lon="6.62619">
        <ele>2277.5</ele>
        <time>2012-06-10T06:52:42.000Z</time>
      </trkpt>
      <trkpt lat="44.60499" lon="6.62617">
        <ele>2277.02</ele>
        <time>2012-06-10T06:52:43.000Z</time>
      </trkpt>
      <trkpt lat="44.60488" lon="6.62609">
        <ele>2277.02</ele>
        <time>2012-06-10T06:52:46.000Z</time>
      </trkpt>
      <trkpt lat="44.60477" lon="6.62596">
        <ele>2276.06</ele>
        <time>2012-06-10T06:52:49.000Z</time>
      </trkpt>
      <trkpt lat="44.60474" lon="6.6259">
        <ele>2276.06</ele>
        <time>2012-06-10T06:52:50.000Z</time>
      </trkpt>
      <trkpt lat="44.60468" lon="6.6257">
        <ele>2276.06</ele>
        <time>2012-06-10T06:52:53.000Z</time>
      </trkpt>
      <trkpt lat="44.60467" lon="6.62563">
        <ele>2276.06</ele>
        <time>2012-06-10T06:52:54.000Z</time>
      </trkpt>
      <trkpt lat="44.60465" lon="6.62556">
        <ele>2276.06</ele>
        <time>2012-06-10T06:52:55.000Z</time>
      </trkpt>
      <trkpt lat="44.60463" lon="6.6255">
        <ele>2275.58</ele>
        <time>2012-06-10T06:52:56.000Z</time>
      </trkpt>
      <trkpt lat="44.60461" lon="6.62543">
        <ele>2275.58</ele>
        <time>2012-06-10T06:52:57.000Z</time>
      </trkpt>
      <trkpt lat="44.60459" lon="6.62536">
        <ele>2275.1</ele>
        <time>2012-06-10T06:52:58.000Z</time>
      </trkpt>
      <trkpt lat="44.60456" lon="6.62521">
        <ele>2274.62</ele>
        <time>2012-06-10T06:53:00.000Z</time>
      </trkpt>
      <trkpt lat="44.60454" lon="6.62505">
        <ele>2275.1</ele>
        <time>2012-06-10T06:53:02.000Z</time>
      </trkpt>
      <trkpt lat="44.60452" lon="6.62497">
        <ele>2274.62</ele>
        <time>2012-06-10T06:53:03.000Z</time>
      </trkpt>
      <trkpt lat="44.60447" lon="6.62481">
        <ele>2273.66</ele>
        <time>2012-06-10T06:53:05.000Z</time>
      </trkpt>
      <trkpt lat="44.60444" lon="6.62473">
        <ele>2273.17</ele>
        <time>2012-06-10T06:53:06.000Z</time>
      </trkpt>
      <trkpt lat="44.60444" lon="6.62464">
        <ele>2273.17</ele>
        <time>2012-06-10T06:53:07.000Z</time>
      </trkpt>
      <trkpt lat="44.60446" lon="6.62435">
        <ele>2271.73</ele>
        <time>2012-06-10T06:53:10.000Z</time>
      </trkpt>
      <trkpt lat="44.60459" lon="6.62329">
        <ele>2268.85</ele>
        <time>2012-06-10T06:53:20.000Z</time>
      </trkpt>
      <trkpt lat="44.60463" lon="6.62318">
        <ele>2267.89</ele>
        <time>2012-06-10T06:53:21.000Z</time>
      </trkpt>
      <trkpt lat="44.60469" lon="6.62308">
        <ele>2267.41</ele>
        <time>2012-06-10T06:53:22.000Z</time>
      </trkpt>
      <trkpt lat="44.60474" lon="6.623">
        <ele>2267.41</ele>
        <time>2012-06-10T06:53:23.000Z</time>
      </trkpt>
      <trkpt lat="44.6048" lon="6.62291">
        <ele>2267.41</ele>
        <time>2012-06-10T06:53:24.000Z</time>
      </trkpt>
      <trkpt lat="44.60486" lon="6.62284">
        <ele>2267.41</ele>
        <time>2012-06-10T06:53:25.000Z</time>
      </trkpt>
      <trkpt lat="44.60492" lon="6.62276">
        <ele>2267.89</ele>
        <time>2012-06-10T06:53:26.000Z</time>
      </trkpt>
      <trkpt lat="44.60496" lon="6.62267">
        <ele>2266.93</ele>
        <time>2012-06-10T06:53:27.000Z</time>
      </trkpt>
      <trkpt lat="44.60504" lon="6.62249">
        <ele>2266.93</ele>
        <time>2012-06-10T06:53:29.000Z</time>
      </trkpt>
      <trkpt lat="44.60514" lon="6.62235">
        <ele>2267.41</ele>
        <time>2012-06-10T06:53:31.000Z</time>
      </trkpt>
      <trkpt lat="44.60517" lon="6.62228">
        <ele>2267.89</ele>
        <time>2012-06-10T06:53:32.000Z</time>
      </trkpt>
      <trkpt lat="44.60519" lon="6.62221">
        <ele>2267.41</ele>
        <time>2012-06-10T06:53:33.000Z</time>
      </trkpt>
      <trkpt lat="44.60524" lon="6.622">
        <ele>2269.33</ele>
        <time>2012-06-10T06:53:36.000Z</time>
      </trkpt>
      <trkpt lat="44.60527" lon="6.62187">
        <ele>2269.81</ele>
        <time>2012-06-10T06:53:38.000Z</time>
      </trkpt>
      <trkpt lat="44.60529" lon="6.62175">
        <ele>2269.81</ele>
        <time>2012-06-10T06:53:40.000Z</time>
      </trkpt>
      <trkpt lat="44.60531" lon="6.62169">
        <ele>2270.29</ele>
        <time>2012-06-10T06:53:41.000Z</time>
      </trkpt>
      <trkpt lat="44.60534" lon="6.62165">
        <ele>2270.29</ele>
        <time>2012-06-10T06:53:42.000Z</time>
      </trkpt>
      <trkpt lat="44.60566" lon="6.62135">
        <ele>2272.69</ele>
        <time>2012-06-10T06:53:53.000Z</time>
      </trkpt>
      <trkpt lat="44.60587" lon="6.62101">
        <ele>2275.1</ele>
        <time>2012-06-10T06:54:04.000Z</time>
      </trkpt>
      <trkpt lat="44.6062" lon="6.62078">
        <ele>2277.98</ele>
        <time>2012-06-10T06:54:18.000Z</time>
      </trkpt>
      <trkpt lat="44.60652" lon="6.62063">
        <ele>2279.9</ele>
        <time>2012-06-10T06:54:31.000Z</time>
      </trkpt>
      <trkpt lat="44.60682" lon="6.62033">
        <ele>2282.31</ele>
        <time>2012-06-10T06:54:45.000Z</time>
      </trkpt>
      <trkpt lat="44.60698" lon="6.61983">
        <ele>2285.19</ele>
        <time>2012-06-10T06:55:00.000Z</time>
      </trkpt>
      <trkpt lat="44.60713" lon="6.61929">
        <ele>2288.08</ele>
        <time>2012-06-10T06:55:16.000Z</time>
      </trkpt>
      <trkpt lat="44.60732" lon="6.61872">
        <ele>2290</ele>
        <time>2012-06-10T06:55:32.000Z</time>
      </trkpt>
      <trkpt lat="44.60753" lon="6.61839">
        <ele>2292.88</ele>
        <time>2012-06-10T06:55:43.000Z</time>
      </trkpt>
      <trkpt lat="44.6078" lon="6.61812">
        <ele>2296.25</ele>
        <time>2012-06-10T06:55:56.000Z</time>
      </trkpt>
      <trkpt lat="44.60808" lon="6.61787">
        <ele>2299.13</ele>
        <time>2012-06-10T06:56:09.000Z</time>
      </trkpt>
      <trkpt lat="44.60835" lon="6.61775">
        <ele>2301.53</ele>
        <time>2012-06-10T06:56:21.000Z</time>
      </trkpt>
      <trkpt lat="44.60864" lon="6.61768">
        <ele>2304.9</ele>
        <time>2012-06-10T06:56:34.000Z</time>
      </trkpt>
      <trkpt lat="44.60891" lon="6.61746">
        <ele>2307.3</ele>
        <time>2012-06-10T06:56:49.000Z</time>
      </trkpt>
      <trkpt lat="44.60894" lon="6.61724">
        <ele>2308.74</ele>
        <time>2012-06-10T06:56:56.000Z</time>
      </trkpt>
      <trkpt lat="44.60892" lon="6.61721">
        <ele>2308.74</ele>
        <time>2012-06-10T06:56:57.000Z</time>
      </trkpt>
      <trkpt lat="44.60872" lon="6.61706">
        <ele>2312.11</ele>
        <time>2012-06-10T06:57:08.000Z</time>
      </trkpt>
      <trkpt lat="44.60855" lon="6.6168">
        <ele>2314.03</ele>
        <time>2012-06-10T06:57:19.000Z</time>
      </trkpt>
      <trkpt lat="44.60855" lon="6.61673">
        <ele>2314.51</ele>
        <time>2012-06-10T06:57:21.000Z</time>
      </trkpt>
      <trkpt lat="44.60857" lon="6.61668">
        <ele>2315.95</ele>
        <time>2012-06-10T06:57:23.000Z</time>
      </trkpt>
      <trkpt lat="44.60859" lon="6.61666">
        <ele>2315.95</ele>
        <time>2012-06-10T06:57:24.000Z</time>
      </trkpt>
      <trkpt lat="44.60884" lon="6.61637">
        <ele>2319.32</ele>
        <time>2012-06-10T06:57:39.000Z</time>
      </trkpt>
      <trkpt lat="44.60909" lon="6.61609">
        <ele>2322.68</ele>
        <time>2012-06-10T06:57:54.000Z</time>
      </trkpt>
      <trkpt lat="44.60934" lon="6.61597">
        <ele>2325.09</ele>
        <time>2012-06-10T06:58:06.000Z</time>
      </trkpt>
      <trkpt lat="44.60959" lon="6.61588">
        <ele>2327.97</ele>
        <time>2012-06-10T06:58:18.000Z</time>
      </trkpt>
      <trkpt lat="44.6098" lon="6.61567">
        <ele>2330.37</ele>
        <time>2012-06-10T06:58:30.000Z</time>
      </trkpt>
      <trkpt lat="44.60995" lon="6.61536">
        <ele>2333.74</ele>
        <time>2012-06-10T06:58:42.000Z</time>
      </trkpt>
      <trkpt lat="44.61008" lon="6.61499">
        <ele>2336.14</ele>
        <time>2012-06-10T06:58:55.000Z</time>
      </trkpt>
      <trkpt lat="44.61018" lon="6.61495">
        <ele>2336.62</ele>
        <time>2012-06-10T06:58:59.000Z</time>
      </trkpt>
      <trkpt lat="44.6102" lon="6.61494">
        <ele>2336.14</ele>
        <time>2012-06-10T06:59:00.000Z</time>
      </trkpt>
      <trkpt lat="44.61023" lon="6.61493">
        <ele>2337.1</ele>
        <time>2012-06-10T06:59:01.000Z</time>
      </trkpt>
      <trkpt lat="44.61025" lon="6.61492">
        <ele>2337.58</ele>
        <time>2012-06-10T06:59:02.000Z</time>
      </trkpt>
      <trkpt lat="44.61027" lon="6.61491">
        <ele>2338.06</ele>
        <time>2012-06-10T06:59:03.000Z</time>
      </trkpt>
      <trkpt lat="44.61029" lon="6.61489">
        <ele>2337.58</ele>
        <time>2012-06-10T06:59:04.000Z</time>
      </trkpt>
      <trkpt lat="44.61053" lon="6.61458">
        <ele>2339.99</ele>
        <time>2012-06-10T06:59:18.000Z</time>
      </trkpt>
      <trkpt lat="44.61068" lon="6.61424">
        <ele>2342.87</ele>
        <time>2012-06-10T06:59:31.000Z</time>
      </trkpt>
      <trkpt lat="44.61066" lon="6.61388">
        <ele>2343.83</ele>
        <time>2012-06-10T06:59:43.000Z</time>
      </trkpt>
      <trkpt lat="44.61044" lon="6.6137">
        <ele>2347.68</ele>
        <time>2012-06-10T06:59:54.000Z</time>
      </trkpt>
      <trkpt lat="44.61023" lon="6.61347">
        <ele>2349.6</ele>
        <time>2012-06-10T07:00:06.000Z</time>
      </trkpt>
      <trkpt lat="44.61015" lon="6.6134">
        <ele>2351.52</ele>
        <time>2012-06-10T07:00:10.000Z</time>
      </trkpt>
      <trkpt lat="44.61015" lon="6.61311">
        <ele>2352.96</ele>
        <time>2012-06-10T07:00:20.000Z</time>
      </trkpt>
      <trkpt lat="44.61034" lon="6.61284">
        <ele>2354.89</ele>
        <time>2012-06-10T07:00:33.000Z</time>
      </trkpt>
      <trkpt lat="44.61046" lon="6.61263">
        <ele>2358.25</ele>
        <time>2012-06-10T07:00:42.000Z</time>
      </trkpt>
      <trkpt lat="44.61066" lon="6.61235">
        <ele>2360.65</ele>
        <time>2012-06-10T07:00:56.000Z</time>
      </trkpt>
      <trkpt lat="44.61077" lon="6.61212">
        <ele>2363.54</ele>
        <time>2012-06-10T07:01:05.000Z</time>
      </trkpt>
      <trkpt lat="44.61097" lon="6.61199">
        <ele>2366.42</ele>
        <time>2012-06-10T07:01:17.000Z</time>
      </trkpt>
      <trkpt lat="44.61098" lon="6.61197">
        <ele>2365.94</ele>
        <time>2012-06-10T07:01:18.000Z</time>
      </trkpt>
      <trkpt lat="44.61099" lon="6.61196">
        <ele>2366.42</ele>
        <time>2012-06-10T07:01:19.000Z</time>
      </trkpt>
      <trkpt lat="44.61102" lon="6.61194">
        <ele>2365.46</ele>
        <time>2012-06-10T07:01:20.000Z</time>
      </trkpt>
      <trkpt lat="44.61103" lon="6.61192">
        <ele>2365.94</ele>
        <time>2012-06-10T07:01:21.000Z</time>
      </trkpt>
      <trkpt lat="44.61105" lon="6.61189">
        <ele>2365.46</ele>
        <time>2012-06-10T07:01:22.000Z</time>
      </trkpt>
      <trkpt lat="44.61106" lon="6.61186">
        <ele>2365.46</ele>
        <time>2012-06-10T07:01:23.000Z</time>
      </trkpt>
      <trkpt lat="44.61108" lon="6.61183">
        <ele>2365.46</ele>
        <time>2012-06-10T07:01:24.000Z</time>
      </trkpt>
      <trkpt lat="44.61109" lon="6.61179">
        <ele>2365.46</ele>
        <time>2012-06-10T07:01:25.000Z</time>
      </trkpt>
      <trkpt lat="44.61111" lon="6.61144">
        <ele>2364.02</ele>
        <time>2012-06-10T07:01:31.000Z</time>
      </trkpt>
      <trkpt lat="44.61111" lon="6.61118">
        <ele>2361.14</ele>
        <time>2012-06-10T07:01:34.000Z</time>
      </trkpt>
      <trkpt lat="44.61113" lon="6.61099">
        <ele>2360.65</ele>
        <time>2012-06-10T07:01:36.000Z</time>
      </trkpt>
      <trkpt lat="44.61119" lon="6.61023">
        <ele>2360.17</ele>
        <time>2012-06-10T07:01:45.000Z</time>
      </trkpt>
      <trkpt lat="44.61118" lon="6.60973">
        <ele>2358.73</ele>
        <time>2012-06-10T07:01:51.000Z</time>
      </trkpt>
      <trkpt lat="44.61113" lon="6.6093">
        <ele>2354.41</ele>
        <time>2012-06-10T07:01:55.000Z</time>
      </trkpt>
      <trkpt lat="44.61113" lon="6.60919">
        <ele>2354.89</ele>
        <time>2012-06-10T07:01:56.000Z</time>
      </trkpt>
      <trkpt lat="44.61112" lon="6.60868">
        <ele>2355.85</ele>
        <time>2012-06-10T07:02:02.000Z</time>
      </trkpt>
      <trkpt lat="44.6111" lon="6.60795">
        <ele>2356.81</ele>
        <time>2012-06-10T07:02:13.000Z</time>
      </trkpt>
      <trkpt lat="44.6111" lon="6.60723">
        <ele>2356.81</ele>
        <time>2012-06-10T07:02:25.000Z</time>
      </trkpt>
      <trkpt lat="44.61108" lon="6.60697">
        <ele>2355.37</ele>
        <time>2012-06-10T07:02:28.000Z</time>
      </trkpt>
      <trkpt lat="44.61108" lon="6.60674">
        <ele>2352.96</ele>
        <time>2012-06-10T07:02:30.000Z</time>
      </trkpt>
      <trkpt lat="44.6111" lon="6.60641">
        <ele>2349.12</ele>
        <time>2012-06-10T07:02:33.000Z</time>
      </trkpt>
      <trkpt lat="44.6111" lon="6.6063">
        <ele>2346.23</ele>
        <time>2012-06-10T07:02:34.000Z</time>
      </trkpt>
      <trkpt lat="44.6111" lon="6.60606">
        <ele>2342.39</ele>
        <time>2012-06-10T07:02:36.000Z</time>
      </trkpt>
      <trkpt lat="44.61112" lon="6.60597">
        <ele>2342.39</ele>
        <time>2012-06-10T07:02:37.000Z</time>
      </trkpt>
      <trkpt lat="44.61115" lon="6.60588">
        <ele>2341.43</ele>
        <time>2012-06-10T07:02:38.000Z</time>
      </trkpt>
      <trkpt lat="44.61117" lon="6.6058">
        <ele>2341.91</ele>
        <time>2012-06-10T07:02:39.000Z</time>
      </trkpt>
      <trkpt lat="44.61118" lon="6.6057">
        <ele>2341.43</ele>
        <time>2012-06-10T07:02:40.000Z</time>
      </trkpt>
      <trkpt lat="44.61124" lon="6.60539">
        <ele>2338.06</ele>
        <time>2012-06-10T07:02:43.000Z</time>
      </trkpt>
      <trkpt lat="44.61127" lon="6.60528">
        <ele>2337.58</ele>
        <time>2012-06-10T07:02:44.000Z</time>
      </trkpt>
      <trkpt lat="44.61141" lon="6.60499">
        <ele>2335.18</ele>
        <time>2012-06-10T07:02:47.000Z</time>
      </trkpt>
      <trkpt lat="44.61157" lon="6.60471">
        <ele>2332.3</ele>
        <time>2012-06-10T07:02:50.000Z</time>
      </trkpt>
      <trkpt lat="44.61162" lon="6.6046">
        <ele>2331.33</ele>
        <time>2012-06-10T07:02:51.000Z</time>
      </trkpt>
      <trkpt lat="44.61165" lon="6.60449">
        <ele>2331.33</ele>
        <time>2012-06-10T07:02:52.000Z</time>
      </trkpt>
      <trkpt lat="44.61168" lon="6.60437">
        <ele>2330.37</ele>
        <time>2012-06-10T07:02:53.000Z</time>
      </trkpt>
      <trkpt lat="44.61169" lon="6.60427">
        <ele>2330.37</ele>
        <time>2012-06-10T07:02:54.000Z</time>
      </trkpt>
      <trkpt lat="44.61172" lon="6.60419">
        <ele>2329.41</ele>
        <time>2012-06-10T07:02:55.000Z</time>
      </trkpt>
      <trkpt lat="44.61174" lon="6.60414">
        <ele>2327.97</ele>
        <time>2012-06-10T07:02:56.000Z</time>
      </trkpt>
      <trkpt lat="44.61176" lon="6.60411">
        <ele>2327.01</ele>
        <time>2012-06-10T07:02:57.000Z</time>
      </trkpt>
      <trkpt lat="44.61177" lon="6.60409">
        <ele>2326.53</ele>
        <time>2012-06-10T07:02:58.000Z</time>
      </trkpt>
      <trkpt lat="44.61179" lon="6.60404">
        <ele>2326.05</ele>
        <time>2012-06-10T07:02:59.000Z</time>
      </trkpt>
      <trkpt lat="44.61181" lon="6.60399">
        <ele>2325.57</ele>
        <time>2012-06-10T07:03:00.000Z</time>
      </trkpt>
      <trkpt lat="44.61184" lon="6.60394">
        <ele>2325.09</ele>
        <time>2012-06-10T07:03:01.000Z</time>
      </trkpt>
      <trkpt lat="44.61188" lon="6.60389">
        <ele>2325.57</ele>
        <time>2012-06-10T07:03:02.000Z</time>
      </trkpt>
      <trkpt lat="44.61192" lon="6.60383">
        <ele>2325.09</ele>
        <time>2012-06-10T07:03:03.000Z</time>
      </trkpt>
      <trkpt lat="44.61197" lon="6.60378">
        <ele>2324.61</ele>
        <time>2012-06-10T07:03:04.000Z</time>
      </trkpt>
      <trkpt lat="44.61219" lon="6.60358">
        <ele>2323.64</ele>
        <time>2012-06-10T07:03:08.000Z</time>
      </trkpt>
      <trkpt lat="44.61224" lon="6.60353">
        <ele>2323.16</ele>
        <time>2012-06-10T07:03:09.000Z</time>
      </trkpt>
      <trkpt lat="44.61254" lon="6.60323">
        <ele>2319.8</ele>
        <time>2012-06-10T07:03:14.000Z</time>
      </trkpt>
      <trkpt lat="44.6126" lon="6.60315">
        <ele>2318.84</ele>
        <time>2012-06-10T07:03:15.000Z</time>
      </trkpt>
      <trkpt lat="44.61265" lon="6.60308">
        <ele>2318.36</ele>
        <time>2012-06-10T07:03:16.000Z</time>
      </trkpt>
      <trkpt lat="44.61271" lon="6.603">
        <ele>2317.4</ele>
        <time>2012-06-10T07:03:17.000Z</time>
      </trkpt>
      <trkpt lat="44.61275" lon="6.60291">
        <ele>2317.4</ele>
        <time>2012-06-10T07:03:18.000Z</time>
      </trkpt>
      <trkpt lat="44.61279" lon="6.60281">
        <ele>2316.43</ele>
        <time>2012-06-10T07:03:19.000Z</time>
      </trkpt>
      <trkpt lat="44.61283" lon="6.6027">
        <ele>2315.47</ele>
        <time>2012-06-10T07:03:20.000Z</time>
      </trkpt>
      <trkpt lat="44.61288" lon="6.60259">
        <ele>2314.03</ele>
        <time>2012-06-10T07:03:21.000Z</time>
      </trkpt>
      <trkpt lat="44.61293" lon="6.60249">
        <ele>2312.59</ele>
        <time>2012-06-10T07:03:22.000Z</time>
      </trkpt>
      <trkpt lat="44.61298" lon="6.60244">
        <ele>2311.63</ele>
        <time>2012-06-10T07:03:23.000Z</time>
      </trkpt>
      <trkpt lat="44.61303" lon="6.60241">
        <ele>2311.15</ele>
        <time>2012-06-10T07:03:24.000Z</time>
      </trkpt>
      <trkpt lat="44.61306" lon="6.60239">
        <ele>2310.67</ele>
        <time>2012-06-10T07:03:25.000Z</time>
      </trkpt>
      <trkpt lat="44.61309" lon="6.60236">
        <ele>2309.22</ele>
        <time>2012-06-10T07:03:26.000Z</time>
      </trkpt>
      <trkpt lat="44.61312" lon="6.60233">
        <ele>2308.74</ele>
        <time>2012-06-10T07:03:27.000Z</time>
      </trkpt>
      <trkpt lat="44.6132" lon="6.60219">
        <ele>2307.78</ele>
        <time>2012-06-10T07:03:32.000Z</time>
      </trkpt>
      <trkpt lat="44.61335" lon="6.6021">
        <ele>2307.3</ele>
        <time>2012-06-10T07:03:36.000Z</time>
      </trkpt>
      <trkpt lat="44.61344" lon="6.60205">
        <ele>2306.82</ele>
        <time>2012-06-10T07:03:38.000Z</time>
      </trkpt>
      <trkpt lat="44.61354" lon="6.60197">
        <ele>2305.86</ele>
        <time>2012-06-10T07:03:40.000Z</time>
      </trkpt>
      <trkpt lat="44.61363" lon="6.60187">
        <ele>2305.38</ele>
        <time>2012-06-10T07:03:42.000Z</time>
      </trkpt>
      <trkpt lat="44.61369" lon="6.60182">
        <ele>2304.42</ele>
        <time>2012-06-10T07:03:43.000Z</time>
      </trkpt>
      <trkpt lat="44.61374" lon="6.60176">
        <ele>2303.46</ele>
        <time>2012-06-10T07:03:44.000Z</time>
      </trkpt>
      <trkpt lat="44.61379" lon="6.60169">
        <ele>2302.49</ele>
        <time>2012-06-10T07:03:45.000Z</time>
      </trkpt>
      <trkpt lat="44.61383" lon="6.60161">
        <ele>2301.53</ele>
        <time>2012-06-10T07:03:46.000Z</time>
      </trkpt>
      <trkpt lat="44.61387" lon="6.60154">
        <ele>2301.53</ele>
        <time>2012-06-10T07:03:47.000Z</time>
      </trkpt>
      <trkpt lat="44.6139" lon="6.60146">
        <ele>2300.57</ele>
        <time>2012-06-10T07:03:48.000Z</time>
      </trkpt>
      <trkpt lat="44.6139" lon="6.60137">
        <ele>2300.09</ele>
        <time>2012-06-10T07:03:49.000Z</time>
      </trkpt>
      <trkpt lat="44.61391" lon="6.60128">
        <ele>2300.09</ele>
        <time>2012-06-10T07:03:50.000Z</time>
      </trkpt>
      <trkpt lat="44.61392" lon="6.60102">
        <ele>2300.09</ele>
        <time>2012-06-10T07:03:53.000Z</time>
      </trkpt>
      <trkpt lat="44.61392" lon="6.60095">
        <ele>2299.61</ele>
        <time>2012-06-10T07:03:54.000Z</time>
      </trkpt>
      <trkpt lat="44.61394" lon="6.60089">
        <ele>2298.65</ele>
        <time>2012-06-10T07:03:55.000Z</time>
      </trkpt>
      <trkpt lat="44.61399" lon="6.60081">
        <ele>2297.69</ele>
        <time>2012-06-10T07:03:57.000Z</time>
      </trkpt>
      <trkpt lat="44.61401" lon="6.60076">
        <ele>2297.21</ele>
        <time>2012-06-10T07:03:58.000Z</time>
      </trkpt>
      <trkpt lat="44.61403" lon="6.6007">
        <ele>2296.25</ele>
        <time>2012-06-10T07:03:59.000Z</time>
      </trkpt>
      <trkpt lat="44.61405" lon="6.60064">
        <ele>2295.77</ele>
        <time>2012-06-10T07:04:00.000Z</time>
      </trkpt>
      <trkpt lat="44.61407" lon="6.60058">
        <ele>2294.8</ele>
        <time>2012-06-10T07:04:01.000Z</time>
      </trkpt>
      <trkpt lat="44.6141" lon="6.60054">
        <ele>2295.28</ele>
        <time>2012-06-10T07:04:02.000Z</time>
      </trkpt>
      <trkpt lat="44.61412" lon="6.6005">
        <ele>2294.8</ele>
        <time>2012-06-10T07:04:03.000Z</time>
      </trkpt>
      <trkpt lat="44.61416" lon="6.60044">
        <ele>2293.84</ele>
        <time>2012-06-10T07:04:05.000Z</time>
      </trkpt>
      <trkpt lat="44.61417" lon="6.60042">
        <ele>2293.84</ele>
        <time>2012-06-10T07:04:06.000Z</time>
      </trkpt>
      <trkpt lat="44.61422" lon="6.60038">
        <ele>2292.4</ele>
        <time>2012-06-10T07:04:12.000Z</time>
      </trkpt>
      <trkpt lat="44.61422" lon="6.60036">
        <ele>2292.88</ele>
        <time>2012-06-10T07:04:13.000Z</time>
      </trkpt>
      <trkpt lat="44.61423" lon="6.60035">
        <ele>2292.88</ele>
        <time>2012-06-10T07:04:14.000Z</time>
      </trkpt>
      <trkpt lat="44.61438" lon="6.60013">
        <ele>2293.36</ele>
        <time>2012-06-10T07:04:24.000Z</time>
      </trkpt>
      <trkpt lat="44.6144" lon="6.60008">
        <ele>2292.88</ele>
        <time>2012-06-10T07:04:25.000Z</time>
      </trkpt>
      <trkpt lat="44.61443" lon="6.59998">
        <ele>2292.4</ele>
        <time>2012-06-10T07:04:27.000Z</time>
      </trkpt>
      <trkpt lat="44.61444" lon="6.59992">
        <ele>2292.4</ele>
        <time>2012-06-10T07:04:28.000Z</time>
      </trkpt>
      <trkpt lat="44.61446" lon="6.59987">
        <ele>2292.4</ele>
        <time>2012-06-10T07:04:29.000Z</time>
      </trkpt>
      <trkpt lat="44.61448" lon="6.59981">
        <ele>2292.4</ele>
        <time>2012-06-10T07:04:30.000Z</time>
      </trkpt>
      <trkpt lat="44.61449" lon="6.59975">
        <ele>2291.92</ele>
        <time>2012-06-10T07:04:31.000Z</time>
      </trkpt>
      <trkpt lat="44.61451" lon="6.59969">
        <ele>2291.44</ele>
        <time>2012-06-10T07:04:32.000Z</time>
      </trkpt>
      <trkpt lat="44.61452" lon="6.59962">
        <ele>2290</ele>
        <time>2012-06-10T07:04:33.000Z</time>
      </trkpt>
      <trkpt lat="44.61454" lon="6.59955">
        <ele>2288.56</ele>
        <time>2012-06-10T07:04:34.000Z</time>
      </trkpt>
      <trkpt lat="44.61456" lon="6.59944">
        <ele>2287.59</ele>
        <time>2012-06-10T07:04:36.000Z</time>
      </trkpt>
      <trkpt lat="44.61461" lon="6.59934">
        <ele>2287.59</ele>
        <time>2012-06-10T07:04:41.000Z</time>
      </trkpt>
      <trkpt lat="44.61463" lon="6.59926">
        <ele>2286.63</ele>
        <time>2012-06-10T07:04:43.000Z</time>
      </trkpt>
      <trkpt lat="44.6148" lon="6.59891">
        <ele>2282.31</ele>
        <time>2012-06-10T07:04:50.000Z</time>
      </trkpt>
      <trkpt lat="44.61488" lon="6.59878">
        <ele>2278.46</ele>
        <time>2012-06-10T07:04:53.000Z</time>
      </trkpt>
      <trkpt lat="44.61491" lon="6.59876">
        <ele>2277.5</ele>
        <time>2012-06-10T07:04:54.000Z</time>
      </trkpt>
      <trkpt lat="44.61495" lon="6.59876">
        <ele>2276.54</ele>
        <time>2012-06-10T07:04:55.000Z</time>
      </trkpt>
      <trkpt lat="44.615" lon="6.59876">
        <ele>2275.58</ele>
        <time>2012-06-10T07:04:56.000Z</time>
      </trkpt>
      <trkpt lat="44.61512" lon="6.59875">
        <ele>2272.69</ele>
        <time>2012-06-10T07:04:58.000Z</time>
      </trkpt>
      <trkpt lat="44.61529" lon="6.59873">
        <ele>2270.77</ele>
        <time>2012-06-10T07:05:01.000Z</time>
      </trkpt>
      <trkpt lat="44.61538" lon="6.59879">
        <ele>2268.85</ele>
        <time>2012-06-10T07:05:03.000Z</time>
      </trkpt>
      <trkpt lat="44.61545" lon="6.5988">
        <ele>2267.89</ele>
        <time>2012-06-10T07:05:04.000Z</time>
      </trkpt>
      <trkpt lat="44.61559" lon="6.59878">
        <ele>2266.45</ele>
        <time>2012-06-10T07:05:06.000Z</time>
      </trkpt>
      <trkpt lat="44.61564" lon="6.59877">
        <ele>2265.96</ele>
        <time>2012-06-10T07:05:07.000Z</time>
      </trkpt>
      <trkpt lat="44.61569" lon="6.59873">
        <ele>2265</ele>
        <time>2012-06-10T07:05:08.000Z</time>
      </trkpt>
      <trkpt lat="44.61573" lon="6.59867">
        <ele>2264.52</ele>
        <time>2012-06-10T07:05:09.000Z</time>
      </trkpt>
      <trkpt lat="44.61578" lon="6.59862">
        <ele>2264.52</ele>
        <time>2012-06-10T07:05:10.000Z</time>
      </trkpt>
      <trkpt lat="44.61583" lon="6.59859">
        <ele>2264.04</ele>
        <time>2012-06-10T07:05:11.000Z</time>
      </trkpt>
      <trkpt lat="44.61589" lon="6.59857">
        <ele>2263.56</ele>
        <time>2012-06-10T07:05:12.000Z</time>
      </trkpt>
      <trkpt lat="44.61596" lon="6.59854">
        <ele>2261.64</ele>
        <time>2012-06-10T07:05:13.000Z</time>
      </trkpt>
      <trkpt lat="44.61618" lon="6.59842">
        <ele>2258.27</ele>
        <time>2012-06-10T07:05:16.000Z</time>
      </trkpt>
      <trkpt lat="44.61624" lon="6.59837">
        <ele>2257.31</ele>
        <time>2012-06-10T07:05:17.000Z</time>
      </trkpt>
      <trkpt lat="44.61628" lon="6.59831">
        <ele>2256.83</ele>
        <time>2012-06-10T07:05:18.000Z</time>
      </trkpt>
      <trkpt lat="44.6163" lon="6.59828">
        <ele>2256.83</ele>
        <time>2012-06-10T07:05:19.000Z</time>
      </trkpt>
      <trkpt lat="44.61637" lon="6.59826">
        <ele>2255.87</ele>
        <time>2012-06-10T07:05:26.000Z</time>
      </trkpt>
      <trkpt lat="44.61642" lon="6.59825">
        <ele>2254.91</ele>
        <time>2012-06-10T07:05:27.000Z</time>
      </trkpt>
      <trkpt lat="44.61647" lon="6.59824">
        <ele>2254.91</ele>
        <time>2012-06-10T07:05:28.000Z</time>
      </trkpt>
      <trkpt lat="44.61652" lon="6.59823">
        <ele>2252.51</ele>
        <time>2012-06-10T07:05:29.000Z</time>
      </trkpt>
      <trkpt lat="44.61657" lon="6.59824">
        <ele>2252.03</ele>
        <time>2012-06-10T07:05:30.000Z</time>
      </trkpt>
      <trkpt lat="44.61661" lon="6.59828">
        <ele>2251.06</ele>
        <time>2012-06-10T07:05:31.000Z</time>
      </trkpt>
      <trkpt lat="44.61666" lon="6.59832">
        <ele>2249.62</ele>
        <time>2012-06-10T07:05:32.000Z</time>
      </trkpt>
      <trkpt lat="44.61682" lon="6.5984">
        <ele>2245.78</ele>
        <time>2012-06-10T07:05:35.000Z</time>
      </trkpt>
      <trkpt lat="44.61693" lon="6.59843">
        <ele>2241.93</ele>
        <time>2012-06-10T07:05:38.000Z</time>
      </trkpt>
      <trkpt lat="44.61696" lon="6.59845">
        <ele>2240.01</ele>
        <time>2012-06-10T07:05:39.000Z</time>
      </trkpt>
      <trkpt lat="44.617" lon="6.59847">
        <ele>2239.05</ele>
        <time>2012-06-10T07:05:40.000Z</time>
      </trkpt>
      <trkpt lat="44.61703" lon="6.59848">
        <ele>2238.09</ele>
        <time>2012-06-10T07:05:41.000Z</time>
      </trkpt>
      <trkpt lat="44.61708" lon="6.59849">
        <ele>2235.68</ele>
        <time>2012-06-10T07:05:43.000Z</time>
      </trkpt>
      <trkpt lat="44.6171" lon="6.59853">
        <ele>2234.72</ele>
        <time>2012-06-10T07:05:44.000Z</time>
      </trkpt>
      <trkpt lat="44.61713" lon="6.59853">
        <ele>2233.76</ele>
        <time>2012-06-10T07:05:45.000Z</time>
      </trkpt>
      <trkpt lat="44.61715" lon="6.59853">
        <ele>2233.28</ele>
        <time>2012-06-10T07:05:46.000Z</time>
      </trkpt>
      <trkpt lat="44.61716" lon="6.59853">
        <ele>2231.84</ele>
        <time>2012-06-10T07:05:47.000Z</time>
      </trkpt>
      <trkpt lat="44.61724" lon="6.59854">
        <ele>2228.47</ele>
        <time>2012-06-10T07:05:50.000Z</time>
      </trkpt>
      <trkpt lat="44.61733" lon="6.59858">
        <ele>2225.59</ele>
        <time>2012-06-10T07:05:53.000Z</time>
      </trkpt>
      <trkpt lat="44.61738" lon="6.59857">
        <ele>2224.63</ele>
        <time>2012-06-10T07:05:54.000Z</time>
      </trkpt>
      <trkpt lat="44.61742" lon="6.59856">
        <ele>2223.19</ele>
        <time>2012-06-10T07:05:55.000Z</time>
      </trkpt>
      <trkpt lat="44.61745" lon="6.59856">
        <ele>2222.22</ele>
        <time>2012-06-10T07:05:56.000Z</time>
      </trkpt>
      <trkpt lat="44.61754" lon="6.59858">
        <ele>2220.3</ele>
        <time>2012-06-10T07:05:58.000Z</time>
      </trkpt>
      <trkpt lat="44.61759" lon="6.59857">
        <ele>2218.38</ele>
        <time>2012-06-10T07:05:59.000Z</time>
      </trkpt>
      <trkpt lat="44.61763" lon="6.59859">
        <ele>2217.42</ele>
        <time>2012-06-10T07:06:00.000Z</time>
      </trkpt>
      <trkpt lat="44.61767" lon="6.59859">
        <ele>2216.46</ele>
        <time>2012-06-10T07:06:01.000Z</time>
      </trkpt>
      <trkpt lat="44.61771" lon="6.5986">
        <ele>2215.5</ele>
        <time>2012-06-10T07:06:02.000Z</time>
      </trkpt>
      <trkpt lat="44.61776" lon="6.59861">
        <ele>2213.57</ele>
        <time>2012-06-10T07:06:03.000Z</time>
      </trkpt>
      <trkpt lat="44.61783" lon="6.59862">
        <ele>2213.09</ele>
        <time>2012-06-10T07:06:04.000Z</time>
      </trkpt>
      <trkpt lat="44.61789" lon="6.59862">
        <ele>2211.65</ele>
        <time>2012-06-10T07:06:05.000Z</time>
      </trkpt>
      <trkpt lat="44.61796" lon="6.59861">
        <ele>2210.69</ele>
        <time>2012-06-10T07:06:06.000Z</time>
      </trkpt>
      <trkpt lat="44.61803" lon="6.5986">
        <ele>2209.73</ele>
        <time>2012-06-10T07:06:07.000Z</time>
      </trkpt>
      <trkpt lat="44.6181" lon="6.59858">
        <ele>2209.73</ele>
        <time>2012-06-10T07:06:08.000Z</time>
      </trkpt>
      <trkpt lat="44.61816" lon="6.59856">
        <ele>2210.21</ele>
        <time>2012-06-10T07:06:09.000Z</time>
      </trkpt>
      <trkpt lat="44.61819" lon="6.59856">
        <ele>2210.69</ele>
        <time>2012-06-10T07:06:10.000Z</time>
      </trkpt>
      <trkpt lat="44.61822" lon="6.59857">
        <ele>2211.17</ele>
        <time>2012-06-10T07:06:11.000Z</time>
      </trkpt>
      <trkpt lat="44.61824" lon="6.59856">
        <ele>2211.65</ele>
        <time>2012-06-10T07:06:12.000Z</time>
      </trkpt>
      <trkpt lat="44.61826" lon="6.59856">
        <ele>2211.17</ele>
        <time>2012-06-10T07:06:13.000Z</time>
      </trkpt>
      <trkpt lat="44.61828" lon="6.59856">
        <ele>2211.65</ele>
        <time>2012-06-10T07:06:14.000Z</time>
      </trkpt>
      <trkpt lat="44.61832" lon="6.59858">
        <ele>2211.65</ele>
        <time>2012-06-10T07:06:15.000Z</time>
      </trkpt>
      <trkpt lat="44.61835" lon="6.5986">
        <ele>2211.17</ele>
        <time>2012-06-10T07:06:16.000Z</time>
      </trkpt>
      <trkpt lat="44.6184" lon="6.59862">
        <ele>2210.69</ele>
        <time>2012-06-10T07:06:17.000Z</time>
      </trkpt>
      <trkpt lat="44.61849" lon="6.59865">
        <ele>2210.21</ele>
        <time>2012-06-10T07:06:19.000Z</time>
      </trkpt>
      <trkpt lat="44.61852" lon="6.59867">
        <ele>2209.25</ele>
        <time>2012-06-10T07:06:20.000Z</time>
      </trkpt>
      <trkpt lat="44.61856" lon="6.59868">
        <ele>2209.25</ele>
        <time>2012-06-10T07:06:22.000Z</time>
      </trkpt>
      <trkpt lat="44.61858" lon="6.59869">
        <ele>2209.73</ele>
        <time>2012-06-10T07:06:29.000Z</time>
      </trkpt>
      <trkpt lat="44.61861" lon="6.59869">
        <ele>2209.25</ele>
        <time>2012-06-10T07:06:30.000Z</time>
      </trkpt>
      <trkpt lat="44.61877" lon="6.59872">
        <ele>2207.81</ele>
        <time>2012-06-10T07:06:35.000Z</time>
      </trkpt>
      <trkpt lat="44.61881" lon="6.5987">
        <ele>2207.32</ele>
        <time>2012-06-10T07:06:36.000Z</time>
      </trkpt>
      <trkpt lat="44.61885" lon="6.5987">
        <ele>2207.81</ele>
        <time>2012-06-10T07:06:37.000Z</time>
      </trkpt>
      <trkpt lat="44.61889" lon="6.5987">
        <ele>2207.81</ele>
        <time>2012-06-10T07:06:38.000Z</time>
      </trkpt>
      <trkpt lat="44.61892" lon="6.59869">
        <ele>2207.81</ele>
        <time>2012-06-10T07:06:39.000Z</time>
      </trkpt>
      <trkpt lat="44.61896" lon="6.59868">
        <ele>2207.32</ele>
        <time>2012-06-10T07:06:40.000Z</time>
      </trkpt>
      <trkpt lat="44.619" lon="6.59867">
        <ele>2206.84</ele>
        <time>2012-06-10T07:06:41.000Z</time>
      </trkpt>
      <trkpt lat="44.61904" lon="6.59866">
        <ele>2206.36</ele>
        <time>2012-06-10T07:06:42.000Z</time>
      </trkpt>
      <trkpt lat="44.61917" lon="6.59862">
        <ele>2203.48</ele>
        <time>2012-06-10T07:06:45.000Z</time>
      </trkpt>
      <trkpt lat="44.61922" lon="6.5986">
        <ele>2203</ele>
        <time>2012-06-10T07:06:46.000Z</time>
      </trkpt>
      <trkpt lat="44.61932" lon="6.59858">
        <ele>2201.08</ele>
        <time>2012-06-10T07:06:48.000Z</time>
      </trkpt>
      <trkpt lat="44.61938" lon="6.59858">
        <ele>2200.11</ele>
        <time>2012-06-10T07:06:49.000Z</time>
      </trkpt>
      <trkpt lat="44.61948" lon="6.59858">
        <ele>2199.15</ele>
        <time>2012-06-10T07:06:51.000Z</time>
      </trkpt>
      <trkpt lat="44.61953" lon="6.59858">
        <ele>2197.71</ele>
        <time>2012-06-10T07:06:52.000Z</time>
      </trkpt>
      <trkpt lat="44.61958" lon="6.59859">
        <ele>2196.75</ele>
        <time>2012-06-10T07:06:53.000Z</time>
      </trkpt>
      <trkpt lat="44.61963" lon="6.59859">
        <ele>2195.79</ele>
        <time>2012-06-10T07:06:54.000Z</time>
      </trkpt>
      <trkpt lat="44.61968" lon="6.59856">
        <ele>2194.83</ele>
        <time>2012-06-10T07:06:55.000Z</time>
      </trkpt>
      <trkpt lat="44.61973" lon="6.59852">
        <ele>2194.35</ele>
        <time>2012-06-10T07:06:56.000Z</time>
      </trkpt>
      <trkpt lat="44.6199" lon="6.59838">
        <ele>2191.46</ele>
        <time>2012-06-10T07:06:59.000Z</time>
      </trkpt>
      <trkpt lat="44.61996" lon="6.59837">
        <ele>2191.46</ele>
        <time>2012-06-10T07:07:00.000Z</time>
      </trkpt>
      <trkpt lat="44.62001" lon="6.59835">
        <ele>2190.98</ele>
        <time>2012-06-10T07:07:01.000Z</time>
      </trkpt>
      <trkpt lat="44.62006" lon="6.59833">
        <ele>2190.98</ele>
        <time>2012-06-10T07:07:02.000Z</time>
      </trkpt>
      <trkpt lat="44.62011" lon="6.5983">
        <ele>2190.98</ele>
        <time>2012-06-10T07:07:03.000Z</time>
      </trkpt>
      <trkpt lat="44.62016" lon="6.59827">
        <ele>2190.98</ele>
        <time>2012-06-10T07:07:04.000Z</time>
      </trkpt>
      <trkpt lat="44.62025" lon="6.59822">
        <ele>2191.46</ele>
        <time>2012-06-10T07:07:06.000Z</time>
      </trkpt>
      <trkpt lat="44.6203" lon="6.59819">
        <ele>2190.5</ele>
        <time>2012-06-10T07:07:07.000Z</time>
      </trkpt>
      <trkpt lat="44.62035" lon="6.59817">
        <ele>2190.5</ele>
        <time>2012-06-10T07:07:08.000Z</time>
      </trkpt>
      <trkpt lat="44.6204" lon="6.59814">
        <ele>2190.02</ele>
        <time>2012-06-10T07:07:09.000Z</time>
      </trkpt>
      <trkpt lat="44.62045" lon="6.59812">
        <ele>2190.5</ele>
        <time>2012-06-10T07:07:10.000Z</time>
      </trkpt>
      <trkpt lat="44.62049" lon="6.59809">
        <ele>2190.02</ele>
        <time>2012-06-10T07:07:11.000Z</time>
      </trkpt>
      <trkpt lat="44.62053" lon="6.59805">
        <ele>2189.54</ele>
        <time>2012-06-10T07:07:12.000Z</time>
      </trkpt>
      <trkpt lat="44.62057" lon="6.59802">
        <ele>2189.54</ele>
        <time>2012-06-10T07:07:13.000Z</time>
      </trkpt>
      <trkpt lat="44.62062" lon="6.59798">
        <ele>2189.06</ele>
        <time>2012-06-10T07:07:14.000Z</time>
      </trkpt>
      <trkpt lat="44.62065" lon="6.59795">
        <ele>2187.14</ele>
        <time>2012-06-10T07:07:15.000Z</time>
      </trkpt>
      <trkpt lat="44.62066" lon="6.59791">
        <ele>2187.14</ele>
        <time>2012-06-10T07:07:16.000Z</time>
      </trkpt>
      <trkpt lat="44.62067" lon="6.59788">
        <ele>2185.69</ele>
        <time>2012-06-10T07:07:17.000Z</time>
      </trkpt>
      <trkpt lat="44.62069" lon="6.59786">
        <ele>2184.73</ele>
        <time>2012-06-10T07:07:18.000Z</time>
      </trkpt>
      <trkpt lat="44.62071" lon="6.59785">
        <ele>2184.25</ele>
        <time>2012-06-10T07:07:19.000Z</time>
      </trkpt>
      <trkpt lat="44.62077" lon="6.5978">
        <ele>2183.29</ele>
        <time>2012-06-10T07:07:21.000Z</time>
      </trkpt>
      <trkpt lat="44.62079" lon="6.59776">
        <ele>2182.33</ele>
        <time>2012-06-10T07:07:22.000Z</time>
      </trkpt>
      <trkpt lat="44.62083" lon="6.59771">
        <ele>2181.85</ele>
        <time>2012-06-10T07:07:23.000Z</time>
      </trkpt>
      <trkpt lat="44.62088" lon="6.59766">
        <ele>2180.41</ele>
        <time>2012-06-10T07:07:24.000Z</time>
      </trkpt>
      <trkpt lat="44.62094" lon="6.59761">
        <ele>2179.45</ele>
        <time>2012-06-10T07:07:25.000Z</time>
      </trkpt>
      <trkpt lat="44.62099" lon="6.59755">
        <ele>2178.97</ele>
        <time>2012-06-10T07:07:26.000Z</time>
      </trkpt>
      <trkpt lat="44.62103" lon="6.59751">
        <ele>2178.48</ele>
        <time>2012-06-10T07:07:27.000Z</time>
      </trkpt>
      <trkpt lat="44.62106" lon="6.59747">
        <ele>2178.48</ele>
        <time>2012-06-10T07:07:29.000Z</time>
      </trkpt>
      <trkpt lat="44.62108" lon="6.59745">
        <ele>2178.48</ele>
        <time>2012-06-10T07:07:30.000Z</time>
      </trkpt>
      <trkpt lat="44.6211" lon="6.59743">
        <ele>2178.97</ele>
        <time>2012-06-10T07:07:31.000Z</time>
      </trkpt>
      <trkpt lat="44.62112" lon="6.59742">
        <ele>2178.48</ele>
        <time>2012-06-10T07:07:32.000Z</time>
      </trkpt>
      <trkpt lat="44.62116" lon="6.59741">
        <ele>2178</ele>
        <time>2012-06-10T07:07:33.000Z</time>
      </trkpt>
      <trkpt lat="44.62119" lon="6.59738">
        <ele>2178</ele>
        <time>2012-06-10T07:07:34.000Z</time>
      </trkpt>
      <trkpt lat="44.62122" lon="6.59734">
        <ele>2178.48</ele>
        <time>2012-06-10T07:07:35.000Z</time>
      </trkpt>
      <trkpt lat="44.62125" lon="6.5973">
        <ele>2178</ele>
        <time>2012-06-10T07:07:36.000Z</time>
      </trkpt>
      <trkpt lat="44.62128" lon="6.59727">
        <ele>2178.48</ele>
        <time>2012-06-10T07:07:37.000Z</time>
      </trkpt>
      <trkpt lat="44.62132" lon="6.59725">
        <ele>2178.48</ele>
        <time>2012-06-10T07:07:38.000Z</time>
      </trkpt>
      <trkpt lat="44.62138" lon="6.59723">
        <ele>2177.52</ele>
        <time>2012-06-10T07:07:39.000Z</time>
      </trkpt>
      <trkpt lat="44.62143" lon="6.59719">
        <ele>2177.04</ele>
        <time>2012-06-10T07:07:40.000Z</time>
      </trkpt>
      <trkpt lat="44.62149" lon="6.59714">
        <ele>2175.6</ele>
        <time>2012-06-10T07:07:41.000Z</time>
      </trkpt>
      <trkpt lat="44.62156" lon="6.59709">
        <ele>2175.12</ele>
        <time>2012-06-10T07:07:42.000Z</time>
      </trkpt>
      <trkpt lat="44.62161" lon="6.59704">
        <ele>2173.68</ele>
        <time>2012-06-10T07:07:43.000Z</time>
      </trkpt>
      <trkpt lat="44.62166" lon="6.59699">
        <ele>2173.68</ele>
        <time>2012-06-10T07:07:44.000Z</time>
      </trkpt>
      <trkpt lat="44.62172" lon="6.59693">
        <ele>2173.2</ele>
        <time>2012-06-10T07:07:45.000Z</time>
      </trkpt>
      <trkpt lat="44.62178" lon="6.59688">
        <ele>2171.76</ele>
        <time>2012-06-10T07:07:46.000Z</time>
      </trkpt>
      <trkpt lat="44.62191" lon="6.59679">
        <ele>2169.83</ele>
        <time>2012-06-10T07:07:48.000Z</time>
      </trkpt>
      <trkpt lat="44.62199" lon="6.59676">
        <ele>2169.35</ele>
        <time>2012-06-10T07:07:49.000Z</time>
      </trkpt>
      <trkpt lat="44.62206" lon="6.59672">
        <ele>2167.91</ele>
        <time>2012-06-10T07:07:50.000Z</time>
      </trkpt>
      <trkpt lat="44.62212" lon="6.59667">
        <ele>2166.95</ele>
        <time>2012-06-10T07:07:51.000Z</time>
      </trkpt>
      <trkpt lat="44.62218" lon="6.59665">
        <ele>2166.95</ele>
        <time>2012-06-10T07:07:52.000Z</time>
      </trkpt>
      <trkpt lat="44.62224" lon="6.59664">
        <ele>2166.95</ele>
        <time>2012-06-10T07:07:53.000Z</time>
      </trkpt>
      <trkpt lat="44.6223" lon="6.59663">
        <ele>2165.99</ele>
        <time>2012-06-10T07:07:54.000Z</time>
      </trkpt>
      <trkpt lat="44.62234" lon="6.59662">
        <ele>2165.99</ele>
        <time>2012-06-10T07:07:55.000Z</time>
      </trkpt>
      <trkpt lat="44.62238" lon="6.59661">
        <ele>2165.51</ele>
        <time>2012-06-10T07:07:56.000Z</time>
      </trkpt>
      <trkpt lat="44.62241" lon="6.5966">
        <ele>2165.51</ele>
        <time>2012-06-10T07:07:57.000Z</time>
      </trkpt>
      <trkpt lat="44.62244" lon="6.5966">
        <ele>2165.51</ele>
        <time>2012-06-10T07:07:58.000Z</time>
      </trkpt>
      <trkpt lat="44.62246" lon="6.59659">
        <ele>2165.51</ele>
        <time>2012-06-10T07:07:59.000Z</time>
      </trkpt>
      <trkpt lat="44.6226" lon="6.59658">
        <ele>2165.03</ele>
        <time>2012-06-10T07:08:03.000Z</time>
      </trkpt>
      <trkpt lat="44.62262" lon="6.59657">
        <ele>2164.06</ele>
        <time>2012-06-10T07:08:04.000Z</time>
      </trkpt>
      <trkpt lat="44.62265" lon="6.59657">
        <ele>2163.58</ele>
        <time>2012-06-10T07:08:05.000Z</time>
      </trkpt>
      <trkpt lat="44.62268" lon="6.59657">
        <ele>2162.62</ele>
        <time>2012-06-10T07:08:06.000Z</time>
      </trkpt>
      <trkpt lat="44.6227" lon="6.59656">
        <ele>2161.66</ele>
        <time>2012-06-10T07:08:07.000Z</time>
      </trkpt>
      <trkpt lat="44.62272" lon="6.59655">
        <ele>2160.7</ele>
        <time>2012-06-10T07:08:08.000Z</time>
      </trkpt>
      <trkpt lat="44.62276" lon="6.59654">
        <ele>2159.74</ele>
        <time>2012-06-10T07:08:09.000Z</time>
      </trkpt>
      <trkpt lat="44.62279" lon="6.59652">
        <ele>2158.78</ele>
        <time>2012-06-10T07:08:10.000Z</time>
      </trkpt>
      <trkpt lat="44.62283" lon="6.59651">
        <ele>2156.86</ele>
        <time>2012-06-10T07:08:11.000Z</time>
      </trkpt>
      <trkpt lat="44.62287" lon="6.5965">
        <ele>2155.41</ele>
        <time>2012-06-10T07:08:12.000Z</time>
      </trkpt>
      <trkpt lat="44.62291" lon="6.5965">
        <ele>2154.93</ele>
        <time>2012-06-10T07:08:13.000Z</time>
      </trkpt>
      <trkpt lat="44.62294" lon="6.59649">
        <ele>2153.97</ele>
        <time>2012-06-10T07:08:14.000Z</time>
      </trkpt>
      <trkpt lat="44.62298" lon="6.59648">
        <ele>2153.01</ele>
        <time>2012-06-10T07:08:15.000Z</time>
      </trkpt>
      <trkpt lat="44.62302" lon="6.59648">
        <ele>2152.05</ele>
        <time>2012-06-10T07:08:16.000Z</time>
      </trkpt>
      <trkpt lat="44.62307" lon="6.59648">
        <ele>2151.09</ele>
        <time>2012-06-10T07:08:17.000Z</time>
      </trkpt>
      <trkpt lat="44.62317" lon="6.59648">
        <ele>2149.16</ele>
        <time>2012-06-10T07:08:19.000Z</time>
      </trkpt>
      <trkpt lat="44.62323" lon="6.59649">
        <ele>2148.2</ele>
        <time>2012-06-10T07:08:20.000Z</time>
      </trkpt>
      <trkpt lat="44.62338" lon="6.59652">
        <ele>2147.24</ele>
        <time>2012-06-10T07:08:23.000Z</time>
      </trkpt>
      <trkpt lat="44.62343" lon="6.59653">
        <ele>2145.8</ele>
        <time>2012-06-10T07:08:24.000Z</time>
      </trkpt>
      <trkpt lat="44.62349" lon="6.59654">
        <ele>2145.32</ele>
        <time>2012-06-10T07:08:25.000Z</time>
      </trkpt>
      <trkpt lat="44.62354" lon="6.59652">
        <ele>2143.88</ele>
        <time>2012-06-10T07:08:26.000Z</time>
      </trkpt>
      <trkpt lat="44.62361" lon="6.59648">
        <ele>2142.44</ele>
        <time>2012-06-10T07:08:27.000Z</time>
      </trkpt>
      <trkpt lat="44.62368" lon="6.59643">
        <ele>2141.47</ele>
        <time>2012-06-10T07:08:28.000Z</time>
      </trkpt>
      <trkpt lat="44.62376" lon="6.59638">
        <ele>2140.03</ele>
        <time>2012-06-10T07:08:29.000Z</time>
      </trkpt>
      <trkpt lat="44.62383" lon="6.59637">
        <ele>2140.03</ele>
        <time>2012-06-10T07:08:30.000Z</time>
      </trkpt>
      <trkpt lat="44.6239" lon="6.59636">
        <ele>2139.55</ele>
        <time>2012-06-10T07:08:31.000Z</time>
      </trkpt>
      <trkpt lat="44.62395" lon="6.59633">
        <ele>2138.59</ele>
        <time>2012-06-10T07:08:32.000Z</time>
      </trkpt>
      <trkpt lat="44.624" lon="6.59628">
        <ele>2137.63</ele>
        <time>2012-06-10T07:08:33.000Z</time>
      </trkpt>
      <trkpt lat="44.62405" lon="6.59622">
        <ele>2136.67</ele>
        <time>2012-06-10T07:08:34.000Z</time>
      </trkpt>
      <trkpt lat="44.6241" lon="6.59618">
        <ele>2135.71</ele>
        <time>2012-06-10T07:08:35.000Z</time>
      </trkpt>
      <trkpt lat="44.62418" lon="6.59612">
        <ele>2133.3</ele>
        <time>2012-06-10T07:08:37.000Z</time>
      </trkpt>
      <trkpt lat="44.62428" lon="6.59602">
        <ele>2128.98</ele>
        <time>2012-06-10T07:08:40.000Z</time>
      </trkpt>
      <trkpt lat="44.62432" lon="6.59599">
        <ele>2127.05</ele>
        <time>2012-06-10T07:08:41.000Z</time>
      </trkpt>
      <trkpt lat="44.62437" lon="6.59596">
        <ele>2125.13</ele>
        <time>2012-06-10T07:08:42.000Z</time>
      </trkpt>
      <trkpt lat="44.6245" lon="6.59589">
        <ele>2121.29</ele>
        <time>2012-06-10T07:08:45.000Z</time>
      </trkpt>
      <trkpt lat="44.62459" lon="6.59587">
        <ele>2117.92</ele>
        <time>2012-06-10T07:08:47.000Z</time>
      </trkpt>
      <trkpt lat="44.6247" lon="6.59583">
        <ele>2115.52</ele>
        <time>2012-06-10T07:08:49.000Z</time>
      </trkpt>
      <trkpt lat="44.62476" lon="6.59576">
        <ele>2113.12</ele>
        <time>2012-06-10T07:08:51.000Z</time>
      </trkpt>
      <trkpt lat="44.62479" lon="6.5957">
        <ele>2112.15</ele>
        <time>2012-06-10T07:08:52.000Z</time>
      </trkpt>
      <trkpt lat="44.62484" lon="6.59565">
        <ele>2110.71</ele>
        <time>2012-06-10T07:08:53.000Z</time>
      </trkpt>
      <trkpt lat="44.62489" lon="6.59562">
        <ele>2109.75</ele>
        <time>2012-06-10T07:08:54.000Z</time>
      </trkpt>
      <trkpt lat="44.62494" lon="6.5956">
        <ele>2108.79</ele>
        <time>2012-06-10T07:08:55.000Z</time>
      </trkpt>
      <trkpt lat="44.62499" lon="6.5956">
        <ele>2107.83</ele>
        <time>2012-06-10T07:08:56.000Z</time>
      </trkpt>
      <trkpt lat="44.62504" lon="6.59559">
        <ele>2106.87</ele>
        <time>2012-06-10T07:08:57.000Z</time>
      </trkpt>
      <trkpt lat="44.62514" lon="6.59558">
        <ele>2104.94</ele>
        <time>2012-06-10T07:08:59.000Z</time>
      </trkpt>
      <trkpt lat="44.62519" lon="6.59557">
        <ele>2103.98</ele>
        <time>2012-06-10T07:09:00.000Z</time>
      </trkpt>
      <trkpt lat="44.62524" lon="6.59558">
        <ele>2102.54</ele>
        <time>2012-06-10T07:09:01.000Z</time>
      </trkpt>
      <trkpt lat="44.62528" lon="6.59559">
        <ele>2102.06</ele>
        <time>2012-06-10T07:09:02.000Z</time>
      </trkpt>
      <trkpt lat="44.62533" lon="6.59561">
        <ele>2100.62</ele>
        <time>2012-06-10T07:09:03.000Z</time>
      </trkpt>
      <trkpt lat="44.62539" lon="6.59564">
        <ele>2099.18</ele>
        <time>2012-06-10T07:09:04.000Z</time>
      </trkpt>
      <trkpt lat="44.62545" lon="6.59567">
        <ele>2098.21</ele>
        <time>2012-06-10T07:09:05.000Z</time>
      </trkpt>
      <trkpt lat="44.6255" lon="6.59567">
        <ele>2097.73</ele>
        <time>2012-06-10T07:09:06.000Z</time>
      </trkpt>
      <trkpt lat="44.62555" lon="6.59566">
        <ele>2096.29</ele>
        <time>2012-06-10T07:09:07.000Z</time>
      </trkpt>
      <trkpt lat="44.62559" lon="6.59564">
        <ele>2095.81</ele>
        <time>2012-06-10T07:09:08.000Z</time>
      </trkpt>
      <trkpt lat="44.62564" lon="6.59561">
        <ele>2094.85</ele>
        <time>2012-06-10T07:09:09.000Z</time>
      </trkpt>
      <trkpt lat="44.62572" lon="6.59557">
        <ele>2092.45</ele>
        <time>2012-06-10T07:09:11.000Z</time>
      </trkpt>
      <trkpt lat="44.62588" lon="6.59551">
        <ele>2089.56</ele>
        <time>2012-06-10T07:09:14.000Z</time>
      </trkpt>
      <trkpt lat="44.62601" lon="6.59543">
        <ele>2088.12</ele>
        <time>2012-06-10T07:09:16.000Z</time>
      </trkpt>
      <trkpt lat="44.62606" lon="6.59539">
        <ele>2087.16</ele>
        <time>2012-06-10T07:09:17.000Z</time>
      </trkpt>
      <trkpt lat="44.62621" lon="6.59526">
        <ele>2083.79</ele>
        <time>2012-06-10T07:09:20.000Z</time>
      </trkpt>
      <trkpt lat="44.62625" lon="6.59522">
        <ele>2082.83</ele>
        <time>2012-06-10T07:09:21.000Z</time>
      </trkpt>
      <trkpt lat="44.62628" lon="6.59517">
        <ele>2082.35</ele>
        <time>2012-06-10T07:09:22.000Z</time>
      </trkpt>
      <trkpt lat="44.62631" lon="6.59514">
        <ele>2081.87</ele>
        <time>2012-06-10T07:09:23.000Z</time>
      </trkpt>
      <trkpt lat="44.62633" lon="6.59511">
        <ele>2081.39</ele>
        <time>2012-06-10T07:09:24.000Z</time>
      </trkpt>
      <trkpt lat="44.62635" lon="6.5951">
        <ele>2079.95</ele>
        <time>2012-06-10T07:09:25.000Z</time>
      </trkpt>
      <trkpt lat="44.62638" lon="6.5951">
        <ele>2078.51</ele>
        <time>2012-06-10T07:09:26.000Z</time>
      </trkpt>
      <trkpt lat="44.62642" lon="6.59512">
        <ele>2077.07</ele>
        <time>2012-06-10T07:09:27.000Z</time>
      </trkpt>
      <trkpt lat="44.62649" lon="6.59515">
        <ele>2073.7</ele>
        <time>2012-06-10T07:09:30.000Z</time>
      </trkpt>
      <trkpt lat="44.62654" lon="6.59508">
        <ele>2070.82</ele>
        <time>2012-06-10T07:09:33.000Z</time>
      </trkpt>
      <trkpt lat="44.62662" lon="6.59503">
        <ele>2068.89</ele>
        <time>2012-06-10T07:09:35.000Z</time>
      </trkpt>
      <trkpt lat="44.62667" lon="6.59501">
        <ele>2067.93</ele>
        <time>2012-06-10T07:09:36.000Z</time>
      </trkpt>
      <trkpt lat="44.62672" lon="6.59499">
        <ele>2066.49</ele>
        <time>2012-06-10T07:09:37.000Z</time>
      </trkpt>
      <trkpt lat="44.62679" lon="6.59498">
        <ele>2064.57</ele>
        <time>2012-06-10T07:09:38.000Z</time>
      </trkpt>
      <trkpt lat="44.62685" lon="6.595">
        <ele>2063.61</ele>
        <time>2012-06-10T07:09:39.000Z</time>
      </trkpt>
      <trkpt lat="44.62691" lon="6.595">
        <ele>2062.17</ele>
        <time>2012-06-10T07:09:40.000Z</time>
      </trkpt>
      <trkpt lat="44.62698" lon="6.59501">
        <ele>2061.68</ele>
        <time>2012-06-10T07:09:41.000Z</time>
      </trkpt>
      <trkpt lat="44.62715" lon="6.59502">
        <ele>2059.28</ele>
        <time>2012-06-10T07:09:44.000Z</time>
      </trkpt>
      <trkpt lat="44.6272" lon="6.59501">
        <ele>2058.32</ele>
        <time>2012-06-10T07:09:45.000Z</time>
      </trkpt>
      <trkpt lat="44.62725" lon="6.59498">
        <ele>2057.36</ele>
        <time>2012-06-10T07:09:46.000Z</time>
      </trkpt>
      <trkpt lat="44.6273" lon="6.59494">
        <ele>2056.88</ele>
        <time>2012-06-10T07:09:47.000Z</time>
      </trkpt>
      <trkpt lat="44.62735" lon="6.59493">
        <ele>2055.92</ele>
        <time>2012-06-10T07:09:48.000Z</time>
      </trkpt>
      <trkpt lat="44.6274" lon="6.59493">
        <ele>2054.47</ele>
        <time>2012-06-10T07:09:49.000Z</time>
      </trkpt>
      <trkpt lat="44.62744" lon="6.59493">
        <ele>2053.51</ele>
        <time>2012-06-10T07:09:50.000Z</time>
      </trkpt>
      <trkpt lat="44.62749" lon="6.59495">
        <ele>2052.07</ele>
        <time>2012-06-10T07:09:51.000Z</time>
      </trkpt>
      <trkpt lat="44.62754" lon="6.59499">
        <ele>2050.63</ele>
        <time>2012-06-10T07:09:52.000Z</time>
      </trkpt>
      <trkpt lat="44.62759" lon="6.59502">
        <ele>2049.67</ele>
        <time>2012-06-10T07:09:53.000Z</time>
      </trkpt>
      <trkpt lat="44.62764" lon="6.59505">
        <ele>2048.23</ele>
        <time>2012-06-10T07:09:54.000Z</time>
      </trkpt>
      <trkpt lat="44.62788" lon="6.59516">
        <ele>2043.9</ele>
        <time>2012-06-10T07:09:58.000Z</time>
      </trkpt>
      <trkpt lat="44.62794" lon="6.59517">
        <ele>2043.9</ele>
        <time>2012-06-10T07:09:59.000Z</time>
      </trkpt>
      <trkpt lat="44.628" lon="6.59517">
        <ele>2043.9</ele>
        <time>2012-06-10T07:10:00.000Z</time>
      </trkpt>
      <trkpt lat="44.62805" lon="6.59519">
        <ele>2044.86</ele>
        <time>2012-06-10T07:10:01.000Z</time>
      </trkpt>
      <trkpt lat="44.62811" lon="6.5952">
        <ele>2044.38</ele>
        <time>2012-06-10T07:10:02.000Z</time>
      </trkpt>
      <trkpt lat="44.62816" lon="6.59521">
        <ele>2044.86</ele>
        <time>2012-06-10T07:10:03.000Z</time>
      </trkpt>
      <trkpt lat="44.62821" lon="6.5952">
        <ele>2044.86</ele>
        <time>2012-06-10T07:10:04.000Z</time>
      </trkpt>
      <trkpt lat="44.62825" lon="6.59519">
        <ele>2045.34</ele>
        <time>2012-06-10T07:10:05.000Z</time>
      </trkpt>
      <trkpt lat="44.6283" lon="6.59518">
        <ele>2045.34</ele>
        <time>2012-06-10T07:10:06.000Z</time>
      </trkpt>
      <trkpt lat="44.62835" lon="6.59518">
        <ele>2044.86</ele>
        <time>2012-06-10T07:10:07.000Z</time>
      </trkpt>
      <trkpt lat="44.6284" lon="6.59518">
        <ele>2045.34</ele>
        <time>2012-06-10T07:10:08.000Z</time>
      </trkpt>
      <trkpt lat="44.62844" lon="6.59518">
        <ele>2045.34</ele>
        <time>2012-06-10T07:10:09.000Z</time>
      </trkpt>
      <trkpt lat="44.62849" lon="6.59519">
        <ele>2044.86</ele>
        <time>2012-06-10T07:10:10.000Z</time>
      </trkpt>
      <trkpt lat="44.62855" lon="6.59521">
        <ele>2044.38</ele>
        <time>2012-06-10T07:10:11.000Z</time>
      </trkpt>
      <trkpt lat="44.62862" lon="6.59522">
        <ele>2044.86</ele>
        <time>2012-06-10T07:10:12.000Z</time>
      </trkpt>
      <trkpt lat="44.62868" lon="6.59522">
        <ele>2043.9</ele>
        <time>2012-06-10T07:10:13.000Z</time>
      </trkpt>
      <trkpt lat="44.62874" lon="6.59521">
        <ele>2043.9</ele>
        <time>2012-06-10T07:10:14.000Z</time>
      </trkpt>
      <trkpt lat="44.6288" lon="6.5952">
        <ele>2043.42</ele>
        <time>2012-06-10T07:10:15.000Z</time>
      </trkpt>
      <trkpt lat="44.62885" lon="6.59518">
        <ele>2043.9</ele>
        <time>2012-06-10T07:10:16.000Z</time>
      </trkpt>
      <trkpt lat="44.62889" lon="6.59517">
        <ele>2044.38</ele>
        <time>2012-06-10T07:10:17.000Z</time>
      </trkpt>
      <trkpt lat="44.62926" lon="6.59514">
        <ele>2043.42</ele>
        <time>2012-06-10T07:10:26.000Z</time>
      </trkpt>
      <trkpt lat="44.62931" lon="6.59516">
        <ele>2041.5</ele>
        <time>2012-06-10T07:10:27.000Z</time>
      </trkpt>
      <trkpt lat="44.62935" lon="6.59519">
        <ele>2040.05</ele>
        <time>2012-06-10T07:10:28.000Z</time>
      </trkpt>
      <trkpt lat="44.62944" lon="6.59522">
        <ele>2037.17</ele>
        <time>2012-06-10T07:10:30.000Z</time>
      </trkpt>
      <trkpt lat="44.62948" lon="6.59524">
        <ele>2035.25</ele>
        <time>2012-06-10T07:10:31.000Z</time>
      </trkpt>
      <trkpt lat="44.62951" lon="6.59526">
        <ele>2033.33</ele>
        <time>2012-06-10T07:10:32.000Z</time>
      </trkpt>
      <trkpt lat="44.62955" lon="6.59528">
        <ele>2031.4</ele>
        <time>2012-06-10T07:10:33.000Z</time>
      </trkpt>
      <trkpt lat="44.62959" lon="6.59529">
        <ele>2029.96</ele>
        <time>2012-06-10T07:10:34.000Z</time>
      </trkpt>
      <trkpt lat="44.62962" lon="6.59529">
        <ele>2029</ele>
        <time>2012-06-10T07:10:35.000Z</time>
      </trkpt>
      <trkpt lat="44.62964" lon="6.59528">
        <ele>2027.56</ele>
        <time>2012-06-10T07:10:36.000Z</time>
      </trkpt>
      <trkpt lat="44.62967" lon="6.59528">
        <ele>2026.12</ele>
        <time>2012-06-10T07:10:37.000Z</time>
      </trkpt>
      <trkpt lat="44.62971" lon="6.59528">
        <ele>2024.19</ele>
        <time>2012-06-10T07:10:38.000Z</time>
      </trkpt>
      <trkpt lat="44.62976" lon="6.59529">
        <ele>2022.75</ele>
        <time>2012-06-10T07:10:39.000Z</time>
      </trkpt>
      <trkpt lat="44.62987" lon="6.59528">
        <ele>2020.35</ele>
        <time>2012-06-10T07:10:41.000Z</time>
      </trkpt>
      <trkpt lat="44.62997" lon="6.59527">
        <ele>2016.98</ele>
        <time>2012-06-10T07:10:43.000Z</time>
      </trkpt>
      <trkpt lat="44.63009" lon="6.59529">
        <ele>2012.66</ele>
        <time>2012-06-10T07:10:45.000Z</time>
      </trkpt>
      <trkpt lat="44.63016" lon="6.5953">
        <ele>2011.7</ele>
        <time>2012-06-10T07:10:46.000Z</time>
      </trkpt>
      <trkpt lat="44.63029" lon="6.59533">
        <ele>2008.81</ele>
        <time>2012-06-10T07:10:48.000Z</time>
      </trkpt>
      <trkpt lat="44.63045" lon="6.59535">
        <ele>2005.45</ele>
        <time>2012-06-10T07:10:51.000Z</time>
      </trkpt>
      <trkpt lat="44.63057" lon="6.59536">
        <ele>2004.49</ele>
        <time>2012-06-10T07:10:53.000Z</time>
      </trkpt>
      <trkpt lat="44.63062" lon="6.59539">
        <ele>2003.52</ele>
        <time>2012-06-10T07:10:54.000Z</time>
      </trkpt>
      <trkpt lat="44.63066" lon="6.59542">
        <ele>2002.56</ele>
        <time>2012-06-10T07:10:55.000Z</time>
      </trkpt>
      <trkpt lat="44.6307" lon="6.59544">
        <ele>2001.6</ele>
        <time>2012-06-10T07:10:56.000Z</time>
      </trkpt>
      <trkpt lat="44.63073" lon="6.59546">
        <ele>2000.64</ele>
        <time>2012-06-10T07:10:57.000Z</time>
      </trkpt>
      <trkpt lat="44.63078" lon="6.59545">
        <ele>2000.16</ele>
        <time>2012-06-10T07:10:58.000Z</time>
      </trkpt>
      <trkpt lat="44.63082" lon="6.59546">
        <ele>2000.64</ele>
        <time>2012-06-10T07:10:59.000Z</time>
      </trkpt>
      <trkpt lat="44.63087" lon="6.59547">
        <ele>1998.72</ele>
        <time>2012-06-10T07:11:00.000Z</time>
      </trkpt>
      <trkpt lat="44.63096" lon="6.59554">
        <ele>1994.39</ele>
        <time>2012-06-10T07:11:03.000Z</time>
      </trkpt>
      <trkpt lat="44.63098" lon="6.59555">
        <ele>1992.47</ele>
        <time>2012-06-10T07:11:04.000Z</time>
      </trkpt>
      <trkpt lat="44.63109" lon="6.59559">
        <ele>1988.14</ele>
        <time>2012-06-10T07:11:07.000Z</time>
      </trkpt>
      <trkpt lat="44.6312" lon="6.59565">
        <ele>1983.82</ele>
        <time>2012-06-10T07:11:09.000Z</time>
      </trkpt>
      <trkpt lat="44.63138" lon="6.59573">
        <ele>1979.49</ele>
        <time>2012-06-10T07:11:12.000Z</time>
      </trkpt>
      <trkpt lat="44.6315" lon="6.59575">
        <ele>1977.09</ele>
        <time>2012-06-10T07:11:14.000Z</time>
      </trkpt>
      <trkpt lat="44.63155" lon="6.59575">
        <ele>1976.13</ele>
        <time>2012-06-10T07:11:15.000Z</time>
      </trkpt>
      <trkpt lat="44.63159" lon="6.59576">
        <ele>1975.17</ele>
        <time>2012-06-10T07:11:16.000Z</time>
      </trkpt>
      <trkpt lat="44.63173" lon="6.59581">
        <ele>1971.32</ele>
        <time>2012-06-10T07:11:19.000Z</time>
      </trkpt>
      <trkpt lat="44.63176" lon="6.59584">
        <ele>1969.88</ele>
        <time>2012-06-10T07:11:20.000Z</time>
      </trkpt>
      <trkpt lat="44.63179" lon="6.59586">
        <ele>1968.92</ele>
        <time>2012-06-10T07:11:21.000Z</time>
      </trkpt>
      <trkpt lat="44.63182" lon="6.5959">
        <ele>1968.92</ele>
        <time>2012-06-10T07:11:22.000Z</time>
      </trkpt>
      <trkpt lat="44.63187" lon="6.59593">
        <ele>1968.44</ele>
        <time>2012-06-10T07:11:23.000Z</time>
      </trkpt>
      <trkpt lat="44.63191" lon="6.59595">
        <ele>1967.96</ele>
        <time>2012-06-10T07:11:24.000Z</time>
      </trkpt>
      <trkpt lat="44.63197" lon="6.59596">
        <ele>1967.96</ele>
        <time>2012-06-10T07:11:25.000Z</time>
      </trkpt>
      <trkpt lat="44.63203" lon="6.59599">
        <ele>1967.96</ele>
        <time>2012-06-10T07:11:26.000Z</time>
      </trkpt>
      <trkpt lat="44.63224" lon="6.59606">
        <ele>1967.96</ele>
        <time>2012-06-10T07:11:29.000Z</time>
      </trkpt>
      <trkpt lat="44.6323" lon="6.59608">
        <ele>1967.48</ele>
        <time>2012-06-10T07:11:30.000Z</time>
      </trkpt>
      <trkpt lat="44.63236" lon="6.59611">
        <ele>1967.96</ele>
        <time>2012-06-10T07:11:31.000Z</time>
      </trkpt>
      <trkpt lat="44.63247" lon="6.59615">
        <ele>1967.96</ele>
        <time>2012-06-10T07:11:33.000Z</time>
      </trkpt>
      <trkpt lat="44.6326" lon="6.59621">
        <ele>1969.4</ele>
        <time>2012-06-10T07:11:36.000Z</time>
      </trkpt>
      <trkpt lat="44.63266" lon="6.59623">
        <ele>1970.36</ele>
        <time>2012-06-10T07:11:38.000Z</time>
      </trkpt>
      <trkpt lat="44.63281" lon="6.5963">
        <ele>1973.72</ele>
        <time>2012-06-10T07:11:45.000Z</time>
      </trkpt>
      <trkpt lat="44.63284" lon="6.5963">
        <ele>1974.2</ele>
        <time>2012-06-10T07:11:46.000Z</time>
      </trkpt>
      <trkpt lat="44.63285" lon="6.5963">
        <ele>1974.2</ele>
        <time>2012-06-10T07:11:47.000Z</time>
      </trkpt>
      <trkpt lat="44.63287" lon="6.59629">
        <ele>1974.69</ele>
        <time>2012-06-10T07:11:48.000Z</time>
      </trkpt>
      <trkpt lat="44.6329" lon="6.59628">
        <ele>1974.2</ele>
        <time>2012-06-10T07:11:49.000Z</time>
      </trkpt>
      <trkpt lat="44.63293" lon="6.59625">
        <ele>1973.24</ele>
        <time>2012-06-10T07:11:50.000Z</time>
      </trkpt>
      <trkpt lat="44.63299" lon="6.59624">
        <ele>1972.28</ele>
        <time>2012-06-10T07:11:51.000Z</time>
      </trkpt>
      <trkpt lat="44.63311" lon="6.59622">
        <ele>1967.96</ele>
        <time>2012-06-10T07:11:53.000Z</time>
      </trkpt>
      <trkpt lat="44.63322" lon="6.59619">
        <ele>1966.03</ele>
        <time>2012-06-10T07:11:55.000Z</time>
      </trkpt>
      <trkpt lat="44.63332" lon="6.59621">
        <ele>1962.19</ele>
        <time>2012-06-10T07:11:57.000Z</time>
      </trkpt>
      <trkpt lat="44.63338" lon="6.59622">
        <ele>1961.23</ele>
        <time>2012-06-10T07:11:58.000Z</time>
      </trkpt>
      <trkpt lat="44.63344" lon="6.59623">
        <ele>1959.3</ele>
        <time>2012-06-10T07:11:59.000Z</time>
      </trkpt>
      <trkpt lat="44.6335" lon="6.59625">
        <ele>1957.38</ele>
        <time>2012-06-10T07:12:00.000Z</time>
      </trkpt>
      <trkpt lat="44.63355" lon="6.59629">
        <ele>1955.94</ele>
        <time>2012-06-10T07:12:01.000Z</time>
      </trkpt>
      <trkpt lat="44.63361" lon="6.59632">
        <ele>1954.5</ele>
        <time>2012-06-10T07:12:02.000Z</time>
      </trkpt>
      <trkpt lat="44.63364" lon="6.59635">
        <ele>1953.06</ele>
        <time>2012-06-10T07:12:03.000Z</time>
      </trkpt>
      <trkpt lat="44.63368" lon="6.59638">
        <ele>1952.57</ele>
        <time>2012-06-10T07:12:04.000Z</time>
      </trkpt>
      <trkpt lat="44.63372" lon="6.59641">
        <ele>1951.61</ele>
        <time>2012-06-10T07:12:05.000Z</time>
      </trkpt>
      <trkpt lat="44.63377" lon="6.59643">
        <ele>1950.17</ele>
        <time>2012-06-10T07:12:06.000Z</time>
      </trkpt>
      <trkpt lat="44.63382" lon="6.59645">
        <ele>1949.69</ele>
        <time>2012-06-10T07:12:07.000Z</time>
      </trkpt>
      <trkpt lat="44.63394" lon="6.59651">
        <ele>1948.25</ele>
        <time>2012-06-10T07:12:09.000Z</time>
      </trkpt>
      <trkpt lat="44.634" lon="6.59655">
        <ele>1947.29</ele>
        <time>2012-06-10T07:12:10.000Z</time>
      </trkpt>
      <trkpt lat="44.63407" lon="6.59659">
        <ele>1946.33</ele>
        <time>2012-06-10T07:12:11.000Z</time>
      </trkpt>
      <trkpt lat="44.63413" lon="6.59663">
        <ele>1946.33</ele>
        <time>2012-06-10T07:12:12.000Z</time>
      </trkpt>
      <trkpt lat="44.63418" lon="6.59667">
        <ele>1946.33</ele>
        <time>2012-06-10T07:12:13.000Z</time>
      </trkpt>
      <trkpt lat="44.63422" lon="6.5967">
        <ele>1946.33</ele>
        <time>2012-06-10T07:12:14.000Z</time>
      </trkpt>
      <trkpt lat="44.63425" lon="6.59673">
        <ele>1946.33</ele>
        <time>2012-06-10T07:12:15.000Z</time>
      </trkpt>
      <trkpt lat="44.63429" lon="6.59676">
        <ele>1946.33</ele>
        <time>2012-06-10T07:12:16.000Z</time>
      </trkpt>
      <trkpt lat="44.63431" lon="6.59677">
        <ele>1945.85</ele>
        <time>2012-06-10T07:12:17.000Z</time>
      </trkpt>
      <trkpt lat="44.63437" lon="6.5968">
        <ele>1946.33</ele>
        <time>2012-06-10T07:12:24.000Z</time>
      </trkpt>
      <trkpt lat="44.63437" lon="6.59681">
        <ele>1946.33</ele>
        <time>2012-06-10T07:12:25.000Z</time>
      </trkpt>
      <trkpt lat="44.63457" lon="6.59691">
        <ele>1946.81</ele>
        <time>2012-06-10T07:12:37.000Z</time>
      </trkpt>
      <trkpt lat="44.63467" lon="6.59704">
        <ele>1943.44</ele>
        <time>2012-06-10T07:12:42.000Z</time>
      </trkpt>
      <trkpt lat="44.6347" lon="6.59709">
        <ele>1943.44</ele>
        <time>2012-06-10T07:12:43.000Z</time>
      </trkpt>
      <trkpt lat="44.63475" lon="6.59711">
        <ele>1942</ele>
        <time>2012-06-10T07:12:44.000Z</time>
      </trkpt>
      <trkpt lat="44.6348" lon="6.59713">
        <ele>1941.52</ele>
        <time>2012-06-10T07:12:45.000Z</time>
      </trkpt>
      <trkpt lat="44.63502" lon="6.59718">
        <ele>1937.19</ele>
        <time>2012-06-10T07:12:49.000Z</time>
      </trkpt>
      <trkpt lat="44.63514" lon="6.59722">
        <ele>1936.23</ele>
        <time>2012-06-10T07:12:51.000Z</time>
      </trkpt>
      <trkpt lat="44.6352" lon="6.59725">
        <ele>1935.75</ele>
        <time>2012-06-10T07:12:52.000Z</time>
      </trkpt>
      <trkpt lat="44.63526" lon="6.59728">
        <ele>1935.75</ele>
        <time>2012-06-10T07:12:53.000Z</time>
      </trkpt>
      <trkpt lat="44.6353" lon="6.5973">
        <ele>1934.79</ele>
        <time>2012-06-10T07:12:54.000Z</time>
      </trkpt>
      <trkpt lat="44.63533" lon="6.59734">
        <ele>1934.31</ele>
        <time>2012-06-10T07:12:55.000Z</time>
      </trkpt>
      <trkpt lat="44.63535" lon="6.59738">
        <ele>1933.83</ele>
        <time>2012-06-10T07:12:56.000Z</time>
      </trkpt>
      <trkpt lat="44.63537" lon="6.59742">
        <ele>1932.39</ele>
        <time>2012-06-10T07:12:57.000Z</time>
      </trkpt>
      <trkpt lat="44.6354" lon="6.59744">
        <ele>1931.91</ele>
        <time>2012-06-10T07:12:58.000Z</time>
      </trkpt>
      <trkpt lat="44.63542" lon="6.59745">
        <ele>1931.43</ele>
        <time>2012-06-10T07:12:59.000Z</time>
      </trkpt>
      <trkpt lat="44.63543" lon="6.59745">
        <ele>1930.95</ele>
        <time>2012-06-10T07:13:00.000Z</time>
      </trkpt>
      <trkpt lat="44.63559" lon="6.59753">
        <ele>1932.39</ele>
        <time>2012-06-10T07:13:08.000Z</time>
      </trkpt>
      <trkpt lat="44.63563" lon="6.59754">
        <ele>1931.91</ele>
        <time>2012-06-10T07:13:09.000Z</time>
      </trkpt>
      <trkpt lat="44.63567" lon="6.59755">
        <ele>1932.39</ele>
        <time>2012-06-10T07:13:10.000Z</time>
      </trkpt>
      <trkpt lat="44.6357" lon="6.59757">
        <ele>1932.39</ele>
        <time>2012-06-10T07:13:11.000Z</time>
      </trkpt>
      <trkpt lat="44.63573" lon="6.5976">
        <ele>1932.39</ele>
        <time>2012-06-10T07:13:12.000Z</time>
      </trkpt>
      <trkpt lat="44.63577" lon="6.59763">
        <ele>1932.39</ele>
        <time>2012-06-10T07:13:13.000Z</time>
      </trkpt>
      <trkpt lat="44.6358" lon="6.59766">
        <ele>1932.87</ele>
        <time>2012-06-10T07:13:14.000Z</time>
      </trkpt>
      <trkpt lat="44.63582" lon="6.59768">
        <ele>1932.87</ele>
        <time>2012-06-10T07:13:15.000Z</time>
      </trkpt>
      <trkpt lat="44.63594" lon="6.59775">
        <ele>1934.79</ele>
        <time>2012-06-10T07:13:21.000Z</time>
      </trkpt>
      <trkpt lat="44.63596" lon="6.59777">
        <ele>1935.27</ele>
        <time>2012-06-10T07:13:22.000Z</time>
      </trkpt>
      <trkpt lat="44.63597" lon="6.59778">
        <ele>1935.75</ele>
        <time>2012-06-10T07:13:23.000Z</time>
      </trkpt>
      <trkpt lat="44.63598" lon="6.5978">
        <ele>1936.23</ele>
        <time>2012-06-10T07:13:24.000Z</time>
      </trkpt>
      <trkpt lat="44.636" lon="6.59782">
        <ele>1935.75</ele>
        <time>2012-06-10T07:13:25.000Z</time>
      </trkpt>
      <trkpt lat="44.63601" lon="6.59785">
        <ele>1935.75</ele>
        <time>2012-06-10T07:13:26.000Z</time>
      </trkpt>
      <trkpt lat="44.63602" lon="6.59788">
        <ele>1935.75</ele>
        <time>2012-06-10T07:13:27.000Z</time>
      </trkpt>
      <trkpt lat="44.63604" lon="6.59789">
        <ele>1935.27</ele>
        <time>2012-06-10T07:13:28.000Z</time>
      </trkpt>
      <trkpt lat="44.63628" lon="6.59796">
        <ele>1936.71</ele>
        <time>2012-06-10T07:13:39.000Z</time>
      </trkpt>
      <trkpt lat="44.63634" lon="6.59798">
        <ele>1935.75</ele>
        <time>2012-06-10T07:13:41.000Z</time>
      </trkpt>
      <trkpt lat="44.63638" lon="6.598">
        <ele>1935.27</ele>
        <time>2012-06-10T07:13:42.000Z</time>
      </trkpt>
      <trkpt lat="44.63641" lon="6.59801">
        <ele>1934.31</ele>
        <time>2012-06-10T07:13:43.000Z</time>
      </trkpt>
      <trkpt lat="44.63646" lon="6.59801">
        <ele>1933.83</ele>
        <time>2012-06-10T07:13:44.000Z</time>
      </trkpt>
      <trkpt lat="44.63651" lon="6.59799">
        <ele>1933.35</ele>
        <time>2012-06-10T07:13:45.000Z</time>
      </trkpt>
      <trkpt lat="44.63655" lon="6.59798">
        <ele>1932.87</ele>
        <time>2012-06-10T07:13:46.000Z</time>
      </trkpt>
      <trkpt lat="44.6366" lon="6.59797">
        <ele>1932.39</ele>
        <time>2012-06-10T07:13:48.000Z</time>
      </trkpt>
      <trkpt lat="44.63662" lon="6.59798">
        <ele>1930.95</ele>
        <time>2012-06-10T07:13:49.000Z</time>
      </trkpt>
      <trkpt lat="44.63664" lon="6.59799">
        <ele>1930.95</ele>
        <time>2012-06-10T07:13:50.000Z</time>
      </trkpt>
      <trkpt lat="44.63666" lon="6.59799">
        <ele>1929.5</ele>
        <time>2012-06-10T07:13:51.000Z</time>
      </trkpt>
      <trkpt lat="44.63667" lon="6.59799">
        <ele>1928.54</ele>
        <time>2012-06-10T07:13:52.000Z</time>
      </trkpt>
      <trkpt lat="44.63669" lon="6.598">
        <ele>1927.1</ele>
        <time>2012-06-10T07:13:53.000Z</time>
      </trkpt>
      <trkpt lat="44.6367" lon="6.59801">
        <ele>1926.62</ele>
        <time>2012-06-10T07:13:54.000Z</time>
      </trkpt>
      <trkpt lat="44.63677" lon="6.59804">
        <ele>1924.22</ele>
        <time>2012-06-10T07:14:05.000Z</time>
      </trkpt>
      <trkpt lat="44.63687" lon="6.59807">
        <ele>1920.85</ele>
        <time>2012-06-10T07:14:10.000Z</time>
      </trkpt>
      <trkpt lat="44.63689" lon="6.59807">
        <ele>1919.41</ele>
        <time>2012-06-10T07:14:11.000Z</time>
      </trkpt>
      <trkpt lat="44.63692" lon="6.59808">
        <ele>1918.93</ele>
        <time>2012-06-10T07:14:12.000Z</time>
      </trkpt>
      <trkpt lat="44.63695" lon="6.59808">
        <ele>1917.97</ele>
        <time>2012-06-10T07:14:13.000Z</time>
      </trkpt>
      <trkpt lat="44.63696" lon="6.59808">
        <ele>1917.01</ele>
        <time>2012-06-10T07:14:14.000Z</time>
      </trkpt>
      <trkpt lat="44.63695" lon="6.5981">
        <ele>1915.56</ele>
        <time>2012-06-10T07:14:16.000Z</time>
      </trkpt>
      <trkpt lat="44.63695" lon="6.59811">
        <ele>1915.56</ele>
        <time>2012-06-10T07:14:25.000Z</time>
      </trkpt>
      <trkpt lat="44.63692" lon="6.5982">
        <ele>1912.2</ele>
        <time>2012-06-10T07:14:30.000Z</time>
      </trkpt>
      <trkpt lat="44.63692" lon="6.59822">
        <ele>1911.72</ele>
        <time>2012-06-10T07:14:31.000Z</time>
      </trkpt>
      <trkpt lat="44.637" lon="6.59828">
        <ele>1907.39</ele>
        <time>2012-06-10T07:14:35.000Z</time>
      </trkpt>
      <trkpt lat="44.63705" lon="6.5983">
        <ele>1905.95</ele>
        <time>2012-06-10T07:14:37.000Z</time>
      </trkpt>
      <trkpt lat="44.63711" lon="6.59832">
        <ele>1903.07</ele>
        <time>2012-06-10T07:14:39.000Z</time>
      </trkpt>
      <trkpt lat="44.63717" lon="6.59833">
        <ele>1899.7</ele>
        <time>2012-06-10T07:14:41.000Z</time>
      </trkpt>
      <trkpt lat="44.63718" lon="6.59833">
        <ele>1898.26</ele>
        <time>2012-06-10T07:14:42.000Z</time>
      </trkpt>
      <trkpt lat="44.63716" lon="6.59844">
        <ele>1894.42</ele>
        <time>2012-06-10T07:14:47.000Z</time>
      </trkpt>
      <trkpt lat="44.63716" lon="6.59845">
        <ele>1893.45</ele>
        <time>2012-06-10T07:14:48.000Z</time>
      </trkpt>
      <trkpt lat="44.63722" lon="6.59849">
        <ele>1891.53</ele>
        <time>2012-06-10T07:14:51.000Z</time>
      </trkpt>
      <trkpt lat="44.63732" lon="6.59848">
        <ele>1887.69</ele>
        <time>2012-06-10T07:14:53.000Z</time>
      </trkpt>
      <trkpt lat="44.63747" lon="6.59847">
        <ele>1883.84</ele>
        <time>2012-06-10T07:14:56.000Z</time>
      </trkpt>
      <trkpt lat="44.63753" lon="6.59848">
        <ele>1881.92</ele>
        <time>2012-06-10T07:14:57.000Z</time>
      </trkpt>
      <trkpt lat="44.63764" lon="6.59851">
        <ele>1879.03</ele>
        <time>2012-06-10T07:14:59.000Z</time>
      </trkpt>
      <trkpt lat="44.63771" lon="6.59853">
        <ele>1877.59</ele>
        <time>2012-06-10T07:15:01.000Z</time>
      </trkpt>
      <trkpt lat="44.63775" lon="6.59852">
        <ele>1877.59</ele>
        <time>2012-06-10T07:15:02.000Z</time>
      </trkpt>
      <trkpt lat="44.63782" lon="6.59854">
        <ele>1876.63</ele>
        <time>2012-06-10T07:15:04.000Z</time>
      </trkpt>
      <trkpt lat="44.63786" lon="6.59857">
        <ele>1875.19</ele>
        <time>2012-06-10T07:15:05.000Z</time>
      </trkpt>
      <trkpt lat="44.63791" lon="6.59858">
        <ele>1874.71</ele>
        <time>2012-06-10T07:15:06.000Z</time>
      </trkpt>
      <trkpt lat="44.63795" lon="6.59858">
        <ele>1874.71</ele>
        <time>2012-06-10T07:15:07.000Z</time>
      </trkpt>
      <trkpt lat="44.638" lon="6.59858">
        <ele>1874.71</ele>
        <time>2012-06-10T07:15:08.000Z</time>
      </trkpt>
      <trkpt lat="44.63803" lon="6.59859">
        <ele>1874.71</ele>
        <time>2012-06-10T07:15:09.000Z</time>
      </trkpt>
      <trkpt lat="44.63808" lon="6.5986">
        <ele>1874.71</ele>
        <time>2012-06-10T07:15:10.000Z</time>
      </trkpt>
      <trkpt lat="44.63811" lon="6.59862">
        <ele>1874.23</ele>
        <time>2012-06-10T07:15:11.000Z</time>
      </trkpt>
      <trkpt lat="44.63815" lon="6.59867">
        <ele>1873.75</ele>
        <time>2012-06-10T07:15:12.000Z</time>
      </trkpt>
      <trkpt lat="44.63819" lon="6.59872">
        <ele>1873.75</ele>
        <time>2012-06-10T07:15:13.000Z</time>
      </trkpt>
      <trkpt lat="44.63823" lon="6.59878">
        <ele>1873.27</ele>
        <time>2012-06-10T07:15:14.000Z</time>
      </trkpt>
      <trkpt lat="44.63825" lon="6.59882">
        <ele>1874.23</ele>
        <time>2012-06-10T07:15:15.000Z</time>
      </trkpt>
      <trkpt lat="44.63827" lon="6.59885">
        <ele>1874.71</ele>
        <time>2012-06-10T07:15:16.000Z</time>
      </trkpt>
      <trkpt lat="44.63829" lon="6.59887">
        <ele>1874.23</ele>
        <time>2012-06-10T07:15:17.000Z</time>
      </trkpt>
      <trkpt lat="44.63832" lon="6.59889">
        <ele>1874.23</ele>
        <time>2012-06-10T07:15:18.000Z</time>
      </trkpt>
      <trkpt lat="44.63836" lon="6.5989">
        <ele>1873.27</ele>
        <time>2012-06-10T07:15:19.000Z</time>
      </trkpt>
      <trkpt lat="44.63842" lon="6.5989">
        <ele>1872.79</ele>
        <time>2012-06-10T07:15:20.000Z</time>
      </trkpt>
      <trkpt lat="44.63849" lon="6.59891">
        <ele>1871.82</ele>
        <time>2012-06-10T07:15:21.000Z</time>
      </trkpt>
      <trkpt lat="44.63857" lon="6.59893">
        <ele>1870.86</ele>
        <time>2012-06-10T07:15:22.000Z</time>
      </trkpt>
      <trkpt lat="44.63865" lon="6.59894">
        <ele>1870.38</ele>
        <time>2012-06-10T07:15:23.000Z</time>
      </trkpt>
      <trkpt lat="44.63879" lon="6.59896">
        <ele>1868.94</ele>
        <time>2012-06-10T07:15:25.000Z</time>
      </trkpt>
      <trkpt lat="44.63885" lon="6.59897">
        <ele>1868.46</ele>
        <time>2012-06-10T07:15:26.000Z</time>
      </trkpt>
      <trkpt lat="44.63891" lon="6.59898">
        <ele>1868.46</ele>
        <time>2012-06-10T07:15:27.000Z</time>
      </trkpt>
      <trkpt lat="44.63896" lon="6.59899">
        <ele>1867.02</ele>
        <time>2012-06-10T07:15:28.000Z</time>
      </trkpt>
      <trkpt lat="44.63901" lon="6.59899">
        <ele>1866.06</ele>
        <time>2012-06-10T07:15:29.000Z</time>
      </trkpt>
      <trkpt lat="44.63905" lon="6.599">
        <ele>1865.09</ele>
        <time>2012-06-10T07:15:30.000Z</time>
      </trkpt>
      <trkpt lat="44.6391" lon="6.59903">
        <ele>1864.13</ele>
        <time>2012-06-10T07:15:31.000Z</time>
      </trkpt>
      <trkpt lat="44.63914" lon="6.59907">
        <ele>1863.17</ele>
        <time>2012-06-10T07:15:32.000Z</time>
      </trkpt>
      <trkpt lat="44.63917" lon="6.59911">
        <ele>1861.73</ele>
        <time>2012-06-10T07:15:33.000Z</time>
      </trkpt>
      <trkpt lat="44.63911" lon="6.59919">
        <ele>1858.85</ele>
        <time>2012-06-10T07:15:36.000Z</time>
      </trkpt>
      <trkpt lat="44.63914" lon="6.59933">
        <ele>1855.48</ele>
        <time>2012-06-10T07:15:40.000Z</time>
      </trkpt>
      <trkpt lat="44.63919" lon="6.59937">
        <ele>1854.52</ele>
        <time>2012-06-10T07:15:41.000Z</time>
      </trkpt>
      <trkpt lat="44.63924" lon="6.59941">
        <ele>1853.56</ele>
        <time>2012-06-10T07:15:42.000Z</time>
      </trkpt>
      <trkpt lat="44.6393" lon="6.59942">
        <ele>1852.6</ele>
        <time>2012-06-10T07:15:43.000Z</time>
      </trkpt>
      <trkpt lat="44.63935" lon="6.59941">
        <ele>1850.68</ele>
        <time>2012-06-10T07:15:44.000Z</time>
      </trkpt>
      <trkpt lat="44.63949" lon="6.59927">
        <ele>1846.35</ele>
        <time>2012-06-10T07:15:47.000Z</time>
      </trkpt>
      <trkpt lat="44.63961" lon="6.5991">
        <ele>1842.02</ele>
        <time>2012-06-10T07:15:50.000Z</time>
      </trkpt>
      <trkpt lat="44.63966" lon="6.5991">
        <ele>1841.54</ele>
        <time>2012-06-10T07:15:51.000Z</time>
      </trkpt>
      <trkpt lat="44.63972" lon="6.5991">
        <ele>1841.06</ele>
        <time>2012-06-10T07:15:52.000Z</time>
      </trkpt>
      <trkpt lat="44.63979" lon="6.5991">
        <ele>1840.1</ele>
        <time>2012-06-10T07:15:53.000Z</time>
      </trkpt>
      <trkpt lat="44.63985" lon="6.59909">
        <ele>1839.62</ele>
        <time>2012-06-10T07:15:54.000Z</time>
      </trkpt>
      <trkpt lat="44.63991" lon="6.59908">
        <ele>1839.14</ele>
        <time>2012-06-10T07:15:55.000Z</time>
      </trkpt>
      <trkpt lat="44.64021" lon="6.59908">
        <ele>1836.26</ele>
        <time>2012-06-10T07:16:00.000Z</time>
      </trkpt>
      <trkpt lat="44.64043" lon="6.59899">
        <ele>1830.49</ele>
        <time>2012-06-10T07:16:04.000Z</time>
      </trkpt>
      <trkpt lat="44.64047" lon="6.59897">
        <ele>1829.05</ele>
        <time>2012-06-10T07:16:05.000Z</time>
      </trkpt>
      <trkpt lat="44.64065" lon="6.59889">
        <ele>1824.72</ele>
        <time>2012-06-10T07:16:09.000Z</time>
      </trkpt>
      <trkpt lat="44.64076" lon="6.59894">
        <ele>1821.35</ele>
        <time>2012-06-10T07:16:12.000Z</time>
      </trkpt>
      <trkpt lat="44.64081" lon="6.59906">
        <ele>1817.99</ele>
        <time>2012-06-10T07:16:15.000Z</time>
      </trkpt>
      <trkpt lat="44.64094" lon="6.59918">
        <ele>1811.74</ele>
        <time>2012-06-10T07:16:21.000Z</time>
      </trkpt>
      <trkpt lat="44.64101" lon="6.59903">
        <ele>1808.38</ele>
        <time>2012-06-10T07:16:24.000Z</time>
      </trkpt>
      <trkpt lat="44.64114" lon="6.59879">
        <ele>1803.09</ele>
        <time>2012-06-10T07:16:29.000Z</time>
      </trkpt>
      <trkpt lat="44.64123" lon="6.59876">
        <ele>1801.65</ele>
        <time>2012-06-10T07:16:31.000Z</time>
      </trkpt>
      <trkpt lat="44.6413" lon="6.59869">
        <ele>1800.21</ele>
        <time>2012-06-10T07:16:33.000Z</time>
      </trkpt>
      <trkpt lat="44.64135" lon="6.59859">
        <ele>1798.28</ele>
        <time>2012-06-10T07:16:37.000Z</time>
      </trkpt>
      <trkpt lat="44.64134" lon="6.59855">
        <ele>1797.32</ele>
        <time>2012-06-10T07:16:39.000Z</time>
      </trkpt>
      <trkpt lat="44.64138" lon="6.59853">
        <ele>1795.4</ele>
        <time>2012-06-10T07:16:43.000Z</time>
      </trkpt>
      <trkpt lat="44.64143" lon="6.59854">
        <ele>1794.44</ele>
        <time>2012-06-10T07:16:46.000Z</time>
      </trkpt>
      <trkpt lat="44.64141" lon="6.59832">
        <ele>1789.63</ele>
        <time>2012-06-10T07:16:52.000Z</time>
      </trkpt>
      <trkpt lat="44.64146" lon="6.59832">
        <ele>1787.71</ele>
        <time>2012-06-10T07:16:55.000Z</time>
      </trkpt>
      <trkpt lat="44.64161" lon="6.59844">
        <ele>1780.98</ele>
        <time>2012-06-10T07:17:00.000Z</time>
      </trkpt>
      <trkpt lat="44.64164" lon="6.59846">
        <ele>1778.58</ele>
        <time>2012-06-10T07:17:03.000Z</time>
      </trkpt>
      <trkpt lat="44.64165" lon="6.59841">
        <ele>1777.61</ele>
        <time>2012-06-10T07:17:05.000Z</time>
      </trkpt>
      <trkpt lat="44.64164" lon="6.59831">
        <ele>1775.21</ele>
        <time>2012-06-10T07:17:07.000Z</time>
      </trkpt>
      <trkpt lat="44.64161" lon="6.5981">
        <ele>1769.44</ele>
        <time>2012-06-10T07:17:10.000Z</time>
      </trkpt>
      <trkpt lat="44.64156" lon="6.59793">
        <ele>1765.12</ele>
        <time>2012-06-10T07:17:13.000Z</time>
      </trkpt>
      <trkpt lat="44.64156" lon="6.59791">
        <ele>1764.64</ele>
        <time>2012-06-10T07:17:14.000Z</time>
      </trkpt>
      <trkpt lat="44.64166" lon="6.59791">
        <ele>1762.23</ele>
        <time>2012-06-10T07:17:17.000Z</time>
      </trkpt>
      <trkpt lat="44.64176" lon="6.59794">
        <ele>1758.87</ele>
        <time>2012-06-10T07:17:19.000Z</time>
      </trkpt>
      <trkpt lat="44.6419" lon="6.59789">
        <ele>1753.58</ele>
        <time>2012-06-10T07:17:23.000Z</time>
      </trkpt>
      <trkpt lat="44.64193" lon="6.5978">
        <ele>1752.62</ele>
        <time>2012-06-10T07:17:25.000Z</time>
      </trkpt>
      <trkpt lat="44.64192" lon="6.59768">
        <ele>1751.66</ele>
        <time>2012-06-10T07:17:27.000Z</time>
      </trkpt>
      <trkpt lat="44.64189" lon="6.59761">
        <ele>1750.7</ele>
        <time>2012-06-10T07:17:29.000Z</time>
      </trkpt>
      <trkpt lat="44.64183" lon="6.59758">
        <ele>1750.22</ele>
        <time>2012-06-10T07:17:31.000Z</time>
      </trkpt>
      <trkpt lat="44.64176" lon="6.59751">
        <ele>1745.41</ele>
        <time>2012-06-10T07:17:34.000Z</time>
      </trkpt>
      <trkpt lat="44.64168" lon="6.59746">
        <ele>1743.01</ele>
        <time>2012-06-10T07:17:37.000Z</time>
      </trkpt>
      <trkpt lat="44.64155" lon="6.59743">
        <ele>1737.24</ele>
        <time>2012-06-10T07:17:42.000Z</time>
      </trkpt>
      <trkpt lat="44.64148" lon="6.59741">
        <ele>1735.8</ele>
        <time>2012-06-10T07:17:44.000Z</time>
      </trkpt>
      <trkpt lat="44.64131" lon="6.59734">
        <ele>1730.51</ele>
        <time>2012-06-10T07:17:48.000Z</time>
      </trkpt>
      <trkpt lat="44.64123" lon="6.59733">
        <ele>1727.15</ele>
        <time>2012-06-10T07:17:50.000Z</time>
      </trkpt>
      <trkpt lat="44.64117" lon="6.59733">
        <ele>1724.26</ele>
        <time>2012-06-10T07:17:52.000Z</time>
      </trkpt>
      <trkpt lat="44.64094" lon="6.5973">
        <ele>1719.46</ele>
        <time>2012-06-10T07:17:56.000Z</time>
      </trkpt>
      <trkpt lat="44.64072" lon="6.59716">
        <ele>1715.13</ele>
        <time>2012-06-10T07:18:00.000Z</time>
      </trkpt>
      <trkpt lat="44.64076" lon="6.59708">
        <ele>1712.73</ele>
        <time>2012-06-10T07:18:04.000Z</time>
      </trkpt>
      <trkpt lat="44.64096" lon="6.59693">
        <ele>1706.48</ele>
        <time>2012-06-10T07:18:08.000Z</time>
      </trkpt>
      <trkpt lat="44.64101" lon="6.59689">
        <ele>1705.04</ele>
        <time>2012-06-10T07:18:09.000Z</time>
      </trkpt>
      <trkpt lat="44.64114" lon="6.59668">
        <ele>1700.23</ele>
        <time>2012-06-10T07:18:13.000Z</time>
      </trkpt>
      <trkpt lat="44.64118" lon="6.59667">
        <ele>1699.27</ele>
        <time>2012-06-10T07:18:14.000Z</time>
      </trkpt>
      <trkpt lat="44.6414" lon="6.59659">
        <ele>1693.02</ele>
        <time>2012-06-10T07:18:19.000Z</time>
      </trkpt>
      <trkpt lat="44.64145" lon="6.59655">
        <ele>1691.1</ele>
        <time>2012-06-10T07:18:20.000Z</time>
      </trkpt>
      <trkpt lat="44.64149" lon="6.59651">
        <ele>1688.69</ele>
        <time>2012-06-10T07:18:21.000Z</time>
      </trkpt>
      <trkpt lat="44.64154" lon="6.59647">
        <ele>1688.21</ele>
        <time>2012-06-10T07:18:22.000Z</time>
      </trkpt>
      <trkpt lat="44.64159" lon="6.59643">
        <ele>1686.29</ele>
        <time>2012-06-10T07:18:23.000Z</time>
      </trkpt>
      <trkpt lat="44.64172" lon="6.59633">
        <ele>1681.48</ele>
        <time>2012-06-10T07:18:25.000Z</time>
      </trkpt>
      <trkpt lat="44.64181" lon="6.59626">
        <ele>1678.12</ele>
        <time>2012-06-10T07:18:27.000Z</time>
      </trkpt>
      <trkpt lat="44.64186" lon="6.59623">
        <ele>1677.16</ele>
        <time>2012-06-10T07:18:28.000Z</time>
      </trkpt>
      <trkpt lat="44.64191" lon="6.59622">
        <ele>1675.72</ele>
        <time>2012-06-10T07:18:29.000Z</time>
      </trkpt>
      <trkpt lat="44.64196" lon="6.5962">
        <ele>1673.31</ele>
        <time>2012-06-10T07:18:30.000Z</time>
      </trkpt>
      <trkpt lat="44.642" lon="6.59618">
        <ele>1671.87</ele>
        <time>2012-06-10T07:18:31.000Z</time>
      </trkpt>
      <trkpt lat="44.64205" lon="6.59616">
        <ele>1670.43</ele>
        <time>2012-06-10T07:18:32.000Z</time>
      </trkpt>
      <trkpt lat="44.6421" lon="6.59615">
        <ele>1668.51</ele>
        <time>2012-06-10T07:18:33.000Z</time>
      </trkpt>
      <trkpt lat="44.64215" lon="6.59616">
        <ele>1667.54</ele>
        <time>2012-06-10T07:18:34.000Z</time>
      </trkpt>
      <trkpt lat="44.64219" lon="6.59617">
        <ele>1666.1</ele>
        <time>2012-06-10T07:18:35.000Z</time>
      </trkpt>
      <trkpt lat="44.64228" lon="6.59619">
        <ele>1663.7</ele>
        <time>2012-06-10T07:18:37.000Z</time>
      </trkpt>
      <trkpt lat="44.64245" lon="6.5962">
        <ele>1659.85</ele>
        <time>2012-06-10T07:18:40.000Z</time>
      </trkpt>
      <trkpt lat="44.64251" lon="6.59621">
        <ele>1657.93</ele>
        <time>2012-06-10T07:18:41.000Z</time>
      </trkpt>
      <trkpt lat="44.64258" lon="6.59624">
        <ele>1656.49</ele>
        <time>2012-06-10T07:18:42.000Z</time>
      </trkpt>
      <trkpt lat="44.64277" lon="6.59637">
        <ele>1654.09</ele>
        <time>2012-06-10T07:18:45.000Z</time>
      </trkpt>
      <trkpt lat="44.64285" lon="6.59641">
        <ele>1653.6</ele>
        <time>2012-06-10T07:18:46.000Z</time>
      </trkpt>
      <trkpt lat="44.64292" lon="6.59645">
        <ele>1652.64</ele>
        <time>2012-06-10T07:18:47.000Z</time>
      </trkpt>
      <trkpt lat="44.64304" lon="6.59653">
        <ele>1649.28</ele>
        <time>2012-06-10T07:18:49.000Z</time>
      </trkpt>
      <trkpt lat="44.64309" lon="6.59656">
        <ele>1647.36</ele>
        <time>2012-06-10T07:18:50.000Z</time>
      </trkpt>
      <trkpt lat="44.64313" lon="6.5966">
        <ele>1645.91</ele>
        <time>2012-06-10T07:18:51.000Z</time>
      </trkpt>
      <trkpt lat="44.64317" lon="6.59664">
        <ele>1645.43</ele>
        <time>2012-06-10T07:18:52.000Z</time>
      </trkpt>
      <trkpt lat="44.64322" lon="6.59667">
        <ele>1643.51</ele>
        <time>2012-06-10T07:18:53.000Z</time>
      </trkpt>
      <trkpt lat="44.64325" lon="6.5967">
        <ele>1641.59</ele>
        <time>2012-06-10T07:18:54.000Z</time>
      </trkpt>
      <trkpt lat="44.64333" lon="6.59677">
        <ele>1637.74</ele>
        <time>2012-06-10T07:18:56.000Z</time>
      </trkpt>
      <trkpt lat="44.64341" lon="6.59685">
        <ele>1634.38</ele>
        <time>2012-06-10T07:18:58.000Z</time>
      </trkpt>
      <trkpt lat="44.64345" lon="6.59689">
        <ele>1631.49</ele>
        <time>2012-06-10T07:18:59.000Z</time>
      </trkpt>
      <trkpt lat="44.64352" lon="6.59698">
        <ele>1626.69</ele>
        <time>2012-06-10T07:19:01.000Z</time>
      </trkpt>
      <trkpt lat="44.64359" lon="6.59709">
        <ele>1621.88</ele>
        <time>2012-06-10T07:19:03.000Z</time>
      </trkpt>
      <trkpt lat="44.64367" lon="6.59718">
        <ele>1618.04</ele>
        <time>2012-06-10T07:19:05.000Z</time>
      </trkpt>
      <trkpt lat="44.64373" lon="6.59728">
        <ele>1613.71</ele>
        <time>2012-06-10T07:19:07.000Z</time>
      </trkpt>
      <trkpt lat="44.64376" lon="6.59732">
        <ele>1611.31</ele>
        <time>2012-06-10T07:19:08.000Z</time>
      </trkpt>
      <trkpt lat="44.64381" lon="6.59736">
        <ele>1608.9</ele>
        <time>2012-06-10T07:19:09.000Z</time>
      </trkpt>
      <trkpt lat="44.64389" lon="6.59747">
        <ele>1605.06</ele>
        <time>2012-06-10T07:19:11.000Z</time>
      </trkpt>
      <trkpt lat="44.64394" lon="6.59751">
        <ele>1602.17</ele>
        <time>2012-06-10T07:19:12.000Z</time>
      </trkpt>
      <trkpt lat="44.64402" lon="6.59762">
        <ele>1597.37</ele>
        <time>2012-06-10T07:19:14.000Z</time>
      </trkpt>
      <trkpt lat="44.64406" lon="6.59768">
        <ele>1596.89</ele>
        <time>2012-06-10T07:19:15.000Z</time>
      </trkpt>
      <trkpt lat="44.6441" lon="6.59774">
        <ele>1594</ele>
        <time>2012-06-10T07:19:16.000Z</time>
      </trkpt>
      <trkpt lat="44.64417" lon="6.59786">
        <ele>1590.16</ele>
        <time>2012-06-10T07:19:18.000Z</time>
      </trkpt>
      <trkpt lat="44.64423" lon="6.59796">
        <ele>1586.31</ele>
        <time>2012-06-10T07:19:20.000Z</time>
      </trkpt>
      <trkpt lat="44.64425" lon="6.59801">
        <ele>1585.83</ele>
        <time>2012-06-10T07:19:21.000Z</time>
      </trkpt>
      <trkpt lat="44.64426" lon="6.59807">
        <ele>1583.91</ele>
        <time>2012-06-10T07:19:22.000Z</time>
      </trkpt>
      <trkpt lat="44.64432" lon="6.59822">
        <ele>1581.03</ele>
        <time>2012-06-10T07:19:24.000Z</time>
      </trkpt>
      <trkpt lat="44.64437" lon="6.59839">
        <ele>1576.22</ele>
        <time>2012-06-10T07:19:26.000Z</time>
      </trkpt>
      <trkpt lat="44.64442" lon="6.59857">
        <ele>1572.85</ele>
        <time>2012-06-10T07:19:28.000Z</time>
      </trkpt>
      <trkpt lat="44.64447" lon="6.59875">
        <ele>1568.05</ele>
        <time>2012-06-10T07:19:30.000Z</time>
      </trkpt>
      <trkpt lat="44.6445" lon="6.59891">
        <ele>1564.2</ele>
        <time>2012-06-10T07:19:32.000Z</time>
      </trkpt>
      <trkpt lat="44.64451" lon="6.59898">
        <ele>1563.24</ele>
        <time>2012-06-10T07:19:33.000Z</time>
      </trkpt>
      <trkpt lat="44.64451" lon="6.59906">
        <ele>1561.8</ele>
        <time>2012-06-10T07:19:34.000Z</time>
      </trkpt>
      <trkpt lat="44.64449" lon="6.59921">
        <ele>1557.47</ele>
        <time>2012-06-10T07:19:36.000Z</time>
      </trkpt>
      <trkpt lat="44.6445" lon="6.59931">
        <ele>1555.55</ele>
        <time>2012-06-10T07:19:37.000Z</time>
      </trkpt>
      <trkpt lat="44.64452" lon="6.5994">
        <ele>1554.11</ele>
        <time>2012-06-10T07:19:38.000Z</time>
      </trkpt>
      <trkpt lat="44.64458" lon="6.59969">
        <ele>1550.26</ele>
        <time>2012-06-10T07:19:41.000Z</time>
      </trkpt>
      <trkpt lat="44.6446" lon="6.59978">
        <ele>1548.82</ele>
        <time>2012-06-10T07:19:42.000Z</time>
      </trkpt>
      <trkpt lat="44.64461" lon="6.59984">
        <ele>1547.38</ele>
        <time>2012-06-10T07:19:43.000Z</time>
      </trkpt>
      <trkpt lat="44.64463" lon="6.59989">
        <ele>1545.94</ele>
        <time>2012-06-10T07:19:44.000Z</time>
      </trkpt>
      <trkpt lat="44.64468" lon="6.59993">
        <ele>1545.94</ele>
        <time>2012-06-10T07:19:45.000Z</time>
      </trkpt>
      <trkpt lat="44.64473" lon="6.59996">
        <ele>1544.01</ele>
        <time>2012-06-10T07:19:46.000Z</time>
      </trkpt>
      <trkpt lat="44.64477" lon="6.59997">
        <ele>1542.57</ele>
        <time>2012-06-10T07:19:47.000Z</time>
      </trkpt>
      <trkpt lat="44.6448" lon="6.6">
        <ele>1541.13</ele>
        <time>2012-06-10T07:19:48.000Z</time>
      </trkpt>
      <trkpt lat="44.64482" lon="6.60004">
        <ele>1540.17</ele>
        <time>2012-06-10T07:19:49.000Z</time>
      </trkpt>
      <trkpt lat="44.64481" lon="6.60015">
        <ele>1538.25</ele>
        <time>2012-06-10T07:19:51.000Z</time>
      </trkpt>
      <trkpt lat="44.64471" lon="6.60039">
        <ele>1533.92</ele>
        <time>2012-06-10T07:19:55.000Z</time>
      </trkpt>
      <trkpt lat="44.64468" lon="6.60044">
        <ele>1532.48</ele>
        <time>2012-06-10T07:19:56.000Z</time>
      </trkpt>
      <trkpt lat="44.64465" lon="6.60048">
        <ele>1532</ele>
        <time>2012-06-10T07:19:57.000Z</time>
      </trkpt>
      <trkpt lat="44.64465" lon="6.60068">
        <ele>1527.19</ele>
        <time>2012-06-10T07:20:00.000Z</time>
      </trkpt>
      <trkpt lat="44.64468" lon="6.60081">
        <ele>1522.87</ele>
        <time>2012-06-10T07:20:02.000Z</time>
      </trkpt>
      <trkpt lat="44.64471" lon="6.60088">
        <ele>1521.9</ele>
        <time>2012-06-10T07:20:03.000Z</time>
      </trkpt>
      <trkpt lat="44.64483" lon="6.60111">
        <ele>1516.14</ele>
        <time>2012-06-10T07:20:06.000Z</time>
      </trkpt>
      <trkpt lat="44.64491" lon="6.60127">
        <ele>1512.29</ele>
        <time>2012-06-10T07:20:08.000Z</time>
      </trkpt>
      <trkpt lat="44.64495" lon="6.60134">
        <ele>1511.33</ele>
        <time>2012-06-10T07:20:09.000Z</time>
      </trkpt>
      <trkpt lat="44.64505" lon="6.60151">
        <ele>1505.56</ele>
        <time>2012-06-10T07:20:13.000Z</time>
      </trkpt>
      <trkpt lat="44.64523" lon="6.60179">
        <ele>1501.72</ele>
        <time>2012-06-10T07:20:18.000Z</time>
      </trkpt>
      <trkpt lat="44.64531" lon="6.60195">
        <ele>1498.83</ele>
        <time>2012-06-10T07:20:20.000Z</time>
      </trkpt>
      <trkpt lat="44.64534" lon="6.60204">
        <ele>1496.43</ele>
        <time>2012-06-10T07:20:21.000Z</time>
      </trkpt>
      <trkpt lat="44.64535" lon="6.60212">
        <ele>1494.99</ele>
        <time>2012-06-10T07:20:22.000Z</time>
      </trkpt>
      <trkpt lat="44.64535" lon="6.60222">
        <ele>1493.06</ele>
        <time>2012-06-10T07:20:23.000Z</time>
      </trkpt>
      <trkpt lat="44.64537" lon="6.60231">
        <ele>1490.66</ele>
        <time>2012-06-10T07:20:24.000Z</time>
      </trkpt>
      <trkpt lat="44.64538" lon="6.6024">
        <ele>1489.22</ele>
        <time>2012-06-10T07:20:25.000Z</time>
      </trkpt>
      <trkpt lat="44.64538" lon="6.6025">
        <ele>1487.3</ele>
        <time>2012-06-10T07:20:26.000Z</time>
      </trkpt>
      <trkpt lat="44.64537" lon="6.6026">
        <ele>1486.82</ele>
        <time>2012-06-10T07:20:27.000Z</time>
      </trkpt>
      <trkpt lat="44.64534" lon="6.60291">
        <ele>1482.97</ele>
        <time>2012-06-10T07:20:30.000Z</time>
      </trkpt>
      <trkpt lat="44.64534" lon="6.60301">
        <ele>1482.01</ele>
        <time>2012-06-10T07:20:31.000Z</time>
      </trkpt>
      <trkpt lat="44.64536" lon="6.60335">
        <ele>1479.13</ele>
        <time>2012-06-10T07:20:34.000Z</time>
      </trkpt>
      <trkpt lat="44.64536" lon="6.60348">
        <ele>1477.2</ele>
        <time>2012-06-10T07:20:35.000Z</time>
      </trkpt>
      <trkpt lat="44.64534" lon="6.60361">
        <ele>1475.76</ele>
        <time>2012-06-10T07:20:36.000Z</time>
      </trkpt>
      <trkpt lat="44.64532" lon="6.60375">
        <ele>1475.28</ele>
        <time>2012-06-10T07:20:37.000Z</time>
      </trkpt>
      <trkpt lat="44.64532" lon="6.60389">
        <ele>1474.8</ele>
        <time>2012-06-10T07:20:38.000Z</time>
      </trkpt>
      <trkpt lat="44.64534" lon="6.60401">
        <ele>1474.8</ele>
        <time>2012-06-10T07:20:39.000Z</time>
      </trkpt>
      <trkpt lat="44.64536" lon="6.60412">
        <ele>1474.32</ele>
        <time>2012-06-10T07:20:40.000Z</time>
      </trkpt>
      <trkpt lat="44.64539" lon="6.60421">
        <ele>1473.84</ele>
        <time>2012-06-10T07:20:41.000Z</time>
      </trkpt>
      <trkpt lat="44.64543" lon="6.6043">
        <ele>1473.84</ele>
        <time>2012-06-10T07:20:42.000Z</time>
      </trkpt>
      <trkpt lat="44.64548" lon="6.60437">
        <ele>1474.32</ele>
        <time>2012-06-10T07:20:43.000Z</time>
      </trkpt>
      <trkpt lat="44.64555" lon="6.60448">
        <ele>1475.28</ele>
        <time>2012-06-10T07:20:45.000Z</time>
      </trkpt>
      <trkpt lat="44.64557" lon="6.60453">
        <ele>1476.24</ele>
        <time>2012-06-10T07:20:46.000Z</time>
      </trkpt>
      <trkpt lat="44.64561" lon="6.60463">
        <ele>1476.72</ele>
        <time>2012-06-10T07:20:48.000Z</time>
      </trkpt>
      <trkpt lat="44.64561" lon="6.60468">
        <ele>1477.68</ele>
        <time>2012-06-10T07:20:49.000Z</time>
      </trkpt>
      <trkpt lat="44.6456" lon="6.60472">
        <ele>1478.16</ele>
        <time>2012-06-10T07:20:50.000Z</time>
      </trkpt>
      <trkpt lat="44.64559" lon="6.60475">
        <ele>1478.65</ele>
        <time>2012-06-10T07:20:51.000Z</time>
      </trkpt>
      <trkpt lat="44.64557" lon="6.60477">
        <ele>1478.65</ele>
        <time>2012-06-10T07:20:52.000Z</time>
      </trkpt>
      <trkpt lat="44.64554" lon="6.60479">
        <ele>1478.65</ele>
        <time>2012-06-10T07:20:53.000Z</time>
      </trkpt>
      <trkpt lat="44.64552" lon="6.60484">
        <ele>1478.16</ele>
        <time>2012-06-10T07:20:54.000Z</time>
      </trkpt>
      <trkpt lat="44.64551" lon="6.6049">
        <ele>1477.2</ele>
        <time>2012-06-10T07:20:55.000Z</time>
      </trkpt>
      <trkpt lat="44.6455" lon="6.60498">
        <ele>1477.2</ele>
        <time>2012-06-10T07:20:56.000Z</time>
      </trkpt>
      <trkpt lat="44.64549" lon="6.60505">
        <ele>1477.2</ele>
        <time>2012-06-10T07:20:57.000Z</time>
      </trkpt>
      <trkpt lat="44.64547" lon="6.60511">
        <ele>1477.68</ele>
        <time>2012-06-10T07:20:58.000Z</time>
      </trkpt>
      <trkpt lat="44.64547" lon="6.60517">
        <ele>1478.65</ele>
        <time>2012-06-10T07:20:59.000Z</time>
      </trkpt>
      <trkpt lat="44.64547" lon="6.60524">
        <ele>1478.65</ele>
        <time>2012-06-10T07:21:00.000Z</time>
      </trkpt>
      <trkpt lat="44.64547" lon="6.60532">
        <ele>1478.16</ele>
        <time>2012-06-10T07:21:01.000Z</time>
      </trkpt>
      <trkpt lat="44.64547" lon="6.60539">
        <ele>1478.65</ele>
        <time>2012-06-10T07:21:02.000Z</time>
      </trkpt>
      <trkpt lat="44.64547" lon="6.60548">
        <ele>1477.68</ele>
        <time>2012-06-10T07:21:03.000Z</time>
      </trkpt>
      <trkpt lat="44.64545" lon="6.60558">
        <ele>1477.2</ele>
        <time>2012-06-10T07:21:04.000Z</time>
      </trkpt>
      <trkpt lat="44.64544" lon="6.60567">
        <ele>1476.72</ele>
        <time>2012-06-10T07:21:05.000Z</time>
      </trkpt>
      <trkpt lat="44.6454" lon="6.60587">
        <ele>1475.28</ele>
        <time>2012-06-10T07:21:07.000Z</time>
      </trkpt>
      <trkpt lat="44.64534" lon="6.60615">
        <ele>1475.28</ele>
        <time>2012-06-10T07:21:10.000Z</time>
      </trkpt>
      <trkpt lat="44.64531" lon="6.60623">
        <ele>1475.28</ele>
        <time>2012-06-10T07:21:11.000Z</time>
      </trkpt>
      <trkpt lat="44.64528" lon="6.60631">
        <ele>1475.76</ele>
        <time>2012-06-10T07:21:12.000Z</time>
      </trkpt>
      <trkpt lat="44.64526" lon="6.60639">
        <ele>1475.76</ele>
        <time>2012-06-10T07:21:13.000Z</time>
      </trkpt>
      <trkpt lat="44.64525" lon="6.60647">
        <ele>1475.28</ele>
        <time>2012-06-10T07:21:14.000Z</time>
      </trkpt>
      <trkpt lat="44.64527" lon="6.60655">
        <ele>1474.32</ele>
        <time>2012-06-10T07:21:15.000Z</time>
      </trkpt>
      <trkpt lat="44.6453" lon="6.60662">
        <ele>1474.8</ele>
        <time>2012-06-10T07:21:16.000Z</time>
      </trkpt>
      <trkpt lat="44.64532" lon="6.60668">
        <ele>1475.28</ele>
        <time>2012-06-10T07:21:17.000Z</time>
      </trkpt>
      <trkpt lat="44.64533" lon="6.60675">
        <ele>1476.24</ele>
        <time>2012-06-10T07:21:18.000Z</time>
      </trkpt>
      <trkpt lat="44.64534" lon="6.60681">
        <ele>1476.24</ele>
        <time>2012-06-10T07:21:19.000Z</time>
      </trkpt>
      <trkpt lat="44.64534" lon="6.60686">
        <ele>1476.24</ele>
        <time>2012-06-10T07:21:20.000Z</time>
      </trkpt>
      <trkpt lat="44.64534" lon="6.6069">
        <ele>1476.72</ele>
        <time>2012-06-10T07:21:21.000Z</time>
      </trkpt>
      <trkpt lat="44.64534" lon="6.60693">
        <ele>1476.24</ele>
        <time>2012-06-10T07:21:22.000Z</time>
      </trkpt>
      <trkpt lat="44.64534" lon="6.60695">
        <ele>1475.76</ele>
        <time>2012-06-10T07:21:25.000Z</time>
      </trkpt>
      <trkpt lat="44.64534" lon="6.60699">
        <ele>1475.28</ele>
        <time>2012-06-10T07:21:26.000Z</time>
      </trkpt>
      <trkpt lat="44.64536" lon="6.6073">
        <ele>1472.4</ele>
        <time>2012-06-10T07:21:30.000Z</time>
      </trkpt>
      <trkpt lat="44.64537" lon="6.60741">
        <ele>1471.92</ele>
        <time>2012-06-10T07:21:31.000Z</time>
      </trkpt>
      <trkpt lat="44.6454" lon="6.60752">
        <ele>1471.44</ele>
        <time>2012-06-10T07:21:32.000Z</time>
      </trkpt>
      <trkpt lat="44.64544" lon="6.60762">
        <ele>1470.47</ele>
        <time>2012-06-10T07:21:33.000Z</time>
      </trkpt>
      <trkpt lat="44.64549" lon="6.6077">
        <ele>1469.99</ele>
        <time>2012-06-10T07:21:34.000Z</time>
      </trkpt>
      <trkpt lat="44.64554" lon="6.60776">
        <ele>1469.03</ele>
        <time>2012-06-10T07:21:35.000Z</time>
      </trkpt>
      <trkpt lat="44.64559" lon="6.60783">
        <ele>1469.99</ele>
        <time>2012-06-10T07:21:36.000Z</time>
      </trkpt>
      <trkpt lat="44.64564" lon="6.6079">
        <ele>1469.51</ele>
        <time>2012-06-10T07:21:37.000Z</time>
      </trkpt>
      <trkpt lat="44.6457" lon="6.60802">
        <ele>1468.55</ele>
        <time>2012-06-10T07:21:39.000Z</time>
      </trkpt>
      <trkpt lat="44.64569" lon="6.60807">
        <ele>1468.07</ele>
        <time>2012-06-10T07:21:40.000Z</time>
      </trkpt>
      <trkpt lat="44.64567" lon="6.60813">
        <ele>1467.59</ele>
        <time>2012-06-10T07:21:41.000Z</time>
      </trkpt>
      <trkpt lat="44.64563" lon="6.60819">
        <ele>1467.11</ele>
        <time>2012-06-10T07:21:42.000Z</time>
      </trkpt>
      <trkpt lat="44.64557" lon="6.60825">
        <ele>1467.11</ele>
        <time>2012-06-10T07:21:43.000Z</time>
      </trkpt>
      <trkpt lat="44.64552" lon="6.6083">
        <ele>1467.11</ele>
        <time>2012-06-10T07:21:44.000Z</time>
      </trkpt>
      <trkpt lat="44.6454" lon="6.60842">
        <ele>1465.19</ele>
        <time>2012-06-10T07:21:46.000Z</time>
      </trkpt>
      <trkpt lat="44.64521" lon="6.60872">
        <ele>1461.82</ele>
        <time>2012-06-10T07:21:50.000Z</time>
      </trkpt>
      <trkpt lat="44.64508" lon="6.60894">
        <ele>1458.94</ele>
        <time>2012-06-10T07:21:53.000Z</time>
      </trkpt>
      <trkpt lat="44.64488" lon="6.60931">
        <ele>1455.09</ele>
        <time>2012-06-10T07:21:57.000Z</time>
      </trkpt>
      <trkpt lat="44.64484" lon="6.6094">
        <ele>1454.13</ele>
        <time>2012-06-10T07:21:58.000Z</time>
      </trkpt>
      <trkpt lat="44.6448" lon="6.60948">
        <ele>1453.17</ele>
        <time>2012-06-10T07:21:59.000Z</time>
      </trkpt>
      <trkpt lat="44.64473" lon="6.60966">
        <ele>1451.73</ele>
        <time>2012-06-10T07:22:01.000Z</time>
      </trkpt>
      <trkpt lat="44.64469" lon="6.60975">
        <ele>1450.77</ele>
        <time>2012-06-10T07:22:02.000Z</time>
      </trkpt>
      <trkpt lat="44.64455" lon="6.61013">
        <ele>1447.4</ele>
        <time>2012-06-10T07:22:06.000Z</time>
      </trkpt>
      <trkpt lat="44.64444" lon="6.61043">
        <ele>1445</ele>
        <time>2012-06-10T07:22:09.000Z</time>
      </trkpt>
      <trkpt lat="44.64439" lon="6.61051">
        <ele>1444.52</ele>
        <time>2012-06-10T07:22:10.000Z</time>
      </trkpt>
      <trkpt lat="44.64429" lon="6.61067">
        <ele>1443.56</ele>
        <time>2012-06-10T07:22:12.000Z</time>
      </trkpt>
      <trkpt lat="44.64423" lon="6.61075">
        <ele>1443.08</ele>
        <time>2012-06-10T07:22:13.000Z</time>
      </trkpt>
      <trkpt lat="44.64419" lon="6.61084">
        <ele>1442.6</ele>
        <time>2012-06-10T07:22:14.000Z</time>
      </trkpt>
      <trkpt lat="44.64411" lon="6.61102">
        <ele>1442.11</ele>
        <time>2012-06-10T07:22:16.000Z</time>
      </trkpt>
      <trkpt lat="44.644" lon="6.6114">
        <ele>1440.19</ele>
        <time>2012-06-10T07:22:20.000Z</time>
      </trkpt>
      <trkpt lat="44.64401" lon="6.61149">
        <ele>1440.19</ele>
        <time>2012-06-10T07:22:21.000Z</time>
      </trkpt>
      <trkpt lat="44.64401" lon="6.61158">
        <ele>1438.27</ele>
        <time>2012-06-10T07:22:22.000Z</time>
      </trkpt>
      <trkpt lat="44.644" lon="6.61176">
        <ele>1434.91</ele>
        <time>2012-06-10T07:22:24.000Z</time>
      </trkpt>
      <trkpt lat="44.644" lon="6.61186">
        <ele>1434.42</ele>
        <time>2012-06-10T07:22:25.000Z</time>
      </trkpt>
      <trkpt lat="44.64401" lon="6.61197">
        <ele>1432.02</ele>
        <time>2012-06-10T07:22:26.000Z</time>
      </trkpt>
      <trkpt lat="44.64403" lon="6.61208">
        <ele>1430.1</ele>
        <time>2012-06-10T07:22:27.000Z</time>
      </trkpt>
      <trkpt lat="44.64406" lon="6.61217">
        <ele>1428.66</ele>
        <time>2012-06-10T07:22:28.000Z</time>
      </trkpt>
      <trkpt lat="44.64407" lon="6.61223">
        <ele>1427.7</ele>
        <time>2012-06-10T07:22:29.000Z</time>
      </trkpt>
      <trkpt lat="44.64405" lon="6.61227">
        <ele>1426.73</ele>
        <time>2012-06-10T07:22:30.000Z</time>
      </trkpt>
      <trkpt lat="44.64401" lon="6.61228">
        <ele>1425.77</ele>
        <time>2012-06-10T07:22:31.000Z</time>
      </trkpt>
      <trkpt lat="44.64395" lon="6.61226">
        <ele>1423.85</ele>
        <time>2012-06-10T07:22:32.000Z</time>
      </trkpt>
      <trkpt lat="44.64388" lon="6.61222">
        <ele>1422.89</ele>
        <time>2012-06-10T07:22:33.000Z</time>
      </trkpt>
      <trkpt lat="44.64381" lon="6.61216">
        <ele>1421.45</ele>
        <time>2012-06-10T07:22:34.000Z</time>
      </trkpt>
      <trkpt lat="44.64373" lon="6.61213">
        <ele>1419.52</ele>
        <time>2012-06-10T07:22:35.000Z</time>
      </trkpt>
      <trkpt lat="44.64366" lon="6.61211">
        <ele>1417.6</ele>
        <time>2012-06-10T07:22:36.000Z</time>
      </trkpt>
      <trkpt lat="44.64358" lon="6.61211">
        <ele>1416.16</ele>
        <time>2012-06-10T07:22:37.000Z</time>
      </trkpt>
      <trkpt lat="44.64351" lon="6.6121">
        <ele>1414.24</ele>
        <time>2012-06-10T07:22:38.000Z</time>
      </trkpt>
      <trkpt lat="44.64344" lon="6.61206">
        <ele>1412.31</ele>
        <time>2012-06-10T07:22:39.000Z</time>
      </trkpt>
      <trkpt lat="44.64339" lon="6.61199">
        <ele>1410.87</ele>
        <time>2012-06-10T07:22:40.000Z</time>
      </trkpt>
      <trkpt lat="44.64333" lon="6.61192">
        <ele>1410.39</ele>
        <time>2012-06-10T07:22:41.000Z</time>
      </trkpt>
      <trkpt lat="44.64327" lon="6.61184">
        <ele>1409.91</ele>
        <time>2012-06-10T07:22:42.000Z</time>
      </trkpt>
      <trkpt lat="44.6432" lon="6.61177">
        <ele>1409.43</ele>
        <time>2012-06-10T07:22:43.000Z</time>
      </trkpt>
      <trkpt lat="44.64312" lon="6.61172">
        <ele>1407.99</ele>
        <time>2012-06-10T07:22:44.000Z</time>
      </trkpt>
      <trkpt lat="44.64287" lon="6.61163">
        <ele>1405.1</ele>
        <time>2012-06-10T07:22:47.000Z</time>
      </trkpt>
      <trkpt lat="44.6428" lon="6.61162">
        <ele>1404.14</ele>
        <time>2012-06-10T07:22:48.000Z</time>
      </trkpt>
      <trkpt lat="44.64273" lon="6.6116">
        <ele>1403.66</ele>
        <time>2012-06-10T07:22:49.000Z</time>
      </trkpt>
      <trkpt lat="44.64262" lon="6.61157">
        <ele>1401.26</ele>
        <time>2012-06-10T07:22:52.000Z</time>
      </trkpt>
      <trkpt lat="44.6426" lon="6.61158">
        <ele>1400.78</ele>
        <time>2012-06-10T07:22:53.000Z</time>
      </trkpt>
      <trkpt lat="44.64262" lon="6.6116">
        <ele>1400.3</ele>
        <time>2012-06-10T07:22:55.000Z</time>
      </trkpt>
      <trkpt lat="44.64267" lon="6.61162">
        <ele>1398.86</ele>
        <time>2012-06-10T07:22:57.000Z</time>
      </trkpt>
      <trkpt lat="44.64272" lon="6.61165">
        <ele>1397.89</ele>
        <time>2012-06-10T07:22:58.000Z</time>
      </trkpt>
      <trkpt lat="44.64279" lon="6.61173">
        <ele>1396.93</ele>
        <time>2012-06-10T07:23:00.000Z</time>
      </trkpt>
      <trkpt lat="44.64289" lon="6.61181">
        <ele>1395.97</ele>
        <time>2012-06-10T07:23:03.000Z</time>
      </trkpt>
      <trkpt lat="44.64302" lon="6.61189">
        <ele>1392.61</ele>
        <time>2012-06-10T07:23:06.000Z</time>
      </trkpt>
      <trkpt lat="44.64317" lon="6.61203">
        <ele>1391.17</ele>
        <time>2012-06-10T07:23:09.000Z</time>
      </trkpt>
      <trkpt lat="44.64327" lon="6.61223">
        <ele>1389.72</ele>
        <time>2012-06-10T07:23:12.000Z</time>
      </trkpt>
      <trkpt lat="44.6434" lon="6.61248">
        <ele>1385.88</ele>
        <time>2012-06-10T07:23:16.000Z</time>
      </trkpt>
      <trkpt lat="44.64344" lon="6.61255">
        <ele>1383.96</ele>
        <time>2012-06-10T07:23:17.000Z</time>
      </trkpt>
      <trkpt lat="44.64349" lon="6.61262">
        <ele>1383.47</ele>
        <time>2012-06-10T07:23:18.000Z</time>
      </trkpt>
      <trkpt lat="44.64356" lon="6.61272">
        <ele>1380.11</ele>
        <time>2012-06-10T07:23:20.000Z</time>
      </trkpt>
      <trkpt lat="44.64362" lon="6.61282">
        <ele>1376.75</ele>
        <time>2012-06-10T07:23:23.000Z</time>
      </trkpt>
      <trkpt lat="44.6436" lon="6.61288">
        <ele>1375.3</ele>
        <time>2012-06-10T07:23:27.000Z</time>
      </trkpt>
      <trkpt lat="44.64356" lon="6.61291">
        <ele>1375.3</ele>
        <time>2012-06-10T07:23:31.000Z</time>
      </trkpt>
      <trkpt lat="44.64353" lon="6.61295">
        <ele>1375.78</ele>
        <time>2012-06-10T07:23:33.000Z</time>
      </trkpt>
      <trkpt lat="44.64353" lon="6.61299">
        <ele>1374.82</ele>
        <time>2012-06-10T07:23:34.000Z</time>
      </trkpt>
      <trkpt lat="44.64354" lon="6.61303">
        <ele>1373.86</ele>
        <time>2012-06-10T07:23:35.000Z</time>
      </trkpt>
      <trkpt lat="44.64354" lon="6.61306">
        <ele>1373.38</ele>
        <time>2012-06-10T07:23:36.000Z</time>
      </trkpt>
      <trkpt lat="44.64351" lon="6.6131">
        <ele>1373.38</ele>
        <time>2012-06-10T07:23:37.000Z</time>
      </trkpt>
      <trkpt lat="44.6434" lon="6.61328">
        <ele>1370.02</ele>
        <time>2012-06-10T07:23:40.000Z</time>
      </trkpt>
      <trkpt lat="44.64337" lon="6.61332">
        <ele>1369.54</ele>
        <time>2012-06-10T07:23:41.000Z</time>
      </trkpt>
      <trkpt lat="44.64329" lon="6.61348">
        <ele>1367.61</ele>
        <time>2012-06-10T07:23:45.000Z</time>
      </trkpt>
      <trkpt lat="44.64327" lon="6.61361">
        <ele>1365.69</ele>
        <time>2012-06-10T07:23:47.000Z</time>
      </trkpt>
      <trkpt lat="44.64328" lon="6.61367">
        <ele>1364.25</ele>
        <time>2012-06-10T07:23:48.000Z</time>
      </trkpt>
      <trkpt lat="44.64326" lon="6.61404">
        <ele>1360.88</ele>
        <time>2012-06-10T07:23:52.000Z</time>
      </trkpt>
      <trkpt lat="44.64328" lon="6.6142">
        <ele>1356.56</ele>
        <time>2012-06-10T07:23:54.000Z</time>
      </trkpt>
      <trkpt lat="44.64332" lon="6.61439">
        <ele>1353.19</ele>
        <time>2012-06-10T07:23:58.000Z</time>
      </trkpt>
      <trkpt lat="44.64331" lon="6.61446">
        <ele>1352.71</ele>
        <time>2012-06-10T07:24:00.000Z</time>
      </trkpt>
      <trkpt lat="44.64324" lon="6.61488">
        <ele>1350.31</ele>
        <time>2012-06-10T07:24:12.000Z</time>
      </trkpt>
      <trkpt lat="44.64324" lon="6.61494">
        <ele>1349.83</ele>
        <time>2012-06-10T07:24:13.000Z</time>
      </trkpt>
      <trkpt lat="44.64325" lon="6.61514">
        <ele>1345.5</ele>
        <time>2012-06-10T07:24:17.000Z</time>
      </trkpt>
      <trkpt lat="44.64326" lon="6.61521">
        <ele>1345.02</ele>
        <time>2012-06-10T07:24:18.000Z</time>
      </trkpt>
      <trkpt lat="44.6432" lon="6.61538">
        <ele>1341.66</ele>
        <time>2012-06-10T07:24:22.000Z</time>
      </trkpt>
      <trkpt lat="44.64314" lon="6.61554">
        <ele>1343.1</ele>
        <time>2012-06-10T07:24:31.000Z</time>
      </trkpt>
      <trkpt lat="44.6431" lon="6.61579">
        <ele>1345.5</ele>
        <time>2012-06-10T07:24:41.000Z</time>
      </trkpt>
      <trkpt lat="44.64311" lon="6.61581">
        <ele>1345.02</ele>
        <time>2012-06-10T07:24:43.000Z</time>
      </trkpt>
      <trkpt lat="44.6431" lon="6.61587">
        <ele>1346.46</ele>
        <time>2012-06-10T07:24:46.000Z</time>
      </trkpt>
      <trkpt lat="44.64302" lon="6.61603">
        <ele>1347.43</ele>
        <time>2012-06-10T07:24:56.000Z</time>
      </trkpt>
      <trkpt lat="44.64302" lon="6.61606">
        <ele>1346.94</ele>
        <time>2012-06-10T07:24:57.000Z</time>
      </trkpt>
      <trkpt lat="44.64306" lon="6.61628">
        <ele>1342.62</ele>
        <time>2012-06-10T07:25:03.000Z</time>
      </trkpt>
      <trkpt lat="44.64307" lon="6.6163">
        <ele>1341.66</ele>
        <time>2012-06-10T07:25:07.000Z</time>
      </trkpt>
      <trkpt lat="44.64314" lon="6.61623">
        <ele>1337.81</ele>
        <time>2012-06-10T07:25:13.000Z</time>
      </trkpt>
      <trkpt lat="44.64317" lon="6.61617">
        <ele>1334.93</ele>
        <time>2012-06-10T07:25:16.000Z</time>
      </trkpt>
      <trkpt lat="44.64318" lon="6.61616">
        <ele>1331.56</ele>
        <time>2012-06-10T07:25:24.000Z</time>
      </trkpt>
      <trkpt lat="44.6432" lon="6.61617">
        <ele>1330.6</ele>
        <time>2012-06-10T07:25:26.000Z</time>
      </trkpt>
      <trkpt lat="44.64323" lon="6.61615">
        <ele>1327.72</ele>
        <time>2012-06-10T07:25:34.000Z</time>
      </trkpt>
      <trkpt lat="44.64325" lon="6.61616">
        <ele>1326.76</ele>
        <time>2012-06-10T07:25:36.000Z</time>
      </trkpt>
      <trkpt lat="44.64325" lon="6.61617">
        <ele>1326.28</ele>
        <time>2012-06-10T07:25:37.000Z</time>
      </trkpt>
      <trkpt lat="44.64334" lon="6.61635">
        <ele>1322.91</ele>
        <time>2012-06-10T07:25:43.000Z</time>
      </trkpt>
      <trkpt lat="44.64333" lon="6.61637">
        <ele>1322.43</ele>
        <time>2012-06-10T07:25:44.000Z</time>
      </trkpt>
      <trkpt lat="44.64324" lon="6.61651">
        <ele>1319.07</ele>
        <time>2012-06-10T07:25:50.000Z</time>
      </trkpt>
      <trkpt lat="44.6433" lon="6.61672">
        <ele>1317.62</ele>
        <time>2012-06-10T07:25:57.000Z</time>
      </trkpt>
      <trkpt lat="44.64342" lon="6.61685">
        <ele>1314.26</ele>
        <time>2012-06-10T07:26:00.000Z</time>
      </trkpt>
      <trkpt lat="44.64353" lon="6.61696">
        <ele>1310.41</ele>
        <time>2012-06-10T07:26:04.000Z</time>
      </trkpt>
      <trkpt lat="44.64349" lon="6.61703">
        <ele>1308.97</ele>
        <time>2012-06-10T07:26:07.000Z</time>
      </trkpt>
      <trkpt lat="44.64345" lon="6.61713">
        <ele>1307.53</ele>
        <time>2012-06-10T07:26:09.000Z</time>
      </trkpt>
      <trkpt lat="44.64353" lon="6.61738">
        <ele>1304.17</ele>
        <time>2012-06-10T07:26:14.000Z</time>
      </trkpt>
      <trkpt lat="44.64356" lon="6.61755">
        <ele>1303.2</ele>
        <time>2012-06-10T07:26:17.000Z</time>
      </trkpt>
      <trkpt lat="44.64359" lon="6.6176">
        <ele>1301.28</ele>
        <time>2012-06-10T07:26:18.000Z</time>
      </trkpt>
      <trkpt lat="44.64363" lon="6.61763">
        <ele>1300.32</ele>
        <time>2012-06-10T07:26:19.000Z</time>
      </trkpt>
      <trkpt lat="44.64367" lon="6.61767">
        <ele>1299.36</ele>
        <time>2012-06-10T07:26:20.000Z</time>
      </trkpt>
      <trkpt lat="44.6437" lon="6.61772">
        <ele>1298.4</ele>
        <time>2012-06-10T07:26:21.000Z</time>
      </trkpt>
      <trkpt lat="44.64374" lon="6.61777">
        <ele>1297.44</ele>
        <time>2012-06-10T07:26:22.000Z</time>
      </trkpt>
      <trkpt lat="44.64377" lon="6.61785">
        <ele>1295.51</ele>
        <time>2012-06-10T07:26:23.000Z</time>
      </trkpt>
      <trkpt lat="44.64381" lon="6.61793">
        <ele>1294.55</ele>
        <time>2012-06-10T07:26:24.000Z</time>
      </trkpt>
      <trkpt lat="44.64386" lon="6.61801">
        <ele>1292.15</ele>
        <time>2012-06-10T07:26:25.000Z</time>
      </trkpt>
      <trkpt lat="44.64391" lon="6.61807">
        <ele>1290.23</ele>
        <time>2012-06-10T07:26:26.000Z</time>
      </trkpt>
      <trkpt lat="44.64394" lon="6.61811">
        <ele>1289.75</ele>
        <time>2012-06-10T07:26:27.000Z</time>
      </trkpt>
      <trkpt lat="44.64397" lon="6.61816">
        <ele>1288.78</ele>
        <time>2012-06-10T07:26:28.000Z</time>
      </trkpt>
      <trkpt lat="44.64398" lon="6.61822">
        <ele>1287.82</ele>
        <time>2012-06-10T07:26:29.000Z</time>
      </trkpt>
      <trkpt lat="44.64401" lon="6.61828">
        <ele>1286.86</ele>
        <time>2012-06-10T07:26:30.000Z</time>
      </trkpt>
      <trkpt lat="44.64405" lon="6.61833">
        <ele>1284.94</ele>
        <time>2012-06-10T07:26:31.000Z</time>
      </trkpt>
      <trkpt lat="44.64408" lon="6.61834">
        <ele>1283.02</ele>
        <time>2012-06-10T07:26:32.000Z</time>
      </trkpt>
      <trkpt lat="44.64413" lon="6.61833">
        <ele>1282.06</ele>
        <time>2012-06-10T07:26:33.000Z</time>
      </trkpt>
      <trkpt lat="44.64417" lon="6.61832">
        <ele>1281.09</ele>
        <time>2012-06-10T07:26:34.000Z</time>
      </trkpt>
      <trkpt lat="44.64422" lon="6.61832">
        <ele>1279.17</ele>
        <time>2012-06-10T07:26:35.000Z</time>
      </trkpt>
      <trkpt lat="44.64427" lon="6.61834">
        <ele>1278.69</ele>
        <time>2012-06-10T07:26:36.000Z</time>
      </trkpt>
      <trkpt lat="44.6443" lon="6.61838">
        <ele>1279.17</ele>
        <time>2012-06-10T07:26:37.000Z</time>
      </trkpt>
      <trkpt lat="44.64433" lon="6.61842">
        <ele>1279.17</ele>
        <time>2012-06-10T07:26:38.000Z</time>
      </trkpt>
      <trkpt lat="44.64436" lon="6.61846">
        <ele>1278.69</ele>
        <time>2012-06-10T07:26:39.000Z</time>
      </trkpt>
      <trkpt lat="44.64437" lon="6.61849">
        <ele>1278.21</ele>
        <time>2012-06-10T07:26:40.000Z</time>
      </trkpt>
      <trkpt lat="44.64439" lon="6.61855">
        <ele>1278.21</ele>
        <time>2012-06-10T07:26:41.000Z</time>
      </trkpt>
      <trkpt lat="44.64439" lon="6.61858">
        <ele>1277.73</ele>
        <time>2012-06-10T07:26:42.000Z</time>
      </trkpt>
      <trkpt lat="44.64439" lon="6.61874">
        <ele>1275.33</ele>
        <time>2012-06-10T07:26:45.000Z</time>
      </trkpt>
      <trkpt lat="44.64445" lon="6.61882">
        <ele>1274.36</ele>
        <time>2012-06-10T07:26:47.000Z</time>
      </trkpt>
      <trkpt lat="44.64452" lon="6.61888">
        <ele>1272.92</ele>
        <time>2012-06-10T07:26:49.000Z</time>
      </trkpt>
      <trkpt lat="44.64461" lon="6.61893">
        <ele>1271.48</ele>
        <time>2012-06-10T07:26:52.000Z</time>
      </trkpt>
      <trkpt lat="44.64464" lon="6.61893">
        <ele>1271</ele>
        <time>2012-06-10T07:26:53.000Z</time>
      </trkpt>
      <trkpt lat="44.64471" lon="6.61895">
        <ele>1268.12</ele>
        <time>2012-06-10T07:26:55.000Z</time>
      </trkpt>
      <trkpt lat="44.64478" lon="6.61897">
        <ele>1265.71</ele>
        <time>2012-06-10T07:26:57.000Z</time>
      </trkpt>
      <trkpt lat="44.64481" lon="6.61898">
        <ele>1264.27</ele>
        <time>2012-06-10T07:26:58.000Z</time>
      </trkpt>
      <trkpt lat="44.64491" lon="6.61901">
        <ele>1259.94</ele>
        <time>2012-06-10T07:27:01.000Z</time>
      </trkpt>
      <trkpt lat="44.645" lon="6.61903">
        <ele>1258.5</ele>
        <time>2012-06-10T07:27:03.000Z</time>
      </trkpt>
      <trkpt lat="44.64504" lon="6.61906">
        <ele>1258.02</ele>
        <time>2012-06-10T07:27:04.000Z</time>
      </trkpt>
      <trkpt lat="44.64508" lon="6.61911">
        <ele>1257.06</ele>
        <time>2012-06-10T07:27:05.000Z</time>
      </trkpt>
      <trkpt lat="44.64518" lon="6.61919">
        <ele>1256.1</ele>
        <time>2012-06-10T07:27:07.000Z</time>
      </trkpt>
      <trkpt lat="44.64542" lon="6.61937">
        <ele>1255.14</ele>
        <time>2012-06-10T07:27:11.000Z</time>
      </trkpt>
      <trkpt lat="44.64548" lon="6.61943">
        <ele>1255.14</ele>
        <time>2012-06-10T07:27:12.000Z</time>
      </trkpt>
      <trkpt lat="44.64555" lon="6.6195">
        <ele>1254.66</ele>
        <time>2012-06-10T07:27:13.000Z</time>
      </trkpt>
      <trkpt lat="44.6456" lon="6.61958">
        <ele>1254.66</ele>
        <time>2012-06-10T07:27:14.000Z</time>
      </trkpt>
      <trkpt lat="44.64562" lon="6.61967">
        <ele>1254.18</ele>
        <time>2012-06-10T07:27:15.000Z</time>
      </trkpt>
      <trkpt lat="44.64563" lon="6.61977">
        <ele>1254.18</ele>
        <time>2012-06-10T07:27:16.000Z</time>
      </trkpt>
      <trkpt lat="44.64562" lon="6.61987">
        <ele>1254.18</ele>
        <time>2012-06-10T07:27:17.000Z</time>
      </trkpt>
      <trkpt lat="44.64561" lon="6.61997">
        <ele>1254.66</ele>
        <time>2012-06-10T07:27:18.000Z</time>
      </trkpt>
      <trkpt lat="44.64558" lon="6.62015">
        <ele>1253.7</ele>
        <time>2012-06-10T07:27:20.000Z</time>
      </trkpt>
      <trkpt lat="44.64558" lon="6.62025">
        <ele>1253.7</ele>
        <time>2012-06-10T07:27:21.000Z</time>
      </trkpt>
      <trkpt lat="44.64558" lon="6.62036">
        <ele>1252.74</ele>
        <time>2012-06-10T07:27:22.000Z</time>
      </trkpt>
      <trkpt lat="44.64562" lon="6.62057">
        <ele>1252.25</ele>
        <time>2012-06-10T07:27:24.000Z</time>
      </trkpt>
      <trkpt lat="44.64566" lon="6.62079">
        <ele>1251.29</ele>
        <time>2012-06-10T07:27:26.000Z</time>
      </trkpt>
      <trkpt lat="44.64568" lon="6.62089">
        <ele>1250.81</ele>
        <time>2012-06-10T07:27:27.000Z</time>
      </trkpt>
      <trkpt lat="44.64571" lon="6.62098">
        <ele>1250.33</ele>
        <time>2012-06-10T07:27:28.000Z</time>
      </trkpt>
      <trkpt lat="44.64589" lon="6.62117">
        <ele>1246.97</ele>
        <time>2012-06-10T07:27:31.000Z</time>
      </trkpt>
      <trkpt lat="44.64594" lon="6.62123">
        <ele>1246.01</ele>
        <time>2012-06-10T07:27:32.000Z</time>
      </trkpt>
      <trkpt lat="44.64597" lon="6.62135">
        <ele>1246.49</ele>
        <time>2012-06-10T07:27:34.000Z</time>
      </trkpt>
      <trkpt lat="44.64594" lon="6.62139">
        <ele>1246.01</ele>
        <time>2012-06-10T07:27:35.000Z</time>
      </trkpt>
      <trkpt lat="44.64591" lon="6.62144">
        <ele>1246.49</ele>
        <time>2012-06-10T07:27:36.000Z</time>
      </trkpt>
      <trkpt lat="44.64589" lon="6.62151">
        <ele>1246.01</ele>
        <time>2012-06-10T07:27:37.000Z</time>
      </trkpt>
      <trkpt lat="44.64587" lon="6.62159">
        <ele>1245.53</ele>
        <time>2012-06-10T07:27:38.000Z</time>
      </trkpt>
      <trkpt lat="44.64586" lon="6.62169">
        <ele>1245.53</ele>
        <time>2012-06-10T07:27:39.000Z</time>
      </trkpt>
      <trkpt lat="44.64588" lon="6.62179">
        <ele>1245.53</ele>
        <time>2012-06-10T07:27:40.000Z</time>
      </trkpt>
      <trkpt lat="44.64591" lon="6.62183">
        <ele>1245.53</ele>
        <time>2012-06-10T07:27:41.000Z</time>
      </trkpt>
      <trkpt lat="44.64594" lon="6.62185">
        <ele>1244.56</ele>
        <time>2012-06-10T07:27:42.000Z</time>
      </trkpt>
      <trkpt lat="44.64595" lon="6.62185">
        <ele>1245.04</ele>
        <time>2012-06-10T07:27:50.000Z</time>
      </trkpt>
      <trkpt lat="44.64594" lon="6.62186">
        <ele>1245.53</ele>
        <time>2012-06-10T07:27:51.000Z</time>
      </trkpt>
      <trkpt lat="44.6459" lon="6.62189">
        <ele>1248.89</ele>
        <time>2012-06-10T07:27:59.000Z</time>
      </trkpt>
      <trkpt lat="44.64589" lon="6.62196">
        <ele>1251.77</ele>
        <time>2012-06-10T07:28:10.000Z</time>
      </trkpt>
      <trkpt lat="44.6459" lon="6.62198">
        <ele>1252.74</ele>
        <time>2012-06-10T07:28:13.000Z</time>
      </trkpt>
      <trkpt lat="44.64594" lon="6.62199">
        <ele>1253.22</ele>
        <time>2012-06-10T07:28:18.000Z</time>
      </trkpt>
      <trkpt lat="44.64596" lon="6.622">
        <ele>1253.22</ele>
        <time>2012-06-10T07:28:19.000Z</time>
      </trkpt>
      <trkpt lat="44.64598" lon="6.62201">
        <ele>1253.22</ele>
        <time>2012-06-10T07:28:20.000Z</time>
      </trkpt>
      <trkpt lat="44.646" lon="6.62202">
        <ele>1253.22</ele>
        <time>2012-06-10T07:28:21.000Z</time>
      </trkpt>
      <trkpt lat="44.64602" lon="6.62203">
        <ele>1253.7</ele>
        <time>2012-06-10T07:28:22.000Z</time>
      </trkpt>
      <trkpt lat="44.64604" lon="6.62204">
        <ele>1254.18</ele>
        <time>2012-06-10T07:28:23.000Z</time>
      </trkpt>
      <trkpt lat="44.64606" lon="6.62207">
        <ele>1253.7</ele>
        <time>2012-06-10T07:28:24.000Z</time>
      </trkpt>
      <trkpt lat="44.64608" lon="6.6221">
        <ele>1253.7</ele>
        <time>2012-06-10T07:28:25.000Z</time>
      </trkpt>
      <trkpt lat="44.64608" lon="6.62213">
        <ele>1254.18</ele>
        <time>2012-06-10T07:28:26.000Z</time>
      </trkpt>
      <trkpt lat="44.64609" lon="6.62217">
        <ele>1254.18</ele>
        <time>2012-06-10T07:28:27.000Z</time>
      </trkpt>
      <trkpt lat="44.64605" lon="6.62251">
        <ele>1257.54</ele>
        <time>2012-06-10T07:28:38.000Z</time>
      </trkpt>
      <trkpt lat="44.64601" lon="6.62262">
        <ele>1258.98</ele>
        <time>2012-06-10T07:28:43.000Z</time>
      </trkpt>
      <trkpt lat="44.64597" lon="6.62274">
        <ele>1260.91</ele>
        <time>2012-06-10T07:28:48.000Z</time>
      </trkpt>
      <trkpt lat="44.64595" lon="6.62288">
        <ele>1261.87</ele>
        <time>2012-06-10T07:28:53.000Z</time>
      </trkpt>
      <trkpt lat="44.64592" lon="6.62301">
        <ele>1262.83</ele>
        <time>2012-06-10T07:28:58.000Z</time>
      </trkpt>
      <trkpt lat="44.64591" lon="6.62306">
        <ele>1263.31</ele>
        <time>2012-06-10T07:29:00.000Z</time>
      </trkpt>
      <trkpt lat="44.64587" lon="6.62312">
        <ele>1264.75</ele>
        <time>2012-06-10T07:29:04.000Z</time>
      </trkpt>
      <trkpt lat="44.64583" lon="6.62333">
        <ele>1268.12</ele>
        <time>2012-06-10T07:29:15.000Z</time>
      </trkpt>
      <trkpt lat="44.64577" lon="6.62347">
        <ele>1270.04</ele>
        <time>2012-06-10T07:29:22.000Z</time>
      </trkpt>
      <trkpt lat="44.64571" lon="6.62362">
        <ele>1272.44</ele>
        <time>2012-06-10T07:29:28.000Z</time>
      </trkpt>
      <trkpt lat="44.64568" lon="6.62372">
        <ele>1273.4</ele>
        <time>2012-06-10T07:29:32.000Z</time>
      </trkpt>
      <trkpt lat="44.64557" lon="6.62396">
        <ele>1273.4</ele>
        <time>2012-06-10T07:29:42.000Z</time>
      </trkpt>
      <trkpt lat="44.64539" lon="6.6244">
        <ele>1271.96</ele>
        <time>2012-06-10T07:29:53.000Z</time>
      </trkpt>
      <trkpt lat="44.64534" lon="6.62459">
        <ele>1271.48</ele>
        <time>2012-06-10T07:29:56.000Z</time>
      </trkpt>
      <trkpt lat="44.64503" lon="6.62519">
        <ele>1271</ele>
        <time>2012-06-10T07:30:06.000Z</time>
      </trkpt>
      <trkpt lat="44.64485" lon="6.62548">
        <ele>1271.96</ele>
        <time>2012-06-10T07:30:11.000Z</time>
      </trkpt>
      <trkpt lat="44.64473" lon="6.62589">
        <ele>1273.88</ele>
        <time>2012-06-10T07:30:20.000Z</time>
      </trkpt>
      <trkpt lat="44.64462" lon="6.62604">
        <ele>1271.96</ele>
        <time>2012-06-10T07:30:25.000Z</time>
      </trkpt>
      <trkpt lat="44.64453" lon="6.62609">
        <ele>1271.48</ele>
        <time>2012-06-10T07:30:27.000Z</time>
      </trkpt>
      <trkpt lat="44.64447" lon="6.62617">
        <ele>1271</ele>
        <time>2012-06-10T07:30:29.000Z</time>
      </trkpt>
      <trkpt lat="44.64415" lon="6.62669">
        <ele>1271.96</ele>
        <time>2012-06-10T07:30:39.000Z</time>
      </trkpt>
      <trkpt lat="44.64406" lon="6.62674">
        <ele>1272.92</ele>
        <time>2012-06-10T07:30:43.000Z</time>
      </trkpt>
      <trkpt lat="44.64397" lon="6.62679">
        <ele>1274.85</ele>
        <time>2012-06-10T07:30:47.000Z</time>
      </trkpt>
      <trkpt lat="44.64392" lon="6.62682">
        <ele>1275.81</ele>
        <time>2012-06-10T07:30:50.000Z</time>
      </trkpt>
      <trkpt lat="44.64385" lon="6.62693">
        <ele>1276.77</ele>
        <time>2012-06-10T07:30:55.000Z</time>
      </trkpt>
      <trkpt lat="44.64384" lon="6.62695">
        <ele>1277.73</ele>
        <time>2012-06-10T07:30:57.000Z</time>
      </trkpt>
      <trkpt lat="44.6438" lon="6.62704">
        <ele>1278.21</ele>
        <time>2012-06-10T07:31:01.000Z</time>
      </trkpt>
      <trkpt lat="44.64378" lon="6.6271">
        <ele>1278.69</ele>
        <time>2012-06-10T07:31:05.000Z</time>
      </trkpt>
      <trkpt lat="44.64374" lon="6.62719">
        <ele>1280.13</ele>
        <time>2012-06-10T07:31:12.000Z</time>
      </trkpt>
      <trkpt lat="44.64376" lon="6.62721">
        <ele>1280.61</ele>
        <time>2012-06-10T07:31:14.000Z</time>
      </trkpt>
      <trkpt lat="44.64382" lon="6.62755">
        <ele>1278.69</ele>
        <time>2012-06-10T07:31:23.000Z</time>
      </trkpt>
      <trkpt lat="44.64346" lon="6.62818">
        <ele>1278.69</ele>
        <time>2012-06-10T07:31:24.000Z</time>
      </trkpt>
      <trkpt lat="44.64331" lon="6.62849">
        <ele>1276.77</ele>
        <time>2012-06-10T07:31:30.000Z</time>
      </trkpt>
      <trkpt lat="44.64333" lon="6.6288">
        <ele>1272.92</ele>
        <time>2012-06-10T07:31:34.000Z</time>
      </trkpt>
      <trkpt lat="44.64331" lon="6.62894">
        <ele>1271</ele>
        <time>2012-06-10T07:31:36.000Z</time>
      </trkpt>
      <trkpt lat="44.64331" lon="6.62929">
        <ele>1264.75</ele>
        <time>2012-06-10T07:31:41.000Z</time>
      </trkpt>
      <trkpt lat="44.64335" lon="6.62936">
        <ele>1263.79</ele>
        <time>2012-06-10T07:31:42.000Z</time>
      </trkpt>
      <trkpt lat="44.64343" lon="6.62952">
        <ele>1260.91</ele>
        <time>2012-06-10T07:31:44.000Z</time>
      </trkpt>
      <trkpt lat="44.64345" lon="6.62958">
        <ele>1260.91</ele>
        <time>2012-06-10T07:31:45.000Z</time>
      </trkpt>
      <trkpt lat="44.64344" lon="6.62963">
        <ele>1260.91</ele>
        <time>2012-06-10T07:31:46.000Z</time>
      </trkpt>
      <trkpt lat="44.6434" lon="6.62965">
        <ele>1260.91</ele>
        <time>2012-06-10T07:31:47.000Z</time>
      </trkpt>
      <trkpt lat="44.64337" lon="6.62966">
        <ele>1261.39</ele>
        <time>2012-06-10T07:31:48.000Z</time>
      </trkpt>
      <trkpt lat="44.64334" lon="6.62967">
        <ele>1261.39</ele>
        <time>2012-06-10T07:31:49.000Z</time>
      </trkpt>
      <trkpt lat="44.6433" lon="6.62967">
        <ele>1262.35</ele>
        <time>2012-06-10T07:31:50.000Z</time>
      </trkpt>
      <trkpt lat="44.64326" lon="6.62968">
        <ele>1262.35</ele>
        <time>2012-06-10T07:31:51.000Z</time>
      </trkpt>
      <trkpt lat="44.6431" lon="6.62992">
        <ele>1265.23</ele>
        <time>2012-06-10T07:32:00.000Z</time>
      </trkpt>
      <trkpt lat="44.6431" lon="6.62996">
        <ele>1265.23</ele>
        <time>2012-06-10T07:32:01.000Z</time>
      </trkpt>
      <trkpt lat="44.6431" lon="6.63">
        <ele>1265.71</ele>
        <time>2012-06-10T07:32:02.000Z</time>
      </trkpt>
      <trkpt lat="44.6431" lon="6.63003">
        <ele>1265.71</ele>
        <time>2012-06-10T07:32:03.000Z</time>
      </trkpt>
      <trkpt lat="44.64311" lon="6.63007">
        <ele>1266.19</ele>
        <time>2012-06-10T07:32:04.000Z</time>
      </trkpt>
      <trkpt lat="44.64312" lon="6.63011">
        <ele>1266.19</ele>
        <time>2012-06-10T07:32:05.000Z</time>
      </trkpt>
      <trkpt lat="44.64314" lon="6.63014">
        <ele>1266.67</ele>
        <time>2012-06-10T07:32:06.000Z</time>
      </trkpt>
      <trkpt lat="44.64316" lon="6.63017">
        <ele>1267.16</ele>
        <time>2012-06-10T07:32:07.000Z</time>
      </trkpt>
      <trkpt lat="44.64319" lon="6.63019">
        <ele>1267.16</ele>
        <time>2012-06-10T07:32:08.000Z</time>
      </trkpt>
      <trkpt lat="44.64322" lon="6.63021">
        <ele>1267.16</ele>
        <time>2012-06-10T07:32:09.000Z</time>
      </trkpt>
      <trkpt lat="44.64325" lon="6.63022">
        <ele>1267.16</ele>
        <time>2012-06-10T07:32:10.000Z</time>
      </trkpt>
      <trkpt lat="44.64327" lon="6.63023">
        <ele>1267.64</ele>
        <time>2012-06-10T07:32:11.000Z</time>
      </trkpt>
      <trkpt lat="44.64359" lon="6.63031">
        <ele>1271</ele>
        <time>2012-06-10T07:32:22.000Z</time>
      </trkpt>
      <trkpt lat="44.64394" lon="6.6305">
        <ele>1273.88</ele>
        <time>2012-06-10T07:32:35.000Z</time>
      </trkpt>
      <trkpt lat="44.64403" lon="6.63061">
        <ele>1274.85</ele>
        <time>2012-06-10T07:32:39.000Z</time>
      </trkpt>
      <trkpt lat="44.64417" lon="6.63098">
        <ele>1277.73</ele>
        <time>2012-06-10T07:32:50.000Z</time>
      </trkpt>
      <trkpt lat="44.64406" lon="6.63132">
        <ele>1280.13</ele>
        <time>2012-06-10T07:33:00.000Z</time>
      </trkpt>
      <trkpt lat="44.64393" lon="6.63172">
        <ele>1282.54</ele>
        <time>2012-06-10T07:33:11.000Z</time>
      </trkpt>
      <trkpt lat="44.64383" lon="6.63211">
        <ele>1285.42</ele>
        <time>2012-06-10T07:33:22.000Z</time>
      </trkpt>
      <trkpt lat="44.64363" lon="6.63249">
        <ele>1288.3</ele>
        <time>2012-06-10T07:33:34.000Z</time>
      </trkpt>
      <trkpt lat="44.6434" lon="6.63278">
        <ele>1291.19</ele>
        <time>2012-06-10T07:33:46.000Z</time>
      </trkpt>
      <trkpt lat="44.64331" lon="6.6328">
        <ele>1292.15</ele>
        <time>2012-06-10T07:33:50.000Z</time>
      </trkpt>
      <trkpt lat="44.64329" lon="6.63278">
        <ele>1292.63</ele>
        <time>2012-06-10T07:33:51.000Z</time>
      </trkpt>
      <trkpt lat="44.64328" lon="6.63276">
        <ele>1293.11</ele>
        <time>2012-06-10T07:33:52.000Z</time>
      </trkpt>
      <trkpt lat="44.64327" lon="6.63272">
        <ele>1292.63</ele>
        <time>2012-06-10T07:33:53.000Z</time>
      </trkpt>
      <trkpt lat="44.64325" lon="6.63269">
        <ele>1293.11</ele>
        <time>2012-06-10T07:33:54.000Z</time>
      </trkpt>
      <trkpt lat="44.64324" lon="6.63266">
        <ele>1293.11</ele>
        <time>2012-06-10T07:33:55.000Z</time>
      </trkpt>
      <trkpt lat="44.64323" lon="6.63263">
        <ele>1293.59</ele>
        <time>2012-06-10T07:33:56.000Z</time>
      </trkpt>
      <trkpt lat="44.64322" lon="6.63259">
        <ele>1294.07</ele>
        <time>2012-06-10T07:33:57.000Z</time>
      </trkpt>
      <trkpt lat="44.64321" lon="6.63256">
        <ele>1293.59</ele>
        <time>2012-06-10T07:33:58.000Z</time>
      </trkpt>
      <trkpt lat="44.64319" lon="6.63254">
        <ele>1294.07</ele>
        <time>2012-06-10T07:33:59.000Z</time>
      </trkpt>
      <trkpt lat="44.64318" lon="6.63251">
        <ele>1294.07</ele>
        <time>2012-06-10T07:34:00.000Z</time>
      </trkpt>
      <trkpt lat="44.64302" lon="6.63229">
        <ele>1295.03</ele>
        <time>2012-06-10T07:34:10.000Z</time>
      </trkpt>
      <trkpt lat="44.64299" lon="6.63229">
        <ele>1295.03</ele>
        <time>2012-06-10T07:34:11.000Z</time>
      </trkpt>
      <trkpt lat="44.64293" lon="6.6323">
        <ele>1294.55</ele>
        <time>2012-06-10T07:34:13.000Z</time>
      </trkpt>
      <trkpt lat="44.64277" lon="6.63251">
        <ele>1297.92</ele>
        <time>2012-06-10T07:34:22.000Z</time>
      </trkpt>
      <trkpt lat="44.64267" lon="6.63276">
        <ele>1300.8</ele>
        <time>2012-06-10T07:34:32.000Z</time>
      </trkpt>
      <trkpt lat="44.64264" lon="6.63284">
        <ele>1301.76</ele>
        <time>2012-06-10T07:34:35.000Z</time>
      </trkpt>
      <trkpt lat="44.64262" lon="6.63286">
        <ele>1302.24</ele>
        <time>2012-06-10T07:34:36.000Z</time>
      </trkpt>
      <trkpt lat="44.64259" lon="6.63291">
        <ele>1302.24</ele>
        <time>2012-06-10T07:34:38.000Z</time>
      </trkpt>
      <trkpt lat="44.64258" lon="6.63294">
        <ele>1302.72</ele>
        <time>2012-06-10T07:34:39.000Z</time>
      </trkpt>
      <trkpt lat="44.64251" lon="6.63316">
        <ele>1306.09</ele>
        <time>2012-06-10T07:34:47.000Z</time>
      </trkpt>
      <trkpt lat="44.64242" lon="6.63345">
        <ele>1308.97</ele>
        <time>2012-06-10T07:34:58.000Z</time>
      </trkpt>
      <trkpt lat="44.64223" lon="6.63372">
        <ele>1310.9</ele>
        <time>2012-06-10T07:35:09.000Z</time>
      </trkpt>
      <trkpt lat="44.64201" lon="6.63407">
        <ele>1312.34</ele>
        <time>2012-06-10T07:35:20.000Z</time>
      </trkpt>
      <trkpt lat="44.64183" lon="6.63438">
        <ele>1315.7</ele>
        <time>2012-06-10T07:35:32.000Z</time>
      </trkpt>
      <trkpt lat="44.64166" lon="6.63464">
        <ele>1319.07</ele>
        <time>2012-06-10T07:35:43.000Z</time>
      </trkpt>
      <trkpt lat="44.64142" lon="6.63479">
        <ele>1321.47</ele>
        <time>2012-06-10T07:35:56.000Z</time>
      </trkpt>
      <trkpt lat="44.64116" lon="6.63463">
        <ele>1324.35</ele>
        <time>2012-06-10T07:36:09.000Z</time>
      </trkpt>
      <trkpt lat="44.64089" lon="6.6345">
        <ele>1327.72</ele>
        <time>2012-06-10T07:36:22.000Z</time>
      </trkpt>
      <trkpt lat="44.64068" lon="6.63435">
        <ele>1330.12</ele>
        <time>2012-06-10T07:36:33.000Z</time>
      </trkpt>
      <trkpt lat="44.64045" lon="6.63429">
        <ele>1332.52</ele>
        <time>2012-06-10T07:36:44.000Z</time>
      </trkpt>
      <trkpt lat="44.64017" lon="6.63422">
        <ele>1335.89</ele>
        <time>2012-06-10T07:36:57.000Z</time>
      </trkpt>
      <trkpt lat="44.63994" lon="6.63417">
        <ele>1339.25</ele>
        <time>2012-06-10T07:37:09.000Z</time>
      </trkpt>
      <trkpt lat="44.63988" lon="6.63415">
        <ele>1339.73</ele>
        <time>2012-06-10T07:37:12.000Z</time>
      </trkpt>
      <trkpt lat="44.63986" lon="6.63414">
        <ele>1340.22</ele>
        <time>2012-06-10T07:37:13.000Z</time>
      </trkpt>
      <trkpt lat="44.63985" lon="6.63414">
        <ele>1340.22</ele>
        <time>2012-06-10T07:37:14.000Z</time>
      </trkpt>
      <trkpt lat="44.63969" lon="6.63414">
        <ele>1342.62</ele>
        <time>2012-06-10T07:37:23.000Z</time>
      </trkpt>
      <trkpt lat="44.63962" lon="6.63416">
        <ele>1344.06</ele>
        <time>2012-06-10T07:37:28.000Z</time>
      </trkpt>
      <trkpt lat="44.6396" lon="6.63415">
        <ele>1344.54</ele>
        <time>2012-06-10T07:37:29.000Z</time>
      </trkpt>
      <trkpt lat="44.6394" lon="6.63404">
        <ele>1346.94</ele>
        <time>2012-06-10T07:37:41.000Z</time>
      </trkpt>
      <trkpt lat="44.63935" lon="6.63396">
        <ele>1349.35</ele>
        <time>2012-06-10T07:37:47.000Z</time>
      </trkpt>
      <trkpt lat="44.63934" lon="6.63394">
        <ele>1349.83</ele>
        <time>2012-06-10T07:37:48.000Z</time>
      </trkpt>
      <trkpt lat="44.63933" lon="6.63392">
        <ele>1349.83</ele>
        <time>2012-06-10T07:37:49.000Z</time>
      </trkpt>
      <trkpt lat="44.63929" lon="6.63359">
        <ele>1352.23</ele>
        <time>2012-06-10T07:38:03.000Z</time>
      </trkpt>
      <trkpt lat="44.63929" lon="6.63347">
        <ele>1353.19</ele>
        <time>2012-06-10T07:38:08.000Z</time>
      </trkpt>
      <trkpt lat="44.63931" lon="6.63345">
        <ele>1353.67</ele>
        <time>2012-06-10T07:38:09.000Z</time>
      </trkpt>
      <trkpt lat="44.63931" lon="6.63343">
        <ele>1353.19</ele>
        <time>2012-06-10T07:38:10.000Z</time>
      </trkpt>
      <trkpt lat="44.63932" lon="6.6334">
        <ele>1353.67</ele>
        <time>2012-06-10T07:38:11.000Z</time>
      </trkpt>
      <trkpt lat="44.63936" lon="6.63328">
        <ele>1354.63</ele>
        <time>2012-06-10T07:38:15.000Z</time>
      </trkpt>
      <trkpt lat="44.63936" lon="6.63324">
        <ele>1354.63</ele>
        <time>2012-06-10T07:38:16.000Z</time>
      </trkpt>
      <trkpt lat="44.63937" lon="6.63321">
        <ele>1355.12</ele>
        <time>2012-06-10T07:38:17.000Z</time>
      </trkpt>
      <trkpt lat="44.63936" lon="6.63318">
        <ele>1355.12</ele>
        <time>2012-06-10T07:38:18.000Z</time>
      </trkpt>
      <trkpt lat="44.63935" lon="6.63317">
        <ele>1355.6</ele>
        <time>2012-06-10T07:38:19.000Z</time>
      </trkpt>
      <trkpt lat="44.63933" lon="6.63315">
        <ele>1355.6</ele>
        <time>2012-06-10T07:38:20.000Z</time>
      </trkpt>
      <trkpt lat="44.63932" lon="6.63312">
        <ele>1355.6</ele>
        <time>2012-06-10T07:38:21.000Z</time>
      </trkpt>
      <trkpt lat="44.63931" lon="6.6331">
        <ele>1356.08</ele>
        <time>2012-06-10T07:38:22.000Z</time>
      </trkpt>
      <trkpt lat="44.6393" lon="6.63309">
        <ele>1356.08</ele>
        <time>2012-06-10T07:38:23.000Z</time>
      </trkpt>
      <trkpt lat="44.63929" lon="6.6331">
        <ele>1356.56</ele>
        <time>2012-06-10T07:38:24.000Z</time>
      </trkpt>
      <trkpt lat="44.63927" lon="6.63311">
        <ele>1357.04</ele>
        <time>2012-06-10T07:38:25.000Z</time>
      </trkpt>
      <trkpt lat="44.63926" lon="6.63314">
        <ele>1357.52</ele>
        <time>2012-06-10T07:38:27.000Z</time>
      </trkpt>
      <trkpt lat="44.63921" lon="6.63327">
        <ele>1358.48</ele>
        <time>2012-06-10T07:38:34.000Z</time>
      </trkpt>
      <trkpt lat="44.63919" lon="6.63329">
        <ele>1358.96</ele>
        <time>2012-06-10T07:38:35.000Z</time>
      </trkpt>
      <trkpt lat="44.63918" lon="6.6333">
        <ele>1358.96</ele>
        <time>2012-06-10T07:38:36.000Z</time>
      </trkpt>
      <trkpt lat="44.63908" lon="6.63343">
        <ele>1360.88</ele>
        <time>2012-06-10T07:38:44.000Z</time>
      </trkpt>
      <trkpt lat="44.63906" lon="6.63346">
        <ele>1360.88</ele>
        <time>2012-06-10T07:38:46.000Z</time>
      </trkpt>
      <trkpt lat="44.63906" lon="6.63348">
        <ele>1361.36</ele>
        <time>2012-06-10T07:38:47.000Z</time>
      </trkpt>
      <trkpt lat="44.63905" lon="6.6335">
        <ele>1361.36</ele>
        <time>2012-06-10T07:38:48.000Z</time>
      </trkpt>
      <trkpt lat="44.63894" lon="6.63362">
        <ele>1362.33</ele>
        <time>2012-06-10T07:38:55.000Z</time>
      </trkpt>
      <trkpt lat="44.63892" lon="6.63364">
        <ele>1362.81</ele>
        <time>2012-06-10T07:38:56.000Z</time>
      </trkpt>
      <trkpt lat="44.6389" lon="6.63366">
        <ele>1362.81</ele>
        <time>2012-06-10T07:38:57.000Z</time>
      </trkpt>
      <trkpt lat="44.63884" lon="6.63369">
        <ele>1362.81</ele>
        <time>2012-06-10T07:38:59.000Z</time>
      </trkpt>
      <trkpt lat="44.63883" lon="6.6337">
        <ele>1363.29</ele>
        <time>2012-06-10T07:39:00.000Z</time>
      </trkpt>
      <trkpt lat="44.63879" lon="6.63373">
        <ele>1363.77</ele>
        <time>2012-06-10T07:39:02.000Z</time>
      </trkpt>
      <trkpt lat="44.63861" lon="6.63385">
        <ele>1365.21</ele>
        <time>2012-06-10T07:39:10.000Z</time>
      </trkpt>
      <trkpt lat="44.63855" lon="6.63391">
        <ele>1365.69</ele>
        <time>2012-06-10T07:39:14.000Z</time>
      </trkpt>
      <trkpt lat="44.63834" lon="6.63403">
        <ele>1367.13</ele>
        <time>2012-06-10T07:39:23.000Z</time>
      </trkpt>
      <trkpt lat="44.63828" lon="6.6341">
        <ele>1368.09</ele>
        <time>2012-06-10T07:39:27.000Z</time>
      </trkpt>
      <trkpt lat="44.63819" lon="6.63416">
        <ele>1369.54</ele>
        <time>2012-06-10T07:39:31.000Z</time>
      </trkpt>
      <trkpt lat="44.63802" lon="6.6343">
        <ele>1371.46</ele>
        <time>2012-06-10T07:39:40.000Z</time>
      </trkpt>
      <trkpt lat="44.63789" lon="6.63441">
        <ele>1372.9</ele>
        <time>2012-06-10T07:39:47.000Z</time>
      </trkpt>
      <trkpt lat="44.63768" lon="6.63473">
        <ele>1374.82</ele>
        <time>2012-06-10T07:40:01.000Z</time>
      </trkpt>
      <trkpt lat="44.63766" lon="6.63475">
        <ele>1375.3</ele>
        <time>2012-06-10T07:40:02.000Z</time>
      </trkpt>
      <trkpt lat="44.63763" lon="6.63491">
        <ele>1376.26</ele>
        <time>2012-06-10T07:40:07.000Z</time>
      </trkpt>
      <trkpt lat="44.63764" lon="6.63497">
        <ele>1376.75</ele>
        <time>2012-06-10T07:40:10.000Z</time>
      </trkpt>
      <trkpt lat="44.63782" lon="6.63509">
        <ele>1379.15</ele>
        <time>2012-06-10T07:40:21.000Z</time>
      </trkpt>
      <trkpt lat="44.63792" lon="6.63509">
        <ele>1380.11</ele>
        <time>2012-06-10T07:40:26.000Z</time>
      </trkpt>
      <trkpt lat="44.6381" lon="6.63516">
        <ele>1381.55</ele>
        <time>2012-06-10T07:40:35.000Z</time>
      </trkpt>
      <trkpt lat="44.63825" lon="6.63551">
        <ele>1382.99</ele>
        <time>2012-06-10T07:40:48.000Z</time>
      </trkpt>
      <trkpt lat="44.63829" lon="6.63588">
        <ele>1383.96</ele>
        <time>2012-06-10T07:40:57.000Z</time>
      </trkpt>
      <trkpt lat="44.63824" lon="6.63601">
        <ele>1384.44</ele>
        <time>2012-06-10T07:41:01.000Z</time>
      </trkpt>
      <trkpt lat="44.63813" lon="6.63629">
        <ele>1386.84</ele>
        <time>2012-06-10T07:41:11.000Z</time>
      </trkpt>
      <trkpt lat="44.63808" lon="6.6365">
        <ele>1388.76</ele>
        <time>2012-06-10T07:41:18.000Z</time>
      </trkpt>
      <trkpt lat="44.63799" lon="6.63675">
        <ele>1391.65</ele>
        <time>2012-06-10T07:41:28.000Z</time>
      </trkpt>
      <trkpt lat="44.63789" lon="6.63697">
        <ele>1394.05</ele>
        <time>2012-06-10T07:41:41.000Z</time>
      </trkpt>
      <trkpt lat="44.63786" lon="6.63698">
        <ele>1394.53</ele>
        <time>2012-06-10T07:41:43.000Z</time>
      </trkpt>
      <trkpt lat="44.63783" lon="6.63696">
        <ele>1395.97</ele>
        <time>2012-06-10T07:41:47.000Z</time>
      </trkpt>
      <trkpt lat="44.63783" lon="6.63687">
        <ele>1396.45</ele>
        <time>2012-06-10T07:41:51.000Z</time>
      </trkpt>
      <trkpt lat="44.63787" lon="6.63656">
        <ele>1397.41</ele>
        <time>2012-06-10T07:42:03.000Z</time>
      </trkpt>
      <trkpt lat="44.63787" lon="6.63627">
        <ele>1398.86</ele>
        <time>2012-06-10T07:42:12.000Z</time>
      </trkpt>
      <trkpt lat="44.63783" lon="6.63631">
        <ele>1399.82</ele>
        <time>2012-06-10T07:42:17.000Z</time>
      </trkpt>
      <trkpt lat="44.63782" lon="6.63636">
        <ele>1400.3</ele>
        <time>2012-06-10T07:42:19.000Z</time>
      </trkpt>
      <trkpt lat="44.63768" lon="6.63673">
        <ele>1403.18</ele>
        <time>2012-06-10T07:42:33.000Z</time>
      </trkpt>
      <trkpt lat="44.63768" lon="6.63676">
        <ele>1403.18</ele>
        <time>2012-06-10T07:42:34.000Z</time>
      </trkpt>
      <trkpt lat="44.63762" lon="6.63709">
        <ele>1405.58</ele>
        <time>2012-06-10T07:42:46.000Z</time>
      </trkpt>
      <trkpt lat="44.63755" lon="6.63745">
        <ele>1407.51</ele>
        <time>2012-06-10T07:42:58.000Z</time>
      </trkpt>
      <trkpt lat="44.6375" lon="6.63775">
        <ele>1409.91</ele>
        <time>2012-06-10T07:43:08.000Z</time>
      </trkpt>
      <trkpt lat="44.63726" lon="6.6379">
        <ele>1412.79</ele>
        <time>2012-06-10T07:43:20.000Z</time>
      </trkpt>
      <trkpt lat="44.63701" lon="6.63798">
        <ele>1414.24</ele>
        <time>2012-06-10T07:43:31.000Z</time>
      </trkpt>
      <trkpt lat="44.63699" lon="6.63834">
        <ele>1416.16</ele>
        <time>2012-06-10T07:43:42.000Z</time>
      </trkpt>
      <trkpt lat="44.63701" lon="6.63856">
        <ele>1417.12</ele>
        <time>2012-06-10T07:43:49.000Z</time>
      </trkpt>
      <trkpt lat="44.63686" lon="6.63893">
        <ele>1419.52</ele>
        <time>2012-06-10T07:44:03.000Z</time>
      </trkpt>
      <trkpt lat="44.63676" lon="6.63922">
        <ele>1422.89</ele>
        <time>2012-06-10T07:44:14.000Z</time>
      </trkpt>
      <trkpt lat="44.63675" lon="6.63925">
        <ele>1423.37</ele>
        <time>2012-06-10T07:44:15.000Z</time>
      </trkpt>
      <trkpt lat="44.63665" lon="6.63954">
        <ele>1425.77</ele>
        <time>2012-06-10T07:44:25.000Z</time>
      </trkpt>
      <trkpt lat="44.6365" lon="6.6399">
        <ele>1428.18</ele>
        <time>2012-06-10T07:44:38.000Z</time>
      </trkpt>
      <trkpt lat="44.63639" lon="6.64013">
        <ele>1431.06</ele>
        <time>2012-06-10T07:44:48.000Z</time>
      </trkpt>
      <trkpt lat="44.63623" lon="6.64009">
        <ele>1433.46</ele>
        <time>2012-06-10T07:44:59.000Z</time>
      </trkpt>
      <trkpt lat="44.63617" lon="6.64005">
        <ele>1435.39</ele>
        <time>2012-06-10T07:45:03.000Z</time>
      </trkpt>
      <trkpt lat="44.63597" lon="6.63986">
        <ele>1438.75</ele>
        <time>2012-06-10T07:45:16.000Z</time>
      </trkpt>
      <trkpt lat="44.63596" lon="6.63985">
        <ele>1439.23</ele>
        <time>2012-06-10T07:45:17.000Z</time>
      </trkpt>
      <trkpt lat="44.63574" lon="6.63977">
        <ele>1442.11</ele>
        <time>2012-06-10T07:45:29.000Z</time>
      </trkpt>
      <trkpt lat="44.63553" lon="6.63969">
        <ele>1445</ele>
        <time>2012-06-10T07:45:40.000Z</time>
      </trkpt>
      <trkpt lat="44.6354" lon="6.63975">
        <ele>1446.44</ele>
        <time>2012-06-10T07:45:48.000Z</time>
      </trkpt>
      <trkpt lat="44.6354" lon="6.63992">
        <ele>1447.88</ele>
        <time>2012-06-10T07:45:56.000Z</time>
      </trkpt>
      <trkpt lat="44.63562" lon="6.64021">
        <ele>1450.29</ele>
        <time>2012-06-10T07:46:11.000Z</time>
      </trkpt>
      <trkpt lat="44.6358" lon="6.64042">
        <ele>1451.73</ele>
        <time>2012-06-10T07:46:20.000Z</time>
      </trkpt>
      <trkpt lat="44.63599" lon="6.64082">
        <ele>1453.65</ele>
        <time>2012-06-10T07:46:33.000Z</time>
      </trkpt>
      <trkpt lat="44.63626" lon="6.64112">
        <ele>1456.05</ele>
        <time>2012-06-10T07:46:46.000Z</time>
      </trkpt>
      <trkpt lat="44.63636" lon="6.64126">
        <ele>1456.05</ele>
        <time>2012-06-10T07:46:51.000Z</time>
      </trkpt>
      <trkpt lat="44.63622" lon="6.64191">
        <ele>1456.53</ele>
        <time>2012-06-10T07:47:04.000Z</time>
      </trkpt>
      <trkpt lat="44.6361" lon="6.64238">
        <ele>1457.98</ele>
        <time>2012-06-10T07:47:14.000Z</time>
      </trkpt>
      <trkpt lat="44.63626" lon="6.64272">
        <ele>1459.9</ele>
        <time>2012-06-10T07:47:24.000Z</time>
      </trkpt>
      <trkpt lat="44.63654" lon="6.643">
        <ele>1463.26</ele>
        <time>2012-06-10T07:47:37.000Z</time>
      </trkpt>
      <trkpt lat="44.6366" lon="6.64314">
        <ele>1464.23</ele>
        <time>2012-06-10T07:47:42.000Z</time>
      </trkpt>
      <trkpt lat="44.6366" lon="6.64317">
        <ele>1465.19</ele>
        <time>2012-06-10T07:47:43.000Z</time>
      </trkpt>
      <trkpt lat="44.6366" lon="6.6432">
        <ele>1465.19</ele>
        <time>2012-06-10T07:47:44.000Z</time>
      </trkpt>
      <trkpt lat="44.63661" lon="6.64322">
        <ele>1465.19</ele>
        <time>2012-06-10T07:47:45.000Z</time>
      </trkpt>
      <trkpt lat="44.63662" lon="6.64325">
        <ele>1465.67</ele>
        <time>2012-06-10T07:47:46.000Z</time>
      </trkpt>
      <trkpt lat="44.6366" lon="6.64361">
        <ele>1467.59</ele>
        <time>2012-06-10T07:47:57.000Z</time>
      </trkpt>
      <trkpt lat="44.63654" lon="6.64398">
        <ele>1470.95</ele>
        <time>2012-06-10T07:48:09.000Z</time>
      </trkpt>
      <trkpt lat="44.63644" lon="6.64426">
        <ele>1473.84</ele>
        <time>2012-06-10T07:48:19.000Z</time>
      </trkpt>
      <trkpt lat="44.63643" lon="6.64429">
        <ele>1474.32</ele>
        <time>2012-06-10T07:48:20.000Z</time>
      </trkpt>
      <trkpt lat="44.63625" lon="6.64463">
        <ele>1477.2</ele>
        <time>2012-06-10T07:48:33.000Z</time>
      </trkpt>
      <trkpt lat="44.63605" lon="6.64496">
        <ele>1480.09</ele>
        <time>2012-06-10T07:48:46.000Z</time>
      </trkpt>
      <trkpt lat="44.63598" lon="6.64535">
        <ele>1483.45</ele>
        <time>2012-06-10T07:48:58.000Z</time>
      </trkpt>
      <trkpt lat="44.63578" lon="6.64567">
        <ele>1485.37</ele>
        <time>2012-06-10T07:49:10.000Z</time>
      </trkpt>
      <trkpt lat="44.63569" lon="6.64597">
        <ele>1487.78</ele>
        <time>2012-06-10T07:49:20.000Z</time>
      </trkpt>
      <trkpt lat="44.63569" lon="6.64601">
        <ele>1487.3</ele>
        <time>2012-06-10T07:49:21.000Z</time>
      </trkpt>
      <trkpt lat="44.63569" lon="6.64606">
        <ele>1488.26</ele>
        <time>2012-06-10T07:49:22.000Z</time>
      </trkpt>
      <trkpt lat="44.6357" lon="6.6461">
        <ele>1487.78</ele>
        <time>2012-06-10T07:49:23.000Z</time>
      </trkpt>
      <trkpt lat="44.63571" lon="6.64614">
        <ele>1488.74</ele>
        <time>2012-06-10T07:49:24.000Z</time>
      </trkpt>
      <trkpt lat="44.63577" lon="6.64627">
        <ele>1489.22</ele>
        <time>2012-06-10T07:49:28.000Z</time>
      </trkpt>
      <trkpt lat="44.63586" lon="6.64629">
        <ele>1489.22</ele>
        <time>2012-06-10T07:49:31.000Z</time>
      </trkpt>
      <trkpt lat="44.63634" lon="6.64644">
        <ele>1490.18</ele>
        <time>2012-06-10T07:49:44.000Z</time>
      </trkpt>
      <trkpt lat="44.63662" lon="6.64662">
        <ele>1492.58</ele>
        <time>2012-06-10T07:49:55.000Z</time>
      </trkpt>
      <trkpt lat="44.63691" lon="6.64678">
        <ele>1495.47</ele>
        <time>2012-06-10T07:50:06.000Z</time>
      </trkpt>
      <trkpt lat="44.63712" lon="6.64687">
        <ele>1497.39</ele>
        <time>2012-06-10T07:50:15.000Z</time>
      </trkpt>
      <trkpt lat="44.63735" lon="6.64684">
        <ele>1500.27</ele>
        <time>2012-06-10T07:50:26.000Z</time>
      </trkpt>
      <trkpt lat="44.63744" lon="6.64674">
        <ele>1500.76</ele>
        <time>2012-06-10T07:50:31.000Z</time>
      </trkpt>
      <trkpt lat="44.63758" lon="6.64652">
        <ele>1503.16</ele>
        <time>2012-06-10T07:50:41.000Z</time>
      </trkpt>
      <trkpt lat="44.63766" lon="6.64655">
        <ele>1503.64</ele>
        <time>2012-06-10T07:50:45.000Z</time>
      </trkpt>
      <trkpt lat="44.63773" lon="6.64693">
        <ele>1506.04</ele>
        <time>2012-06-10T07:50:57.000Z</time>
      </trkpt>
      <trkpt lat="44.63751" lon="6.64714">
        <ele>1507.97</ele>
        <time>2012-06-10T07:51:08.000Z</time>
      </trkpt>
      <trkpt lat="44.63725" lon="6.64714">
        <ele>1510.37</ele>
        <time>2012-06-10T07:51:19.000Z</time>
      </trkpt>
      <trkpt lat="44.63701" lon="6.64718">
        <ele>1512.77</ele>
        <time>2012-06-10T07:51:30.000Z</time>
      </trkpt>
      <trkpt lat="44.63663" lon="6.64708">
        <ele>1514.69</ele>
        <time>2012-06-10T07:51:45.000Z</time>
      </trkpt>
      <trkpt lat="44.63651" lon="6.64704">
        <ele>1516.14</ele>
        <time>2012-06-10T07:51:50.000Z</time>
      </trkpt>
      <trkpt lat="44.63624" lon="6.64713">
        <ele>1518.54</ele>
        <time>2012-06-10T07:52:02.000Z</time>
      </trkpt>
      <trkpt lat="44.63619" lon="6.64753">
        <ele>1520.46</ele>
        <time>2012-06-10T07:52:14.000Z</time>
      </trkpt>
      <trkpt lat="44.63609" lon="6.64793">
        <ele>1522.39</ele>
        <time>2012-06-10T07:52:26.000Z</time>
      </trkpt>
      <trkpt lat="44.63573" lon="6.64803">
        <ele>1524.79</ele>
        <time>2012-06-10T07:52:40.000Z</time>
      </trkpt>
      <trkpt lat="44.63544" lon="6.64812">
        <ele>1527.19</ele>
        <time>2012-06-10T07:52:51.000Z</time>
      </trkpt>
      <trkpt lat="44.63525" lon="6.64838">
        <ele>1529.11</ele>
        <time>2012-06-10T07:53:02.000Z</time>
      </trkpt>
      <trkpt lat="44.63519" lon="6.64882">
        <ele>1530.08</ele>
        <time>2012-06-10T07:53:14.000Z</time>
      </trkpt>
      <trkpt lat="44.63533" lon="6.64941">
        <ele>1528.63</ele>
        <time>2012-06-10T07:53:26.000Z</time>
      </trkpt>
      <trkpt lat="44.63535" lon="6.64946">
        <ele>1529.11</ele>
        <time>2012-06-10T07:53:27.000Z</time>
      </trkpt>
      <trkpt lat="44.63537" lon="6.64951">
        <ele>1529.11</ele>
        <time>2012-06-10T07:53:28.000Z</time>
      </trkpt>
      <trkpt lat="44.63539" lon="6.64957">
        <ele>1528.63</ele>
        <time>2012-06-10T07:53:29.000Z</time>
      </trkpt>
      <trkpt lat="44.63542" lon="6.64962">
        <ele>1528.63</ele>
        <time>2012-06-10T07:53:30.000Z</time>
      </trkpt>
      <trkpt lat="44.63545" lon="6.64968">
        <ele>1528.15</ele>
        <time>2012-06-10T07:53:31.000Z</time>
      </trkpt>
      <trkpt lat="44.63552" lon="6.64978">
        <ele>1527.67</ele>
        <time>2012-06-10T07:53:33.000Z</time>
      </trkpt>
      <trkpt lat="44.63555" lon="6.64984">
        <ele>1527.67</ele>
        <time>2012-06-10T07:53:34.000Z</time>
      </trkpt>
      <trkpt lat="44.63559" lon="6.6499">
        <ele>1527.19</ele>
        <time>2012-06-10T07:53:35.000Z</time>
      </trkpt>
      <trkpt lat="44.63562" lon="6.64996">
        <ele>1527.19</ele>
        <time>2012-06-10T07:53:36.000Z</time>
      </trkpt>
      <trkpt lat="44.63565" lon="6.65003">
        <ele>1527.19</ele>
        <time>2012-06-10T07:53:37.000Z</time>
      </trkpt>
      <trkpt lat="44.63567" lon="6.65009">
        <ele>1526.23</ele>
        <time>2012-06-10T07:53:38.000Z</time>
      </trkpt>
      <trkpt lat="44.63568" lon="6.65014">
        <ele>1526.23</ele>
        <time>2012-06-10T07:53:39.000Z</time>
      </trkpt>
      <trkpt lat="44.63569" lon="6.65017">
        <ele>1526.23</ele>
        <time>2012-06-10T07:53:40.000Z</time>
      </trkpt>
      <trkpt lat="44.6357" lon="6.6502">
        <ele>1524.79</ele>
        <time>2012-06-10T07:53:45.000Z</time>
      </trkpt>
      <trkpt lat="44.63574" lon="6.65024">
        <ele>1522.87</ele>
        <time>2012-06-10T07:53:47.000Z</time>
      </trkpt>
      <trkpt lat="44.63583" lon="6.65026">
        <ele>1519.02</ele>
        <time>2012-06-10T07:53:52.000Z</time>
      </trkpt>
      <trkpt lat="44.63583" lon="6.65029">
        <ele>1518.06</ele>
        <time>2012-06-10T07:53:53.000Z</time>
      </trkpt>
      <trkpt lat="44.63586" lon="6.65051">
        <ele>1516.62</ele>
        <time>2012-06-10T07:53:58.000Z</time>
      </trkpt>
      <trkpt lat="44.63587" lon="6.65063">
        <ele>1514.21</ele>
        <time>2012-06-10T07:54:01.000Z</time>
      </trkpt>
      <trkpt lat="44.63588" lon="6.65065">
        <ele>1514.69</ele>
        <time>2012-06-10T07:54:02.000Z</time>
      </trkpt>
      <trkpt lat="44.63589" lon="6.65064">
        <ele>1513.73</ele>
        <time>2012-06-10T07:54:03.000Z</time>
      </trkpt>
      <trkpt lat="44.63591" lon="6.65063">
        <ele>1513.73</ele>
        <time>2012-06-10T07:54:04.000Z</time>
      </trkpt>
      <trkpt lat="44.63593" lon="6.65061">
        <ele>1512.77</ele>
        <time>2012-06-10T07:54:05.000Z</time>
      </trkpt>
      <trkpt lat="44.63594" lon="6.65057">
        <ele>1511.81</ele>
        <time>2012-06-10T07:54:06.000Z</time>
      </trkpt>
      <trkpt lat="44.63596" lon="6.65051">
        <ele>1511.33</ele>
        <time>2012-06-10T07:54:07.000Z</time>
      </trkpt>
      <trkpt lat="44.63599" lon="6.65044">
        <ele>1510.37</ele>
        <time>2012-06-10T07:54:08.000Z</time>
      </trkpt>
      <trkpt lat="44.63608" lon="6.65038">
        <ele>1508.93</ele>
        <time>2012-06-10T07:54:10.000Z</time>
      </trkpt>
      <trkpt lat="44.63616" lon="6.6503">
        <ele>1506.52</ele>
        <time>2012-06-10T07:54:12.000Z</time>
      </trkpt>
      <trkpt lat="44.63618" lon="6.65024">
        <ele>1505.08</ele>
        <time>2012-06-10T07:54:13.000Z</time>
      </trkpt>
      <trkpt lat="44.6362" lon="6.65019">
        <ele>1504.6</ele>
        <time>2012-06-10T07:54:14.000Z</time>
      </trkpt>
      <trkpt lat="44.63622" lon="6.65014">
        <ele>1502.68</ele>
        <time>2012-06-10T07:54:15.000Z</time>
      </trkpt>
      <trkpt lat="44.63623" lon="6.65007">
        <ele>1502.68</ele>
        <time>2012-06-10T07:54:16.000Z</time>
      </trkpt>
      <trkpt lat="44.63626" lon="6.65001">
        <ele>1501.72</ele>
        <time>2012-06-10T07:54:17.000Z</time>
      </trkpt>
      <trkpt lat="44.63629" lon="6.64996">
        <ele>1501.24</ele>
        <time>2012-06-10T07:54:18.000Z</time>
      </trkpt>
      <trkpt lat="44.63638" lon="6.64986">
        <ele>1499.31</ele>
        <time>2012-06-10T07:54:20.000Z</time>
      </trkpt>
      <trkpt lat="44.63654" lon="6.64973">
        <ele>1497.39</ele>
        <time>2012-06-10T07:54:23.000Z</time>
      </trkpt>
      <trkpt lat="44.63659" lon="6.64968">
        <ele>1496.43</ele>
        <time>2012-06-10T07:54:24.000Z</time>
      </trkpt>
      <trkpt lat="44.6368" lon="6.64942">
        <ele>1492.1</ele>
        <time>2012-06-10T07:54:30.000Z</time>
      </trkpt>
      <trkpt lat="44.6368" lon="6.64952">
        <ele>1489.22</ele>
        <time>2012-06-10T07:54:35.000Z</time>
      </trkpt>
      <trkpt lat="44.63668" lon="6.64976">
        <ele>1485.37</ele>
        <time>2012-06-10T07:54:39.000Z</time>
      </trkpt>
      <trkpt lat="44.6366" lon="6.64991">
        <ele>1483.93</ele>
        <time>2012-06-10T07:54:42.000Z</time>
      </trkpt>
      <trkpt lat="44.63656" lon="6.65002">
        <ele>1480.57</ele>
        <time>2012-06-10T07:54:44.000Z</time>
      </trkpt>
      <trkpt lat="44.63655" lon="6.6501">
        <ele>1479.13</ele>
        <time>2012-06-10T07:54:45.000Z</time>
      </trkpt>
      <trkpt lat="44.63655" lon="6.65024">
        <ele>1478.16</ele>
        <time>2012-06-10T07:54:47.000Z</time>
      </trkpt>
      <trkpt lat="44.63659" lon="6.65047">
        <ele>1473.36</ele>
        <time>2012-06-10T07:54:50.000Z</time>
      </trkpt>
      <trkpt lat="44.6366" lon="6.65052">
        <ele>1472.4</ele>
        <time>2012-06-10T07:54:51.000Z</time>
      </trkpt>
      <trkpt lat="44.63665" lon="6.65047">
        <ele>1470.47</ele>
        <time>2012-06-10T07:54:55.000Z</time>
      </trkpt>
      <trkpt lat="44.63668" lon="6.65036">
        <ele>1469.99</ele>
        <time>2012-06-10T07:54:57.000Z</time>
      </trkpt>
      <trkpt lat="44.63686" lon="6.65006">
        <ele>1464.71</ele>
        <time>2012-06-10T07:55:02.000Z</time>
      </trkpt>
      <trkpt lat="44.63703" lon="6.64988">
        <ele>1458.94</ele>
        <time>2012-06-10T07:55:07.000Z</time>
      </trkpt>
      <trkpt lat="44.63707" lon="6.64983">
        <ele>1458.46</ele>
        <time>2012-06-10T07:55:08.000Z</time>
      </trkpt>
      <trkpt lat="44.63729" lon="6.64954">
        <ele>1454.61</ele>
        <time>2012-06-10T07:55:13.000Z</time>
      </trkpt>
      <trkpt lat="44.63736" lon="6.64941">
        <ele>1454.61</ele>
        <time>2012-06-10T07:55:15.000Z</time>
      </trkpt>
      <trkpt lat="44.63745" lon="6.64923">
        <ele>1450.77</ele>
        <time>2012-06-10T07:55:19.000Z</time>
      </trkpt>
      <trkpt lat="44.63748" lon="6.6492">
        <ele>1449.32</ele>
        <time>2012-06-10T07:55:20.000Z</time>
      </trkpt>
      <trkpt lat="44.63768" lon="6.64927">
        <ele>1445.96</ele>
        <time>2012-06-10T07:55:25.000Z</time>
      </trkpt>
      <trkpt lat="44.63779" lon="6.6493">
        <ele>1444.04</ele>
        <time>2012-06-10T07:55:27.000Z</time>
      </trkpt>
      <trkpt lat="44.63807" lon="6.64937">
        <ele>1437.79</ele>
        <time>2012-06-10T07:55:31.000Z</time>
      </trkpt>
      <trkpt lat="44.63814" lon="6.64937">
        <ele>1437.79</ele>
        <time>2012-06-10T07:55:32.000Z</time>
      </trkpt>
      <trkpt lat="44.63829" lon="6.64938">
        <ele>1434.42</ele>
        <time>2012-06-10T07:55:34.000Z</time>
      </trkpt>
      <trkpt lat="44.63836" lon="6.64939">
        <ele>1434.42</ele>
        <time>2012-06-10T07:55:35.000Z</time>
      </trkpt>
      <trkpt lat="44.63842" lon="6.64942">
        <ele>1432.5</ele>
        <time>2012-06-10T07:55:36.000Z</time>
      </trkpt>
      <trkpt lat="44.63864" lon="6.64953">
        <ele>1428.18</ele>
        <time>2012-06-10T07:55:40.000Z</time>
      </trkpt>
      <trkpt lat="44.63879" lon="6.6496">
        <ele>1423.85</ele>
        <time>2012-06-10T07:55:42.000Z</time>
      </trkpt>
      <trkpt lat="44.63891" lon="6.6497">
        <ele>1421.93</ele>
        <time>2012-06-10T07:55:44.000Z</time>
      </trkpt>
      <trkpt lat="44.63905" lon="6.6499">
        <ele>1420</ele>
        <time>2012-06-10T07:55:47.000Z</time>
      </trkpt>
      <trkpt lat="44.63917" lon="6.65013">
        <ele>1416.64</ele>
        <time>2012-06-10T07:55:50.000Z</time>
      </trkpt>
      <trkpt lat="44.63925" lon="6.65022">
        <ele>1413.76</ele>
        <time>2012-06-10T07:55:52.000Z</time>
      </trkpt>
      <trkpt lat="44.63938" lon="6.6502">
        <ele>1412.79</ele>
        <time>2012-06-10T07:55:55.000Z</time>
      </trkpt>
      <trkpt lat="44.63951" lon="6.64988">
        <ele>1411.35</ele>
        <time>2012-06-10T07:56:00.000Z</time>
      </trkpt>
      <trkpt lat="44.63953" lon="6.64973">
        <ele>1410.39</ele>
        <time>2012-06-10T07:56:02.000Z</time>
      </trkpt>
      <trkpt lat="44.63953" lon="6.64961">
        <ele>1408.95</ele>
        <time>2012-06-10T07:56:04.000Z</time>
      </trkpt>
      <trkpt lat="44.63951" lon="6.6491">
        <ele>1405.58</ele>
        <time>2012-06-10T07:56:13.000Z</time>
      </trkpt>
      <trkpt lat="44.63955" lon="6.64896">
        <ele>1404.62</ele>
        <time>2012-06-10T07:56:16.000Z</time>
      </trkpt>
      <trkpt lat="44.63961" lon="6.64891">
        <ele>1404.62</ele>
        <time>2012-06-10T07:56:18.000Z</time>
      </trkpt>
      <trkpt lat="44.63964" lon="6.64889">
        <ele>1403.66</ele>
        <time>2012-06-10T07:56:19.000Z</time>
      </trkpt>
      <trkpt lat="44.63981" lon="6.64879">
        <ele>1400.3</ele>
        <time>2012-06-10T07:56:24.000Z</time>
      </trkpt>
      <trkpt lat="44.63987" lon="6.64877">
        <ele>1399.34</ele>
        <time>2012-06-10T07:56:26.000Z</time>
      </trkpt>
      <trkpt lat="44.63989" lon="6.64871">
        <ele>1397.41</ele>
        <time>2012-06-10T07:56:28.000Z</time>
      </trkpt>
      <trkpt lat="44.63995" lon="6.64847">
        <ele>1395.01</ele>
        <time>2012-06-10T07:56:32.000Z</time>
      </trkpt>
      <trkpt lat="44.64007" lon="6.64836">
        <ele>1390.2</ele>
        <time>2012-06-10T07:56:36.000Z</time>
      </trkpt>
      <trkpt lat="44.64014" lon="6.64837">
        <ele>1387.32</ele>
        <time>2012-06-10T07:56:38.000Z</time>
      </trkpt>
      <trkpt lat="44.64018" lon="6.64834">
        <ele>1383.96</ele>
        <time>2012-06-10T07:56:41.000Z</time>
      </trkpt>
      <trkpt lat="44.64018" lon="6.6483">
        <ele>1382.51</ele>
        <time>2012-06-10T07:56:42.000Z</time>
      </trkpt>
      <trkpt lat="44.64017" lon="6.64816">
        <ele>1382.03</ele>
        <time>2012-06-10T07:56:45.000Z</time>
      </trkpt>
      <trkpt lat="44.64032" lon="6.64785">
        <ele>1379.15</ele>
        <time>2012-06-10T07:56:51.000Z</time>
      </trkpt>
      <trkpt lat="44.64035" lon="6.6478">
        <ele>1377.71</ele>
        <time>2012-06-10T07:56:52.000Z</time>
      </trkpt>
      <trkpt lat="44.6404" lon="6.64777">
        <ele>1376.26</ele>
        <time>2012-06-10T07:56:54.000Z</time>
      </trkpt>
      <trkpt lat="44.6405" lon="6.64791">
        <ele>1372.42</ele>
        <time>2012-06-10T07:56:57.000Z</time>
      </trkpt>
      <trkpt lat="44.64057" lon="6.64802">
        <ele>1368.09</ele>
        <time>2012-06-10T07:56:59.000Z</time>
      </trkpt>
      <trkpt lat="44.64068" lon="6.64806">
        <ele>1365.69</ele>
        <time>2012-06-10T07:57:02.000Z</time>
      </trkpt>
      <trkpt lat="44.64082" lon="6.6481">
        <ele>1364.73</ele>
        <time>2012-06-10T07:57:07.000Z</time>
      </trkpt>
      <trkpt lat="44.64093" lon="6.64823">
        <ele>1363.29</ele>
        <time>2012-06-10T07:57:10.000Z</time>
      </trkpt>
      <trkpt lat="44.64101" lon="6.64841">
        <ele>1361.36</ele>
        <time>2012-06-10T07:57:15.000Z</time>
      </trkpt>
      <trkpt lat="44.64112" lon="6.64839">
        <ele>1358.96</ele>
        <time>2012-06-10T07:57:18.000Z</time>
      </trkpt>
      <trkpt lat="44.64133" lon="6.6485">
        <ele>1356.08</ele>
        <time>2012-06-10T07:57:23.000Z</time>
      </trkpt>
      <trkpt lat="44.64137" lon="6.64853">
        <ele>1355.6</ele>
        <time>2012-06-10T07:57:24.000Z</time>
      </trkpt>
      <trkpt lat="44.64144" lon="6.64856">
        <ele>1354.63</ele>
        <time>2012-06-10T07:57:26.000Z</time>
      </trkpt>
      <trkpt lat="44.64148" lon="6.64857">
        <ele>1353.67</ele>
        <time>2012-06-10T07:57:27.000Z</time>
      </trkpt>
      <trkpt lat="44.64169" lon="6.64859">
        <ele>1351.27</ele>
        <time>2012-06-10T07:57:33.000Z</time>
      </trkpt>
      <trkpt lat="44.64178" lon="6.64858">
        <ele>1349.83</ele>
        <time>2012-06-10T07:57:36.000Z</time>
      </trkpt>
      <trkpt lat="44.64191" lon="6.64863">
        <ele>1348.87</ele>
        <time>2012-06-10T07:57:41.000Z</time>
      </trkpt>
      <trkpt lat="44.64201" lon="6.64867">
        <ele>1347.91</ele>
        <time>2012-06-10T07:57:43.000Z</time>
      </trkpt>
      <trkpt lat="44.64212" lon="6.64867">
        <ele>1346.46</ele>
        <time>2012-06-10T07:57:45.000Z</time>
      </trkpt>
      <trkpt lat="44.64219" lon="6.64863">
        <ele>1345.5</ele>
        <time>2012-06-10T07:57:46.000Z</time>
      </trkpt>
      <trkpt lat="44.64225" lon="6.64841">
        <ele>1345.02</ele>
        <time>2012-06-10T07:57:50.000Z</time>
      </trkpt>
      <trkpt lat="44.64245" lon="6.64821">
        <ele>1343.58</ele>
        <time>2012-06-10T07:57:58.000Z</time>
      </trkpt>
      <trkpt lat="44.64248" lon="6.64821">
        <ele>1343.1</ele>
        <time>2012-06-10T07:57:59.000Z</time>
      </trkpt>
      <trkpt lat="44.64256" lon="6.64817">
        <ele>1342.62</ele>
        <time>2012-06-10T07:58:02.000Z</time>
      </trkpt>
      <trkpt lat="44.6427" lon="6.64806">
        <ele>1342.62</ele>
        <time>2012-06-10T07:58:05.000Z</time>
      </trkpt>
      <trkpt lat="44.64275" lon="6.64801">
        <ele>1342.62</ele>
        <time>2012-06-10T07:58:06.000Z</time>
      </trkpt>
      <trkpt lat="44.64292" lon="6.64788">
        <ele>1341.66</ele>
        <time>2012-06-10T07:58:09.000Z</time>
      </trkpt>
      <trkpt lat="44.64297" lon="6.64789">
        <ele>1340.7</ele>
        <time>2012-06-10T07:58:10.000Z</time>
      </trkpt>
      <trkpt lat="44.64307" lon="6.64788">
        <ele>1340.22</ele>
        <time>2012-06-10T07:58:12.000Z</time>
      </trkpt>
      <trkpt lat="44.6433" lon="6.64769">
        <ele>1339.25</ele>
        <time>2012-06-10T07:58:18.000Z</time>
      </trkpt>
      <trkpt lat="44.64336" lon="6.64748">
        <ele>1335.41</ele>
        <time>2012-06-10T07:58:22.000Z</time>
      </trkpt>
      <trkpt lat="44.64345" lon="6.64743">
        <ele>1332.52</ele>
        <time>2012-06-10T07:58:26.000Z</time>
      </trkpt>
      <trkpt lat="44.6435" lon="6.64737">
        <ele>1330.6</ele>
        <time>2012-06-10T07:58:29.000Z</time>
      </trkpt>
      <trkpt lat="44.64363" lon="6.64728">
        <ele>1327.24</ele>
        <time>2012-06-10T07:58:32.000Z</time>
      </trkpt>
      <trkpt lat="44.64372" lon="6.64703">
        <ele>1324.83</ele>
        <time>2012-06-10T07:58:38.000Z</time>
      </trkpt>
      <trkpt lat="44.64384" lon="6.64695">
        <ele>1321.47</ele>
        <time>2012-06-10T07:58:42.000Z</time>
      </trkpt>
      <trkpt lat="44.64388" lon="6.64689">
        <ele>1320.51</ele>
        <time>2012-06-10T07:58:43.000Z</time>
      </trkpt>
      <trkpt lat="44.64393" lon="6.64661">
        <ele>1318.59</ele>
        <time>2012-06-10T07:58:47.000Z</time>
      </trkpt>
      <trkpt lat="44.64404" lon="6.64624">
        <ele>1314.26</ele>
        <time>2012-06-10T07:58:52.000Z</time>
      </trkpt>
      <trkpt lat="44.64407" lon="6.64617">
        <ele>1313.78</ele>
        <time>2012-06-10T07:58:53.000Z</time>
      </trkpt>
      <trkpt lat="44.64423" lon="6.64603">
        <ele>1312.34</ele>
        <time>2012-06-10T07:58:56.000Z</time>
      </trkpt>
      <trkpt lat="44.64446" lon="6.64617">
        <ele>1308.01</ele>
        <time>2012-06-10T07:59:01.000Z</time>
      </trkpt>
      <trkpt lat="44.64453" lon="6.64628">
        <ele>1305.13</ele>
        <time>2012-06-10T07:59:03.000Z</time>
      </trkpt>
      <trkpt lat="44.64474" lon="6.64645">
        <ele>1300.8</ele>
        <time>2012-06-10T07:59:08.000Z</time>
      </trkpt>
      <trkpt lat="44.64499" lon="6.64652">
        <ele>1297.44</ele>
        <time>2012-06-10T07:59:12.000Z</time>
      </trkpt>
      <trkpt lat="44.6452" lon="6.64656">
        <ele>1292.63</ele>
        <time>2012-06-10T07:59:15.000Z</time>
      </trkpt>
      <trkpt lat="44.64525" lon="6.64657">
        <ele>1292.63</ele>
        <time>2012-06-10T07:59:16.000Z</time>
      </trkpt>
      <trkpt lat="44.64539" lon="6.64656">
        <ele>1290.23</ele>
        <time>2012-06-10T07:59:18.000Z</time>
      </trkpt>
      <trkpt lat="44.64556" lon="6.64654">
        <ele>1285.42</ele>
        <time>2012-06-10T07:59:20.000Z</time>
      </trkpt>
      <trkpt lat="44.64577" lon="6.64645">
        <ele>1282.54</ele>
        <time>2012-06-10T07:59:24.000Z</time>
      </trkpt>
      <trkpt lat="44.64578" lon="6.64643">
        <ele>1282.54</ele>
        <time>2012-06-10T07:59:26.000Z</time>
      </trkpt>
      <trkpt lat="44.64568" lon="6.6465">
        <ele>1281.57</ele>
        <time>2012-06-10T07:59:30.000Z</time>
      </trkpt>
      <trkpt lat="44.64536" lon="6.64672">
        <ele>1278.21</ele>
        <time>2012-06-10T07:59:37.000Z</time>
      </trkpt>
      <trkpt lat="44.64519" lon="6.64678">
        <ele>1277.25</ele>
        <time>2012-06-10T07:59:40.000Z</time>
      </trkpt>
      <trkpt lat="44.64515" lon="6.64678">
        <ele>1276.29</ele>
        <time>2012-06-10T07:59:41.000Z</time>
      </trkpt>
      <trkpt lat="44.64507" lon="6.64683">
        <ele>1274.85</ele>
        <time>2012-06-10T07:59:43.000Z</time>
      </trkpt>
      <trkpt lat="44.64496" lon="6.64692">
        <ele>1274.36</ele>
        <time>2012-06-10T07:59:51.000Z</time>
      </trkpt>
      <trkpt lat="44.64487" lon="6.64698">
        <ele>1274.36</ele>
        <time>2012-06-10T07:59:58.000Z</time>
      </trkpt>
      <trkpt lat="44.64481" lon="6.64697">
        <ele>1274.36</ele>
        <time>2012-06-10T08:00:02.000Z</time>
      </trkpt>
      <trkpt lat="44.64466" lon="6.64704">
        <ele>1272.92</ele>
        <time>2012-06-10T08:00:12.000Z</time>
      </trkpt>
      <trkpt lat="44.64461" lon="6.64705">
        <ele>1272.44</ele>
        <time>2012-06-10T08:00:15.000Z</time>
      </trkpt>
      <trkpt lat="44.64453" lon="6.64701">
        <ele>1271.96</ele>
        <time>2012-06-10T08:00:20.000Z</time>
      </trkpt>
      <trkpt lat="44.64444" lon="6.64692">
        <ele>1271</ele>
        <time>2012-06-10T08:00:26.000Z</time>
      </trkpt>
      <trkpt lat="44.64446" lon="6.64713">
        <ele>1268.6</ele>
        <time>2012-06-10T08:00:33.000Z</time>
      </trkpt>
      <trkpt lat="44.64447" lon="6.64749">
        <ele>1268.12</ele>
        <time>2012-06-10T08:00:40.000Z</time>
      </trkpt>
      <trkpt lat="44.64417" lon="6.64754">
        <ele>1267.16</ele>
        <time>2012-06-10T08:00:49.000Z</time>
      </trkpt>
      <trkpt lat="44.6441" lon="6.64752">
        <ele>1266.67</ele>
        <time>2012-06-10T08:00:52.000Z</time>
      </trkpt>
      <trkpt lat="44.64407" lon="6.64783">
        <ele>1263.79</ele>
        <time>2012-06-10T08:00:59.000Z</time>
      </trkpt>
      <trkpt lat="44.64401" lon="6.64788">
        <ele>1262.83</ele>
        <time>2012-06-10T08:01:01.000Z</time>
      </trkpt>
      <trkpt lat="44.64398" lon="6.64791">
        <ele>1262.83</ele>
        <time>2012-06-10T08:01:02.000Z</time>
      </trkpt>
      <trkpt lat="44.64396" lon="6.64807">
        <ele>1261.87</ele>
        <time>2012-06-10T08:01:05.000Z</time>
      </trkpt>
      <trkpt lat="44.64391" lon="6.64814">
        <ele>1260.91</ele>
        <time>2012-06-10T08:01:07.000Z</time>
      </trkpt>
      <trkpt lat="44.64381" lon="6.64821">
        <ele>1260.43</ele>
        <time>2012-06-10T08:01:10.000Z</time>
      </trkpt>
      <trkpt lat="44.64366" lon="6.64827">
        <ele>1259.94</ele>
        <time>2012-06-10T08:01:14.000Z</time>
      </trkpt>
      <trkpt lat="44.6436" lon="6.64842">
        <ele>1259.46</ele>
        <time>2012-06-10T08:01:18.000Z</time>
      </trkpt>
      <trkpt lat="44.64349" lon="6.64854">
        <ele>1259.46</ele>
        <time>2012-06-10T08:01:21.000Z</time>
      </trkpt>
      <trkpt lat="44.64325" lon="6.64876">
        <ele>1258.02</ele>
        <time>2012-06-10T08:01:27.000Z</time>
      </trkpt>
      <trkpt lat="44.64311" lon="6.64882">
        <ele>1258.02</ele>
        <time>2012-06-10T08:01:30.000Z</time>
      </trkpt>
      <trkpt lat="44.64304" lon="6.64887">
        <ele>1257.54</ele>
        <time>2012-06-10T08:01:32.000Z</time>
      </trkpt>
      <trkpt lat="44.643" lon="6.64901">
        <ele>1257.06</ele>
        <time>2012-06-10T08:01:35.000Z</time>
      </trkpt>
      <trkpt lat="44.64286" lon="6.64921">
        <ele>1255.14</ele>
        <time>2012-06-10T08:01:40.000Z</time>
      </trkpt>
      <trkpt lat="44.64275" lon="6.64929">
        <ele>1253.7</ele>
        <time>2012-06-10T08:01:42.000Z</time>
      </trkpt>
      <trkpt lat="44.6427" lon="6.64932">
        <ele>1253.7</ele>
        <time>2012-06-10T08:01:43.000Z</time>
      </trkpt>
      <trkpt lat="44.64248" lon="6.64949">
        <ele>1250.33</ele>
        <time>2012-06-10T08:01:48.000Z</time>
      </trkpt>
      <trkpt lat="44.64243" lon="6.64953">
        <ele>1250.33</ele>
        <time>2012-06-10T08:01:49.000Z</time>
      </trkpt>
      <trkpt lat="44.64235" lon="6.6496">
        <ele>1248.41</ele>
        <time>2012-06-10T08:01:51.000Z</time>
      </trkpt>
      <trkpt lat="44.64216" lon="6.64966">
        <ele>1246.49</ele>
        <time>2012-06-10T08:01:55.000Z</time>
      </trkpt>
      <trkpt lat="44.64208" lon="6.6497">
        <ele>1244.56</ele>
        <time>2012-06-10T08:01:57.000Z</time>
      </trkpt>
      <trkpt lat="44.64206" lon="6.64986">
        <ele>1242.16</ele>
        <time>2012-06-10T08:02:00.000Z</time>
      </trkpt>
      <trkpt lat="44.64203" lon="6.64995">
        <ele>1241.68</ele>
        <time>2012-06-10T08:02:02.000Z</time>
      </trkpt>
      <trkpt lat="44.64186" lon="6.65018">
        <ele>1237.83</ele>
        <time>2012-06-10T08:02:08.000Z</time>
      </trkpt>
      <trkpt lat="44.64185" lon="6.6503">
        <ele>1236.39</ele>
        <time>2012-06-10T08:02:10.000Z</time>
      </trkpt>
      <trkpt lat="44.64186" lon="6.65036">
        <ele>1233.51</ele>
        <time>2012-06-10T08:02:12.000Z</time>
      </trkpt>
      <trkpt lat="44.64188" lon="6.65039">
        <ele>1232.55</ele>
        <time>2012-06-10T08:02:13.000Z</time>
      </trkpt>
      <trkpt lat="44.6419" lon="6.65044">
        <ele>1231.11</ele>
        <time>2012-06-10T08:02:16.000Z</time>
      </trkpt>
      <trkpt lat="44.6419" lon="6.65053">
        <ele>1228.7</ele>
        <time>2012-06-10T08:02:19.000Z</time>
      </trkpt>
      <trkpt lat="44.64194" lon="6.65047">
        <ele>1226.3</ele>
        <time>2012-06-10T08:02:22.000Z</time>
      </trkpt>
      <trkpt lat="44.64195" lon="6.65043">
        <ele>1225.34</ele>
        <time>2012-06-10T08:02:23.000Z</time>
      </trkpt>
      <trkpt lat="44.64214" lon="6.6503">
        <ele>1224.38</ele>
        <time>2012-06-10T08:02:27.000Z</time>
      </trkpt>
      <trkpt lat="44.64234" lon="6.65007">
        <ele>1219.57</ele>
        <time>2012-06-10T08:02:31.000Z</time>
      </trkpt>
      <trkpt lat="44.64256" lon="6.64996">
        <ele>1217.65</ele>
        <time>2012-06-10T08:02:35.000Z</time>
      </trkpt>
      <trkpt lat="44.64261" lon="6.64994">
        <ele>1217.17</ele>
        <time>2012-06-10T08:02:36.000Z</time>
      </trkpt>
      <trkpt lat="44.64269" lon="6.6499">
        <ele>1215.72</ele>
        <time>2012-06-10T08:02:38.000Z</time>
      </trkpt>
      <trkpt lat="44.64273" lon="6.64989">
        <ele>1216.21</ele>
        <time>2012-06-10T08:02:39.000Z</time>
      </trkpt>
      <trkpt lat="44.64283" lon="6.6499">
        <ele>1214.28</ele>
        <time>2012-06-10T08:02:41.000Z</time>
      </trkpt>
      <trkpt lat="44.64289" lon="6.64993">
        <ele>1214.76</ele>
        <time>2012-06-10T08:02:42.000Z</time>
      </trkpt>
      <trkpt lat="44.64301" lon="6.64999">
        <ele>1212.84</ele>
        <time>2012-06-10T08:02:44.000Z</time>
      </trkpt>
      <trkpt lat="44.64305" lon="6.64999">
        <ele>1211.4</ele>
        <time>2012-06-10T08:02:45.000Z</time>
      </trkpt>
      <trkpt lat="44.64308" lon="6.64994">
        <ele>1211.4</ele>
        <time>2012-06-10T08:02:46.000Z</time>
      </trkpt>
      <trkpt lat="44.64318" lon="6.64974">
        <ele>1209.48</ele>
        <time>2012-06-10T08:02:49.000Z</time>
      </trkpt>
      <trkpt lat="44.64323" lon="6.64972">
        <ele>1209</ele>
        <time>2012-06-10T08:02:50.000Z</time>
      </trkpt>
      <trkpt lat="44.64329" lon="6.64973">
        <ele>1208.51</ele>
        <time>2012-06-10T08:02:51.000Z</time>
      </trkpt>
      <trkpt lat="44.64334" lon="6.64974">
        <ele>1207.07</ele>
        <time>2012-06-10T08:02:52.000Z</time>
      </trkpt>
      <trkpt lat="44.64344" lon="6.64974">
        <ele>1205.63</ele>
        <time>2012-06-10T08:02:54.000Z</time>
      </trkpt>
      <trkpt lat="44.64351" lon="6.6497">
        <ele>1202.75</ele>
        <time>2012-06-10T08:02:56.000Z</time>
      </trkpt>
      <trkpt lat="44.64359" lon="6.64964">
        <ele>1202.27</ele>
        <time>2012-06-10T08:02:57.000Z</time>
      </trkpt>
      <trkpt lat="44.64367" lon="6.64962">
        <ele>1200.34</ele>
        <time>2012-06-10T08:02:58.000Z</time>
      </trkpt>
      <trkpt lat="44.64383" lon="6.64965">
        <ele>1196.98</ele>
        <time>2012-06-10T08:03:00.000Z</time>
      </trkpt>
      <trkpt lat="44.64389" lon="6.64966">
        <ele>1196.98</ele>
        <time>2012-06-10T08:03:01.000Z</time>
      </trkpt>
      <trkpt lat="44.64397" lon="6.64965">
        <ele>1193.61</ele>
        <time>2012-06-10T08:03:04.000Z</time>
      </trkpt>
      <trkpt lat="44.64395" lon="6.64969">
        <ele>1193.61</ele>
        <time>2012-06-10T08:03:06.000Z</time>
      </trkpt>
      <trkpt lat="44.64389" lon="6.64974">
        <ele>1191.21</ele>
        <time>2012-06-10T08:03:08.000Z</time>
      </trkpt>
      <trkpt lat="44.64385" lon="6.64979">
        <ele>1189.29</ele>
        <time>2012-06-10T08:03:09.000Z</time>
      </trkpt>
      <trkpt lat="44.64381" lon="6.64984">
        <ele>1188.81</ele>
        <time>2012-06-10T08:03:10.000Z</time>
      </trkpt>
      <trkpt lat="44.64376" lon="6.64989">
        <ele>1187.85</ele>
        <time>2012-06-10T08:03:11.000Z</time>
      </trkpt>
      <trkpt lat="44.64373" lon="6.64994">
        <ele>1187.37</ele>
        <time>2012-06-10T08:03:12.000Z</time>
      </trkpt>
      <trkpt lat="44.6437" lon="6.65">
        <ele>1186.4</ele>
        <time>2012-06-10T08:03:13.000Z</time>
      </trkpt>
      <trkpt lat="44.64357" lon="6.65017">
        <ele>1182.56</ele>
        <time>2012-06-10T08:03:17.000Z</time>
      </trkpt>
      <trkpt lat="44.64354" lon="6.6502">
        <ele>1181.6</ele>
        <time>2012-06-10T08:03:18.000Z</time>
      </trkpt>
      <trkpt lat="44.64352" lon="6.65024">
        <ele>1180.16</ele>
        <time>2012-06-10T08:03:19.000Z</time>
      </trkpt>
      <trkpt lat="44.64352" lon="6.65028">
        <ele>1178.71</ele>
        <time>2012-06-10T08:03:20.000Z</time>
      </trkpt>
      <trkpt lat="44.6435" lon="6.65032">
        <ele>1176.79</ele>
        <time>2012-06-10T08:03:21.000Z</time>
      </trkpt>
      <trkpt lat="44.64347" lon="6.65037">
        <ele>1174.87</ele>
        <time>2012-06-10T08:03:22.000Z</time>
      </trkpt>
      <trkpt lat="44.64344" lon="6.65047">
        <ele>1171.98</ele>
        <time>2012-06-10T08:03:24.000Z</time>
      </trkpt>
      <trkpt lat="44.64341" lon="6.65053">
        <ele>1171.98</ele>
        <time>2012-06-10T08:03:25.000Z</time>
      </trkpt>
      <trkpt lat="44.64338" lon="6.65059">
        <ele>1170.06</ele>
        <time>2012-06-10T08:03:26.000Z</time>
      </trkpt>
      <trkpt lat="44.64334" lon="6.65063">
        <ele>1170.06</ele>
        <time>2012-06-10T08:03:27.000Z</time>
      </trkpt>
      <trkpt lat="44.64328" lon="6.65066">
        <ele>1169.1</ele>
        <time>2012-06-10T08:03:28.000Z</time>
      </trkpt>
      <trkpt lat="44.64312" lon="6.6507">
        <ele>1166.7</ele>
        <time>2012-06-10T08:03:31.000Z</time>
      </trkpt>
      <trkpt lat="44.64306" lon="6.65075">
        <ele>1165.26</ele>
        <time>2012-06-10T08:03:32.000Z</time>
      </trkpt>
      <trkpt lat="44.64301" lon="6.6508">
        <ele>1161.89</ele>
        <time>2012-06-10T08:03:33.000Z</time>
      </trkpt>
      <trkpt lat="44.64296" lon="6.65085">
        <ele>1161.89</ele>
        <time>2012-06-10T08:03:34.000Z</time>
      </trkpt>
      <trkpt lat="44.64293" lon="6.65091">
        <ele>1160.93</ele>
        <time>2012-06-10T08:03:35.000Z</time>
      </trkpt>
      <trkpt lat="44.64287" lon="6.65104">
        <ele>1156.6</ele>
        <time>2012-06-10T08:03:37.000Z</time>
      </trkpt>
      <trkpt lat="44.64284" lon="6.65109">
        <ele>1155.64</ele>
        <time>2012-06-10T08:03:38.000Z</time>
      </trkpt>
      <trkpt lat="44.64281" lon="6.65112">
        <ele>1156.12</ele>
        <time>2012-06-10T08:03:39.000Z</time>
      </trkpt>
      <trkpt lat="44.64278" lon="6.65115">
        <ele>1155.64</ele>
        <time>2012-06-10T08:03:40.000Z</time>
      </trkpt>
      <trkpt lat="44.64275" lon="6.65117">
        <ele>1156.12</ele>
        <time>2012-06-10T08:03:41.000Z</time>
      </trkpt>
      <trkpt lat="44.64273" lon="6.65123">
        <ele>1155.64</ele>
        <time>2012-06-10T08:03:42.000Z</time>
      </trkpt>
      <trkpt lat="44.64271" lon="6.65129">
        <ele>1156.12</ele>
        <time>2012-06-10T08:03:43.000Z</time>
      </trkpt>
      <trkpt lat="44.64269" lon="6.65142">
        <ele>1156.12</ele>
        <time>2012-06-10T08:03:45.000Z</time>
      </trkpt>
      <trkpt lat="44.64268" lon="6.65148">
        <ele>1156.12</ele>
        <time>2012-06-10T08:03:46.000Z</time>
      </trkpt>
      <trkpt lat="44.64267" lon="6.65162">
        <ele>1156.6</ele>
        <time>2012-06-10T08:03:48.000Z</time>
      </trkpt>
      <trkpt lat="44.64265" lon="6.65167">
        <ele>1156.6</ele>
        <time>2012-06-10T08:03:49.000Z</time>
      </trkpt>
      <trkpt lat="44.64263" lon="6.65169">
        <ele>1156.6</ele>
        <time>2012-06-10T08:03:50.000Z</time>
      </trkpt>
      <trkpt lat="44.64253" lon="6.65181">
        <ele>1156.12</ele>
        <time>2012-06-10T08:03:53.000Z</time>
      </trkpt>
      <trkpt lat="44.64245" lon="6.65179">
        <ele>1155.16</ele>
        <time>2012-06-10T08:03:56.000Z</time>
      </trkpt>
      <trkpt lat="44.64244" lon="6.65178">
        <ele>1155.64</ele>
        <time>2012-06-10T08:03:58.000Z</time>
      </trkpt>
      <trkpt lat="44.64246" lon="6.65188">
        <ele>1156.12</ele>
        <time>2012-06-10T08:04:01.000Z</time>
      </trkpt>
      <trkpt lat="44.64231" lon="6.6521">
        <ele>1157.08</ele>
        <time>2012-06-10T08:04:07.000Z</time>
      </trkpt>
      <trkpt lat="44.64228" lon="6.65214">
        <ele>1156.6</ele>
        <time>2012-06-10T08:04:08.000Z</time>
      </trkpt>
      <trkpt lat="44.64225" lon="6.65216">
        <ele>1156.6</ele>
        <time>2012-06-10T08:04:09.000Z</time>
      </trkpt>
      <trkpt lat="44.64221" lon="6.65217">
        <ele>1156.6</ele>
        <time>2012-06-10T08:04:10.000Z</time>
      </trkpt>
      <trkpt lat="44.64218" lon="6.6522">
        <ele>1156.6</ele>
        <time>2012-06-10T08:04:11.000Z</time>
      </trkpt>
      <trkpt lat="44.64214" lon="6.65223">
        <ele>1156.6</ele>
        <time>2012-06-10T08:04:12.000Z</time>
      </trkpt>
      <trkpt lat="44.64212" lon="6.65226">
        <ele>1156.12</ele>
        <time>2012-06-10T08:04:13.000Z</time>
      </trkpt>
      <trkpt lat="44.64209" lon="6.65231">
        <ele>1156.12</ele>
        <time>2012-06-10T08:04:15.000Z</time>
      </trkpt>
      <trkpt lat="44.6421" lon="6.65238">
        <ele>1156.12</ele>
        <time>2012-06-10T08:04:16.000Z</time>
      </trkpt>
      <trkpt lat="44.64211" lon="6.65253">
        <ele>1155.64</ele>
        <time>2012-06-10T08:04:18.000Z</time>
      </trkpt>
      <trkpt lat="44.64209" lon="6.65257">
        <ele>1156.6</ele>
        <time>2012-06-10T08:04:19.000Z</time>
      </trkpt>
      <trkpt lat="44.64209" lon="6.65263">
        <ele>1157.56</ele>
        <time>2012-06-10T08:04:20.000Z</time>
      </trkpt>
      <trkpt lat="44.64208" lon="6.65268">
        <ele>1158.53</ele>
        <time>2012-06-10T08:04:21.000Z</time>
      </trkpt>
      <trkpt lat="44.64207" lon="6.6527">
        <ele>1158.53</ele>
        <time>2012-06-10T08:04:22.000Z</time>
      </trkpt>
      <trkpt lat="44.64208" lon="6.65273">
        <ele>1159.01</ele>
        <time>2012-06-10T08:04:23.000Z</time>
      </trkpt>
      <trkpt lat="44.64209" lon="6.65276">
        <ele>1159.01</ele>
        <time>2012-06-10T08:04:24.000Z</time>
      </trkpt>
      <trkpt lat="44.64215" lon="6.65299">
        <ele>1159.01</ele>
        <time>2012-06-10T08:04:30.000Z</time>
      </trkpt>
      <trkpt lat="44.64214" lon="6.65302">
        <ele>1159.49</ele>
        <time>2012-06-10T08:04:31.000Z</time>
      </trkpt>
      <trkpt lat="44.64209" lon="6.6531">
        <ele>1159.49</ele>
        <time>2012-06-10T08:04:34.000Z</time>
      </trkpt>
      <trkpt lat="44.64207" lon="6.65312">
        <ele>1159.97</ele>
        <time>2012-06-10T08:04:35.000Z</time>
      </trkpt>
      <trkpt lat="44.64204" lon="6.65314">
        <ele>1159.97</ele>
        <time>2012-06-10T08:04:36.000Z</time>
      </trkpt>
      <trkpt lat="44.64202" lon="6.65316">
        <ele>1159.97</ele>
        <time>2012-06-10T08:04:37.000Z</time>
      </trkpt>
      <trkpt lat="44.642" lon="6.65317">
        <ele>1159.97</ele>
        <time>2012-06-10T08:04:38.000Z</time>
      </trkpt>
      <trkpt lat="44.6417" lon="6.65327">
        <ele>1160.45</ele>
        <time>2012-06-10T08:04:47.000Z</time>
      </trkpt>
      <trkpt lat="44.64164" lon="6.65333">
        <ele>1160.45</ele>
        <time>2012-06-10T08:04:49.000Z</time>
      </trkpt>
      <trkpt lat="44.6416" lon="6.65337">
        <ele>1160.45</ele>
        <time>2012-06-10T08:04:50.000Z</time>
      </trkpt>
      <trkpt lat="44.64158" lon="6.6534">
        <ele>1160.93</ele>
        <time>2012-06-10T08:04:51.000Z</time>
      </trkpt>
      <trkpt lat="44.64154" lon="6.65346">
        <ele>1160.45</ele>
        <time>2012-06-10T08:04:55.000Z</time>
      </trkpt>
      <trkpt lat="44.64151" lon="6.65351">
        <ele>1160.45</ele>
        <time>2012-06-10T08:04:56.000Z</time>
      </trkpt>
      <trkpt lat="44.64149" lon="6.65355">
        <ele>1160.45</ele>
        <time>2012-06-10T08:04:57.000Z</time>
      </trkpt>
      <trkpt lat="44.64135" lon="6.65386">
        <ele>1160.93</ele>
        <time>2012-06-10T08:05:06.000Z</time>
      </trkpt>
      <trkpt lat="44.64131" lon="6.65388">
        <ele>1160.93</ele>
        <time>2012-06-10T08:05:07.000Z</time>
      </trkpt>
      <trkpt lat="44.64127" lon="6.65391">
        <ele>1160.93</ele>
        <time>2012-06-10T08:05:08.000Z</time>
      </trkpt>
      <trkpt lat="44.64117" lon="6.65404">
        <ele>1161.41</ele>
        <time>2012-06-10T08:05:13.000Z</time>
      </trkpt>
      <trkpt lat="44.64119" lon="6.65412">
        <ele>1159.49</ele>
        <time>2012-06-10T08:05:15.000Z</time>
      </trkpt>
      <trkpt lat="44.64118" lon="6.65421">
        <ele>1159.01</ele>
        <time>2012-06-10T08:05:17.000Z</time>
      </trkpt>
      <trkpt lat="44.6411" lon="6.65451">
        <ele>1159.97</ele>
        <time>2012-06-10T08:05:24.000Z</time>
      </trkpt>
      <trkpt lat="44.64106" lon="6.65474">
        <ele>1159.01</ele>
        <time>2012-06-10T08:05:29.000Z</time>
      </trkpt>
      <trkpt lat="44.64106" lon="6.6548">
        <ele>1158.53</ele>
        <time>2012-06-10T08:05:30.000Z</time>
      </trkpt>
      <trkpt lat="44.64104" lon="6.65484">
        <ele>1159.01</ele>
        <time>2012-06-10T08:05:31.000Z</time>
      </trkpt>
      <trkpt lat="44.64103" lon="6.65486">
        <ele>1159.01</ele>
        <time>2012-06-10T08:05:32.000Z</time>
      </trkpt>
      <trkpt lat="44.64098" lon="6.65487">
        <ele>1159.97</ele>
        <time>2012-06-10T08:05:35.000Z</time>
      </trkpt>
      <trkpt lat="44.64091" lon="6.65495">
        <ele>1162.85</ele>
        <time>2012-06-10T08:05:47.000Z</time>
      </trkpt>
      <trkpt lat="44.64087" lon="6.655">
        <ele>1163.33</ele>
        <time>2012-06-10T08:05:50.000Z</time>
      </trkpt>
      <trkpt lat="44.6408" lon="6.65513">
        <ele>1163.81</ele>
        <time>2012-06-10T08:05:54.000Z</time>
      </trkpt>
      <trkpt lat="44.64073" lon="6.65519">
        <ele>1164.29</ele>
        <time>2012-06-10T08:05:58.000Z</time>
      </trkpt>
      <trkpt lat="44.64069" lon="6.65547">
        <ele>1166.7</ele>
        <time>2012-06-10T08:06:07.000Z</time>
      </trkpt>
      <trkpt lat="44.6407" lon="6.6555">
        <ele>1166.7</ele>
        <time>2012-06-10T08:06:08.000Z</time>
      </trkpt>
      <trkpt lat="44.6407" lon="6.65552">
        <ele>1167.18</ele>
        <time>2012-06-10T08:06:09.000Z</time>
      </trkpt>
      <trkpt lat="44.64076" lon="6.65555">
        <ele>1167.18</ele>
        <time>2012-06-10T08:06:12.000Z</time>
      </trkpt>
      <trkpt lat="44.64075" lon="6.65574">
        <ele>1167.18</ele>
        <time>2012-06-10T08:06:18.000Z</time>
      </trkpt>
      <trkpt lat="44.64067" lon="6.65605">
        <ele>1164.77</ele>
        <time>2012-06-10T08:06:25.000Z</time>
      </trkpt>
      <trkpt lat="44.64074" lon="6.65604">
        <ele>1161.41</ele>
        <time>2012-06-10T08:06:29.000Z</time>
      </trkpt>
      <trkpt lat="44.64081" lon="6.65598">
        <ele>1158.05</ele>
        <time>2012-06-10T08:06:32.000Z</time>
      </trkpt>
      <trkpt lat="44.64085" lon="6.65596">
        <ele>1156.6</ele>
        <time>2012-06-10T08:06:34.000Z</time>
      </trkpt>
      <trkpt lat="44.6409" lon="6.65611">
        <ele>1152.76</ele>
        <time>2012-06-10T08:06:40.000Z</time>
      </trkpt>
      <trkpt lat="44.6409" lon="6.65612">
        <ele>1152.28</ele>
        <time>2012-06-10T08:06:41.000Z</time>
      </trkpt>
      <trkpt lat="44.64102" lon="6.65618">
        <ele>1153.24</ele>
        <time>2012-06-10T08:06:46.000Z</time>
      </trkpt>
      <trkpt lat="44.64104" lon="6.65622">
        <ele>1154.68</ele>
        <time>2012-06-10T08:06:47.000Z</time>
      </trkpt>
      <trkpt lat="44.6411" lon="6.65633">
        <ele>1156.12</ele>
        <time>2012-06-10T08:06:50.000Z</time>
      </trkpt>
      <trkpt lat="44.64109" lon="6.65646">
        <ele>1158.05</ele>
        <time>2012-06-10T08:06:54.000Z</time>
      </trkpt>
      <trkpt lat="44.64106" lon="6.65652">
        <ele>1158.53</ele>
        <time>2012-06-10T08:06:58.000Z</time>
      </trkpt>
      <trkpt lat="44.64104" lon="6.65647">
        <ele>1159.97</ele>
        <time>2012-06-10T08:07:01.000Z</time>
      </trkpt>
      <trkpt lat="44.64098" lon="6.65649">
        <ele>1162.37</ele>
        <time>2012-06-10T08:07:07.000Z</time>
      </trkpt>
      <trkpt lat="44.64095" lon="6.65654">
        <ele>1163.33</ele>
        <time>2012-06-10T08:07:11.000Z</time>
      </trkpt>
      <trkpt lat="44.64095" lon="6.65672">
        <ele>1165.74</ele>
        <time>2012-06-10T08:07:22.000Z</time>
      </trkpt>
      <trkpt lat="44.64092" lon="6.6568">
        <ele>1166.22</ele>
        <time>2012-06-10T08:07:25.000Z</time>
      </trkpt>
      <trkpt lat="44.64082" lon="6.65699">
        <ele>1167.66</ele>
        <time>2012-06-10T08:07:31.000Z</time>
      </trkpt>
      <trkpt lat="44.64074" lon="6.65711">
        <ele>1170.06</ele>
        <time>2012-06-10T08:07:39.000Z</time>
      </trkpt>
      <trkpt lat="44.64072" lon="6.65717">
        <ele>1171.5</ele>
        <time>2012-06-10T08:07:44.000Z</time>
      </trkpt>
      <trkpt lat="44.64067" lon="6.65733">
        <ele>1172.95</ele>
        <time>2012-06-10T08:07:56.000Z</time>
      </trkpt>
      <trkpt lat="44.64067" lon="6.65735">
        <ele>1173.43</ele>
        <time>2012-06-10T08:07:57.000Z</time>
      </trkpt>
      <trkpt lat="44.64072" lon="6.6576">
        <ele>1171.02</ele>
        <time>2012-06-10T08:08:04.000Z</time>
      </trkpt>
      <trkpt lat="44.64075" lon="6.65772">
        <ele>1169.58</ele>
        <time>2012-06-10T08:08:08.000Z</time>
      </trkpt>
      <trkpt lat="44.64079" lon="6.65776">
        <ele>1168.14</ele>
        <time>2012-06-10T08:08:11.000Z</time>
      </trkpt>
      <trkpt lat="44.64081" lon="6.65793">
        <ele>1164.29</ele>
        <time>2012-06-10T08:08:16.000Z</time>
      </trkpt>
      <trkpt lat="44.64085" lon="6.65797">
        <ele>1164.29</ele>
        <time>2012-06-10T08:08:17.000Z</time>
      </trkpt>
      <trkpt lat="44.64087" lon="6.65801">
        <ele>1162.37</ele>
        <time>2012-06-10T08:08:18.000Z</time>
      </trkpt>
      <trkpt lat="44.64095" lon="6.658">
        <ele>1159.01</ele>
        <time>2012-06-10T08:08:21.000Z</time>
      </trkpt>
      <trkpt lat="44.64106" lon="6.65811">
        <ele>1154.2</ele>
        <time>2012-06-10T08:08:26.000Z</time>
      </trkpt>
      <trkpt lat="44.64109" lon="6.65818">
        <ele>1151.32</ele>
        <time>2012-06-10T08:08:28.000Z</time>
      </trkpt>
      <trkpt lat="44.6411" lon="6.65822">
        <ele>1149.39</ele>
        <time>2012-06-10T08:08:31.000Z</time>
      </trkpt>
      <trkpt lat="44.6411" lon="6.65822">
        <ele>1148.91</ele>
        <time>2012-06-10T08:08:47.000Z</time>
      </trkpt>
      <trkpt lat="44.64111" lon="6.65821">
        <ele>1149.39</ele>
        <time>2012-06-10T08:08:49.000Z</time>
      </trkpt>
      <trkpt lat="44.64123" lon="6.65825">
        <ele>1146.03</ele>
        <time>2012-06-10T08:08:54.000Z</time>
      </trkpt>
      <trkpt lat="44.64125" lon="6.65824">
        <ele>1146.03</ele>
        <time>2012-06-10T08:08:55.000Z</time>
      </trkpt>
      <trkpt lat="44.64139" lon="6.65814">
        <ele>1149.39</ele>
        <time>2012-06-10T08:09:03.000Z</time>
      </trkpt>
      <trkpt lat="44.64145" lon="6.65814">
        <ele>1150.84</ele>
        <time>2012-06-10T08:09:08.000Z</time>
      </trkpt>
      <trkpt lat="44.64142" lon="6.65825">
        <ele>1154.2</ele>
        <time>2012-06-10T08:09:19.000Z</time>
      </trkpt>
      <trkpt lat="44.64145" lon="6.65826">
        <ele>1155.16</ele>
        <time>2012-06-10T08:09:26.000Z</time>
      </trkpt>
      <trkpt lat="44.64155" lon="6.65825">
        <ele>1156.6</ele>
        <time>2012-06-10T08:09:33.000Z</time>
      </trkpt>
      <trkpt lat="44.64167" lon="6.6582">
        <ele>1159.01</ele>
        <time>2012-06-10T08:09:41.000Z</time>
      </trkpt>
      <trkpt lat="44.64182" lon="6.65801">
        <ele>1161.41</ele>
        <time>2012-06-10T08:09:54.000Z</time>
      </trkpt>
      <trkpt lat="44.64185" lon="6.65799">
        <ele>1162.85</ele>
        <time>2012-06-10T08:09:57.000Z</time>
      </trkpt>
      <trkpt lat="44.64196" lon="6.65794">
        <ele>1165.26</ele>
        <time>2012-06-10T08:10:10.000Z</time>
      </trkpt>
      <trkpt lat="44.642" lon="6.65791">
        <ele>1166.22</ele>
        <time>2012-06-10T08:10:14.000Z</time>
      </trkpt>
      <trkpt lat="44.64208" lon="6.65785">
        <ele>1168.14</ele>
        <time>2012-06-10T08:10:26.000Z</time>
      </trkpt>
      <trkpt lat="44.6421" lon="6.65792">
        <ele>1171.5</ele>
        <time>2012-06-10T08:10:36.000Z</time>
      </trkpt>
      <trkpt lat="44.6421" lon="6.65796">
        <ele>1174.39</ele>
        <time>2012-06-10T08:10:45.000Z</time>
      </trkpt>
      <trkpt lat="44.64213" lon="6.65794">
        <ele>1175.83</ele>
        <time>2012-06-10T08:10:51.000Z</time>
      </trkpt>
      <trkpt lat="44.64222" lon="6.65784">
        <ele>1177.75</ele>
        <time>2012-06-10T08:11:02.000Z</time>
      </trkpt>
      <trkpt lat="44.64223" lon="6.65779">
        <ele>1178.71</ele>
        <time>2012-06-10T08:11:05.000Z</time>
      </trkpt>
      <trkpt lat="44.64216" lon="6.65761">
        <ele>1176.31</ele>
        <time>2012-06-10T08:11:10.000Z</time>
      </trkpt>
      <trkpt lat="44.64212" lon="6.65743">
        <ele>1174.39</ele>
        <time>2012-06-10T08:11:13.000Z</time>
      </trkpt>
      <trkpt lat="44.64211" lon="6.65737">
        <ele>1173.91</ele>
        <time>2012-06-10T08:11:14.000Z</time>
      </trkpt>
      <trkpt lat="44.6421" lon="6.65731">
        <ele>1173.43</ele>
        <time>2012-06-10T08:11:15.000Z</time>
      </trkpt>
      <trkpt lat="44.64208" lon="6.65726">
        <ele>1172.95</ele>
        <time>2012-06-10T08:11:16.000Z</time>
      </trkpt>
      <trkpt lat="44.64207" lon="6.65721">
        <ele>1172.47</ele>
        <time>2012-06-10T08:11:17.000Z</time>
      </trkpt>
      <trkpt lat="44.64208" lon="6.65716">
        <ele>1171.98</ele>
        <time>2012-06-10T08:11:18.000Z</time>
      </trkpt>
      <trkpt lat="44.64209" lon="6.65713">
        <ele>1171.5</ele>
        <time>2012-06-10T08:11:19.000Z</time>
      </trkpt>
      <trkpt lat="44.64211" lon="6.65708">
        <ele>1171.02</ele>
        <time>2012-06-10T08:11:20.000Z</time>
      </trkpt>
      <trkpt lat="44.64216" lon="6.65696">
        <ele>1170.06</ele>
        <time>2012-06-10T08:11:22.000Z</time>
      </trkpt>
      <trkpt lat="44.64219" lon="6.6569">
        <ele>1169.1</ele>
        <time>2012-06-10T08:11:23.000Z</time>
      </trkpt>
      <trkpt lat="44.64221" lon="6.65685">
        <ele>1168.14</ele>
        <time>2012-06-10T08:11:24.000Z</time>
      </trkpt>
      <trkpt lat="44.64229" lon="6.6567">
        <ele>1166.7</ele>
        <time>2012-06-10T08:11:26.000Z</time>
      </trkpt>
      <trkpt lat="44.64233" lon="6.65663">
        <ele>1165.74</ele>
        <time>2012-06-10T08:11:27.000Z</time>
      </trkpt>
      <trkpt lat="44.64235" lon="6.65657">
        <ele>1164.77</ele>
        <time>2012-06-10T08:11:28.000Z</time>
      </trkpt>
      <trkpt lat="44.64236" lon="6.65651">
        <ele>1164.77</ele>
        <time>2012-06-10T08:11:29.000Z</time>
      </trkpt>
      <trkpt lat="44.64236" lon="6.65647">
        <ele>1163.81</ele>
        <time>2012-06-10T08:11:30.000Z</time>
      </trkpt>
      <trkpt lat="44.64237" lon="6.65645">
        <ele>1163.81</ele>
        <time>2012-06-10T08:11:31.000Z</time>
      </trkpt>
      <trkpt lat="44.64238" lon="6.65643">
        <ele>1163.81</ele>
        <time>2012-06-10T08:11:32.000Z</time>
      </trkpt>
      <trkpt lat="44.64247" lon="6.65629">
        <ele>1162.85</ele>
        <time>2012-06-10T08:11:36.000Z</time>
      </trkpt>
      <trkpt lat="44.64243" lon="6.65613">
        <ele>1162.37</ele>
        <time>2012-06-10T08:11:40.000Z</time>
      </trkpt>
      <trkpt lat="44.6424" lon="6.6561">
        <ele>1162.37</ele>
        <time>2012-06-10T08:11:41.000Z</time>
      </trkpt>
      <trkpt lat="44.64237" lon="6.65606">
        <ele>1161.89</ele>
        <time>2012-06-10T08:11:42.000Z</time>
      </trkpt>
      <trkpt lat="44.64235" lon="6.65601">
        <ele>1161.89</ele>
        <time>2012-06-10T08:11:43.000Z</time>
      </trkpt>
      <trkpt lat="44.64232" lon="6.65594">
        <ele>1161.41</ele>
        <time>2012-06-10T08:11:44.000Z</time>
      </trkpt>
      <trkpt lat="44.64227" lon="6.65581">
        <ele>1160.93</ele>
        <time>2012-06-10T08:11:46.000Z</time>
      </trkpt>
      <trkpt lat="44.64224" lon="6.65575">
        <ele>1159.97</ele>
        <time>2012-06-10T08:11:47.000Z</time>
      </trkpt>
      <trkpt lat="44.64222" lon="6.65568">
        <ele>1158.53</ele>
        <time>2012-06-10T08:11:48.000Z</time>
      </trkpt>
      <trkpt lat="44.64221" lon="6.65562">
        <ele>1158.05</ele>
        <time>2012-06-10T08:11:49.000Z</time>
      </trkpt>
      <trkpt lat="44.64223" lon="6.65556">
        <ele>1156.6</ele>
        <time>2012-06-10T08:11:50.000Z</time>
      </trkpt>
      <trkpt lat="44.64225" lon="6.6555">
        <ele>1156.12</ele>
        <time>2012-06-10T08:11:51.000Z</time>
      </trkpt>
      <trkpt lat="44.64228" lon="6.65545">
        <ele>1155.64</ele>
        <time>2012-06-10T08:11:52.000Z</time>
      </trkpt>
      <trkpt lat="44.64232" lon="6.6554">
        <ele>1154.68</ele>
        <time>2012-06-10T08:11:53.000Z</time>
      </trkpt>
      <trkpt lat="44.64243" lon="6.65526">
        <ele>1152.28</ele>
        <time>2012-06-10T08:11:55.000Z</time>
      </trkpt>
      <trkpt lat="44.64254" lon="6.6551">
        <ele>1148.43</ele>
        <time>2012-06-10T08:11:57.000Z</time>
      </trkpt>
      <trkpt lat="44.64261" lon="6.65494">
        <ele>1146.51</ele>
        <time>2012-06-10T08:11:59.000Z</time>
      </trkpt>
      <trkpt lat="44.64262" lon="6.65488">
        <ele>1146.03</ele>
        <time>2012-06-10T08:12:00.000Z</time>
      </trkpt>
      <trkpt lat="44.64263" lon="6.65483">
        <ele>1144.59</ele>
        <time>2012-06-10T08:12:01.000Z</time>
      </trkpt>
      <trkpt lat="44.64264" lon="6.65478">
        <ele>1144.11</ele>
        <time>2012-06-10T08:12:02.000Z</time>
      </trkpt>
      <trkpt lat="44.64265" lon="6.65471">
        <ele>1143.14</ele>
        <time>2012-06-10T08:12:03.000Z</time>
      </trkpt>
      <trkpt lat="44.64268" lon="6.65466">
        <ele>1142.18</ele>
        <time>2012-06-10T08:12:04.000Z</time>
      </trkpt>
      <trkpt lat="44.64272" lon="6.65461">
        <ele>1141.22</ele>
        <time>2012-06-10T08:12:05.000Z</time>
      </trkpt>
      <trkpt lat="44.64277" lon="6.65456">
        <ele>1139.78</ele>
        <time>2012-06-10T08:12:06.000Z</time>
      </trkpt>
      <trkpt lat="44.64289" lon="6.65442">
        <ele>1136.9</ele>
        <time>2012-06-10T08:12:09.000Z</time>
      </trkpt>
      <trkpt lat="44.64294" lon="6.65443">
        <ele>1135.45</ele>
        <time>2012-06-10T08:12:10.000Z</time>
      </trkpt>
      <trkpt lat="44.64299" lon="6.65443">
        <ele>1134.01</ele>
        <time>2012-06-10T08:12:11.000Z</time>
      </trkpt>
      <trkpt lat="44.64304" lon="6.65442">
        <ele>1133.53</ele>
        <time>2012-06-10T08:12:12.000Z</time>
      </trkpt>
      <trkpt lat="44.64309" lon="6.6544">
        <ele>1132.57</ele>
        <time>2012-06-10T08:12:13.000Z</time>
      </trkpt>
      <trkpt lat="44.64312" lon="6.65439">
        <ele>1130.65</ele>
        <time>2012-06-10T08:12:14.000Z</time>
      </trkpt>
      <trkpt lat="44.64315" lon="6.65436">
        <ele>1129.69</ele>
        <time>2012-06-10T08:12:15.000Z</time>
      </trkpt>
      <trkpt lat="44.64317" lon="6.65435">
        <ele>1128.24</ele>
        <time>2012-06-10T08:12:17.000Z</time>
      </trkpt>
      <trkpt lat="44.64315" lon="6.65433">
        <ele>1127.76</ele>
        <time>2012-06-10T08:12:18.000Z</time>
      </trkpt>
      <trkpt lat="44.64315" lon="6.65432">
        <ele>1127.28</ele>
        <time>2012-06-10T08:12:19.000Z</time>
      </trkpt>
      <trkpt lat="44.64317" lon="6.65432">
        <ele>1126.32</ele>
        <time>2012-06-10T08:12:20.000Z</time>
      </trkpt>
      <trkpt lat="44.64319" lon="6.6543">
        <ele>1125.36</ele>
        <time>2012-06-10T08:12:21.000Z</time>
      </trkpt>
      <trkpt lat="44.64324" lon="6.65428">
        <ele>1123.44</ele>
        <time>2012-06-10T08:12:22.000Z</time>
      </trkpt>
      <trkpt lat="44.64331" lon="6.65426">
        <ele>1121.52</ele>
        <time>2012-06-10T08:12:23.000Z</time>
      </trkpt>
      <trkpt lat="44.64338" lon="6.65427">
        <ele>1120.55</ele>
        <time>2012-06-10T08:12:24.000Z</time>
      </trkpt>
      <trkpt lat="44.64345" lon="6.65426">
        <ele>1120.07</ele>
        <time>2012-06-10T08:12:25.000Z</time>
      </trkpt>
      <trkpt lat="44.64351" lon="6.65424">
        <ele>1119.11</ele>
        <time>2012-06-10T08:12:26.000Z</time>
      </trkpt>
      <trkpt lat="44.64356" lon="6.65423">
        <ele>1118.63</ele>
        <time>2012-06-10T08:12:27.000Z</time>
      </trkpt>
      <trkpt lat="44.6436" lon="6.65423">
        <ele>1117.67</ele>
        <time>2012-06-10T08:12:28.000Z</time>
      </trkpt>
      <trkpt lat="44.64368" lon="6.6542">
        <ele>1117.19</ele>
        <time>2012-06-10T08:12:30.000Z</time>
      </trkpt>
      <trkpt lat="44.64372" lon="6.65415">
        <ele>1116.23</ele>
        <time>2012-06-10T08:12:31.000Z</time>
      </trkpt>
      <trkpt lat="44.64385" lon="6.65398">
        <ele>1114.79</ele>
        <time>2012-06-10T08:12:34.000Z</time>
      </trkpt>
      <trkpt lat="44.64388" lon="6.65391">
        <ele>1115.27</ele>
        <time>2012-06-10T08:12:35.000Z</time>
      </trkpt>
      <trkpt lat="44.64391" lon="6.65386">
        <ele>1115.27</ele>
        <time>2012-06-10T08:12:36.000Z</time>
      </trkpt>
      <trkpt lat="44.64406" lon="6.65356">
        <ele>1116.71</ele>
        <time>2012-06-10T08:12:43.000Z</time>
      </trkpt>
      <trkpt lat="44.64413" lon="6.6534">
        <ele>1116.71</ele>
        <time>2012-06-10T08:12:47.000Z</time>
      </trkpt>
      <trkpt lat="44.64415" lon="6.65335">
        <ele>1116.71</ele>
        <time>2012-06-10T08:12:48.000Z</time>
      </trkpt>
      <trkpt lat="44.64417" lon="6.6533">
        <ele>1117.19</ele>
        <time>2012-06-10T08:12:49.000Z</time>
      </trkpt>
      <trkpt lat="44.64418" lon="6.65326">
        <ele>1117.67</ele>
        <time>2012-06-10T08:12:50.000Z</time>
      </trkpt>
      <trkpt lat="44.6442" lon="6.65322">
        <ele>1117.67</ele>
        <time>2012-06-10T08:12:51.000Z</time>
      </trkpt>
      <trkpt lat="44.64421" lon="6.65319">
        <ele>1118.63</ele>
        <time>2012-06-10T08:12:52.000Z</time>
      </trkpt>
      <trkpt lat="44.64426" lon="6.65317">
        <ele>1117.67</ele>
        <time>2012-06-10T08:12:57.000Z</time>
      </trkpt>
      <trkpt lat="44.64444" lon="6.65332">
        <ele>1114.79</ele>
        <time>2012-06-10T08:13:02.000Z</time>
      </trkpt>
      <trkpt lat="44.6445" lon="6.65333">
        <ele>1113.82</ele>
        <time>2012-06-10T08:13:03.000Z</time>
      </trkpt>
      <trkpt lat="44.6446" lon="6.65328">
        <ele>1111.9</ele>
        <time>2012-06-10T08:13:05.000Z</time>
      </trkpt>
      <trkpt lat="44.6449" lon="6.65303">
        <ele>1110.94</ele>
        <time>2012-06-10T08:13:10.000Z</time>
      </trkpt>
      <trkpt lat="44.64494" lon="6.65296">
        <ele>1110.94</ele>
        <time>2012-06-10T08:13:11.000Z</time>
      </trkpt>
      <trkpt lat="44.64499" lon="6.6529">
        <ele>1110.94</ele>
        <time>2012-06-10T08:13:12.000Z</time>
      </trkpt>
      <trkpt lat="44.64503" lon="6.65286">
        <ele>1110.94</ele>
        <time>2012-06-10T08:13:13.000Z</time>
      </trkpt>
      <trkpt lat="44.64512" lon="6.65281">
        <ele>1109.5</ele>
        <time>2012-06-10T08:13:15.000Z</time>
      </trkpt>
      <trkpt lat="44.64517" lon="6.65281">
        <ele>1108.54</ele>
        <time>2012-06-10T08:13:16.000Z</time>
      </trkpt>
      <trkpt lat="44.64527" lon="6.65279">
        <ele>1107.1</ele>
        <time>2012-06-10T08:13:18.000Z</time>
      </trkpt>
      <trkpt lat="44.64537" lon="6.65271">
        <ele>1105.17</ele>
        <time>2012-06-10T08:13:20.000Z</time>
      </trkpt>
      <trkpt lat="44.64546" lon="6.65259">
        <ele>1103.25</ele>
        <time>2012-06-10T08:13:23.000Z</time>
      </trkpt>
      <trkpt lat="44.6455" lon="6.65252">
        <ele>1102.77</ele>
        <time>2012-06-10T08:13:24.000Z</time>
      </trkpt>
      <trkpt lat="44.64553" lon="6.65245">
        <ele>1101.81</ele>
        <time>2012-06-10T08:13:25.000Z</time>
      </trkpt>
      <trkpt lat="44.64556" lon="6.6524">
        <ele>1102.29</ele>
        <time>2012-06-10T08:13:26.000Z</time>
      </trkpt>
      <trkpt lat="44.6456" lon="6.65238">
        <ele>1101.33</ele>
        <time>2012-06-10T08:13:27.000Z</time>
      </trkpt>
      <trkpt lat="44.64563" lon="6.65237">
        <ele>1101.33</ele>
        <time>2012-06-10T08:13:28.000Z</time>
      </trkpt>
      <trkpt lat="44.64602" lon="6.65225">
        <ele>1103.73</ele>
        <time>2012-06-10T08:13:38.000Z</time>
      </trkpt>
      <trkpt lat="44.64607" lon="6.65223">
        <ele>1103.73</ele>
        <time>2012-06-10T08:13:39.000Z</time>
      </trkpt>
      <trkpt lat="44.64611" lon="6.65224">
        <ele>1103.73</ele>
        <time>2012-06-10T08:13:40.000Z</time>
      </trkpt>
      <trkpt lat="44.64616" lon="6.65223">
        <ele>1103.25</ele>
        <time>2012-06-10T08:13:41.000Z</time>
      </trkpt>
      <trkpt lat="44.6463" lon="6.65226">
        <ele>1102.29</ele>
        <time>2012-06-10T08:13:44.000Z</time>
      </trkpt>
      <trkpt lat="44.6465" lon="6.65229">
        <ele>1100.85</ele>
        <time>2012-06-10T08:13:47.000Z</time>
      </trkpt>
      <trkpt lat="44.64667" lon="6.65229">
        <ele>1099.89</ele>
        <time>2012-06-10T08:13:50.000Z</time>
      </trkpt>
      <trkpt lat="44.64675" lon="6.65228">
        <ele>1098.44</ele>
        <time>2012-06-10T08:13:52.000Z</time>
      </trkpt>
      <trkpt lat="44.64688" lon="6.65228">
        <ele>1097</ele>
        <time>2012-06-10T08:13:54.000Z</time>
      </trkpt>
      <trkpt lat="44.64694" lon="6.65226">
        <ele>1094.12</ele>
        <time>2012-06-10T08:13:55.000Z</time>
      </trkpt>
      <trkpt lat="44.6473" lon="6.65215">
        <ele>1090.75</ele>
        <time>2012-06-10T08:14:01.000Z</time>
      </trkpt>
      <trkpt lat="44.64743" lon="6.65208">
        <ele>1089.79</ele>
        <time>2012-06-10T08:14:03.000Z</time>
      </trkpt>
      <trkpt lat="44.64762" lon="6.65195">
        <ele>1088.35</ele>
        <time>2012-06-10T08:14:06.000Z</time>
      </trkpt>
      <trkpt lat="44.64767" lon="6.65189">
        <ele>1087.87</ele>
        <time>2012-06-10T08:14:07.000Z</time>
      </trkpt>
      <trkpt lat="44.64771" lon="6.65184">
        <ele>1086.91</ele>
        <time>2012-06-10T08:14:08.000Z</time>
      </trkpt>
      <trkpt lat="44.64775" lon="6.65182">
        <ele>1085.47</ele>
        <time>2012-06-10T08:14:09.000Z</time>
      </trkpt>
      <trkpt lat="44.64785" lon="6.65194">
        <ele>1083.54</ele>
        <time>2012-06-10T08:14:12.000Z</time>
      </trkpt>
      <trkpt lat="44.64791" lon="6.65199">
        <ele>1081.62</ele>
        <time>2012-06-10T08:14:14.000Z</time>
      </trkpt>
      <trkpt lat="44.64798" lon="6.652">
        <ele>1081.14</ele>
        <time>2012-06-10T08:14:16.000Z</time>
      </trkpt>
      <trkpt lat="44.64817" lon="6.65187">
        <ele>1081.14</ele>
        <time>2012-06-10T08:14:23.000Z</time>
      </trkpt>
      <trkpt lat="44.6483" lon="6.65193">
        <ele>1079.7</ele>
        <time>2012-06-10T08:14:25.000Z</time>
      </trkpt>
      <trkpt lat="44.64843" lon="6.65199">
        <ele>1079.7</ele>
        <time>2012-06-10T08:14:27.000Z</time>
      </trkpt>
      <trkpt lat="44.64852" lon="6.65196">
        <ele>1079.7</ele>
        <time>2012-06-10T08:14:29.000Z</time>
      </trkpt>
      <trkpt lat="44.64856" lon="6.65193">
        <ele>1079.7</ele>
        <time>2012-06-10T08:14:30.000Z</time>
      </trkpt>
      <trkpt lat="44.6486" lon="6.65192">
        <ele>1080.18</ele>
        <time>2012-06-10T08:14:31.000Z</time>
      </trkpt>
      <trkpt lat="44.64881" lon="6.65187">
        <ele>1083.06</ele>
        <time>2012-06-10T08:14:37.000Z</time>
      </trkpt>
      <trkpt lat="44.64907" lon="6.65178">
        <ele>1086.43</ele>
        <time>2012-06-10T08:14:45.000Z</time>
      </trkpt>
      <trkpt lat="44.6492" lon="6.65174">
        <ele>1087.87</ele>
        <time>2012-06-10T08:14:50.000Z</time>
      </trkpt>
      <trkpt lat="44.64923" lon="6.65173">
        <ele>1087.87</ele>
        <time>2012-06-10T08:14:51.000Z</time>
      </trkpt>
      <trkpt lat="44.64925" lon="6.65171">
        <ele>1088.35</ele>
        <time>2012-06-10T08:14:52.000Z</time>
      </trkpt>
      <trkpt lat="44.64931" lon="6.65168">
        <ele>1089.31</ele>
        <time>2012-06-10T08:14:55.000Z</time>
      </trkpt>
      <trkpt lat="44.64948" lon="6.65162">
        <ele>1091.23</ele>
        <time>2012-06-10T08:15:02.000Z</time>
      </trkpt>
      <trkpt lat="44.64949" lon="6.65161">
        <ele>1091.71</ele>
        <time>2012-06-10T08:15:03.000Z</time>
      </trkpt>
      <trkpt lat="44.64953" lon="6.65159">
        <ele>1092.68</ele>
        <time>2012-06-10T08:15:05.000Z</time>
      </trkpt>
      <trkpt lat="44.64967" lon="6.65155">
        <ele>1094.12</ele>
        <time>2012-06-10T08:15:12.000Z</time>
      </trkpt>
      <trkpt lat="44.64968" lon="6.65156">
        <ele>1094.12</ele>
        <time>2012-06-10T08:15:13.000Z</time>
      </trkpt>
      <trkpt lat="44.64971" lon="6.65156">
        <ele>1093.64</ele>
        <time>2012-06-10T08:15:14.000Z</time>
      </trkpt>
      <trkpt lat="44.64973" lon="6.65154">
        <ele>1094.12</ele>
        <time>2012-06-10T08:15:15.000Z</time>
      </trkpt>
      <trkpt lat="44.64977" lon="6.6515">
        <ele>1094.12</ele>
        <time>2012-06-10T08:15:17.000Z</time>
      </trkpt>
      <trkpt lat="44.64978" lon="6.65146">
        <ele>1094.12</ele>
        <time>2012-06-10T08:15:18.000Z</time>
      </trkpt>
      <trkpt lat="44.64979" lon="6.65144">
        <ele>1094.6</ele>
        <time>2012-06-10T08:15:19.000Z</time>
      </trkpt>
      <trkpt lat="44.6498" lon="6.65141">
        <ele>1095.08</ele>
        <time>2012-06-10T08:15:20.000Z</time>
      </trkpt>
      <trkpt lat="44.64981" lon="6.65139">
        <ele>1095.08</ele>
        <time>2012-06-10T08:15:21.000Z</time>
      </trkpt>
      <trkpt lat="44.64981" lon="6.65135">
        <ele>1095.56</ele>
        <time>2012-06-10T08:15:23.000Z</time>
      </trkpt>
      <trkpt lat="44.6498" lon="6.65133">
        <ele>1095.56</ele>
        <time>2012-06-10T08:15:24.000Z</time>
      </trkpt>
      <trkpt lat="44.6498" lon="6.65131">
        <ele>1096.04</ele>
        <time>2012-06-10T08:15:25.000Z</time>
      </trkpt>
      <trkpt lat="44.6498" lon="6.65129">
        <ele>1096.04</ele>
        <time>2012-06-10T08:15:26.000Z</time>
      </trkpt>
      <trkpt lat="44.6498" lon="6.65127">
        <ele>1096.52</ele>
        <time>2012-06-10T08:15:27.000Z</time>
      </trkpt>
      <trkpt lat="44.64981" lon="6.65125">
        <ele>1097</ele>
        <time>2012-06-10T08:15:28.000Z</time>
      </trkpt>
      <trkpt lat="44.64983" lon="6.65124">
        <ele>1097</ele>
        <time>2012-06-10T08:15:29.000Z</time>
      </trkpt>
      <trkpt lat="44.64985" lon="6.65121">
        <ele>1097.48</ele>
        <time>2012-06-10T08:15:30.000Z</time>
      </trkpt>
      <trkpt lat="44.65004" lon="6.65092">
        <ele>1099.89</ele>
        <time>2012-06-10T08:15:42.000Z</time>
      </trkpt>
      <trkpt lat="44.65005" lon="6.65083">
        <ele>1100.85</ele>
        <time>2012-06-10T08:15:46.000Z</time>
      </trkpt>
      <trkpt lat="44.65005" lon="6.6508">
        <ele>1100.85</ele>
        <time>2012-06-10T08:15:47.000Z</time>
      </trkpt>
      <trkpt lat="44.65005" lon="6.65077">
        <ele>1101.33</ele>
        <time>2012-06-10T08:15:48.000Z</time>
      </trkpt>
      <trkpt lat="44.65013" lon="6.65051">
        <ele>1103.73</ele>
        <time>2012-06-10T08:15:59.000Z</time>
      </trkpt>
      <trkpt lat="44.65014" lon="6.6505">
        <ele>1104.21</ele>
        <time>2012-06-10T08:16:00.000Z</time>
      </trkpt>
      <trkpt lat="44.65016" lon="6.65048">
        <ele>1104.69</ele>
        <time>2012-06-10T08:16:01.000Z</time>
      </trkpt>
      <trkpt lat="44.65017" lon="6.65047">
        <ele>1104.69</ele>
        <time>2012-06-10T08:16:02.000Z</time>
      </trkpt>
      <trkpt lat="44.65019" lon="6.65046">
        <ele>1104.69</ele>
        <time>2012-06-10T08:16:03.000Z</time>
      </trkpt>
      <trkpt lat="44.65022" lon="6.65044">
        <ele>1104.69</ele>
        <time>2012-06-10T08:16:04.000Z</time>
      </trkpt>
      <trkpt lat="44.65045" lon="6.65026">
        <ele>1107.58</ele>
        <time>2012-06-10T08:16:15.000Z</time>
      </trkpt>
      <trkpt lat="44.65046" lon="6.65023">
        <ele>1107.1</ele>
        <time>2012-06-10T08:16:16.000Z</time>
      </trkpt>
      <trkpt lat="44.65047" lon="6.65019">
        <ele>1107.1</ele>
        <time>2012-06-10T08:16:17.000Z</time>
      </trkpt>
      <trkpt lat="44.65048" lon="6.65014">
        <ele>1107.1</ele>
        <time>2012-06-10T08:16:18.000Z</time>
      </trkpt>
      <trkpt lat="44.65049" lon="6.6501">
        <ele>1107.1</ele>
        <time>2012-06-10T08:16:19.000Z</time>
      </trkpt>
      <trkpt lat="44.65051" lon="6.65006">
        <ele>1107.58</ele>
        <time>2012-06-10T08:16:20.000Z</time>
      </trkpt>
      <trkpt lat="44.65054" lon="6.64995">
        <ele>1108.06</ele>
        <time>2012-06-10T08:16:23.000Z</time>
      </trkpt>
      <trkpt lat="44.65055" lon="6.64992">
        <ele>1107.58</ele>
        <time>2012-06-10T08:16:24.000Z</time>
      </trkpt>
      <trkpt lat="44.65067" lon="6.64987">
        <ele>1106.61</ele>
        <time>2012-06-10T08:16:29.000Z</time>
      </trkpt>
      <trkpt lat="44.65077" lon="6.64993">
        <ele>1105.65</ele>
        <time>2012-06-10T08:16:31.000Z</time>
      </trkpt>
      <trkpt lat="44.65083" lon="6.64994">
        <ele>1105.65</ele>
        <time>2012-06-10T08:16:32.000Z</time>
      </trkpt>
      <trkpt lat="44.65089" lon="6.64995">
        <ele>1105.65</ele>
        <time>2012-06-10T08:16:33.000Z</time>
      </trkpt>
      <trkpt lat="44.65105" lon="6.64996">
        <ele>1104.69</ele>
        <time>2012-06-10T08:16:36.000Z</time>
      </trkpt>
      <trkpt lat="44.6511" lon="6.64998">
        <ele>1104.21</ele>
        <time>2012-06-10T08:16:37.000Z</time>
      </trkpt>
      <trkpt lat="44.6512" lon="6.65001">
        <ele>1103.73</ele>
        <time>2012-06-10T08:16:39.000Z</time>
      </trkpt>
      <trkpt lat="44.65127" lon="6.65001">
        <ele>1103.25</ele>
        <time>2012-06-10T08:16:40.000Z</time>
      </trkpt>
      <trkpt lat="44.65153" lon="6.64993">
        <ele>1101.33</ele>
        <time>2012-06-10T08:16:44.000Z</time>
      </trkpt>
      <trkpt lat="44.65158" lon="6.6499">
        <ele>1101.33</ele>
        <time>2012-06-10T08:16:45.000Z</time>
      </trkpt>
      <trkpt lat="44.65163" lon="6.64988">
        <ele>1100.85</ele>
        <time>2012-06-10T08:16:46.000Z</time>
      </trkpt>
      <trkpt lat="44.65174" lon="6.64987">
        <ele>1099.89</ele>
        <time>2012-06-10T08:16:48.000Z</time>
      </trkpt>
      <trkpt lat="44.6518" lon="6.64989">
        <ele>1099.89</ele>
        <time>2012-06-10T08:16:49.000Z</time>
      </trkpt>
      <trkpt lat="44.65186" lon="6.64989">
        <ele>1099.4</ele>
        <time>2012-06-10T08:16:50.000Z</time>
      </trkpt>
      <trkpt lat="44.65191" lon="6.64988">
        <ele>1098.92</ele>
        <time>2012-06-10T08:16:51.000Z</time>
      </trkpt>
      <trkpt lat="44.65197" lon="6.64985">
        <ele>1098.92</ele>
        <time>2012-06-10T08:16:52.000Z</time>
      </trkpt>
      <trkpt lat="44.65203" lon="6.64982">
        <ele>1098.44</ele>
        <time>2012-06-10T08:16:53.000Z</time>
      </trkpt>
      <trkpt lat="44.65208" lon="6.64978">
        <ele>1097.96</ele>
        <time>2012-06-10T08:16:54.000Z</time>
      </trkpt>
      <trkpt lat="44.65214" lon="6.64976">
        <ele>1098.44</ele>
        <time>2012-06-10T08:16:55.000Z</time>
      </trkpt>
      <trkpt lat="44.65219" lon="6.64974">
        <ele>1097</ele>
        <time>2012-06-10T08:16:56.000Z</time>
      </trkpt>
      <trkpt lat="44.65225" lon="6.64971">
        <ele>1097</ele>
        <time>2012-06-10T08:16:57.000Z</time>
      </trkpt>
      <trkpt lat="44.6523" lon="6.64966">
        <ele>1096.52</ele>
        <time>2012-06-10T08:16:58.000Z</time>
      </trkpt>
      <trkpt lat="44.65235" lon="6.64962">
        <ele>1096.04</ele>
        <time>2012-06-10T08:16:59.000Z</time>
      </trkpt>
      <trkpt lat="44.65239" lon="6.6496">
        <ele>1095.56</ele>
        <time>2012-06-10T08:17:00.000Z</time>
      </trkpt>
      <trkpt lat="44.65244" lon="6.6496">
        <ele>1095.56</ele>
        <time>2012-06-10T08:17:01.000Z</time>
      </trkpt>
      <trkpt lat="44.65249" lon="6.6496">
        <ele>1095.08</ele>
        <time>2012-06-10T08:17:02.000Z</time>
      </trkpt>
      <trkpt lat="44.65252" lon="6.64959">
        <ele>1095.08</ele>
        <time>2012-06-10T08:17:03.000Z</time>
      </trkpt>
      <trkpt lat="44.65256" lon="6.64956">
        <ele>1094.6</ele>
        <time>2012-06-10T08:17:04.000Z</time>
      </trkpt>
      <trkpt lat="44.6526" lon="6.64953">
        <ele>1094.12</ele>
        <time>2012-06-10T08:17:05.000Z</time>
      </trkpt>
      <trkpt lat="44.65263" lon="6.64951">
        <ele>1094.12</ele>
        <time>2012-06-10T08:17:06.000Z</time>
      </trkpt>
      <trkpt lat="44.65267" lon="6.6495">
        <ele>1093.64</ele>
        <time>2012-06-10T08:17:07.000Z</time>
      </trkpt>
      <trkpt lat="44.65272" lon="6.64949">
        <ele>1093.64</ele>
        <time>2012-06-10T08:17:08.000Z</time>
      </trkpt>
      <trkpt lat="44.65276" lon="6.64948">
        <ele>1093.64</ele>
        <time>2012-06-10T08:17:09.000Z</time>
      </trkpt>
      <trkpt lat="44.65281" lon="6.64948">
        <ele>1093.16</ele>
        <time>2012-06-10T08:17:10.000Z</time>
      </trkpt>
      <trkpt lat="44.65285" lon="6.64946">
        <ele>1092.68</ele>
        <time>2012-06-10T08:17:11.000Z</time>
      </trkpt>
      <trkpt lat="44.6529" lon="6.64943">
        <ele>1092.68</ele>
        <time>2012-06-10T08:17:12.000Z</time>
      </trkpt>
      <trkpt lat="44.65299" lon="6.64937">
        <ele>1091.71</ele>
        <time>2012-06-10T08:17:14.000Z</time>
      </trkpt>
      <trkpt lat="44.6531" lon="6.64937">
        <ele>1091.23</ele>
        <time>2012-06-10T08:17:16.000Z</time>
      </trkpt>
      <trkpt lat="44.65315" lon="6.64938">
        <ele>1090.75</ele>
        <time>2012-06-10T08:17:17.000Z</time>
      </trkpt>
      <trkpt lat="44.65331" lon="6.64944">
        <ele>1089.79</ele>
        <time>2012-06-10T08:17:20.000Z</time>
      </trkpt>
      <trkpt lat="44.65342" lon="6.64943">
        <ele>1089.31</ele>
        <time>2012-06-10T08:17:22.000Z</time>
      </trkpt>
      <trkpt lat="44.65346" lon="6.64941">
        <ele>1088.83</ele>
        <time>2012-06-10T08:17:23.000Z</time>
      </trkpt>
      <trkpt lat="44.6535" lon="6.6494">
        <ele>1088.35</ele>
        <time>2012-06-10T08:17:24.000Z</time>
      </trkpt>
      <trkpt lat="44.65355" lon="6.64939">
        <ele>1086.91</ele>
        <time>2012-06-10T08:17:25.000Z</time>
      </trkpt>
      <trkpt lat="44.65359" lon="6.64939">
        <ele>1085.47</ele>
        <time>2012-06-10T08:17:26.000Z</time>
      </trkpt>
      <trkpt lat="44.65365" lon="6.6494">
        <ele>1084.02</ele>
        <time>2012-06-10T08:17:27.000Z</time>
      </trkpt>
      <trkpt lat="44.6537" lon="6.6494">
        <ele>1082.58</ele>
        <time>2012-06-10T08:17:28.000Z</time>
      </trkpt>
      <trkpt lat="44.65374" lon="6.64941">
        <ele>1080.66</ele>
        <time>2012-06-10T08:17:29.000Z</time>
      </trkpt>
      <trkpt lat="44.65377" lon="6.64942">
        <ele>1080.18</ele>
        <time>2012-06-10T08:17:30.000Z</time>
      </trkpt>
      <trkpt lat="44.65379" lon="6.64942">
        <ele>1079.22</ele>
        <time>2012-06-10T08:17:31.000Z</time>
      </trkpt>
      <trkpt lat="44.6538" lon="6.64941">
        <ele>1078.74</ele>
        <time>2012-06-10T08:17:32.000Z</time>
      </trkpt>
      <trkpt lat="44.6538" lon="6.64939">
        <ele>1077.78</ele>
        <time>2012-06-10T08:17:33.000Z</time>
      </trkpt>
      <trkpt lat="44.6538" lon="6.64936">
        <ele>1076.33</ele>
        <time>2012-06-10T08:17:34.000Z</time>
      </trkpt>
      <trkpt lat="44.65379" lon="6.64933">
        <ele>1074.89</ele>
        <time>2012-06-10T08:17:35.000Z</time>
      </trkpt>
      <trkpt lat="44.65378" lon="6.64927">
        <ele>1072.01</ele>
        <time>2012-06-10T08:17:39.000Z</time>
      </trkpt>
      <trkpt lat="44.65379" lon="6.64927">
        <ele>1071.05</ele>
        <time>2012-06-10T08:17:41.000Z</time>
      </trkpt>
      <trkpt lat="44.65382" lon="6.64924">
        <ele>1070.08</ele>
        <time>2012-06-10T08:17:49.000Z</time>
      </trkpt>
      <trkpt lat="44.65385" lon="6.64922">
        <ele>1069.12</ele>
        <time>2012-06-10T08:17:50.000Z</time>
      </trkpt>
      <trkpt lat="44.6539" lon="6.64921">
        <ele>1068.16</ele>
        <time>2012-06-10T08:17:51.000Z</time>
      </trkpt>
      <trkpt lat="44.65404" lon="6.64918">
        <ele>1067.68</ele>
        <time>2012-06-10T08:17:58.000Z</time>
      </trkpt>
      <trkpt lat="44.65416" lon="6.64932">
        <ele>1067.68</ele>
        <time>2012-06-10T08:18:03.000Z</time>
      </trkpt>
      <trkpt lat="44.65452" lon="6.64955">
        <ele>1068.16</ele>
        <time>2012-06-10T08:18:13.000Z</time>
      </trkpt>
      <trkpt lat="44.65474" lon="6.64957">
        <ele>1070.08</ele>
        <time>2012-06-10T08:18:20.000Z</time>
      </trkpt>
      <trkpt lat="44.65475" lon="6.64956">
        <ele>1070.08</ele>
        <time>2012-06-10T08:18:21.000Z</time>
      </trkpt>
      <trkpt lat="44.65483" lon="6.64945">
        <ele>1066.72</ele>
        <time>2012-06-10T08:18:24.000Z</time>
      </trkpt>
      <trkpt lat="44.65491" lon="6.64932">
        <ele>1062.39</ele>
        <time>2012-06-10T08:18:26.000Z</time>
      </trkpt>
      <trkpt lat="44.65495" lon="6.64925">
        <ele>1060.47</ele>
        <time>2012-06-10T08:18:27.000Z</time>
      </trkpt>
      <trkpt lat="44.65506" lon="6.64907">
        <ele>1056.63</ele>
        <time>2012-06-10T08:18:30.000Z</time>
      </trkpt>
      <trkpt lat="44.65509" lon="6.64901">
        <ele>1055.18</ele>
        <time>2012-06-10T08:18:31.000Z</time>
      </trkpt>
      <trkpt lat="44.65511" lon="6.64895">
        <ele>1054.22</ele>
        <time>2012-06-10T08:18:32.000Z</time>
      </trkpt>
      <trkpt lat="44.65517" lon="6.6488">
        <ele>1051.34</ele>
        <time>2012-06-10T08:18:34.000Z</time>
      </trkpt>
      <trkpt lat="44.6552" lon="6.64872">
        <ele>1050.38</ele>
        <time>2012-06-10T08:18:35.000Z</time>
      </trkpt>
      <trkpt lat="44.65525" lon="6.64865">
        <ele>1048.45</ele>
        <time>2012-06-10T08:18:36.000Z</time>
      </trkpt>
      <trkpt lat="44.6553" lon="6.64858">
        <ele>1047.01</ele>
        <time>2012-06-10T08:18:37.000Z</time>
      </trkpt>
      <trkpt lat="44.65544" lon="6.64833">
        <ele>1043.65</ele>
        <time>2012-06-10T08:18:40.000Z</time>
      </trkpt>
      <trkpt lat="44.65561" lon="6.64811">
        <ele>1040.76</ele>
        <time>2012-06-10T08:18:43.000Z</time>
      </trkpt>
      <trkpt lat="44.65579" lon="6.64788">
        <ele>1038.36</ele>
        <time>2012-06-10T08:18:46.000Z</time>
      </trkpt>
      <trkpt lat="44.65585" lon="6.64784">
        <ele>1037.88</ele>
        <time>2012-06-10T08:18:47.000Z</time>
      </trkpt>
      <trkpt lat="44.65593" lon="6.64781">
        <ele>1037.4</ele>
        <time>2012-06-10T08:18:48.000Z</time>
      </trkpt>
      <trkpt lat="44.65615" lon="6.64781">
        <ele>1036.44</ele>
        <time>2012-06-10T08:18:51.000Z</time>
      </trkpt>
      <trkpt lat="44.65628" lon="6.64782">
        <ele>1037.4</ele>
        <time>2012-06-10T08:18:53.000Z</time>
      </trkpt>
      <trkpt lat="44.65633" lon="6.64782">
        <ele>1037.4</ele>
        <time>2012-06-10T08:18:54.000Z</time>
      </trkpt>
      <trkpt lat="44.65655" lon="6.64777">
        <ele>1034.52</ele>
        <time>2012-06-10T08:18:57.000Z</time>
      </trkpt>
      <trkpt lat="44.6568" lon="6.64768">
        <ele>1030.19</ele>
        <time>2012-06-10T08:19:00.000Z</time>
      </trkpt>
      <trkpt lat="44.65687" lon="6.64763">
        <ele>1029.71</ele>
        <time>2012-06-10T08:19:01.000Z</time>
      </trkpt>
      <trkpt lat="44.65694" lon="6.64757">
        <ele>1028.75</ele>
        <time>2012-06-10T08:19:02.000Z</time>
      </trkpt>
      <trkpt lat="44.65728" lon="6.64724">
        <ele>1027.79</ele>
        <time>2012-06-10T08:19:10.000Z</time>
      </trkpt>
      <trkpt lat="44.65726" lon="6.64725">
        <ele>1027.31</ele>
        <time>2012-06-10T08:19:11.000Z</time>
      </trkpt>
      <trkpt lat="44.65723" lon="6.64729">
        <ele>1027.31</ele>
        <time>2012-06-10T08:19:12.000Z</time>
      </trkpt>
      <trkpt lat="44.65718" lon="6.64732">
        <ele>1027.31</ele>
        <time>2012-06-10T08:19:14.000Z</time>
      </trkpt>
      <trkpt lat="44.65717" lon="6.64729">
        <ele>1026.83</ele>
        <time>2012-06-10T08:19:15.000Z</time>
      </trkpt>
      <trkpt lat="44.65717" lon="6.64727">
        <ele>1026.34</ele>
        <time>2012-06-10T08:19:16.000Z</time>
      </trkpt>
      <trkpt lat="44.65717" lon="6.64724">
        <ele>1025.38</ele>
        <time>2012-06-10T08:19:17.000Z</time>
      </trkpt>
      <trkpt lat="44.65712" lon="6.64722">
        <ele>1023.94</ele>
        <time>2012-06-10T08:19:19.000Z</time>
      </trkpt>
      <trkpt lat="44.65716" lon="6.64708">
        <ele>1020.58</ele>
        <time>2012-06-10T08:19:24.000Z</time>
      </trkpt>
      <trkpt lat="44.65726" lon="6.6469">
        <ele>1016.25</ele>
        <time>2012-06-10T08:19:29.000Z</time>
      </trkpt>
      <trkpt lat="44.65728" lon="6.64685">
        <ele>1015.29</ele>
        <time>2012-06-10T08:19:30.000Z</time>
      </trkpt>
      <trkpt lat="44.6573" lon="6.64678">
        <ele>1013.85</ele>
        <time>2012-06-10T08:19:31.000Z</time>
      </trkpt>
      <trkpt lat="44.65733" lon="6.64672">
        <ele>1012.41</ele>
        <time>2012-06-10T08:19:32.000Z</time>
      </trkpt>
      <trkpt lat="44.65736" lon="6.64666">
        <ele>1011.93</ele>
        <time>2012-06-10T08:19:33.000Z</time>
      </trkpt>
      <trkpt lat="44.65751" lon="6.64636">
        <ele>1008.08</ele>
        <time>2012-06-10T08:19:38.000Z</time>
      </trkpt>
      <trkpt lat="44.65755" lon="6.64625">
        <ele>1006.16</ele>
        <time>2012-06-10T08:19:40.000Z</time>
      </trkpt>
      <trkpt lat="44.65754" lon="6.64619">
        <ele>1003.27</ele>
        <time>2012-06-10T08:19:42.000Z</time>
      </trkpt>
      <trkpt lat="44.65753" lon="6.64617">
        <ele>1001.83</ele>
        <time>2012-06-10T08:19:43.000Z</time>
      </trkpt>
      <trkpt lat="44.65749" lon="6.64616">
        <ele>999.43</ele>
        <time>2012-06-10T08:19:46.000Z</time>
      </trkpt>
      <trkpt lat="44.6572" lon="6.64602">
        <ele>999.91</ele>
        <time>2012-06-10T08:19:53.000Z</time>
      </trkpt>
      <trkpt lat="44.65715" lon="6.64603">
        <ele>999.91</ele>
        <time>2012-06-10T08:19:54.000Z</time>
      </trkpt>
      <trkpt lat="44.65701" lon="6.64606">
        <ele>999.43</ele>
        <time>2012-06-10T08:19:57.000Z</time>
      </trkpt>
      <trkpt lat="44.65696" lon="6.64605">
        <ele>999.43</ele>
        <time>2012-06-10T08:19:58.000Z</time>
      </trkpt>
      <trkpt lat="44.65691" lon="6.64604">
        <ele>999.43</ele>
        <time>2012-06-10T08:19:59.000Z</time>
      </trkpt>
      <trkpt lat="44.65681" lon="6.64589">
        <ele>998.95</ele>
        <time>2012-06-10T08:20:02.000Z</time>
      </trkpt>
      <trkpt lat="44.65682" lon="6.64582">
        <ele>999.43</ele>
        <time>2012-06-10T08:20:03.000Z</time>
      </trkpt>
      <trkpt lat="44.65685" lon="6.64577">
        <ele>998.47</ele>
        <time>2012-06-10T08:20:04.000Z</time>
      </trkpt>
      <trkpt lat="44.65689" lon="6.64571">
        <ele>998.47</ele>
        <time>2012-06-10T08:20:05.000Z</time>
      </trkpt>
      <trkpt lat="44.65693" lon="6.64567">
        <ele>997.99</ele>
        <time>2012-06-10T08:20:06.000Z</time>
      </trkpt>
      <trkpt lat="44.65698" lon="6.64562">
        <ele>997.51</ele>
        <time>2012-06-10T08:20:07.000Z</time>
      </trkpt>
      <trkpt lat="44.65768" lon="6.64506">
        <ele>994.62</ele>
        <time>2012-06-10T08:20:18.000Z</time>
      </trkpt>
      <trkpt lat="44.65774" lon="6.645">
        <ele>994.62</ele>
        <time>2012-06-10T08:20:19.000Z</time>
      </trkpt>
      <trkpt lat="44.65779" lon="6.64495">
        <ele>994.14</ele>
        <time>2012-06-10T08:20:20.000Z</time>
      </trkpt>
      <trkpt lat="44.65785" lon="6.64494">
        <ele>994.62</ele>
        <time>2012-06-10T08:20:21.000Z</time>
      </trkpt>
      <trkpt lat="44.65791" lon="6.64496">
        <ele>994.14</ele>
        <time>2012-06-10T08:20:22.000Z</time>
      </trkpt>
      <trkpt lat="44.65796" lon="6.64503">
        <ele>994.62</ele>
        <time>2012-06-10T08:20:23.000Z</time>
      </trkpt>
      <trkpt lat="44.65799" lon="6.6451">
        <ele>994.62</ele>
        <time>2012-06-10T08:20:24.000Z</time>
      </trkpt>
      <trkpt lat="44.65801" lon="6.64516">
        <ele>995.1</ele>
        <time>2012-06-10T08:20:25.000Z</time>
      </trkpt>
      <trkpt lat="44.65804" lon="6.64522">
        <ele>995.1</ele>
        <time>2012-06-10T08:20:26.000Z</time>
      </trkpt>
      <trkpt lat="44.65808" lon="6.64527">
        <ele>995.58</ele>
        <time>2012-06-10T08:20:27.000Z</time>
      </trkpt>
      <trkpt lat="44.65813" lon="6.64532">
        <ele>995.58</ele>
        <time>2012-06-10T08:20:28.000Z</time>
      </trkpt>
      <trkpt lat="44.65819" lon="6.64536">
        <ele>995.58</ele>
        <time>2012-06-10T08:20:29.000Z</time>
      </trkpt>
      <trkpt lat="44.65829" lon="6.64546">
        <ele>995.58</ele>
        <time>2012-06-10T08:20:31.000Z</time>
      </trkpt>
      <trkpt lat="44.65856" lon="6.64581">
        <ele>997.02</ele>
        <time>2012-06-10T08:20:38.000Z</time>
      </trkpt>
      <trkpt lat="44.65859" lon="6.64586">
        <ele>997.02</ele>
        <time>2012-06-10T08:20:39.000Z</time>
      </trkpt>
      <trkpt lat="44.65873" lon="6.64638">
        <ele>1000.39</ele>
        <time>2012-06-10T08:20:49.000Z</time>
      </trkpt>
      <trkpt lat="44.65882" lon="6.64698">
        <ele>1003.27</ele>
        <time>2012-06-10T08:21:01.000Z</time>
      </trkpt>
      <trkpt lat="44.65875" lon="6.6475">
        <ele>1005.68</ele>
        <time>2012-06-10T08:21:12.000Z</time>
      </trkpt>
      <trkpt lat="44.65871" lon="6.64793">
        <ele>1007.12</ele>
        <time>2012-06-10T08:21:21.000Z</time>
      </trkpt>
      <trkpt lat="44.65872" lon="6.64797">
        <ele>1008.08</ele>
        <time>2012-06-10T08:21:22.000Z</time>
      </trkpt>
      <trkpt lat="44.65874" lon="6.648">
        <ele>1008.08</ele>
        <time>2012-06-10T08:21:23.000Z</time>
      </trkpt>
      <trkpt lat="44.65877" lon="6.64802">
        <ele>1008.08</ele>
        <time>2012-06-10T08:21:24.000Z</time>
      </trkpt>
      <trkpt lat="44.65879" lon="6.64803">
        <ele>1008.08</ele>
        <time>2012-06-10T08:21:25.000Z</time>
      </trkpt>
      <trkpt lat="44.65887" lon="6.6481">
        <ele>1009.04</ele>
        <time>2012-06-10T08:21:28.000Z</time>
      </trkpt>
      <trkpt lat="44.65886" lon="6.64813">
        <ele>1009.04</ele>
        <time>2012-06-10T08:21:29.000Z</time>
      </trkpt>
      <trkpt lat="44.65885" lon="6.64816">
        <ele>1008.56</ele>
        <time>2012-06-10T08:21:30.000Z</time>
      </trkpt>
      <trkpt lat="44.65885" lon="6.64821">
        <ele>1008.56</ele>
        <time>2012-06-10T08:21:31.000Z</time>
      </trkpt>
      <trkpt lat="44.65885" lon="6.64825">
        <ele>1008.56</ele>
        <time>2012-06-10T08:21:32.000Z</time>
      </trkpt>
      <trkpt lat="44.65886" lon="6.6483">
        <ele>1008.56</ele>
        <time>2012-06-10T08:21:33.000Z</time>
      </trkpt>
      <trkpt lat="44.65899" lon="6.64856">
        <ele>1012.41</ele>
        <time>2012-06-10T08:21:41.000Z</time>
      </trkpt>
      <trkpt lat="44.65905" lon="6.64869">
        <ele>1013.85</ele>
        <time>2012-06-10T08:21:46.000Z</time>
      </trkpt>
      <trkpt lat="44.65905" lon="6.64873">
        <ele>1013.85</ele>
        <time>2012-06-10T08:21:47.000Z</time>
      </trkpt>
      <trkpt lat="44.65888" lon="6.649">
        <ele>1015.77</ele>
        <time>2012-06-10T08:21:57.000Z</time>
      </trkpt>
      <trkpt lat="44.65884" lon="6.64901">
        <ele>1015.77</ele>
        <time>2012-06-10T08:21:58.000Z</time>
      </trkpt>
      <trkpt lat="44.65882" lon="6.649">
        <ele>1015.77</ele>
        <time>2012-06-10T08:21:59.000Z</time>
      </trkpt>
      <trkpt lat="44.6588" lon="6.64898">
        <ele>1016.25</ele>
        <time>2012-06-10T08:22:00.000Z</time>
      </trkpt>
      <trkpt lat="44.65879" lon="6.64896">
        <ele>1016.73</ele>
        <time>2012-06-10T08:22:01.000Z</time>
      </trkpt>
      <trkpt lat="44.6588" lon="6.64894">
        <ele>1016.73</ele>
        <time>2012-06-10T08:22:02.000Z</time>
      </trkpt>
      <trkpt lat="44.65881" lon="6.64893">
        <ele>1017.21</ele>
        <time>2012-06-10T08:22:03.000Z</time>
      </trkpt>
      <trkpt lat="44.65882" lon="6.64891">
        <ele>1017.21</ele>
        <time>2012-06-10T08:22:04.000Z</time>
      </trkpt>
      <trkpt lat="44.65883" lon="6.64889">
        <ele>1018.17</ele>
        <time>2012-06-10T08:22:05.000Z</time>
      </trkpt>
      <trkpt lat="44.65883" lon="6.64888">
        <ele>1018.17</ele>
        <time>2012-06-10T08:22:06.000Z</time>
      </trkpt>
      <trkpt lat="44.6588" lon="6.64882">
        <ele>1020.58</ele>
        <time>2012-06-10T08:22:11.000Z</time>
      </trkpt>
      <trkpt lat="44.65879" lon="6.64873">
        <ele>1023.46</ele>
        <time>2012-06-10T08:22:20.000Z</time>
      </trkpt>
      <trkpt lat="44.65909" lon="6.6488">
        <ele>1023.94</ele>
        <time>2012-06-10T08:22:25.000Z</time>
      </trkpt>
      <trkpt lat="44.65911" lon="6.64882">
        <ele>1023.94</ele>
        <time>2012-06-10T08:22:26.000Z</time>
      </trkpt>
      <trkpt lat="44.65912" lon="6.64884">
        <ele>1024.42</ele>
        <time>2012-06-10T08:22:27.000Z</time>
      </trkpt>
      <trkpt lat="44.65953" lon="6.64922">
        <ele>1024.9</ele>
        <time>2012-06-10T08:22:38.000Z</time>
      </trkpt>
      <trkpt lat="44.65974" lon="6.64945">
        <ele>1024.42</ele>
        <time>2012-06-10T08:22:43.000Z</time>
      </trkpt>
      <trkpt lat="44.65976" lon="6.64951">
        <ele>1024.42</ele>
        <time>2012-06-10T08:22:44.000Z</time>
      </trkpt>
      <trkpt lat="44.66003" lon="6.65007">
        <ele>1026.83</ele>
        <time>2012-06-10T08:22:55.000Z</time>
      </trkpt>
      <trkpt lat="44.66022" lon="6.65054">
        <ele>1029.23</ele>
        <time>2012-06-10T08:23:06.000Z</time>
      </trkpt>
      <trkpt lat="44.66028" lon="6.65067">
        <ele>1030.67</ele>
        <time>2012-06-10T08:23:10.000Z</time>
      </trkpt>
      <trkpt lat="44.66031" lon="6.65067">
        <ele>1030.67</ele>
        <time>2012-06-10T08:23:11.000Z</time>
      </trkpt>
      <trkpt lat="44.66034" lon="6.65067">
        <ele>1031.63</ele>
        <time>2012-06-10T08:23:12.000Z</time>
      </trkpt>
      <trkpt lat="44.66036" lon="6.65066">
        <ele>1031.63</ele>
        <time>2012-06-10T08:23:13.000Z</time>
      </trkpt>
      <trkpt lat="44.66039" lon="6.65064">
        <ele>1032.11</ele>
        <time>2012-06-10T08:23:14.000Z</time>
      </trkpt>
      <trkpt lat="44.66042" lon="6.65062">
        <ele>1032.11</ele>
        <time>2012-06-10T08:23:15.000Z</time>
      </trkpt>
      <trkpt lat="44.66072" lon="6.6504">
        <ele>1034.04</ele>
        <time>2012-06-10T08:23:26.000Z</time>
      </trkpt>
      <trkpt lat="44.66095" lon="6.64984">
        <ele>1036.44</ele>
        <time>2012-06-10T08:23:39.000Z</time>
      </trkpt>
      <trkpt lat="44.66115" lon="6.64964">
        <ele>1039.8</ele>
        <time>2012-06-10T08:23:48.000Z</time>
      </trkpt>
      <trkpt lat="44.66139" lon="6.64946">
        <ele>1042.69</ele>
        <time>2012-06-10T08:24:00.000Z</time>
      </trkpt>
      <trkpt lat="44.66164" lon="6.64928">
        <ele>1046.05</ele>
        <time>2012-06-10T08:24:12.000Z</time>
      </trkpt>
      <trkpt lat="44.66182" lon="6.64902">
        <ele>1048.94</ele>
        <time>2012-06-10T08:24:24.000Z</time>
      </trkpt>
      <trkpt lat="44.66198" lon="6.64877">
        <ele>1051.34</ele>
        <time>2012-06-10T08:24:35.000Z</time>
      </trkpt>
      <trkpt lat="44.66208" lon="6.64842">
        <ele>1054.22</ele>
        <time>2012-06-10T08:24:48.000Z</time>
      </trkpt>
      <trkpt lat="44.66219" lon="6.64817">
        <ele>1057.59</ele>
        <time>2012-06-10T08:25:00.000Z</time>
      </trkpt>
      <trkpt lat="44.66232" lon="6.64799">
        <ele>1060.47</ele>
        <time>2012-06-10T08:25:10.000Z</time>
      </trkpt>
      <trkpt lat="44.66253" lon="6.6478">
        <ele>1063.84</ele>
        <time>2012-06-10T08:25:24.000Z</time>
      </trkpt>
      <trkpt lat="44.66271" lon="6.64761">
        <ele>1066.72</ele>
        <time>2012-06-10T08:25:37.000Z</time>
      </trkpt>
      <trkpt lat="44.66291" lon="6.6474">
        <ele>1068.64</ele>
        <time>2012-06-10T08:25:50.000Z</time>
      </trkpt>
      <trkpt lat="44.66299" lon="6.64732">
        <ele>1070.08</ele>
        <time>2012-06-10T08:25:55.000Z</time>
      </trkpt>
      <trkpt lat="44.66299" lon="6.6473">
        <ele>1070.08</ele>
        <time>2012-06-10T08:25:56.000Z</time>
      </trkpt>
      <trkpt lat="44.66301" lon="6.64728">
        <ele>1070.57</ele>
        <time>2012-06-10T08:25:57.000Z</time>
      </trkpt>
      <trkpt lat="44.66303" lon="6.64727">
        <ele>1071.05</ele>
        <time>2012-06-10T08:25:58.000Z</time>
      </trkpt>
      <trkpt lat="44.66305" lon="6.64725">
        <ele>1071.05</ele>
        <time>2012-06-10T08:25:59.000Z</time>
      </trkpt>
      <trkpt lat="44.66325" lon="6.64706">
        <ele>1072.97</ele>
        <time>2012-06-10T08:26:11.000Z</time>
      </trkpt>
      <trkpt lat="44.66348" lon="6.64689">
        <ele>1073.45</ele>
        <time>2012-06-10T08:26:22.000Z</time>
      </trkpt>
      <trkpt lat="44.66349" lon="6.6469">
        <ele>1073.45</ele>
        <time>2012-06-10T08:26:23.000Z</time>
      </trkpt>
      <trkpt lat="44.66351" lon="6.6469">
        <ele>1073.45</ele>
        <time>2012-06-10T08:26:24.000Z</time>
      </trkpt>
      <trkpt lat="44.66354" lon="6.64689">
        <ele>1073.45</ele>
        <time>2012-06-10T08:26:25.000Z</time>
      </trkpt>
      <trkpt lat="44.66357" lon="6.64688">
        <ele>1073.45</ele>
        <time>2012-06-10T08:26:26.000Z</time>
      </trkpt>
      <trkpt lat="44.66361" lon="6.64687">
        <ele>1073.45</ele>
        <time>2012-06-10T08:26:27.000Z</time>
      </trkpt>
      <trkpt lat="44.66365" lon="6.64686">
        <ele>1073.45</ele>
        <time>2012-06-10T08:26:28.000Z</time>
      </trkpt>
      <trkpt lat="44.66382" lon="6.64681">
        <ele>1073.93</ele>
        <time>2012-06-10T08:26:32.000Z</time>
      </trkpt>
      <trkpt lat="44.66386" lon="6.64679">
        <ele>1073.45</ele>
        <time>2012-06-10T08:26:33.000Z</time>
      </trkpt>
      <trkpt lat="44.6639" lon="6.64677">
        <ele>1073.93</ele>
        <time>2012-06-10T08:26:34.000Z</time>
      </trkpt>
      <trkpt lat="44.66394" lon="6.64675">
        <ele>1073.93</ele>
        <time>2012-06-10T08:26:35.000Z</time>
      </trkpt>
      <trkpt lat="44.66398" lon="6.64674">
        <ele>1073.45</ele>
        <time>2012-06-10T08:26:36.000Z</time>
      </trkpt>
      <trkpt lat="44.66403" lon="6.64674">
        <ele>1073.45</ele>
        <time>2012-06-10T08:26:37.000Z</time>
      </trkpt>
      <trkpt lat="44.66408" lon="6.64675">
        <ele>1073.93</ele>
        <time>2012-06-10T08:26:38.000Z</time>
      </trkpt>
      <trkpt lat="44.66481" lon="6.64686">
        <ele>1071.05</ele>
        <time>2012-06-10T08:26:50.000Z</time>
      </trkpt>
      <trkpt lat="44.66502" lon="6.64688">
        <ele>1070.08</ele>
        <time>2012-06-10T08:26:53.000Z</time>
      </trkpt>
      <trkpt lat="44.6651" lon="6.64687">
        <ele>1069.6</ele>
        <time>2012-06-10T08:26:54.000Z</time>
      </trkpt>
      <trkpt lat="44.66562" lon="6.64674">
        <ele>1068.64</ele>
        <time>2012-06-10T08:27:01.000Z</time>
      </trkpt>
      <trkpt lat="44.66582" lon="6.64663">
        <ele>1068.64</ele>
        <time>2012-06-10T08:27:04.000Z</time>
      </trkpt>
      <trkpt lat="44.66637" lon="6.64614">
        <ele>1068.64</ele>
        <time>2012-06-10T08:27:14.000Z</time>
      </trkpt>
      <trkpt lat="44.66642" lon="6.64611">
        <ele>1068.64</ele>
        <time>2012-06-10T08:27:15.000Z</time>
      </trkpt>
      <trkpt lat="44.66726" lon="6.64582">
        <ele>1067.68</ele>
        <time>2012-06-10T08:27:28.000Z</time>
      </trkpt>
      <trkpt lat="44.66801" lon="6.64523">
        <ele>1068.16</ele>
        <time>2012-06-10T08:27:42.000Z</time>
      </trkpt>
      <trkpt lat="44.66833" lon="6.64486">
        <ele>1070.57</ele>
        <time>2012-06-10T08:27:50.000Z</time>
      </trkpt>
      <trkpt lat="44.66837" lon="6.6448">
        <ele>1070.57</ele>
        <time>2012-06-10T08:27:51.000Z</time>
      </trkpt>
      <trkpt lat="44.66839" lon="6.64474">
        <ele>1070.57</ele>
        <time>2012-06-10T08:27:52.000Z</time>
      </trkpt>
      <trkpt lat="44.66842" lon="6.64468">
        <ele>1070.57</ele>
        <time>2012-06-10T08:27:53.000Z</time>
      </trkpt>
      <trkpt lat="44.66843" lon="6.64462">
        <ele>1071.05</ele>
        <time>2012-06-10T08:27:54.000Z</time>
      </trkpt>
      <trkpt lat="44.66846" lon="6.64457">
        <ele>1071.05</ele>
        <time>2012-06-10T08:27:55.000Z</time>
      </trkpt>
      <trkpt lat="44.66849" lon="6.64452">
        <ele>1071.05</ele>
        <time>2012-06-10T08:27:56.000Z</time>
      </trkpt>
      <trkpt lat="44.66853" lon="6.64448">
        <ele>1071.53</ele>
        <time>2012-06-10T08:27:57.000Z</time>
      </trkpt>
      <trkpt lat="44.66854" lon="6.64445">
        <ele>1072.01</ele>
        <time>2012-06-10T08:27:58.000Z</time>
      </trkpt>
      <trkpt lat="44.66856" lon="6.64441">
        <ele>1072.01</ele>
        <time>2012-06-10T08:27:59.000Z</time>
      </trkpt>
      <trkpt lat="44.66869" lon="6.64423">
        <ele>1072.01</ele>
        <time>2012-06-10T08:28:05.000Z</time>
      </trkpt>
      <trkpt lat="44.6687" lon="6.64421">
        <ele>1071.53</ele>
        <time>2012-06-10T08:28:06.000Z</time>
      </trkpt>
      <trkpt lat="44.66871" lon="6.64417">
        <ele>1071.53</ele>
        <time>2012-06-10T08:28:07.000Z</time>
      </trkpt>
      <trkpt lat="44.66874" lon="6.64414">
        <ele>1070.57</ele>
        <time>2012-06-10T08:28:08.000Z</time>
      </trkpt>
      <trkpt lat="44.66876" lon="6.64412">
        <ele>1070.57</ele>
        <time>2012-06-10T08:28:09.000Z</time>
      </trkpt>
      <trkpt lat="44.6688" lon="6.64414">
        <ele>1069.6</ele>
        <time>2012-06-10T08:28:11.000Z</time>
      </trkpt>
      <trkpt lat="44.66879" lon="6.6443">
        <ele>1066.24</ele>
        <time>2012-06-10T08:28:15.000Z</time>
      </trkpt>
      <trkpt lat="44.66878" lon="6.64435">
        <ele>1065.28</ele>
        <time>2012-06-10T08:28:16.000Z</time>
      </trkpt>
      <trkpt lat="44.66877" lon="6.64441">
        <ele>1063.36</ele>
        <time>2012-06-10T08:28:17.000Z</time>
      </trkpt>
      <trkpt lat="44.66877" lon="6.64449">
        <ele>1060.95</ele>
        <time>2012-06-10T08:28:19.000Z</time>
      </trkpt>
      <trkpt lat="44.66878" lon="6.64454">
        <ele>1059.51</ele>
        <time>2012-06-10T08:28:20.000Z</time>
      </trkpt>
      <trkpt lat="44.66879" lon="6.64459">
        <ele>1057.59</ele>
        <time>2012-06-10T08:28:21.000Z</time>
      </trkpt>
      <trkpt lat="44.6688" lon="6.6446">
        <ele>1056.63</ele>
        <time>2012-06-10T08:28:22.000Z</time>
      </trkpt>
      <trkpt lat="44.66882" lon="6.64459">
        <ele>1056.15</ele>
        <time>2012-06-10T08:28:23.000Z</time>
      </trkpt>
      <trkpt lat="44.66884" lon="6.64456">
        <ele>1055.18</ele>
        <time>2012-06-10T08:28:24.000Z</time>
      </trkpt>
      <trkpt lat="44.66886" lon="6.64454">
        <ele>1053.74</ele>
        <time>2012-06-10T08:28:25.000Z</time>
      </trkpt>
      <trkpt lat="44.66888" lon="6.64453">
        <ele>1053.26</ele>
        <time>2012-06-10T08:28:26.000Z</time>
      </trkpt>
      <trkpt lat="44.66889" lon="6.64451">
        <ele>1052.78</ele>
        <time>2012-06-10T08:28:27.000Z</time>
      </trkpt>
      <trkpt lat="44.6689" lon="6.64449">
        <ele>1052.3</ele>
        <time>2012-06-10T08:28:28.000Z</time>
      </trkpt>
      <trkpt lat="44.6689" lon="6.64446">
        <ele>1051.82</ele>
        <time>2012-06-10T08:28:29.000Z</time>
      </trkpt>
      <trkpt lat="44.6689" lon="6.64441">
        <ele>1051.34</ele>
        <time>2012-06-10T08:28:30.000Z</time>
      </trkpt>
      <trkpt lat="44.6689" lon="6.64436">
        <ele>1051.34</ele>
        <time>2012-06-10T08:28:31.000Z</time>
      </trkpt>
      <trkpt lat="44.6689" lon="6.64431">
        <ele>1050.38</ele>
        <time>2012-06-10T08:28:32.000Z</time>
      </trkpt>
      <trkpt lat="44.6689" lon="6.64426">
        <ele>1049.9</ele>
        <time>2012-06-10T08:28:33.000Z</time>
      </trkpt>
      <trkpt lat="44.66891" lon="6.64421">
        <ele>1049.9</ele>
        <time>2012-06-10T08:28:34.000Z</time>
      </trkpt>
      <trkpt lat="44.66893" lon="6.64409">
        <ele>1047.49</ele>
        <time>2012-06-10T08:28:36.000Z</time>
      </trkpt>
      <trkpt lat="44.66897" lon="6.64393">
        <ele>1046.53</ele>
        <time>2012-06-10T08:28:38.000Z</time>
      </trkpt>
      <trkpt lat="44.66898" lon="6.64367">
        <ele>1048.94</ele>
        <time>2012-06-10T08:28:43.000Z</time>
      </trkpt>
      <trkpt lat="44.66898" lon="6.64362">
        <ele>1050.38</ele>
        <time>2012-06-10T08:28:45.000Z</time>
      </trkpt>
      <trkpt lat="44.66897" lon="6.64354">
        <ele>1050.86</ele>
        <time>2012-06-10T08:28:48.000Z</time>
      </trkpt>
      <trkpt lat="44.66897" lon="6.6435">
        <ele>1051.34</ele>
        <time>2012-06-10T08:28:49.000Z</time>
      </trkpt>
      <trkpt lat="44.66898" lon="6.64346">
        <ele>1051.34</ele>
        <time>2012-06-10T08:28:50.000Z</time>
      </trkpt>
      <trkpt lat="44.66907" lon="6.64327">
        <ele>1051.34</ele>
        <time>2012-06-10T08:28:54.000Z</time>
      </trkpt>
      <trkpt lat="44.66912" lon="6.64314">
        <ele>1050.86</ele>
        <time>2012-06-10T08:28:56.000Z</time>
      </trkpt>
      <trkpt lat="44.66914" lon="6.64307">
        <ele>1050.86</ele>
        <time>2012-06-10T08:28:57.000Z</time>
      </trkpt>
      <trkpt lat="44.66919" lon="6.64291">
        <ele>1052.78</ele>
        <time>2012-06-10T08:29:01.000Z</time>
      </trkpt>
      <trkpt lat="44.6692" lon="6.64287">
        <ele>1053.26</ele>
        <time>2012-06-10T08:29:02.000Z</time>
      </trkpt>
      <trkpt lat="44.66922" lon="6.64281">
        <ele>1054.22</ele>
        <time>2012-06-10T08:29:04.000Z</time>
      </trkpt>
      <trkpt lat="44.66922" lon="6.64278">
        <ele>1054.22</ele>
        <time>2012-06-10T08:29:05.000Z</time>
      </trkpt>
      <trkpt lat="44.6692" lon="6.64275">
        <ele>1054.7</ele>
        <time>2012-06-10T08:29:06.000Z</time>
      </trkpt>
      <trkpt lat="44.66919" lon="6.64273">
        <ele>1055.18</ele>
        <time>2012-06-10T08:29:07.000Z</time>
      </trkpt>
      <trkpt lat="44.66919" lon="6.6427">
        <ele>1055.67</ele>
        <time>2012-06-10T08:29:08.000Z</time>
      </trkpt>
      <trkpt lat="44.66919" lon="6.64268">
        <ele>1055.67</ele>
        <time>2012-06-10T08:29:09.000Z</time>
      </trkpt>
      <trkpt lat="44.66919" lon="6.64265">
        <ele>1056.15</ele>
        <time>2012-06-10T08:29:10.000Z</time>
      </trkpt>
      <trkpt lat="44.66919" lon="6.64263">
        <ele>1056.15</ele>
        <time>2012-06-10T08:29:11.000Z</time>
      </trkpt>
      <trkpt lat="44.6692" lon="6.64245">
        <ele>1056.15</ele>
        <time>2012-06-10T08:29:15.000Z</time>
      </trkpt>
      <trkpt lat="44.6692" lon="6.64241">
        <ele>1056.15</ele>
        <time>2012-06-10T08:29:17.000Z</time>
      </trkpt>
      <trkpt lat="44.6692" lon="6.64237">
        <ele>1055.67</ele>
        <time>2012-06-10T08:29:18.000Z</time>
      </trkpt>
      <trkpt lat="44.66922" lon="6.64233">
        <ele>1054.7</ele>
        <time>2012-06-10T08:29:19.000Z</time>
      </trkpt>
      <trkpt lat="44.66927" lon="6.64217">
        <ele>1051.82</ele>
        <time>2012-06-10T08:29:22.000Z</time>
      </trkpt>
      <trkpt lat="44.66933" lon="6.642">
        <ele>1049.9</ele>
        <time>2012-06-10T08:29:24.000Z</time>
      </trkpt>
      <trkpt lat="44.66935" lon="6.64194">
        <ele>1049.9</ele>
        <time>2012-06-10T08:29:25.000Z</time>
      </trkpt>
      <trkpt lat="44.6694" lon="6.64183">
        <ele>1049.9</ele>
        <time>2012-06-10T08:29:27.000Z</time>
      </trkpt>
      <trkpt lat="44.66943" lon="6.64166">
        <ele>1048.45</ele>
        <time>2012-06-10T08:29:30.000Z</time>
      </trkpt>
      <trkpt lat="44.66948" lon="6.64123">
        <ele>1048.45</ele>
        <time>2012-06-10T08:29:43.000Z</time>
      </trkpt>
      <trkpt lat="44.66946" lon="6.64117">
        <ele>1051.34</ele>
        <time>2012-06-10T08:29:49.000Z</time>
      </trkpt>
      <trkpt lat="44.66944" lon="6.64106">
        <ele>1054.22</ele>
        <time>2012-06-10T08:29:58.000Z</time>
      </trkpt>
      <trkpt lat="44.66945" lon="6.64099">
        <ele>1057.11</ele>
        <time>2012-06-10T08:30:08.000Z</time>
      </trkpt>
      <trkpt lat="44.66948" lon="6.64091">
        <ele>1057.11</ele>
        <time>2012-06-10T08:30:16.000Z</time>
      </trkpt>
      <trkpt lat="44.66948" lon="6.64088">
        <ele>1056.63</ele>
        <time>2012-06-10T08:30:17.000Z</time>
      </trkpt>
      <trkpt lat="44.66949" lon="6.64085">
        <ele>1055.67</ele>
        <time>2012-06-10T08:30:18.000Z</time>
      </trkpt>
      <trkpt lat="44.6695" lon="6.6408">
        <ele>1054.22</ele>
        <time>2012-06-10T08:30:19.000Z</time>
      </trkpt>
      <trkpt lat="44.66953" lon="6.64073">
        <ele>1053.26</ele>
        <time>2012-06-10T08:30:20.000Z</time>
      </trkpt>
      <trkpt lat="44.66959" lon="6.64051">
        <ele>1050.38</ele>
        <time>2012-06-10T08:30:23.000Z</time>
      </trkpt>
      <trkpt lat="44.66965" lon="6.64028">
        <ele>1047.97</ele>
        <time>2012-06-10T08:30:28.000Z</time>
      </trkpt>
      <trkpt lat="44.66964" lon="6.6402">
        <ele>1045.57</ele>
        <time>2012-06-10T08:30:31.000Z</time>
      </trkpt>
      <trkpt lat="44.66964" lon="6.64015">
        <ele>1042.69</ele>
        <time>2012-06-10T08:30:35.000Z</time>
      </trkpt>
      <trkpt lat="44.66967" lon="6.64013">
        <ele>1041.25</ele>
        <time>2012-06-10T08:30:39.000Z</time>
      </trkpt>
      <trkpt lat="44.66968" lon="6.64015">
        <ele>1041.25</ele>
        <time>2012-06-10T08:30:40.000Z</time>
      </trkpt>
      <trkpt lat="44.66972" lon="6.64013">
        <ele>1039.32</ele>
        <time>2012-06-10T08:30:42.000Z</time>
      </trkpt>
      <trkpt lat="44.66977" lon="6.64006">
        <ele>1037.4</ele>
        <time>2012-06-10T08:30:44.000Z</time>
      </trkpt>
      <trkpt lat="44.66979" lon="6.64003">
        <ele>1035.96</ele>
        <time>2012-06-10T08:30:45.000Z</time>
      </trkpt>
      <trkpt lat="44.66978" lon="6.64">
        <ele>1035</ele>
        <time>2012-06-10T08:30:46.000Z</time>
      </trkpt>
      <trkpt lat="44.66979" lon="6.63996">
        <ele>1034.04</ele>
        <time>2012-06-10T08:30:47.000Z</time>
      </trkpt>
      <trkpt lat="44.6698" lon="6.63993">
        <ele>1033.07</ele>
        <time>2012-06-10T08:30:48.000Z</time>
      </trkpt>
      <trkpt lat="44.66984" lon="6.63986">
        <ele>1030.19</ele>
        <time>2012-06-10T08:30:51.000Z</time>
      </trkpt>
      <trkpt lat="44.66989" lon="6.63982">
        <ele>1028.27</ele>
        <time>2012-06-10T08:30:54.000Z</time>
      </trkpt>
      <trkpt lat="44.66997" lon="6.63973">
        <ele>1024.42</ele>
        <time>2012-06-10T08:30:59.000Z</time>
      </trkpt>
      <trkpt lat="44.66999" lon="6.63972">
        <ele>1022.5</ele>
        <time>2012-06-10T08:31:00.000Z</time>
      </trkpt>
      <trkpt lat="44.67001" lon="6.6397">
        <ele>1021.06</ele>
        <time>2012-06-10T08:31:01.000Z</time>
      </trkpt>
      <trkpt lat="44.67003" lon="6.63961">
        <ele>1019.13</ele>
        <time>2012-06-10T08:31:03.000Z</time>
      </trkpt>
      <trkpt lat="44.67005" lon="6.63954">
        <ele>1018.17</ele>
        <time>2012-06-10T08:31:04.000Z</time>
      </trkpt>
      <trkpt lat="44.67011" lon="6.63928">
        <ele>1014.81</ele>
        <time>2012-06-10T08:31:07.000Z</time>
      </trkpt>
      <trkpt lat="44.67013" lon="6.63919">
        <ele>1014.33</ele>
        <time>2012-06-10T08:31:08.000Z</time>
      </trkpt>
      <trkpt lat="44.67014" lon="6.63909">
        <ele>1012.89</ele>
        <time>2012-06-10T08:31:09.000Z</time>
      </trkpt>
      <trkpt lat="44.67014" lon="6.63899">
        <ele>1012.89</ele>
        <time>2012-06-10T08:31:10.000Z</time>
      </trkpt>
      <trkpt lat="44.67013" lon="6.63885">
        <ele>1015.29</ele>
        <time>2012-06-10T08:31:16.000Z</time>
      </trkpt>
      <trkpt lat="44.67012" lon="6.63882">
        <ele>1015.77</ele>
        <time>2012-06-10T08:31:18.000Z</time>
      </trkpt>
      <trkpt lat="44.67013" lon="6.63878">
        <ele>1015.77</ele>
        <time>2012-06-10T08:31:19.000Z</time>
      </trkpt>
      <trkpt lat="44.67011" lon="6.63847">
        <ele>1017.21</ele>
        <time>2012-06-10T08:31:28.000Z</time>
      </trkpt>
      <trkpt lat="44.67007" lon="6.63829">
        <ele>1018.17</ele>
        <time>2012-06-10T08:31:36.000Z</time>
      </trkpt>
      <trkpt lat="44.67007" lon="6.63825">
        <ele>1018.65</ele>
        <time>2012-06-10T08:31:37.000Z</time>
      </trkpt>
      <trkpt lat="44.67001" lon="6.63819">
        <ele>1020.1</ele>
        <time>2012-06-10T08:31:40.000Z</time>
      </trkpt>
      <trkpt lat="44.66996" lon="6.63813">
        <ele>1022.02</ele>
        <time>2012-06-10T08:31:46.000Z</time>
      </trkpt>
      <trkpt lat="44.66996" lon="6.63812">
        <ele>1022.02</ele>
        <time>2012-06-10T08:31:47.000Z</time>
      </trkpt>
      <trkpt lat="44.66994" lon="6.6381">
        <ele>1022.5</ele>
        <time>2012-06-10T08:31:48.000Z</time>
      </trkpt>
      <trkpt lat="44.66994" lon="6.63808">
        <ele>1022.02</ele>
        <time>2012-06-10T08:31:49.000Z</time>
      </trkpt>
      <trkpt lat="44.66993" lon="6.63806">
        <ele>1022.5</ele>
        <time>2012-06-10T08:31:50.000Z</time>
      </trkpt>
      <trkpt lat="44.66994" lon="6.63801">
        <ele>1020.58</ele>
        <time>2012-06-10T08:31:53.000Z</time>
      </trkpt>
      <trkpt lat="44.66997" lon="6.63787">
        <ele>1017.69</ele>
        <time>2012-06-10T08:31:58.000Z</time>
      </trkpt>
      <trkpt lat="44.67" lon="6.63786">
        <ele>1016.25</ele>
        <time>2012-06-10T08:32:02.000Z</time>
      </trkpt>
      <trkpt lat="44.67002" lon="6.63793">
        <ele>1014.33</ele>
        <time>2012-06-10T08:32:07.000Z</time>
      </trkpt>
      <trkpt lat="44.67005" lon="6.63788">
        <ele>1012.41</ele>
        <time>2012-06-10T08:32:10.000Z</time>
      </trkpt>
      <trkpt lat="44.67008" lon="6.63778">
        <ele>1010.48</ele>
        <time>2012-06-10T08:32:13.000Z</time>
      </trkpt>
      <trkpt lat="44.6701" lon="6.63775">
        <ele>1008.56</ele>
        <time>2012-06-10T08:32:14.000Z</time>
      </trkpt>
      <trkpt lat="44.67012" lon="6.63771">
        <ele>1007.12</ele>
        <time>2012-06-10T08:32:15.000Z</time>
      </trkpt>
      <trkpt lat="44.67017" lon="6.63751">
        <ele>1004.23</ele>
        <time>2012-06-10T08:32:19.000Z</time>
      </trkpt>
      <trkpt lat="44.67017" lon="6.63745">
        <ele>1003.75</ele>
        <time>2012-06-10T08:32:20.000Z</time>
      </trkpt>
      <trkpt lat="44.67017" lon="6.63738">
        <ele>1002.79</ele>
        <time>2012-06-10T08:32:21.000Z</time>
      </trkpt>
      <trkpt lat="44.67017" lon="6.6373">
        <ele>1001.83</ele>
        <time>2012-06-10T08:32:22.000Z</time>
      </trkpt>
      <trkpt lat="44.67013" lon="6.63701">
        <ele>997.99</ele>
        <time>2012-06-10T08:32:26.000Z</time>
      </trkpt>
      <trkpt lat="44.67014" lon="6.63696">
        <ele>997.99</ele>
        <time>2012-06-10T08:32:27.000Z</time>
      </trkpt>
      <trkpt lat="44.67015" lon="6.63689">
        <ele>995.58</ele>
        <time>2012-06-10T08:32:31.000Z</time>
      </trkpt>
      <trkpt lat="44.67017" lon="6.63687">
        <ele>995.58</ele>
        <time>2012-06-10T08:32:32.000Z</time>
      </trkpt>
      <trkpt lat="44.67019" lon="6.63685">
        <ele>996.06</ele>
        <time>2012-06-10T08:32:33.000Z</time>
      </trkpt>
      <trkpt lat="44.67012" lon="6.63647">
        <ele>995.1</ele>
        <time>2012-06-10T08:32:40.000Z</time>
      </trkpt>
      <trkpt lat="44.67009" lon="6.63641">
        <ele>994.14</ele>
        <time>2012-06-10T08:32:41.000Z</time>
      </trkpt>
      <trkpt lat="44.67005" lon="6.6363">
        <ele>992.22</ele>
        <time>2012-06-10T08:32:43.000Z</time>
      </trkpt>
      <trkpt lat="44.67002" lon="6.63624">
        <ele>991.74</ele>
        <time>2012-06-10T08:32:44.000Z</time>
      </trkpt>
      <trkpt lat="44.66994" lon="6.63594">
        <ele>988.85</ele>
        <time>2012-06-10T08:32:49.000Z</time>
      </trkpt>
      <trkpt lat="44.66982" lon="6.63584">
        <ele>985.49</ele>
        <time>2012-06-10T08:32:55.000Z</time>
      </trkpt>
      <trkpt lat="44.6698" lon="6.63585">
        <ele>985.49</ele>
        <time>2012-06-10T08:32:56.000Z</time>
      </trkpt>
      <trkpt lat="44.6698" lon="6.63587">
        <ele>985.49</ele>
        <time>2012-06-10T08:32:57.000Z</time>
      </trkpt>
      <trkpt lat="44.66981" lon="6.63589">
        <ele>985.01</ele>
        <time>2012-06-10T08:32:58.000Z</time>
      </trkpt>
      <trkpt lat="44.66982" lon="6.6359">
        <ele>984.53</ele>
        <time>2012-06-10T08:32:59.000Z</time>
      </trkpt>
      <trkpt lat="44.66983" lon="6.63591">
        <ele>984.53</ele>
        <time>2012-06-10T08:33:00.000Z</time>
      </trkpt>
      <trkpt lat="44.66978" lon="6.63588">
        <ele>982.6</ele>
        <time>2012-06-10T08:33:03.000Z</time>
      </trkpt>
      <trkpt lat="44.66975" lon="6.63587">
        <ele>981.16</ele>
        <time>2012-06-10T08:33:07.000Z</time>
      </trkpt>
      <trkpt lat="44.66977" lon="6.63588">
        <ele>980.2</ele>
        <time>2012-06-10T08:33:08.000Z</time>
      </trkpt>
      <trkpt lat="44.66982" lon="6.63592">
        <ele>978.76</ele>
        <time>2012-06-10T08:33:10.000Z</time>
      </trkpt>
      <trkpt lat="44.66984" lon="6.63592">
        <ele>976.84</ele>
        <time>2012-06-10T08:33:11.000Z</time>
      </trkpt>
      <trkpt lat="44.6699" lon="6.63593">
        <ele>975.39</ele>
        <time>2012-06-10T08:33:14.000Z</time>
      </trkpt>
      <trkpt lat="44.66997" lon="6.63596">
        <ele>973.47</ele>
        <time>2012-06-10T08:33:18.000Z</time>
      </trkpt>
      <trkpt lat="44.66999" lon="6.63595">
        <ele>972.99</ele>
        <time>2012-06-10T08:33:19.000Z</time>
      </trkpt>
      <trkpt lat="44.67" lon="6.63594">
        <ele>972.03</ele>
        <time>2012-06-10T08:33:20.000Z</time>
      </trkpt>
      <trkpt lat="44.67004" lon="6.63588">
        <ele>970.59</ele>
        <time>2012-06-10T08:33:22.000Z</time>
      </trkpt>
      <trkpt lat="44.67002" lon="6.63577">
        <ele>968.18</ele>
        <time>2012-06-10T08:33:25.000Z</time>
      </trkpt>
      <trkpt lat="44.66997" lon="6.63562">
        <ele>966.26</ele>
        <time>2012-06-10T08:33:28.000Z</time>
      </trkpt>
      <trkpt lat="44.66993" lon="6.63552">
        <ele>964.82</ele>
        <time>2012-06-10T08:33:30.000Z</time>
      </trkpt>
      <trkpt lat="44.66991" lon="6.63538">
        <ele>961.46</ele>
        <time>2012-06-10T08:33:33.000Z</time>
      </trkpt>
      <trkpt lat="44.66987" lon="6.63531">
        <ele>960.49</ele>
        <time>2012-06-10T08:33:35.000Z</time>
      </trkpt>
      <trkpt lat="44.66985" lon="6.63526">
        <ele>959.05</ele>
        <time>2012-06-10T08:33:36.000Z</time>
      </trkpt>
      <trkpt lat="44.66979" lon="6.63511">
        <ele>956.17</ele>
        <time>2012-06-10T08:33:39.000Z</time>
      </trkpt>
      <trkpt lat="44.66972" lon="6.63506">
        <ele>954.25</ele>
        <time>2012-06-10T08:33:42.000Z</time>
      </trkpt>
      <trkpt lat="44.66971" lon="6.63501">
        <ele>953.28</ele>
        <time>2012-06-10T08:33:43.000Z</time>
      </trkpt>
      <trkpt lat="44.66975" lon="6.63481">
        <ele>949.92</ele>
        <time>2012-06-10T08:33:47.000Z</time>
      </trkpt>
      <trkpt lat="44.66975" lon="6.63476">
        <ele>948.96</ele>
        <time>2012-06-10T08:33:48.000Z</time>
      </trkpt>
      <trkpt lat="44.66969" lon="6.63459">
        <ele>945.59</ele>
        <time>2012-06-10T08:33:52.000Z</time>
      </trkpt>
      <trkpt lat="44.66967" lon="6.63449">
        <ele>942.23</ele>
        <time>2012-06-10T08:33:54.000Z</time>
      </trkpt>
      <trkpt lat="44.66965" lon="6.63444">
        <ele>942.23</ele>
        <time>2012-06-10T08:33:55.000Z</time>
      </trkpt>
      <trkpt lat="44.6696" lon="6.63415">
        <ele>939.35</ele>
        <time>2012-06-10T08:34:00.000Z</time>
      </trkpt>
      <trkpt lat="44.66941" lon="6.63374">
        <ele>940.79</ele>
        <time>2012-06-10T08:34:09.000Z</time>
      </trkpt>
      <trkpt lat="44.66936" lon="6.63365">
        <ele>940.31</ele>
        <time>2012-06-10T08:34:11.000Z</time>
      </trkpt>
      <trkpt lat="44.66932" lon="6.6336">
        <ele>940.79</ele>
        <time>2012-06-10T08:34:12.000Z</time>
      </trkpt>
      <trkpt lat="44.66918" lon="6.63332">
        <ele>942.23</ele>
        <time>2012-06-10T08:34:18.000Z</time>
      </trkpt>
      <trkpt lat="44.66911" lon="6.63302">
        <ele>942.23</ele>
        <time>2012-06-10T08:34:24.000Z</time>
      </trkpt>
      <trkpt lat="44.66908" lon="6.63266">
        <ele>942.71</ele>
        <time>2012-06-10T08:34:32.000Z</time>
      </trkpt>
      <trkpt lat="44.66908" lon="6.63258">
        <ele>942.71</ele>
        <time>2012-06-10T08:34:34.000Z</time>
      </trkpt>
      <trkpt lat="44.66902" lon="6.63213">
        <ele>941.75</ele>
        <time>2012-06-10T08:34:44.000Z</time>
      </trkpt>
      <trkpt lat="44.66898" lon="6.63203">
        <ele>943.67</ele>
        <time>2012-06-10T08:34:47.000Z</time>
      </trkpt>
      <trkpt lat="44.66897" lon="6.63201">
        <ele>944.63</ele>
        <time>2012-06-10T08:34:48.000Z</time>
      </trkpt>
      <trkpt lat="44.66894" lon="6.63198">
        <ele>945.11</ele>
        <time>2012-06-10T08:34:49.000Z</time>
      </trkpt>
      <trkpt lat="44.6689" lon="6.63167">
        <ele>941.75</ele>
        <time>2012-06-10T08:34:55.000Z</time>
      </trkpt>
      <trkpt lat="44.6689" lon="6.63145">
        <ele>939.83</ele>
        <time>2012-06-10T08:34:58.000Z</time>
      </trkpt>
      <trkpt lat="44.66885" lon="6.63118">
        <ele>937.42</ele>
        <time>2012-06-10T08:35:01.000Z</time>
      </trkpt>
      <trkpt lat="44.66884" lon="6.6311">
        <ele>935.5</ele>
        <time>2012-06-10T08:35:02.000Z</time>
      </trkpt>
      <trkpt lat="44.66877" lon="6.63099">
        <ele>934.06</ele>
        <time>2012-06-10T08:35:08.000Z</time>
      </trkpt>
      <trkpt lat="44.66877" lon="6.63096">
        <ele>934.54</ele>
        <time>2012-06-10T08:35:09.000Z</time>
      </trkpt>
      <trkpt lat="44.66877" lon="6.63094">
        <ele>935.02</ele>
        <time>2012-06-10T08:35:10.000Z</time>
      </trkpt>
      <trkpt lat="44.6687" lon="6.63092">
        <ele>936.46</ele>
        <time>2012-06-10T08:35:15.000Z</time>
      </trkpt>
      <trkpt lat="44.6686" lon="6.63087">
        <ele>938.86</ele>
        <time>2012-06-10T08:35:21.000Z</time>
      </trkpt>
      <trkpt lat="44.66856" lon="6.63084">
        <ele>938.86</ele>
        <time>2012-06-10T08:35:23.000Z</time>
      </trkpt>
      <trkpt lat="44.66847" lon="6.63076">
        <ele>940.31</ele>
        <time>2012-06-10T08:35:30.000Z</time>
      </trkpt>
      <trkpt lat="44.66842" lon="6.63074">
        <ele>940.79</ele>
        <time>2012-06-10T08:35:33.000Z</time>
      </trkpt>
      <trkpt lat="44.66826" lon="6.63069">
        <ele>941.75</ele>
        <time>2012-06-10T08:35:44.000Z</time>
      </trkpt>
      <trkpt lat="44.66816" lon="6.63065">
        <ele>944.15</ele>
        <time>2012-06-10T08:35:55.000Z</time>
      </trkpt>
      <trkpt lat="44.66816" lon="6.63065">
        <ele>944.63</ele>
        <time>2012-06-10T08:35:57.000Z</time>
      </trkpt>
      <trkpt lat="44.66816" lon="6.63063">
        <ele>944.63</ele>
        <time>2012-06-10T08:35:58.000Z</time>
      </trkpt>
      <trkpt lat="44.66814" lon="6.63058">
        <ele>943.67</ele>
        <time>2012-06-10T08:36:01.000Z</time>
      </trkpt>
      <trkpt lat="44.66808" lon="6.63055">
        <ele>943.19</ele>
        <time>2012-06-10T08:36:07.000Z</time>
      </trkpt>
      <trkpt lat="44.668" lon="6.63046">
        <ele>943.19</ele>
        <time>2012-06-10T08:36:11.000Z</time>
      </trkpt>
      <trkpt lat="44.66797" lon="6.63033">
        <ele>940.79</ele>
        <time>2012-06-10T08:36:15.000Z</time>
      </trkpt>
      <trkpt lat="44.66796" lon="6.63031">
        <ele>940.31</ele>
        <time>2012-06-10T08:36:16.000Z</time>
      </trkpt>
      <trkpt lat="44.66796" lon="6.63028">
        <ele>940.79</ele>
        <time>2012-06-10T08:36:17.000Z</time>
      </trkpt>
      <trkpt lat="44.66794" lon="6.63026">
        <ele>940.79</ele>
        <time>2012-06-10T08:36:18.000Z</time>
      </trkpt>
      <trkpt lat="44.66787" lon="6.63023">
        <ele>941.75</ele>
        <time>2012-06-10T08:36:23.000Z</time>
      </trkpt>
      <trkpt lat="44.66786" lon="6.63022">
        <ele>942.71</ele>
        <time>2012-06-10T08:36:24.000Z</time>
      </trkpt>
      <trkpt lat="44.66772" lon="6.63016">
        <ele>945.59</ele>
        <time>2012-06-10T08:36:36.000Z</time>
      </trkpt>
      <trkpt lat="44.66763" lon="6.63016">
        <ele>948</ele>
        <time>2012-06-10T08:36:47.000Z</time>
      </trkpt>
      <trkpt lat="44.66757" lon="6.63008">
        <ele>949.44</ele>
        <time>2012-06-10T08:36:57.000Z</time>
      </trkpt>
      <trkpt lat="44.66755" lon="6.63006">
        <ele>949.44</ele>
        <time>2012-06-10T08:36:59.000Z</time>
      </trkpt>
      <trkpt lat="44.6675" lon="6.62992">
        <ele>948</ele>
        <time>2012-06-10T08:37:03.000Z</time>
      </trkpt>
      <trkpt lat="44.66747" lon="6.62987">
        <ele>947.52</ele>
        <time>2012-06-10T08:37:04.000Z</time>
      </trkpt>
      <trkpt lat="44.66743" lon="6.62981">
        <ele>947.04</ele>
        <time>2012-06-10T08:37:05.000Z</time>
      </trkpt>
      <trkpt lat="44.6674" lon="6.62977">
        <ele>947.04</ele>
        <time>2012-06-10T08:37:06.000Z</time>
      </trkpt>
      <trkpt lat="44.66732" lon="6.62969">
        <ele>947.52</ele>
        <time>2012-06-10T08:37:09.000Z</time>
      </trkpt>
      <trkpt lat="44.66726" lon="6.62969">
        <ele>948</ele>
        <time>2012-06-10T08:37:11.000Z</time>
      </trkpt>
      <trkpt lat="44.66722" lon="6.62966">
        <ele>948.96</ele>
        <time>2012-06-10T08:37:13.000Z</time>
      </trkpt>
      <trkpt lat="44.66719" lon="6.62961">
        <ele>949.44</ele>
        <time>2012-06-10T08:37:15.000Z</time>
      </trkpt>
      <trkpt lat="44.66717" lon="6.62957">
        <ele>948.96</ele>
        <time>2012-06-10T08:37:16.000Z</time>
      </trkpt>
      <trkpt lat="44.66716" lon="6.62955">
        <ele>948.48</ele>
        <time>2012-06-10T08:37:17.000Z</time>
      </trkpt>
      <trkpt lat="44.66714" lon="6.62951">
        <ele>948.48</ele>
        <time>2012-06-10T08:37:18.000Z</time>
      </trkpt>
      <trkpt lat="44.66713" lon="6.62948">
        <ele>948</ele>
        <time>2012-06-10T08:37:19.000Z</time>
      </trkpt>
      <trkpt lat="44.6671" lon="6.62946">
        <ele>948.96</ele>
        <time>2012-06-10T08:37:20.000Z</time>
      </trkpt>
      <trkpt lat="44.66707" lon="6.62944">
        <ele>949.44</ele>
        <time>2012-06-10T08:37:21.000Z</time>
      </trkpt>
      <trkpt lat="44.66705" lon="6.62941">
        <ele>949.44</ele>
        <time>2012-06-10T08:37:22.000Z</time>
      </trkpt>
      <trkpt lat="44.66704" lon="6.62939">
        <ele>949.92</ele>
        <time>2012-06-10T08:37:23.000Z</time>
      </trkpt>
      <trkpt lat="44.66703" lon="6.62937">
        <ele>949.92</ele>
        <time>2012-06-10T08:37:24.000Z</time>
      </trkpt>
      <trkpt lat="44.667" lon="6.62932">
        <ele>949.44</ele>
        <time>2012-06-10T08:37:27.000Z</time>
      </trkpt>
      <trkpt lat="44.66698" lon="6.62931">
        <ele>949.44</ele>
        <time>2012-06-10T08:37:28.000Z</time>
      </trkpt>
      <trkpt lat="44.66695" lon="6.62927">
        <ele>949.44</ele>
        <time>2012-06-10T08:37:30.000Z</time>
      </trkpt>
      <trkpt lat="44.66693" lon="6.62925">
        <ele>949.44</ele>
        <time>2012-06-10T08:37:31.000Z</time>
      </trkpt>
      <trkpt lat="44.66692" lon="6.62922">
        <ele>949.44</ele>
        <time>2012-06-10T08:37:32.000Z</time>
      </trkpt>
      <trkpt lat="44.66691" lon="6.6292">
        <ele>949.44</ele>
        <time>2012-06-10T08:37:33.000Z</time>
      </trkpt>
      <trkpt lat="44.6669" lon="6.62916">
        <ele>948.96</ele>
        <time>2012-06-10T08:37:34.000Z</time>
      </trkpt>
      <trkpt lat="44.66688" lon="6.62912">
        <ele>948.96</ele>
        <time>2012-06-10T08:37:35.000Z</time>
      </trkpt>
      <trkpt lat="44.66685" lon="6.62906">
        <ele>947.52</ele>
        <time>2012-06-10T08:37:36.000Z</time>
      </trkpt>
      <trkpt lat="44.66684" lon="6.62899">
        <ele>946.56</ele>
        <time>2012-06-10T08:37:37.000Z</time>
      </trkpt>
      <trkpt lat="44.66681" lon="6.62894">
        <ele>946.07</ele>
        <time>2012-06-10T08:37:38.000Z</time>
      </trkpt>
      <trkpt lat="44.66679" lon="6.62891">
        <ele>946.56</ele>
        <time>2012-06-10T08:37:39.000Z</time>
      </trkpt>
      <trkpt lat="44.66669" lon="6.62884">
        <ele>948</ele>
        <time>2012-06-10T08:37:48.000Z</time>
      </trkpt>
      <trkpt lat="44.66653" lon="6.62865">
        <ele>946.07</ele>
        <time>2012-06-10T08:37:56.000Z</time>
      </trkpt>
      <trkpt lat="44.66643" lon="6.62856">
        <ele>947.04</ele>
        <time>2012-06-10T08:38:06.000Z</time>
      </trkpt>
      <trkpt lat="44.6664" lon="6.62853">
        <ele>947.52</ele>
        <time>2012-06-10T08:38:08.000Z</time>
      </trkpt>
      <trkpt lat="44.66637" lon="6.62851">
        <ele>947.52</ele>
        <time>2012-06-10T08:38:10.000Z</time>
      </trkpt>
      <trkpt lat="44.66636" lon="6.6285">
        <ele>947.52</ele>
        <time>2012-06-10T08:38:11.000Z</time>
      </trkpt>
      <trkpt lat="44.66629" lon="6.6284">
        <ele>948.48</ele>
        <time>2012-06-10T08:38:20.000Z</time>
      </trkpt>
      <trkpt lat="44.66622" lon="6.62835">
        <ele>950.4</ele>
        <time>2012-06-10T08:38:26.000Z</time>
      </trkpt>
      <trkpt lat="44.66621" lon="6.62834">
        <ele>950.4</ele>
        <time>2012-06-10T08:38:27.000Z</time>
      </trkpt>
      <trkpt lat="44.66615" lon="6.62828">
        <ele>951.36</ele>
        <time>2012-06-10T08:38:34.000Z</time>
      </trkpt>
      <trkpt lat="44.66615" lon="6.62826">
        <ele>951.36</ele>
        <time>2012-06-10T08:38:35.000Z</time>
      </trkpt>
      <trkpt lat="44.66613" lon="6.62824">
        <ele>951.36</ele>
        <time>2012-06-10T08:38:36.000Z</time>
      </trkpt>
      <trkpt lat="44.66611" lon="6.62821">
        <ele>949.92</ele>
        <time>2012-06-10T08:38:37.000Z</time>
      </trkpt>
      <trkpt lat="44.66609" lon="6.62817">
        <ele>949.92</ele>
        <time>2012-06-10T08:38:38.000Z</time>
      </trkpt>
      <trkpt lat="44.66608" lon="6.62814">
        <ele>950.4</ele>
        <time>2012-06-10T08:38:39.000Z</time>
      </trkpt>
      <trkpt lat="44.66606" lon="6.62811">
        <ele>949.92</ele>
        <time>2012-06-10T08:38:40.000Z</time>
      </trkpt>
      <trkpt lat="44.66605" lon="6.62807">
        <ele>949.44</ele>
        <time>2012-06-10T08:38:41.000Z</time>
      </trkpt>
      <trkpt lat="44.66602" lon="6.62801">
        <ele>948.96</ele>
        <time>2012-06-10T08:38:42.000Z</time>
      </trkpt>
      <trkpt lat="44.66601" lon="6.62796">
        <ele>948.96</ele>
        <time>2012-06-10T08:38:43.000Z</time>
      </trkpt>
      <trkpt lat="44.66597" lon="6.62791">
        <ele>950.88</ele>
        <time>2012-06-10T08:38:51.000Z</time>
      </trkpt>
      <trkpt lat="44.66594" lon="6.62791">
        <ele>951.36</ele>
        <time>2012-06-10T08:38:54.000Z</time>
      </trkpt>
      <trkpt lat="44.66592" lon="6.62791">
        <ele>951.84</ele>
        <time>2012-06-10T08:38:56.000Z</time>
      </trkpt>
      <trkpt lat="44.66586" lon="6.62791">
        <ele>953.28</ele>
        <time>2012-06-10T08:39:02.000Z</time>
      </trkpt>
      <trkpt lat="44.66579" lon="6.62786">
        <ele>955.69</ele>
        <time>2012-06-10T08:39:13.000Z</time>
      </trkpt>
      <trkpt lat="44.66575" lon="6.62781">
        <ele>956.17</ele>
        <time>2012-06-10T08:39:18.000Z</time>
      </trkpt>
      <trkpt lat="44.66573" lon="6.62778">
        <ele>956.17</ele>
        <time>2012-06-10T08:39:19.000Z</time>
      </trkpt>
      <trkpt lat="44.66572" lon="6.62776">
        <ele>956.17</ele>
        <time>2012-06-10T08:39:20.000Z</time>
      </trkpt>
      <trkpt lat="44.66572" lon="6.62774">
        <ele>956.65</ele>
        <time>2012-06-10T08:39:21.000Z</time>
      </trkpt>
      <trkpt lat="44.66571" lon="6.6277">
        <ele>956.17</ele>
        <time>2012-06-10T08:39:22.000Z</time>
      </trkpt>
      <trkpt lat="44.66569" lon="6.62767">
        <ele>956.65</ele>
        <time>2012-06-10T08:39:23.000Z</time>
      </trkpt>
      <trkpt lat="44.66568" lon="6.62764">
        <ele>956.17</ele>
        <time>2012-06-10T08:39:24.000Z</time>
      </trkpt>
      <trkpt lat="44.6656" lon="6.62751">
        <ele>957.13</ele>
        <time>2012-06-10T08:39:31.000Z</time>
      </trkpt>
      <trkpt lat="44.66557" lon="6.62751">
        <ele>957.61</ele>
        <time>2012-06-10T08:39:32.000Z</time>
      </trkpt>
      <trkpt lat="44.66555" lon="6.6275">
        <ele>957.61</ele>
        <time>2012-06-10T08:39:33.000Z</time>
      </trkpt>
      <trkpt lat="44.6655" lon="6.62747">
        <ele>958.09</ele>
        <time>2012-06-10T08:39:37.000Z</time>
      </trkpt>
      <trkpt lat="44.66528" lon="6.62737">
        <ele>955.69</ele>
        <time>2012-06-10T08:39:43.000Z</time>
      </trkpt>
      <trkpt lat="44.66523" lon="6.62734">
        <ele>955.21</ele>
        <time>2012-06-10T08:39:44.000Z</time>
      </trkpt>
      <trkpt lat="44.66518" lon="6.62731">
        <ele>954.25</ele>
        <time>2012-06-10T08:39:45.000Z</time>
      </trkpt>
      <trkpt lat="44.6651" lon="6.6273">
        <ele>955.21</ele>
        <time>2012-06-10T08:39:46.000Z</time>
      </trkpt>
      <trkpt lat="44.66503" lon="6.6273">
        <ele>954.73</ele>
        <time>2012-06-10T08:39:47.000Z</time>
      </trkpt>
      <trkpt lat="44.66496" lon="6.62728">
        <ele>954.73</ele>
        <time>2012-06-10T08:39:48.000Z</time>
      </trkpt>
      <trkpt lat="44.66454" lon="6.62723">
        <ele>953.77</ele>
        <time>2012-06-10T08:39:54.000Z</time>
      </trkpt>
      <trkpt lat="44.66448" lon="6.62723">
        <ele>953.28</ele>
        <time>2012-06-10T08:39:55.000Z</time>
      </trkpt>
      <trkpt lat="44.66444" lon="6.62722">
        <ele>952.32</ele>
        <time>2012-06-10T08:39:56.000Z</time>
      </trkpt>
      <trkpt lat="44.66437" lon="6.62722">
        <ele>951.36</ele>
        <time>2012-06-10T08:39:57.000Z</time>
      </trkpt>
      <trkpt lat="44.66431" lon="6.62719">
        <ele>949.92</ele>
        <time>2012-06-10T08:39:58.000Z</time>
      </trkpt>
      <trkpt lat="44.66425" lon="6.62717">
        <ele>948</ele>
        <time>2012-06-10T08:39:59.000Z</time>
      </trkpt>
      <trkpt lat="44.66415" lon="6.62711">
        <ele>945.59</ele>
        <time>2012-06-10T08:40:01.000Z</time>
      </trkpt>
      <trkpt lat="44.66409" lon="6.62707">
        <ele>944.15</ele>
        <time>2012-06-10T08:40:02.000Z</time>
      </trkpt>
      <trkpt lat="44.66403" lon="6.62702">
        <ele>942.71</ele>
        <time>2012-06-10T08:40:03.000Z</time>
      </trkpt>
      <trkpt lat="44.66396" lon="6.62699">
        <ele>941.27</ele>
        <time>2012-06-10T08:40:04.000Z</time>
      </trkpt>
      <trkpt lat="44.66389" lon="6.62698">
        <ele>940.31</ele>
        <time>2012-06-10T08:40:05.000Z</time>
      </trkpt>
      <trkpt lat="44.66383" lon="6.62698">
        <ele>939.83</ele>
        <time>2012-06-10T08:40:06.000Z</time>
      </trkpt>
      <trkpt lat="44.66377" lon="6.62696">
        <ele>939.35</ele>
        <time>2012-06-10T08:40:07.000Z</time>
      </trkpt>
      <trkpt lat="44.66374" lon="6.62695">
        <ele>938.38</ele>
        <time>2012-06-10T08:40:08.000Z</time>
      </trkpt>
      <trkpt lat="44.66371" lon="6.62694">
        <ele>937.42</ele>
        <time>2012-06-10T08:40:09.000Z</time>
      </trkpt>
      <trkpt lat="44.66333" lon="6.62695">
        <ele>934.54</ele>
        <time>2012-06-10T08:40:16.000Z</time>
      </trkpt>
      <trkpt lat="44.66329" lon="6.62694">
        <ele>934.54</ele>
        <time>2012-06-10T08:40:17.000Z</time>
      </trkpt>
      <trkpt lat="44.66327" lon="6.6269">
        <ele>933.58</ele>
        <time>2012-06-10T08:40:18.000Z</time>
      </trkpt>
      <trkpt lat="44.66329" lon="6.62687">
        <ele>933.58</ele>
        <time>2012-06-10T08:40:19.000Z</time>
      </trkpt>
      <trkpt lat="44.66338" lon="6.62681">
        <ele>932.62</ele>
        <time>2012-06-10T08:40:22.000Z</time>
      </trkpt>
      <trkpt lat="44.66345" lon="6.62673">
        <ele>932.62</ele>
        <time>2012-06-10T08:40:24.000Z</time>
      </trkpt>
      <trkpt lat="44.66349" lon="6.62669">
        <ele>932.14</ele>
        <time>2012-06-10T08:40:25.000Z</time>
      </trkpt>
      <trkpt lat="44.66352" lon="6.62664">
        <ele>932.14</ele>
        <time>2012-06-10T08:40:26.000Z</time>
      </trkpt>
      <trkpt lat="44.66378" lon="6.62605">
        <ele>930.21</ele>
        <time>2012-06-10T08:40:34.000Z</time>
      </trkpt>
      <trkpt lat="44.66381" lon="6.62601">
        <ele>929.73</ele>
        <time>2012-06-10T08:40:35.000Z</time>
      </trkpt>
      <trkpt lat="44.66384" lon="6.62598">
        <ele>929.73</ele>
        <time>2012-06-10T08:40:36.000Z</time>
      </trkpt>
      <trkpt lat="44.66388" lon="6.62592">
        <ele>929.73</ele>
        <time>2012-06-10T08:40:38.000Z</time>
      </trkpt>
      <trkpt lat="44.66406" lon="6.62543">
        <ele>930.21</ele>
        <time>2012-06-10T08:40:48.000Z</time>
      </trkpt>
      <trkpt lat="44.66413" lon="6.62526">
        <ele>930.69</ele>
        <time>2012-06-10T08:40:51.000Z</time>
      </trkpt>
      <trkpt lat="44.66416" lon="6.62521">
        <ele>930.69</ele>
        <time>2012-06-10T08:40:52.000Z</time>
      </trkpt>
      <trkpt lat="44.66418" lon="6.62514">
        <ele>930.21</ele>
        <time>2012-06-10T08:40:54.000Z</time>
      </trkpt>
      <trkpt lat="44.66417" lon="6.62512">
        <ele>930.69</ele>
        <time>2012-06-10T08:40:55.000Z</time>
      </trkpt>
      <trkpt lat="44.66414" lon="6.6251">
        <ele>930.69</ele>
        <time>2012-06-10T08:40:56.000Z</time>
      </trkpt>
      <trkpt lat="44.66411" lon="6.62508">
        <ele>931.17</ele>
        <time>2012-06-10T08:40:57.000Z</time>
      </trkpt>
      <trkpt lat="44.66408" lon="6.62506">
        <ele>930.69</ele>
        <time>2012-06-10T08:40:58.000Z</time>
      </trkpt>
      <trkpt lat="44.66404" lon="6.62503">
        <ele>930.69</ele>
        <time>2012-06-10T08:40:59.000Z</time>
      </trkpt>
      <trkpt lat="44.66401" lon="6.62498">
        <ele>930.69</ele>
        <time>2012-06-10T08:41:00.000Z</time>
      </trkpt>
      <trkpt lat="44.66398" lon="6.62492">
        <ele>930.69</ele>
        <time>2012-06-10T08:41:01.000Z</time>
      </trkpt>
      <trkpt lat="44.66393" lon="6.62479">
        <ele>930.69</ele>
        <time>2012-06-10T08:41:03.000Z</time>
      </trkpt>
      <trkpt lat="44.66391" lon="6.62473">
        <ele>930.69</ele>
        <time>2012-06-10T08:41:04.000Z</time>
      </trkpt>
      <trkpt lat="44.66384" lon="6.6245">
        <ele>930.21</ele>
        <time>2012-06-10T08:41:07.000Z</time>
      </trkpt>
      <trkpt lat="44.66382" lon="6.62441">
        <ele>930.21</ele>
        <time>2012-06-10T08:41:08.000Z</time>
      </trkpt>
      <trkpt lat="44.66381" lon="6.62431">
        <ele>930.21</ele>
        <time>2012-06-10T08:41:09.000Z</time>
      </trkpt>
      <trkpt lat="44.66381" lon="6.62404">
        <ele>929.73</ele>
        <time>2012-06-10T08:41:12.000Z</time>
      </trkpt>
      <trkpt lat="44.66383" lon="6.62394">
        <ele>929.73</ele>
        <time>2012-06-10T08:41:13.000Z</time>
      </trkpt>
      <trkpt lat="44.66424" lon="6.62259">
        <ele>926.37</ele>
        <time>2012-06-10T08:41:27.000Z</time>
      </trkpt>
      <trkpt lat="44.66444" lon="6.62201">
        <ele>925.89</ele>
        <time>2012-06-10T08:41:33.000Z</time>
      </trkpt>
      <trkpt lat="44.6647" lon="6.62136">
        <ele>925.41</ele>
        <time>2012-06-10T08:41:40.000Z</time>
      </trkpt>
      <trkpt lat="44.66478" lon="6.6212">
        <ele>925.41</ele>
        <time>2012-06-10T08:41:42.000Z</time>
      </trkpt>
      <trkpt lat="44.66493" lon="6.62101">
        <ele>924.93</ele>
        <time>2012-06-10T08:41:45.000Z</time>
      </trkpt>
      <trkpt lat="44.66584" lon="6.62006">
        <ele>922.04</ele>
        <time>2012-06-10T08:42:00.000Z</time>
      </trkpt>
      <trkpt lat="44.66673" lon="6.61949">
        <ele>921.08</ele>
        <time>2012-06-10T08:42:13.000Z</time>
      </trkpt>
      <trkpt lat="44.66687" lon="6.61942">
        <ele>921.08</ele>
        <time>2012-06-10T08:42:15.000Z</time>
      </trkpt>
      <trkpt lat="44.66776" lon="6.6192">
        <ele>920.6</ele>
        <time>2012-06-10T08:42:28.000Z</time>
      </trkpt>
      <trkpt lat="44.66855" lon="6.61896">
        <ele>919.16</ele>
        <time>2012-06-10T08:42:40.000Z</time>
      </trkpt>
      <trkpt lat="44.66882" lon="6.6189">
        <ele>919.64</ele>
        <time>2012-06-10T08:42:44.000Z</time>
      </trkpt>
      <trkpt lat="44.66888" lon="6.61891">
        <ele>920.12</ele>
        <time>2012-06-10T08:42:45.000Z</time>
      </trkpt>
      <trkpt lat="44.66899" lon="6.61896">
        <ele>920.6</ele>
        <time>2012-06-10T08:42:47.000Z</time>
      </trkpt>
      <trkpt lat="44.66905" lon="6.61896">
        <ele>921.08</ele>
        <time>2012-06-10T08:42:48.000Z</time>
      </trkpt>
      <trkpt lat="44.6691" lon="6.61895">
        <ele>920.6</ele>
        <time>2012-06-10T08:42:49.000Z</time>
      </trkpt>
      <trkpt lat="44.66916" lon="6.61894">
        <ele>921.08</ele>
        <time>2012-06-10T08:42:50.000Z</time>
      </trkpt>
      <trkpt lat="44.66922" lon="6.61892">
        <ele>921.56</ele>
        <time>2012-06-10T08:42:51.000Z</time>
      </trkpt>
      <trkpt lat="44.66958" lon="6.61891">
        <ele>921.08</ele>
        <time>2012-06-10T08:42:57.000Z</time>
      </trkpt>
      <trkpt lat="44.66964" lon="6.61889">
        <ele>921.08</ele>
        <time>2012-06-10T08:42:58.000Z</time>
      </trkpt>
      <trkpt lat="44.66969" lon="6.61888">
        <ele>921.08</ele>
        <time>2012-06-10T08:42:59.000Z</time>
      </trkpt>
      <trkpt lat="44.6698" lon="6.61886">
        <ele>921.08</ele>
        <time>2012-06-10T08:43:01.000Z</time>
      </trkpt>
      <trkpt lat="44.66985" lon="6.61886">
        <ele>921.08</ele>
        <time>2012-06-10T08:43:02.000Z</time>
      </trkpt>
      <trkpt lat="44.66989" lon="6.61889">
        <ele>921.08</ele>
        <time>2012-06-10T08:43:03.000Z</time>
      </trkpt>
      <trkpt lat="44.67001" lon="6.619">
        <ele>920.6</ele>
        <time>2012-06-10T08:43:06.000Z</time>
      </trkpt>
      <trkpt lat="44.67006" lon="6.61904">
        <ele>921.08</ele>
        <time>2012-06-10T08:43:07.000Z</time>
      </trkpt>
      <trkpt lat="44.6701" lon="6.61907">
        <ele>921.08</ele>
        <time>2012-06-10T08:43:08.000Z</time>
      </trkpt>
      <trkpt lat="44.6702" lon="6.61909">
        <ele>921.08</ele>
        <time>2012-06-10T08:43:10.000Z</time>
      </trkpt>
      <trkpt lat="44.67035" lon="6.61918">
        <ele>921.08</ele>
        <time>2012-06-10T08:43:13.000Z</time>
      </trkpt>
      <trkpt lat="44.67039" lon="6.61919">
        <ele>920.6</ele>
        <time>2012-06-10T08:43:14.000Z</time>
      </trkpt>
      <trkpt lat="44.67044" lon="6.61919">
        <ele>920.6</ele>
        <time>2012-06-10T08:43:15.000Z</time>
      </trkpt>
      <trkpt lat="44.67062" lon="6.61919">
        <ele>921.08</ele>
        <time>2012-06-10T08:43:19.000Z</time>
      </trkpt>
      <trkpt lat="44.67067" lon="6.61921">
        <ele>920.12</ele>
        <time>2012-06-10T08:43:20.000Z</time>
      </trkpt>
      <trkpt lat="44.67071" lon="6.61924">
        <ele>920.6</ele>
        <time>2012-06-10T08:43:21.000Z</time>
      </trkpt>
      <trkpt lat="44.67075" lon="6.61926">
        <ele>920.6</ele>
        <time>2012-06-10T08:43:22.000Z</time>
      </trkpt>
      <trkpt lat="44.67079" lon="6.61927">
        <ele>920.6</ele>
        <time>2012-06-10T08:43:23.000Z</time>
      </trkpt>
      <trkpt lat="44.67082" lon="6.61929">
        <ele>921.08</ele>
        <time>2012-06-10T08:43:24.000Z</time>
      </trkpt>
      <trkpt lat="44.67084" lon="6.6193">
        <ele>921.56</ele>
        <time>2012-06-10T08:43:25.000Z</time>
      </trkpt>
      <trkpt lat="44.67095" lon="6.61935">
        <ele>923.96</ele>
        <time>2012-06-10T08:43:30.000Z</time>
      </trkpt>
      <trkpt lat="44.67123" lon="6.61959">
        <ele>924.45</ele>
        <time>2012-06-10T08:43:39.000Z</time>
      </trkpt>
      <trkpt lat="44.67154" lon="6.61983">
        <ele>921.08</ele>
        <time>2012-06-10T08:43:46.000Z</time>
      </trkpt>
      <trkpt lat="44.67172" lon="6.62004">
        <ele>922.04</ele>
        <time>2012-06-10T08:43:50.000Z</time>
      </trkpt>
      <trkpt lat="44.67176" lon="6.62006">
        <ele>922.04</ele>
        <time>2012-06-10T08:43:51.000Z</time>
      </trkpt>
      <trkpt lat="44.67179" lon="6.62008">
        <ele>923</ele>
        <time>2012-06-10T08:43:52.000Z</time>
      </trkpt>
      <trkpt lat="44.67182" lon="6.6201">
        <ele>923.48</ele>
        <time>2012-06-10T08:43:53.000Z</time>
      </trkpt>
      <trkpt lat="44.67184" lon="6.62013">
        <ele>923.96</ele>
        <time>2012-06-10T08:43:54.000Z</time>
      </trkpt>
      <trkpt lat="44.67186" lon="6.62015">
        <ele>923.48</ele>
        <time>2012-06-10T08:43:55.000Z</time>
      </trkpt>
      <trkpt lat="44.67187" lon="6.62018">
        <ele>923.96</ele>
        <time>2012-06-10T08:43:56.000Z</time>
      </trkpt>
      <trkpt lat="44.67187" lon="6.62021">
        <ele>924.45</ele>
        <time>2012-06-10T08:43:57.000Z</time>
      </trkpt>
      <trkpt lat="44.67187" lon="6.62023">
        <ele>925.41</ele>
        <time>2012-06-10T08:43:58.000Z</time>
      </trkpt>
      <trkpt lat="44.67187" lon="6.62025">
        <ele>924.93</ele>
        <time>2012-06-10T08:43:59.000Z</time>
      </trkpt>
      <trkpt lat="44.67188" lon="6.62027">
        <ele>925.41</ele>
        <time>2012-06-10T08:44:00.000Z</time>
      </trkpt>
      <trkpt lat="44.67192" lon="6.62031">
        <ele>927.33</ele>
        <time>2012-06-10T08:44:08.000Z</time>
      </trkpt>
      <trkpt lat="44.67201" lon="6.62042">
        <ele>930.21</ele>
        <time>2012-06-10T08:44:17.000Z</time>
      </trkpt>
      <trkpt lat="44.67202" lon="6.62043">
        <ele>930.69</ele>
        <time>2012-06-10T08:44:18.000Z</time>
      </trkpt>
      <trkpt lat="44.67203" lon="6.62044">
        <ele>930.69</ele>
        <time>2012-06-10T08:44:19.000Z</time>
      </trkpt>
      <trkpt lat="44.67204" lon="6.62045">
        <ele>931.17</ele>
        <time>2012-06-10T08:44:20.000Z</time>
      </trkpt>
      <trkpt lat="44.67205" lon="6.62047">
        <ele>931.17</ele>
        <time>2012-06-10T08:44:21.000Z</time>
      </trkpt>
      <trkpt lat="44.67207" lon="6.62048">
        <ele>931.65</ele>
        <time>2012-06-10T08:44:22.000Z</time>
      </trkpt>
      <trkpt lat="44.67216" lon="6.62055">
        <ele>933.1</ele>
        <time>2012-06-10T08:44:33.000Z</time>
      </trkpt>
      <trkpt lat="44.67223" lon="6.62067">
        <ele>934.06</ele>
        <time>2012-06-10T08:44:39.000Z</time>
      </trkpt>
      <trkpt lat="44.67225" lon="6.62069">
        <ele>934.06</ele>
        <time>2012-06-10T08:44:40.000Z</time>
      </trkpt>
      <trkpt lat="44.6723" lon="6.62082">
        <ele>936.46</ele>
        <time>2012-06-10T08:44:47.000Z</time>
      </trkpt>
      <trkpt lat="44.67239" lon="6.62099">
        <ele>939.35</ele>
        <time>2012-06-10T08:44:57.000Z</time>
      </trkpt>
      <trkpt lat="44.67247" lon="6.62128">
        <ele>942.71</ele>
        <time>2012-06-10T08:45:12.000Z</time>
      </trkpt>
      <trkpt lat="44.67265" lon="6.6215">
        <ele>945.11</ele>
        <time>2012-06-10T08:45:25.000Z</time>
      </trkpt>
      <trkpt lat="44.67286" lon="6.62169">
        <ele>945.11</ele>
        <time>2012-06-10T08:45:37.000Z</time>
      </trkpt>
      <trkpt lat="44.67294" lon="6.62179">
        <ele>946.07</ele>
        <time>2012-06-10T08:45:42.000Z</time>
      </trkpt>
      <trkpt lat="44.67298" lon="6.62186">
        <ele>948.48</ele>
        <time>2012-06-10T08:45:51.000Z</time>
      </trkpt>
      <trkpt lat="44.67301" lon="6.622">
        <ele>950.4</ele>
        <time>2012-06-10T08:46:02.000Z</time>
      </trkpt>
      <trkpt lat="44.67303" lon="6.62206">
        <ele>952.8</ele>
        <time>2012-06-10T08:46:06.000Z</time>
      </trkpt>
      <trkpt lat="44.67305" lon="6.62214">
        <ele>954.73</ele>
        <time>2012-06-10T08:46:15.000Z</time>
      </trkpt>
      <trkpt lat="44.67297" lon="6.62213">
        <ele>955.69</ele>
        <time>2012-06-10T08:46:21.000Z</time>
      </trkpt>
      <trkpt lat="44.67279" lon="6.62216">
        <ele>959.05</ele>
        <time>2012-06-10T08:46:35.000Z</time>
      </trkpt>
      <trkpt lat="44.67275" lon="6.62224">
        <ele>962.42</ele>
        <time>2012-06-10T08:46:46.000Z</time>
      </trkpt>
      <trkpt lat="44.67278" lon="6.62226">
        <ele>961.94</ele>
        <time>2012-06-10T08:46:53.000Z</time>
      </trkpt>
      <trkpt lat="44.67297" lon="6.62248">
        <ele>963.86</ele>
        <time>2012-06-10T08:47:05.000Z</time>
      </trkpt>
      <trkpt lat="44.67304" lon="6.62262">
        <ele>964.82</ele>
        <time>2012-06-10T08:47:12.000Z</time>
      </trkpt>
      <trkpt lat="44.67328" lon="6.62282">
        <ele>967.7</ele>
        <time>2012-06-10T08:47:25.000Z</time>
      </trkpt>
      <trkpt lat="44.67347" lon="6.62298">
        <ele>970.11</ele>
        <time>2012-06-10T08:47:37.000Z</time>
      </trkpt>
      <trkpt lat="44.6735" lon="6.62299">
        <ele>971.07</ele>
        <time>2012-06-10T08:47:39.000Z</time>
      </trkpt>
      <trkpt lat="44.67365" lon="6.62307">
        <ele>974.43</ele>
        <time>2012-06-10T08:47:48.000Z</time>
      </trkpt>
      <trkpt lat="44.67374" lon="6.6232">
        <ele>975.39</ele>
        <time>2012-06-10T08:47:55.000Z</time>
      </trkpt>
      <trkpt lat="44.67377" lon="6.6233">
        <ele>978.28</ele>
        <time>2012-06-10T08:48:01.000Z</time>
      </trkpt>
      <trkpt lat="44.67379" lon="6.62331">
        <ele>978.76</ele>
        <time>2012-06-10T08:48:03.000Z</time>
      </trkpt>
      <trkpt lat="44.67398" lon="6.62346">
        <ele>981.64</ele>
        <time>2012-06-10T08:48:15.000Z</time>
      </trkpt>
      <trkpt lat="44.67402" lon="6.62348">
        <ele>981.64</ele>
        <time>2012-06-10T08:48:17.000Z</time>
      </trkpt>
      <trkpt lat="44.67429" lon="6.6236">
        <ele>982.6</ele>
        <time>2012-06-10T08:48:30.000Z</time>
      </trkpt>
      <trkpt lat="44.67448" lon="6.62381">
        <ele>984.05</ele>
        <time>2012-06-10T08:48:41.000Z</time>
      </trkpt>
      <trkpt lat="44.67448" lon="6.62386">
        <ele>985.01</ele>
        <time>2012-06-10T08:48:43.000Z</time>
      </trkpt>
      <trkpt lat="44.6744" lon="6.62383">
        <ele>986.93</ele>
        <time>2012-06-10T08:48:49.000Z</time>
      </trkpt>
      <trkpt lat="44.67427" lon="6.62374">
        <ele>988.37</ele>
        <time>2012-06-10T08:48:57.000Z</time>
      </trkpt>
      <trkpt lat="44.67421" lon="6.62384">
        <ele>989.33</ele>
        <time>2012-06-10T08:49:03.000Z</time>
      </trkpt>
      <trkpt lat="44.67414" lon="6.62382">
        <ele>991.74</ele>
        <time>2012-06-10T08:49:08.000Z</time>
      </trkpt>
      <trkpt lat="44.6741" lon="6.62379">
        <ele>992.22</ele>
        <time>2012-06-10T08:49:11.000Z</time>
      </trkpt>
      <trkpt lat="44.674" lon="6.62388">
        <ele>994.14</ele>
        <time>2012-06-10T08:49:21.000Z</time>
      </trkpt>
      <trkpt lat="44.674" lon="6.6239">
        <ele>994.62</ele>
        <time>2012-06-10T08:49:24.000Z</time>
      </trkpt>
      <trkpt lat="44.67407" lon="6.62396">
        <ele>995.58</ele>
        <time>2012-06-10T08:49:29.000Z</time>
      </trkpt>
      <trkpt lat="44.6742" lon="6.62413">
        <ele>999.43</ele>
        <time>2012-06-10T08:49:42.000Z</time>
      </trkpt>
      <trkpt lat="44.67427" lon="6.62424">
        <ele>1001.35</ele>
        <time>2012-06-10T08:49:51.000Z</time>
      </trkpt>
      <trkpt lat="44.67431" lon="6.62437">
        <ele>1004.23</ele>
        <time>2012-06-10T08:49:58.000Z</time>
      </trkpt>
      <trkpt lat="44.67431" lon="6.62438">
        <ele>1004.72</ele>
        <time>2012-06-10T08:49:59.000Z</time>
      </trkpt>
      <trkpt lat="44.67443" lon="6.62462">
        <ele>1007.12</ele>
        <time>2012-06-10T08:50:12.000Z</time>
      </trkpt>
      <trkpt lat="44.67451" lon="6.62476">
        <ele>1009.52</ele>
        <time>2012-06-10T08:50:22.000Z</time>
      </trkpt>
      <trkpt lat="44.6746" lon="6.62502">
        <ele>1010.96</ele>
        <time>2012-06-10T08:50:34.000Z</time>
      </trkpt>
      <trkpt lat="44.67463" lon="6.62517">
        <ele>1013.37</ele>
        <time>2012-06-10T08:50:41.000Z</time>
      </trkpt>
      <trkpt lat="44.67463" lon="6.62523">
        <ele>1014.33</ele>
        <time>2012-06-10T08:50:45.000Z</time>
      </trkpt>
      <trkpt lat="44.67465" lon="6.62535">
        <ele>1016.73</ele>
        <time>2012-06-10T08:50:54.000Z</time>
      </trkpt>
      <trkpt lat="44.67456" lon="6.62525">
        <ele>1018.65</ele>
        <time>2012-06-10T08:51:03.000Z</time>
      </trkpt>
      <trkpt lat="44.67444" lon="6.62512">
        <ele>1022.5</ele>
        <time>2012-06-10T08:51:14.000Z</time>
      </trkpt>
      <trkpt lat="44.67438" lon="6.62505">
        <ele>1023.46</ele>
        <time>2012-06-10T08:51:19.000Z</time>
      </trkpt>
      <trkpt lat="44.67406" lon="6.62489">
        <ele>1023.94</ele>
        <time>2012-06-10T08:51:34.000Z</time>
      </trkpt>
      <trkpt lat="44.67372" lon="6.62497">
        <ele>1024.9</ele>
        <time>2012-06-10T08:51:45.000Z</time>
      </trkpt>
      <trkpt lat="44.67361" lon="6.6252">
        <ele>1027.31</ele>
        <time>2012-06-10T08:51:56.000Z</time>
      </trkpt>
      <trkpt lat="44.67356" lon="6.62539">
        <ele>1029.23</ele>
        <time>2012-06-10T08:52:05.000Z</time>
      </trkpt>
      <trkpt lat="44.6735" lon="6.62547">
        <ele>1030.67</ele>
        <time>2012-06-10T08:52:10.000Z</time>
      </trkpt>
      <trkpt lat="44.67342" lon="6.62563">
        <ele>1033.07</ele>
        <time>2012-06-10T08:52:21.000Z</time>
      </trkpt>
      <trkpt lat="44.67342" lon="6.62563">
        <ele>1033.55</ele>
        <time>2012-06-10T08:52:22.000Z</time>
      </trkpt>
      <trkpt lat="44.67341" lon="6.62561">
        <ele>1034.04</ele>
        <time>2012-06-10T08:52:24.000Z</time>
      </trkpt>
      <trkpt lat="44.67335" lon="6.62551">
        <ele>1035</ele>
        <time>2012-06-10T08:52:30.000Z</time>
      </trkpt>
      <trkpt lat="44.67333" lon="6.6253">
        <ele>1036.92</ele>
        <time>2012-06-10T08:52:42.000Z</time>
      </trkpt>
      <trkpt lat="44.67331" lon="6.62524">
        <ele>1038.84</ele>
        <time>2012-06-10T08:52:50.000Z</time>
      </trkpt>
      <trkpt lat="44.67331" lon="6.62528">
        <ele>1038.84</ele>
        <time>2012-06-10T08:52:52.000Z</time>
      </trkpt>
      <trkpt lat="44.67325" lon="6.62546">
        <ele>1039.8</ele>
        <time>2012-06-10T08:53:01.000Z</time>
      </trkpt>
      <trkpt lat="44.67323" lon="6.6255">
        <ele>1040.28</ele>
        <time>2012-06-10T08:53:03.000Z</time>
      </trkpt>
      <trkpt lat="44.67322" lon="6.62571">
        <ele>1041.73</ele>
        <time>2012-06-10T08:53:11.000Z</time>
      </trkpt>
      <trkpt lat="44.67329" lon="6.62605">
        <ele>1042.21</ele>
        <time>2012-06-10T08:53:20.000Z</time>
      </trkpt>
      <trkpt lat="44.67331" lon="6.62608">
        <ele>1043.17</ele>
        <time>2012-06-10T08:53:22.000Z</time>
      </trkpt>
      <trkpt lat="44.67328" lon="6.62626">
        <ele>1046.05</ele>
        <time>2012-06-10T08:53:33.000Z</time>
      </trkpt>
      <trkpt lat="44.67318" lon="6.62612">
        <ele>1047.97</ele>
        <time>2012-06-10T08:53:44.000Z</time>
      </trkpt>
      <trkpt lat="44.67316" lon="6.62612">
        <ele>1048.94</ele>
        <time>2012-06-10T08:53:46.000Z</time>
      </trkpt>
      <trkpt lat="44.67315" lon="6.62622">
        <ele>1050.38</ele>
        <time>2012-06-10T08:53:53.000Z</time>
      </trkpt>
      <trkpt lat="44.67314" lon="6.6263">
        <ele>1051.34</ele>
        <time>2012-06-10T08:53:57.000Z</time>
      </trkpt>
      <trkpt lat="44.67313" lon="6.62633">
        <ele>1051.82</ele>
        <time>2012-06-10T08:53:59.000Z</time>
      </trkpt>
      <trkpt lat="44.67305" lon="6.6265">
        <ele>1053.74</ele>
        <time>2012-06-10T08:54:09.000Z</time>
      </trkpt>
      <trkpt lat="44.67295" lon="6.62675">
        <ele>1055.67</ele>
        <time>2012-06-10T08:54:20.000Z</time>
      </trkpt>
      <trkpt lat="44.67292" lon="6.62678">
        <ele>1056.15</ele>
        <time>2012-06-10T08:54:23.000Z</time>
      </trkpt>
      <trkpt lat="44.67288" lon="6.62686">
        <ele>1057.11</ele>
        <time>2012-06-10T08:54:27.000Z</time>
      </trkpt>
      <trkpt lat="44.67284" lon="6.62695">
        <ele>1058.55</ele>
        <time>2012-06-10T08:54:32.000Z</time>
      </trkpt>
      <trkpt lat="44.67272" lon="6.62709">
        <ele>1059.51</ele>
        <time>2012-06-10T08:54:39.000Z</time>
      </trkpt>
      <trkpt lat="44.67267" lon="6.62714">
        <ele>1060.95</ele>
        <time>2012-06-10T08:54:42.000Z</time>
      </trkpt>
      <trkpt lat="44.67265" lon="6.62714">
        <ele>1060.95</ele>
        <time>2012-06-10T08:54:44.000Z</time>
      </trkpt>
      <trkpt lat="44.67251" lon="6.62719">
        <ele>1063.84</ele>
        <time>2012-06-10T08:54:55.000Z</time>
      </trkpt>
      <trkpt lat="44.67248" lon="6.62729">
        <ele>1064.32</ele>
        <time>2012-06-10T08:55:00.000Z</time>
      </trkpt>
      <trkpt lat="44.67244" lon="6.62732">
        <ele>1064.32</ele>
        <time>2012-06-10T08:55:03.000Z</time>
      </trkpt>
      <trkpt lat="44.67234" lon="6.6272">
        <ele>1067.2</ele>
        <time>2012-06-10T08:55:14.000Z</time>
      </trkpt>
      <trkpt lat="44.67228" lon="6.62706">
        <ele>1068.64</ele>
        <time>2012-06-10T08:55:21.000Z</time>
      </trkpt>
      <trkpt lat="44.67228" lon="6.62699">
        <ele>1069.6</ele>
        <time>2012-06-10T08:55:25.000Z</time>
      </trkpt>
      <trkpt lat="44.67218" lon="6.62676">
        <ele>1071.53</ele>
        <time>2012-06-10T08:55:35.000Z</time>
      </trkpt>
      <trkpt lat="44.67214" lon="6.62659">
        <ele>1071.05</ele>
        <time>2012-06-10T08:55:41.000Z</time>
      </trkpt>
      <trkpt lat="44.67211" lon="6.62653">
        <ele>1071.53</ele>
        <time>2012-06-10T08:55:43.000Z</time>
      </trkpt>
      <trkpt lat="44.67172" lon="6.6264">
        <ele>1072.01</ele>
        <time>2012-06-10T08:55:56.000Z</time>
      </trkpt>
      <trkpt lat="44.67146" lon="6.62631">
        <ele>1072.97</ele>
        <time>2012-06-10T08:56:06.000Z</time>
      </trkpt>
      <trkpt lat="44.6714" lon="6.62616">
        <ele>1073.45</ele>
        <time>2012-06-10T08:56:10.000Z</time>
      </trkpt>
      <trkpt lat="44.67134" lon="6.62551">
        <ele>1074.89</ele>
        <time>2012-06-10T08:56:25.000Z</time>
      </trkpt>
      <trkpt lat="44.67121" lon="6.62508">
        <ele>1075.85</ele>
        <time>2012-06-10T08:56:35.000Z</time>
      </trkpt>
      <trkpt lat="44.67117" lon="6.62504">
        <ele>1075.37</ele>
        <time>2012-06-10T08:56:36.000Z</time>
      </trkpt>
      <trkpt lat="44.67113" lon="6.62501">
        <ele>1074.89</ele>
        <time>2012-06-10T08:56:37.000Z</time>
      </trkpt>
      <trkpt lat="44.67105" lon="6.62496">
        <ele>1074.41</ele>
        <time>2012-06-10T08:56:39.000Z</time>
      </trkpt>
      <trkpt lat="44.67097" lon="6.6249">
        <ele>1075.85</ele>
        <time>2012-06-10T08:56:41.000Z</time>
      </trkpt>
      <trkpt lat="44.67048" lon="6.62466">
        <ele>1074.89</ele>
        <time>2012-06-10T08:56:53.000Z</time>
      </trkpt>
      <trkpt lat="44.67045" lon="6.62462">
        <ele>1074.89</ele>
        <time>2012-06-10T08:56:54.000Z</time>
      </trkpt>
      <trkpt lat="44.67044" lon="6.62458">
        <ele>1074.41</ele>
        <time>2012-06-10T08:56:55.000Z</time>
      </trkpt>
      <trkpt lat="44.67046" lon="6.62452">
        <ele>1074.41</ele>
        <time>2012-06-10T08:56:56.000Z</time>
      </trkpt>
      <trkpt lat="44.67062" lon="6.62416">
        <ele>1076.81</ele>
        <time>2012-06-10T08:57:06.000Z</time>
      </trkpt>
      <trkpt lat="44.67081" lon="6.62387">
        <ele>1079.22</ele>
        <time>2012-06-10T08:57:19.000Z</time>
      </trkpt>
      <trkpt lat="44.67104" lon="6.62374">
        <ele>1078.74</ele>
        <time>2012-06-10T08:57:27.000Z</time>
      </trkpt>
      <trkpt lat="44.67106" lon="6.6237">
        <ele>1078.74</ele>
        <time>2012-06-10T08:57:28.000Z</time>
      </trkpt>
      <trkpt lat="44.67107" lon="6.62365">
        <ele>1078.26</ele>
        <time>2012-06-10T08:57:29.000Z</time>
      </trkpt>
      <trkpt lat="44.67108" lon="6.62358">
        <ele>1078.26</ele>
        <time>2012-06-10T08:57:30.000Z</time>
      </trkpt>
      <trkpt lat="44.67108" lon="6.6235">
        <ele>1077.29</ele>
        <time>2012-06-10T08:57:31.000Z</time>
      </trkpt>
      <trkpt lat="44.67106" lon="6.62342">
        <ele>1076.81</ele>
        <time>2012-06-10T08:57:32.000Z</time>
      </trkpt>
      <trkpt lat="44.67104" lon="6.62334">
        <ele>1076.33</ele>
        <time>2012-06-10T08:57:33.000Z</time>
      </trkpt>
      <trkpt lat="44.671" lon="6.62327">
        <ele>1075.85</ele>
        <time>2012-06-10T08:57:34.000Z</time>
      </trkpt>
      <trkpt lat="44.67095" lon="6.6232">
        <ele>1076.33</ele>
        <time>2012-06-10T08:57:35.000Z</time>
      </trkpt>
      <trkpt lat="44.67073" lon="6.62285">
        <ele>1074.89</ele>
        <time>2012-06-10T08:57:41.000Z</time>
      </trkpt>
      <trkpt lat="44.67072" lon="6.62278">
        <ele>1074.41</ele>
        <time>2012-06-10T08:57:42.000Z</time>
      </trkpt>
      <trkpt lat="44.67072" lon="6.62272">
        <ele>1074.41</ele>
        <time>2012-06-10T08:57:43.000Z</time>
      </trkpt>
      <trkpt lat="44.67072" lon="6.62259">
        <ele>1074.89</ele>
        <time>2012-06-10T08:57:45.000Z</time>
      </trkpt>
      <trkpt lat="44.6707" lon="6.62253">
        <ele>1074.41</ele>
        <time>2012-06-10T08:57:46.000Z</time>
      </trkpt>
      <trkpt lat="44.67067" lon="6.6225">
        <ele>1074.41</ele>
        <time>2012-06-10T08:57:47.000Z</time>
      </trkpt>
      <trkpt lat="44.67045" lon="6.62226">
        <ele>1074.89</ele>
        <time>2012-06-10T08:57:54.000Z</time>
      </trkpt>
      <trkpt lat="44.67043" lon="6.62221">
        <ele>1074.89</ele>
        <time>2012-06-10T08:57:55.000Z</time>
      </trkpt>
      <trkpt lat="44.67" lon="6.62168">
        <ele>1071.53</ele>
        <time>2012-06-10T08:58:05.000Z</time>
      </trkpt>
      <trkpt lat="44.6699" lon="6.62156">
        <ele>1070.57</ele>
        <time>2012-06-10T08:58:07.000Z</time>
      </trkpt>
      <trkpt lat="44.66972" lon="6.62134">
        <ele>1068.64</ele>
        <time>2012-06-10T08:58:10.000Z</time>
      </trkpt>
      <trkpt lat="44.66945" lon="6.62103">
        <ele>1065.28</ele>
        <time>2012-06-10T08:58:14.000Z</time>
      </trkpt>
      <trkpt lat="44.66936" lon="6.62095">
        <ele>1064.32</ele>
        <time>2012-06-10T08:58:15.000Z</time>
      </trkpt>
      <trkpt lat="44.66927" lon="6.62088">
        <ele>1063.84</ele>
        <time>2012-06-10T08:58:16.000Z</time>
      </trkpt>
      <trkpt lat="44.66918" lon="6.62084">
        <ele>1064.32</ele>
        <time>2012-06-10T08:58:17.000Z</time>
      </trkpt>
      <trkpt lat="44.66904" lon="6.62084">
        <ele>1064.32</ele>
        <time>2012-06-10T08:58:19.000Z</time>
      </trkpt>
      <trkpt lat="44.66897" lon="6.62086">
        <ele>1063.84</ele>
        <time>2012-06-10T08:58:20.000Z</time>
      </trkpt>
      <trkpt lat="44.66891" lon="6.62087">
        <ele>1063.84</ele>
        <time>2012-06-10T08:58:21.000Z</time>
      </trkpt>
      <trkpt lat="44.66881" lon="6.62092">
        <ele>1064.32</ele>
        <time>2012-06-10T08:58:23.000Z</time>
      </trkpt>
      <trkpt lat="44.66875" lon="6.62095">
        <ele>1064.32</ele>
        <time>2012-06-10T08:58:25.000Z</time>
      </trkpt>
      <trkpt lat="44.66829" lon="6.62107">
        <ele>1064.8</ele>
        <time>2012-06-10T08:58:37.000Z</time>
      </trkpt>
      <trkpt lat="44.6682" lon="6.6211">
        <ele>1064.8</ele>
        <time>2012-06-10T08:58:39.000Z</time>
      </trkpt>
      <trkpt lat="44.66816" lon="6.62113">
        <ele>1065.28</ele>
        <time>2012-06-10T08:58:40.000Z</time>
      </trkpt>
      <trkpt lat="44.66808" lon="6.6212">
        <ele>1065.28</ele>
        <time>2012-06-10T08:58:42.000Z</time>
      </trkpt>
      <trkpt lat="44.66805" lon="6.62124">
        <ele>1065.28</ele>
        <time>2012-06-10T08:58:43.000Z</time>
      </trkpt>
      <trkpt lat="44.66794" lon="6.62142">
        <ele>1065.76</ele>
        <time>2012-06-10T08:58:47.000Z</time>
      </trkpt>
      <trkpt lat="44.66787" lon="6.62146">
        <ele>1065.28</ele>
        <time>2012-06-10T08:58:49.000Z</time>
      </trkpt>
      <trkpt lat="44.66783" lon="6.62146">
        <ele>1064.8</ele>
        <time>2012-06-10T08:58:50.000Z</time>
      </trkpt>
      <trkpt lat="44.66777" lon="6.62146">
        <ele>1064.8</ele>
        <time>2012-06-10T08:58:51.000Z</time>
      </trkpt>
      <trkpt lat="44.66771" lon="6.62147">
        <ele>1064.32</ele>
        <time>2012-06-10T08:58:52.000Z</time>
      </trkpt>
      <trkpt lat="44.66757" lon="6.62151">
        <ele>1062.39</ele>
        <time>2012-06-10T08:58:54.000Z</time>
      </trkpt>
      <trkpt lat="44.6675" lon="6.62155">
        <ele>1061.43</ele>
        <time>2012-06-10T08:58:55.000Z</time>
      </trkpt>
      <trkpt lat="44.66717" lon="6.62173">
        <ele>1058.07</ele>
        <time>2012-06-10T08:58:59.000Z</time>
      </trkpt>
      <trkpt lat="44.66699" lon="6.6218">
        <ele>1056.15</ele>
        <time>2012-06-10T08:59:01.000Z</time>
      </trkpt>
      <trkpt lat="44.66679" lon="6.62188">
        <ele>1054.7</ele>
        <time>2012-06-10T08:59:04.000Z</time>
      </trkpt>
      <trkpt lat="44.6667" lon="6.62199">
        <ele>1055.18</ele>
        <time>2012-06-10T08:59:07.000Z</time>
      </trkpt>
      <trkpt lat="44.66671" lon="6.62205">
        <ele>1055.67</ele>
        <time>2012-06-10T08:59:08.000Z</time>
      </trkpt>
      <trkpt lat="44.66671" lon="6.6221">
        <ele>1055.67</ele>
        <time>2012-06-10T08:59:09.000Z</time>
      </trkpt>
      <trkpt lat="44.66671" lon="6.62216">
        <ele>1055.67</ele>
        <time>2012-06-10T08:59:10.000Z</time>
      </trkpt>
      <trkpt lat="44.66671" lon="6.62222">
        <ele>1055.67</ele>
        <time>2012-06-10T08:59:11.000Z</time>
      </trkpt>
      <trkpt lat="44.66672" lon="6.62228">
        <ele>1055.18</ele>
        <time>2012-06-10T08:59:12.000Z</time>
      </trkpt>
      <trkpt lat="44.66675" lon="6.62264">
        <ele>1055.67</ele>
        <time>2012-06-10T08:59:17.000Z</time>
      </trkpt>
      <trkpt lat="44.66676" lon="6.62271">
        <ele>1056.15</ele>
        <time>2012-06-10T08:59:18.000Z</time>
      </trkpt>
      <trkpt lat="44.66677" lon="6.62276">
        <ele>1056.15</ele>
        <time>2012-06-10T08:59:19.000Z</time>
      </trkpt>
      <trkpt lat="44.66681" lon="6.6228">
        <ele>1055.67</ele>
        <time>2012-06-10T08:59:20.000Z</time>
      </trkpt>
      <trkpt lat="44.66685" lon="6.62282">
        <ele>1055.67</ele>
        <time>2012-06-10T08:59:21.000Z</time>
      </trkpt>
      <trkpt lat="44.66698" lon="6.62291">
        <ele>1055.18</ele>
        <time>2012-06-10T08:59:24.000Z</time>
      </trkpt>
      <trkpt lat="44.667" lon="6.62296">
        <ele>1055.18</ele>
        <time>2012-06-10T08:59:25.000Z</time>
      </trkpt>
      <trkpt lat="44.66703" lon="6.62302">
        <ele>1054.22</ele>
        <time>2012-06-10T08:59:26.000Z</time>
      </trkpt>
      <trkpt lat="44.66707" lon="6.62307">
        <ele>1054.22</ele>
        <time>2012-06-10T08:59:27.000Z</time>
      </trkpt>
      <trkpt lat="44.66711" lon="6.62312">
        <ele>1054.22</ele>
        <time>2012-06-10T08:59:28.000Z</time>
      </trkpt>
      <trkpt lat="44.66715" lon="6.62315">
        <ele>1054.7</ele>
        <time>2012-06-10T08:59:29.000Z</time>
      </trkpt>
      <trkpt lat="44.66738" lon="6.62332">
        <ele>1055.67</ele>
        <time>2012-06-10T08:59:36.000Z</time>
      </trkpt>
      <trkpt lat="44.6674" lon="6.62335">
        <ele>1055.67</ele>
        <time>2012-06-10T08:59:37.000Z</time>
      </trkpt>
      <trkpt lat="44.66743" lon="6.62339">
        <ele>1055.67</ele>
        <time>2012-06-10T08:59:38.000Z</time>
      </trkpt>
      <trkpt lat="44.66745" lon="6.62344">
        <ele>1055.67</ele>
        <time>2012-06-10T08:59:39.000Z</time>
      </trkpt>
      <trkpt lat="44.66746" lon="6.62349">
        <ele>1055.67</ele>
        <time>2012-06-10T08:59:40.000Z</time>
      </trkpt>
      <trkpt lat="44.66757" lon="6.6238">
        <ele>1056.15</ele>
        <time>2012-06-10T08:59:46.000Z</time>
      </trkpt>
      <trkpt lat="44.66761" lon="6.62391">
        <ele>1056.15</ele>
        <time>2012-06-10T08:59:48.000Z</time>
      </trkpt>
      <trkpt lat="44.66762" lon="6.62397">
        <ele>1056.15</ele>
        <time>2012-06-10T08:59:49.000Z</time>
      </trkpt>
      <trkpt lat="44.66768" lon="6.62413">
        <ele>1056.15</ele>
        <time>2012-06-10T08:59:52.000Z</time>
      </trkpt>
      <trkpt lat="44.66772" lon="6.62424">
        <ele>1055.67</ele>
        <time>2012-06-10T08:59:54.000Z</time>
      </trkpt>
      <trkpt lat="44.66781" lon="6.62451">
        <ele>1055.67</ele>
        <time>2012-06-10T08:59:59.000Z</time>
      </trkpt>
      <trkpt lat="44.66783" lon="6.62455">
        <ele>1055.67</ele>
        <time>2012-06-10T09:00:00.000Z</time>
      </trkpt>
      <trkpt lat="44.66785" lon="6.62459">
        <ele>1055.67</ele>
        <time>2012-06-10T09:00:01.000Z</time>
      </trkpt>
      <trkpt lat="44.66788" lon="6.62461">
        <ele>1056.63</ele>
        <time>2012-06-10T09:00:02.000Z</time>
      </trkpt>
      <trkpt lat="44.6679" lon="6.62463">
        <ele>1056.15</ele>
        <time>2012-06-10T09:00:03.000Z</time>
      </trkpt>
      <trkpt lat="44.66793" lon="6.62464">
        <ele>1056.63</ele>
        <time>2012-06-10T09:00:04.000Z</time>
      </trkpt>
      <trkpt lat="44.66795" lon="6.62466">
        <ele>1056.63</ele>
        <time>2012-06-10T09:00:05.000Z</time>
      </trkpt>
      <trkpt lat="44.66797" lon="6.62467">
        <ele>1057.11</ele>
        <time>2012-06-10T09:00:06.000Z</time>
      </trkpt>
      <trkpt lat="44.66799" lon="6.62469">
        <ele>1057.11</ele>
        <time>2012-06-10T09:00:07.000Z</time>
      </trkpt>
      <trkpt lat="44.66824" lon="6.6248">
        <ele>1059.99</ele>
        <time>2012-06-10T09:00:20.000Z</time>
      </trkpt>
      <trkpt lat="44.66842" lon="6.62491">
        <ele>1062.39</ele>
        <time>2012-06-10T09:00:30.000Z</time>
      </trkpt>
      <trkpt lat="44.66845" lon="6.62492">
        <ele>1061.91</ele>
        <time>2012-06-10T09:00:31.000Z</time>
      </trkpt>
      <trkpt lat="44.66846" lon="6.62493">
        <ele>1062.39</ele>
        <time>2012-06-10T09:00:32.000Z</time>
      </trkpt>
      <trkpt lat="44.66849" lon="6.62494">
        <ele>1062.87</ele>
        <time>2012-06-10T09:00:33.000Z</time>
      </trkpt>
      <trkpt lat="44.6685" lon="6.62496">
        <ele>1062.87</ele>
        <time>2012-06-10T09:00:34.000Z</time>
      </trkpt>
      <trkpt lat="44.66852" lon="6.62498">
        <ele>1063.36</ele>
        <time>2012-06-10T09:00:35.000Z</time>
      </trkpt>
      <trkpt lat="44.66853" lon="6.62501">
        <ele>1063.36</ele>
        <time>2012-06-10T09:00:36.000Z</time>
      </trkpt>
      <trkpt lat="44.66853" lon="6.62502">
        <ele>1063.36</ele>
        <time>2012-06-10T09:00:37.000Z</time>
      </trkpt>
      <trkpt lat="44.66852" lon="6.62503">
        <ele>1063.36</ele>
        <time>2012-06-10T09:00:38.000Z</time>
      </trkpt>
      <trkpt lat="44.66851" lon="6.62505">
        <ele>1063.84</ele>
        <time>2012-06-10T09:00:39.000Z</time>
      </trkpt>
      <trkpt lat="44.6685" lon="6.62508">
        <ele>1062.87</ele>
        <time>2012-06-10T09:00:40.000Z</time>
      </trkpt>
      <trkpt lat="44.6685" lon="6.62513">
        <ele>1063.36</ele>
        <time>2012-06-10T09:00:41.000Z</time>
      </trkpt>
      <trkpt lat="44.66849" lon="6.62517">
        <ele>1063.36</ele>
        <time>2012-06-10T09:00:42.000Z</time>
      </trkpt>
      <trkpt lat="44.66848" lon="6.62522">
        <ele>1063.84</ele>
        <time>2012-06-10T09:00:43.000Z</time>
      </trkpt>
      <trkpt lat="44.66833" lon="6.62598">
        <ele>1063.36</ele>
        <time>2012-06-10T09:00:57.000Z</time>
      </trkpt>
      <trkpt lat="44.66823" lon="6.62618">
        <ele>1062.87</ele>
        <time>2012-06-10T09:01:02.000Z</time>
      </trkpt>
      <trkpt lat="44.66819" lon="6.6262">
        <ele>1063.84</ele>
        <time>2012-06-10T09:01:03.000Z</time>
      </trkpt>
      <trkpt lat="44.66816" lon="6.62621">
        <ele>1063.36</ele>
        <time>2012-06-10T09:01:04.000Z</time>
      </trkpt>
      <trkpt lat="44.6678" lon="6.62635">
        <ele>1063.84</ele>
        <time>2012-06-10T09:01:17.000Z</time>
      </trkpt>
      <trkpt lat="44.66779" lon="6.62642">
        <ele>1063.84</ele>
        <time>2012-06-10T09:01:18.000Z</time>
      </trkpt>
      <trkpt lat="44.66779" lon="6.6265">
        <ele>1063.84</ele>
        <time>2012-06-10T09:01:19.000Z</time>
      </trkpt>
      <trkpt lat="44.6678" lon="6.62657">
        <ele>1063.36</ele>
        <time>2012-06-10T09:01:20.000Z</time>
      </trkpt>
      <trkpt lat="44.66781" lon="6.62663">
        <ele>1063.36</ele>
        <time>2012-06-10T09:01:21.000Z</time>
      </trkpt>
      <trkpt lat="44.66784" lon="6.62667">
        <ele>1063.36</ele>
        <time>2012-06-10T09:01:22.000Z</time>
      </trkpt>
      <trkpt lat="44.66787" lon="6.62671">
        <ele>1063.36</ele>
        <time>2012-06-10T09:01:23.000Z</time>
      </trkpt>
      <trkpt lat="44.6679" lon="6.62673">
        <ele>1063.36</ele>
        <time>2012-06-10T09:01:24.000Z</time>
      </trkpt>
      <trkpt lat="44.66798" lon="6.6267">
        <ele>1063.84</ele>
        <time>2012-06-10T09:01:27.000Z</time>
      </trkpt>
      <trkpt lat="44.66813" lon="6.62661">
        <ele>1062.87</ele>
        <time>2012-06-10T09:01:35.000Z</time>
      </trkpt>
      <trkpt lat="44.66829" lon="6.6267">
        <ele>1062.87</ele>
        <time>2012-06-10T09:01:41.000Z</time>
      </trkpt>
      <trkpt lat="44.66831" lon="6.62674">
        <ele>1062.87</ele>
        <time>2012-06-10T09:01:42.000Z</time>
      </trkpt>
      <trkpt lat="44.66832" lon="6.62678">
        <ele>1062.87</ele>
        <time>2012-06-10T09:01:43.000Z</time>
      </trkpt>
      <trkpt lat="44.66832" lon="6.62682">
        <ele>1062.39</ele>
        <time>2012-06-10T09:01:44.000Z</time>
      </trkpt>
      <trkpt lat="44.66832" lon="6.62687">
        <ele>1062.87</ele>
        <time>2012-06-10T09:01:46.000Z</time>
      </trkpt>
      <trkpt lat="44.66856" lon="6.62701">
        <ele>1061.43</ele>
        <time>2012-06-10T09:01:57.000Z</time>
      </trkpt>
      <trkpt lat="44.66859" lon="6.62705">
        <ele>1061.43</ele>
        <time>2012-06-10T09:01:58.000Z</time>
      </trkpt>
      <trkpt lat="44.66856" lon="6.62713">
        <ele>1062.87</ele>
        <time>2012-06-10T09:02:01.000Z</time>
      </trkpt>
      <trkpt lat="44.66856" lon="6.62714">
        <ele>1063.36</ele>
        <time>2012-06-10T09:02:02.000Z</time>
      </trkpt>
      <trkpt lat="44.66877" lon="6.62727">
        <ele>1066.24</ele>
        <time>2012-06-10T09:02:14.000Z</time>
      </trkpt>
      <trkpt lat="44.66889" lon="6.62754">
        <ele>1066.24</ele>
        <time>2012-06-10T09:02:26.000Z</time>
      </trkpt>
      <trkpt lat="44.6689" lon="6.62763">
        <ele>1066.24</ele>
        <time>2012-06-10T09:02:30.000Z</time>
      </trkpt>
      <trkpt lat="44.66905" lon="6.62768">
        <ele>1067.2</ele>
        <time>2012-06-10T09:02:35.000Z</time>
      </trkpt>
      <trkpt lat="44.66912" lon="6.62768">
        <ele>1069.6</ele>
        <time>2012-06-10T09:02:39.000Z</time>
      </trkpt>
      <trkpt lat="44.66916" lon="6.62771">
        <ele>1069.6</ele>
        <time>2012-06-10T09:02:43.000Z</time>
      </trkpt>
      <trkpt lat="44.66922" lon="6.62776">
        <ele>1070.08</ele>
        <time>2012-06-10T09:02:47.000Z</time>
      </trkpt>
      <trkpt lat="44.66942" lon="6.6277">
        <ele>1070.57</ele>
        <time>2012-06-10T09:02:56.000Z</time>
      </trkpt>
      <trkpt lat="44.66945" lon="6.6277">
        <ele>1070.57</ele>
        <time>2012-06-10T09:02:57.000Z</time>
      </trkpt>
      <trkpt lat="44.66953" lon="6.62771">
        <ele>1069.12</ele>
        <time>2012-06-10T09:02:59.000Z</time>
      </trkpt>
      <trkpt lat="44.6697" lon="6.62786">
        <ele>1070.08</ele>
        <time>2012-06-10T09:03:07.000Z</time>
      </trkpt>
      <trkpt lat="44.66971" lon="6.62788">
        <ele>1070.57</ele>
        <time>2012-06-10T09:03:09.000Z</time>
      </trkpt>
      <trkpt lat="44.66976" lon="6.62789">
        <ele>1072.49</ele>
        <time>2012-06-10T09:03:21.000Z</time>
      </trkpt>
      <trkpt lat="44.66983" lon="6.62796">
        <ele>1072.49</ele>
        <time>2012-06-10T09:03:27.000Z</time>
      </trkpt>
      <trkpt lat="44.67016" lon="6.62822">
        <ele>1072.01</ele>
        <time>2012-06-10T09:03:38.000Z</time>
      </trkpt>
      <trkpt lat="44.67046" lon="6.62836">
        <ele>1074.41</ele>
        <time>2012-06-10T09:03:49.000Z</time>
      </trkpt>
      <trkpt lat="44.67085" lon="6.62855">
        <ele>1074.41</ele>
        <time>2012-06-10T09:04:02.000Z</time>
      </trkpt>
      <trkpt lat="44.67097" lon="6.62865">
        <ele>1073.93</ele>
        <time>2012-06-10T09:04:06.000Z</time>
      </trkpt>
      <trkpt lat="44.671" lon="6.6287">
        <ele>1073.93</ele>
        <time>2012-06-10T09:04:07.000Z</time>
      </trkpt>
      <trkpt lat="44.67104" lon="6.62873">
        <ele>1073.93</ele>
        <time>2012-06-10T09:04:08.000Z</time>
      </trkpt>
      <trkpt lat="44.67108" lon="6.62874">
        <ele>1072.97</ele>
        <time>2012-06-10T09:04:09.000Z</time>
      </trkpt>
      <trkpt lat="44.67112" lon="6.62877">
        <ele>1073.45</ele>
        <time>2012-06-10T09:04:10.000Z</time>
      </trkpt>
      <trkpt lat="44.67116" lon="6.6288">
        <ele>1072.97</ele>
        <time>2012-06-10T09:04:11.000Z</time>
      </trkpt>
      <trkpt lat="44.67146" lon="6.62898">
        <ele>1071.05</ele>
        <time>2012-06-10T09:04:17.000Z</time>
      </trkpt>
      <trkpt lat="44.67152" lon="6.62901">
        <ele>1070.57</ele>
        <time>2012-06-10T09:04:18.000Z</time>
      </trkpt>
      <trkpt lat="44.67156" lon="6.62904">
        <ele>1070.57</ele>
        <time>2012-06-10T09:04:19.000Z</time>
      </trkpt>
      <trkpt lat="44.6716" lon="6.62909">
        <ele>1070.08</ele>
        <time>2012-06-10T09:04:20.000Z</time>
      </trkpt>
      <trkpt lat="44.67165" lon="6.62913">
        <ele>1070.08</ele>
        <time>2012-06-10T09:04:21.000Z</time>
      </trkpt>
      <trkpt lat="44.67211" lon="6.62978">
        <ele>1069.6</ele>
        <time>2012-06-10T09:04:34.000Z</time>
      </trkpt>
      <trkpt lat="44.67213" lon="6.62984">
        <ele>1070.08</ele>
        <time>2012-06-10T09:04:35.000Z</time>
      </trkpt>
      <trkpt lat="44.67216" lon="6.62991">
        <ele>1070.08</ele>
        <time>2012-06-10T09:04:36.000Z</time>
      </trkpt>
      <trkpt lat="44.67217" lon="6.62997">
        <ele>1069.6</ele>
        <time>2012-06-10T09:04:37.000Z</time>
      </trkpt>
      <trkpt lat="44.67227" lon="6.63018">
        <ele>1067.2</ele>
        <time>2012-06-10T09:04:41.000Z</time>
      </trkpt>
      <trkpt lat="44.67232" lon="6.63024">
        <ele>1065.76</ele>
        <time>2012-06-10T09:04:42.000Z</time>
      </trkpt>
      <trkpt lat="44.6724" lon="6.63034">
        <ele>1064.8</ele>
        <time>2012-06-10T09:04:44.000Z</time>
      </trkpt>
      <trkpt lat="44.67241" lon="6.63038">
        <ele>1063.36</ele>
        <time>2012-06-10T09:04:45.000Z</time>
      </trkpt>
      <trkpt lat="44.67243" lon="6.63042">
        <ele>1062.87</ele>
        <time>2012-06-10T09:04:46.000Z</time>
      </trkpt>
      <trkpt lat="44.67245" lon="6.63047">
        <ele>1062.39</ele>
        <time>2012-06-10T09:04:47.000Z</time>
      </trkpt>
      <trkpt lat="44.67248" lon="6.63052">
        <ele>1061.91</ele>
        <time>2012-06-10T09:04:48.000Z</time>
      </trkpt>
      <trkpt lat="44.67251" lon="6.63056">
        <ele>1061.43</ele>
        <time>2012-06-10T09:04:49.000Z</time>
      </trkpt>
      <trkpt lat="44.67254" lon="6.6306">
        <ele>1061.43</ele>
        <time>2012-06-10T09:04:50.000Z</time>
      </trkpt>
      <trkpt lat="44.67257" lon="6.63065">
        <ele>1061.91</ele>
        <time>2012-06-10T09:04:51.000Z</time>
      </trkpt>
      <trkpt lat="44.67259" lon="6.6307">
        <ele>1061.43</ele>
        <time>2012-06-10T09:04:52.000Z</time>
      </trkpt>
      <trkpt lat="44.67283" lon="6.63101">
        <ele>1059.99</ele>
        <time>2012-06-10T09:04:58.000Z</time>
      </trkpt>
      <trkpt lat="44.67288" lon="6.63107">
        <ele>1060.47</ele>
        <time>2012-06-10T09:04:59.000Z</time>
      </trkpt>
      <trkpt lat="44.67306" lon="6.63137">
        <ele>1059.99</ele>
        <time>2012-06-10T09:05:04.000Z</time>
      </trkpt>
      <trkpt lat="44.67318" lon="6.63158">
        <ele>1060.47</ele>
        <time>2012-06-10T09:05:08.000Z</time>
      </trkpt>
      <trkpt lat="44.67325" lon="6.63167">
        <ele>1059.99</ele>
        <time>2012-06-10T09:05:10.000Z</time>
      </trkpt>
      <trkpt lat="44.67329" lon="6.63172">
        <ele>1059.99</ele>
        <time>2012-06-10T09:05:11.000Z</time>
      </trkpt>
      <trkpt lat="44.67332" lon="6.63178">
        <ele>1059.99</ele>
        <time>2012-06-10T09:05:12.000Z</time>
      </trkpt>
      <trkpt lat="44.67344" lon="6.63196">
        <ele>1058.55</ele>
        <time>2012-06-10T09:05:15.000Z</time>
      </trkpt>
      <trkpt lat="44.6735" lon="6.63201">
        <ele>1057.59</ele>
        <time>2012-06-10T09:05:16.000Z</time>
      </trkpt>
      <trkpt lat="44.67369" lon="6.63215">
        <ele>1056.63</ele>
        <time>2012-06-10T09:05:19.000Z</time>
      </trkpt>
      <trkpt lat="44.67391" lon="6.63226">
        <ele>1054.7</ele>
        <time>2012-06-10T09:05:22.000Z</time>
      </trkpt>
      <trkpt lat="44.67398" lon="6.63231">
        <ele>1054.22</ele>
        <time>2012-06-10T09:05:23.000Z</time>
      </trkpt>
      <trkpt lat="44.67407" lon="6.63235">
        <ele>1054.22</ele>
        <time>2012-06-10T09:05:24.000Z</time>
      </trkpt>
      <trkpt lat="44.67433" lon="6.63249">
        <ele>1052.3</ele>
        <time>2012-06-10T09:05:27.000Z</time>
      </trkpt>
      <trkpt lat="44.67504" lon="6.63301">
        <ele>1051.34</ele>
        <time>2012-06-10T09:05:37.000Z</time>
      </trkpt>
      <trkpt lat="44.67524" lon="6.63319">
        <ele>1051.34</ele>
        <time>2012-06-10T09:05:41.000Z</time>
      </trkpt>
      <trkpt lat="44.67531" lon="6.63328">
        <ele>1051.34</ele>
        <time>2012-06-10T09:05:43.000Z</time>
      </trkpt>
      <trkpt lat="44.67542" lon="6.6334">
        <ele>1049.9</ele>
        <time>2012-06-10T09:05:46.000Z</time>
      </trkpt>
      <trkpt lat="44.67576" lon="6.6338">
        <ele>1052.78</ele>
        <time>2012-06-10T09:05:56.000Z</time>
      </trkpt>
      <trkpt lat="44.67586" lon="6.63392">
        <ele>1052.78</ele>
        <time>2012-06-10T09:05:59.000Z</time>
      </trkpt>
      <trkpt lat="44.67608" lon="6.63406">
        <ele>1055.18</ele>
        <time>2012-06-10T09:06:07.000Z</time>
      </trkpt>
      <trkpt lat="44.6762" lon="6.63413">
        <ele>1056.63</ele>
        <time>2012-06-10T09:06:12.000Z</time>
      </trkpt>
      <trkpt lat="44.67622" lon="6.63414">
        <ele>1056.63</ele>
        <time>2012-06-10T09:06:13.000Z</time>
      </trkpt>
      <trkpt lat="44.67625" lon="6.63415">
        <ele>1057.11</ele>
        <time>2012-06-10T09:06:14.000Z</time>
      </trkpt>
      <trkpt lat="44.67657" lon="6.6344">
        <ele>1059.99</ele>
        <time>2012-06-10T09:06:27.000Z</time>
      </trkpt>
      <trkpt lat="44.67681" lon="6.6347">
        <ele>1062.87</ele>
        <time>2012-06-10T09:06:39.000Z</time>
      </trkpt>
      <trkpt lat="44.67702" lon="6.63501">
        <ele>1065.76</ele>
        <time>2012-06-10T09:06:51.000Z</time>
      </trkpt>
      <trkpt lat="44.67726" lon="6.6353">
        <ele>1069.12</ele>
        <time>2012-06-10T09:07:04.000Z</time>
      </trkpt>
      <trkpt lat="44.67757" lon="6.63557">
        <ele>1072.01</ele>
        <time>2012-06-10T09:07:20.000Z</time>
      </trkpt>
      <trkpt lat="44.67767" lon="6.63595">
        <ele>1075.37</ele>
        <time>2012-06-10T09:07:34.000Z</time>
      </trkpt>
      <trkpt lat="44.67765" lon="6.63608">
        <ele>1076.33</ele>
        <time>2012-06-10T09:07:39.000Z</time>
      </trkpt>
      <trkpt lat="44.67767" lon="6.6361">
        <ele>1076.33</ele>
        <time>2012-06-10T09:07:40.000Z</time>
      </trkpt>
      <trkpt lat="44.67768" lon="6.63612">
        <ele>1076.81</ele>
        <time>2012-06-10T09:07:41.000Z</time>
      </trkpt>
      <trkpt lat="44.6777" lon="6.63613">
        <ele>1077.29</ele>
        <time>2012-06-10T09:07:42.000Z</time>
      </trkpt>
      <trkpt lat="44.67772" lon="6.63614">
        <ele>1077.29</ele>
        <time>2012-06-10T09:07:43.000Z</time>
      </trkpt>
      <trkpt lat="44.67812" lon="6.63623">
        <ele>1077.78</ele>
        <time>2012-06-10T09:07:57.000Z</time>
      </trkpt>
      <trkpt lat="44.67849" lon="6.63599">
        <ele>1078.26</ele>
        <time>2012-06-10T09:08:08.000Z</time>
      </trkpt>
      <trkpt lat="44.67872" lon="6.63595">
        <ele>1079.7</ele>
        <time>2012-06-10T09:08:15.000Z</time>
      </trkpt>
      <trkpt lat="44.67876" lon="6.63597">
        <ele>1079.7</ele>
        <time>2012-06-10T09:08:16.000Z</time>
      </trkpt>
      <trkpt lat="44.67879" lon="6.63598">
        <ele>1080.18</ele>
        <time>2012-06-10T09:08:17.000Z</time>
      </trkpt>
      <trkpt lat="44.67881" lon="6.636">
        <ele>1080.18</ele>
        <time>2012-06-10T09:08:18.000Z</time>
      </trkpt>
      <trkpt lat="44.67884" lon="6.63603">
        <ele>1080.18</ele>
        <time>2012-06-10T09:08:19.000Z</time>
      </trkpt>
      <trkpt lat="44.67886" lon="6.63605">
        <ele>1080.66</ele>
        <time>2012-06-10T09:08:20.000Z</time>
      </trkpt>
      <trkpt lat="44.67902" lon="6.63619">
        <ele>1080.18</ele>
        <time>2012-06-10T09:08:25.000Z</time>
      </trkpt>
      <trkpt lat="44.67911" lon="6.63623">
        <ele>1079.7</ele>
        <time>2012-06-10T09:08:27.000Z</time>
      </trkpt>
      <trkpt lat="44.67915" lon="6.63624">
        <ele>1079.7</ele>
        <time>2012-06-10T09:08:28.000Z</time>
      </trkpt>
      <trkpt lat="44.67919" lon="6.63624">
        <ele>1079.7</ele>
        <time>2012-06-10T09:08:29.000Z</time>
      </trkpt>
      <trkpt lat="44.67936" lon="6.63611">
        <ele>1082.58</ele>
        <time>2012-06-10T09:08:37.000Z</time>
      </trkpt>
      <trkpt lat="44.67939" lon="6.63607">
        <ele>1083.54</ele>
        <time>2012-06-10T09:08:39.000Z</time>
      </trkpt>
      <trkpt lat="44.67949" lon="6.63591">
        <ele>1086.43</ele>
        <time>2012-06-10T09:08:48.000Z</time>
      </trkpt>
      <trkpt lat="44.67972" lon="6.63574">
        <ele>1087.39</ele>
        <time>2012-06-10T09:09:01.000Z</time>
      </trkpt>
      <trkpt lat="44.68" lon="6.63557">
        <ele>1090.27</ele>
        <time>2012-06-10T09:09:16.000Z</time>
      </trkpt>
      <trkpt lat="44.68015" lon="6.63555">
        <ele>1092.68</ele>
        <time>2012-06-10T09:09:26.000Z</time>
      </trkpt>
      <trkpt lat="44.68039" lon="6.63549">
        <ele>1094.6</ele>
        <time>2012-06-10T09:09:39.000Z</time>
      </trkpt>
      <trkpt lat="44.68066" lon="6.63528">
        <ele>1095.56</ele>
        <time>2012-06-10T09:09:53.000Z</time>
      </trkpt>
      <trkpt lat="44.68069" lon="6.63524">
        <ele>1096.04</ele>
        <time>2012-06-10T09:09:55.000Z</time>
      </trkpt>
      <trkpt lat="44.68071" lon="6.63524">
        <ele>1096.04</ele>
        <time>2012-06-10T09:09:56.000Z</time>
      </trkpt>
      <trkpt lat="44.68073" lon="6.63524">
        <ele>1096.52</ele>
        <time>2012-06-10T09:09:57.000Z</time>
      </trkpt>
      <trkpt lat="44.68074" lon="6.63525">
        <ele>1096.52</ele>
        <time>2012-06-10T09:09:58.000Z</time>
      </trkpt>
      <trkpt lat="44.68074" lon="6.63527">
        <ele>1097</ele>
        <time>2012-06-10T09:09:59.000Z</time>
      </trkpt>
      <trkpt lat="44.68073" lon="6.63529">
        <ele>1097</ele>
        <time>2012-06-10T09:10:00.000Z</time>
      </trkpt>
      <trkpt lat="44.68072" lon="6.63531">
        <ele>1097.48</ele>
        <time>2012-06-10T09:10:01.000Z</time>
      </trkpt>
      <trkpt lat="44.6807" lon="6.63534">
        <ele>1097.48</ele>
        <time>2012-06-10T09:10:02.000Z</time>
      </trkpt>
      <trkpt lat="44.68069" lon="6.63536">
        <ele>1097.96</ele>
        <time>2012-06-10T09:10:03.000Z</time>
      </trkpt>
      <trkpt lat="44.68068" lon="6.63538">
        <ele>1098.92</ele>
        <time>2012-06-10T09:10:04.000Z</time>
      </trkpt>
      <trkpt lat="44.68052" lon="6.63562">
        <ele>1101.33</ele>
        <time>2012-06-10T09:10:17.000Z</time>
      </trkpt>
      <trkpt lat="44.68048" lon="6.63567">
        <ele>1101.33</ele>
        <time>2012-06-10T09:10:20.000Z</time>
      </trkpt>
      <trkpt lat="44.68047" lon="6.63569">
        <ele>1101.81</ele>
        <time>2012-06-10T09:10:21.000Z</time>
      </trkpt>
      <trkpt lat="44.68045" lon="6.6357">
        <ele>1102.29</ele>
        <time>2012-06-10T09:10:22.000Z</time>
      </trkpt>
      <trkpt lat="44.68044" lon="6.63572">
        <ele>1102.29</ele>
        <time>2012-06-10T09:10:23.000Z</time>
      </trkpt>
      <trkpt lat="44.68043" lon="6.63574">
        <ele>1102.77</ele>
        <time>2012-06-10T09:10:24.000Z</time>
      </trkpt>
      <trkpt lat="44.68036" lon="6.63582">
        <ele>1104.21</ele>
        <time>2012-06-10T09:10:29.000Z</time>
      </trkpt>
      <trkpt lat="44.68028" lon="6.63593">
        <ele>1105.65</ele>
        <time>2012-06-10T09:10:35.000Z</time>
      </trkpt>
      <trkpt lat="44.68028" lon="6.63595">
        <ele>1105.65</ele>
        <time>2012-06-10T09:10:36.000Z</time>
      </trkpt>
      <trkpt lat="44.68029" lon="6.63597">
        <ele>1105.65</ele>
        <time>2012-06-10T09:10:37.000Z</time>
      </trkpt>
      <trkpt lat="44.68031" lon="6.63599">
        <ele>1106.61</ele>
        <time>2012-06-10T09:10:39.000Z</time>
      </trkpt>
      <trkpt lat="44.68061" lon="6.63578">
        <ele>1108.54</ele>
        <time>2012-06-10T09:10:55.000Z</time>
      </trkpt>
      <trkpt lat="44.68086" lon="6.63567">
        <ele>1109.98</ele>
        <time>2012-06-10T09:11:07.000Z</time>
      </trkpt>
      <trkpt lat="44.68111" lon="6.63548">
        <ele>1112.86</ele>
        <time>2012-06-10T09:11:19.000Z</time>
      </trkpt>
      <trkpt lat="44.68138" lon="6.6353">
        <ele>1113.34</ele>
        <time>2012-06-10T09:11:31.000Z</time>
      </trkpt>
      <trkpt lat="44.6817" lon="6.63511">
        <ele>1114.31</ele>
        <time>2012-06-10T09:11:44.000Z</time>
      </trkpt>
      <trkpt lat="44.68188" lon="6.63509">
        <ele>1118.15</ele>
        <time>2012-06-10T09:11:53.000Z</time>
      </trkpt>
      <trkpt lat="44.68216" lon="6.63504">
        <ele>1120.07</ele>
        <time>2012-06-10T09:12:07.000Z</time>
      </trkpt>
      <trkpt lat="44.68244" lon="6.63486">
        <ele>1122.96</ele>
        <time>2012-06-10T09:12:20.000Z</time>
      </trkpt>
      <trkpt lat="44.68267" lon="6.63481">
        <ele>1126.32</ele>
        <time>2012-06-10T09:12:33.000Z</time>
      </trkpt>
      <trkpt lat="44.68288" lon="6.63483">
        <ele>1128.24</ele>
        <time>2012-06-10T09:12:45.000Z</time>
      </trkpt>
      <trkpt lat="44.68307" lon="6.63484">
        <ele>1131.61</ele>
        <time>2012-06-10T09:12:56.000Z</time>
      </trkpt>
      <trkpt lat="44.68324" lon="6.6349">
        <ele>1134.49</ele>
        <time>2012-06-10T09:13:08.000Z</time>
      </trkpt>
      <trkpt lat="44.68348" lon="6.63497">
        <ele>1137.86</ele>
        <time>2012-06-10T09:13:24.000Z</time>
      </trkpt>
      <trkpt lat="44.68372" lon="6.63498">
        <ele>1139.78</ele>
        <time>2012-06-10T09:13:38.000Z</time>
      </trkpt>
      <trkpt lat="44.6838" lon="6.63497">
        <ele>1141.22</ele>
        <time>2012-06-10T09:13:44.000Z</time>
      </trkpt>
      <trkpt lat="44.68393" lon="6.63497">
        <ele>1144.11</ele>
        <time>2012-06-10T09:13:56.000Z</time>
      </trkpt>
      <trkpt lat="44.68409" lon="6.635">
        <ele>1147.47</ele>
        <time>2012-06-10T09:14:11.000Z</time>
      </trkpt>
      <trkpt lat="44.68415" lon="6.63508">
        <ele>1148.91</ele>
        <time>2012-06-10T09:14:18.000Z</time>
      </trkpt>
      <trkpt lat="44.68417" lon="6.63521">
        <ele>1150.84</ele>
        <time>2012-06-10T09:14:26.000Z</time>
      </trkpt>
      <trkpt lat="44.6842" lon="6.6353">
        <ele>1152.28</ele>
        <time>2012-06-10T09:14:35.000Z</time>
      </trkpt>
      <trkpt lat="44.6842" lon="6.63531">
        <ele>1152.28</ele>
        <time>2012-06-10T09:14:48.000Z</time>
      </trkpt>
      <trkpt lat="44.68441" lon="6.63542">
        <ele>1154.2</ele>
        <time>2012-06-10T09:15:00.000Z</time>
      </trkpt>
      <trkpt lat="44.68463" lon="6.63552">
        <ele>1154.2</ele>
        <time>2012-06-10T09:15:09.000Z</time>
      </trkpt>
      <trkpt lat="44.68485" lon="6.63553">
        <ele>1156.12</ele>
        <time>2012-06-10T09:15:19.000Z</time>
      </trkpt>
      <trkpt lat="44.68496" lon="6.63549">
        <ele>1157.56</ele>
        <time>2012-06-10T09:15:25.000Z</time>
      </trkpt>
      <trkpt lat="44.68501" lon="6.63546">
        <ele>1159.01</ele>
        <time>2012-06-10T09:15:28.000Z</time>
      </trkpt>
      <trkpt lat="44.68504" lon="6.63538">
        <ele>1159.49</ele>
        <time>2012-06-10T09:15:33.000Z</time>
      </trkpt>
      <trkpt lat="44.68512" lon="6.6354">
        <ele>1159.49</ele>
        <time>2012-06-10T09:15:38.000Z</time>
      </trkpt>
      <trkpt lat="44.68522" lon="6.63547">
        <ele>1159.97</ele>
        <time>2012-06-10T09:15:46.000Z</time>
      </trkpt>
      <trkpt lat="44.68532" lon="6.63579">
        <ele>1162.85</ele>
        <time>2012-06-10T09:15:59.000Z</time>
      </trkpt>
      <trkpt lat="44.6854" lon="6.63611">
        <ele>1163.33</ele>
        <time>2012-06-10T09:16:10.000Z</time>
      </trkpt>
      <trkpt lat="44.68541" lon="6.63613">
        <ele>1163.33</ele>
        <time>2012-06-10T09:16:11.000Z</time>
      </trkpt>
      <trkpt lat="44.68547" lon="6.63649">
        <ele>1164.77</ele>
        <time>2012-06-10T09:16:23.000Z</time>
      </trkpt>
      <trkpt lat="44.68555" lon="6.63669">
        <ele>1165.74</ele>
        <time>2012-06-10T09:16:32.000Z</time>
      </trkpt>
      <trkpt lat="44.68575" lon="6.63686">
        <ele>1167.66</ele>
        <time>2012-06-10T09:16:43.000Z</time>
      </trkpt>
      <trkpt lat="44.68597" lon="6.63699">
        <ele>1165.74</ele>
        <time>2012-06-10T09:16:52.000Z</time>
      </trkpt>
      <trkpt lat="44.68619" lon="6.63713">
        <ele>1162.37</ele>
        <time>2012-06-10T09:16:59.000Z</time>
      </trkpt>
      <trkpt lat="44.6862" lon="6.63718">
        <ele>1160.45</ele>
        <time>2012-06-10T09:17:01.000Z</time>
      </trkpt>
      <trkpt lat="44.68623" lon="6.63716">
        <ele>1159.49</ele>
        <time>2012-06-10T09:17:03.000Z</time>
      </trkpt>
      <trkpt lat="44.68627" lon="6.63708">
        <ele>1158.53</ele>
        <time>2012-06-10T09:17:06.000Z</time>
      </trkpt>
      <trkpt lat="44.68626" lon="6.63702">
        <ele>1158.05</ele>
        <time>2012-06-10T09:17:07.000Z</time>
      </trkpt>
      <trkpt lat="44.68626" lon="6.63696">
        <ele>1157.56</ele>
        <time>2012-06-10T09:17:08.000Z</time>
      </trkpt>
      <trkpt lat="44.68623" lon="6.63691">
        <ele>1156.6</ele>
        <time>2012-06-10T09:17:09.000Z</time>
      </trkpt>
      <trkpt lat="44.68621" lon="6.63686">
        <ele>1155.64</ele>
        <time>2012-06-10T09:17:10.000Z</time>
      </trkpt>
      <trkpt lat="44.6862" lon="6.6368">
        <ele>1155.64</ele>
        <time>2012-06-10T09:17:11.000Z</time>
      </trkpt>
      <trkpt lat="44.68618" lon="6.63675">
        <ele>1155.64</ele>
        <time>2012-06-10T09:17:12.000Z</time>
      </trkpt>
      <trkpt lat="44.68616" lon="6.6367">
        <ele>1154.68</ele>
        <time>2012-06-10T09:17:13.000Z</time>
      </trkpt>
      <trkpt lat="44.68613" lon="6.63665">
        <ele>1154.2</ele>
        <time>2012-06-10T09:17:14.000Z</time>
      </trkpt>
      <trkpt lat="44.68612" lon="6.63661">
        <ele>1153.24</ele>
        <time>2012-06-10T09:17:15.000Z</time>
      </trkpt>
      <trkpt lat="44.68613" lon="6.63658">
        <ele>1151.32</ele>
        <time>2012-06-10T09:17:18.000Z</time>
      </trkpt>
      <trkpt lat="44.68615" lon="6.6366">
        <ele>1150.84</ele>
        <time>2012-06-10T09:17:19.000Z</time>
      </trkpt>
      <trkpt lat="44.68621" lon="6.63669">
        <ele>1149.39</ele>
        <time>2012-06-10T09:17:22.000Z</time>
      </trkpt>
      <trkpt lat="44.68624" lon="6.63673">
        <ele>1148.43</ele>
        <time>2012-06-10T09:17:23.000Z</time>
      </trkpt>
      <trkpt lat="44.68627" lon="6.63677">
        <ele>1147.47</ele>
        <time>2012-06-10T09:17:24.000Z</time>
      </trkpt>
      <trkpt lat="44.68631" lon="6.63679">
        <ele>1146.03</ele>
        <time>2012-06-10T09:17:25.000Z</time>
      </trkpt>
      <trkpt lat="44.68634" lon="6.63682">
        <ele>1145.07</ele>
        <time>2012-06-10T09:17:26.000Z</time>
      </trkpt>
      <trkpt lat="44.68637" lon="6.63687">
        <ele>1145.07</ele>
        <time>2012-06-10T09:17:27.000Z</time>
      </trkpt>
      <trkpt lat="44.6864" lon="6.63692">
        <ele>1144.59</ele>
        <time>2012-06-10T09:17:28.000Z</time>
      </trkpt>
      <trkpt lat="44.68643" lon="6.63693">
        <ele>1142.66</ele>
        <time>2012-06-10T09:17:30.000Z</time>
      </trkpt>
      <trkpt lat="44.68642" lon="6.63686">
        <ele>1141.22</ele>
        <time>2012-06-10T09:17:32.000Z</time>
      </trkpt>
      <trkpt lat="44.68641" lon="6.63682">
        <ele>1141.22</ele>
        <time>2012-06-10T09:17:33.000Z</time>
      </trkpt>
      <trkpt lat="44.68631" lon="6.63654">
        <ele>1137.38</ele>
        <time>2012-06-10T09:17:38.000Z</time>
      </trkpt>
      <trkpt lat="44.68629" lon="6.63647">
        <ele>1137.38</ele>
        <time>2012-06-10T09:17:39.000Z</time>
      </trkpt>
      <trkpt lat="44.68625" lon="6.63626">
        <ele>1134.49</ele>
        <time>2012-06-10T09:17:42.000Z</time>
      </trkpt>
      <trkpt lat="44.68624" lon="6.63622">
        <ele>1133.53</ele>
        <time>2012-06-10T09:17:43.000Z</time>
      </trkpt>
      <trkpt lat="44.68628" lon="6.63624">
        <ele>1131.61</ele>
        <time>2012-06-10T09:17:48.000Z</time>
      </trkpt>
      <trkpt lat="44.68629" lon="6.63626">
        <ele>1131.61</ele>
        <time>2012-06-10T09:17:49.000Z</time>
      </trkpt>
      <trkpt lat="44.68633" lon="6.63632">
        <ele>1131.13</ele>
        <time>2012-06-10T09:17:51.000Z</time>
      </trkpt>
      <trkpt lat="44.68634" lon="6.63632">
        <ele>1130.65</ele>
        <time>2012-06-10T09:17:52.000Z</time>
      </trkpt>
      <trkpt lat="44.68636" lon="6.6363">
        <ele>1129.69</ele>
        <time>2012-06-10T09:17:53.000Z</time>
      </trkpt>
      <trkpt lat="44.68636" lon="6.63625">
        <ele>1128.24</ele>
        <time>2012-06-10T09:17:54.000Z</time>
      </trkpt>
      <trkpt lat="44.68636" lon="6.63618">
        <ele>1127.28</ele>
        <time>2012-06-10T09:17:55.000Z</time>
      </trkpt>
      <trkpt lat="44.68635" lon="6.6361">
        <ele>1125.36</ele>
        <time>2012-06-10T09:17:56.000Z</time>
      </trkpt>
      <trkpt lat="44.68633" lon="6.636">
        <ele>1124.4</ele>
        <time>2012-06-10T09:17:57.000Z</time>
      </trkpt>
      <trkpt lat="44.68628" lon="6.63583">
        <ele>1121.03</ele>
        <time>2012-06-10T09:17:59.000Z</time>
      </trkpt>
      <trkpt lat="44.68621" lon="6.63565">
        <ele>1118.63</ele>
        <time>2012-06-10T09:18:01.000Z</time>
      </trkpt>
      <trkpt lat="44.68617" lon="6.63559">
        <ele>1117.19</ele>
        <time>2012-06-10T09:18:02.000Z</time>
      </trkpt>
      <trkpt lat="44.68616" lon="6.6355">
        <ele>1115.75</ele>
        <time>2012-06-10T09:18:04.000Z</time>
      </trkpt>
      <trkpt lat="44.6862" lon="6.63541">
        <ele>1114.79</ele>
        <time>2012-06-10T09:18:06.000Z</time>
      </trkpt>
      <trkpt lat="44.6862" lon="6.63536">
        <ele>1113.82</ele>
        <time>2012-06-10T09:18:07.000Z</time>
      </trkpt>
      <trkpt lat="44.68619" lon="6.63532">
        <ele>1114.31</ele>
        <time>2012-06-10T09:18:08.000Z</time>
      </trkpt>
      <trkpt lat="44.68617" lon="6.63528">
        <ele>1114.31</ele>
        <time>2012-06-10T09:18:09.000Z</time>
      </trkpt>
      <trkpt lat="44.68617" lon="6.63524">
        <ele>1114.31</ele>
        <time>2012-06-10T09:18:10.000Z</time>
      </trkpt>
      <trkpt lat="44.68617" lon="6.63519">
        <ele>1113.82</ele>
        <time>2012-06-10T09:18:11.000Z</time>
      </trkpt>
      <trkpt lat="44.68616" lon="6.63512">
        <ele>1114.79</ele>
        <time>2012-06-10T09:18:13.000Z</time>
      </trkpt>
      <trkpt lat="44.68616" lon="6.63509">
        <ele>1115.27</ele>
        <time>2012-06-10T09:18:14.000Z</time>
      </trkpt>
      <trkpt lat="44.68616" lon="6.63506">
        <ele>1115.27</ele>
        <time>2012-06-10T09:18:15.000Z</time>
      </trkpt>
      <trkpt lat="44.68616" lon="6.63503">
        <ele>1115.27</ele>
        <time>2012-06-10T09:18:16.000Z</time>
      </trkpt>
      <trkpt lat="44.68615" lon="6.63499">
        <ele>1115.75</ele>
        <time>2012-06-10T09:18:17.000Z</time>
      </trkpt>
      <trkpt lat="44.68615" lon="6.63495">
        <ele>1116.23</ele>
        <time>2012-06-10T09:18:18.000Z</time>
      </trkpt>
      <trkpt lat="44.68615" lon="6.63492">
        <ele>1115.75</ele>
        <time>2012-06-10T09:18:19.000Z</time>
      </trkpt>
      <trkpt lat="44.68615" lon="6.63488">
        <ele>1116.23</ele>
        <time>2012-06-10T09:18:20.000Z</time>
      </trkpt>
      <trkpt lat="44.68613" lon="6.63484">
        <ele>1116.23</ele>
        <time>2012-06-10T09:18:21.000Z</time>
      </trkpt>
      <trkpt lat="44.68612" lon="6.63479">
        <ele>1115.75</ele>
        <time>2012-06-10T09:18:22.000Z</time>
      </trkpt>
      <trkpt lat="44.6861" lon="6.63474">
        <ele>1114.79</ele>
        <time>2012-06-10T09:18:23.000Z</time>
      </trkpt>
      <trkpt lat="44.68609" lon="6.63468">
        <ele>1114.31</ele>
        <time>2012-06-10T09:18:24.000Z</time>
      </trkpt>
      <trkpt lat="44.68607" lon="6.63451">
        <ele>1112.86</ele>
        <time>2012-06-10T09:18:27.000Z</time>
      </trkpt>
      <trkpt lat="44.68605" lon="6.63445">
        <ele>1111.42</ele>
        <time>2012-06-10T09:18:28.000Z</time>
      </trkpt>
      <trkpt lat="44.68603" lon="6.63437">
        <ele>1111.42</ele>
        <time>2012-06-10T09:18:29.000Z</time>
      </trkpt>
      <trkpt lat="44.686" lon="6.63429">
        <ele>1110.46</ele>
        <time>2012-06-10T09:18:30.000Z</time>
      </trkpt>
      <trkpt lat="44.68597" lon="6.6342">
        <ele>1109.98</ele>
        <time>2012-06-10T09:18:31.000Z</time>
      </trkpt>
      <trkpt lat="44.68595" lon="6.6341">
        <ele>1109.5</ele>
        <time>2012-06-10T09:18:32.000Z</time>
      </trkpt>
      <trkpt lat="44.68593" lon="6.634">
        <ele>1108.06</ele>
        <time>2012-06-10T09:18:33.000Z</time>
      </trkpt>
      <trkpt lat="44.68584" lon="6.63376">
        <ele>1105.17</ele>
        <time>2012-06-10T09:18:36.000Z</time>
      </trkpt>
      <trkpt lat="44.68574" lon="6.6336">
        <ele>1102.77</ele>
        <time>2012-06-10T09:18:38.000Z</time>
      </trkpt>
      <trkpt lat="44.68562" lon="6.63347">
        <ele>1100.37</ele>
        <time>2012-06-10T09:18:40.000Z</time>
      </trkpt>
      <trkpt lat="44.68556" lon="6.63342">
        <ele>1100.37</ele>
        <time>2012-06-10T09:18:41.000Z</time>
      </trkpt>
      <trkpt lat="44.6855" lon="6.63338">
        <ele>1098.44</ele>
        <time>2012-06-10T09:18:42.000Z</time>
      </trkpt>
      <trkpt lat="44.68546" lon="6.63333">
        <ele>1097.96</ele>
        <time>2012-06-10T09:18:43.000Z</time>
      </trkpt>
      <trkpt lat="44.68541" lon="6.63329">
        <ele>1096.04</ele>
        <time>2012-06-10T09:18:44.000Z</time>
      </trkpt>
      <trkpt lat="44.68536" lon="6.63326">
        <ele>1095.08</ele>
        <time>2012-06-10T09:18:45.000Z</time>
      </trkpt>
      <trkpt lat="44.68531" lon="6.63323">
        <ele>1094.12</ele>
        <time>2012-06-10T09:18:46.000Z</time>
      </trkpt>
      <trkpt lat="44.68526" lon="6.63319">
        <ele>1093.16</ele>
        <time>2012-06-10T09:18:47.000Z</time>
      </trkpt>
      <trkpt lat="44.68522" lon="6.63314">
        <ele>1090.75</ele>
        <time>2012-06-10T09:18:48.000Z</time>
      </trkpt>
      <trkpt lat="44.68517" lon="6.6331">
        <ele>1090.27</ele>
        <time>2012-06-10T09:18:49.000Z</time>
      </trkpt>
      <trkpt lat="44.68507" lon="6.63299">
        <ele>1087.87</ele>
        <time>2012-06-10T09:18:51.000Z</time>
      </trkpt>
      <trkpt lat="44.68497" lon="6.63287">
        <ele>1083.54</ele>
        <time>2012-06-10T09:18:53.000Z</time>
      </trkpt>
      <trkpt lat="44.68488" lon="6.63274">
        <ele>1079.7</ele>
        <time>2012-06-10T09:18:55.000Z</time>
      </trkpt>
      <trkpt lat="44.68483" lon="6.63269">
        <ele>1077.78</ele>
        <time>2012-06-10T09:18:56.000Z</time>
      </trkpt>
      <trkpt lat="44.68478" lon="6.63266">
        <ele>1076.33</ele>
        <time>2012-06-10T09:18:57.000Z</time>
      </trkpt>
      <trkpt lat="44.68473" lon="6.63265">
        <ele>1075.37</ele>
        <time>2012-06-10T09:18:58.000Z</time>
      </trkpt>
      <trkpt lat="44.68469" lon="6.63263">
        <ele>1074.89</ele>
        <time>2012-06-10T09:18:59.000Z</time>
      </trkpt>
      <trkpt lat="44.68465" lon="6.63258">
        <ele>1074.41</ele>
        <time>2012-06-10T09:19:00.000Z</time>
      </trkpt>
      <trkpt lat="44.6846" lon="6.63251">
        <ele>1073.93</ele>
        <time>2012-06-10T09:19:01.000Z</time>
      </trkpt>
      <trkpt lat="44.6844" lon="6.63223">
        <ele>1070.08</ele>
        <time>2012-06-10T09:19:05.000Z</time>
      </trkpt>
      <trkpt lat="44.6843" lon="6.63211">
        <ele>1068.16</ele>
        <time>2012-06-10T09:19:07.000Z</time>
      </trkpt>
      <trkpt lat="44.68428" lon="6.63205">
        <ele>1067.2</ele>
        <time>2012-06-10T09:19:08.000Z</time>
      </trkpt>
      <trkpt lat="44.68428" lon="6.632">
        <ele>1066.72</ele>
        <time>2012-06-10T09:19:09.000Z</time>
      </trkpt>
      <trkpt lat="44.68431" lon="6.63194">
        <ele>1065.76</ele>
        <time>2012-06-10T09:19:11.000Z</time>
      </trkpt>
      <trkpt lat="44.68432" lon="6.63193">
        <ele>1066.24</ele>
        <time>2012-06-10T09:19:12.000Z</time>
      </trkpt>
      <trkpt lat="44.68432" lon="6.63191">
        <ele>1066.24</ele>
        <time>2012-06-10T09:19:13.000Z</time>
      </trkpt>
      <trkpt lat="44.68433" lon="6.63189">
        <ele>1066.24</ele>
        <time>2012-06-10T09:19:14.000Z</time>
      </trkpt>
      <trkpt lat="44.68434" lon="6.63187">
        <ele>1067.2</ele>
        <time>2012-06-10T09:19:15.000Z</time>
      </trkpt>
      <trkpt lat="44.68434" lon="6.63179">
        <ele>1067.68</ele>
        <time>2012-06-10T09:19:20.000Z</time>
      </trkpt>
      <trkpt lat="44.68434" lon="6.63177">
        <ele>1067.68</ele>
        <time>2012-06-10T09:19:21.000Z</time>
      </trkpt>
      <trkpt lat="44.68434" lon="6.63175">
        <ele>1068.64</ele>
        <time>2012-06-10T09:19:22.000Z</time>
      </trkpt>
      <trkpt lat="44.68434" lon="6.63172">
        <ele>1068.64</ele>
        <time>2012-06-10T09:19:23.000Z</time>
      </trkpt>
      <trkpt lat="44.68433" lon="6.6317">
        <ele>1068.64</ele>
        <time>2012-06-10T09:19:24.000Z</time>
      </trkpt>
      <trkpt lat="44.68432" lon="6.63168">
        <ele>1068.64</ele>
        <time>2012-06-10T09:19:25.000Z</time>
      </trkpt>
      <trkpt lat="44.68431" lon="6.63166">
        <ele>1069.12</ele>
        <time>2012-06-10T09:19:26.000Z</time>
      </trkpt>
      <trkpt lat="44.6843" lon="6.63164">
        <ele>1069.12</ele>
        <time>2012-06-10T09:19:27.000Z</time>
      </trkpt>
      <trkpt lat="44.68428" lon="6.63157">
        <ele>1068.16</ele>
        <time>2012-06-10T09:19:29.000Z</time>
      </trkpt>
      <trkpt lat="44.68427" lon="6.63134">
        <ele>1067.68</ele>
        <time>2012-06-10T09:19:33.000Z</time>
      </trkpt>
      <trkpt lat="44.68426" lon="6.63129">
        <ele>1067.68</ele>
        <time>2012-06-10T09:19:34.000Z</time>
      </trkpt>
      <trkpt lat="44.68412" lon="6.63095">
        <ele>1067.68</ele>
        <time>2012-06-10T09:19:41.000Z</time>
      </trkpt>
      <trkpt lat="44.68409" lon="6.6309">
        <ele>1067.68</ele>
        <time>2012-06-10T09:19:42.000Z</time>
      </trkpt>
      <trkpt lat="44.68406" lon="6.63087">
        <ele>1067.68</ele>
        <time>2012-06-10T09:19:43.000Z</time>
      </trkpt>
      <trkpt lat="44.68402" lon="6.63084">
        <ele>1067.2</ele>
        <time>2012-06-10T09:19:44.000Z</time>
      </trkpt>
      <trkpt lat="44.68399" lon="6.63081">
        <ele>1067.68</ele>
        <time>2012-06-10T09:19:45.000Z</time>
      </trkpt>
      <trkpt lat="44.6838" lon="6.63063">
        <ele>1067.68</ele>
        <time>2012-06-10T09:19:51.000Z</time>
      </trkpt>
      <trkpt lat="44.68378" lon="6.63059">
        <ele>1067.2</ele>
        <time>2012-06-10T09:19:52.000Z</time>
      </trkpt>
      <trkpt lat="44.68375" lon="6.63055">
        <ele>1067.68</ele>
        <time>2012-06-10T09:19:53.000Z</time>
      </trkpt>
      <trkpt lat="44.68372" lon="6.63052">
        <ele>1067.2</ele>
        <time>2012-06-10T09:19:54.000Z</time>
      </trkpt>
      <trkpt lat="44.68369" lon="6.63049">
        <ele>1067.68</ele>
        <time>2012-06-10T09:19:55.000Z</time>
      </trkpt>
      <trkpt lat="44.68354" lon="6.6304">
        <ele>1065.76</ele>
        <time>2012-06-10T09:19:59.000Z</time>
      </trkpt>
      <trkpt lat="44.68349" lon="6.6304">
        <ele>1066.24</ele>
        <time>2012-06-10T09:20:00.000Z</time>
      </trkpt>
      <trkpt lat="44.68343" lon="6.63036">
        <ele>1065.28</ele>
        <time>2012-06-10T09:20:01.000Z</time>
      </trkpt>
      <trkpt lat="44.68338" lon="6.63032">
        <ele>1064.8</ele>
        <time>2012-06-10T09:20:02.000Z</time>
      </trkpt>
      <trkpt lat="44.68333" lon="6.63027">
        <ele>1065.28</ele>
        <time>2012-06-10T09:20:03.000Z</time>
      </trkpt>
      <trkpt lat="44.68324" lon="6.63018">
        <ele>1065.28</ele>
        <time>2012-06-10T09:20:05.000Z</time>
      </trkpt>
      <trkpt lat="44.68319" lon="6.63013">
        <ele>1064.8</ele>
        <time>2012-06-10T09:20:06.000Z</time>
      </trkpt>
      <trkpt lat="44.68315" lon="6.63007">
        <ele>1064.32</ele>
        <time>2012-06-10T09:20:07.000Z</time>
      </trkpt>
      <trkpt lat="44.68311" lon="6.63001">
        <ele>1064.8</ele>
        <time>2012-06-10T09:20:08.000Z</time>
      </trkpt>
      <trkpt lat="44.68309" lon="6.62995">
        <ele>1064.32</ele>
        <time>2012-06-10T09:20:09.000Z</time>
      </trkpt>
      <trkpt lat="44.68304" lon="6.62982">
        <ele>1064.32</ele>
        <time>2012-06-10T09:20:11.000Z</time>
      </trkpt>
      <trkpt lat="44.68302" lon="6.62975">
        <ele>1063.84</ele>
        <time>2012-06-10T09:20:12.000Z</time>
      </trkpt>
      <trkpt lat="44.68314" lon="6.62952">
        <ele>1063.36</ele>
        <time>2012-06-10T09:20:17.000Z</time>
      </trkpt>
      <trkpt lat="44.68319" lon="6.62943">
        <ele>1062.87</ele>
        <time>2012-06-10T09:20:19.000Z</time>
      </trkpt>
      <trkpt lat="44.68332" lon="6.62914">
        <ele>1061.91</ele>
        <time>2012-06-10T09:20:24.000Z</time>
      </trkpt>
      <trkpt lat="44.68348" lon="6.62893">
        <ele>1061.43</ele>
        <time>2012-06-10T09:20:28.000Z</time>
      </trkpt>
      <trkpt lat="44.68354" lon="6.62858">
        <ele>1060.95</ele>
        <time>2012-06-10T09:20:34.000Z</time>
      </trkpt>
      <trkpt lat="44.68357" lon="6.62793">
        <ele>1059.99</ele>
        <time>2012-06-10T09:20:44.000Z</time>
      </trkpt>
      <trkpt lat="44.68387" lon="6.62784">
        <ele>1062.39</ele>
        <time>2012-06-10T09:20:55.000Z</time>
      </trkpt>
      <trkpt lat="44.68416" lon="6.6277">
        <ele>1065.28</ele>
        <time>2012-06-10T09:21:08.000Z</time>
      </trkpt>
      <trkpt lat="44.68423" lon="6.62765">
        <ele>1066.24</ele>
        <time>2012-06-10T09:21:12.000Z</time>
      </trkpt>
      <trkpt lat="44.68446" lon="6.62747">
        <ele>1067.68</ele>
        <time>2012-06-10T09:21:24.000Z</time>
      </trkpt>
      <trkpt lat="44.68473" lon="6.62734">
        <ele>1068.64</ele>
        <time>2012-06-10T09:21:35.000Z</time>
      </trkpt>
      <trkpt lat="44.68495" lon="6.62738">
        <ele>1069.6</ele>
        <time>2012-06-10T09:21:44.000Z</time>
      </trkpt>
      <trkpt lat="44.68504" lon="6.62754">
        <ele>1071.53</ele>
        <time>2012-06-10T09:21:52.000Z</time>
      </trkpt>
      <trkpt lat="44.68512" lon="6.62763">
        <ele>1072.49</ele>
        <time>2012-06-10T09:21:57.000Z</time>
      </trkpt>
      <trkpt lat="44.68525" lon="6.62779">
        <ele>1075.37</ele>
        <time>2012-06-10T09:22:06.000Z</time>
      </trkpt>
      <trkpt lat="44.68549" lon="6.62776">
        <ele>1078.26</ele>
        <time>2012-06-10T09:22:19.000Z</time>
      </trkpt>
      <trkpt lat="44.68554" lon="6.6277">
        <ele>1079.22</ele>
        <time>2012-06-10T09:22:23.000Z</time>
      </trkpt>
      <trkpt lat="44.68568" lon="6.62762">
        <ele>1081.14</ele>
        <time>2012-06-10T09:22:31.000Z</time>
      </trkpt>
      <trkpt lat="44.68596" lon="6.62751">
        <ele>1084.5</ele>
        <time>2012-06-10T09:22:46.000Z</time>
      </trkpt>
      <trkpt lat="44.6862" lon="6.62744">
        <ele>1087.87</ele>
        <time>2012-06-10T09:23:00.000Z</time>
      </trkpt>
      <trkpt lat="44.68622" lon="6.62744">
        <ele>1087.87</ele>
        <time>2012-06-10T09:23:01.000Z</time>
      </trkpt>
      <trkpt lat="44.68631" lon="6.6275">
        <ele>1089.79</ele>
        <time>2012-06-10T09:23:09.000Z</time>
      </trkpt>
      <trkpt lat="44.68627" lon="6.62761">
        <ele>1090.75</ele>
        <time>2012-06-10T09:23:15.000Z</time>
      </trkpt>
      <trkpt lat="44.68618" lon="6.62787">
        <ele>1093.16</ele>
        <time>2012-06-10T09:23:29.000Z</time>
      </trkpt>
      <trkpt lat="44.68617" lon="6.62791">
        <ele>1094.12</ele>
        <time>2012-06-10T09:23:31.000Z</time>
      </trkpt>
      <trkpt lat="44.68628" lon="6.62816">
        <ele>1097.48</ele>
        <time>2012-06-10T09:23:47.000Z</time>
      </trkpt>
      <trkpt lat="44.68642" lon="6.6283">
        <ele>1099.4</ele>
        <time>2012-06-10T09:23:58.000Z</time>
      </trkpt>
      <trkpt lat="44.68642" lon="6.62832">
        <ele>1099.4</ele>
        <time>2012-06-10T09:23:59.000Z</time>
      </trkpt>
      <trkpt lat="44.68662" lon="6.62849">
        <ele>1101.81</ele>
        <time>2012-06-10T09:24:13.000Z</time>
      </trkpt>
      <trkpt lat="44.6867" lon="6.62855">
        <ele>1103.25</ele>
        <time>2012-06-10T09:24:18.000Z</time>
      </trkpt>
      <trkpt lat="44.68677" lon="6.62854">
        <ele>1104.69</ele>
        <time>2012-06-10T09:24:24.000Z</time>
      </trkpt>
      <trkpt lat="44.68695" lon="6.62831">
        <ele>1103.73</ele>
        <time>2012-06-10T09:24:34.000Z</time>
      </trkpt>
      <trkpt lat="44.68701" lon="6.62825">
        <ele>1103.73</ele>
        <time>2012-06-10T09:24:36.000Z</time>
      </trkpt>
      <trkpt lat="44.68715" lon="6.62817">
        <ele>1102.29</ele>
        <time>2012-06-10T09:24:42.000Z</time>
      </trkpt>
      <trkpt lat="44.68734" lon="6.62802">
        <ele>1100.37</ele>
        <time>2012-06-10T09:24:47.000Z</time>
      </trkpt>
      <trkpt lat="44.68751" lon="6.6279">
        <ele>1097</ele>
        <time>2012-06-10T09:24:52.000Z</time>
      </trkpt>
      <trkpt lat="44.68756" lon="6.62792">
        <ele>1093.64</ele>
        <time>2012-06-10T09:24:55.000Z</time>
      </trkpt>
      <trkpt lat="44.68758" lon="6.62795">
        <ele>1093.64</ele>
        <time>2012-06-10T09:24:56.000Z</time>
      </trkpt>
      <trkpt lat="44.68756" lon="6.62808">
        <ele>1092.2</ele>
        <time>2012-06-10T09:24:58.000Z</time>
      </trkpt>
      <trkpt lat="44.68755" lon="6.62815">
        <ele>1090.75</ele>
        <time>2012-06-10T09:24:59.000Z</time>
      </trkpt>
      <trkpt lat="44.68754" lon="6.62822">
        <ele>1089.79</ele>
        <time>2012-06-10T09:25:00.000Z</time>
      </trkpt>
      <trkpt lat="44.68753" lon="6.62831">
        <ele>1088.35</ele>
        <time>2012-06-10T09:25:01.000Z</time>
      </trkpt>
      <trkpt lat="44.68753" lon="6.6284">
        <ele>1086.43</ele>
        <time>2012-06-10T09:25:02.000Z</time>
      </trkpt>
      <trkpt lat="44.68754" lon="6.62858">
        <ele>1084.5</ele>
        <time>2012-06-10T09:25:04.000Z</time>
      </trkpt>
      <trkpt lat="44.68755" lon="6.62868">
        <ele>1083.06</ele>
        <time>2012-06-10T09:25:05.000Z</time>
      </trkpt>
      <trkpt lat="44.68756" lon="6.62895">
        <ele>1079.7</ele>
        <time>2012-06-10T09:25:08.000Z</time>
      </trkpt>
      <trkpt lat="44.68757" lon="6.62903">
        <ele>1078.26</ele>
        <time>2012-06-10T09:25:09.000Z</time>
      </trkpt>
      <trkpt lat="44.68758" lon="6.6291">
        <ele>1077.78</ele>
        <time>2012-06-10T09:25:10.000Z</time>
      </trkpt>
      <trkpt lat="44.6876" lon="6.62916">
        <ele>1075.85</ele>
        <time>2012-06-10T09:25:11.000Z</time>
      </trkpt>
      <trkpt lat="44.68763" lon="6.6292">
        <ele>1074.41</ele>
        <time>2012-06-10T09:25:12.000Z</time>
      </trkpt>
      <trkpt lat="44.68766" lon="6.62921">
        <ele>1073.45</ele>
        <time>2012-06-10T09:25:13.000Z</time>
      </trkpt>
      <trkpt lat="44.6877" lon="6.62922">
        <ele>1071.53</ele>
        <time>2012-06-10T09:25:14.000Z</time>
      </trkpt>
      <trkpt lat="44.68773" lon="6.62921">
        <ele>1070.57</ele>
        <time>2012-06-10T09:25:15.000Z</time>
      </trkpt>
      <trkpt lat="44.6878" lon="6.62909">
        <ele>1066.72</ele>
        <time>2012-06-10T09:25:19.000Z</time>
      </trkpt>
      <trkpt lat="44.68784" lon="6.62909">
        <ele>1067.2</ele>
        <time>2012-06-10T09:25:22.000Z</time>
      </trkpt>
      <trkpt lat="44.68793" lon="6.62926">
        <ele>1068.64</ele>
        <time>2012-06-10T09:25:34.000Z</time>
      </trkpt>
      <trkpt lat="44.68793" lon="6.62926">
        <ele>1068.16</ele>
        <time>2012-06-10T09:25:35.000Z</time>
      </trkpt>
      <trkpt lat="44.68796" lon="6.62929">
        <ele>1069.12</ele>
        <time>2012-06-10T09:25:39.000Z</time>
      </trkpt>
      <trkpt lat="44.68803" lon="6.62945">
        <ele>1071.05</ele>
        <time>2012-06-10T09:25:51.000Z</time>
      </trkpt>
      <trkpt lat="44.68803" lon="6.62946">
        <ele>1072.01</ele>
        <time>2012-06-10T09:25:54.000Z</time>
      </trkpt>
      <trkpt lat="44.68805" lon="6.6295">
        <ele>1072.49</ele>
        <time>2012-06-10T09:25:57.000Z</time>
      </trkpt>
      <trkpt lat="44.68819" lon="6.6296">
        <ele>1074.41</ele>
        <time>2012-06-10T09:26:08.000Z</time>
      </trkpt>
      <trkpt lat="44.68827" lon="6.62958">
        <ele>1074.41</ele>
        <time>2012-06-10T09:26:17.000Z</time>
      </trkpt>
      <trkpt lat="44.68849" lon="6.6293">
        <ele>1071.53</ele>
        <time>2012-06-10T09:26:25.000Z</time>
      </trkpt>
      <trkpt lat="44.68855" lon="6.62927">
        <ele>1071.05</ele>
        <time>2012-06-10T09:26:26.000Z</time>
      </trkpt>
      <trkpt lat="44.68866" lon="6.62923">
        <ele>1072.49</ele>
        <time>2012-06-10T09:26:30.000Z</time>
      </trkpt>
      <trkpt lat="44.68867" lon="6.62921">
        <ele>1072.97</ele>
        <time>2012-06-10T09:26:31.000Z</time>
      </trkpt>
      <trkpt lat="44.68882" lon="6.62912">
        <ele>1074.41</ele>
        <time>2012-06-10T09:26:39.000Z</time>
      </trkpt>
      <trkpt lat="44.68884" lon="6.6291">
        <ele>1075.37</ele>
        <time>2012-06-10T09:26:40.000Z</time>
      </trkpt>
      <trkpt lat="44.68885" lon="6.62909">
        <ele>1074.89</ele>
        <time>2012-06-10T09:26:41.000Z</time>
      </trkpt>
      <trkpt lat="44.68886" lon="6.62909">
        <ele>1075.85</ele>
        <time>2012-06-10T09:26:42.000Z</time>
      </trkpt>
      <trkpt lat="44.68887" lon="6.62908">
        <ele>1075.85</ele>
        <time>2012-06-10T09:26:43.000Z</time>
      </trkpt>
      <trkpt lat="44.68889" lon="6.62907">
        <ele>1075.85</ele>
        <time>2012-06-10T09:26:44.000Z</time>
      </trkpt>
      <trkpt lat="44.6889" lon="6.62906">
        <ele>1076.33</ele>
        <time>2012-06-10T09:26:45.000Z</time>
      </trkpt>
      <trkpt lat="44.68892" lon="6.62905">
        <ele>1076.81</ele>
        <time>2012-06-10T09:26:46.000Z</time>
      </trkpt>
      <trkpt lat="44.68916" lon="6.62896">
        <ele>1078.74</ele>
        <time>2012-06-10T09:26:58.000Z</time>
      </trkpt>
      <trkpt lat="44.68918" lon="6.62894">
        <ele>1078.74</ele>
        <time>2012-06-10T09:26:59.000Z</time>
      </trkpt>
      <trkpt lat="44.6892" lon="6.62891">
        <ele>1078.74</ele>
        <time>2012-06-10T09:27:00.000Z</time>
      </trkpt>
      <trkpt lat="44.68921" lon="6.62889">
        <ele>1078.74</ele>
        <time>2012-06-10T09:27:01.000Z</time>
      </trkpt>
      <trkpt lat="44.68922" lon="6.62888">
        <ele>1079.22</ele>
        <time>2012-06-10T09:27:02.000Z</time>
      </trkpt>
      <trkpt lat="44.68923" lon="6.62886">
        <ele>1079.7</ele>
        <time>2012-06-10T09:27:03.000Z</time>
      </trkpt>
      <trkpt lat="44.68924" lon="6.62883">
        <ele>1079.7</ele>
        <time>2012-06-10T09:27:04.000Z</time>
      </trkpt>
      <trkpt lat="44.68926" lon="6.6288">
        <ele>1079.7</ele>
        <time>2012-06-10T09:27:05.000Z</time>
      </trkpt>
      <trkpt lat="44.68927" lon="6.62878">
        <ele>1080.18</ele>
        <time>2012-06-10T09:27:06.000Z</time>
      </trkpt>
      <trkpt lat="44.68929" lon="6.62876">
        <ele>1079.7</ele>
        <time>2012-06-10T09:27:07.000Z</time>
      </trkpt>
      <trkpt lat="44.68931" lon="6.62874">
        <ele>1080.66</ele>
        <time>2012-06-10T09:27:08.000Z</time>
      </trkpt>
      <trkpt lat="44.68932" lon="6.62872">
        <ele>1080.66</ele>
        <time>2012-06-10T09:27:09.000Z</time>
      </trkpt>
      <trkpt lat="44.68934" lon="6.6287">
        <ele>1080.66</ele>
        <time>2012-06-10T09:27:10.000Z</time>
      </trkpt>
      <trkpt lat="44.6894" lon="6.62859">
        <ele>1081.62</ele>
        <time>2012-06-10T09:27:15.000Z</time>
      </trkpt>
      <trkpt lat="44.68941" lon="6.62857">
        <ele>1081.62</ele>
        <time>2012-06-10T09:27:16.000Z</time>
      </trkpt>
      <trkpt lat="44.68943" lon="6.62856">
        <ele>1081.14</ele>
        <time>2012-06-10T09:27:17.000Z</time>
      </trkpt>
      <trkpt lat="44.68949" lon="6.62847">
        <ele>1083.06</ele>
        <time>2012-06-10T09:27:21.000Z</time>
      </trkpt>
      <trkpt lat="44.68955" lon="6.62811">
        <ele>1084.99</ele>
        <time>2012-06-10T09:27:34.000Z</time>
      </trkpt>
      <trkpt lat="44.68958" lon="6.62798">
        <ele>1086.91</ele>
        <time>2012-06-10T09:27:41.000Z</time>
      </trkpt>
      <trkpt lat="44.68958" lon="6.62796">
        <ele>1087.39</ele>
        <time>2012-06-10T09:27:42.000Z</time>
      </trkpt>
      <trkpt lat="44.68959" lon="6.62794">
        <ele>1087.39</ele>
        <time>2012-06-10T09:27:43.000Z</time>
      </trkpt>
      <trkpt lat="44.68959" lon="6.62792">
        <ele>1087.87</ele>
        <time>2012-06-10T09:27:44.000Z</time>
      </trkpt>
      <trkpt lat="44.6896" lon="6.6279">
        <ele>1088.35</ele>
        <time>2012-06-10T09:27:45.000Z</time>
      </trkpt>
      <trkpt lat="44.68961" lon="6.62788">
        <ele>1087.87</ele>
        <time>2012-06-10T09:27:46.000Z</time>
      </trkpt>
      <trkpt lat="44.68961" lon="6.62786">
        <ele>1088.35</ele>
        <time>2012-06-10T09:27:47.000Z</time>
      </trkpt>
      <trkpt lat="44.68961" lon="6.62784">
        <ele>1088.83</ele>
        <time>2012-06-10T09:27:48.000Z</time>
      </trkpt>
      <trkpt lat="44.68971" lon="6.6276">
        <ele>1091.23</ele>
        <time>2012-06-10T09:28:01.000Z</time>
      </trkpt>
      <trkpt lat="44.68972" lon="6.62758">
        <ele>1091.71</ele>
        <time>2012-06-10T09:28:02.000Z</time>
      </trkpt>
      <trkpt lat="44.68983" lon="6.62727">
        <ele>1091.71</ele>
        <time>2012-06-10T09:28:14.000Z</time>
      </trkpt>
      <trkpt lat="44.68983" lon="6.6272">
        <ele>1091.71</ele>
        <time>2012-06-10T09:28:15.000Z</time>
      </trkpt>
      <trkpt lat="44.68983" lon="6.62712">
        <ele>1090.75</ele>
        <time>2012-06-10T09:28:16.000Z</time>
      </trkpt>
      <trkpt lat="44.68982" lon="6.62704">
        <ele>1090.75</ele>
        <time>2012-06-10T09:28:17.000Z</time>
      </trkpt>
      <trkpt lat="44.68982" lon="6.62696">
        <ele>1089.79</ele>
        <time>2012-06-10T09:28:18.000Z</time>
      </trkpt>
      <trkpt lat="44.68982" lon="6.62689">
        <ele>1088.35</ele>
        <time>2012-06-10T09:28:19.000Z</time>
      </trkpt>
      <trkpt lat="44.68984" lon="6.62684">
        <ele>1087.39</ele>
        <time>2012-06-10T09:28:20.000Z</time>
      </trkpt>
      <trkpt lat="44.68989" lon="6.6268">
        <ele>1087.39</ele>
        <time>2012-06-10T09:28:21.000Z</time>
      </trkpt>
      <trkpt lat="44.69021" lon="6.6268">
        <ele>1088.83</ele>
        <time>2012-06-10T09:28:31.000Z</time>
      </trkpt>
      <trkpt lat="44.69053" lon="6.62666">
        <ele>1090.27</ele>
        <time>2012-06-10T09:28:42.000Z</time>
      </trkpt>
      <trkpt lat="44.69089" lon="6.62628">
        <ele>1090.75</ele>
        <time>2012-06-10T09:28:55.000Z</time>
      </trkpt>
      <trkpt lat="44.69122" lon="6.62606">
        <ele>1088.83</ele>
        <time>2012-06-10T09:29:02.000Z</time>
      </trkpt>
      <trkpt lat="44.69127" lon="6.62603">
        <ele>1088.35</ele>
        <time>2012-06-10T09:29:03.000Z</time>
      </trkpt>
      <trkpt lat="44.69144" lon="6.62595">
        <ele>1087.87</ele>
        <time>2012-06-10T09:29:06.000Z</time>
      </trkpt>
      <trkpt lat="44.69149" lon="6.62591">
        <ele>1088.35</ele>
        <time>2012-06-10T09:29:07.000Z</time>
      </trkpt>
      <trkpt lat="44.69154" lon="6.62586">
        <ele>1087.87</ele>
        <time>2012-06-10T09:29:08.000Z</time>
      </trkpt>
      <trkpt lat="44.69159" lon="6.62583">
        <ele>1087.87</ele>
        <time>2012-06-10T09:29:09.000Z</time>
      </trkpt>
      <trkpt lat="44.69165" lon="6.6258">
        <ele>1087.39</ele>
        <time>2012-06-10T09:29:10.000Z</time>
      </trkpt>
      <trkpt lat="44.69169" lon="6.62577">
        <ele>1087.39</ele>
        <time>2012-06-10T09:29:11.000Z</time>
      </trkpt>
      <trkpt lat="44.69174" lon="6.62573">
        <ele>1087.87</ele>
        <time>2012-06-10T09:29:12.000Z</time>
      </trkpt>
      <trkpt lat="44.69178" lon="6.6257">
        <ele>1087.87</ele>
        <time>2012-06-10T09:29:13.000Z</time>
      </trkpt>
      <trkpt lat="44.69183" lon="6.62568">
        <ele>1088.35</ele>
        <time>2012-06-10T09:29:14.000Z</time>
      </trkpt>
      <trkpt lat="44.69212" lon="6.62571">
        <ele>1090.75</ele>
        <time>2012-06-10T09:29:24.000Z</time>
      </trkpt>
      <trkpt lat="44.69238" lon="6.62588">
        <ele>1093.64</ele>
        <time>2012-06-10T09:29:37.000Z</time>
      </trkpt>
      <trkpt lat="44.69242" lon="6.62589">
        <ele>1094.12</ele>
        <time>2012-06-10T09:29:39.000Z</time>
      </trkpt>
      <trkpt lat="44.69244" lon="6.62589">
        <ele>1094.12</ele>
        <time>2012-06-10T09:29:40.000Z</time>
      </trkpt>
      <trkpt lat="44.69247" lon="6.6259">
        <ele>1094.6</ele>
        <time>2012-06-10T09:29:43.000Z</time>
      </trkpt>
      <trkpt lat="44.69249" lon="6.62591">
        <ele>1095.08</ele>
        <time>2012-06-10T09:29:44.000Z</time>
      </trkpt>
      <trkpt lat="44.6925" lon="6.62592">
        <ele>1095.08</ele>
        <time>2012-06-10T09:29:45.000Z</time>
      </trkpt>
      <trkpt lat="44.69252" lon="6.62594">
        <ele>1095.56</ele>
        <time>2012-06-10T09:29:46.000Z</time>
      </trkpt>
      <trkpt lat="44.69253" lon="6.62596">
        <ele>1096.52</ele>
        <time>2012-06-10T09:29:47.000Z</time>
      </trkpt>
      <trkpt lat="44.69254" lon="6.62598">
        <ele>1096.52</ele>
        <time>2012-06-10T09:29:48.000Z</time>
      </trkpt>
      <trkpt lat="44.69276" lon="6.62632">
        <ele>1098.44</ele>
        <time>2012-06-10T09:30:02.000Z</time>
      </trkpt>
      <trkpt lat="44.69303" lon="6.62684">
        <ele>1098.92</ele>
        <time>2012-06-10T09:30:14.000Z</time>
      </trkpt>
      <trkpt lat="44.69331" lon="6.62728">
        <ele>1099.4</ele>
        <time>2012-06-10T09:30:25.000Z</time>
      </trkpt>
      <trkpt lat="44.69343" lon="6.62735">
        <ele>1099.4</ele>
        <time>2012-06-10T09:30:28.000Z</time>
      </trkpt>
      <trkpt lat="44.69355" lon="6.62744">
        <ele>1099.4</ele>
        <time>2012-06-10T09:30:31.000Z</time>
      </trkpt>
      <trkpt lat="44.6936" lon="6.62746">
        <ele>1099.4</ele>
        <time>2012-06-10T09:30:32.000Z</time>
      </trkpt>
      <trkpt lat="44.69364" lon="6.62748">
        <ele>1099.4</ele>
        <time>2012-06-10T09:30:33.000Z</time>
      </trkpt>
      <trkpt lat="44.69369" lon="6.62751">
        <ele>1099.4</ele>
        <time>2012-06-10T09:30:34.000Z</time>
      </trkpt>
      <trkpt lat="44.69374" lon="6.62754">
        <ele>1099.4</ele>
        <time>2012-06-10T09:30:35.000Z</time>
      </trkpt>
      <trkpt lat="44.69378" lon="6.62757">
        <ele>1099.89</ele>
        <time>2012-06-10T09:30:36.000Z</time>
      </trkpt>
      <trkpt lat="44.69397" lon="6.62763">
        <ele>1099.89</ele>
        <time>2012-06-10T09:30:41.000Z</time>
      </trkpt>
      <trkpt lat="44.69408" lon="6.62765">
        <ele>1099.4</ele>
        <time>2012-06-10T09:30:44.000Z</time>
      </trkpt>
      <trkpt lat="44.6941" lon="6.62769">
        <ele>1099.89</ele>
        <time>2012-06-10T09:30:46.000Z</time>
      </trkpt>
      <trkpt lat="44.69399" lon="6.62772">
        <ele>1100.85</ele>
        <time>2012-06-10T09:30:53.000Z</time>
      </trkpt>
      <trkpt lat="44.69403" lon="6.62782">
        <ele>1104.21</ele>
        <time>2012-06-10T09:31:02.000Z</time>
      </trkpt>
      <trkpt lat="44.69404" lon="6.62783">
        <ele>1104.21</ele>
        <time>2012-06-10T09:31:03.000Z</time>
      </trkpt>
      <trkpt lat="44.69413" lon="6.62797">
        <ele>1107.1</ele>
        <time>2012-06-10T09:31:14.000Z</time>
      </trkpt>
      <trkpt lat="44.69419" lon="6.6281">
        <ele>1109.98</ele>
        <time>2012-06-10T09:31:23.000Z</time>
      </trkpt>
      <trkpt lat="44.69426" lon="6.62821">
        <ele>1111.42</ele>
        <time>2012-06-10T09:31:32.000Z</time>
      </trkpt>
      <trkpt lat="44.69427" lon="6.62828">
        <ele>1112.38</ele>
        <time>2012-06-10T09:31:36.000Z</time>
      </trkpt>
      <trkpt lat="44.69437" lon="6.62846">
        <ele>1115.75</ele>
        <time>2012-06-10T09:31:49.000Z</time>
      </trkpt>
      <trkpt lat="44.69444" lon="6.62857">
        <ele>1117.67</ele>
        <time>2012-06-10T09:32:00.000Z</time>
      </trkpt>
      <trkpt lat="44.69447" lon="6.62869">
        <ele>1120.07</ele>
        <time>2012-06-10T09:32:09.000Z</time>
      </trkpt>
      <trkpt lat="44.69448" lon="6.62872">
        <ele>1120.07</ele>
        <time>2012-06-10T09:32:11.000Z</time>
      </trkpt>
      <trkpt lat="44.69453" lon="6.6288">
        <ele>1122</ele>
        <time>2012-06-10T09:32:18.000Z</time>
      </trkpt>
      <trkpt lat="44.69456" lon="6.62887">
        <ele>1122.96</ele>
        <time>2012-06-10T09:32:24.000Z</time>
      </trkpt>
      <trkpt lat="44.69468" lon="6.62901">
        <ele>1124.4</ele>
        <time>2012-06-10T09:32:36.000Z</time>
      </trkpt>
      <trkpt lat="44.69471" lon="6.62905">
        <ele>1124.88</ele>
        <time>2012-06-10T09:32:40.000Z</time>
      </trkpt>
      <trkpt lat="44.69481" lon="6.62904">
        <ele>1124.88</ele>
        <time>2012-06-10T09:32:46.000Z</time>
      </trkpt>
      <trkpt lat="44.69498" lon="6.62909">
        <ele>1126.32</ele>
        <time>2012-06-10T09:32:58.000Z</time>
      </trkpt>
      <trkpt lat="44.69517" lon="6.62912">
        <ele>1126.8</ele>
        <time>2012-06-10T09:33:07.000Z</time>
      </trkpt>
      <trkpt lat="44.69526" lon="6.62923">
        <ele>1127.76</ele>
        <time>2012-06-10T09:33:13.000Z</time>
      </trkpt>
      <trkpt lat="44.69542" lon="6.62929">
        <ele>1128.73</ele>
        <time>2012-06-10T09:33:24.000Z</time>
      </trkpt>
      <trkpt lat="44.69564" lon="6.62941">
        <ele>1129.21</ele>
        <time>2012-06-10T09:33:36.000Z</time>
      </trkpt>
      <trkpt lat="44.69581" lon="6.62944">
        <ele>1129.69</ele>
        <time>2012-06-10T09:33:46.000Z</time>
      </trkpt>
      <trkpt lat="44.69588" lon="6.62941">
        <ele>1130.17</ele>
        <time>2012-06-10T09:33:50.000Z</time>
      </trkpt>
      <trkpt lat="44.69595" lon="6.62941">
        <ele>1130.17</ele>
        <time>2012-06-10T09:33:53.000Z</time>
      </trkpt>
      <trkpt lat="44.69614" lon="6.62961">
        <ele>1131.13</ele>
        <time>2012-06-10T09:34:04.000Z</time>
      </trkpt>
      <trkpt lat="44.69629" lon="6.62977">
        <ele>1132.09</ele>
        <time>2012-06-10T09:34:12.000Z</time>
      </trkpt>
      <trkpt lat="44.69648" lon="6.62985">
        <ele>1132.57</ele>
        <time>2012-06-10T09:34:21.000Z</time>
      </trkpt>
      <trkpt lat="44.69666" lon="6.62978">
        <ele>1131.13</ele>
        <time>2012-06-10T09:34:26.000Z</time>
      </trkpt>
      <trkpt lat="44.69673" lon="6.62979">
        <ele>1130.65</ele>
        <time>2012-06-10T09:34:30.000Z</time>
      </trkpt>
      <trkpt lat="44.69675" lon="6.62972">
        <ele>1131.61</ele>
        <time>2012-06-10T09:34:39.000Z</time>
      </trkpt>
      <trkpt lat="44.69677" lon="6.6297">
        <ele>1132.09</ele>
        <time>2012-06-10T09:34:41.000Z</time>
      </trkpt>
      <trkpt lat="44.69679" lon="6.62962">
        <ele>1131.61</ele>
        <time>2012-06-10T09:34:47.000Z</time>
      </trkpt>
      <trkpt lat="44.69675" lon="6.62948">
        <ele>1131.61</ele>
        <time>2012-06-10T09:34:52.000Z</time>
      </trkpt>
      <trkpt lat="44.69669" lon="6.62893">
        <ele>1130.65</ele>
        <time>2012-06-10T09:35:04.000Z</time>
      </trkpt>
      <trkpt lat="44.69675" lon="6.62877">
        <ele>1133.05</ele>
        <time>2012-06-10T09:35:10.000Z</time>
      </trkpt>
      <trkpt lat="44.69674" lon="6.62852">
        <ele>1135.94</ele>
        <time>2012-06-10T09:35:21.000Z</time>
      </trkpt>
      <trkpt lat="44.69681" lon="6.6284">
        <ele>1137.38</ele>
        <time>2012-06-10T09:35:29.000Z</time>
      </trkpt>
      <trkpt lat="44.69686" lon="6.62836">
        <ele>1136.9</ele>
        <time>2012-06-10T09:35:32.000Z</time>
      </trkpt>
      <trkpt lat="44.69685" lon="6.62809">
        <ele>1138.34</ele>
        <time>2012-06-10T09:35:40.000Z</time>
      </trkpt>
      <trkpt lat="44.69682" lon="6.62789">
        <ele>1137.86</ele>
        <time>2012-06-10T09:35:45.000Z</time>
      </trkpt>
      <trkpt lat="44.69683" lon="6.62776">
        <ele>1138.34</ele>
        <time>2012-06-10T09:35:49.000Z</time>
      </trkpt>
      <trkpt lat="44.69691" lon="6.62753">
        <ele>1141.22</ele>
        <time>2012-06-10T09:35:57.000Z</time>
      </trkpt>
      <trkpt lat="44.69695" lon="6.62747">
        <ele>1142.66</ele>
        <time>2012-06-10T09:36:00.000Z</time>
      </trkpt>
      <trkpt lat="44.69707" lon="6.6272">
        <ele>1142.66</ele>
        <time>2012-06-10T09:36:08.000Z</time>
      </trkpt>
      <trkpt lat="44.69723" lon="6.62681">
        <ele>1142.66</ele>
        <time>2012-06-10T09:36:19.000Z</time>
      </trkpt>
      <trkpt lat="44.69712" lon="6.62627">
        <ele>1142.18</ele>
        <time>2012-06-10T09:36:30.000Z</time>
      </trkpt>
      <trkpt lat="44.69699" lon="6.62596">
        <ele>1143.63</ele>
        <time>2012-06-10T09:36:38.000Z</time>
      </trkpt>
      <trkpt lat="44.69711" lon="6.62569">
        <ele>1146.03</ele>
        <time>2012-06-10T09:36:49.000Z</time>
      </trkpt>
      <trkpt lat="44.69716" lon="6.62564">
        <ele>1146.51</ele>
        <time>2012-06-10T09:36:51.000Z</time>
      </trkpt>
      <trkpt lat="44.69729" lon="6.62543">
        <ele>1145.07</ele>
        <time>2012-06-10T09:36:57.000Z</time>
      </trkpt>
      <trkpt lat="44.69732" lon="6.62542">
        <ele>1145.07</ele>
        <time>2012-06-10T09:36:58.000Z</time>
      </trkpt>
      <trkpt lat="44.69751" lon="6.62553">
        <ele>1146.51</ele>
        <time>2012-06-10T09:37:07.000Z</time>
      </trkpt>
      <trkpt lat="44.69775" lon="6.62559">
        <ele>1146.51</ele>
        <time>2012-06-10T09:37:15.000Z</time>
      </trkpt>
      <trkpt lat="44.69815" lon="6.62541">
        <ele>1147.95</ele>
        <time>2012-06-10T09:37:27.000Z</time>
      </trkpt>
      <trkpt lat="44.69828" lon="6.62534">
        <ele>1148.91</ele>
        <time>2012-06-10T09:37:33.000Z</time>
      </trkpt>
      <trkpt lat="44.69854" lon="6.62531">
        <ele>1150.84</ele>
        <time>2012-06-10T09:37:44.000Z</time>
      </trkpt>
      <trkpt lat="44.69871" lon="6.6253">
        <ele>1151.8</ele>
        <time>2012-06-10T09:37:51.000Z</time>
      </trkpt>
      <trkpt lat="44.69886" lon="6.6252">
        <ele>1153.72</ele>
        <time>2012-06-10T09:37:59.000Z</time>
      </trkpt>
      <trkpt lat="44.69902" lon="6.62524">
        <ele>1153.24</ele>
        <time>2012-06-10T09:38:06.000Z</time>
      </trkpt>
      <trkpt lat="44.69924" lon="6.62517">
        <ele>1156.6</ele>
        <time>2012-06-10T09:38:20.000Z</time>
      </trkpt>
      <trkpt lat="44.69925" lon="6.62517">
        <ele>1157.08</ele>
        <time>2012-06-10T09:38:21.000Z</time>
      </trkpt>
      <trkpt lat="44.69934" lon="6.62523">
        <ele>1159.49</ele>
        <time>2012-06-10T09:38:30.000Z</time>
      </trkpt>
      <trkpt lat="44.6994" lon="6.62522">
        <ele>1161.41</ele>
        <time>2012-06-10T09:38:35.000Z</time>
      </trkpt>
      <trkpt lat="44.69952" lon="6.62507">
        <ele>1163.33</ele>
        <time>2012-06-10T09:38:47.000Z</time>
      </trkpt>
      <trkpt lat="44.6996" lon="6.62501">
        <ele>1165.26</ele>
        <time>2012-06-10T09:39:02.000Z</time>
      </trkpt>
      <trkpt lat="44.69969" lon="6.62495">
        <ele>1168.14</ele>
        <time>2012-06-10T09:39:14.000Z</time>
      </trkpt>
      <trkpt lat="44.6998" lon="6.62486">
        <ele>1171.02</ele>
        <time>2012-06-10T09:39:26.000Z</time>
      </trkpt>
      <trkpt lat="44.69993" lon="6.62483">
        <ele>1174.39</ele>
        <time>2012-06-10T09:39:40.000Z</time>
      </trkpt>
      <trkpt lat="44.7" lon="6.62479">
        <ele>1176.31</ele>
        <time>2012-06-10T09:39:55.000Z</time>
      </trkpt>
      <trkpt lat="44.70003" lon="6.62479">
        <ele>1176.79</ele>
        <time>2012-06-10T09:40:23.000Z</time>
      </trkpt>
      <trkpt lat="44.70003" lon="6.62479">
        <ele>1177.27</ele>
        <time>2012-06-10T09:40:24.000Z</time>
      </trkpt>
      <trkpt lat="44.70018" lon="6.6247">
        <ele>1178.71</ele>
        <time>2012-06-10T09:40:35.000Z</time>
      </trkpt>
      <trkpt lat="44.7004" lon="6.6246">
        <ele>1181.6</ele>
        <time>2012-06-10T09:40:50.000Z</time>
      </trkpt>
      <trkpt lat="44.70056" lon="6.62452">
        <ele>1184</ele>
        <time>2012-06-10T09:41:02.000Z</time>
      </trkpt>
      <trkpt lat="44.70067" lon="6.62451">
        <ele>1185.92</ele>
        <time>2012-06-10T09:41:09.000Z</time>
      </trkpt>
      <trkpt lat="44.70073" lon="6.62451">
        <ele>1186.88</ele>
        <time>2012-06-10T09:41:13.000Z</time>
      </trkpt>
      <trkpt lat="44.70081" lon="6.62446">
        <ele>1187.37</ele>
        <time>2012-06-10T09:41:18.000Z</time>
      </trkpt>
      <trkpt lat="44.70084" lon="6.62431">
        <ele>1188.81</ele>
        <time>2012-06-10T09:41:25.000Z</time>
      </trkpt>
      <trkpt lat="44.70086" lon="6.62426">
        <ele>1188.81</ele>
        <time>2012-06-10T09:41:27.000Z</time>
      </trkpt>
      <trkpt lat="44.70092" lon="6.62417">
        <ele>1188.81</ele>
        <time>2012-06-10T09:41:31.000Z</time>
      </trkpt>
      <trkpt lat="44.70119" lon="6.62394">
        <ele>1191.69</ele>
        <time>2012-06-10T09:41:47.000Z</time>
      </trkpt>
      <trkpt lat="44.70138" lon="6.62379">
        <ele>1195.06</ele>
        <time>2012-06-10T09:42:00.000Z</time>
      </trkpt>
      <trkpt lat="44.70142" lon="6.62376">
        <ele>1195.54</ele>
        <time>2012-06-10T09:42:02.000Z</time>
      </trkpt>
      <trkpt lat="44.70163" lon="6.62355">
        <ele>1197.94</ele>
        <time>2012-06-10T09:42:16.000Z</time>
      </trkpt>
      <trkpt lat="44.70181" lon="6.62353">
        <ele>1200.82</ele>
        <time>2012-06-10T09:42:27.000Z</time>
      </trkpt>
      <trkpt lat="44.7019" lon="6.62356">
        <ele>1202.27</ele>
        <time>2012-06-10T09:42:34.000Z</time>
      </trkpt>
      <trkpt lat="44.70197" lon="6.62357">
        <ele>1203.23</ele>
        <time>2012-06-10T09:42:39.000Z</time>
      </trkpt>
      <trkpt lat="44.702" lon="6.62355">
        <ele>1203.71</ele>
        <time>2012-06-10T09:42:42.000Z</time>
      </trkpt>
      <trkpt lat="44.70205" lon="6.62349">
        <ele>1203.71</ele>
        <time>2012-06-10T09:42:46.000Z</time>
      </trkpt>
      <trkpt lat="44.70235" lon="6.62311">
        <ele>1202.75</ele>
        <time>2012-06-10T09:42:57.000Z</time>
      </trkpt>
      <trkpt lat="44.70255" lon="6.62296">
        <ele>1202.75</ele>
        <time>2012-06-10T09:43:03.000Z</time>
      </trkpt>
      <trkpt lat="44.70267" lon="6.62298">
        <ele>1201.79</ele>
        <time>2012-06-10T09:43:07.000Z</time>
      </trkpt>
      <trkpt lat="44.70282" lon="6.6228">
        <ele>1202.75</ele>
        <time>2012-06-10T09:43:13.000Z</time>
      </trkpt>
      <trkpt lat="44.70289" lon="6.62273">
        <ele>1202.27</ele>
        <time>2012-06-10T09:43:15.000Z</time>
      </trkpt>
      <trkpt lat="44.70302" lon="6.62264">
        <ele>1201.79</ele>
        <time>2012-06-10T09:43:18.000Z</time>
      </trkpt>
      <trkpt lat="44.70316" lon="6.62244">
        <ele>1201.79</ele>
        <time>2012-06-10T09:43:23.000Z</time>
      </trkpt>
      <trkpt lat="44.70346" lon="6.62217">
        <ele>1201.79</ele>
        <time>2012-06-10T09:43:33.000Z</time>
      </trkpt>
      <trkpt lat="44.70347" lon="6.62213">
        <ele>1201.79</ele>
        <time>2012-06-10T09:43:34.000Z</time>
      </trkpt>
      <trkpt lat="44.70356" lon="6.62202">
        <ele>1202.27</ele>
        <time>2012-06-10T09:43:38.000Z</time>
      </trkpt>
      <trkpt lat="44.70373" lon="6.62195">
        <ele>1201.79</ele>
        <time>2012-06-10T09:43:44.000Z</time>
      </trkpt>
      <trkpt lat="44.70398" lon="6.62153">
        <ele>1202.75</ele>
        <time>2012-06-10T09:43:55.000Z</time>
      </trkpt>
      <trkpt lat="44.70413" lon="6.62137">
        <ele>1202.27</ele>
        <time>2012-06-10T09:43:59.000Z</time>
      </trkpt>
      <trkpt lat="44.70441" lon="6.62116">
        <ele>1202.75</ele>
        <time>2012-06-10T09:44:07.000Z</time>
      </trkpt>
      <trkpt lat="44.70452" lon="6.62111">
        <ele>1203.23</ele>
        <time>2012-06-10T09:44:10.000Z</time>
      </trkpt>
      <trkpt lat="44.70458" lon="6.62108">
        <ele>1203.23</ele>
        <time>2012-06-10T09:44:12.000Z</time>
      </trkpt>
      <trkpt lat="44.70479" lon="6.62071">
        <ele>1202.75</ele>
        <time>2012-06-10T09:44:22.000Z</time>
      </trkpt>
      <trkpt lat="44.70478" lon="6.62066">
        <ele>1202.75</ele>
        <time>2012-06-10T09:44:23.000Z</time>
      </trkpt>
      <trkpt lat="44.70479" lon="6.62055">
        <ele>1203.23</ele>
        <time>2012-06-10T09:44:25.000Z</time>
      </trkpt>
      <trkpt lat="44.70506" lon="6.62035">
        <ele>1203.71</ele>
        <time>2012-06-10T09:44:34.000Z</time>
      </trkpt>
      <trkpt lat="44.7053" lon="6.62049">
        <ele>1204.19</ele>
        <time>2012-06-10T09:44:42.000Z</time>
      </trkpt>
      <trkpt lat="44.70543" lon="6.62028">
        <ele>1203.23</ele>
        <time>2012-06-10T09:44:48.000Z</time>
      </trkpt>
      <trkpt lat="44.70546" lon="6.62023">
        <ele>1203.23</ele>
        <time>2012-06-10T09:44:49.000Z</time>
      </trkpt>
      <trkpt lat="44.70571" lon="6.61997">
        <ele>1203.71</ele>
        <time>2012-06-10T09:44:57.000Z</time>
      </trkpt>
      <trkpt lat="44.70573" lon="6.61972">
        <ele>1203.23</ele>
        <time>2012-06-10T09:45:02.000Z</time>
      </trkpt>
      <trkpt lat="44.70583" lon="6.61949">
        <ele>1202.27</ele>
        <time>2012-06-10T09:45:06.000Z</time>
      </trkpt>
      <trkpt lat="44.70603" lon="6.61933">
        <ele>1202.75</ele>
        <time>2012-06-10T09:45:11.000Z</time>
      </trkpt>
      <trkpt lat="44.70623" lon="6.61926">
        <ele>1202.75</ele>
        <time>2012-06-10T09:45:15.000Z</time>
      </trkpt>
      <trkpt lat="44.7065" lon="6.61918">
        <ele>1203.23</ele>
        <time>2012-06-10T09:45:21.000Z</time>
      </trkpt>
      <trkpt lat="44.70666" lon="6.61906">
        <ele>1203.71</ele>
        <time>2012-06-10T09:45:27.000Z</time>
      </trkpt>
      <trkpt lat="44.70655" lon="6.61853">
        <ele>1202.75</ele>
        <time>2012-06-10T09:45:37.000Z</time>
      </trkpt>
      <trkpt lat="44.70662" lon="6.61844">
        <ele>1203.71</ele>
        <time>2012-06-10T09:45:39.000Z</time>
      </trkpt>
      <trkpt lat="44.70677" lon="6.61841">
        <ele>1203.71</ele>
        <time>2012-06-10T09:45:43.000Z</time>
      </trkpt>
      <trkpt lat="44.70693" lon="6.61826">
        <ele>1203.71</ele>
        <time>2012-06-10T09:45:49.000Z</time>
      </trkpt>
      <trkpt lat="44.70696" lon="6.61815">
        <ele>1203.23</ele>
        <time>2012-06-10T09:45:51.000Z</time>
      </trkpt>
      <trkpt lat="44.70713" lon="6.61796">
        <ele>1204.19</ele>
        <time>2012-06-10T09:45:58.000Z</time>
      </trkpt>
      <trkpt lat="44.70736" lon="6.61822">
        <ele>1204.67</ele>
        <time>2012-06-10T09:46:07.000Z</time>
      </trkpt>
      <trkpt lat="44.70749" lon="6.6183">
        <ele>1204.19</ele>
        <time>2012-06-10T09:46:11.000Z</time>
      </trkpt>
      <trkpt lat="44.70776" lon="6.61826">
        <ele>1203.23</ele>
        <time>2012-06-10T09:46:17.000Z</time>
      </trkpt>
      <trkpt lat="44.70796" lon="6.61825">
        <ele>1202.75</ele>
        <time>2012-06-10T09:46:21.000Z</time>
      </trkpt>
      <trkpt lat="44.70816" lon="6.61818">
        <ele>1203.23</ele>
        <time>2012-06-10T09:46:26.000Z</time>
      </trkpt>
      <trkpt lat="44.70839" lon="6.61819">
        <ele>1204.67</ele>
        <time>2012-06-10T09:46:35.000Z</time>
      </trkpt>
      <trkpt lat="44.70845" lon="6.61802">
        <ele>1204.19</ele>
        <time>2012-06-10T09:46:40.000Z</time>
      </trkpt>
      <trkpt lat="44.70876" lon="6.61774">
        <ele>1203.23</ele>
        <time>2012-06-10T09:46:50.000Z</time>
      </trkpt>
      <trkpt lat="44.70881" lon="6.61771">
        <ele>1203.71</ele>
        <time>2012-06-10T09:46:52.000Z</time>
      </trkpt>
      <trkpt lat="44.70859" lon="6.6173">
        <ele>1204.19</ele>
        <time>2012-06-10T09:47:03.000Z</time>
      </trkpt>
      <trkpt lat="44.70856" lon="6.61725">
        <ele>1203.71</ele>
        <time>2012-06-10T09:47:04.000Z</time>
      </trkpt>
      <trkpt lat="44.70866" lon="6.61665">
        <ele>1202.27</ele>
        <time>2012-06-10T09:47:15.000Z</time>
      </trkpt>
      <trkpt lat="44.70871" lon="6.61654">
        <ele>1202.75</ele>
        <time>2012-06-10T09:47:17.000Z</time>
      </trkpt>
      <trkpt lat="44.70874" lon="6.61643">
        <ele>1202.27</ele>
        <time>2012-06-10T09:47:19.000Z</time>
      </trkpt>
      <trkpt lat="44.70882" lon="6.61605">
        <ele>1202.75</ele>
        <time>2012-06-10T09:47:26.000Z</time>
      </trkpt>
      <trkpt lat="44.70885" lon="6.61601">
        <ele>1202.27</ele>
        <time>2012-06-10T09:47:27.000Z</time>
      </trkpt>
      <trkpt lat="44.70889" lon="6.616">
        <ele>1202.75</ele>
        <time>2012-06-10T09:47:28.000Z</time>
      </trkpt>
      <trkpt lat="44.70891" lon="6.616">
        <ele>1202.75</ele>
        <time>2012-06-10T09:47:29.000Z</time>
      </trkpt>
      <trkpt lat="44.70893" lon="6.61599">
        <ele>1203.23</ele>
        <time>2012-06-10T09:47:30.000Z</time>
      </trkpt>
      <trkpt lat="44.70896" lon="6.61597">
        <ele>1203.23</ele>
        <time>2012-06-10T09:47:31.000Z</time>
      </trkpt>
      <trkpt lat="44.70898" lon="6.61594">
        <ele>1202.75</ele>
        <time>2012-06-10T09:47:32.000Z</time>
      </trkpt>
      <trkpt lat="44.709" lon="6.61591">
        <ele>1203.23</ele>
        <time>2012-06-10T09:47:33.000Z</time>
      </trkpt>
      <trkpt lat="44.70902" lon="6.6159">
        <ele>1203.23</ele>
        <time>2012-06-10T09:47:34.000Z</time>
      </trkpt>
      <trkpt lat="44.70905" lon="6.61589">
        <ele>1204.19</ele>
        <time>2012-06-10T09:47:35.000Z</time>
      </trkpt>
      <trkpt lat="44.70908" lon="6.61589">
        <ele>1204.19</ele>
        <time>2012-06-10T09:47:36.000Z</time>
      </trkpt>
      <trkpt lat="44.70911" lon="6.61589">
        <ele>1204.19</ele>
        <time>2012-06-10T09:47:37.000Z</time>
      </trkpt>
      <trkpt lat="44.70913" lon="6.6159">
        <ele>1204.19</ele>
        <time>2012-06-10T09:47:38.000Z</time>
      </trkpt>
      <trkpt lat="44.70916" lon="6.6159">
        <ele>1204.19</ele>
        <time>2012-06-10T09:47:39.000Z</time>
      </trkpt>
      <trkpt lat="44.7093" lon="6.61589">
        <ele>1205.15</ele>
        <time>2012-06-10T09:47:45.000Z</time>
      </trkpt>
      <trkpt lat="44.7093" lon="6.61586">
        <ele>1204.67</ele>
        <time>2012-06-10T09:47:46.000Z</time>
      </trkpt>
      <trkpt lat="44.7093" lon="6.61581">
        <ele>1205.15</ele>
        <time>2012-06-10T09:47:47.000Z</time>
      </trkpt>
      <trkpt lat="44.70929" lon="6.61577">
        <ele>1205.15</ele>
        <time>2012-06-10T09:47:48.000Z</time>
      </trkpt>
      <trkpt lat="44.70928" lon="6.61573">
        <ele>1205.15</ele>
        <time>2012-06-10T09:47:49.000Z</time>
      </trkpt>
      <trkpt lat="44.70927" lon="6.61568">
        <ele>1204.67</ele>
        <time>2012-06-10T09:47:50.000Z</time>
      </trkpt>
      <trkpt lat="44.70923" lon="6.61548">
        <ele>1204.19</ele>
        <time>2012-06-10T09:47:54.000Z</time>
      </trkpt>
      <trkpt lat="44.70921" lon="6.61518">
        <ele>1206.11</ele>
        <time>2012-06-10T09:48:02.000Z</time>
      </trkpt>
      <trkpt lat="44.70933" lon="6.61509">
        <ele>1208.51</ele>
        <time>2012-06-10T09:48:10.000Z</time>
      </trkpt>
      <trkpt lat="44.7095" lon="6.61493">
        <ele>1211.88</ele>
        <time>2012-06-10T09:48:23.000Z</time>
      </trkpt>
      <trkpt lat="44.70962" lon="6.61485">
        <ele>1214.28</ele>
        <time>2012-06-10T09:48:34.000Z</time>
      </trkpt>
      <trkpt lat="44.70959" lon="6.61504">
        <ele>1217.65</ele>
        <time>2012-06-10T09:48:46.000Z</time>
      </trkpt>
      <trkpt lat="44.70953" lon="6.61522">
        <ele>1218.61</ele>
        <time>2012-06-10T09:48:58.000Z</time>
      </trkpt>
      <trkpt lat="44.7095" lon="6.61531">
        <ele>1219.57</ele>
        <time>2012-06-10T09:49:03.000Z</time>
      </trkpt>
      <trkpt lat="44.7095" lon="6.6154">
        <ele>1220.53</ele>
        <time>2012-06-10T09:49:09.000Z</time>
      </trkpt>
      <trkpt lat="44.70952" lon="6.61558">
        <ele>1224.38</ele>
        <time>2012-06-10T09:49:22.000Z</time>
      </trkpt>
      <trkpt lat="44.70954" lon="6.61563">
        <ele>1223.9</ele>
        <time>2012-06-10T09:49:41.000Z</time>
      </trkpt>
      <trkpt lat="44.70954" lon="6.61563">
        <ele>1225.82</ele>
        <time>2012-06-10T09:49:55.000Z</time>
      </trkpt>
      <trkpt lat="44.70954" lon="6.61563">
        <ele>1224.38</ele>
        <time>2012-06-10T09:49:57.000Z</time>
      </trkpt>
      <trkpt lat="44.70954" lon="6.61563">
        <ele>1224.38</ele>
        <time>2012-06-10T09:50:01.000Z</time>
      </trkpt>
      <trkpt lat="44.70962" lon="6.6157">
        <ele>1226.78</ele>
        <time>2012-06-10T09:50:29.000Z</time>
      </trkpt>
      <trkpt lat="44.70963" lon="6.61562">
        <ele>1229.66</ele>
        <time>2012-06-10T09:50:37.000Z</time>
      </trkpt>
      <trkpt lat="44.70966" lon="6.61546">
        <ele>1232.55</ele>
        <time>2012-06-10T09:50:52.000Z</time>
      </trkpt>
      <trkpt lat="44.7097" lon="6.6155">
        <ele>1233.51</ele>
        <time>2012-06-10T09:51:00.000Z</time>
      </trkpt>
      <trkpt lat="44.70975" lon="6.61559">
        <ele>1236.39</ele>
        <time>2012-06-10T09:51:12.000Z</time>
      </trkpt>
      <trkpt lat="44.70976" lon="6.61557">
        <ele>1236.39</ele>
        <time>2012-06-10T09:51:15.000Z</time>
      </trkpt>
      <trkpt lat="44.70982" lon="6.61547">
        <ele>1240.24</ele>
        <time>2012-06-10T09:51:26.000Z</time>
      </trkpt>
      <trkpt lat="44.70986" lon="6.61544">
        <ele>1241.2</ele>
        <time>2012-06-10T09:51:31.000Z</time>
      </trkpt>
      <trkpt lat="44.70987" lon="6.61545">
        <ele>1242.16</ele>
        <time>2012-06-10T09:51:33.000Z</time>
      </trkpt>
      <trkpt lat="44.70987" lon="6.61549">
        <ele>1243.12</ele>
        <time>2012-06-10T09:51:38.000Z</time>
      </trkpt>
      <trkpt lat="44.70986" lon="6.61555">
        <ele>1244.08</ele>
        <time>2012-06-10T09:51:44.000Z</time>
      </trkpt>
      <trkpt lat="44.70985" lon="6.61557">
        <ele>1244.08</ele>
        <time>2012-06-10T09:51:46.000Z</time>
      </trkpt>
      <trkpt lat="44.70988" lon="6.61566">
        <ele>1246.01</ele>
        <time>2012-06-10T09:51:53.000Z</time>
      </trkpt>
      <trkpt lat="44.70993" lon="6.61574">
        <ele>1247.45</ele>
        <time>2012-06-10T09:52:05.000Z</time>
      </trkpt>
      <trkpt lat="44.70994" lon="6.61573">
        <ele>1248.89</ele>
        <time>2012-06-10T09:52:07.000Z</time>
      </trkpt>
      <trkpt lat="44.70996" lon="6.6157">
        <ele>1249.37</ele>
        <time>2012-06-10T09:52:10.000Z</time>
      </trkpt>
      <trkpt lat="44.70997" lon="6.61568">
        <ele>1250.81</ele>
        <time>2012-06-10T09:52:12.000Z</time>
      </trkpt>
      <trkpt lat="44.71001" lon="6.61559">
        <ele>1251.29</ele>
        <time>2012-06-10T09:52:20.000Z</time>
      </trkpt>
      <trkpt lat="44.71004" lon="6.61555">
        <ele>1252.74</ele>
        <time>2012-06-10T09:52:24.000Z</time>
      </trkpt>
      <trkpt lat="44.71012" lon="6.61543">
        <ele>1255.62</ele>
        <time>2012-06-10T09:52:37.000Z</time>
      </trkpt>
      <trkpt lat="44.71017" lon="6.61547">
        <ele>1258.02</ele>
        <time>2012-06-10T09:52:48.000Z</time>
      </trkpt>
      <trkpt lat="44.71017" lon="6.61553">
        <ele>1259.46</ele>
        <time>2012-06-10T09:52:54.000Z</time>
      </trkpt>
      <trkpt lat="44.71015" lon="6.61568">
        <ele>1260.43</ele>
        <time>2012-06-10T09:53:03.000Z</time>
      </trkpt>
      <trkpt lat="44.71016" lon="6.61575">
        <ele>1261.87</ele>
        <time>2012-06-10T09:53:08.000Z</time>
      </trkpt>
      <trkpt lat="44.71018" lon="6.61587">
        <ele>1263.79</ele>
        <time>2012-06-10T09:53:22.000Z</time>
      </trkpt>
      <trkpt lat="44.71021" lon="6.61585">
        <ele>1265.23</ele>
        <time>2012-06-10T09:53:27.000Z</time>
      </trkpt>
      <trkpt lat="44.71023" lon="6.61582">
        <ele>1265.23</ele>
        <time>2012-06-10T09:53:30.000Z</time>
      </trkpt>
      <trkpt lat="44.7103" lon="6.61575">
        <ele>1267.16</ele>
        <time>2012-06-10T09:53:43.000Z</time>
      </trkpt>
      <trkpt lat="44.71033" lon="6.61572">
        <ele>1268.6</ele>
        <time>2012-06-10T09:53:47.000Z</time>
      </trkpt>
      <trkpt lat="44.71042" lon="6.61565">
        <ele>1271.48</ele>
        <time>2012-06-10T09:53:59.000Z</time>
      </trkpt>
      <trkpt lat="44.71051" lon="6.61553">
        <ele>1274.36</ele>
        <time>2012-06-10T09:54:12.000Z</time>
      </trkpt>
      <trkpt lat="44.71055" lon="6.61556">
        <ele>1275.81</ele>
        <time>2012-06-10T09:54:21.000Z</time>
      </trkpt>
      <trkpt lat="44.71054" lon="6.61556">
        <ele>1276.77</ele>
        <time>2012-06-10T09:54:23.000Z</time>
      </trkpt>
      <trkpt lat="44.71053" lon="6.61562">
        <ele>1277.73</ele>
        <time>2012-06-10T09:54:29.000Z</time>
      </trkpt>
      <trkpt lat="44.71052" lon="6.61567">
        <ele>1278.21</ele>
        <time>2012-06-10T09:54:33.000Z</time>
      </trkpt>
      <trkpt lat="44.7105" lon="6.61574">
        <ele>1279.17</ele>
        <time>2012-06-10T09:54:39.000Z</time>
      </trkpt>
      <trkpt lat="44.71046" lon="6.61589">
        <ele>1281.09</ele>
        <time>2012-06-10T09:54:53.000Z</time>
      </trkpt>
      <trkpt lat="44.71052" lon="6.61587">
        <ele>1283.02</ele>
        <time>2012-06-10T09:55:04.000Z</time>
      </trkpt>
      <trkpt lat="44.7106" lon="6.61582">
        <ele>1284.94</ele>
        <time>2012-06-10T09:55:16.000Z</time>
      </trkpt>
      <trkpt lat="44.71069" lon="6.61575">
        <ele>1287.34</ele>
        <time>2012-06-10T09:55:29.000Z</time>
      </trkpt>
      <trkpt lat="44.71075" lon="6.61561">
        <ele>1289.75</ele>
        <time>2012-06-10T09:55:43.000Z</time>
      </trkpt>
      <trkpt lat="44.7108" lon="6.61556">
        <ele>1291.67</ele>
        <time>2012-06-10T09:55:49.000Z</time>
      </trkpt>
      <trkpt lat="44.71082" lon="6.61552">
        <ele>1291.67</ele>
        <time>2012-06-10T09:55:52.000Z</time>
      </trkpt>
      <trkpt lat="44.71088" lon="6.61537">
        <ele>1293.11</ele>
        <time>2012-06-10T09:56:04.000Z</time>
      </trkpt>
      <trkpt lat="44.71092" lon="6.61535">
        <ele>1295.03</ele>
        <time>2012-06-10T09:56:11.000Z</time>
      </trkpt>
      <trkpt lat="44.71092" lon="6.61546">
        <ele>1296.96</ele>
        <time>2012-06-10T09:56:22.000Z</time>
      </trkpt>
      <trkpt lat="44.71093" lon="6.61558">
        <ele>1299.36</ele>
        <time>2012-06-10T09:56:34.000Z</time>
      </trkpt>
      <trkpt lat="44.71092" lon="6.61573">
        <ele>1302.24</ele>
        <time>2012-06-10T09:56:47.000Z</time>
      </trkpt>
      <trkpt lat="44.71093" lon="6.61587">
        <ele>1304.17</ele>
        <time>2012-06-10T09:57:00.000Z</time>
      </trkpt>
      <trkpt lat="44.71099" lon="6.6159">
        <ele>1306.57</ele>
        <time>2012-06-10T09:57:13.000Z</time>
      </trkpt>
      <trkpt lat="44.71099" lon="6.61588">
        <ele>1307.53</ele>
        <time>2012-06-10T09:57:15.000Z</time>
      </trkpt>
      <trkpt lat="44.71104" lon="6.61578">
        <ele>1310.41</ele>
        <time>2012-06-10T09:57:28.000Z</time>
      </trkpt>
      <trkpt lat="44.71106" lon="6.61572">
        <ele>1311.86</ele>
        <time>2012-06-10T09:57:35.000Z</time>
      </trkpt>
      <trkpt lat="44.71109" lon="6.61571">
        <ele>1312.34</ele>
        <time>2012-06-10T09:57:38.000Z</time>
      </trkpt>
      <trkpt lat="44.71109" lon="6.61576">
        <ele>1313.3</ele>
        <time>2012-06-10T09:57:43.000Z</time>
      </trkpt>
      <trkpt lat="44.71113" lon="6.61576">
        <ele>1315.22</ele>
        <time>2012-06-10T09:57:53.000Z</time>
      </trkpt>
      <trkpt lat="44.71119" lon="6.61563">
        <ele>1318.59</ele>
        <time>2012-06-10T09:58:08.000Z</time>
      </trkpt>
      <trkpt lat="44.71119" lon="6.61564">
        <ele>1319.07</ele>
        <time>2012-06-10T09:58:09.000Z</time>
      </trkpt>
      <trkpt lat="44.71123" lon="6.61566">
        <ele>1319.55</ele>
        <time>2012-06-10T09:58:13.000Z</time>
      </trkpt>
      <trkpt lat="44.71124" lon="6.61579">
        <ele>1321.95</ele>
        <time>2012-06-10T09:58:25.000Z</time>
      </trkpt>
      <trkpt lat="44.71123" lon="6.61581">
        <ele>1322.91</ele>
        <time>2012-06-10T09:58:27.000Z</time>
      </trkpt>
      <trkpt lat="44.71121" lon="6.61591">
        <ele>1324.35</ele>
        <time>2012-06-10T09:58:39.000Z</time>
      </trkpt>
      <trkpt lat="44.71122" lon="6.61593">
        <ele>1325.31</ele>
        <time>2012-06-10T09:58:41.000Z</time>
      </trkpt>
      <trkpt lat="44.71123" lon="6.616">
        <ele>1325.8</ele>
        <time>2012-06-10T09:58:46.000Z</time>
      </trkpt>
      <trkpt lat="44.71129" lon="6.61613">
        <ele>1328.2</ele>
        <time>2012-06-10T09:58:59.000Z</time>
      </trkpt>
      <trkpt lat="44.7113" lon="6.61622">
        <ele>1328.68</ele>
        <time>2012-06-10T09:59:11.000Z</time>
      </trkpt>
      <trkpt lat="44.71133" lon="6.61635">
        <ele>1327.72</ele>
        <time>2012-06-10T09:59:18.000Z</time>
      </trkpt>
      <trkpt lat="44.71156" lon="6.61663">
        <ele>1327.24</ele>
        <time>2012-06-10T09:59:30.000Z</time>
      </trkpt>
      <trkpt lat="44.71171" lon="6.61691">
        <ele>1330.12</ele>
        <time>2012-06-10T09:59:44.000Z</time>
      </trkpt>
      <trkpt lat="44.71174" lon="6.61697">
        <ele>1330.6</ele>
        <time>2012-06-10T09:59:48.000Z</time>
      </trkpt>
      <trkpt lat="44.71176" lon="6.61702">
        <ele>1332.04</ele>
        <time>2012-06-10T09:59:52.000Z</time>
      </trkpt>
      <trkpt lat="44.71184" lon="6.61724">
        <ele>1335.41</ele>
        <time>2012-06-10T10:00:06.000Z</time>
      </trkpt>
      <trkpt lat="44.71192" lon="6.61739">
        <ele>1338.29</ele>
        <time>2012-06-10T10:00:18.000Z</time>
      </trkpt>
      <trkpt lat="44.71199" lon="6.61754">
        <ele>1342.14</ele>
        <time>2012-06-10T10:00:33.000Z</time>
      </trkpt>
      <trkpt lat="44.71202" lon="6.61767">
        <ele>1345.02</ele>
        <time>2012-06-10T10:00:49.000Z</time>
      </trkpt>
      <trkpt lat="44.71199" lon="6.61784">
        <ele>1347.91</ele>
        <time>2012-06-10T10:01:04.000Z</time>
      </trkpt>
      <trkpt lat="44.71198" lon="6.61792">
        <ele>1348.39</ele>
        <time>2012-06-10T10:01:15.000Z</time>
      </trkpt>
      <trkpt lat="44.71193" lon="6.61805">
        <ele>1347.91</ele>
        <time>2012-06-10T10:01:21.000Z</time>
      </trkpt>
      <trkpt lat="44.71191" lon="6.61838">
        <ele>1350.31</ele>
        <time>2012-06-10T10:01:35.000Z</time>
      </trkpt>
      <trkpt lat="44.71191" lon="6.61857">
        <ele>1352.23</ele>
        <time>2012-06-10T10:01:43.000Z</time>
      </trkpt>
      <trkpt lat="44.71188" lon="6.61885">
        <ele>1354.15</ele>
        <time>2012-06-10T10:01:55.000Z</time>
      </trkpt>
      <trkpt lat="44.71169" lon="6.61885">
        <ele>1355.6</ele>
        <time>2012-06-10T10:02:07.000Z</time>
      </trkpt>
      <trkpt lat="44.71151" lon="6.61898">
        <ele>1358</ele>
        <time>2012-06-10T10:02:19.000Z</time>
      </trkpt>
      <trkpt lat="44.71143" lon="6.61908">
        <ele>1346.94</ele>
        <time>2012-06-10T10:02:25.000Z</time>
      </trkpt>
      <trkpt lat="44.71142" lon="6.6191">
        <ele>1357.52</ele>
        <time>2012-06-10T10:02:26.000Z</time>
      </trkpt>
      <trkpt lat="44.71139" lon="6.61914">
        <ele>1359.44</ele>
        <time>2012-06-10T10:02:28.000Z</time>
      </trkpt>
      <trkpt lat="44.71133" lon="6.6193">
        <ele>1359.92</ele>
        <time>2012-06-10T10:02:36.000Z</time>
      </trkpt>
      <trkpt lat="44.71153" lon="6.61919">
        <ele>1362.81</ele>
        <time>2012-06-10T10:02:49.000Z</time>
      </trkpt>
      <trkpt lat="44.71164" lon="6.61917">
        <ele>1364.73</ele>
        <time>2012-06-10T10:02:55.000Z</time>
      </trkpt>
      <trkpt lat="44.71159" lon="6.61933">
        <ele>1366.17</ele>
        <time>2012-06-10T10:03:04.000Z</time>
      </trkpt>
      <trkpt lat="44.71151" lon="6.61954">
        <ele>1368.57</ele>
        <time>2012-06-10T10:03:14.000Z</time>
      </trkpt>
      <trkpt lat="44.71141" lon="6.61992">
        <ele>1371.94</ele>
        <time>2012-06-10T10:03:31.000Z</time>
      </trkpt>
      <trkpt lat="44.7114" lon="6.61996">
        <ele>1371.94</ele>
        <time>2012-06-10T10:03:33.000Z</time>
      </trkpt>
      <trkpt lat="44.71146" lon="6.62005">
        <ele>1374.34</ele>
        <time>2012-06-10T10:03:42.000Z</time>
      </trkpt>
      <trkpt lat="44.71149" lon="6.62001">
        <ele>1374.82</ele>
        <time>2012-06-10T10:03:44.000Z</time>
      </trkpt>
      <trkpt lat="44.71156" lon="6.6199">
        <ele>1365.21</ele>
        <time>2012-06-10T10:03:50.000Z</time>
      </trkpt>
      <trkpt lat="44.71157" lon="6.61988">
        <ele>1375.78</ele>
        <time>2012-06-10T10:03:51.000Z</time>
      </trkpt>
      <trkpt lat="44.71158" lon="6.61987">
        <ele>1375.78</ele>
        <time>2012-06-10T10:03:52.000Z</time>
      </trkpt>
      <trkpt lat="44.71159" lon="6.61985">
        <ele>1375.3</ele>
        <time>2012-06-10T10:03:53.000Z</time>
      </trkpt>
      <trkpt lat="44.71168" lon="6.61981">
        <ele>1376.26</ele>
        <time>2012-06-10T10:03:59.000Z</time>
      </trkpt>
      <trkpt lat="44.71179" lon="6.61978">
        <ele>1378.67</ele>
        <time>2012-06-10T10:04:07.000Z</time>
      </trkpt>
      <trkpt lat="44.71199" lon="6.61981">
        <ele>1382.03</ele>
        <time>2012-06-10T10:04:20.000Z</time>
      </trkpt>
      <trkpt lat="44.71224" lon="6.61973">
        <ele>1382.51</ele>
        <time>2012-06-10T10:04:32.000Z</time>
      </trkpt>
      <trkpt lat="44.71232" lon="6.61969">
        <ele>1382.99</ele>
        <time>2012-06-10T10:04:44.000Z</time>
      </trkpt>
      <trkpt lat="44.71232" lon="6.61969">
        <ele>1382.51</ele>
        <time>2012-06-10T10:05:49.000Z</time>
      </trkpt>
      <trkpt lat="44.71232" lon="6.6197">
        <ele>1384.44</ele>
        <time>2012-06-10T10:14:33.000Z</time>
      </trkpt>
      <trkpt lat="44.71232" lon="6.6197">
        <ele>1384.92</ele>
        <time>2012-06-10T10:16:15.000Z</time>
      </trkpt>
      <trkpt lat="44.71236" lon="6.61972">
        <ele>1385.88</ele>
        <time>2012-06-10T10:18:05.000Z</time>
      </trkpt>
      <trkpt lat="44.71234" lon="6.61975">
        <ele>1386.36</ele>
        <time>2012-06-10T10:18:17.000Z</time>
      </trkpt>
      <trkpt lat="44.71233" lon="6.61976">
        <ele>1387.32</ele>
        <time>2012-06-10T10:19:58.000Z</time>
      </trkpt>
      <trkpt lat="44.7123" lon="6.61981">
        <ele>1387.32</ele>
        <time>2012-06-10T10:20:02.000Z</time>
      </trkpt>
      <trkpt lat="44.71226" lon="6.61998">
        <ele>1389.72</ele>
        <time>2012-06-10T10:20:10.000Z</time>
      </trkpt>
      <trkpt lat="44.71225" lon="6.62004">
        <ele>1390.68</ele>
        <time>2012-06-10T10:20:13.000Z</time>
      </trkpt>
      <trkpt lat="44.71216" lon="6.6201">
        <ele>1391.65</ele>
        <time>2012-06-10T10:20:20.000Z</time>
      </trkpt>
      <trkpt lat="44.71191" lon="6.62021">
        <ele>1391.65</ele>
        <time>2012-06-10T10:20:30.000Z</time>
      </trkpt>
      <trkpt lat="44.71171" lon="6.62039">
        <ele>1390.2</ele>
        <time>2012-06-10T10:20:35.000Z</time>
      </trkpt>
      <trkpt lat="44.71119" lon="6.62079">
        <ele>1390.2</ele>
        <time>2012-06-10T10:20:47.000Z</time>
      </trkpt>
      <trkpt lat="44.71104" lon="6.62097">
        <ele>1390.68</ele>
        <time>2012-06-10T10:20:51.000Z</time>
      </trkpt>
      <trkpt lat="44.71101" lon="6.62102">
        <ele>1390.68</ele>
        <time>2012-06-10T10:20:52.000Z</time>
      </trkpt>
      <trkpt lat="44.71098" lon="6.62107">
        <ele>1391.17</ele>
        <time>2012-06-10T10:20:53.000Z</time>
      </trkpt>
      <trkpt lat="44.71081" lon="6.62126">
        <ele>1394.05</ele>
        <time>2012-06-10T10:21:00.000Z</time>
      </trkpt>
      <trkpt lat="44.71061" lon="6.62155">
        <ele>1396.45</ele>
        <time>2012-06-10T10:21:11.000Z</time>
      </trkpt>
      <trkpt lat="44.71036" lon="6.62176">
        <ele>1398.37</ele>
        <time>2012-06-10T10:21:23.000Z</time>
      </trkpt>
      <trkpt lat="44.71024" lon="6.62188">
        <ele>1399.82</ele>
        <time>2012-06-10T10:21:30.000Z</time>
      </trkpt>
      <trkpt lat="44.71022" lon="6.6219">
        <ele>1400.3</ele>
        <time>2012-06-10T10:21:31.000Z</time>
      </trkpt>
      <trkpt lat="44.71021" lon="6.62192">
        <ele>1400.78</ele>
        <time>2012-06-10T10:21:32.000Z</time>
      </trkpt>
      <trkpt lat="44.71019" lon="6.62194">
        <ele>1400.78</ele>
        <time>2012-06-10T10:21:33.000Z</time>
      </trkpt>
      <trkpt lat="44.71018" lon="6.62196">
        <ele>1400.78</ele>
        <time>2012-06-10T10:21:34.000Z</time>
      </trkpt>
      <trkpt lat="44.71016" lon="6.62198">
        <ele>1401.26</ele>
        <time>2012-06-10T10:21:35.000Z</time>
      </trkpt>
      <trkpt lat="44.71015" lon="6.622">
        <ele>1401.74</ele>
        <time>2012-06-10T10:21:36.000Z</time>
      </trkpt>
      <trkpt lat="44.71014" lon="6.62202">
        <ele>1401.74</ele>
        <time>2012-06-10T10:21:37.000Z</time>
      </trkpt>
      <trkpt lat="44.71012" lon="6.62204">
        <ele>1402.22</ele>
        <time>2012-06-10T10:21:38.000Z</time>
      </trkpt>
      <trkpt lat="44.70996" lon="6.62231">
        <ele>1405.58</ele>
        <time>2012-06-10T10:21:52.000Z</time>
      </trkpt>
      <trkpt lat="44.70984" lon="6.62256">
        <ele>1407.51</ele>
        <time>2012-06-10T10:22:03.000Z</time>
      </trkpt>
      <trkpt lat="44.70972" lon="6.62286">
        <ele>1410.39</ele>
        <time>2012-06-10T10:22:15.000Z</time>
      </trkpt>
      <trkpt lat="44.70969" lon="6.62294">
        <ele>1411.83</ele>
        <time>2012-06-10T10:22:19.000Z</time>
      </trkpt>
      <trkpt lat="44.70968" lon="6.62296">
        <ele>1411.83</ele>
        <time>2012-06-10T10:22:20.000Z</time>
      </trkpt>
      <trkpt lat="44.70966" lon="6.62297">
        <ele>1411.35</ele>
        <time>2012-06-10T10:22:21.000Z</time>
      </trkpt>
      <trkpt lat="44.70965" lon="6.62299">
        <ele>1411.83</ele>
        <time>2012-06-10T10:22:22.000Z</time>
      </trkpt>
      <trkpt lat="44.70964" lon="6.62301">
        <ele>1412.31</ele>
        <time>2012-06-10T10:22:23.000Z</time>
      </trkpt>
      <trkpt lat="44.70962" lon="6.62303">
        <ele>1412.79</ele>
        <time>2012-06-10T10:22:24.000Z</time>
      </trkpt>
      <trkpt lat="44.7096" lon="6.62306">
        <ele>1412.79</ele>
        <time>2012-06-10T10:22:25.000Z</time>
      </trkpt>
      <trkpt lat="44.70958" lon="6.62308">
        <ele>1412.79</ele>
        <time>2012-06-10T10:22:26.000Z</time>
      </trkpt>
      <trkpt lat="44.70951" lon="6.6232">
        <ele>1413.28</ele>
        <time>2012-06-10T10:22:31.000Z</time>
      </trkpt>
      <trkpt lat="44.7095" lon="6.62322">
        <ele>1413.76</ele>
        <time>2012-06-10T10:22:32.000Z</time>
      </trkpt>
      <trkpt lat="44.70949" lon="6.62324">
        <ele>1414.24</ele>
        <time>2012-06-10T10:22:33.000Z</time>
      </trkpt>
      <trkpt lat="44.70948" lon="6.62326">
        <ele>1414.72</ele>
        <time>2012-06-10T10:22:34.000Z</time>
      </trkpt>
      <trkpt lat="44.70946" lon="6.62328">
        <ele>1414.72</ele>
        <time>2012-06-10T10:22:35.000Z</time>
      </trkpt>
      <trkpt lat="44.70945" lon="6.62331">
        <ele>1414.72</ele>
        <time>2012-06-10T10:22:36.000Z</time>
      </trkpt>
      <trkpt lat="44.70943" lon="6.62333">
        <ele>1415.2</ele>
        <time>2012-06-10T10:22:37.000Z</time>
      </trkpt>
      <trkpt lat="44.70929" lon="6.6236">
        <ele>1417.12</ele>
        <time>2012-06-10T10:22:49.000Z</time>
      </trkpt>
      <trkpt lat="44.70926" lon="6.62371">
        <ele>1418.56</ele>
        <time>2012-06-10T10:22:53.000Z</time>
      </trkpt>
      <trkpt lat="44.70926" lon="6.62373">
        <ele>1418.56</ele>
        <time>2012-06-10T10:22:54.000Z</time>
      </trkpt>
      <trkpt lat="44.70918" lon="6.62408">
        <ele>1421.93</ele>
        <time>2012-06-10T10:23:07.000Z</time>
      </trkpt>
      <trkpt lat="44.70911" lon="6.62432">
        <ele>1423.37</ele>
        <time>2012-06-10T10:23:17.000Z</time>
      </trkpt>
      <trkpt lat="44.7091" lon="6.62435">
        <ele>1423.85</ele>
        <time>2012-06-10T10:23:18.000Z</time>
      </trkpt>
      <trkpt lat="44.70908" lon="6.62437">
        <ele>1423.85</ele>
        <time>2012-06-10T10:23:19.000Z</time>
      </trkpt>
      <trkpt lat="44.70889" lon="6.62459">
        <ele>1425.77</ele>
        <time>2012-06-10T10:23:32.000Z</time>
      </trkpt>
      <trkpt lat="44.70871" lon="6.62483">
        <ele>1427.7</ele>
        <time>2012-06-10T10:23:44.000Z</time>
      </trkpt>
      <trkpt lat="44.70859" lon="6.62504">
        <ele>1431.06</ele>
        <time>2012-06-10T10:23:55.000Z</time>
      </trkpt>
      <trkpt lat="44.70845" lon="6.62525">
        <ele>1432.98</ele>
        <time>2012-06-10T10:24:07.000Z</time>
      </trkpt>
      <trkpt lat="44.70832" lon="6.6254">
        <ele>1435.87</ele>
        <time>2012-06-10T10:24:17.000Z</time>
      </trkpt>
      <trkpt lat="44.70831" lon="6.62542">
        <ele>1435.87</ele>
        <time>2012-06-10T10:24:18.000Z</time>
      </trkpt>
      <trkpt lat="44.70829" lon="6.62544">
        <ele>1435.87</ele>
        <time>2012-06-10T10:24:20.000Z</time>
      </trkpt>
      <trkpt lat="44.70821" lon="6.62552">
        <ele>1437.79</ele>
        <time>2012-06-10T10:24:26.000Z</time>
      </trkpt>
      <trkpt lat="44.70819" lon="6.62555">
        <ele>1437.79</ele>
        <time>2012-06-10T10:24:27.000Z</time>
      </trkpt>
      <trkpt lat="44.70818" lon="6.62557">
        <ele>1438.27</ele>
        <time>2012-06-10T10:24:28.000Z</time>
      </trkpt>
      <trkpt lat="44.70817" lon="6.62558">
        <ele>1438.75</ele>
        <time>2012-06-10T10:24:29.000Z</time>
      </trkpt>
      <trkpt lat="44.70816" lon="6.6256">
        <ele>1439.23</ele>
        <time>2012-06-10T10:24:30.000Z</time>
      </trkpt>
      <trkpt lat="44.70806" lon="6.62571">
        <ele>1440.67</ele>
        <time>2012-06-10T10:24:37.000Z</time>
      </trkpt>
      <trkpt lat="44.70805" lon="6.62573">
        <ele>1441.15</ele>
        <time>2012-06-10T10:24:38.000Z</time>
      </trkpt>
      <trkpt lat="44.70804" lon="6.62575">
        <ele>1441.15</ele>
        <time>2012-06-10T10:24:39.000Z</time>
      </trkpt>
      <trkpt lat="44.70803" lon="6.62576">
        <ele>1440.67</ele>
        <time>2012-06-10T10:24:40.000Z</time>
      </trkpt>
      <trkpt lat="44.70801" lon="6.62578">
        <ele>1441.15</ele>
        <time>2012-06-10T10:24:41.000Z</time>
      </trkpt>
      <trkpt lat="44.708" lon="6.6258">
        <ele>1441.15</ele>
        <time>2012-06-10T10:24:42.000Z</time>
      </trkpt>
      <trkpt lat="44.70796" lon="6.62584">
        <ele>1442.11</ele>
        <time>2012-06-10T10:24:45.000Z</time>
      </trkpt>
      <trkpt lat="44.70784" lon="6.62595">
        <ele>1444.04</ele>
        <time>2012-06-10T10:24:53.000Z</time>
      </trkpt>
      <trkpt lat="44.70782" lon="6.62596">
        <ele>1443.56</ele>
        <time>2012-06-10T10:24:54.000Z</time>
      </trkpt>
      <trkpt lat="44.70781" lon="6.62598">
        <ele>1444.04</ele>
        <time>2012-06-10T10:24:55.000Z</time>
      </trkpt>
      <trkpt lat="44.70771" lon="6.62611">
        <ele>1446.44</ele>
        <time>2012-06-10T10:25:04.000Z</time>
      </trkpt>
      <trkpt lat="44.7075" lon="6.62634">
        <ele>1448.84</ele>
        <time>2012-06-10T10:25:19.000Z</time>
      </trkpt>
      <trkpt lat="44.70729" lon="6.62659">
        <ele>1450.77</ele>
        <time>2012-06-10T10:25:33.000Z</time>
      </trkpt>
      <trkpt lat="44.70722" lon="6.62666">
        <ele>1451.73</ele>
        <time>2012-06-10T10:25:38.000Z</time>
      </trkpt>
      <trkpt lat="44.70721" lon="6.62667">
        <ele>1452.21</ele>
        <time>2012-06-10T10:25:39.000Z</time>
      </trkpt>
      <trkpt lat="44.7072" lon="6.62668">
        <ele>1452.21</ele>
        <time>2012-06-10T10:25:40.000Z</time>
      </trkpt>
      <trkpt lat="44.70718" lon="6.6267">
        <ele>1452.21</ele>
        <time>2012-06-10T10:25:41.000Z</time>
      </trkpt>
      <trkpt lat="44.70717" lon="6.62671">
        <ele>1452.69</ele>
        <time>2012-06-10T10:25:42.000Z</time>
      </trkpt>
      <trkpt lat="44.70716" lon="6.62672">
        <ele>1452.69</ele>
        <time>2012-06-10T10:25:43.000Z</time>
      </trkpt>
      <trkpt lat="44.70715" lon="6.62674">
        <ele>1453.17</ele>
        <time>2012-06-10T10:25:44.000Z</time>
      </trkpt>
      <trkpt lat="44.70697" lon="6.62688">
        <ele>1456.05</ele>
        <time>2012-06-10T10:25:56.000Z</time>
      </trkpt>
      <trkpt lat="44.70687" lon="6.62696">
        <ele>1457.98</ele>
        <time>2012-06-10T10:26:03.000Z</time>
      </trkpt>
      <trkpt lat="44.70686" lon="6.62698">
        <ele>1458.46</ele>
        <time>2012-06-10T10:26:05.000Z</time>
      </trkpt>
      <trkpt lat="44.70674" lon="6.62712">
        <ele>1460.86</ele>
        <time>2012-06-10T10:26:17.000Z</time>
      </trkpt>
      <trkpt lat="44.70671" lon="6.62715">
        <ele>1461.82</ele>
        <time>2012-06-10T10:26:20.000Z</time>
      </trkpt>
      <trkpt lat="44.7067" lon="6.62716">
        <ele>1461.82</ele>
        <time>2012-06-10T10:26:21.000Z</time>
      </trkpt>
      <trkpt lat="44.70668" lon="6.62717">
        <ele>1462.3</ele>
        <time>2012-06-10T10:26:22.000Z</time>
      </trkpt>
      <trkpt lat="44.70667" lon="6.62718">
        <ele>1462.3</ele>
        <time>2012-06-10T10:26:23.000Z</time>
      </trkpt>
      <trkpt lat="44.70667" lon="6.62719">
        <ele>1462.78</ele>
        <time>2012-06-10T10:26:24.000Z</time>
      </trkpt>
      <trkpt lat="44.70662" lon="6.62725">
        <ele>1463.26</ele>
        <time>2012-06-10T10:26:29.000Z</time>
      </trkpt>
      <trkpt lat="44.70657" lon="6.62729">
        <ele>1464.23</ele>
        <time>2012-06-10T10:26:35.000Z</time>
      </trkpt>
      <trkpt lat="44.70656" lon="6.6273">
        <ele>1464.23</ele>
        <time>2012-06-10T10:26:36.000Z</time>
      </trkpt>
      <trkpt lat="44.70655" lon="6.62731">
        <ele>1465.19</ele>
        <time>2012-06-10T10:26:37.000Z</time>
      </trkpt>
      <trkpt lat="44.70644" lon="6.62742">
        <ele>1468.07</ele>
        <time>2012-06-10T10:26:50.000Z</time>
      </trkpt>
      <trkpt lat="44.70633" lon="6.62755">
        <ele>1471.44</ele>
        <time>2012-06-10T10:27:03.000Z</time>
      </trkpt>
      <trkpt lat="44.70628" lon="6.62759">
        <ele>1472.88</ele>
        <time>2012-06-10T10:27:14.000Z</time>
      </trkpt>
      <trkpt lat="44.70628" lon="6.62759">
        <ele>1472.88</ele>
        <time>2012-06-10T10:27:15.000Z</time>
      </trkpt>
      <trkpt lat="44.70628" lon="6.62759">
        <ele>1473.84</ele>
        <time>2012-06-10T10:27:16.000Z</time>
      </trkpt>
      <trkpt lat="44.7062" lon="6.62771">
        <ele>1475.76</ele>
        <time>2012-06-10T10:27:29.000Z</time>
      </trkpt>
      <trkpt lat="44.70613" lon="6.62781">
        <ele>1479.13</ele>
        <time>2012-06-10T10:27:42.000Z</time>
      </trkpt>
      <trkpt lat="44.70607" lon="6.62789">
        <ele>1481.53</ele>
        <time>2012-06-10T10:27:55.000Z</time>
      </trkpt>
      <trkpt lat="44.70601" lon="6.62798">
        <ele>1484.89</ele>
        <time>2012-06-10T10:28:08.000Z</time>
      </trkpt>
      <trkpt lat="44.70594" lon="6.62808">
        <ele>1487.3</ele>
        <time>2012-06-10T10:28:21.000Z</time>
      </trkpt>
      <trkpt lat="44.70589" lon="6.62814">
        <ele>1490.18</ele>
        <time>2012-06-10T10:28:33.000Z</time>
      </trkpt>
      <trkpt lat="44.70582" lon="6.62821">
        <ele>1492.1</ele>
        <time>2012-06-10T10:28:45.000Z</time>
      </trkpt>
      <trkpt lat="44.70573" lon="6.62824">
        <ele>1494.51</ele>
        <time>2012-06-10T10:28:55.000Z</time>
      </trkpt>
      <trkpt lat="44.70567" lon="6.62829">
        <ele>1495.95</ele>
        <time>2012-06-10T10:29:03.000Z</time>
      </trkpt>
      <trkpt lat="44.70557" lon="6.62836">
        <ele>1497.39</ele>
        <time>2012-06-10T10:29:17.000Z</time>
      </trkpt>
      <trkpt lat="44.70553" lon="6.62838">
        <ele>1498.35</ele>
        <time>2012-06-10T10:29:21.000Z</time>
      </trkpt>
      <trkpt lat="44.70544" lon="6.62843">
        <ele>1501.24</ele>
        <time>2012-06-10T10:29:32.000Z</time>
      </trkpt>
      <trkpt lat="44.70544" lon="6.62843">
        <ele>1501.24</ele>
        <time>2012-06-10T10:29:33.000Z</time>
      </trkpt>
      <trkpt lat="44.70535" lon="6.62848">
        <ele>1503.16</ele>
        <time>2012-06-10T10:29:44.000Z</time>
      </trkpt>
      <trkpt lat="44.70525" lon="6.62852">
        <ele>1504.12</ele>
        <time>2012-06-10T10:29:57.000Z</time>
      </trkpt>
      <trkpt lat="44.70506" lon="6.62867">
        <ele>1505.56</ele>
        <time>2012-06-10T10:30:10.000Z</time>
      </trkpt>
      <trkpt lat="44.70481" lon="6.6289">
        <ele>1507</ele>
        <time>2012-06-10T10:30:23.000Z</time>
      </trkpt>
      <trkpt lat="44.70454" lon="6.62918">
        <ele>1506.52</ele>
        <time>2012-06-10T10:30:35.000Z</time>
      </trkpt>
      <trkpt lat="44.70438" lon="6.6293">
        <ele>1503.16</ele>
        <time>2012-06-10T10:30:38.000Z</time>
      </trkpt>
      <trkpt lat="44.70414" lon="6.62952">
        <ele>1497.87</ele>
        <time>2012-06-10T10:30:42.000Z</time>
      </trkpt>
      <trkpt lat="44.70406" lon="6.62956">
        <ele>1495.47</ele>
        <time>2012-06-10T10:30:43.000Z</time>
      </trkpt>
      <trkpt lat="44.70384" lon="6.62979">
        <ele>1493.06</ele>
        <time>2012-06-10T10:30:46.000Z</time>
      </trkpt>
      <trkpt lat="44.70378" lon="6.62987">
        <ele>1493.06</ele>
        <time>2012-06-10T10:30:47.000Z</time>
      </trkpt>
      <trkpt lat="44.70368" lon="6.63004">
        <ele>1492.1</ele>
        <time>2012-06-10T10:30:49.000Z</time>
      </trkpt>
      <trkpt lat="44.70355" lon="6.63025">
        <ele>1492.1</ele>
        <time>2012-06-10T10:30:52.000Z</time>
      </trkpt>
      <trkpt lat="44.70344" lon="6.63061">
        <ele>1489.7</ele>
        <time>2012-06-10T10:30:57.000Z</time>
      </trkpt>
      <trkpt lat="44.70346" lon="6.63076">
        <ele>1489.22</ele>
        <time>2012-06-10T10:30:59.000Z</time>
      </trkpt>
      <trkpt lat="44.70347" lon="6.63098">
        <ele>1486.82</ele>
        <time>2012-06-10T10:31:02.000Z</time>
      </trkpt>
      <trkpt lat="44.70356" lon="6.63121">
        <ele>1486.34</ele>
        <time>2012-06-10T10:31:06.000Z</time>
      </trkpt>
      <trkpt lat="44.70363" lon="6.63131">
        <ele>1485.37</ele>
        <time>2012-06-10T10:31:09.000Z</time>
      </trkpt>
      <trkpt lat="44.7038" lon="6.6314">
        <ele>1482.97</ele>
        <time>2012-06-10T10:31:14.000Z</time>
      </trkpt>
      <trkpt lat="44.70401" lon="6.63173">
        <ele>1479.61</ele>
        <time>2012-06-10T10:31:19.000Z</time>
      </trkpt>
      <trkpt lat="44.70404" lon="6.63181">
        <ele>1478.16</ele>
        <time>2012-06-10T10:31:20.000Z</time>
      </trkpt>
      <trkpt lat="44.70418" lon="6.63211">
        <ele>1474.8</ele>
        <time>2012-06-10T10:31:25.000Z</time>
      </trkpt>
      <trkpt lat="44.70425" lon="6.63219">
        <ele>1470.95</ele>
        <time>2012-06-10T10:31:27.000Z</time>
      </trkpt>
      <trkpt lat="44.70429" lon="6.63224">
        <ele>1469.03</ele>
        <time>2012-06-10T10:31:28.000Z</time>
      </trkpt>
      <trkpt lat="44.70436" lon="6.63236">
        <ele>1466.63</ele>
        <time>2012-06-10T10:31:30.000Z</time>
      </trkpt>
      <trkpt lat="44.70447" lon="6.63262">
        <ele>1465.67</ele>
        <time>2012-06-10T10:31:34.000Z</time>
      </trkpt>
      <trkpt lat="44.7048" lon="6.63292">
        <ele>1465.67</ele>
        <time>2012-06-10T10:31:47.000Z</time>
      </trkpt>
      <trkpt lat="44.70488" lon="6.63304">
        <ele>1465.19</ele>
        <time>2012-06-10T10:31:50.000Z</time>
      </trkpt>
      <trkpt lat="44.70511" lon="6.6333">
        <ele>1464.71</ele>
        <time>2012-06-10T10:31:57.000Z</time>
      </trkpt>
      <trkpt lat="44.70537" lon="6.63365">
        <ele>1464.23</ele>
        <time>2012-06-10T10:32:06.000Z</time>
      </trkpt>
      <trkpt lat="44.70548" lon="6.63378">
        <ele>1465.67</ele>
        <time>2012-06-10T10:32:11.000Z</time>
      </trkpt>
      <trkpt lat="44.7056" lon="6.634">
        <ele>1464.71</ele>
        <time>2012-06-10T10:32:16.000Z</time>
      </trkpt>
      <trkpt lat="44.7057" lon="6.63455">
        <ele>1462.78</ele>
        <time>2012-06-10T10:32:26.000Z</time>
      </trkpt>
      <trkpt lat="44.70585" lon="6.63491">
        <ele>1459.9</ele>
        <time>2012-06-10T10:32:36.000Z</time>
      </trkpt>
      <trkpt lat="44.70593" lon="6.63503">
        <ele>1456.05</ele>
        <time>2012-06-10T10:32:40.000Z</time>
      </trkpt>
      <trkpt lat="44.70596" lon="6.63509">
        <ele>1454.61</ele>
        <time>2012-06-10T10:32:42.000Z</time>
      </trkpt>
      <trkpt lat="44.706" lon="6.63514">
        <ele>1451.73</ele>
        <time>2012-06-10T10:32:45.000Z</time>
      </trkpt>
      <trkpt lat="44.70605" lon="6.63522">
        <ele>1450.29</ele>
        <time>2012-06-10T10:32:48.000Z</time>
      </trkpt>
      <trkpt lat="44.70609" lon="6.63544">
        <ele>1446.44</ele>
        <time>2012-06-10T10:32:57.000Z</time>
      </trkpt>
      <trkpt lat="44.7061" lon="6.63546">
        <ele>1445.96</ele>
        <time>2012-06-10T10:32:58.000Z</time>
      </trkpt>
      <trkpt lat="44.70611" lon="6.6356">
        <ele>1442.6</ele>
        <time>2012-06-10T10:33:05.000Z</time>
      </trkpt>
      <trkpt lat="44.70622" lon="6.63574">
        <ele>1441.15</ele>
        <time>2012-06-10T10:33:13.000Z</time>
      </trkpt>
      <trkpt lat="44.7063" lon="6.63583">
        <ele>1441.15</ele>
        <time>2012-06-10T10:33:19.000Z</time>
      </trkpt>
      <trkpt lat="44.70636" lon="6.63608">
        <ele>1438.75</ele>
        <time>2012-06-10T10:33:28.000Z</time>
      </trkpt>
      <trkpt lat="44.70639" lon="6.63621">
        <ele>1436.83</ele>
        <time>2012-06-10T10:33:31.000Z</time>
      </trkpt>
      <trkpt lat="44.70639" lon="6.63624">
        <ele>1435.39</ele>
        <time>2012-06-10T10:33:32.000Z</time>
      </trkpt>
      <trkpt lat="44.70638" lon="6.63631">
        <ele>1433.94</ele>
        <time>2012-06-10T10:33:34.000Z</time>
      </trkpt>
      <trkpt lat="44.70638" lon="6.63642">
        <ele>1431.54</ele>
        <time>2012-06-10T10:33:41.000Z</time>
      </trkpt>
      <trkpt lat="44.70633" lon="6.63645">
        <ele>1432.5</ele>
        <time>2012-06-10T10:33:52.000Z</time>
      </trkpt>
      <trkpt lat="44.70628" lon="6.63656">
        <ele>1432.02</ele>
        <time>2012-06-10T10:34:03.000Z</time>
      </trkpt>
      <trkpt lat="44.70627" lon="6.63657">
        <ele>1432.02</ele>
        <time>2012-06-10T10:34:05.000Z</time>
      </trkpt>
      <trkpt lat="44.7062" lon="6.63653">
        <ele>1433.46</ele>
        <time>2012-06-10T10:34:10.000Z</time>
      </trkpt>
      <trkpt lat="44.7061" lon="6.63644">
        <ele>1433.94</ele>
        <time>2012-06-10T10:34:20.000Z</time>
      </trkpt>
      <trkpt lat="44.70587" lon="6.63632">
        <ele>1434.42</ele>
        <time>2012-06-10T10:34:29.000Z</time>
      </trkpt>
      <trkpt lat="44.70575" lon="6.63628">
        <ele>1436.35</ele>
        <time>2012-06-10T10:34:35.000Z</time>
      </trkpt>
      <trkpt lat="44.70567" lon="6.63632">
        <ele>1436.83</ele>
        <time>2012-06-10T10:34:39.000Z</time>
      </trkpt>
      <trkpt lat="44.70562" lon="6.63637">
        <ele>1436.83</ele>
        <time>2012-06-10T10:34:42.000Z</time>
      </trkpt>
      <trkpt lat="44.70554" lon="6.6363">
        <ele>1437.31</ele>
        <time>2012-06-10T10:34:46.000Z</time>
      </trkpt>
      <trkpt lat="44.70553" lon="6.63627">
        <ele>1437.79</ele>
        <time>2012-06-10T10:34:47.000Z</time>
      </trkpt>
      <trkpt lat="44.70549" lon="6.63611">
        <ele>1439.23</ele>
        <time>2012-06-10T10:34:56.000Z</time>
      </trkpt>
      <trkpt lat="44.70545" lon="6.63607">
        <ele>1438.75</ele>
        <time>2012-06-10T10:35:01.000Z</time>
      </trkpt>
      <trkpt lat="44.70533" lon="6.636">
        <ele>1439.23</ele>
        <time>2012-06-10T10:35:11.000Z</time>
      </trkpt>
      <trkpt lat="44.7053" lon="6.63596">
        <ele>1441.63</ele>
        <time>2012-06-10T10:35:22.000Z</time>
      </trkpt>
      <trkpt lat="44.7053" lon="6.63596">
        <ele>1444.04</ele>
        <time>2012-06-10T10:35:35.000Z</time>
      </trkpt>
      <trkpt lat="44.70521" lon="6.63599">
        <ele>1447.4</ele>
        <time>2012-06-10T10:35:48.000Z</time>
      </trkpt>
      <trkpt lat="44.70518" lon="6.63602">
        <ele>1448.36</ele>
        <time>2012-06-10T10:35:53.000Z</time>
      </trkpt>
      <trkpt lat="44.70516" lon="6.63603">
        <ele>1448.36</ele>
        <time>2012-06-10T10:35:55.000Z</time>
      </trkpt>
      <trkpt lat="44.70507" lon="6.6362">
        <ele>1446.44</ele>
        <time>2012-06-10T10:36:05.000Z</time>
      </trkpt>
      <trkpt lat="44.70505" lon="6.63621">
        <ele>1443.56</ele>
        <time>2012-06-10T10:36:07.000Z</time>
      </trkpt>
      <trkpt lat="44.70504" lon="6.63622">
        <ele>1443.56</ele>
        <time>2012-06-10T10:36:08.000Z</time>
      </trkpt>
      <trkpt lat="44.70503" lon="6.63622">
        <ele>1440.67</ele>
        <time>2012-06-10T10:36:10.000Z</time>
      </trkpt>
      <trkpt lat="44.70501" lon="6.63616">
        <ele>1439.23</ele>
        <time>2012-06-10T10:36:12.000Z</time>
      </trkpt>
      <trkpt lat="44.70498" lon="6.6361">
        <ele>1435.39</ele>
        <time>2012-06-10T10:36:15.000Z</time>
      </trkpt>
      <trkpt lat="44.70498" lon="6.6361">
        <ele>1435.39</ele>
        <time>2012-06-10T10:36:16.000Z</time>
      </trkpt>
      <trkpt lat="44.7048" lon="6.6362">
        <ele>1432.02</ele>
        <time>2012-06-10T10:36:19.000Z</time>
      </trkpt>
      <trkpt lat="44.70478" lon="6.63617">
        <ele>1431.54</ele>
        <time>2012-06-10T10:36:20.000Z</time>
      </trkpt>
      <trkpt lat="44.70475" lon="6.63612">
        <ele>1428.66</ele>
        <time>2012-06-10T10:36:23.000Z</time>
      </trkpt>
      <trkpt lat="44.70479" lon="6.63616">
        <ele>1426.25</ele>
        <time>2012-06-10T10:36:27.000Z</time>
      </trkpt>
      <trkpt lat="44.70478" lon="6.63613">
        <ele>1425.29</ele>
        <time>2012-06-10T10:36:29.000Z</time>
      </trkpt>
      <trkpt lat="44.7046" lon="6.63614">
        <ele>1423.85</ele>
        <time>2012-06-10T10:36:31.000Z</time>
      </trkpt>
      <trkpt lat="44.70452" lon="6.63617">
        <ele>1421.93</ele>
        <time>2012-06-10T10:36:33.000Z</time>
      </trkpt>
      <trkpt lat="44.70444" lon="6.63613">
        <ele>1420.49</ele>
        <time>2012-06-10T10:36:36.000Z</time>
      </trkpt>
      <trkpt lat="44.7044" lon="6.63615">
        <ele>1419.52</ele>
        <time>2012-06-10T10:36:38.000Z</time>
      </trkpt>
      <trkpt lat="44.70425" lon="6.63622">
        <ele>1416.16</ele>
        <time>2012-06-10T10:36:42.000Z</time>
      </trkpt>
      <trkpt lat="44.70415" lon="6.63626">
        <ele>1413.76</ele>
        <time>2012-06-10T10:36:44.000Z</time>
      </trkpt>
      <trkpt lat="44.70404" lon="6.6363">
        <ele>1409.43</ele>
        <time>2012-06-10T10:36:46.000Z</time>
      </trkpt>
      <trkpt lat="44.70363" lon="6.63613">
        <ele>1405.58</ele>
        <time>2012-06-10T10:36:50.000Z</time>
      </trkpt>
      <trkpt lat="44.70338" lon="6.63601">
        <ele>1401.26</ele>
        <time>2012-06-10T10:36:53.000Z</time>
      </trkpt>
      <trkpt lat="44.70325" lon="6.63594">
        <ele>1397.89</ele>
        <time>2012-06-10T10:36:55.000Z</time>
      </trkpt>
      <trkpt lat="44.70308" lon="6.63579">
        <ele>1393.57</ele>
        <time>2012-06-10T10:36:58.000Z</time>
      </trkpt>
      <trkpt lat="44.70297" lon="6.63562">
        <ele>1390.2</ele>
        <time>2012-06-10T10:37:00.000Z</time>
      </trkpt>
      <trkpt lat="44.7025" lon="6.63539">
        <ele>1386.84</ele>
        <time>2012-06-10T10:37:07.000Z</time>
      </trkpt>
      <trkpt lat="44.70238" lon="6.63543">
        <ele>1385.88</ele>
        <time>2012-06-10T10:37:09.000Z</time>
      </trkpt>
      <trkpt lat="44.70217" lon="6.63538">
        <ele>1382.51</ele>
        <time>2012-06-10T10:37:12.000Z</time>
      </trkpt>
      <trkpt lat="44.70211" lon="6.63534">
        <ele>1381.55</ele>
        <time>2012-06-10T10:37:13.000Z</time>
      </trkpt>
      <trkpt lat="44.70204" lon="6.63531">
        <ele>1378.67</ele>
        <time>2012-06-10T10:37:14.000Z</time>
      </trkpt>
      <trkpt lat="44.70197" lon="6.6353">
        <ele>1378.19</ele>
        <time>2012-06-10T10:37:15.000Z</time>
      </trkpt>
      <trkpt lat="44.70171" lon="6.63545">
        <ele>1374.34</ele>
        <time>2012-06-10T10:37:20.000Z</time>
      </trkpt>
      <trkpt lat="44.70153" lon="6.63556">
        <ele>1370.98</ele>
        <time>2012-06-10T10:37:23.000Z</time>
      </trkpt>
      <trkpt lat="44.70139" lon="6.63556">
        <ele>1368.57</ele>
        <time>2012-06-10T10:37:25.000Z</time>
      </trkpt>
      <trkpt lat="44.70127" lon="6.63552">
        <ele>1367.13</ele>
        <time>2012-06-10T10:37:27.000Z</time>
      </trkpt>
      <trkpt lat="44.70121" lon="6.63545">
        <ele>1362.81</ele>
        <time>2012-06-10T10:37:31.000Z</time>
      </trkpt>
      <trkpt lat="44.70138" lon="6.63537">
        <ele>1360.88</ele>
        <time>2012-06-10T10:37:34.000Z</time>
      </trkpt>
      <trkpt lat="44.7016" lon="6.63498">
        <ele>1356.08</ele>
        <time>2012-06-10T10:37:39.000Z</time>
      </trkpt>
      <trkpt lat="44.70166" lon="6.63448">
        <ele>1351.27</ele>
        <time>2012-06-10T10:37:44.000Z</time>
      </trkpt>
      <trkpt lat="44.70172" lon="6.6342">
        <ele>1346.94</ele>
        <time>2012-06-10T10:37:48.000Z</time>
      </trkpt>
      <trkpt lat="44.70173" lon="6.6342">
        <ele>1346.46</ele>
        <time>2012-06-10T10:37:49.000Z</time>
      </trkpt>
      <trkpt lat="44.70168" lon="6.63426">
        <ele>1345.5</ele>
        <time>2012-06-10T10:37:51.000Z</time>
      </trkpt>
      <trkpt lat="44.70149" lon="6.63444">
        <ele>1342.62</ele>
        <time>2012-06-10T10:37:58.000Z</time>
      </trkpt>
      <trkpt lat="44.70135" lon="6.63458">
        <ele>1340.22</ele>
        <time>2012-06-10T10:38:01.000Z</time>
      </trkpt>
      <trkpt lat="44.70116" lon="6.63472">
        <ele>1334.93</ele>
        <time>2012-06-10T10:38:07.000Z</time>
      </trkpt>
      <trkpt lat="44.7011" lon="6.6346">
        <ele>1332.52</ele>
        <time>2012-06-10T10:38:10.000Z</time>
      </trkpt>
      <trkpt lat="44.70108" lon="6.63453">
        <ele>1329.16</ele>
        <time>2012-06-10T10:38:11.000Z</time>
      </trkpt>
      <trkpt lat="44.70109" lon="6.63418">
        <ele>1325.31</ele>
        <time>2012-06-10T10:38:15.000Z</time>
      </trkpt>
      <trkpt lat="44.70111" lon="6.63412">
        <ele>1324.35</ele>
        <time>2012-06-10T10:38:16.000Z</time>
      </trkpt>
      <trkpt lat="44.70115" lon="6.63407">
        <ele>1323.39</ele>
        <time>2012-06-10T10:38:17.000Z</time>
      </trkpt>
      <trkpt lat="44.70117" lon="6.63403">
        <ele>1323.87</ele>
        <time>2012-06-10T10:38:18.000Z</time>
      </trkpt>
      <trkpt lat="44.70119" lon="6.63397">
        <ele>1323.39</ele>
        <time>2012-06-10T10:38:19.000Z</time>
      </trkpt>
      <trkpt lat="44.70118" lon="6.63392">
        <ele>1322.43</ele>
        <time>2012-06-10T10:38:20.000Z</time>
      </trkpt>
      <trkpt lat="44.70115" lon="6.63379">
        <ele>1318.59</ele>
        <time>2012-06-10T10:38:22.000Z</time>
      </trkpt>
      <trkpt lat="44.70113" lon="6.63364">
        <ele>1314.74</ele>
        <time>2012-06-10T10:38:24.000Z</time>
      </trkpt>
      <trkpt lat="44.70111" lon="6.63356">
        <ele>1313.78</ele>
        <time>2012-06-10T10:38:25.000Z</time>
      </trkpt>
      <trkpt lat="44.70107" lon="6.63341">
        <ele>1310.41</ele>
        <time>2012-06-10T10:38:27.000Z</time>
      </trkpt>
      <trkpt lat="44.70103" lon="6.63334">
        <ele>1308.49</ele>
        <time>2012-06-10T10:38:28.000Z</time>
      </trkpt>
      <trkpt lat="44.70092" lon="6.63347">
        <ele>1304.65</ele>
        <time>2012-06-10T10:38:34.000Z</time>
      </trkpt>
      <trkpt lat="44.70093" lon="6.63353">
        <ele>1303.69</ele>
        <time>2012-06-10T10:38:35.000Z</time>
      </trkpt>
      <trkpt lat="44.70093" lon="6.63358">
        <ele>1303.2</ele>
        <time>2012-06-10T10:38:36.000Z</time>
      </trkpt>
      <trkpt lat="44.70088" lon="6.63349">
        <ele>1298.88</ele>
        <time>2012-06-10T10:38:40.000Z</time>
      </trkpt>
      <trkpt lat="44.70085" lon="6.63344">
        <ele>1298.4</ele>
        <time>2012-06-10T10:38:42.000Z</time>
      </trkpt>
      <trkpt lat="44.70074" lon="6.63351">
        <ele>1295.99</ele>
        <time>2012-06-10T10:38:45.000Z</time>
      </trkpt>
      <trkpt lat="44.70069" lon="6.63353">
        <ele>1295.03</ele>
        <time>2012-06-10T10:38:46.000Z</time>
      </trkpt>
      <trkpt lat="44.70065" lon="6.63356">
        <ele>1294.07</ele>
        <time>2012-06-10T10:38:47.000Z</time>
      </trkpt>
      <trkpt lat="44.70055" lon="6.63361">
        <ele>1292.15</ele>
        <time>2012-06-10T10:38:49.000Z</time>
      </trkpt>
      <trkpt lat="44.70051" lon="6.63365">
        <ele>1290.71</ele>
        <time>2012-06-10T10:38:50.000Z</time>
      </trkpt>
      <trkpt lat="44.70047" lon="6.63368">
        <ele>1290.23</ele>
        <time>2012-06-10T10:38:51.000Z</time>
      </trkpt>
      <trkpt lat="44.70043" lon="6.6337">
        <ele>1289.27</ele>
        <time>2012-06-10T10:38:52.000Z</time>
      </trkpt>
      <trkpt lat="44.70038" lon="6.63373">
        <ele>1287.82</ele>
        <time>2012-06-10T10:38:53.000Z</time>
      </trkpt>
      <trkpt lat="44.70034" lon="6.63376">
        <ele>1288.3</ele>
        <time>2012-06-10T10:38:54.000Z</time>
      </trkpt>
      <trkpt lat="44.70027" lon="6.63386">
        <ele>1285.9</ele>
        <time>2012-06-10T10:38:56.000Z</time>
      </trkpt>
      <trkpt lat="44.70017" lon="6.63382">
        <ele>1283.98</ele>
        <time>2012-06-10T10:38:59.000Z</time>
      </trkpt>
      <trkpt lat="44.7001" lon="6.63363">
        <ele>1280.61</ele>
        <time>2012-06-10T10:39:02.000Z</time>
      </trkpt>
      <trkpt lat="44.70007" lon="6.63351">
        <ele>1279.65</ele>
        <time>2012-06-10T10:39:04.000Z</time>
      </trkpt>
      <trkpt lat="44.69994" lon="6.63337">
        <ele>1277.25</ele>
        <time>2012-06-10T10:39:07.000Z</time>
      </trkpt>
      <trkpt lat="44.69983" lon="6.63332">
        <ele>1274.85</ele>
        <time>2012-06-10T10:39:10.000Z</time>
      </trkpt>
      <trkpt lat="44.69973" lon="6.63356">
        <ele>1270.04</ele>
        <time>2012-06-10T10:39:16.000Z</time>
      </trkpt>
      <trkpt lat="44.69971" lon="6.6336">
        <ele>1269.56</ele>
        <time>2012-06-10T10:39:17.000Z</time>
      </trkpt>
      <trkpt lat="44.69962" lon="6.63354">
        <ele>1266.67</ele>
        <time>2012-06-10T10:39:22.000Z</time>
      </trkpt>
      <trkpt lat="44.69958" lon="6.6334">
        <ele>1264.75</ele>
        <time>2012-06-10T10:39:26.000Z</time>
      </trkpt>
      <trkpt lat="44.69954" lon="6.63335">
        <ele>1263.31</ele>
        <time>2012-06-10T10:39:28.000Z</time>
      </trkpt>
      <trkpt lat="44.69951" lon="6.63343">
        <ele>1262.35</ele>
        <time>2012-06-10T10:39:32.000Z</time>
      </trkpt>
      <trkpt lat="44.69948" lon="6.63358">
        <ele>1258.98</ele>
        <time>2012-06-10T10:39:35.000Z</time>
      </trkpt>
      <trkpt lat="44.69939" lon="6.63345">
        <ele>1255.62</ele>
        <time>2012-06-10T10:39:40.000Z</time>
      </trkpt>
      <trkpt lat="44.69933" lon="6.63341">
        <ele>1252.25</ele>
        <time>2012-06-10T10:39:42.000Z</time>
      </trkpt>
      <trkpt lat="44.69916" lon="6.63333">
        <ele>1249.37</ele>
        <time>2012-06-10T10:39:45.000Z</time>
      </trkpt>
      <trkpt lat="44.69888" lon="6.63329">
        <ele>1246.01</ele>
        <time>2012-06-10T10:39:49.000Z</time>
      </trkpt>
      <trkpt lat="44.69869" lon="6.63328">
        <ele>1242.64</ele>
        <time>2012-06-10T10:39:52.000Z</time>
      </trkpt>
      <trkpt lat="44.69862" lon="6.63325">
        <ele>1239.76</ele>
        <time>2012-06-10T10:39:55.000Z</time>
      </trkpt>
      <trkpt lat="44.69868" lon="6.63321">
        <ele>1238.32</ele>
        <time>2012-06-10T10:39:58.000Z</time>
      </trkpt>
      <trkpt lat="44.69881" lon="6.63303">
        <ele>1234.47</ele>
        <time>2012-06-10T10:40:01.000Z</time>
      </trkpt>
      <trkpt lat="44.69889" lon="6.63288">
        <ele>1231.11</ele>
        <time>2012-06-10T10:40:03.000Z</time>
      </trkpt>
      <trkpt lat="44.69894" lon="6.63281">
        <ele>1230.62</ele>
        <time>2012-06-10T10:40:04.000Z</time>
      </trkpt>
      <trkpt lat="44.69897" lon="6.63275">
        <ele>1228.7</ele>
        <time>2012-06-10T10:40:05.000Z</time>
      </trkpt>
      <trkpt lat="44.699" lon="6.6327">
        <ele>1228.7</ele>
        <time>2012-06-10T10:40:06.000Z</time>
      </trkpt>
      <trkpt lat="44.69892" lon="6.63267">
        <ele>1226.3</ele>
        <time>2012-06-10T10:40:09.000Z</time>
      </trkpt>
      <trkpt lat="44.69879" lon="6.63269">
        <ele>1223.9</ele>
        <time>2012-06-10T10:40:11.000Z</time>
      </trkpt>
      <trkpt lat="44.6986" lon="6.63271">
        <ele>1221.01</ele>
        <time>2012-06-10T10:40:14.000Z</time>
      </trkpt>
      <trkpt lat="44.69839" lon="6.63262">
        <ele>1216.69</ele>
        <time>2012-06-10T10:40:18.000Z</time>
      </trkpt>
      <trkpt lat="44.69838" lon="6.63261">
        <ele>1215.72</ele>
        <time>2012-06-10T10:40:20.000Z</time>
      </trkpt>
      <trkpt lat="44.69838" lon="6.6326">
        <ele>1215.24</ele>
        <time>2012-06-10T10:40:21.000Z</time>
      </trkpt>
      <trkpt lat="44.6985" lon="6.63248">
        <ele>1211.4</ele>
        <time>2012-06-10T10:40:27.000Z</time>
      </trkpt>
      <trkpt lat="44.69853" lon="6.63244">
        <ele>1211.4</ele>
        <time>2012-06-10T10:40:28.000Z</time>
      </trkpt>
      <trkpt lat="44.69855" lon="6.6324">
        <ele>1209.96</ele>
        <time>2012-06-10T10:40:29.000Z</time>
      </trkpt>
      <trkpt lat="44.69856" lon="6.6324">
        <ele>1209.48</ele>
        <time>2012-06-10T10:40:31.000Z</time>
      </trkpt>
      <trkpt lat="44.69853" lon="6.63241">
        <ele>1208.03</ele>
        <time>2012-06-10T10:40:33.000Z</time>
      </trkpt>
      <trkpt lat="44.69846" lon="6.6324">
        <ele>1205.63</ele>
        <time>2012-06-10T10:40:35.000Z</time>
      </trkpt>
      <trkpt lat="44.69841" lon="6.63236">
        <ele>1204.67</ele>
        <time>2012-06-10T10:40:36.000Z</time>
      </trkpt>
      <trkpt lat="44.69838" lon="6.6323">
        <ele>1204.67</ele>
        <time>2012-06-10T10:40:37.000Z</time>
      </trkpt>
      <trkpt lat="44.6983" lon="6.63217">
        <ele>1202.75</ele>
        <time>2012-06-10T10:40:39.000Z</time>
      </trkpt>
      <trkpt lat="44.69825" lon="6.63213">
        <ele>1200.82</ele>
        <time>2012-06-10T10:40:40.000Z</time>
      </trkpt>
      <trkpt lat="44.69811" lon="6.63201">
        <ele>1197.46</ele>
        <time>2012-06-10T10:40:44.000Z</time>
      </trkpt>
      <trkpt lat="44.69809" lon="6.63198">
        <ele>1197.46</ele>
        <time>2012-06-10T10:40:45.000Z</time>
      </trkpt>
      <trkpt lat="44.69802" lon="6.63193">
        <ele>1195.06</ele>
        <time>2012-06-10T10:40:48.000Z</time>
      </trkpt>
      <trkpt lat="44.698" lon="6.6319">
        <ele>1194.58</ele>
        <time>2012-06-10T10:40:49.000Z</time>
      </trkpt>
      <trkpt lat="44.69799" lon="6.63187">
        <ele>1193.13</ele>
        <time>2012-06-10T10:40:50.000Z</time>
      </trkpt>
      <trkpt lat="44.69798" lon="6.63172">
        <ele>1189.29</ele>
        <time>2012-06-10T10:40:55.000Z</time>
      </trkpt>
      <trkpt lat="44.69791" lon="6.63174">
        <ele>1188.81</ele>
        <time>2012-06-10T10:40:57.000Z</time>
      </trkpt>
      <trkpt lat="44.69774" lon="6.63162">
        <ele>1186.4</ele>
        <time>2012-06-10T10:41:03.000Z</time>
      </trkpt>
      <trkpt lat="44.69769" lon="6.63162">
        <ele>1185.44</ele>
        <time>2012-06-10T10:41:04.000Z</time>
      </trkpt>
      <trkpt lat="44.69765" lon="6.63161">
        <ele>1185.44</ele>
        <time>2012-06-10T10:41:05.000Z</time>
      </trkpt>
      <trkpt lat="44.69762" lon="6.63158">
        <ele>1184.48</ele>
        <time>2012-06-10T10:41:06.000Z</time>
      </trkpt>
      <trkpt lat="44.69759" lon="6.63154">
        <ele>1184</ele>
        <time>2012-06-10T10:41:07.000Z</time>
      </trkpt>
      <trkpt lat="44.69756" lon="6.63148">
        <ele>1182.56</ele>
        <time>2012-06-10T10:41:08.000Z</time>
      </trkpt>
      <trkpt lat="44.69747" lon="6.63131">
        <ele>1181.12</ele>
        <time>2012-06-10T10:41:10.000Z</time>
      </trkpt>
      <trkpt lat="44.69741" lon="6.63124">
        <ele>1179.67</ele>
        <time>2012-06-10T10:41:11.000Z</time>
      </trkpt>
      <trkpt lat="44.69735" lon="6.63121">
        <ele>1178.23</ele>
        <time>2012-06-10T10:41:12.000Z</time>
      </trkpt>
      <trkpt lat="44.69717" lon="6.63117">
        <ele>1175.83</ele>
        <time>2012-06-10T10:41:15.000Z</time>
      </trkpt>
      <trkpt lat="44.69713" lon="6.63115">
        <ele>1174.87</ele>
        <time>2012-06-10T10:41:16.000Z</time>
      </trkpt>
      <trkpt lat="44.69717" lon="6.63102">
        <ele>1171.5</ele>
        <time>2012-06-10T10:41:20.000Z</time>
      </trkpt>
      <trkpt lat="44.69724" lon="6.63092">
        <ele>1169.1</ele>
        <time>2012-06-10T10:41:23.000Z</time>
      </trkpt>
      <trkpt lat="44.69725" lon="6.63087">
        <ele>1168.14</ele>
        <time>2012-06-10T10:41:24.000Z</time>
      </trkpt>
      <trkpt lat="44.69726" lon="6.63077">
        <ele>1165.26</ele>
        <time>2012-06-10T10:41:28.000Z</time>
      </trkpt>
      <trkpt lat="44.69709" lon="6.63069">
        <ele>1160.93</ele>
        <time>2012-06-10T10:41:32.000Z</time>
      </trkpt>
      <trkpt lat="44.69705" lon="6.63059">
        <ele>1158.53</ele>
        <time>2012-06-10T10:41:35.000Z</time>
      </trkpt>
      <trkpt lat="44.6971" lon="6.63047">
        <ele>1156.6</ele>
        <time>2012-06-10T10:41:37.000Z</time>
      </trkpt>
      <trkpt lat="44.69712" lon="6.63043">
        <ele>1156.6</ele>
        <time>2012-06-10T10:41:38.000Z</time>
      </trkpt>
      <trkpt lat="44.69711" lon="6.63038">
        <ele>1154.68</ele>
        <time>2012-06-10T10:41:41.000Z</time>
      </trkpt>
      <trkpt lat="44.69708" lon="6.63038">
        <ele>1153.24</ele>
        <time>2012-06-10T10:41:42.000Z</time>
      </trkpt>
      <trkpt lat="44.69705" lon="6.63037">
        <ele>1152.76</ele>
        <time>2012-06-10T10:41:43.000Z</time>
      </trkpt>
      <trkpt lat="44.69702" lon="6.63034">
        <ele>1152.28</ele>
        <time>2012-06-10T10:41:44.000Z</time>
      </trkpt>
      <trkpt lat="44.69699" lon="6.63029">
        <ele>1151.32</ele>
        <time>2012-06-10T10:41:45.000Z</time>
      </trkpt>
      <trkpt lat="44.69693" lon="6.63018">
        <ele>1147.47</ele>
        <time>2012-06-10T10:41:47.000Z</time>
      </trkpt>
      <trkpt lat="44.69686" lon="6.63008">
        <ele>1143.63</ele>
        <time>2012-06-10T10:41:49.000Z</time>
      </trkpt>
      <trkpt lat="44.69683" lon="6.62991">
        <ele>1141.22</ele>
        <time>2012-06-10T10:41:51.000Z</time>
      </trkpt>
      <trkpt lat="44.69677" lon="6.62969">
        <ele>1138.82</ele>
        <time>2012-06-10T10:41:54.000Z</time>
      </trkpt>
      <trkpt lat="44.69656" lon="6.62961">
        <ele>1136.9</ele>
        <time>2012-06-10T10:41:59.000Z</time>
      </trkpt>
      <trkpt lat="44.69613" lon="6.62948">
        <ele>1136.42</ele>
        <time>2012-06-10T10:42:07.000Z</time>
      </trkpt>
      <trkpt lat="44.69609" lon="6.62946">
        <ele>1136.42</ele>
        <time>2012-06-10T10:42:08.000Z</time>
      </trkpt>
      <trkpt lat="44.69578" lon="6.62944">
        <ele>1138.34</ele>
        <time>2012-06-10T10:42:16.000Z</time>
      </trkpt>
      <trkpt lat="44.69524" lon="6.62944">
        <ele>1136.42</ele>
        <time>2012-06-10T10:42:26.000Z</time>
      </trkpt>
      <trkpt lat="44.69519" lon="6.62942">
        <ele>1136.42</ele>
        <time>2012-06-10T10:42:27.000Z</time>
      </trkpt>
      <trkpt lat="44.69496" lon="6.62931">
        <ele>1137.38</ele>
        <time>2012-06-10T10:42:32.000Z</time>
      </trkpt>
      <trkpt lat="44.69482" lon="6.62929">
        <ele>1136.9</ele>
        <time>2012-06-10T10:42:35.000Z</time>
      </trkpt>
      <trkpt lat="44.69476" lon="6.62929">
        <ele>1137.38</ele>
        <time>2012-06-10T10:42:36.000Z</time>
      </trkpt>
      <trkpt lat="44.69463" lon="6.62926">
        <ele>1137.86</ele>
        <time>2012-06-10T10:42:39.000Z</time>
      </trkpt>
      <trkpt lat="44.69443" lon="6.6291">
        <ele>1140.26</ele>
        <time>2012-06-10T10:42:48.000Z</time>
      </trkpt>
      <trkpt lat="44.69431" lon="6.62907">
        <ele>1143.14</ele>
        <time>2012-06-10T10:42:57.000Z</time>
      </trkpt>
      <trkpt lat="44.69416" lon="6.62911">
        <ele>1145.07</ele>
        <time>2012-06-10T10:43:11.000Z</time>
      </trkpt>
      <trkpt lat="44.69415" lon="6.62912">
        <ele>1145.55</ele>
        <time>2012-06-10T10:43:12.000Z</time>
      </trkpt>
      <trkpt lat="44.6941" lon="6.62911">
        <ele>1146.03</ele>
        <time>2012-06-10T10:43:15.000Z</time>
      </trkpt>
      <trkpt lat="44.69408" lon="6.6291">
        <ele>1146.99</ele>
        <time>2012-06-10T10:43:17.000Z</time>
      </trkpt>
      <trkpt lat="44.69407" lon="6.6291">
        <ele>1147.47</ele>
        <time>2012-06-10T10:43:18.000Z</time>
      </trkpt>
      <trkpt lat="44.69393" lon="6.62898">
        <ele>1149.39</ele>
        <time>2012-06-10T10:43:29.000Z</time>
      </trkpt>
      <trkpt lat="44.69386" lon="6.62892">
        <ele>1150.35</ele>
        <time>2012-06-10T10:43:33.000Z</time>
      </trkpt>
      <trkpt lat="44.69383" lon="6.6289">
        <ele>1150.35</ele>
        <time>2012-06-10T10:43:35.000Z</time>
      </trkpt>
      <trkpt lat="44.69382" lon="6.62889">
        <ele>1150.84</ele>
        <time>2012-06-10T10:43:36.000Z</time>
      </trkpt>
      <trkpt lat="44.69381" lon="6.62887">
        <ele>1150.35</ele>
        <time>2012-06-10T10:43:37.000Z</time>
      </trkpt>
      <trkpt lat="44.6938" lon="6.62886">
        <ele>1150.84</ele>
        <time>2012-06-10T10:43:38.000Z</time>
      </trkpt>
      <trkpt lat="44.69377" lon="6.62884">
        <ele>1151.32</ele>
        <time>2012-06-10T10:43:39.000Z</time>
      </trkpt>
      <trkpt lat="44.69375" lon="6.62882">
        <ele>1151.32</ele>
        <time>2012-06-10T10:43:40.000Z</time>
      </trkpt>
      <trkpt lat="44.69373" lon="6.6288">
        <ele>1151.32</ele>
        <time>2012-06-10T10:43:41.000Z</time>
      </trkpt>
      <trkpt lat="44.69372" lon="6.62878">
        <ele>1151.32</ele>
        <time>2012-06-10T10:43:42.000Z</time>
      </trkpt>
      <trkpt lat="44.6937" lon="6.62878">
        <ele>1151.32</ele>
        <time>2012-06-10T10:43:43.000Z</time>
      </trkpt>
      <trkpt lat="44.69367" lon="6.62879">
        <ele>1150.84</ele>
        <time>2012-06-10T10:43:44.000Z</time>
      </trkpt>
      <trkpt lat="44.69365" lon="6.6288">
        <ele>1151.32</ele>
        <time>2012-06-10T10:43:45.000Z</time>
      </trkpt>
      <trkpt lat="44.69362" lon="6.62881">
        <ele>1151.8</ele>
        <time>2012-06-10T10:43:46.000Z</time>
      </trkpt>
      <trkpt lat="44.69333" lon="6.62903">
        <ele>1154.2</ele>
        <time>2012-06-10T10:44:00.000Z</time>
      </trkpt>
      <trkpt lat="44.69308" lon="6.62916">
        <ele>1156.6</ele>
        <time>2012-06-10T10:44:13.000Z</time>
      </trkpt>
      <trkpt lat="44.69281" lon="6.62936">
        <ele>1159.01</ele>
        <time>2012-06-10T10:44:27.000Z</time>
      </trkpt>
      <trkpt lat="44.69258" lon="6.6296">
        <ele>1162.37</ele>
        <time>2012-06-10T10:44:41.000Z</time>
      </trkpt>
      <trkpt lat="44.69236" lon="6.62984">
        <ele>1164.29</ele>
        <time>2012-06-10T10:44:55.000Z</time>
      </trkpt>
      <trkpt lat="44.6922" lon="6.63001">
        <ele>1167.66</ele>
        <time>2012-06-10T10:45:06.000Z</time>
      </trkpt>
      <trkpt lat="44.69211" lon="6.63014">
        <ele>1168.62</ele>
        <time>2012-06-10T10:45:13.000Z</time>
      </trkpt>
      <trkpt lat="44.6921" lon="6.63016">
        <ele>1169.1</ele>
        <time>2012-06-10T10:45:14.000Z</time>
      </trkpt>
      <trkpt lat="44.69209" lon="6.63018">
        <ele>1169.58</ele>
        <time>2012-06-10T10:45:15.000Z</time>
      </trkpt>
      <trkpt lat="44.69208" lon="6.6302">
        <ele>1169.1</ele>
        <time>2012-06-10T10:45:16.000Z</time>
      </trkpt>
      <trkpt lat="44.69207" lon="6.63022">
        <ele>1169.1</ele>
        <time>2012-06-10T10:45:17.000Z</time>
      </trkpt>
      <trkpt lat="44.69206" lon="6.63024">
        <ele>1169.58</ele>
        <time>2012-06-10T10:45:18.000Z</time>
      </trkpt>
      <trkpt lat="44.69205" lon="6.63025">
        <ele>1169.58</ele>
        <time>2012-06-10T10:45:19.000Z</time>
      </trkpt>
      <trkpt lat="44.69204" lon="6.63027">
        <ele>1170.06</ele>
        <time>2012-06-10T10:45:20.000Z</time>
      </trkpt>
      <trkpt lat="44.69203" lon="6.63028">
        <ele>1169.58</ele>
        <time>2012-06-10T10:45:21.000Z</time>
      </trkpt>
      <trkpt lat="44.69201" lon="6.63028">
        <ele>1169.58</ele>
        <time>2012-06-10T10:45:22.000Z</time>
      </trkpt>
      <trkpt lat="44.692" lon="6.63029">
        <ele>1170.06</ele>
        <time>2012-06-10T10:45:23.000Z</time>
      </trkpt>
      <trkpt lat="44.69169" lon="6.63041">
        <ele>1167.66</ele>
        <time>2012-06-10T10:45:32.000Z</time>
      </trkpt>
      <trkpt lat="44.69164" lon="6.63043">
        <ele>1167.18</ele>
        <time>2012-06-10T10:45:33.000Z</time>
      </trkpt>
      <trkpt lat="44.6916" lon="6.63043">
        <ele>1167.18</ele>
        <time>2012-06-10T10:45:34.000Z</time>
      </trkpt>
      <trkpt lat="44.69154" lon="6.63044">
        <ele>1166.7</ele>
        <time>2012-06-10T10:45:35.000Z</time>
      </trkpt>
      <trkpt lat="44.6915" lon="6.63047">
        <ele>1166.22</ele>
        <time>2012-06-10T10:45:36.000Z</time>
      </trkpt>
      <trkpt lat="44.69146" lon="6.63052">
        <ele>1166.22</ele>
        <time>2012-06-10T10:45:37.000Z</time>
      </trkpt>
      <trkpt lat="44.69143" lon="6.63057">
        <ele>1166.22</ele>
        <time>2012-06-10T10:45:38.000Z</time>
      </trkpt>
      <trkpt lat="44.69141" lon="6.63063">
        <ele>1166.22</ele>
        <time>2012-06-10T10:45:39.000Z</time>
      </trkpt>
      <trkpt lat="44.6914" lon="6.63068">
        <ele>1165.74</ele>
        <time>2012-06-10T10:45:40.000Z</time>
      </trkpt>
      <trkpt lat="44.69139" lon="6.63074">
        <ele>1165.74</ele>
        <time>2012-06-10T10:45:41.000Z</time>
      </trkpt>
      <trkpt lat="44.69138" lon="6.63091">
        <ele>1165.74</ele>
        <time>2012-06-10T10:45:44.000Z</time>
      </trkpt>
      <trkpt lat="44.69136" lon="6.63116">
        <ele>1166.22</ele>
        <time>2012-06-10T10:45:48.000Z</time>
      </trkpt>
      <trkpt lat="44.69138" lon="6.63123">
        <ele>1165.74</ele>
        <time>2012-06-10T10:45:49.000Z</time>
      </trkpt>
      <trkpt lat="44.6914" lon="6.63129">
        <ele>1165.74</ele>
        <time>2012-06-10T10:45:50.000Z</time>
      </trkpt>
      <trkpt lat="44.6916" lon="6.63166">
        <ele>1163.33</ele>
        <time>2012-06-10T10:45:55.000Z</time>
      </trkpt>
      <trkpt lat="44.69164" lon="6.63175">
        <ele>1162.85</ele>
        <time>2012-06-10T10:45:56.000Z</time>
      </trkpt>
      <trkpt lat="44.69167" lon="6.63184">
        <ele>1162.85</ele>
        <time>2012-06-10T10:45:57.000Z</time>
      </trkpt>
      <trkpt lat="44.69181" lon="6.63247">
        <ele>1161.41</ele>
        <time>2012-06-10T10:46:04.000Z</time>
      </trkpt>
      <trkpt lat="44.69183" lon="6.63254">
        <ele>1161.89</ele>
        <time>2012-06-10T10:46:05.000Z</time>
      </trkpt>
      <trkpt lat="44.69192" lon="6.63284">
        <ele>1161.41</ele>
        <time>2012-06-10T10:46:09.000Z</time>
      </trkpt>
      <trkpt lat="44.69196" lon="6.63304">
        <ele>1162.37</ele>
        <time>2012-06-10T10:46:12.000Z</time>
      </trkpt>
      <trkpt lat="44.692" lon="6.63321">
        <ele>1162.85</ele>
        <time>2012-06-10T10:46:15.000Z</time>
      </trkpt>
      <trkpt lat="44.69201" lon="6.63334">
        <ele>1162.85</ele>
        <time>2012-06-10T10:46:17.000Z</time>
      </trkpt>
      <trkpt lat="44.69201" lon="6.6334">
        <ele>1163.33</ele>
        <time>2012-06-10T10:46:18.000Z</time>
      </trkpt>
      <trkpt lat="44.692" lon="6.63344">
        <ele>1163.33</ele>
        <time>2012-06-10T10:46:19.000Z</time>
      </trkpt>
      <trkpt lat="44.692" lon="6.6335">
        <ele>1163.33</ele>
        <time>2012-06-10T10:46:20.000Z</time>
      </trkpt>
      <trkpt lat="44.69199" lon="6.63355">
        <ele>1163.33</ele>
        <time>2012-06-10T10:46:21.000Z</time>
      </trkpt>
      <trkpt lat="44.69203" lon="6.63394">
        <ele>1162.85</ele>
        <time>2012-06-10T10:46:28.000Z</time>
      </trkpt>
      <trkpt lat="44.69201" lon="6.634">
        <ele>1162.85</ele>
        <time>2012-06-10T10:46:29.000Z</time>
      </trkpt>
      <trkpt lat="44.69198" lon="6.63405">
        <ele>1162.37</ele>
        <time>2012-06-10T10:46:30.000Z</time>
      </trkpt>
      <trkpt lat="44.6919" lon="6.6342">
        <ele>1162.85</ele>
        <time>2012-06-10T10:46:33.000Z</time>
      </trkpt>
      <trkpt lat="44.69188" lon="6.63426">
        <ele>1162.37</ele>
        <time>2012-06-10T10:46:34.000Z</time>
      </trkpt>
      <trkpt lat="44.69169" lon="6.6345">
        <ele>1161.89</ele>
        <time>2012-06-10T10:46:44.000Z</time>
      </trkpt>
      <trkpt lat="44.69162" lon="6.63438">
        <ele>1160.93</ele>
        <time>2012-06-10T10:46:48.000Z</time>
      </trkpt>
      <trkpt lat="44.69159" lon="6.63433">
        <ele>1159.97</ele>
        <time>2012-06-10T10:46:49.000Z</time>
      </trkpt>
      <trkpt lat="44.69146" lon="6.63399">
        <ele>1155.64</ele>
        <time>2012-06-10T10:46:54.000Z</time>
      </trkpt>
      <trkpt lat="44.69142" lon="6.63393">
        <ele>1155.64</ele>
        <time>2012-06-10T10:46:55.000Z</time>
      </trkpt>
      <trkpt lat="44.69133" lon="6.63383">
        <ele>1154.2</ele>
        <time>2012-06-10T10:46:57.000Z</time>
      </trkpt>
      <trkpt lat="44.69125" lon="6.63379">
        <ele>1153.72</ele>
        <time>2012-06-10T10:46:58.000Z</time>
      </trkpt>
      <trkpt lat="44.69119" lon="6.63375">
        <ele>1153.72</ele>
        <time>2012-06-10T10:46:59.000Z</time>
      </trkpt>
      <trkpt lat="44.69112" lon="6.63372">
        <ele>1153.72</ele>
        <time>2012-06-10T10:47:00.000Z</time>
      </trkpt>
      <trkpt lat="44.69105" lon="6.63369">
        <ele>1152.76</ele>
        <time>2012-06-10T10:47:01.000Z</time>
      </trkpt>
      <trkpt lat="44.69083" lon="6.63367">
        <ele>1150.35</ele>
        <time>2012-06-10T10:47:04.000Z</time>
      </trkpt>
      <trkpt lat="44.6906" lon="6.63369">
        <ele>1153.24</ele>
        <time>2012-06-10T10:47:09.000Z</time>
      </trkpt>
      <trkpt lat="44.69053" lon="6.63369">
        <ele>1154.68</ele>
        <time>2012-06-10T10:47:12.000Z</time>
      </trkpt>
      <trkpt lat="44.69053" lon="6.63369">
        <ele>1155.16</ele>
        <time>2012-06-10T10:47:15.000Z</time>
      </trkpt>
      <trkpt lat="44.69041" lon="6.63374">
        <ele>1158.05</ele>
        <time>2012-06-10T10:47:26.000Z</time>
      </trkpt>
      <trkpt lat="44.69039" lon="6.63374">
        <ele>1158.53</ele>
        <time>2012-06-10T10:47:29.000Z</time>
      </trkpt>
      <trkpt lat="44.69038" lon="6.63373">
        <ele>1158.05</ele>
        <time>2012-06-10T10:47:31.000Z</time>
      </trkpt>
      <trkpt lat="44.69032" lon="6.63368">
        <ele>1159.01</ele>
        <time>2012-06-10T10:47:36.000Z</time>
      </trkpt>
      <trkpt lat="44.69014" lon="6.63368">
        <ele>1159.97</ele>
        <time>2012-06-10T10:47:46.000Z</time>
      </trkpt>
      <trkpt lat="44.69005" lon="6.63368">
        <ele>1159.97</ele>
        <time>2012-06-10T10:47:48.000Z</time>
      </trkpt>
      <trkpt lat="44.68967" lon="6.63362">
        <ele>1162.37</ele>
        <time>2012-06-10T10:48:01.000Z</time>
      </trkpt>
      <trkpt lat="44.68941" lon="6.63347">
        <ele>1164.77</ele>
        <time>2012-06-10T10:48:13.000Z</time>
      </trkpt>
      <trkpt lat="44.68916" lon="6.63311">
        <ele>1165.74</ele>
        <time>2012-06-10T10:48:25.000Z</time>
      </trkpt>
      <trkpt lat="44.68913" lon="6.63309">
        <ele>1165.74</ele>
        <time>2012-06-10T10:48:27.000Z</time>
      </trkpt>
      <trkpt lat="44.68912" lon="6.63312">
        <ele>1166.22</ele>
        <time>2012-06-10T10:48:32.000Z</time>
      </trkpt>
      <trkpt lat="44.68919" lon="6.6333">
        <ele>1169.58</ele>
        <time>2012-06-10T10:48:44.000Z</time>
      </trkpt>
      <trkpt lat="44.68919" lon="6.63332">
        <ele>1169.58</ele>
        <time>2012-06-10T10:48:45.000Z</time>
      </trkpt>
      <trkpt lat="44.68926" lon="6.63356">
        <ele>1172.95</ele>
        <time>2012-06-10T10:48:55.000Z</time>
      </trkpt>
      <trkpt lat="44.68938" lon="6.63376">
        <ele>1174.39</ele>
        <time>2012-06-10T10:49:05.000Z</time>
      </trkpt>
      <trkpt lat="44.68949" lon="6.63384">
        <ele>1175.83</ele>
        <time>2012-06-10T10:49:12.000Z</time>
      </trkpt>
      <trkpt lat="44.68959" lon="6.63392">
        <ele>1171.98</ele>
        <time>2012-06-10T10:49:18.000Z</time>
      </trkpt>
      <trkpt lat="44.6896" lon="6.63394">
        <ele>1175.83</ele>
        <time>2012-06-10T10:49:19.000Z</time>
      </trkpt>
      <trkpt lat="44.68968" lon="6.63404">
        <ele>1176.79</ele>
        <time>2012-06-10T10:49:25.000Z</time>
      </trkpt>
      <trkpt lat="44.6898" lon="6.63425">
        <ele>1178.23</ele>
        <time>2012-06-10T10:49:35.000Z</time>
      </trkpt>
      <trkpt lat="44.68987" lon="6.63439">
        <ele>1180.64</ele>
        <time>2012-06-10T10:49:42.000Z</time>
      </trkpt>
      <trkpt lat="44.68988" lon="6.63441">
        <ele>1181.12</ele>
        <time>2012-06-10T10:49:43.000Z</time>
      </trkpt>
      <trkpt lat="44.68993" lon="6.6345">
        <ele>1181.6</ele>
        <time>2012-06-10T10:49:48.000Z</time>
      </trkpt>
      <trkpt lat="44.68996" lon="6.63459">
        <ele>1183.04</ele>
        <time>2012-06-10T10:49:52.000Z</time>
      </trkpt>
      <trkpt lat="44.69" lon="6.63481">
        <ele>1184.96</ele>
        <time>2012-06-10T10:50:01.000Z</time>
      </trkpt>
      <trkpt lat="44.69" lon="6.63492">
        <ele>1186.4</ele>
        <time>2012-06-10T10:50:06.000Z</time>
      </trkpt>
      <trkpt lat="44.68997" lon="6.63492">
        <ele>1187.37</ele>
        <time>2012-06-10T10:50:10.000Z</time>
      </trkpt>
      <trkpt lat="44.68994" lon="6.63488">
        <ele>1187.85</ele>
        <time>2012-06-10T10:50:14.000Z</time>
      </trkpt>
      <trkpt lat="44.68988" lon="6.63473">
        <ele>1190.73</ele>
        <time>2012-06-10T10:50:24.000Z</time>
      </trkpt>
      <trkpt lat="44.68986" lon="6.6347">
        <ele>1190.73</ele>
        <time>2012-06-10T10:50:26.000Z</time>
      </trkpt>
      <trkpt lat="44.68982" lon="6.63465">
        <ele>1192.17</ele>
        <time>2012-06-10T10:50:31.000Z</time>
      </trkpt>
      <trkpt lat="44.68977" lon="6.63459">
        <ele>1193.13</ele>
        <time>2012-06-10T10:50:35.000Z</time>
      </trkpt>
      <trkpt lat="44.6894" lon="6.63466">
        <ele>1193.61</ele>
        <time>2012-06-10T10:50:47.000Z</time>
      </trkpt>
      <trkpt lat="44.6889" lon="6.63501">
        <ele>1195.06</ele>
        <time>2012-06-10T10:51:02.000Z</time>
      </trkpt>
      <trkpt lat="44.68871" lon="6.63515">
        <ele>1194.58</ele>
        <time>2012-06-10T10:51:07.000Z</time>
      </trkpt>
      <trkpt lat="44.68866" lon="6.63518">
        <ele>1195.06</ele>
        <time>2012-06-10T10:51:08.000Z</time>
      </trkpt>
      <trkpt lat="44.6881" lon="6.63559">
        <ele>1196.5</ele>
        <time>2012-06-10T10:51:24.000Z</time>
      </trkpt>
      <trkpt lat="44.68792" lon="6.6357">
        <ele>1196.02</ele>
        <time>2012-06-10T10:51:29.000Z</time>
      </trkpt>
      <trkpt lat="44.68788" lon="6.63572">
        <ele>1196.5</ele>
        <time>2012-06-10T10:51:30.000Z</time>
      </trkpt>
      <trkpt lat="44.6878" lon="6.63578">
        <ele>1196.02</ele>
        <time>2012-06-10T10:51:32.000Z</time>
      </trkpt>
      <trkpt lat="44.68771" lon="6.63587">
        <ele>1194.58</ele>
        <time>2012-06-10T10:51:34.000Z</time>
      </trkpt>
      <trkpt lat="44.68768" lon="6.63594">
        <ele>1193.61</ele>
        <time>2012-06-10T10:51:35.000Z</time>
      </trkpt>
      <trkpt lat="44.68768" lon="6.63602">
        <ele>1193.13</ele>
        <time>2012-06-10T10:51:36.000Z</time>
      </trkpt>
      <trkpt lat="44.68769" lon="6.63611">
        <ele>1192.65</ele>
        <time>2012-06-10T10:51:37.000Z</time>
      </trkpt>
      <trkpt lat="44.6877" lon="6.63618">
        <ele>1192.65</ele>
        <time>2012-06-10T10:51:38.000Z</time>
      </trkpt>
      <trkpt lat="44.68772" lon="6.63625">
        <ele>1193.13</ele>
        <time>2012-06-10T10:51:39.000Z</time>
      </trkpt>
      <trkpt lat="44.68774" lon="6.63632">
        <ele>1193.13</ele>
        <time>2012-06-10T10:51:40.000Z</time>
      </trkpt>
      <trkpt lat="44.68777" lon="6.63638">
        <ele>1192.65</ele>
        <time>2012-06-10T10:51:41.000Z</time>
      </trkpt>
      <trkpt lat="44.68789" lon="6.63662">
        <ele>1194.58</ele>
        <time>2012-06-10T10:51:46.000Z</time>
      </trkpt>
      <trkpt lat="44.68791" lon="6.63667">
        <ele>1195.06</ele>
        <time>2012-06-10T10:51:47.000Z</time>
      </trkpt>
      <trkpt lat="44.68807" lon="6.63719">
        <ele>1196.5</ele>
        <time>2012-06-10T10:51:58.000Z</time>
      </trkpt>
      <trkpt lat="44.68807" lon="6.63723">
        <ele>1196.98</ele>
        <time>2012-06-10T10:51:59.000Z</time>
      </trkpt>
      <trkpt lat="44.68807" lon="6.63728">
        <ele>1196.98</ele>
        <time>2012-06-10T10:52:00.000Z</time>
      </trkpt>
      <trkpt lat="44.68806" lon="6.63732">
        <ele>1197.46</ele>
        <time>2012-06-10T10:52:01.000Z</time>
      </trkpt>
      <trkpt lat="44.68806" lon="6.63735">
        <ele>1197.46</ele>
        <time>2012-06-10T10:52:02.000Z</time>
      </trkpt>
      <trkpt lat="44.68805" lon="6.63739">
        <ele>1197.46</ele>
        <time>2012-06-10T10:52:03.000Z</time>
      </trkpt>
      <trkpt lat="44.68782" lon="6.63787">
        <ele>1199.86</ele>
        <time>2012-06-10T10:52:17.000Z</time>
      </trkpt>
      <trkpt lat="44.68774" lon="6.63826">
        <ele>1202.75</ele>
        <time>2012-06-10T10:52:29.000Z</time>
      </trkpt>
      <trkpt lat="44.6877" lon="6.6386">
        <ele>1199.38</ele>
        <time>2012-06-10T10:52:38.000Z</time>
      </trkpt>
      <trkpt lat="44.68769" lon="6.63863">
        <ele>1203.71</ele>
        <time>2012-06-10T10:52:39.000Z</time>
      </trkpt>
      <trkpt lat="44.68767" lon="6.63915">
        <ele>1205.63</ele>
        <time>2012-06-10T10:52:54.000Z</time>
      </trkpt>
      <trkpt lat="44.68769" lon="6.63936">
        <ele>1210.44</ele>
        <time>2012-06-10T10:53:01.000Z</time>
      </trkpt>
      <trkpt lat="44.68768" lon="6.63939">
        <ele>1203.71</ele>
        <time>2012-06-10T10:53:02.000Z</time>
      </trkpt>
      <trkpt lat="44.68767" lon="6.63942">
        <ele>1208.03</ele>
        <time>2012-06-10T10:53:03.000Z</time>
      </trkpt>
      <trkpt lat="44.68766" lon="6.63944">
        <ele>1206.59</ele>
        <time>2012-06-10T10:53:04.000Z</time>
      </trkpt>
      <trkpt lat="44.68764" lon="6.63946">
        <ele>1205.15</ele>
        <time>2012-06-10T10:53:05.000Z</time>
      </trkpt>
      <trkpt lat="44.68763" lon="6.63948">
        <ele>1208.51</ele>
        <time>2012-06-10T10:53:06.000Z</time>
      </trkpt>
      <trkpt lat="44.68762" lon="6.63949">
        <ele>1209</ele>
        <time>2012-06-10T10:53:07.000Z</time>
      </trkpt>
      <trkpt lat="44.68761" lon="6.63952">
        <ele>1208.03</ele>
        <time>2012-06-10T10:53:08.000Z</time>
      </trkpt>
      <trkpt lat="44.68761" lon="6.63955">
        <ele>1207.55</ele>
        <time>2012-06-10T10:53:09.000Z</time>
      </trkpt>
      <trkpt lat="44.6876" lon="6.63958">
        <ele>1208.03</ele>
        <time>2012-06-10T10:53:10.000Z</time>
      </trkpt>
      <trkpt lat="44.6876" lon="6.63961">
        <ele>1208.03</ele>
        <time>2012-06-10T10:53:11.000Z</time>
      </trkpt>
      <trkpt lat="44.6876" lon="6.63965">
        <ele>1208.03</ele>
        <time>2012-06-10T10:53:12.000Z</time>
      </trkpt>
      <trkpt lat="44.68761" lon="6.63969">
        <ele>1208.03</ele>
        <time>2012-06-10T10:53:13.000Z</time>
      </trkpt>
      <trkpt lat="44.68761" lon="6.63972">
        <ele>1208.51</ele>
        <time>2012-06-10T10:53:14.000Z</time>
      </trkpt>
      <trkpt lat="44.68765" lon="6.63998">
        <ele>1209</ele>
        <time>2012-06-10T10:53:21.000Z</time>
      </trkpt>
      <trkpt lat="44.68764" lon="6.64001">
        <ele>1209.48</ele>
        <time>2012-06-10T10:53:22.000Z</time>
      </trkpt>
      <trkpt lat="44.68763" lon="6.64003">
        <ele>1209.96</ele>
        <time>2012-06-10T10:53:23.000Z</time>
      </trkpt>
      <trkpt lat="44.68761" lon="6.64004">
        <ele>1209.96</ele>
        <time>2012-06-10T10:53:24.000Z</time>
      </trkpt>
      <trkpt lat="44.68759" lon="6.64004">
        <ele>1209.96</ele>
        <time>2012-06-10T10:53:25.000Z</time>
      </trkpt>
      <trkpt lat="44.68743" lon="6.63986">
        <ele>1210.44</ele>
        <time>2012-06-10T10:53:33.000Z</time>
      </trkpt>
      <trkpt lat="44.68733" lon="6.63967">
        <ele>1210.92</ele>
        <time>2012-06-10T10:53:39.000Z</time>
      </trkpt>
      <trkpt lat="44.68715" lon="6.63953">
        <ele>1210.44</ele>
        <time>2012-06-10T10:53:44.000Z</time>
      </trkpt>
      <trkpt lat="44.68711" lon="6.63954">
        <ele>1210.44</ele>
        <time>2012-06-10T10:53:45.000Z</time>
      </trkpt>
      <trkpt lat="44.68708" lon="6.63957">
        <ele>1210.44</ele>
        <time>2012-06-10T10:53:46.000Z</time>
      </trkpt>
      <trkpt lat="44.68704" lon="6.6396">
        <ele>1209.96</ele>
        <time>2012-06-10T10:53:47.000Z</time>
      </trkpt>
      <trkpt lat="44.687" lon="6.63963">
        <ele>1209.48</ele>
        <time>2012-06-10T10:53:48.000Z</time>
      </trkpt>
      <trkpt lat="44.68692" lon="6.63968">
        <ele>1210.44</ele>
        <time>2012-06-10T10:53:50.000Z</time>
      </trkpt>
      <trkpt lat="44.6867" lon="6.63997">
        <ele>1211.88</ele>
        <time>2012-06-10T10:53:59.000Z</time>
      </trkpt>
      <trkpt lat="44.68653" lon="6.64003">
        <ele>1212.36</ele>
        <time>2012-06-10T10:54:06.000Z</time>
      </trkpt>
      <trkpt lat="44.68662" lon="6.64009">
        <ele>1213.8</ele>
        <time>2012-06-10T10:54:15.000Z</time>
      </trkpt>
      <trkpt lat="44.68666" lon="6.64008">
        <ele>1213.8</ele>
        <time>2012-06-10T10:54:17.000Z</time>
      </trkpt>
      <trkpt lat="44.68698" lon="6.64">
        <ele>1215.72</ele>
        <time>2012-06-10T10:54:31.000Z</time>
      </trkpt>
      <trkpt lat="44.68726" lon="6.64003">
        <ele>1217.65</ele>
        <time>2012-06-10T10:54:45.000Z</time>
      </trkpt>
      <trkpt lat="44.68727" lon="6.64016">
        <ele>1219.57</ele>
        <time>2012-06-10T10:54:49.000Z</time>
      </trkpt>
      <trkpt lat="44.68722" lon="6.6403">
        <ele>1221.49</ele>
        <time>2012-06-10T10:54:58.000Z</time>
      </trkpt>
      <trkpt lat="44.68722" lon="6.64035">
        <ele>1222.93</ele>
        <time>2012-06-10T10:55:02.000Z</time>
      </trkpt>
      <trkpt lat="44.68715" lon="6.6405">
        <ele>1226.3</ele>
        <time>2012-06-10T10:55:12.000Z</time>
      </trkpt>
      <trkpt lat="44.68704" lon="6.6406">
        <ele>1227.74</ele>
        <time>2012-06-10T10:55:23.000Z</time>
      </trkpt>
      <trkpt lat="44.68702" lon="6.64064">
        <ele>1228.22</ele>
        <time>2012-06-10T10:55:26.000Z</time>
      </trkpt>
      <trkpt lat="44.68699" lon="6.64066">
        <ele>1229.66</ele>
        <time>2012-06-10T10:55:28.000Z</time>
      </trkpt>
      <trkpt lat="44.68691" lon="6.64067">
        <ele>1228.7</ele>
        <time>2012-06-10T10:55:31.000Z</time>
      </trkpt>
      <trkpt lat="44.68659" lon="6.64057">
        <ele>1228.7</ele>
        <time>2012-06-10T10:55:43.000Z</time>
      </trkpt>
      <trkpt lat="44.6863" lon="6.64047">
        <ele>1228.22</ele>
        <time>2012-06-10T10:55:50.000Z</time>
      </trkpt>
      <trkpt lat="44.68625" lon="6.64045">
        <ele>1228.22</ele>
        <time>2012-06-10T10:55:51.000Z</time>
      </trkpt>
      <trkpt lat="44.68621" lon="6.64042">
        <ele>1228.7</ele>
        <time>2012-06-10T10:55:52.000Z</time>
      </trkpt>
      <trkpt lat="44.68618" lon="6.64039">
        <ele>1228.22</ele>
        <time>2012-06-10T10:55:53.000Z</time>
      </trkpt>
      <trkpt lat="44.68615" lon="6.64037">
        <ele>1228.22</ele>
        <time>2012-06-10T10:55:54.000Z</time>
      </trkpt>
      <trkpt lat="44.6861" lon="6.64035">
        <ele>1227.74</ele>
        <time>2012-06-10T10:55:55.000Z</time>
      </trkpt>
      <trkpt lat="44.68601" lon="6.64029">
        <ele>1228.22</ele>
        <time>2012-06-10T10:55:57.000Z</time>
      </trkpt>
      <trkpt lat="44.68594" lon="6.64022">
        <ele>1228.22</ele>
        <time>2012-06-10T10:55:59.000Z</time>
      </trkpt>
      <trkpt lat="44.68591" lon="6.64017">
        <ele>1229.18</ele>
        <time>2012-06-10T10:56:00.000Z</time>
      </trkpt>
      <trkpt lat="44.68589" lon="6.64014">
        <ele>1228.7</ele>
        <time>2012-06-10T10:56:01.000Z</time>
      </trkpt>
      <trkpt lat="44.68586" lon="6.6401">
        <ele>1228.7</ele>
        <time>2012-06-10T10:56:02.000Z</time>
      </trkpt>
      <trkpt lat="44.68583" lon="6.64006">
        <ele>1228.7</ele>
        <time>2012-06-10T10:56:03.000Z</time>
      </trkpt>
      <trkpt lat="44.6858" lon="6.64002">
        <ele>1229.66</ele>
        <time>2012-06-10T10:56:04.000Z</time>
      </trkpt>
      <trkpt lat="44.68577" lon="6.63998">
        <ele>1229.66</ele>
        <time>2012-06-10T10:56:05.000Z</time>
      </trkpt>
      <trkpt lat="44.68575" lon="6.63995">
        <ele>1229.18</ele>
        <time>2012-06-10T10:56:06.000Z</time>
      </trkpt>
      <trkpt lat="44.68556" lon="6.63954">
        <ele>1228.22</ele>
        <time>2012-06-10T10:56:15.000Z</time>
      </trkpt>
      <trkpt lat="44.68553" lon="6.63952">
        <ele>1229.18</ele>
        <time>2012-06-10T10:56:16.000Z</time>
      </trkpt>
      <trkpt lat="44.6855" lon="6.63951">
        <ele>1229.18</ele>
        <time>2012-06-10T10:56:17.000Z</time>
      </trkpt>
      <trkpt lat="44.68548" lon="6.63949">
        <ele>1230.14</ele>
        <time>2012-06-10T10:56:18.000Z</time>
      </trkpt>
      <trkpt lat="44.68546" lon="6.63948">
        <ele>1230.14</ele>
        <time>2012-06-10T10:56:19.000Z</time>
      </trkpt>
      <trkpt lat="44.68544" lon="6.63947">
        <ele>1230.62</ele>
        <time>2012-06-10T10:56:20.000Z</time>
      </trkpt>
      <trkpt lat="44.68541" lon="6.63946">
        <ele>1230.14</ele>
        <time>2012-06-10T10:56:21.000Z</time>
      </trkpt>
      <trkpt lat="44.68538" lon="6.63945">
        <ele>1230.14</ele>
        <time>2012-06-10T10:56:22.000Z</time>
      </trkpt>
      <trkpt lat="44.68534" lon="6.63944">
        <ele>1230.62</ele>
        <time>2012-06-10T10:56:23.000Z</time>
      </trkpt>
      <trkpt lat="44.685" lon="6.63941">
        <ele>1232.07</ele>
        <time>2012-06-10T10:56:33.000Z</time>
      </trkpt>
      <trkpt lat="44.68499" lon="6.63943">
        <ele>1232.07</ele>
        <time>2012-06-10T10:56:34.000Z</time>
      </trkpt>
      <trkpt lat="44.68497" lon="6.63951">
        <ele>1234.47</ele>
        <time>2012-06-10T10:56:40.000Z</time>
      </trkpt>
      <trkpt lat="44.68512" lon="6.63954">
        <ele>1235.91</ele>
        <time>2012-06-10T10:56:52.000Z</time>
      </trkpt>
      <trkpt lat="44.68513" lon="6.63954">
        <ele>1235.43</ele>
        <time>2012-06-10T10:56:53.000Z</time>
      </trkpt>
      <trkpt lat="44.68516" lon="6.63956">
        <ele>1237.35</ele>
        <time>2012-06-10T10:56:56.000Z</time>
      </trkpt>
      <trkpt lat="44.68521" lon="6.63962">
        <ele>1238.32</ele>
        <time>2012-06-10T10:57:01.000Z</time>
      </trkpt>
      <trkpt lat="44.68521" lon="6.63967">
        <ele>1238.32</ele>
        <time>2012-06-10T10:57:04.000Z</time>
      </trkpt>
      <trkpt lat="44.68517" lon="6.63974">
        <ele>1239.28</ele>
        <time>2012-06-10T10:57:09.000Z</time>
      </trkpt>
      <trkpt lat="44.68496" lon="6.63987">
        <ele>1240.72</ele>
        <time>2012-06-10T10:57:21.000Z</time>
      </trkpt>
      <trkpt lat="44.68477" lon="6.6401">
        <ele>1243.12</ele>
        <time>2012-06-10T10:57:33.000Z</time>
      </trkpt>
      <trkpt lat="44.68461" lon="6.64043">
        <ele>1245.53</ele>
        <time>2012-06-10T10:57:46.000Z</time>
      </trkpt>
      <trkpt lat="44.68443" lon="6.64069">
        <ele>1247.93</ele>
        <time>2012-06-10T10:57:58.000Z</time>
      </trkpt>
      <trkpt lat="44.68438" lon="6.64088">
        <ele>1249.37</ele>
        <time>2012-06-10T10:58:07.000Z</time>
      </trkpt>
      <trkpt lat="44.68443" lon="6.64115">
        <ele>1251.77</ele>
        <time>2012-06-10T10:58:19.000Z</time>
      </trkpt>
      <trkpt lat="44.68427" lon="6.64152">
        <ele>1250.81</ele>
        <time>2012-06-10T10:58:29.000Z</time>
      </trkpt>
      <trkpt lat="44.68425" lon="6.6416">
        <ele>1250.81</ele>
        <time>2012-06-10T10:58:30.000Z</time>
      </trkpt>
      <trkpt lat="44.68422" lon="6.64175">
        <ele>1250.33</ele>
        <time>2012-06-10T10:58:32.000Z</time>
      </trkpt>
      <trkpt lat="44.68419" lon="6.64182">
        <ele>1250.33</ele>
        <time>2012-06-10T10:58:33.000Z</time>
      </trkpt>
      <trkpt lat="44.68415" lon="6.64187">
        <ele>1250.33</ele>
        <time>2012-06-10T10:58:34.000Z</time>
      </trkpt>
      <trkpt lat="44.68411" lon="6.64192">
        <ele>1249.85</ele>
        <time>2012-06-10T10:58:35.000Z</time>
      </trkpt>
      <trkpt lat="44.68406" lon="6.64196">
        <ele>1250.81</ele>
        <time>2012-06-10T10:58:36.000Z</time>
      </trkpt>
      <trkpt lat="44.68402" lon="6.642">
        <ele>1249.37</ele>
        <time>2012-06-10T10:58:37.000Z</time>
      </trkpt>
      <trkpt lat="44.68399" lon="6.64205">
        <ele>1250.33</ele>
        <time>2012-06-10T10:58:38.000Z</time>
      </trkpt>
      <trkpt lat="44.68388" lon="6.64219">
        <ele>1250.81</ele>
        <time>2012-06-10T10:58:41.000Z</time>
      </trkpt>
      <trkpt lat="44.68376" lon="6.64232">
        <ele>1249.85</ele>
        <time>2012-06-10T10:58:44.000Z</time>
      </trkpt>
      <trkpt lat="44.68372" lon="6.64237">
        <ele>1250.33</ele>
        <time>2012-06-10T10:58:45.000Z</time>
      </trkpt>
      <trkpt lat="44.68357" lon="6.64251">
        <ele>1248.89</ele>
        <time>2012-06-10T10:58:48.000Z</time>
      </trkpt>
      <trkpt lat="44.68352" lon="6.64255">
        <ele>1249.37</ele>
        <time>2012-06-10T10:58:49.000Z</time>
      </trkpt>
      <trkpt lat="44.68347" lon="6.64259">
        <ele>1249.37</ele>
        <time>2012-06-10T10:58:50.000Z</time>
      </trkpt>
      <trkpt lat="44.68318" lon="6.64277">
        <ele>1248.41</ele>
        <time>2012-06-10T10:58:55.000Z</time>
      </trkpt>
      <trkpt lat="44.68313" lon="6.64284">
        <ele>1246.97</ele>
        <time>2012-06-10T10:58:56.000Z</time>
      </trkpt>
      <trkpt lat="44.6831" lon="6.64292">
        <ele>1247.45</ele>
        <time>2012-06-10T10:58:57.000Z</time>
      </trkpt>
      <trkpt lat="44.68306" lon="6.643">
        <ele>1246.97</ele>
        <time>2012-06-10T10:58:58.000Z</time>
      </trkpt>
      <trkpt lat="44.68302" lon="6.64309">
        <ele>1246.01</ele>
        <time>2012-06-10T10:58:59.000Z</time>
      </trkpt>
      <trkpt lat="44.68293" lon="6.64328">
        <ele>1244.56</ele>
        <time>2012-06-10T10:59:01.000Z</time>
      </trkpt>
      <trkpt lat="44.68288" lon="6.64337">
        <ele>1244.08</ele>
        <time>2012-06-10T10:59:02.000Z</time>
      </trkpt>
      <trkpt lat="44.68283" lon="6.64345">
        <ele>1244.08</ele>
        <time>2012-06-10T10:59:03.000Z</time>
      </trkpt>
      <trkpt lat="44.68276" lon="6.64351">
        <ele>1242.16</ele>
        <time>2012-06-10T10:59:04.000Z</time>
      </trkpt>
      <trkpt lat="44.68269" lon="6.64356">
        <ele>1242.64</ele>
        <time>2012-06-10T10:59:05.000Z</time>
      </trkpt>
      <trkpt lat="44.68261" lon="6.6436">
        <ele>1242.64</ele>
        <time>2012-06-10T10:59:06.000Z</time>
      </trkpt>
      <trkpt lat="44.68254" lon="6.64363">
        <ele>1242.64</ele>
        <time>2012-06-10T10:59:07.000Z</time>
      </trkpt>
      <trkpt lat="44.68248" lon="6.64367">
        <ele>1242.16</ele>
        <time>2012-06-10T10:59:08.000Z</time>
      </trkpt>
      <trkpt lat="44.68245" lon="6.64373">
        <ele>1243.12</ele>
        <time>2012-06-10T10:59:09.000Z</time>
      </trkpt>
      <trkpt lat="44.68244" lon="6.64381">
        <ele>1243.6</ele>
        <time>2012-06-10T10:59:10.000Z</time>
      </trkpt>
      <trkpt lat="44.68245" lon="6.6439">
        <ele>1242.16</ele>
        <time>2012-06-10T10:59:11.000Z</time>
      </trkpt>
      <trkpt lat="44.68247" lon="6.64398">
        <ele>1241.68</ele>
        <time>2012-06-10T10:59:12.000Z</time>
      </trkpt>
      <trkpt lat="44.6825" lon="6.64407">
        <ele>1242.64</ele>
        <time>2012-06-10T10:59:13.000Z</time>
      </trkpt>
      <trkpt lat="44.68251" lon="6.64415">
        <ele>1241.68</ele>
        <time>2012-06-10T10:59:14.000Z</time>
      </trkpt>
      <trkpt lat="44.68251" lon="6.64421">
        <ele>1240.72</ele>
        <time>2012-06-10T10:59:15.000Z</time>
      </trkpt>
      <trkpt lat="44.6825" lon="6.64424">
        <ele>1240.72</ele>
        <time>2012-06-10T10:59:16.000Z</time>
      </trkpt>
      <trkpt lat="44.68248" lon="6.64426">
        <ele>1239.76</ele>
        <time>2012-06-10T10:59:17.000Z</time>
      </trkpt>
      <trkpt lat="44.68247" lon="6.64427">
        <ele>1239.76</ele>
        <time>2012-06-10T10:59:18.000Z</time>
      </trkpt>
      <trkpt lat="44.68246" lon="6.64428">
        <ele>1239.76</ele>
        <time>2012-06-10T10:59:19.000Z</time>
      </trkpt>
      <trkpt lat="44.68245" lon="6.64436">
        <ele>1237.83</ele>
        <time>2012-06-10T10:59:22.000Z</time>
      </trkpt>
      <trkpt lat="44.68244" lon="6.64442">
        <ele>1236.39</ele>
        <time>2012-06-10T10:59:23.000Z</time>
      </trkpt>
      <trkpt lat="44.68243" lon="6.64449">
        <ele>1235.91</ele>
        <time>2012-06-10T10:59:24.000Z</time>
      </trkpt>
      <trkpt lat="44.68244" lon="6.64455">
        <ele>1233.99</ele>
        <time>2012-06-10T10:59:25.000Z</time>
      </trkpt>
      <trkpt lat="44.68245" lon="6.64461">
        <ele>1233.03</ele>
        <time>2012-06-10T10:59:26.000Z</time>
      </trkpt>
      <trkpt lat="44.68246" lon="6.64465">
        <ele>1231.59</ele>
        <time>2012-06-10T10:59:27.000Z</time>
      </trkpt>
      <trkpt lat="44.68248" lon="6.64468">
        <ele>1230.62</ele>
        <time>2012-06-10T10:59:28.000Z</time>
      </trkpt>
      <trkpt lat="44.6825" lon="6.64471">
        <ele>1230.62</ele>
        <time>2012-06-10T10:59:29.000Z</time>
      </trkpt>
      <trkpt lat="44.68251" lon="6.64475">
        <ele>1228.7</ele>
        <time>2012-06-10T10:59:30.000Z</time>
      </trkpt>
      <trkpt lat="44.68253" lon="6.64478">
        <ele>1228.7</ele>
        <time>2012-06-10T10:59:31.000Z</time>
      </trkpt>
      <trkpt lat="44.68256" lon="6.64482">
        <ele>1227.74</ele>
        <time>2012-06-10T10:59:32.000Z</time>
      </trkpt>
      <trkpt lat="44.68259" lon="6.64485">
        <ele>1227.74</ele>
        <time>2012-06-10T10:59:33.000Z</time>
      </trkpt>
      <trkpt lat="44.68261" lon="6.64488">
        <ele>1227.74</ele>
        <time>2012-06-10T10:59:34.000Z</time>
      </trkpt>
      <trkpt lat="44.68279" lon="6.6452">
        <ele>1230.14</ele>
        <time>2012-06-10T10:59:45.000Z</time>
      </trkpt>
      <trkpt lat="44.68291" lon="6.64559">
        <ele>1233.51</ele>
        <time>2012-06-10T10:59:59.000Z</time>
      </trkpt>
      <trkpt lat="44.68302" lon="6.64595">
        <ele>1237.35</ele>
        <time>2012-06-10T11:00:13.000Z</time>
      </trkpt>
      <trkpt lat="44.68311" lon="6.64628">
        <ele>1238.8</ele>
        <time>2012-06-10T11:00:26.000Z</time>
      </trkpt>
      <trkpt lat="44.68319" lon="6.6465">
        <ele>1241.2</ele>
        <time>2012-06-10T11:00:36.000Z</time>
      </trkpt>
      <trkpt lat="44.6832" lon="6.64653">
        <ele>1240.72</ele>
        <time>2012-06-10T11:00:37.000Z</time>
      </trkpt>
      <trkpt lat="44.6832" lon="6.64655">
        <ele>1241.68</ele>
        <time>2012-06-10T11:00:38.000Z</time>
      </trkpt>
      <trkpt lat="44.68335" lon="6.64683">
        <ele>1243.12</ele>
        <time>2012-06-10T11:00:50.000Z</time>
      </trkpt>
      <trkpt lat="44.68342" lon="6.64712">
        <ele>1245.04</ele>
        <time>2012-06-10T11:01:00.000Z</time>
      </trkpt>
      <trkpt lat="44.68341" lon="6.64714">
        <ele>1245.53</ele>
        <time>2012-06-10T11:01:01.000Z</time>
      </trkpt>
      <trkpt lat="44.68341" lon="6.64717">
        <ele>1246.01</ele>
        <time>2012-06-10T11:01:02.000Z</time>
      </trkpt>
      <trkpt lat="44.68342" lon="6.6472">
        <ele>1246.01</ele>
        <time>2012-06-10T11:01:03.000Z</time>
      </trkpt>
      <trkpt lat="44.68343" lon="6.64723">
        <ele>1245.53</ele>
        <time>2012-06-10T11:01:04.000Z</time>
      </trkpt>
      <trkpt lat="44.68347" lon="6.64742">
        <ele>1247.45</ele>
        <time>2012-06-10T11:01:11.000Z</time>
      </trkpt>
      <trkpt lat="44.68347" lon="6.64745">
        <ele>1246.97</ele>
        <time>2012-06-10T11:01:12.000Z</time>
      </trkpt>
      <trkpt lat="44.68346" lon="6.64747">
        <ele>1247.45</ele>
        <time>2012-06-10T11:01:13.000Z</time>
      </trkpt>
      <trkpt lat="44.68346" lon="6.6475">
        <ele>1246.97</ele>
        <time>2012-06-10T11:01:14.000Z</time>
      </trkpt>
      <trkpt lat="44.68347" lon="6.64753">
        <ele>1246.97</ele>
        <time>2012-06-10T11:01:15.000Z</time>
      </trkpt>
      <trkpt lat="44.68347" lon="6.64756">
        <ele>1247.93</ele>
        <time>2012-06-10T11:01:16.000Z</time>
      </trkpt>
      <trkpt lat="44.68347" lon="6.64759">
        <ele>1247.45</ele>
        <time>2012-06-10T11:01:17.000Z</time>
      </trkpt>
      <trkpt lat="44.68341" lon="6.64792">
        <ele>1250.33</ele>
        <time>2012-06-10T11:01:29.000Z</time>
      </trkpt>
      <trkpt lat="44.68324" lon="6.64825">
        <ele>1251.29</ele>
        <time>2012-06-10T11:01:43.000Z</time>
      </trkpt>
      <trkpt lat="44.68324" lon="6.64838">
        <ele>1253.22</ele>
        <time>2012-06-10T11:01:48.000Z</time>
      </trkpt>
      <trkpt lat="44.68325" lon="6.64841">
        <ele>1253.22</ele>
        <time>2012-06-10T11:01:49.000Z</time>
      </trkpt>
      <trkpt lat="44.68327" lon="6.64842">
        <ele>1252.74</ele>
        <time>2012-06-10T11:01:50.000Z</time>
      </trkpt>
      <trkpt lat="44.68328" lon="6.64844">
        <ele>1253.22</ele>
        <time>2012-06-10T11:01:51.000Z</time>
      </trkpt>
      <trkpt lat="44.6833" lon="6.64846">
        <ele>1253.22</ele>
        <time>2012-06-10T11:01:52.000Z</time>
      </trkpt>
      <trkpt lat="44.68337" lon="6.64859">
        <ele>1254.18</ele>
        <time>2012-06-10T11:01:57.000Z</time>
      </trkpt>
      <trkpt lat="44.68337" lon="6.64862">
        <ele>1254.18</ele>
        <time>2012-06-10T11:01:58.000Z</time>
      </trkpt>
      <trkpt lat="44.68336" lon="6.64865">
        <ele>1256.1</ele>
        <time>2012-06-10T11:01:59.000Z</time>
      </trkpt>
      <trkpt lat="44.68334" lon="6.64868">
        <ele>1254.66</ele>
        <time>2012-06-10T11:02:00.000Z</time>
      </trkpt>
      <trkpt lat="44.68333" lon="6.6487">
        <ele>1255.14</ele>
        <time>2012-06-10T11:02:01.000Z</time>
      </trkpt>
      <trkpt lat="44.68331" lon="6.64872">
        <ele>1254.66</ele>
        <time>2012-06-10T11:02:02.000Z</time>
      </trkpt>
      <trkpt lat="44.6833" lon="6.64874">
        <ele>1254.66</ele>
        <time>2012-06-10T11:02:03.000Z</time>
      </trkpt>
      <trkpt lat="44.68328" lon="6.64876">
        <ele>1255.14</ele>
        <time>2012-06-10T11:02:04.000Z</time>
      </trkpt>
      <trkpt lat="44.68308" lon="6.64913">
        <ele>1257.06</ele>
        <time>2012-06-10T11:02:19.000Z</time>
      </trkpt>
      <trkpt lat="44.68293" lon="6.64941">
        <ele>1259.94</ele>
        <time>2012-06-10T11:02:30.000Z</time>
      </trkpt>
      <trkpt lat="44.68269" lon="6.64969">
        <ele>1262.35</ele>
        <time>2012-06-10T11:02:45.000Z</time>
      </trkpt>
      <trkpt lat="44.68251" lon="6.64992">
        <ele>1264.27</ele>
        <time>2012-06-10T11:02:57.000Z</time>
      </trkpt>
      <trkpt lat="44.68251" lon="6.64994">
        <ele>1264.27</ele>
        <time>2012-06-10T11:02:58.000Z</time>
      </trkpt>
      <trkpt lat="44.68253" lon="6.64996">
        <ele>1265.23</ele>
        <time>2012-06-10T11:03:09.000Z</time>
      </trkpt>
      <trkpt lat="44.68255" lon="6.64997">
        <ele>1265.23</ele>
        <time>2012-06-10T11:03:22.000Z</time>
      </trkpt>
      <trkpt lat="44.68258" lon="6.64993">
        <ele>1266.67</ele>
        <time>2012-06-10T11:07:45.000Z</time>
      </trkpt>
      <trkpt lat="44.68263" lon="6.64989">
        <ele>1266.67</ele>
        <time>2012-06-10T11:07:53.000Z</time>
      </trkpt>
      <trkpt lat="44.68265" lon="6.64988">
        <ele>1267.16</ele>
        <time>2012-06-10T11:07:54.000Z</time>
      </trkpt>
      <trkpt lat="44.68267" lon="6.64987">
        <ele>1267.16</ele>
        <time>2012-06-10T11:07:55.000Z</time>
      </trkpt>
      <trkpt lat="44.68269" lon="6.64986">
        <ele>1268.12</ele>
        <time>2012-06-10T11:07:56.000Z</time>
      </trkpt>
      <trkpt lat="44.68271" lon="6.64985">
        <ele>1268.12</ele>
        <time>2012-06-10T11:07:57.000Z</time>
      </trkpt>
      <trkpt lat="44.68273" lon="6.64984">
        <ele>1267.64</ele>
        <time>2012-06-10T11:07:58.000Z</time>
      </trkpt>
      <trkpt lat="44.68297" lon="6.64965">
        <ele>1271</ele>
        <time>2012-06-10T11:08:11.000Z</time>
      </trkpt>
      <trkpt lat="44.68298" lon="6.64964">
        <ele>1270.52</ele>
        <time>2012-06-10T11:08:12.000Z</time>
      </trkpt>
      <trkpt lat="44.68299" lon="6.64962">
        <ele>1270.52</ele>
        <time>2012-06-10T11:08:13.000Z</time>
      </trkpt>
      <trkpt lat="44.68299" lon="6.64961">
        <ele>1270.52</ele>
        <time>2012-06-10T11:08:14.000Z</time>
      </trkpt>
      <trkpt lat="44.68302" lon="6.64957">
        <ele>1271</ele>
        <time>2012-06-10T11:08:17.000Z</time>
      </trkpt>
      <trkpt lat="44.68304" lon="6.64956">
        <ele>1271.48</ele>
        <time>2012-06-10T11:08:18.000Z</time>
      </trkpt>
      <trkpt lat="44.68306" lon="6.64954">
        <ele>1272.44</ele>
        <time>2012-06-10T11:08:19.000Z</time>
      </trkpt>
      <trkpt lat="44.68307" lon="6.64953">
        <ele>1271.96</ele>
        <time>2012-06-10T11:08:20.000Z</time>
      </trkpt>
      <trkpt lat="44.68309" lon="6.64951">
        <ele>1271.48</ele>
        <time>2012-06-10T11:08:21.000Z</time>
      </trkpt>
      <trkpt lat="44.6833" lon="6.64938">
        <ele>1275.33</ele>
        <time>2012-06-10T11:08:32.000Z</time>
      </trkpt>
      <trkpt lat="44.68351" lon="6.64926">
        <ele>1277.25</ele>
        <time>2012-06-10T11:08:43.000Z</time>
      </trkpt>
      <trkpt lat="44.68363" lon="6.64915">
        <ele>1277.73</ele>
        <time>2012-06-10T11:08:51.000Z</time>
      </trkpt>
      <trkpt lat="44.68365" lon="6.64913">
        <ele>1277.73</ele>
        <time>2012-06-10T11:08:52.000Z</time>
      </trkpt>
      <trkpt lat="44.68366" lon="6.64911">
        <ele>1279.65</ele>
        <time>2012-06-10T11:08:53.000Z</time>
      </trkpt>
      <trkpt lat="44.68367" lon="6.6491">
        <ele>1279.65</ele>
        <time>2012-06-10T11:08:54.000Z</time>
      </trkpt>
      <trkpt lat="44.68368" lon="6.64908">
        <ele>1279.17</ele>
        <time>2012-06-10T11:08:55.000Z</time>
      </trkpt>
      <trkpt lat="44.68369" lon="6.64906">
        <ele>1279.17</ele>
        <time>2012-06-10T11:08:56.000Z</time>
      </trkpt>
      <trkpt lat="44.6837" lon="6.64904">
        <ele>1279.17</ele>
        <time>2012-06-10T11:08:57.000Z</time>
      </trkpt>
      <trkpt lat="44.68372" lon="6.64902">
        <ele>1280.13</ele>
        <time>2012-06-10T11:08:58.000Z</time>
      </trkpt>
      <trkpt lat="44.68373" lon="6.64901">
        <ele>1280.13</ele>
        <time>2012-06-10T11:08:59.000Z</time>
      </trkpt>
      <trkpt lat="44.68394" lon="6.6491">
        <ele>1282.54</ele>
        <time>2012-06-10T11:09:13.000Z</time>
      </trkpt>
      <trkpt lat="44.68397" lon="6.64911">
        <ele>1283.5</ele>
        <time>2012-06-10T11:09:15.000Z</time>
      </trkpt>
      <trkpt lat="44.68409" lon="6.64912">
        <ele>1284.94</ele>
        <time>2012-06-10T11:09:22.000Z</time>
      </trkpt>
      <trkpt lat="44.68411" lon="6.6491">
        <ele>1284.94</ele>
        <time>2012-06-10T11:09:23.000Z</time>
      </trkpt>
      <trkpt lat="44.68415" lon="6.649">
        <ele>1284.94</ele>
        <time>2012-06-10T11:09:27.000Z</time>
      </trkpt>
      <trkpt lat="44.68415" lon="6.64898">
        <ele>1284.94</ele>
        <time>2012-06-10T11:09:28.000Z</time>
      </trkpt>
      <trkpt lat="44.68408" lon="6.64885">
        <ele>1285.42</ele>
        <time>2012-06-10T11:09:33.000Z</time>
      </trkpt>
      <trkpt lat="44.68402" lon="6.64837">
        <ele>1287.34</ele>
        <time>2012-06-10T11:09:46.000Z</time>
      </trkpt>
      <trkpt lat="44.68403" lon="6.64832">
        <ele>1287.34</ele>
        <time>2012-06-10T11:09:48.000Z</time>
      </trkpt>
      <trkpt lat="44.68402" lon="6.64829">
        <ele>1287.34</ele>
        <time>2012-06-10T11:09:49.000Z</time>
      </trkpt>
      <trkpt lat="44.68401" lon="6.64826">
        <ele>1287.82</ele>
        <time>2012-06-10T11:09:50.000Z</time>
      </trkpt>
      <trkpt lat="44.684" lon="6.64823">
        <ele>1287.82</ele>
        <time>2012-06-10T11:09:51.000Z</time>
      </trkpt>
      <trkpt lat="44.68399" lon="6.6482">
        <ele>1288.3</ele>
        <time>2012-06-10T11:09:52.000Z</time>
      </trkpt>
      <trkpt lat="44.68399" lon="6.64775">
        <ele>1290.71</ele>
        <time>2012-06-10T11:10:06.000Z</time>
      </trkpt>
      <trkpt lat="44.68403" lon="6.64739">
        <ele>1293.11</ele>
        <time>2012-06-10T11:10:19.000Z</time>
      </trkpt>
      <trkpt lat="44.68409" lon="6.64708">
        <ele>1295.51</ele>
        <time>2012-06-10T11:10:30.000Z</time>
      </trkpt>
      <trkpt lat="44.68416" lon="6.64694">
        <ele>1295.99</ele>
        <time>2012-06-10T11:10:35.000Z</time>
      </trkpt>
      <trkpt lat="44.68417" lon="6.6469">
        <ele>1295.99</ele>
        <time>2012-06-10T11:10:36.000Z</time>
      </trkpt>
      <trkpt lat="44.68417" lon="6.64686">
        <ele>1296.48</ele>
        <time>2012-06-10T11:10:37.000Z</time>
      </trkpt>
      <trkpt lat="44.68418" lon="6.64682">
        <ele>1296.48</ele>
        <time>2012-06-10T11:10:38.000Z</time>
      </trkpt>
      <trkpt lat="44.68417" lon="6.64678">
        <ele>1296.48</ele>
        <time>2012-06-10T11:10:39.000Z</time>
      </trkpt>
      <trkpt lat="44.68414" lon="6.64643">
        <ele>1298.4</ele>
        <time>2012-06-10T11:10:50.000Z</time>
      </trkpt>
      <trkpt lat="44.68409" lon="6.64608">
        <ele>1300.32</ele>
        <time>2012-06-10T11:11:02.000Z</time>
      </trkpt>
      <trkpt lat="44.68415" lon="6.64583">
        <ele>1303.2</ele>
        <time>2012-06-10T11:11:13.000Z</time>
      </trkpt>
      <trkpt lat="44.68432" lon="6.64555">
        <ele>1305.13</ele>
        <time>2012-06-10T11:11:26.000Z</time>
      </trkpt>
      <trkpt lat="44.68433" lon="6.64553">
        <ele>1305.13</ele>
        <time>2012-06-10T11:11:27.000Z</time>
      </trkpt>
      <trkpt lat="44.68434" lon="6.64551">
        <ele>1305.61</ele>
        <time>2012-06-10T11:11:28.000Z</time>
      </trkpt>
      <trkpt lat="44.68436" lon="6.64548">
        <ele>1305.61</ele>
        <time>2012-06-10T11:11:29.000Z</time>
      </trkpt>
      <trkpt lat="44.68457" lon="6.64519">
        <ele>1307.53</ele>
        <time>2012-06-10T11:11:43.000Z</time>
      </trkpt>
      <trkpt lat="44.68483" lon="6.64496">
        <ele>1309.93</ele>
        <time>2012-06-10T11:11:57.000Z</time>
      </trkpt>
      <trkpt lat="44.68514" lon="6.64481">
        <ele>1312.34</ele>
        <time>2012-06-10T11:12:12.000Z</time>
      </trkpt>
      <trkpt lat="44.68548" lon="6.64469">
        <ele>1314.74</ele>
        <time>2012-06-10T11:12:28.000Z</time>
      </trkpt>
      <trkpt lat="44.6858" lon="6.64453">
        <ele>1317.62</ele>
        <time>2012-06-10T11:12:44.000Z</time>
      </trkpt>
      <trkpt lat="44.68592" lon="6.64452">
        <ele>1317.62</ele>
        <time>2012-06-10T11:12:50.000Z</time>
      </trkpt>
      <trkpt lat="44.68597" lon="6.64453">
        <ele>1319.55</ele>
        <time>2012-06-10T11:12:52.000Z</time>
      </trkpt>
      <trkpt lat="44.68599" lon="6.64453">
        <ele>1318.59</ele>
        <time>2012-06-10T11:12:53.000Z</time>
      </trkpt>
      <trkpt lat="44.68601" lon="6.64453">
        <ele>1317.62</ele>
        <time>2012-06-10T11:12:54.000Z</time>
      </trkpt>
      <trkpt lat="44.68604" lon="6.64453">
        <ele>1318.1</ele>
        <time>2012-06-10T11:12:55.000Z</time>
      </trkpt>
      <trkpt lat="44.68606" lon="6.64454">
        <ele>1318.1</ele>
        <time>2012-06-10T11:12:56.000Z</time>
      </trkpt>
      <trkpt lat="44.68608" lon="6.64454">
        <ele>1318.1</ele>
        <time>2012-06-10T11:12:57.000Z</time>
      </trkpt>
      <trkpt lat="44.6861" lon="6.64454">
        <ele>1319.07</ele>
        <time>2012-06-10T11:12:58.000Z</time>
      </trkpt>
      <trkpt lat="44.68611" lon="6.64453">
        <ele>1319.07</ele>
        <time>2012-06-10T11:12:59.000Z</time>
      </trkpt>
      <trkpt lat="44.68636" lon="6.64444">
        <ele>1320.99</ele>
        <time>2012-06-10T11:13:10.000Z</time>
      </trkpt>
      <trkpt lat="44.6866" lon="6.64431">
        <ele>1322.91</ele>
        <time>2012-06-10T11:13:23.000Z</time>
      </trkpt>
      <trkpt lat="44.68681" lon="6.64419">
        <ele>1324.35</ele>
        <time>2012-06-10T11:13:33.000Z</time>
      </trkpt>
      <trkpt lat="44.68684" lon="6.64419">
        <ele>1324.83</ele>
        <time>2012-06-10T11:13:34.000Z</time>
      </trkpt>
      <trkpt lat="44.68685" lon="6.64419">
        <ele>1324.83</ele>
        <time>2012-06-10T11:13:35.000Z</time>
      </trkpt>
      <trkpt lat="44.68687" lon="6.64418">
        <ele>1324.83</ele>
        <time>2012-06-10T11:13:36.000Z</time>
      </trkpt>
      <trkpt lat="44.68689" lon="6.64418">
        <ele>1325.31</ele>
        <time>2012-06-10T11:13:37.000Z</time>
      </trkpt>
      <trkpt lat="44.68692" lon="6.64419">
        <ele>1325.31</ele>
        <time>2012-06-10T11:13:38.000Z</time>
      </trkpt>
      <trkpt lat="44.68694" lon="6.64419">
        <ele>1325.8</ele>
        <time>2012-06-10T11:13:39.000Z</time>
      </trkpt>
      <trkpt lat="44.68695" lon="6.6442">
        <ele>1325.8</ele>
        <time>2012-06-10T11:13:40.000Z</time>
      </trkpt>
      <trkpt lat="44.68698" lon="6.64421">
        <ele>1325.31</ele>
        <time>2012-06-10T11:13:41.000Z</time>
      </trkpt>
      <trkpt lat="44.687" lon="6.64422">
        <ele>1326.28</ele>
        <time>2012-06-10T11:13:42.000Z</time>
      </trkpt>
      <trkpt lat="44.68702" lon="6.64423">
        <ele>1326.28</ele>
        <time>2012-06-10T11:13:43.000Z</time>
      </trkpt>
      <trkpt lat="44.68704" lon="6.64424">
        <ele>1326.76</ele>
        <time>2012-06-10T11:13:44.000Z</time>
      </trkpt>
      <trkpt lat="44.68733" lon="6.64427">
        <ele>1329.16</ele>
        <time>2012-06-10T11:13:55.000Z</time>
      </trkpt>
      <trkpt lat="44.68749" lon="6.64427">
        <ele>1330.12</ele>
        <time>2012-06-10T11:14:02.000Z</time>
      </trkpt>
      <trkpt lat="44.6875" lon="6.64429">
        <ele>1330.6</ele>
        <time>2012-06-10T11:14:03.000Z</time>
      </trkpt>
      <trkpt lat="44.68751" lon="6.64433">
        <ele>1331.08</ele>
        <time>2012-06-10T11:14:05.000Z</time>
      </trkpt>
      <trkpt lat="44.68752" lon="6.64436">
        <ele>1331.08</ele>
        <time>2012-06-10T11:14:06.000Z</time>
      </trkpt>
      <trkpt lat="44.6875" lon="6.64438">
        <ele>1331.08</ele>
        <time>2012-06-10T11:14:07.000Z</time>
      </trkpt>
      <trkpt lat="44.68749" lon="6.6444">
        <ele>1331.56</ele>
        <time>2012-06-10T11:14:08.000Z</time>
      </trkpt>
      <trkpt lat="44.68748" lon="6.64441">
        <ele>1331.56</ele>
        <time>2012-06-10T11:14:09.000Z</time>
      </trkpt>
      <trkpt lat="44.68727" lon="6.64457">
        <ele>1334.45</ele>
        <time>2012-06-10T11:14:22.000Z</time>
      </trkpt>
      <trkpt lat="44.68715" lon="6.64465">
        <ele>1335.89</ele>
        <time>2012-06-10T11:14:29.000Z</time>
      </trkpt>
      <trkpt lat="44.68714" lon="6.64466">
        <ele>1335.89</ele>
        <time>2012-06-10T11:14:30.000Z</time>
      </trkpt>
      <trkpt lat="44.68712" lon="6.64467">
        <ele>1336.85</ele>
        <time>2012-06-10T11:14:31.000Z</time>
      </trkpt>
      <trkpt lat="44.68711" lon="6.64468">
        <ele>1336.37</ele>
        <time>2012-06-10T11:14:32.000Z</time>
      </trkpt>
      <trkpt lat="44.68709" lon="6.64469">
        <ele>1336.37</ele>
        <time>2012-06-10T11:14:33.000Z</time>
      </trkpt>
      <trkpt lat="44.68707" lon="6.6447">
        <ele>1336.85</ele>
        <time>2012-06-10T11:14:34.000Z</time>
      </trkpt>
      <trkpt lat="44.68706" lon="6.64471">
        <ele>1337.33</ele>
        <time>2012-06-10T11:14:35.000Z</time>
      </trkpt>
      <trkpt lat="44.68704" lon="6.64472">
        <ele>1337.33</ele>
        <time>2012-06-10T11:14:36.000Z</time>
      </trkpt>
      <trkpt lat="44.68703" lon="6.64473">
        <ele>1337.81</ele>
        <time>2012-06-10T11:14:37.000Z</time>
      </trkpt>
      <trkpt lat="44.68701" lon="6.64474">
        <ele>1337.81</ele>
        <time>2012-06-10T11:14:38.000Z</time>
      </trkpt>
      <trkpt lat="44.68699" lon="6.64475">
        <ele>1337.33</ele>
        <time>2012-06-10T11:14:39.000Z</time>
      </trkpt>
      <trkpt lat="44.68697" lon="6.64477">
        <ele>1337.81</ele>
        <time>2012-06-10T11:14:40.000Z</time>
      </trkpt>
      <trkpt lat="44.68677" lon="6.64492">
        <ele>1340.22</ele>
        <time>2012-06-10T11:14:53.000Z</time>
      </trkpt>
      <trkpt lat="44.68658" lon="6.64508">
        <ele>1342.62</ele>
        <time>2012-06-10T11:15:06.000Z</time>
      </trkpt>
      <trkpt lat="44.68641" lon="6.64523">
        <ele>1345.02</ele>
        <time>2012-06-10T11:15:18.000Z</time>
      </trkpt>
      <trkpt lat="44.68619" lon="6.6455">
        <ele>1347.43</ele>
        <time>2012-06-10T11:15:33.000Z</time>
      </trkpt>
      <trkpt lat="44.68617" lon="6.64553">
        <ele>1347.43</ele>
        <time>2012-06-10T11:15:35.000Z</time>
      </trkpt>
      <trkpt lat="44.68615" lon="6.64554">
        <ele>1347.91</ele>
        <time>2012-06-10T11:15:36.000Z</time>
      </trkpt>
      <trkpt lat="44.68612" lon="6.64555">
        <ele>1347.91</ele>
        <time>2012-06-10T11:15:37.000Z</time>
      </trkpt>
      <trkpt lat="44.6861" lon="6.64556">
        <ele>1348.39</ele>
        <time>2012-06-10T11:15:38.000Z</time>
      </trkpt>
      <trkpt lat="44.68607" lon="6.64557">
        <ele>1348.39</ele>
        <time>2012-06-10T11:15:39.000Z</time>
      </trkpt>
      <trkpt lat="44.68589" lon="6.64565">
        <ele>1349.35</ele>
        <time>2012-06-10T11:15:48.000Z</time>
      </trkpt>
      <trkpt lat="44.68589" lon="6.6457">
        <ele>1349.83</ele>
        <time>2012-06-10T11:15:50.000Z</time>
      </trkpt>
      <trkpt lat="44.68589" lon="6.64576">
        <ele>1350.79</ele>
        <time>2012-06-10T11:15:53.000Z</time>
      </trkpt>
      <trkpt lat="44.68591" lon="6.64578">
        <ele>1351.27</ele>
        <time>2012-06-10T11:15:55.000Z</time>
      </trkpt>
      <trkpt lat="44.68614" lon="6.64575">
        <ele>1353.67</ele>
        <time>2012-06-10T11:16:09.000Z</time>
      </trkpt>
      <trkpt lat="44.68628" lon="6.64573">
        <ele>1353.67</ele>
        <time>2012-06-10T11:16:16.000Z</time>
      </trkpt>
      <trkpt lat="44.6863" lon="6.64571">
        <ele>1356.08</ele>
        <time>2012-06-10T11:16:18.000Z</time>
      </trkpt>
      <trkpt lat="44.68637" lon="6.6457">
        <ele>1356.08</ele>
        <time>2012-06-10T11:16:22.000Z</time>
      </trkpt>
      <trkpt lat="44.68645" lon="6.6458">
        <ele>1357.52</ele>
        <time>2012-06-10T11:16:29.000Z</time>
      </trkpt>
      <trkpt lat="44.68636" lon="6.64604">
        <ele>1359.44</ele>
        <time>2012-06-10T11:16:41.000Z</time>
      </trkpt>
      <trkpt lat="44.68629" lon="6.64607">
        <ele>1360.4</ele>
        <time>2012-06-10T11:16:45.000Z</time>
      </trkpt>
      <trkpt lat="44.68622" lon="6.64611">
        <ele>1361.36</ele>
        <time>2012-06-10T11:16:49.000Z</time>
      </trkpt>
      <trkpt lat="44.68605" lon="6.64639">
        <ele>1363.29</ele>
        <time>2012-06-10T11:17:03.000Z</time>
      </trkpt>
      <trkpt lat="44.68596" lon="6.64654">
        <ele>1366.17</ele>
        <time>2012-06-10T11:17:13.000Z</time>
      </trkpt>
      <trkpt lat="44.6859" lon="6.64662">
        <ele>1367.13</ele>
        <time>2012-06-10T11:17:18.000Z</time>
      </trkpt>
      <trkpt lat="44.68573" lon="6.64698">
        <ele>1370.02</ele>
        <time>2012-06-10T11:17:34.000Z</time>
      </trkpt>
      <trkpt lat="44.68573" lon="6.64704">
        <ele>1370.5</ele>
        <time>2012-06-10T11:17:36.000Z</time>
      </trkpt>
      <trkpt lat="44.68588" lon="6.64713">
        <ele>1373.86</ele>
        <time>2012-06-10T11:17:49.000Z</time>
      </trkpt>
      <trkpt lat="44.68599" lon="6.64707">
        <ele>1375.3</ele>
        <time>2012-06-10T11:17:57.000Z</time>
      </trkpt>
      <trkpt lat="44.68602" lon="6.64704">
        <ele>1375.3</ele>
        <time>2012-06-10T11:17:59.000Z</time>
      </trkpt>
      <trkpt lat="44.6861" lon="6.647">
        <ele>1376.75</ele>
        <time>2012-06-10T11:18:05.000Z</time>
      </trkpt>
      <trkpt lat="44.68617" lon="6.64695">
        <ele>1377.71</ele>
        <time>2012-06-10T11:18:09.000Z</time>
      </trkpt>
      <trkpt lat="44.68622" lon="6.64691">
        <ele>1377.71</ele>
        <time>2012-06-10T11:18:12.000Z</time>
      </trkpt>
      <trkpt lat="44.68642" lon="6.64683">
        <ele>1378.67</ele>
        <time>2012-06-10T11:18:21.000Z</time>
      </trkpt>
      <trkpt lat="44.68662" lon="6.64668">
        <ele>1381.55</ele>
        <time>2012-06-10T11:18:35.000Z</time>
      </trkpt>
      <trkpt lat="44.68679" lon="6.64656">
        <ele>1383.47</ele>
        <time>2012-06-10T11:18:47.000Z</time>
      </trkpt>
      <trkpt lat="44.68703" lon="6.64651">
        <ele>1385.4</ele>
        <time>2012-06-10T11:19:01.000Z</time>
      </trkpt>
      <trkpt lat="44.68715" lon="6.64646">
        <ele>1387.32</ele>
        <time>2012-06-10T11:19:08.000Z</time>
      </trkpt>
      <trkpt lat="44.68729" lon="6.64644">
        <ele>1389.24</ele>
        <time>2012-06-10T11:19:18.000Z</time>
      </trkpt>
      <trkpt lat="44.68745" lon="6.64657">
        <ele>1392.61</ele>
        <time>2012-06-10T11:19:31.000Z</time>
      </trkpt>
      <trkpt lat="44.6876" lon="6.64674">
        <ele>1395.49</ele>
        <time>2012-06-10T11:19:45.000Z</time>
      </trkpt>
      <trkpt lat="44.68763" lon="6.64678">
        <ele>1396.45</ele>
        <time>2012-06-10T11:19:49.000Z</time>
      </trkpt>
      <trkpt lat="44.68764" lon="6.64681">
        <ele>1396.93</ele>
        <time>2012-06-10T11:19:51.000Z</time>
      </trkpt>
      <trkpt lat="44.68773" lon="6.64689">
        <ele>1398.86</ele>
        <time>2012-06-10T11:20:03.000Z</time>
      </trkpt>
      <trkpt lat="44.68781" lon="6.64696">
        <ele>1399.82</ele>
        <time>2012-06-10T11:20:10.000Z</time>
      </trkpt>
      <trkpt lat="44.68791" lon="6.64714">
        <ele>1402.7</ele>
        <time>2012-06-10T11:20:23.000Z</time>
      </trkpt>
      <trkpt lat="44.68799" lon="6.6473">
        <ele>1406.07</ele>
        <time>2012-06-10T11:20:35.000Z</time>
      </trkpt>
      <trkpt lat="44.68808" lon="6.6474">
        <ele>1407.51</ele>
        <time>2012-06-10T11:20:47.000Z</time>
      </trkpt>
      <trkpt lat="44.68808" lon="6.6475">
        <ele>1408.95</ele>
        <time>2012-06-10T11:21:01.000Z</time>
      </trkpt>
      <trkpt lat="44.68808" lon="6.6475">
        <ele>1408.95</ele>
        <time>2012-06-10T11:21:14.000Z</time>
      </trkpt>
      <trkpt lat="44.68787" lon="6.64738">
        <ele>1410.39</ele>
        <time>2012-06-10T11:21:27.000Z</time>
      </trkpt>
      <trkpt lat="44.68785" lon="6.64738">
        <ele>1410.39</ele>
        <time>2012-06-10T11:21:28.000Z</time>
      </trkpt>
      <trkpt lat="44.68775" lon="6.64742">
        <ele>1412.31</ele>
        <time>2012-06-10T11:21:35.000Z</time>
      </trkpt>
      <trkpt lat="44.68768" lon="6.64747">
        <ele>1412.79</ele>
        <time>2012-06-10T11:21:40.000Z</time>
      </trkpt>
      <trkpt lat="44.68752" lon="6.64756">
        <ele>1415.2</ele>
        <time>2012-06-10T11:21:51.000Z</time>
      </trkpt>
      <trkpt lat="44.68746" lon="6.64759">
        <ele>1416.16</ele>
        <time>2012-06-10T11:21:57.000Z</time>
      </trkpt>
      <trkpt lat="44.68734" lon="6.64767">
        <ele>1417.6</ele>
        <time>2012-06-10T11:22:03.000Z</time>
      </trkpt>
      <trkpt lat="44.68715" lon="6.64785">
        <ele>1420.97</ele>
        <time>2012-06-10T11:22:18.000Z</time>
      </trkpt>
      <trkpt lat="44.68709" lon="6.6479">
        <ele>1421.93</ele>
        <time>2012-06-10T11:22:22.000Z</time>
      </trkpt>
      <trkpt lat="44.68699" lon="6.64814">
        <ele>1423.85</ele>
        <time>2012-06-10T11:22:35.000Z</time>
      </trkpt>
      <trkpt lat="44.68697" lon="6.64841">
        <ele>1425.77</ele>
        <time>2012-06-10T11:22:47.000Z</time>
      </trkpt>
      <trkpt lat="44.68694" lon="6.64852">
        <ele>1428.18</ele>
        <time>2012-06-10T11:22:53.000Z</time>
      </trkpt>
      <trkpt lat="44.68688" lon="6.64863">
        <ele>1428.66</ele>
        <time>2012-06-10T11:22:59.000Z</time>
      </trkpt>
      <trkpt lat="44.68679" lon="6.64876">
        <ele>1430.1</ele>
        <time>2012-06-10T11:23:07.000Z</time>
      </trkpt>
      <trkpt lat="44.68676" lon="6.64893">
        <ele>1432.98</ele>
        <time>2012-06-10T11:23:20.000Z</time>
      </trkpt>
      <trkpt lat="44.68681" lon="6.64892">
        <ele>1433.94</ele>
        <time>2012-06-10T11:23:27.000Z</time>
      </trkpt>
      <trkpt lat="44.68699" lon="6.64889">
        <ele>1435.39</ele>
        <time>2012-06-10T11:23:40.000Z</time>
      </trkpt>
      <trkpt lat="44.68711" lon="6.64887">
        <ele>1437.31</ele>
        <time>2012-06-10T11:23:52.000Z</time>
      </trkpt>
      <trkpt lat="44.6872" lon="6.6488">
        <ele>1440.19</ele>
        <time>2012-06-10T11:24:03.000Z</time>
      </trkpt>
      <trkpt lat="44.68732" lon="6.64875">
        <ele>1443.08</ele>
        <time>2012-06-10T11:24:14.000Z</time>
      </trkpt>
      <trkpt lat="44.68745" lon="6.64875">
        <ele>1444.52</ele>
        <time>2012-06-10T11:24:27.000Z</time>
      </trkpt>
      <trkpt lat="44.68759" lon="6.64873">
        <ele>1446.92</ele>
        <time>2012-06-10T11:24:41.000Z</time>
      </trkpt>
      <trkpt lat="44.68779" lon="6.64864">
        <ele>1449.32</ele>
        <time>2012-06-10T11:24:54.000Z</time>
      </trkpt>
      <trkpt lat="44.68792" lon="6.64859">
        <ele>1450.29</ele>
        <time>2012-06-10T11:25:01.000Z</time>
      </trkpt>
      <trkpt lat="44.68793" lon="6.64863">
        <ele>1450.77</ele>
        <time>2012-06-10T11:25:05.000Z</time>
      </trkpt>
      <trkpt lat="44.68782" lon="6.64878">
        <ele>1453.17</ele>
        <time>2012-06-10T11:25:17.000Z</time>
      </trkpt>
      <trkpt lat="44.68778" lon="6.64883">
        <ele>1454.13</ele>
        <time>2012-06-10T11:25:21.000Z</time>
      </trkpt>
      <trkpt lat="44.68777" lon="6.64885">
        <ele>1454.61</ele>
        <time>2012-06-10T11:25:22.000Z</time>
      </trkpt>
      <trkpt lat="44.68779" lon="6.64891">
        <ele>1455.57</ele>
        <time>2012-06-10T11:25:26.000Z</time>
      </trkpt>
      <trkpt lat="44.68783" lon="6.6489">
        <ele>1456.53</ele>
        <time>2012-06-10T11:25:30.000Z</time>
      </trkpt>
      <trkpt lat="44.68788" lon="6.64887">
        <ele>1456.53</ele>
        <time>2012-06-10T11:25:34.000Z</time>
      </trkpt>
      <trkpt lat="44.68801" lon="6.64884">
        <ele>1459.9</ele>
        <time>2012-06-10T11:25:47.000Z</time>
      </trkpt>
      <trkpt lat="44.68818" lon="6.64891">
        <ele>1463.26</ele>
        <time>2012-06-10T11:26:01.000Z</time>
      </trkpt>
      <trkpt lat="44.68831" lon="6.64896">
        <ele>1466.15</ele>
        <time>2012-06-10T11:26:16.000Z</time>
      </trkpt>
      <trkpt lat="44.68827" lon="6.64905">
        <ele>1468.07</ele>
        <time>2012-06-10T11:26:26.000Z</time>
      </trkpt>
      <trkpt lat="44.68824" lon="6.64908">
        <ele>1467.59</ele>
        <time>2012-06-10T11:26:30.000Z</time>
      </trkpt>
      <trkpt lat="44.68813" lon="6.64915">
        <ele>1470.95</ele>
        <time>2012-06-10T11:26:42.000Z</time>
      </trkpt>
      <trkpt lat="44.68812" lon="6.64916">
        <ele>1470.95</ele>
        <time>2012-06-10T11:26:43.000Z</time>
      </trkpt>
      <trkpt lat="44.68806" lon="6.64925">
        <ele>1472.88</ele>
        <time>2012-06-10T11:26:52.000Z</time>
      </trkpt>
      <trkpt lat="44.68797" lon="6.64938">
        <ele>1474.8</ele>
        <time>2012-06-10T11:27:06.000Z</time>
      </trkpt>
      <trkpt lat="44.68787" lon="6.64949">
        <ele>1478.16</ele>
        <time>2012-06-10T11:27:21.000Z</time>
      </trkpt>
      <trkpt lat="44.68783" lon="6.64954">
        <ele>1479.13</ele>
        <time>2012-06-10T11:27:27.000Z</time>
      </trkpt>
      <trkpt lat="44.68771" lon="6.6496">
        <ele>1480.57</ele>
        <time>2012-06-10T11:27:35.000Z</time>
      </trkpt>
      <trkpt lat="44.68769" lon="6.64962">
        <ele>1480.57</ele>
        <time>2012-06-10T11:27:37.000Z</time>
      </trkpt>
      <trkpt lat="44.68765" lon="6.64971">
        <ele>1482.49</ele>
        <time>2012-06-10T11:27:44.000Z</time>
      </trkpt>
      <trkpt lat="44.68755" lon="6.64979">
        <ele>1483.93</ele>
        <time>2012-06-10T11:27:55.000Z</time>
      </trkpt>
      <trkpt lat="44.68753" lon="6.64984">
        <ele>1484.41</ele>
        <time>2012-06-10T11:27:59.000Z</time>
      </trkpt>
      <trkpt lat="44.68751" lon="6.64985">
        <ele>1484.89</ele>
        <time>2012-06-10T11:28:01.000Z</time>
      </trkpt>
      <trkpt lat="44.68744" lon="6.64992">
        <ele>1487.3</ele>
        <time>2012-06-10T11:28:13.000Z</time>
      </trkpt>
      <trkpt lat="44.68736" lon="6.65006">
        <ele>1488.74</ele>
        <time>2012-06-10T11:28:24.000Z</time>
      </trkpt>
      <trkpt lat="44.68719" lon="6.65015">
        <ele>1491.62</ele>
        <time>2012-06-10T11:28:38.000Z</time>
      </trkpt>
      <trkpt lat="44.68714" lon="6.65017">
        <ele>1492.1</ele>
        <time>2012-06-10T11:28:43.000Z</time>
      </trkpt>
      <trkpt lat="44.68708" lon="6.65019">
        <ele>1493.06</ele>
        <time>2012-06-10T11:28:47.000Z</time>
      </trkpt>
      <trkpt lat="44.68704" lon="6.65024">
        <ele>1493.55</ele>
        <time>2012-06-10T11:28:51.000Z</time>
      </trkpt>
      <trkpt lat="44.687" lon="6.65028">
        <ele>1494.03</ele>
        <time>2012-06-10T11:28:54.000Z</time>
      </trkpt>
      <trkpt lat="44.68699" lon="6.65034">
        <ele>1494.03</ele>
        <time>2012-06-10T11:28:57.000Z</time>
      </trkpt>
      <trkpt lat="44.68694" lon="6.6504">
        <ele>1495.47</ele>
        <time>2012-06-10T11:29:04.000Z</time>
      </trkpt>
      <trkpt lat="44.68692" lon="6.65064">
        <ele>1499.31</ele>
        <time>2012-06-10T11:29:21.000Z</time>
      </trkpt>
      <trkpt lat="44.68697" lon="6.65075">
        <ele>1501.72</ele>
        <time>2012-06-10T11:29:35.000Z</time>
      </trkpt>
      <trkpt lat="44.68704" lon="6.65073">
        <ele>1502.2</ele>
        <time>2012-06-10T11:29:41.000Z</time>
      </trkpt>
      <trkpt lat="44.68709" lon="6.65062">
        <ele>1503.64</ele>
        <time>2012-06-10T11:29:50.000Z</time>
      </trkpt>
      <trkpt lat="44.68712" lon="6.65061">
        <ele>1504.6</ele>
        <time>2012-06-10T11:29:52.000Z</time>
      </trkpt>
      <trkpt lat="44.68723" lon="6.65048">
        <ele>1507.48</ele>
        <time>2012-06-10T11:30:07.000Z</time>
      </trkpt>
      <trkpt lat="44.68737" lon="6.65044">
        <ele>1508.93</ele>
        <time>2012-06-10T11:30:21.000Z</time>
      </trkpt>
      <trkpt lat="44.68746" lon="6.65045">
        <ele>1512.29</ele>
        <time>2012-06-10T11:30:37.000Z</time>
      </trkpt>
      <trkpt lat="44.68744" lon="6.65047">
        <ele>1512.77</ele>
        <time>2012-06-10T11:30:40.000Z</time>
      </trkpt>
      <trkpt lat="44.68739" lon="6.65054">
        <ele>1514.21</ele>
        <time>2012-06-10T11:30:47.000Z</time>
      </trkpt>
      <trkpt lat="44.68735" lon="6.65062">
        <ele>1515.18</ele>
        <time>2012-06-10T11:30:54.000Z</time>
      </trkpt>
      <trkpt lat="44.68731" lon="6.65079">
        <ele>1517.58</ele>
        <time>2012-06-10T11:31:07.000Z</time>
      </trkpt>
      <trkpt lat="44.68727" lon="6.65087">
        <ele>1519.02</ele>
        <time>2012-06-10T11:31:14.000Z</time>
      </trkpt>
      <trkpt lat="44.68723" lon="6.65097">
        <ele>1520.46</ele>
        <time>2012-06-10T11:31:22.000Z</time>
      </trkpt>
      <trkpt lat="44.68722" lon="6.651">
        <ele>1520.46</ele>
        <time>2012-06-10T11:31:24.000Z</time>
      </trkpt>
      <trkpt lat="44.68721" lon="6.65108">
        <ele>1521.9</ele>
        <time>2012-06-10T11:31:30.000Z</time>
      </trkpt>
      <trkpt lat="44.68707" lon="6.65118">
        <ele>1523.83</ele>
        <time>2012-06-10T11:31:43.000Z</time>
      </trkpt>
      <trkpt lat="44.68702" lon="6.65125">
        <ele>1524.31</ele>
        <time>2012-06-10T11:31:49.000Z</time>
      </trkpt>
      <trkpt lat="44.68701" lon="6.65131">
        <ele>1524.79</ele>
        <time>2012-06-10T11:31:52.000Z</time>
      </trkpt>
      <trkpt lat="44.68699" lon="6.65135">
        <ele>1525.27</ele>
        <time>2012-06-10T11:31:54.000Z</time>
      </trkpt>
      <trkpt lat="44.68695" lon="6.65146">
        <ele>1526.71</ele>
        <time>2012-06-10T11:32:03.000Z</time>
      </trkpt>
      <trkpt lat="44.68698" lon="6.65165">
        <ele>1530.08</ele>
        <time>2012-06-10T11:32:14.000Z</time>
      </trkpt>
      <trkpt lat="44.68701" lon="6.65171">
        <ele>1529.11</ele>
        <time>2012-06-10T11:32:19.000Z</time>
      </trkpt>
      <trkpt lat="44.68702" lon="6.65177">
        <ele>1529.59</ele>
        <time>2012-06-10T11:32:23.000Z</time>
      </trkpt>
      <trkpt lat="44.68708" lon="6.65196">
        <ele>1532.96</ele>
        <time>2012-06-10T11:32:38.000Z</time>
      </trkpt>
      <trkpt lat="44.68713" lon="6.65213">
        <ele>1534.88</ele>
        <time>2012-06-10T11:32:52.000Z</time>
      </trkpt>
      <trkpt lat="44.68717" lon="6.65225">
        <ele>1536.8</ele>
        <time>2012-06-10T11:33:05.000Z</time>
      </trkpt>
      <trkpt lat="44.68724" lon="6.65237">
        <ele>1539.69</ele>
        <time>2012-06-10T11:33:18.000Z</time>
      </trkpt>
      <trkpt lat="44.68732" lon="6.65251">
        <ele>1541.13</ele>
        <time>2012-06-10T11:33:32.000Z</time>
      </trkpt>
      <trkpt lat="44.68747" lon="6.65272">
        <ele>1543.05</ele>
        <time>2012-06-10T11:33:46.000Z</time>
      </trkpt>
      <trkpt lat="44.68747" lon="6.65288">
        <ele>1544.98</ele>
        <time>2012-06-10T11:33:59.000Z</time>
      </trkpt>
      <trkpt lat="44.68744" lon="6.65297">
        <ele>1545.46</ele>
        <time>2012-06-10T11:34:04.000Z</time>
      </trkpt>
      <trkpt lat="44.68735" lon="6.65309">
        <ele>1545.94</ele>
        <time>2012-06-10T11:34:11.000Z</time>
      </trkpt>
      <trkpt lat="44.68724" lon="6.65321">
        <ele>1547.86</ele>
        <time>2012-06-10T11:34:19.000Z</time>
      </trkpt>
      <trkpt lat="44.68707" lon="6.65325">
        <ele>1548.82</ele>
        <time>2012-06-10T11:34:28.000Z</time>
      </trkpt>
      <trkpt lat="44.68699" lon="6.65328">
        <ele>1549.3</ele>
        <time>2012-06-10T11:34:34.000Z</time>
      </trkpt>
      <trkpt lat="44.68673" lon="6.65333">
        <ele>1552.19</ele>
        <time>2012-06-10T11:34:48.000Z</time>
      </trkpt>
      <trkpt lat="44.6867" lon="6.65331">
        <ele>1552.67</ele>
        <time>2012-06-10T11:34:50.000Z</time>
      </trkpt>
      <trkpt lat="44.68654" lon="6.6533">
        <ele>1554.11</ele>
        <time>2012-06-10T11:35:01.000Z</time>
      </trkpt>
      <trkpt lat="44.68653" lon="6.65329">
        <ele>1555.07</ele>
        <time>2012-06-10T11:35:02.000Z</time>
      </trkpt>
      <trkpt lat="44.68644" lon="6.65332">
        <ele>1556.03</ele>
        <time>2012-06-10T11:35:08.000Z</time>
      </trkpt>
      <trkpt lat="44.68634" lon="6.65348">
        <ele>1556.99</ele>
        <time>2012-06-10T11:35:18.000Z</time>
      </trkpt>
      <trkpt lat="44.68625" lon="6.65351">
        <ele>1557.47</ele>
        <time>2012-06-10T11:35:23.000Z</time>
      </trkpt>
      <trkpt lat="44.68605" lon="6.65366">
        <ele>1559.88</ele>
        <time>2012-06-10T11:35:38.000Z</time>
      </trkpt>
      <trkpt lat="44.68601" lon="6.6537">
        <ele>1560.36</ele>
        <time>2012-06-10T11:35:41.000Z</time>
      </trkpt>
      <trkpt lat="44.68597" lon="6.65378">
        <ele>1561.32</ele>
        <time>2012-06-10T11:35:46.000Z</time>
      </trkpt>
      <trkpt lat="44.68593" lon="6.65385">
        <ele>1562.76</ele>
        <time>2012-06-10T11:35:50.000Z</time>
      </trkpt>
      <trkpt lat="44.68581" lon="6.65394">
        <ele>1563.72</ele>
        <time>2012-06-10T11:35:59.000Z</time>
      </trkpt>
      <trkpt lat="44.6857" lon="6.65405">
        <ele>1565.16</ele>
        <time>2012-06-10T11:36:07.000Z</time>
      </trkpt>
      <trkpt lat="44.68563" lon="6.6543">
        <ele>1566.61</ele>
        <time>2012-06-10T11:36:17.000Z</time>
      </trkpt>
      <trkpt lat="44.68553" lon="6.65466">
        <ele>1567.09</ele>
        <time>2012-06-10T11:36:29.000Z</time>
      </trkpt>
      <trkpt lat="44.68541" lon="6.65509">
        <ele>1568.05</ele>
        <time>2012-06-10T11:36:42.000Z</time>
      </trkpt>
      <trkpt lat="44.68534" lon="6.65526">
        <ele>1569.49</ele>
        <time>2012-06-10T11:36:49.000Z</time>
      </trkpt>
      <trkpt lat="44.68532" lon="6.65528">
        <ele>1569.97</ele>
        <time>2012-06-10T11:36:51.000Z</time>
      </trkpt>
      <trkpt lat="44.68531" lon="6.65557">
        <ele>1571.41</ele>
        <time>2012-06-10T11:37:01.000Z</time>
      </trkpt>
      <trkpt lat="44.68533" lon="6.65594">
        <ele>1574.3</ele>
        <time>2012-06-10T11:37:15.000Z</time>
      </trkpt>
      <trkpt lat="44.68532" lon="6.65599">
        <ele>1574.3</ele>
        <time>2012-06-10T11:37:17.000Z</time>
      </trkpt>
      <trkpt lat="44.68528" lon="6.65603">
        <ele>1575.26</ele>
        <time>2012-06-10T11:37:20.000Z</time>
      </trkpt>
      <trkpt lat="44.68517" lon="6.65607">
        <ele>1576.7</ele>
        <time>2012-06-10T11:37:27.000Z</time>
      </trkpt>
      <trkpt lat="44.68496" lon="6.6561">
        <ele>1579.1</ele>
        <time>2012-06-10T11:37:41.000Z</time>
      </trkpt>
      <trkpt lat="44.68487" lon="6.65612">
        <ele>1580.06</ele>
        <time>2012-06-10T11:37:46.000Z</time>
      </trkpt>
      <trkpt lat="44.68466" lon="6.65614">
        <ele>1581.51</ele>
        <time>2012-06-10T11:37:59.000Z</time>
      </trkpt>
      <trkpt lat="44.68459" lon="6.65619">
        <ele>1582.47</ele>
        <time>2012-06-10T11:38:03.000Z</time>
      </trkpt>
      <trkpt lat="44.68451" lon="6.65624">
        <ele>1582.95</ele>
        <time>2012-06-10T11:38:06.000Z</time>
      </trkpt>
      <trkpt lat="44.68436" lon="6.6563">
        <ele>1583.43</ele>
        <time>2012-06-10T11:38:12.000Z</time>
      </trkpt>
      <trkpt lat="44.68412" lon="6.65636">
        <ele>1584.87</ele>
        <time>2012-06-10T11:38:23.000Z</time>
      </trkpt>
      <trkpt lat="44.68407" lon="6.65644">
        <ele>1585.35</ele>
        <time>2012-06-10T11:38:28.000Z</time>
      </trkpt>
      <trkpt lat="44.68398" lon="6.6565">
        <ele>1587.27</ele>
        <time>2012-06-10T11:38:34.000Z</time>
      </trkpt>
      <trkpt lat="44.68372" lon="6.65636">
        <ele>1589.68</ele>
        <time>2012-06-10T11:38:45.000Z</time>
      </trkpt>
      <trkpt lat="44.68359" lon="6.65614">
        <ele>1591.6</ele>
        <time>2012-06-10T11:38:58.000Z</time>
      </trkpt>
      <trkpt lat="44.68353" lon="6.65605">
        <ele>1592.56</ele>
        <time>2012-06-10T11:39:03.000Z</time>
      </trkpt>
      <trkpt lat="44.68334" lon="6.65599">
        <ele>1594.96</ele>
        <time>2012-06-10T11:39:17.000Z</time>
      </trkpt>
      <trkpt lat="44.68323" lon="6.65606">
        <ele>1597.37</ele>
        <time>2012-06-10T11:39:28.000Z</time>
      </trkpt>
      <trkpt lat="44.68309" lon="6.65616">
        <ele>1600.25</ele>
        <time>2012-06-10T11:39:44.000Z</time>
      </trkpt>
      <trkpt lat="44.68301" lon="6.65627">
        <ele>1602.17</ele>
        <time>2012-06-10T11:39:55.000Z</time>
      </trkpt>
      <trkpt lat="44.683" lon="6.65629">
        <ele>1602.17</ele>
        <time>2012-06-10T11:39:56.000Z</time>
      </trkpt>
      <trkpt lat="44.68295" lon="6.65639">
        <ele>1604.1</ele>
        <time>2012-06-10T11:40:08.000Z</time>
      </trkpt>
      <trkpt lat="44.68289" lon="6.65642">
        <ele>1603.14</ele>
        <time>2012-06-10T11:40:10.000Z</time>
      </trkpt>
      <trkpt lat="44.68285" lon="6.65643">
        <ele>1603.14</ele>
        <time>2012-06-10T11:40:11.000Z</time>
      </trkpt>
      <trkpt lat="44.68282" lon="6.65643">
        <ele>1601.69</ele>
        <time>2012-06-10T11:40:12.000Z</time>
      </trkpt>
      <trkpt lat="44.68278" lon="6.65642">
        <ele>1602.17</ele>
        <time>2012-06-10T11:40:13.000Z</time>
      </trkpt>
      <trkpt lat="44.68275" lon="6.65641">
        <ele>1603.14</ele>
        <time>2012-06-10T11:40:14.000Z</time>
      </trkpt>
      <trkpt lat="44.68273" lon="6.6564">
        <ele>1603.62</ele>
        <time>2012-06-10T11:40:15.000Z</time>
      </trkpt>
      <trkpt lat="44.68271" lon="6.6564">
        <ele>1603.14</ele>
        <time>2012-06-10T11:40:16.000Z</time>
      </trkpt>
      <trkpt lat="44.68269" lon="6.65639">
        <ele>1603.14</ele>
        <time>2012-06-10T11:40:17.000Z</time>
      </trkpt>
      <trkpt lat="44.68267" lon="6.65637">
        <ele>1603.62</ele>
        <time>2012-06-10T11:40:18.000Z</time>
      </trkpt>
      <trkpt lat="44.68232" lon="6.6564">
        <ele>1600.73</ele>
        <time>2012-06-10T11:40:28.000Z</time>
      </trkpt>
      <trkpt lat="44.68213" lon="6.65648">
        <ele>1597.85</ele>
        <time>2012-06-10T11:40:31.000Z</time>
      </trkpt>
      <trkpt lat="44.68195" lon="6.65659">
        <ele>1594.96</ele>
        <time>2012-06-10T11:40:34.000Z</time>
      </trkpt>
      <trkpt lat="44.68189" lon="6.65662">
        <ele>1593.52</ele>
        <time>2012-06-10T11:40:35.000Z</time>
      </trkpt>
      <trkpt lat="44.68172" lon="6.65671">
        <ele>1591.6</ele>
        <time>2012-06-10T11:40:39.000Z</time>
      </trkpt>
      <trkpt lat="44.68156" lon="6.65683">
        <ele>1588.24</ele>
        <time>2012-06-10T11:40:42.000Z</time>
      </trkpt>
      <trkpt lat="44.6815" lon="6.65685">
        <ele>1587.27</ele>
        <time>2012-06-10T11:40:43.000Z</time>
      </trkpt>
      <trkpt lat="44.68132" lon="6.65694">
        <ele>1584.39</ele>
        <time>2012-06-10T11:40:46.000Z</time>
      </trkpt>
      <trkpt lat="44.68123" lon="6.65703">
        <ele>1581.51</ele>
        <time>2012-06-10T11:40:48.000Z</time>
      </trkpt>
      <trkpt lat="44.6811" lon="6.65715">
        <ele>1577.66</ele>
        <time>2012-06-10T11:40:51.000Z</time>
      </trkpt>
      <trkpt lat="44.68106" lon="6.65718">
        <ele>1576.7</ele>
        <time>2012-06-10T11:40:52.000Z</time>
      </trkpt>
      <trkpt lat="44.6809" lon="6.65723">
        <ele>1575.74</ele>
        <time>2012-06-10T11:40:55.000Z</time>
      </trkpt>
      <trkpt lat="44.68064" lon="6.65731">
        <ele>1574.78</ele>
        <time>2012-06-10T11:40:59.000Z</time>
      </trkpt>
      <trkpt lat="44.68053" lon="6.65765">
        <ele>1570.93</ele>
        <time>2012-06-10T11:41:05.000Z</time>
      </trkpt>
      <trkpt lat="44.68049" lon="6.65772">
        <ele>1568.53</ele>
        <time>2012-06-10T11:41:09.000Z</time>
      </trkpt>
      <trkpt lat="44.68045" lon="6.65776">
        <ele>1568.53</ele>
        <time>2012-06-10T11:41:15.000Z</time>
      </trkpt>
      <trkpt lat="44.68037" lon="6.65785">
        <ele>1564.2</ele>
        <time>2012-06-10T11:41:19.000Z</time>
      </trkpt>
      <trkpt lat="44.68035" lon="6.65787">
        <ele>1563.24</ele>
        <time>2012-06-10T11:41:20.000Z</time>
      </trkpt>
      <trkpt lat="44.68027" lon="6.65794">
        <ele>1559.4</ele>
        <time>2012-06-10T11:41:25.000Z</time>
      </trkpt>
      <trkpt lat="44.68022" lon="6.65789">
        <ele>1557.95</ele>
        <time>2012-06-10T11:41:28.000Z</time>
      </trkpt>
      <trkpt lat="44.68012" lon="6.65787">
        <ele>1558.43</ele>
        <time>2012-06-10T11:41:32.000Z</time>
      </trkpt>
      <trkpt lat="44.67999" lon="6.6578">
        <ele>1557.47</ele>
        <time>2012-06-10T11:41:37.000Z</time>
      </trkpt>
      <trkpt lat="44.67979" lon="6.65785">
        <ele>1553.63</ele>
        <time>2012-06-10T11:41:41.000Z</time>
      </trkpt>
      <trkpt lat="44.6796" lon="6.6579">
        <ele>1551.22</ele>
        <time>2012-06-10T11:41:45.000Z</time>
      </trkpt>
      <trkpt lat="44.67941" lon="6.65802">
        <ele>1545.46</ele>
        <time>2012-06-10T11:41:49.000Z</time>
      </trkpt>
      <trkpt lat="44.67921" lon="6.65808">
        <ele>1541.61</ele>
        <time>2012-06-10T11:41:53.000Z</time>
      </trkpt>
      <trkpt lat="44.67899" lon="6.65814">
        <ele>1536.32</ele>
        <time>2012-06-10T11:41:57.000Z</time>
      </trkpt>
      <trkpt lat="44.67884" lon="6.65814">
        <ele>1531.04</ele>
        <time>2012-06-10T11:42:02.000Z</time>
      </trkpt>
      <trkpt lat="44.67876" lon="6.65823">
        <ele>1528.63</ele>
        <time>2012-06-10T11:42:04.000Z</time>
      </trkpt>
      <trkpt lat="44.67862" lon="6.65831">
        <ele>1525.75</ele>
        <time>2012-06-10T11:42:07.000Z</time>
      </trkpt>
      <trkpt lat="44.67851" lon="6.65832">
        <ele>1523.35</ele>
        <time>2012-06-10T11:42:09.000Z</time>
      </trkpt>
      <trkpt lat="44.67832" lon="6.65836">
        <ele>1518.06</ele>
        <time>2012-06-10T11:42:12.000Z</time>
      </trkpt>
      <trkpt lat="44.67813" lon="6.65847">
        <ele>1514.21</ele>
        <time>2012-06-10T11:42:15.000Z</time>
      </trkpt>
      <trkpt lat="44.67801" lon="6.65856">
        <ele>1510.85</ele>
        <time>2012-06-10T11:42:17.000Z</time>
      </trkpt>
      <trkpt lat="44.6779" lon="6.65862">
        <ele>1509.41</ele>
        <time>2012-06-10T11:42:19.000Z</time>
      </trkpt>
      <trkpt lat="44.6778" lon="6.65867">
        <ele>1506.04</ele>
        <time>2012-06-10T11:42:21.000Z</time>
      </trkpt>
      <trkpt lat="44.67768" lon="6.65872">
        <ele>1503.16</ele>
        <time>2012-06-10T11:42:23.000Z</time>
      </trkpt>
      <trkpt lat="44.67761" lon="6.65875">
        <ele>1502.68</ele>
        <time>2012-06-10T11:42:24.000Z</time>
      </trkpt>
      <trkpt lat="44.67728" lon="6.65881">
        <ele>1498.83</ele>
        <time>2012-06-10T11:42:29.000Z</time>
      </trkpt>
      <trkpt lat="44.67707" lon="6.65885">
        <ele>1493.55</ele>
        <time>2012-06-10T11:42:32.000Z</time>
      </trkpt>
      <trkpt lat="44.67699" lon="6.65888">
        <ele>1491.62</ele>
        <time>2012-06-10T11:42:33.000Z</time>
      </trkpt>
      <trkpt lat="44.67681" lon="6.659">
        <ele>1485.85</ele>
        <time>2012-06-10T11:42:36.000Z</time>
      </trkpt>
      <trkpt lat="44.67665" lon="6.65908">
        <ele>1481.05</ele>
        <time>2012-06-10T11:42:39.000Z</time>
      </trkpt>
      <trkpt lat="44.67659" lon="6.65911">
        <ele>1479.13</ele>
        <time>2012-06-10T11:42:40.000Z</time>
      </trkpt>
      <trkpt lat="44.67635" lon="6.65912">
        <ele>1473.84</ele>
        <time>2012-06-10T11:42:43.000Z</time>
      </trkpt>
      <trkpt lat="44.67621" lon="6.65913">
        <ele>1470.95</ele>
        <time>2012-06-10T11:42:45.000Z</time>
      </trkpt>
      <trkpt lat="44.67606" lon="6.65919">
        <ele>1470.47</ele>
        <time>2012-06-10T11:42:48.000Z</time>
      </trkpt>
      <trkpt lat="44.67594" lon="6.65936">
        <ele>1465.19</ele>
        <time>2012-06-10T11:42:52.000Z</time>
      </trkpt>
      <trkpt lat="44.67586" lon="6.65951">
        <ele>1459.9</ele>
        <time>2012-06-10T11:42:57.000Z</time>
      </trkpt>
      <trkpt lat="44.67585" lon="6.65955">
        <ele>1457.98</ele>
        <time>2012-06-10T11:43:00.000Z</time>
      </trkpt>
      <trkpt lat="44.6758" lon="6.65968">
        <ele>1454.13</ele>
        <time>2012-06-10T11:43:03.000Z</time>
      </trkpt>
      <trkpt lat="44.67577" lon="6.65979">
        <ele>1451.25</ele>
        <time>2012-06-10T11:43:05.000Z</time>
      </trkpt>
      <trkpt lat="44.67576" lon="6.65985">
        <ele>1451.25</ele>
        <time>2012-06-10T11:43:06.000Z</time>
      </trkpt>
      <trkpt lat="44.67573" lon="6.65994">
        <ele>1448.84</ele>
        <time>2012-06-10T11:43:09.000Z</time>
      </trkpt>
      <trkpt lat="44.67569" lon="6.66005">
        <ele>1445.48</ele>
        <time>2012-06-10T11:43:12.000Z</time>
      </trkpt>
      <trkpt lat="44.6757" lon="6.66021">
        <ele>1442.11</ele>
        <time>2012-06-10T11:43:18.000Z</time>
      </trkpt>
      <trkpt lat="44.67568" lon="6.66029">
        <ele>1439.23</ele>
        <time>2012-06-10T11:43:25.000Z</time>
      </trkpt>
      <trkpt lat="44.67568" lon="6.6603">
        <ele>1439.23</ele>
        <time>2012-06-10T11:43:26.000Z</time>
      </trkpt>
      <trkpt lat="44.67561" lon="6.66024">
        <ele>1435.87</ele>
        <time>2012-06-10T11:43:31.000Z</time>
      </trkpt>
      <trkpt lat="44.67556" lon="6.66026">
        <ele>1432.98</ele>
        <time>2012-06-10T11:43:35.000Z</time>
      </trkpt>
      <trkpt lat="44.67555" lon="6.66026">
        <ele>1432.98</ele>
        <time>2012-06-10T11:43:36.000Z</time>
      </trkpt>
      <trkpt lat="44.67556" lon="6.6602">
        <ele>1431.06</ele>
        <time>2012-06-10T11:43:40.000Z</time>
      </trkpt>
      <trkpt lat="44.67549" lon="6.66018">
        <ele>1427.21</ele>
        <time>2012-06-10T11:43:46.000Z</time>
      </trkpt>
      <trkpt lat="44.67545" lon="6.66022">
        <ele>1424.81</ele>
        <time>2012-06-10T11:43:51.000Z</time>
      </trkpt>
      <trkpt lat="44.67545" lon="6.66022">
        <ele>1423.85</ele>
        <time>2012-06-10T11:43:52.000Z</time>
      </trkpt>
      <trkpt lat="44.67543" lon="6.66015">
        <ele>1422.89</ele>
        <time>2012-06-10T11:43:56.000Z</time>
      </trkpt>
      <trkpt lat="44.67537" lon="6.66024">
        <ele>1419.04</ele>
        <time>2012-06-10T11:44:03.000Z</time>
      </trkpt>
      <trkpt lat="44.67532" lon="6.66019">
        <ele>1416.16</ele>
        <time>2012-06-10T11:44:07.000Z</time>
      </trkpt>
      <trkpt lat="44.67526" lon="6.65995">
        <ele>1411.83</ele>
        <time>2012-06-10T11:44:12.000Z</time>
      </trkpt>
      <trkpt lat="44.67524" lon="6.65976">
        <ele>1408.95</ele>
        <time>2012-06-10T11:44:16.000Z</time>
      </trkpt>
      <trkpt lat="44.67523" lon="6.65963">
        <ele>1405.58</ele>
        <time>2012-06-10T11:44:19.000Z</time>
      </trkpt>
      <trkpt lat="44.67523" lon="6.65961">
        <ele>1404.62</ele>
        <time>2012-06-10T11:44:20.000Z</time>
      </trkpt>
      <trkpt lat="44.67524" lon="6.65955">
        <ele>1405.1</ele>
        <time>2012-06-10T11:44:23.000Z</time>
      </trkpt>
      <trkpt lat="44.67524" lon="6.65948">
        <ele>1403.66</ele>
        <time>2012-06-10T11:44:26.000Z</time>
      </trkpt>
      <trkpt lat="44.67522" lon="6.65942">
        <ele>1402.7</ele>
        <time>2012-06-10T11:44:30.000Z</time>
      </trkpt>
      <trkpt lat="44.67519" lon="6.65937">
        <ele>1399.34</ele>
        <time>2012-06-10T11:44:40.000Z</time>
      </trkpt>
      <trkpt lat="44.67517" lon="6.65929">
        <ele>1397.41</ele>
        <time>2012-06-10T11:44:43.000Z</time>
      </trkpt>
      <trkpt lat="44.67513" lon="6.65926">
        <ele>1395.01</ele>
        <time>2012-06-10T11:44:48.000Z</time>
      </trkpt>
      <trkpt lat="44.67512" lon="6.65915">
        <ele>1393.09</ele>
        <time>2012-06-10T11:44:53.000Z</time>
      </trkpt>
      <trkpt lat="44.67507" lon="6.65913">
        <ele>1389.72</ele>
        <time>2012-06-10T11:44:57.000Z</time>
      </trkpt>
      <trkpt lat="44.67503" lon="6.65918">
        <ele>1388.28</ele>
        <time>2012-06-10T11:45:00.000Z</time>
      </trkpt>
      <trkpt lat="44.67501" lon="6.65918">
        <ele>1387.8</ele>
        <time>2012-06-10T11:45:01.000Z</time>
      </trkpt>
      <trkpt lat="44.675" lon="6.65915">
        <ele>1386.36</ele>
        <time>2012-06-10T11:45:03.000Z</time>
      </trkpt>
      <trkpt lat="44.67496" lon="6.65902">
        <ele>1382.99</ele>
        <time>2012-06-10T11:45:07.000Z</time>
      </trkpt>
      <trkpt lat="44.67493" lon="6.659">
        <ele>1380.59</ele>
        <time>2012-06-10T11:45:10.000Z</time>
      </trkpt>
      <trkpt lat="44.67491" lon="6.659">
        <ele>1379.63</ele>
        <time>2012-06-10T11:45:13.000Z</time>
      </trkpt>
      <trkpt lat="44.67487" lon="6.65894">
        <ele>1377.23</ele>
        <time>2012-06-10T11:45:17.000Z</time>
      </trkpt>
      <trkpt lat="44.67485" lon="6.65895">
        <ele>1376.75</ele>
        <time>2012-06-10T11:45:19.000Z</time>
      </trkpt>
      <trkpt lat="44.67483" lon="6.65909">
        <ele>1373.38</ele>
        <time>2012-06-10T11:45:24.000Z</time>
      </trkpt>
      <trkpt lat="44.67483" lon="6.65918">
        <ele>1372.42</ele>
        <time>2012-06-10T11:45:26.000Z</time>
      </trkpt>
      <trkpt lat="44.67485" lon="6.65929">
        <ele>1373.38</ele>
        <time>2012-06-10T11:45:30.000Z</time>
      </trkpt>
      <trkpt lat="44.67488" lon="6.65938">
        <ele>1373.38</ele>
        <time>2012-06-10T11:45:33.000Z</time>
      </trkpt>
      <trkpt lat="44.67479" lon="6.6599">
        <ele>1373.86</ele>
        <time>2012-06-10T11:45:46.000Z</time>
      </trkpt>
      <trkpt lat="44.67484" lon="6.66039">
        <ele>1374.82</ele>
        <time>2012-06-10T11:45:58.000Z</time>
      </trkpt>
      <trkpt lat="44.67513" lon="6.66074">
        <ele>1376.75</ele>
        <time>2012-06-10T11:46:11.000Z</time>
      </trkpt>
      <trkpt lat="44.67526" lon="6.66096">
        <ele>1377.23</ele>
        <time>2012-06-10T11:46:18.000Z</time>
      </trkpt>
      <trkpt lat="44.67538" lon="6.66154">
        <ele>1378.67</ele>
        <time>2012-06-10T11:46:33.000Z</time>
      </trkpt>
      <trkpt lat="44.67565" lon="6.66169">
        <ele>1379.63</ele>
        <time>2012-06-10T11:46:43.000Z</time>
      </trkpt>
      <trkpt lat="44.67598" lon="6.66203">
        <ele>1379.63</ele>
        <time>2012-06-10T11:46:54.000Z</time>
      </trkpt>
      <trkpt lat="44.676" lon="6.66208">
        <ele>1379.63</ele>
        <time>2012-06-10T11:46:55.000Z</time>
      </trkpt>
      <trkpt lat="44.67601" lon="6.66214">
        <ele>1379.15</ele>
        <time>2012-06-10T11:46:56.000Z</time>
      </trkpt>
      <trkpt lat="44.67601" lon="6.66219">
        <ele>1379.15</ele>
        <time>2012-06-10T11:46:57.000Z</time>
      </trkpt>
      <trkpt lat="44.67601" lon="6.66225">
        <ele>1380.11</ele>
        <time>2012-06-10T11:46:58.000Z</time>
      </trkpt>
      <trkpt lat="44.67598" lon="6.66229">
        <ele>1379.63</ele>
        <time>2012-06-10T11:46:59.000Z</time>
      </trkpt>
      <trkpt lat="44.67596" lon="6.66233">
        <ele>1379.63</ele>
        <time>2012-06-10T11:47:00.000Z</time>
      </trkpt>
      <trkpt lat="44.67592" lon="6.66235">
        <ele>1380.11</ele>
        <time>2012-06-10T11:47:01.000Z</time>
      </trkpt>
      <trkpt lat="44.67589" lon="6.66238">
        <ele>1379.63</ele>
        <time>2012-06-10T11:47:02.000Z</time>
      </trkpt>
      <trkpt lat="44.67587" lon="6.66241">
        <ele>1379.63</ele>
        <time>2012-06-10T11:47:03.000Z</time>
      </trkpt>
      <trkpt lat="44.67584" lon="6.66245">
        <ele>1380.11</ele>
        <time>2012-06-10T11:47:04.000Z</time>
      </trkpt>
      <trkpt lat="44.67581" lon="6.66249">
        <ele>1380.11</ele>
        <time>2012-06-10T11:47:05.000Z</time>
      </trkpt>
      <trkpt lat="44.67579" lon="6.66254">
        <ele>1380.11</ele>
        <time>2012-06-10T11:47:06.000Z</time>
      </trkpt>
      <trkpt lat="44.67579" lon="6.66259">
        <ele>1380.11</ele>
        <time>2012-06-10T11:47:07.000Z</time>
      </trkpt>
      <trkpt lat="44.67578" lon="6.66266">
        <ele>1380.59</ele>
        <time>2012-06-10T11:47:08.000Z</time>
      </trkpt>
      <trkpt lat="44.67579" lon="6.66279">
        <ele>1380.11</ele>
        <time>2012-06-10T11:47:10.000Z</time>
      </trkpt>
      <trkpt lat="44.67577" lon="6.66336">
        <ele>1382.03</ele>
        <time>2012-06-10T11:47:20.000Z</time>
      </trkpt>
      <trkpt lat="44.67572" lon="6.66383">
        <ele>1383.47</ele>
        <time>2012-06-10T11:47:31.000Z</time>
      </trkpt>
      <trkpt lat="44.67564" lon="6.66433">
        <ele>1384.92</ele>
        <time>2012-06-10T11:47:44.000Z</time>
      </trkpt>
      <trkpt lat="44.6754" lon="6.66466">
        <ele>1387.8</ele>
        <time>2012-06-10T11:47:57.000Z</time>
      </trkpt>
      <trkpt lat="44.67515" lon="6.66498">
        <ele>1388.76</ele>
        <time>2012-06-10T11:48:09.000Z</time>
      </trkpt>
      <trkpt lat="44.67513" lon="6.66504">
        <ele>1388.76</ele>
        <time>2012-06-10T11:48:10.000Z</time>
      </trkpt>
      <trkpt lat="44.6751" lon="6.6651">
        <ele>1387.8</ele>
        <time>2012-06-10T11:48:11.000Z</time>
      </trkpt>
      <trkpt lat="44.67508" lon="6.66518">
        <ele>1387.8</ele>
        <time>2012-06-10T11:48:12.000Z</time>
      </trkpt>
      <trkpt lat="44.67507" lon="6.66527">
        <ele>1386.84</ele>
        <time>2012-06-10T11:48:13.000Z</time>
      </trkpt>
      <trkpt lat="44.67503" lon="6.66558">
        <ele>1385.4</ele>
        <time>2012-06-10T11:48:16.000Z</time>
      </trkpt>
      <trkpt lat="44.67495" lon="6.66601">
        <ele>1382.99</ele>
        <time>2012-06-10T11:48:20.000Z</time>
      </trkpt>
      <trkpt lat="44.67491" lon="6.66622">
        <ele>1382.03</ele>
        <time>2012-06-10T11:48:22.000Z</time>
      </trkpt>
      <trkpt lat="44.6749" lon="6.66632">
        <ele>1381.55</ele>
        <time>2012-06-10T11:48:23.000Z</time>
      </trkpt>
      <trkpt lat="44.6749" lon="6.66649">
        <ele>1381.07</ele>
        <time>2012-06-10T11:48:25.000Z</time>
      </trkpt>
      <trkpt lat="44.67489" lon="6.66656">
        <ele>1380.11</ele>
        <time>2012-06-10T11:48:26.000Z</time>
      </trkpt>
      <trkpt lat="44.67487" lon="6.66658">
        <ele>1379.63</ele>
        <time>2012-06-10T11:48:27.000Z</time>
      </trkpt>
      <trkpt lat="44.67485" lon="6.66656">
        <ele>1379.15</ele>
        <time>2012-06-10T11:48:28.000Z</time>
      </trkpt>
      <trkpt lat="44.67482" lon="6.6665">
        <ele>1378.67</ele>
        <time>2012-06-10T11:48:29.000Z</time>
      </trkpt>
      <trkpt lat="44.67479" lon="6.66643">
        <ele>1378.19</ele>
        <time>2012-06-10T11:48:30.000Z</time>
      </trkpt>
      <trkpt lat="44.67477" lon="6.66634">
        <ele>1378.19</ele>
        <time>2012-06-10T11:48:31.000Z</time>
      </trkpt>
      <trkpt lat="44.67468" lon="6.66587">
        <ele>1375.3</ele>
        <time>2012-06-10T11:48:36.000Z</time>
      </trkpt>
      <trkpt lat="44.67469" lon="6.66579">
        <ele>1374.82</ele>
        <time>2012-06-10T11:48:37.000Z</time>
      </trkpt>
      <trkpt lat="44.6747" lon="6.66567">
        <ele>1373.86</ele>
        <time>2012-06-10T11:48:39.000Z</time>
      </trkpt>
      <trkpt lat="44.67467" lon="6.66564">
        <ele>1372.42</ele>
        <time>2012-06-10T11:48:40.000Z</time>
      </trkpt>
      <trkpt lat="44.67464" lon="6.66565">
        <ele>1371.94</ele>
        <time>2012-06-10T11:48:41.000Z</time>
      </trkpt>
      <trkpt lat="44.67461" lon="6.66569">
        <ele>1371.94</ele>
        <time>2012-06-10T11:48:42.000Z</time>
      </trkpt>
      <trkpt lat="44.67459" lon="6.66574">
        <ele>1371.46</ele>
        <time>2012-06-10T11:48:43.000Z</time>
      </trkpt>
      <trkpt lat="44.67458" lon="6.66581">
        <ele>1370.5</ele>
        <time>2012-06-10T11:48:44.000Z</time>
      </trkpt>
      <trkpt lat="44.67456" lon="6.66588">
        <ele>1370.5</ele>
        <time>2012-06-10T11:48:45.000Z</time>
      </trkpt>
      <trkpt lat="44.67446" lon="6.66623">
        <ele>1368.57</ele>
        <time>2012-06-10T11:48:49.000Z</time>
      </trkpt>
      <trkpt lat="44.67442" lon="6.66631">
        <ele>1368.57</ele>
        <time>2012-06-10T11:48:50.000Z</time>
      </trkpt>
      <trkpt lat="44.67436" lon="6.66638">
        <ele>1368.57</ele>
        <time>2012-06-10T11:48:51.000Z</time>
      </trkpt>
      <trkpt lat="44.67429" lon="6.66643">
        <ele>1368.09</ele>
        <time>2012-06-10T11:48:52.000Z</time>
      </trkpt>
      <trkpt lat="44.67422" lon="6.66646">
        <ele>1367.13</ele>
        <time>2012-06-10T11:48:53.000Z</time>
      </trkpt>
      <trkpt lat="44.67416" lon="6.66649">
        <ele>1366.65</ele>
        <time>2012-06-10T11:48:54.000Z</time>
      </trkpt>
      <trkpt lat="44.6741" lon="6.66654">
        <ele>1365.69</ele>
        <time>2012-06-10T11:48:55.000Z</time>
      </trkpt>
      <trkpt lat="44.67407" lon="6.66661">
        <ele>1365.21</ele>
        <time>2012-06-10T11:48:56.000Z</time>
      </trkpt>
      <trkpt lat="44.67405" lon="6.66671">
        <ele>1364.73</ele>
        <time>2012-06-10T11:48:57.000Z</time>
      </trkpt>
      <trkpt lat="44.67405" lon="6.6668">
        <ele>1364.25</ele>
        <time>2012-06-10T11:48:58.000Z</time>
      </trkpt>
      <trkpt lat="44.67405" lon="6.6669">
        <ele>1363.29</ele>
        <time>2012-06-10T11:48:59.000Z</time>
      </trkpt>
      <trkpt lat="44.67405" lon="6.667">
        <ele>1363.29</ele>
        <time>2012-06-10T11:49:00.000Z</time>
      </trkpt>
      <trkpt lat="44.67407" lon="6.6671">
        <ele>1362.33</ele>
        <time>2012-06-10T11:49:01.000Z</time>
      </trkpt>
      <trkpt lat="44.67417" lon="6.66767">
        <ele>1359.44</ele>
        <time>2012-06-10T11:49:06.000Z</time>
      </trkpt>
      <trkpt lat="44.67417" lon="6.66779">
        <ele>1358.48</ele>
        <time>2012-06-10T11:49:07.000Z</time>
      </trkpt>
      <trkpt lat="44.67416" lon="6.6679">
        <ele>1358</ele>
        <time>2012-06-10T11:49:08.000Z</time>
      </trkpt>
      <trkpt lat="44.67414" lon="6.66802">
        <ele>1357.52</ele>
        <time>2012-06-10T11:49:09.000Z</time>
      </trkpt>
      <trkpt lat="44.67413" lon="6.66813">
        <ele>1357.04</ele>
        <time>2012-06-10T11:49:10.000Z</time>
      </trkpt>
      <trkpt lat="44.6741" lon="6.66832">
        <ele>1354.63</ele>
        <time>2012-06-10T11:49:12.000Z</time>
      </trkpt>
      <trkpt lat="44.6741" lon="6.66839">
        <ele>1355.12</ele>
        <time>2012-06-10T11:49:13.000Z</time>
      </trkpt>
      <trkpt lat="44.67411" lon="6.66843">
        <ele>1354.15</ele>
        <time>2012-06-10T11:49:14.000Z</time>
      </trkpt>
      <trkpt lat="44.67411" lon="6.66846">
        <ele>1353.67</ele>
        <time>2012-06-10T11:49:15.000Z</time>
      </trkpt>
      <trkpt lat="44.67411" lon="6.66847">
        <ele>1353.19</ele>
        <time>2012-06-10T11:49:16.000Z</time>
      </trkpt>
      <trkpt lat="44.67405" lon="6.66841">
        <ele>1351.27</ele>
        <time>2012-06-10T11:49:21.000Z</time>
      </trkpt>
      <trkpt lat="44.67403" lon="6.66833">
        <ele>1350.31</ele>
        <time>2012-06-10T11:49:23.000Z</time>
      </trkpt>
      <trkpt lat="44.67399" lon="6.66823">
        <ele>1348.39</ele>
        <time>2012-06-10T11:49:25.000Z</time>
      </trkpt>
      <trkpt lat="44.67398" lon="6.66817">
        <ele>1348.39</ele>
        <time>2012-06-10T11:49:26.000Z</time>
      </trkpt>
      <trkpt lat="44.67397" lon="6.6681">
        <ele>1346.46</ele>
        <time>2012-06-10T11:49:27.000Z</time>
      </trkpt>
      <trkpt lat="44.67396" lon="6.66804">
        <ele>1345.98</ele>
        <time>2012-06-10T11:49:28.000Z</time>
      </trkpt>
      <trkpt lat="44.67393" lon="6.66798">
        <ele>1345.02</ele>
        <time>2012-06-10T11:49:29.000Z</time>
      </trkpt>
      <trkpt lat="44.67391" lon="6.66792">
        <ele>1344.54</ele>
        <time>2012-06-10T11:49:30.000Z</time>
      </trkpt>
      <trkpt lat="44.67385" lon="6.66779">
        <ele>1343.58</ele>
        <time>2012-06-10T11:49:32.000Z</time>
      </trkpt>
      <trkpt lat="44.67383" lon="6.66773">
        <ele>1344.06</ele>
        <time>2012-06-10T11:49:33.000Z</time>
      </trkpt>
      <trkpt lat="44.67381" lon="6.66767">
        <ele>1344.06</ele>
        <time>2012-06-10T11:49:34.000Z</time>
      </trkpt>
      <trkpt lat="44.67376" lon="6.66748">
        <ele>1342.62</ele>
        <time>2012-06-10T11:49:37.000Z</time>
      </trkpt>
      <trkpt lat="44.67374" lon="6.66736">
        <ele>1342.14</ele>
        <time>2012-06-10T11:49:39.000Z</time>
      </trkpt>
      <trkpt lat="44.67369" lon="6.66725">
        <ele>1341.18</ele>
        <time>2012-06-10T11:49:41.000Z</time>
      </trkpt>
      <trkpt lat="44.67365" lon="6.66719">
        <ele>1340.7</ele>
        <time>2012-06-10T11:49:42.000Z</time>
      </trkpt>
      <trkpt lat="44.67362" lon="6.66712">
        <ele>1339.73</ele>
        <time>2012-06-10T11:49:43.000Z</time>
      </trkpt>
      <trkpt lat="44.67359" lon="6.66705">
        <ele>1338.77</ele>
        <time>2012-06-10T11:49:44.000Z</time>
      </trkpt>
      <trkpt lat="44.67356" lon="6.66699">
        <ele>1338.77</ele>
        <time>2012-06-10T11:49:45.000Z</time>
      </trkpt>
      <trkpt lat="44.67354" lon="6.66692">
        <ele>1337.81</ele>
        <time>2012-06-10T11:49:46.000Z</time>
      </trkpt>
      <trkpt lat="44.67353" lon="6.66686">
        <ele>1336.37</ele>
        <time>2012-06-10T11:49:47.000Z</time>
      </trkpt>
      <trkpt lat="44.6735" lon="6.66681">
        <ele>1334.45</ele>
        <time>2012-06-10T11:49:48.000Z</time>
      </trkpt>
      <trkpt lat="44.67348" lon="6.66676">
        <ele>1333.97</ele>
        <time>2012-06-10T11:49:49.000Z</time>
      </trkpt>
      <trkpt lat="44.67347" lon="6.66669">
        <ele>1332.52</ele>
        <time>2012-06-10T11:49:50.000Z</time>
      </trkpt>
      <trkpt lat="44.67347" lon="6.66662">
        <ele>1331.08</ele>
        <time>2012-06-10T11:49:51.000Z</time>
      </trkpt>
      <trkpt lat="44.67346" lon="6.66657">
        <ele>1330.6</ele>
        <time>2012-06-10T11:49:52.000Z</time>
      </trkpt>
      <trkpt lat="44.67345" lon="6.66653">
        <ele>1328.2</ele>
        <time>2012-06-10T11:49:53.000Z</time>
      </trkpt>
      <trkpt lat="44.67343" lon="6.66652">
        <ele>1327.72</ele>
        <time>2012-06-10T11:49:54.000Z</time>
      </trkpt>
      <trkpt lat="44.67341" lon="6.66653">
        <ele>1327.24</ele>
        <time>2012-06-10T11:49:55.000Z</time>
      </trkpt>
      <trkpt lat="44.67339" lon="6.66654">
        <ele>1326.76</ele>
        <time>2012-06-10T11:49:56.000Z</time>
      </trkpt>
      <trkpt lat="44.67337" lon="6.66656">
        <ele>1325.8</ele>
        <time>2012-06-10T11:49:57.000Z</time>
      </trkpt>
      <trkpt lat="44.67335" lon="6.66656">
        <ele>1324.35</ele>
        <time>2012-06-10T11:49:59.000Z</time>
      </trkpt>
      <trkpt lat="44.67335" lon="6.66648">
        <ele>1323.87</ele>
        <time>2012-06-10T11:50:01.000Z</time>
      </trkpt>
      <trkpt lat="44.67335" lon="6.66643">
        <ele>1323.39</ele>
        <time>2012-06-10T11:50:02.000Z</time>
      </trkpt>
      <trkpt lat="44.67336" lon="6.66637">
        <ele>1322.91</ele>
        <time>2012-06-10T11:50:03.000Z</time>
      </trkpt>
      <trkpt lat="44.67336" lon="6.6663">
        <ele>1321.95</ele>
        <time>2012-06-10T11:50:04.000Z</time>
      </trkpt>
      <trkpt lat="44.67337" lon="6.66617">
        <ele>1318.1</ele>
        <time>2012-06-10T11:50:06.000Z</time>
      </trkpt>
      <trkpt lat="44.67339" lon="6.66603">
        <ele>1316.18</ele>
        <time>2012-06-10T11:50:08.000Z</time>
      </trkpt>
      <trkpt lat="44.6734" lon="6.6659">
        <ele>1313.3</ele>
        <time>2012-06-10T11:50:10.000Z</time>
      </trkpt>
      <trkpt lat="44.67339" lon="6.66584">
        <ele>1312.82</ele>
        <time>2012-06-10T11:50:11.000Z</time>
      </trkpt>
      <trkpt lat="44.67339" lon="6.66572">
        <ele>1309.93</ele>
        <time>2012-06-10T11:50:13.000Z</time>
      </trkpt>
      <trkpt lat="44.67337" lon="6.66565">
        <ele>1308.01</ele>
        <time>2012-06-10T11:50:14.000Z</time>
      </trkpt>
      <trkpt lat="44.67337" lon="6.66559">
        <ele>1306.09</ele>
        <time>2012-06-10T11:50:15.000Z</time>
      </trkpt>
      <trkpt lat="44.67336" lon="6.66551">
        <ele>1305.61</ele>
        <time>2012-06-10T11:50:16.000Z</time>
      </trkpt>
      <trkpt lat="44.67335" lon="6.66544">
        <ele>1303.69</ele>
        <time>2012-06-10T11:50:17.000Z</time>
      </trkpt>
      <trkpt lat="44.67334" lon="6.66521">
        <ele>1300.32</ele>
        <time>2012-06-10T11:50:20.000Z</time>
      </trkpt>
      <trkpt lat="44.67334" lon="6.66514">
        <ele>1298.88</ele>
        <time>2012-06-10T11:50:21.000Z</time>
      </trkpt>
      <trkpt lat="44.67334" lon="6.66506">
        <ele>1297.44</ele>
        <time>2012-06-10T11:50:22.000Z</time>
      </trkpt>
      <trkpt lat="44.67333" lon="6.66498">
        <ele>1296.48</ele>
        <time>2012-06-10T11:50:23.000Z</time>
      </trkpt>
      <trkpt lat="44.67331" lon="6.66491">
        <ele>1296.48</ele>
        <time>2012-06-10T11:50:24.000Z</time>
      </trkpt>
      <trkpt lat="44.67329" lon="6.66484">
        <ele>1294.55</ele>
        <time>2012-06-10T11:50:25.000Z</time>
      </trkpt>
      <trkpt lat="44.67327" lon="6.66476">
        <ele>1293.11</ele>
        <time>2012-06-10T11:50:26.000Z</time>
      </trkpt>
      <trkpt lat="44.67326" lon="6.66468">
        <ele>1291.19</ele>
        <time>2012-06-10T11:50:27.000Z</time>
      </trkpt>
      <trkpt lat="44.67326" lon="6.66459">
        <ele>1290.71</ele>
        <time>2012-06-10T11:50:28.000Z</time>
      </trkpt>
      <trkpt lat="44.67325" lon="6.66443">
        <ele>1288.3</ele>
        <time>2012-06-10T11:50:30.000Z</time>
      </trkpt>
      <trkpt lat="44.67325" lon="6.66435">
        <ele>1287.82</ele>
        <time>2012-06-10T11:50:31.000Z</time>
      </trkpt>
      <trkpt lat="44.67326" lon="6.66419">
        <ele>1286.38</ele>
        <time>2012-06-10T11:50:33.000Z</time>
      </trkpt>
      <trkpt lat="44.67326" lon="6.66413">
        <ele>1286.38</ele>
        <time>2012-06-10T11:50:34.000Z</time>
      </trkpt>
      <trkpt lat="44.67326" lon="6.66409">
        <ele>1287.34</ele>
        <time>2012-06-10T11:50:35.000Z</time>
      </trkpt>
      <trkpt lat="44.67327" lon="6.66407">
        <ele>1287.82</ele>
        <time>2012-06-10T11:50:36.000Z</time>
      </trkpt>
      <trkpt lat="44.67327" lon="6.66404">
        <ele>1287.34</ele>
        <time>2012-06-10T11:50:37.000Z</time>
      </trkpt>
      <trkpt lat="44.67328" lon="6.664">
        <ele>1287.34</ele>
        <time>2012-06-10T11:50:38.000Z</time>
      </trkpt>
      <trkpt lat="44.67333" lon="6.66381">
        <ele>1283.98</ele>
        <time>2012-06-10T11:50:42.000Z</time>
      </trkpt>
      <trkpt lat="44.67339" lon="6.66366">
        <ele>1280.61</ele>
        <time>2012-06-10T11:50:45.000Z</time>
      </trkpt>
      <trkpt lat="44.67341" lon="6.66363">
        <ele>1279.65</ele>
        <time>2012-06-10T11:50:46.000Z</time>
      </trkpt>
      <trkpt lat="44.67349" lon="6.66355">
        <ele>1275.81</ele>
        <time>2012-06-10T11:50:49.000Z</time>
      </trkpt>
      <trkpt lat="44.6735" lon="6.66351">
        <ele>1275.81</ele>
        <time>2012-06-10T11:50:50.000Z</time>
      </trkpt>
      <trkpt lat="44.67351" lon="6.66347">
        <ele>1274.85</ele>
        <time>2012-06-10T11:50:51.000Z</time>
      </trkpt>
      <trkpt lat="44.67351" lon="6.66337">
        <ele>1273.88</ele>
        <time>2012-06-10T11:50:54.000Z</time>
      </trkpt>
      <trkpt lat="44.67351" lon="6.66334">
        <ele>1273.4</ele>
        <time>2012-06-10T11:50:55.000Z</time>
      </trkpt>
      <trkpt lat="44.67351" lon="6.6633">
        <ele>1272.92</ele>
        <time>2012-06-10T11:50:56.000Z</time>
      </trkpt>
      <trkpt lat="44.67352" lon="6.66327">
        <ele>1271.48</ele>
        <time>2012-06-10T11:50:57.000Z</time>
      </trkpt>
      <trkpt lat="44.67353" lon="6.66323">
        <ele>1271.48</ele>
        <time>2012-06-10T11:50:58.000Z</time>
      </trkpt>
      <trkpt lat="44.67354" lon="6.66319">
        <ele>1269.56</ele>
        <time>2012-06-10T11:50:59.000Z</time>
      </trkpt>
      <trkpt lat="44.67355" lon="6.66313">
        <ele>1269.08</ele>
        <time>2012-06-10T11:51:00.000Z</time>
      </trkpt>
      <trkpt lat="44.67357" lon="6.66307">
        <ele>1267.64</ele>
        <time>2012-06-10T11:51:01.000Z</time>
      </trkpt>
      <trkpt lat="44.67358" lon="6.663">
        <ele>1267.16</ele>
        <time>2012-06-10T11:51:02.000Z</time>
      </trkpt>
      <trkpt lat="44.6736" lon="6.66294">
        <ele>1266.67</ele>
        <time>2012-06-10T11:51:03.000Z</time>
      </trkpt>
      <trkpt lat="44.67362" lon="6.66288">
        <ele>1266.19</ele>
        <time>2012-06-10T11:51:04.000Z</time>
      </trkpt>
      <trkpt lat="44.67364" lon="6.66282">
        <ele>1264.75</ele>
        <time>2012-06-10T11:51:05.000Z</time>
      </trkpt>
      <trkpt lat="44.67365" lon="6.66276">
        <ele>1265.23</ele>
        <time>2012-06-10T11:51:06.000Z</time>
      </trkpt>
      <trkpt lat="44.67368" lon="6.6626">
        <ele>1261.87</ele>
        <time>2012-06-10T11:51:09.000Z</time>
      </trkpt>
      <trkpt lat="44.67368" lon="6.66252">
        <ele>1260.43</ele>
        <time>2012-06-10T11:51:11.000Z</time>
      </trkpt>
      <trkpt lat="44.67366" lon="6.66251">
        <ele>1259.94</ele>
        <time>2012-06-10T11:51:12.000Z</time>
      </trkpt>
      <trkpt lat="44.67365" lon="6.66252">
        <ele>1259.94</ele>
        <time>2012-06-10T11:51:13.000Z</time>
      </trkpt>
      <trkpt lat="44.67363" lon="6.66255">
        <ele>1258.5</ele>
        <time>2012-06-10T11:51:14.000Z</time>
      </trkpt>
      <trkpt lat="44.67361" lon="6.66258">
        <ele>1258.02</ele>
        <time>2012-06-10T11:51:15.000Z</time>
      </trkpt>
      <trkpt lat="44.6736" lon="6.66259">
        <ele>1257.06</ele>
        <time>2012-06-10T11:51:16.000Z</time>
      </trkpt>
      <trkpt lat="44.67361" lon="6.66243">
        <ele>1255.14</ele>
        <time>2012-06-10T11:51:20.000Z</time>
      </trkpt>
      <trkpt lat="44.67363" lon="6.66239">
        <ele>1254.18</ele>
        <time>2012-06-10T11:51:21.000Z</time>
      </trkpt>
      <trkpt lat="44.67365" lon="6.66234">
        <ele>1253.22</ele>
        <time>2012-06-10T11:51:22.000Z</time>
      </trkpt>
      <trkpt lat="44.67367" lon="6.66229">
        <ele>1253.7</ele>
        <time>2012-06-10T11:51:23.000Z</time>
      </trkpt>
      <trkpt lat="44.67369" lon="6.66223">
        <ele>1251.29</ele>
        <time>2012-06-10T11:51:24.000Z</time>
      </trkpt>
      <trkpt lat="44.67368" lon="6.66217">
        <ele>1250.81</ele>
        <time>2012-06-10T11:51:25.000Z</time>
      </trkpt>
      <trkpt lat="44.67367" lon="6.66212">
        <ele>1250.81</ele>
        <time>2012-06-10T11:51:26.000Z</time>
      </trkpt>
      <trkpt lat="44.67365" lon="6.66209">
        <ele>1250.33</ele>
        <time>2012-06-10T11:51:27.000Z</time>
      </trkpt>
      <trkpt lat="44.67362" lon="6.66206">
        <ele>1248.41</ele>
        <time>2012-06-10T11:51:28.000Z</time>
      </trkpt>
      <trkpt lat="44.67357" lon="6.662">
        <ele>1246.49</ele>
        <time>2012-06-10T11:51:30.000Z</time>
      </trkpt>
      <trkpt lat="44.67355" lon="6.66197">
        <ele>1245.53</ele>
        <time>2012-06-10T11:51:31.000Z</time>
      </trkpt>
      <trkpt lat="44.67353" lon="6.66195">
        <ele>1245.04</ele>
        <time>2012-06-10T11:51:32.000Z</time>
      </trkpt>
      <trkpt lat="44.67351" lon="6.66195">
        <ele>1242.64</ele>
        <time>2012-06-10T11:51:33.000Z</time>
      </trkpt>
      <trkpt lat="44.67349" lon="6.66193">
        <ele>1242.16</ele>
        <time>2012-06-10T11:51:34.000Z</time>
      </trkpt>
      <trkpt lat="44.67347" lon="6.66189">
        <ele>1241.68</ele>
        <time>2012-06-10T11:51:35.000Z</time>
      </trkpt>
      <trkpt lat="44.67346" lon="6.66183">
        <ele>1240.72</ele>
        <time>2012-06-10T11:51:36.000Z</time>
      </trkpt>
      <trkpt lat="44.67345" lon="6.66178">
        <ele>1239.28</ele>
        <time>2012-06-10T11:51:37.000Z</time>
      </trkpt>
      <trkpt lat="44.67342" lon="6.66163">
        <ele>1236.39</ele>
        <time>2012-06-10T11:51:40.000Z</time>
      </trkpt>
      <trkpt lat="44.67336" lon="6.66147">
        <ele>1233.51</ele>
        <time>2012-06-10T11:51:43.000Z</time>
      </trkpt>
      <trkpt lat="44.67336" lon="6.66142">
        <ele>1232.55</ele>
        <time>2012-06-10T11:51:44.000Z</time>
      </trkpt>
      <trkpt lat="44.67335" lon="6.6613">
        <ele>1231.11</ele>
        <time>2012-06-10T11:51:46.000Z</time>
      </trkpt>
      <trkpt lat="44.67328" lon="6.66115">
        <ele>1227.26</ele>
        <time>2012-06-10T11:51:50.000Z</time>
      </trkpt>
      <trkpt lat="44.67328" lon="6.6611">
        <ele>1226.78</ele>
        <time>2012-06-10T11:51:51.000Z</time>
      </trkpt>
      <trkpt lat="44.67332" lon="6.661">
        <ele>1222.93</ele>
        <time>2012-06-10T11:51:55.000Z</time>
      </trkpt>
      <trkpt lat="44.67333" lon="6.66098">
        <ele>1222.45</ele>
        <time>2012-06-10T11:51:56.000Z</time>
      </trkpt>
      <trkpt lat="44.67338" lon="6.6609">
        <ele>1221.49</ele>
        <time>2012-06-10T11:51:58.000Z</time>
      </trkpt>
      <trkpt lat="44.67339" lon="6.66075">
        <ele>1221.49</ele>
        <time>2012-06-10T11:52:03.000Z</time>
      </trkpt>
      <trkpt lat="44.6734" lon="6.66051">
        <ele>1220.05</ele>
        <time>2012-06-10T11:52:09.000Z</time>
      </trkpt>
      <trkpt lat="44.6734" lon="6.66036">
        <ele>1217.17</ele>
        <time>2012-06-10T11:52:13.000Z</time>
      </trkpt>
      <trkpt lat="44.67333" lon="6.66022">
        <ele>1214.28</ele>
        <time>2012-06-10T11:52:18.000Z</time>
      </trkpt>
      <trkpt lat="44.67329" lon="6.66015">
        <ele>1213.8</ele>
        <time>2012-06-10T11:52:20.000Z</time>
      </trkpt>
      <trkpt lat="44.67326" lon="6.66007">
        <ele>1211.4</ele>
        <time>2012-06-10T11:52:22.000Z</time>
      </trkpt>
      <trkpt lat="44.67312" lon="6.66">
        <ele>1209.96</ele>
        <time>2012-06-10T11:52:30.000Z</time>
      </trkpt>
      <trkpt lat="44.67305" lon="6.65985">
        <ele>1209.48</ele>
        <time>2012-06-10T11:52:34.000Z</time>
      </trkpt>
      <trkpt lat="44.67292" lon="6.65976">
        <ele>1207.07</ele>
        <time>2012-06-10T11:52:40.000Z</time>
      </trkpt>
      <trkpt lat="44.67286" lon="6.65978">
        <ele>1205.63</ele>
        <time>2012-06-10T11:52:45.000Z</time>
      </trkpt>
      <trkpt lat="44.67279" lon="6.65976">
        <ele>1203.23</ele>
        <time>2012-06-10T11:52:59.000Z</time>
      </trkpt>
      <trkpt lat="44.67279" lon="6.65976">
        <ele>1202.75</ele>
        <time>2012-06-10T11:53:15.000Z</time>
      </trkpt>
      <trkpt lat="44.6728" lon="6.65977">
        <ele>1204.67</ele>
        <time>2012-06-10T11:54:50.000Z</time>
      </trkpt>
      <trkpt lat="44.67274" lon="6.65976">
        <ele>1203.71</ele>
        <time>2012-06-10T11:55:18.000Z</time>
      </trkpt>
      <trkpt lat="44.67269" lon="6.65972">
        <ele>1202.75</ele>
        <time>2012-06-10T11:55:25.000Z</time>
      </trkpt>
      <trkpt lat="44.67262" lon="6.65974">
        <ele>1203.71</ele>
        <time>2012-06-10T11:55:37.000Z</time>
      </trkpt>
      <trkpt lat="44.67252" lon="6.65975">
        <ele>1202.75</ele>
        <time>2012-06-10T11:55:46.000Z</time>
      </trkpt>
      <trkpt lat="44.67251" lon="6.65974">
        <ele>1202.75</ele>
        <time>2012-06-10T11:55:47.000Z</time>
      </trkpt>
      <trkpt lat="44.67241" lon="6.65968">
        <ele>1202.27</ele>
        <time>2012-06-10T11:55:53.000Z</time>
      </trkpt>
      <trkpt lat="44.67218" lon="6.6595">
        <ele>1200.34</ele>
        <time>2012-06-10T11:55:59.000Z</time>
      </trkpt>
      <trkpt lat="44.67212" lon="6.65925">
        <ele>1197.46</ele>
        <time>2012-06-10T11:56:04.000Z</time>
      </trkpt>
      <trkpt lat="44.67202" lon="6.65919">
        <ele>1193.61</ele>
        <time>2012-06-10T11:56:07.000Z</time>
      </trkpt>
      <trkpt lat="44.67188" lon="6.65919">
        <ele>1191.69</ele>
        <time>2012-06-10T11:56:10.000Z</time>
      </trkpt>
      <trkpt lat="44.67176" lon="6.6592">
        <ele>1188.81</ele>
        <time>2012-06-10T11:56:13.000Z</time>
      </trkpt>
      <trkpt lat="44.67154" lon="6.65929">
        <ele>1184.48</ele>
        <time>2012-06-10T11:56:18.000Z</time>
      </trkpt>
      <trkpt lat="44.67151" lon="6.65927">
        <ele>1184.48</ele>
        <time>2012-06-10T11:56:19.000Z</time>
      </trkpt>
      <trkpt lat="44.67144" lon="6.65918">
        <ele>1183.04</ele>
        <time>2012-06-10T11:56:22.000Z</time>
      </trkpt>
      <trkpt lat="44.67137" lon="6.65924">
        <ele>1181.12</ele>
        <time>2012-06-10T11:56:26.000Z</time>
      </trkpt>
      <trkpt lat="44.67136" lon="6.65901">
        <ele>1177.27</ele>
        <time>2012-06-10T11:56:31.000Z</time>
      </trkpt>
      <trkpt lat="44.67138" lon="6.65897">
        <ele>1176.79</ele>
        <time>2012-06-10T11:56:32.000Z</time>
      </trkpt>
      <trkpt lat="44.67142" lon="6.65894">
        <ele>1176.31</ele>
        <time>2012-06-10T11:56:34.000Z</time>
      </trkpt>
      <trkpt lat="44.67149" lon="6.6589">
        <ele>1173.91</ele>
        <time>2012-06-10T11:56:36.000Z</time>
      </trkpt>
      <trkpt lat="44.67174" lon="6.65868">
        <ele>1168.14</ele>
        <time>2012-06-10T11:56:41.000Z</time>
      </trkpt>
      <trkpt lat="44.67179" lon="6.65863">
        <ele>1167.66</ele>
        <time>2012-06-10T11:56:42.000Z</time>
      </trkpt>
      <trkpt lat="44.67188" lon="6.65839">
        <ele>1164.29</ele>
        <time>2012-06-10T11:56:48.000Z</time>
      </trkpt>
      <trkpt lat="44.67186" lon="6.65831">
        <ele>1162.85</ele>
        <time>2012-06-10T11:56:49.000Z</time>
      </trkpt>
      <trkpt lat="44.67185" lon="6.65815">
        <ele>1161.89</ele>
        <time>2012-06-10T11:56:51.000Z</time>
      </trkpt>
      <trkpt lat="44.67192" lon="6.65803">
        <ele>1156.6</ele>
        <time>2012-06-10T11:56:55.000Z</time>
      </trkpt>
      <trkpt lat="44.67202" lon="6.65791">
        <ele>1153.24</ele>
        <time>2012-06-10T11:56:58.000Z</time>
      </trkpt>
      <trkpt lat="44.67207" lon="6.65766">
        <ele>1149.87</ele>
        <time>2012-06-10T11:57:02.000Z</time>
      </trkpt>
      <trkpt lat="44.67204" lon="6.65753">
        <ele>1147.47</ele>
        <time>2012-06-10T11:57:05.000Z</time>
      </trkpt>
      <trkpt lat="44.67203" lon="6.65748">
        <ele>1146.03</ele>
        <time>2012-06-10T11:57:06.000Z</time>
      </trkpt>
      <trkpt lat="44.67202" lon="6.65743">
        <ele>1145.07</ele>
        <time>2012-06-10T11:57:07.000Z</time>
      </trkpt>
      <trkpt lat="44.67202" lon="6.65725">
        <ele>1141.22</ele>
        <time>2012-06-10T11:57:11.000Z</time>
      </trkpt>
      <trkpt lat="44.672" lon="6.65713">
        <ele>1138.82</ele>
        <time>2012-06-10T11:57:14.000Z</time>
      </trkpt>
      <trkpt lat="44.67197" lon="6.65701">
        <ele>1134.97</ele>
        <time>2012-06-10T11:57:17.000Z</time>
      </trkpt>
      <trkpt lat="44.67194" lon="6.6568">
        <ele>1131.13</ele>
        <time>2012-06-10T11:57:23.000Z</time>
      </trkpt>
      <trkpt lat="44.67191" lon="6.65669">
        <ele>1127.76</ele>
        <time>2012-06-10T11:57:26.000Z</time>
      </trkpt>
      <trkpt lat="44.6719" lon="6.65655">
        <ele>1124.88</ele>
        <time>2012-06-10T11:57:30.000Z</time>
      </trkpt>
      <trkpt lat="44.67191" lon="6.6564">
        <ele>1121.03</ele>
        <time>2012-06-10T11:57:34.000Z</time>
      </trkpt>
      <trkpt lat="44.67191" lon="6.65637">
        <ele>1121.03</ele>
        <time>2012-06-10T11:57:35.000Z</time>
      </trkpt>
      <trkpt lat="44.67191" lon="6.6563">
        <ele>1119.11</ele>
        <time>2012-06-10T11:57:39.000Z</time>
      </trkpt>
      <trkpt lat="44.67188" lon="6.65631">
        <ele>1119.11</ele>
        <time>2012-06-10T11:57:42.000Z</time>
      </trkpt>
      <trkpt lat="44.67179" lon="6.6564">
        <ele>1115.75</ele>
        <time>2012-06-10T11:57:46.000Z</time>
      </trkpt>
      <trkpt lat="44.67178" lon="6.65641">
        <ele>1114.31</ele>
        <time>2012-06-10T11:57:47.000Z</time>
      </trkpt>
      <trkpt lat="44.67176" lon="6.6564">
        <ele>1113.34</ele>
        <time>2012-06-10T11:57:48.000Z</time>
      </trkpt>
      <trkpt lat="44.67176" lon="6.65638">
        <ele>1112.86</ele>
        <time>2012-06-10T11:57:49.000Z</time>
      </trkpt>
      <trkpt lat="44.67177" lon="6.65635">
        <ele>1112.38</ele>
        <time>2012-06-10T11:57:50.000Z</time>
      </trkpt>
      <trkpt lat="44.67178" lon="6.65632">
        <ele>1111.42</ele>
        <time>2012-06-10T11:57:51.000Z</time>
      </trkpt>
      <trkpt lat="44.67179" lon="6.65627">
        <ele>1110.94</ele>
        <time>2012-06-10T11:57:52.000Z</time>
      </trkpt>
      <trkpt lat="44.6718" lon="6.65623">
        <ele>1109.98</ele>
        <time>2012-06-10T11:57:53.000Z</time>
      </trkpt>
      <trkpt lat="44.67181" lon="6.65621">
        <ele>1109.5</ele>
        <time>2012-06-10T11:57:54.000Z</time>
      </trkpt>
      <trkpt lat="44.67183" lon="6.65619">
        <ele>1109.02</ele>
        <time>2012-06-10T11:57:55.000Z</time>
      </trkpt>
      <trkpt lat="44.67184" lon="6.65617">
        <ele>1109.02</ele>
        <time>2012-06-10T11:57:56.000Z</time>
      </trkpt>
      <trkpt lat="44.67187" lon="6.65611">
        <ele>1107.58</ele>
        <time>2012-06-10T11:58:02.000Z</time>
      </trkpt>
      <trkpt lat="44.67189" lon="6.65605">
        <ele>1107.1</ele>
        <time>2012-06-10T11:58:05.000Z</time>
      </trkpt>
      <trkpt lat="44.67189" lon="6.65602">
        <ele>1106.61</ele>
        <time>2012-06-10T11:58:08.000Z</time>
      </trkpt>
      <trkpt lat="44.67191" lon="6.65598">
        <ele>1103.73</ele>
        <time>2012-06-10T11:58:12.000Z</time>
      </trkpt>
      <trkpt lat="44.67192" lon="6.65597">
        <ele>1101.81</ele>
        <time>2012-06-10T11:58:24.000Z</time>
      </trkpt>
      <trkpt lat="44.67199" lon="6.65595">
        <ele>1098.92</ele>
        <time>2012-06-10T11:58:33.000Z</time>
      </trkpt>
      <trkpt lat="44.67201" lon="6.65592">
        <ele>1097</ele>
        <time>2012-06-10T11:58:35.000Z</time>
      </trkpt>
      <trkpt lat="44.67203" lon="6.65591">
        <ele>1096.52</ele>
        <time>2012-06-10T11:58:36.000Z</time>
      </trkpt>
      <trkpt lat="44.67204" lon="6.6559">
        <ele>1096.04</ele>
        <time>2012-06-10T11:58:37.000Z</time>
      </trkpt>
      <trkpt lat="44.67205" lon="6.6559">
        <ele>1096.04</ele>
        <time>2012-06-10T11:58:38.000Z</time>
      </trkpt>
      <trkpt lat="44.67213" lon="6.65582">
        <ele>1093.64</ele>
        <time>2012-06-10T11:58:48.000Z</time>
      </trkpt>
      <trkpt lat="44.67214" lon="6.65581">
        <ele>1092.68</ele>
        <time>2012-06-10T11:58:49.000Z</time>
      </trkpt>
      <trkpt lat="44.67217" lon="6.65578">
        <ele>1090.75</ele>
        <time>2012-06-10T11:58:53.000Z</time>
      </trkpt>
      <trkpt lat="44.6722" lon="6.65572">
        <ele>1089.79</ele>
        <time>2012-06-10T11:58:56.000Z</time>
      </trkpt>
      <trkpt lat="44.67223" lon="6.65571">
        <ele>1088.35</ele>
        <time>2012-06-10T11:59:03.000Z</time>
      </trkpt>
      <trkpt lat="44.67224" lon="6.6557">
        <ele>1087.39</ele>
        <time>2012-06-10T11:59:04.000Z</time>
      </trkpt>
      <trkpt lat="44.67226" lon="6.65569">
        <ele>1086.91</ele>
        <time>2012-06-10T11:59:05.000Z</time>
      </trkpt>
      <trkpt lat="44.67227" lon="6.65567">
        <ele>1086.43</ele>
        <time>2012-06-10T11:59:06.000Z</time>
      </trkpt>
      <trkpt lat="44.67229" lon="6.65566">
        <ele>1085.47</ele>
        <time>2012-06-10T11:59:07.000Z</time>
      </trkpt>
      <trkpt lat="44.6723" lon="6.65564">
        <ele>1084.99</ele>
        <time>2012-06-10T11:59:08.000Z</time>
      </trkpt>
      <trkpt lat="44.67229" lon="6.65563">
        <ele>1084.02</ele>
        <time>2012-06-10T11:59:09.000Z</time>
      </trkpt>
      <trkpt lat="44.67228" lon="6.65563">
        <ele>1083.06</ele>
        <time>2012-06-10T11:59:10.000Z</time>
      </trkpt>
      <trkpt lat="44.67226" lon="6.65563">
        <ele>1083.06</ele>
        <time>2012-06-10T11:59:11.000Z</time>
      </trkpt>
      <trkpt lat="44.67225" lon="6.65563">
        <ele>1082.58</ele>
        <time>2012-06-10T11:59:12.000Z</time>
      </trkpt>
      <trkpt lat="44.67223" lon="6.65563">
        <ele>1081.14</ele>
        <time>2012-06-10T11:59:14.000Z</time>
      </trkpt>
      <trkpt lat="44.67222" lon="6.65562">
        <ele>1080.18</ele>
        <time>2012-06-10T11:59:15.000Z</time>
      </trkpt>
      <trkpt lat="44.67223" lon="6.65558">
        <ele>1078.74</ele>
        <time>2012-06-10T11:59:17.000Z</time>
      </trkpt>
      <trkpt lat="44.67225" lon="6.65554">
        <ele>1078.26</ele>
        <time>2012-06-10T11:59:18.000Z</time>
      </trkpt>
      <trkpt lat="44.67227" lon="6.65551">
        <ele>1076.81</ele>
        <time>2012-06-10T11:59:19.000Z</time>
      </trkpt>
      <trkpt lat="44.6723" lon="6.65548">
        <ele>1075.85</ele>
        <time>2012-06-10T11:59:20.000Z</time>
      </trkpt>
      <trkpt lat="44.67232" lon="6.65547">
        <ele>1075.37</ele>
        <time>2012-06-10T11:59:21.000Z</time>
      </trkpt>
      <trkpt lat="44.67234" lon="6.65548">
        <ele>1074.41</ele>
        <time>2012-06-10T11:59:22.000Z</time>
      </trkpt>
      <trkpt lat="44.67234" lon="6.65548">
        <ele>1074.89</ele>
        <time>2012-06-10T11:59:23.000Z</time>
      </trkpt>
      <trkpt lat="44.67237" lon="6.65546">
        <ele>1073.93</ele>
        <time>2012-06-10T11:59:25.000Z</time>
      </trkpt>
      <trkpt lat="44.67237" lon="6.65544">
        <ele>1072.49</ele>
        <time>2012-06-10T11:59:27.000Z</time>
      </trkpt>
      <trkpt lat="44.67234" lon="6.65543">
        <ele>1072.49</ele>
        <time>2012-06-10T11:59:28.000Z</time>
      </trkpt>
      <trkpt lat="44.67223" lon="6.6554">
        <ele>1069.12</ele>
        <time>2012-06-10T11:59:35.000Z</time>
      </trkpt>
      <trkpt lat="44.67224" lon="6.65538">
        <ele>1069.12</ele>
        <time>2012-06-10T11:59:36.000Z</time>
      </trkpt>
      <trkpt lat="44.67225" lon="6.65536">
        <ele>1068.64</ele>
        <time>2012-06-10T11:59:37.000Z</time>
      </trkpt>
      <trkpt lat="44.67226" lon="6.65534">
        <ele>1067.2</ele>
        <time>2012-06-10T11:59:38.000Z</time>
      </trkpt>
      <trkpt lat="44.67228" lon="6.65533">
        <ele>1066.72</ele>
        <time>2012-06-10T11:59:39.000Z</time>
      </trkpt>
      <trkpt lat="44.6723" lon="6.65532">
        <ele>1067.2</ele>
        <time>2012-06-10T11:59:40.000Z</time>
      </trkpt>
      <trkpt lat="44.67231" lon="6.65531">
        <ele>1065.76</ele>
        <time>2012-06-10T11:59:41.000Z</time>
      </trkpt>
      <trkpt lat="44.67233" lon="6.65529">
        <ele>1065.28</ele>
        <time>2012-06-10T11:59:42.000Z</time>
      </trkpt>
      <trkpt lat="44.67233" lon="6.65527">
        <ele>1065.28</ele>
        <time>2012-06-10T11:59:43.000Z</time>
      </trkpt>
      <trkpt lat="44.67232" lon="6.65525">
        <ele>1064.32</ele>
        <time>2012-06-10T11:59:44.000Z</time>
      </trkpt>
      <trkpt lat="44.67229" lon="6.65525">
        <ele>1062.87</ele>
        <time>2012-06-10T11:59:46.000Z</time>
      </trkpt>
      <trkpt lat="44.6723" lon="6.65525">
        <ele>1061.91</ele>
        <time>2012-06-10T11:59:47.000Z</time>
      </trkpt>
      <trkpt lat="44.67236" lon="6.65513">
        <ele>1058.55</ele>
        <time>2012-06-10T11:59:51.000Z</time>
      </trkpt>
      <trkpt lat="44.67238" lon="6.65508">
        <ele>1058.07</ele>
        <time>2012-06-10T11:59:52.000Z</time>
      </trkpt>
      <trkpt lat="44.67241" lon="6.65505">
        <ele>1057.11</ele>
        <time>2012-06-10T11:59:53.000Z</time>
      </trkpt>
      <trkpt lat="44.67244" lon="6.65502">
        <ele>1057.11</ele>
        <time>2012-06-10T11:59:54.000Z</time>
      </trkpt>
      <trkpt lat="44.67246" lon="6.655">
        <ele>1056.63</ele>
        <time>2012-06-10T11:59:55.000Z</time>
      </trkpt>
      <trkpt lat="44.67248" lon="6.65498">
        <ele>1057.11</ele>
        <time>2012-06-10T11:59:56.000Z</time>
      </trkpt>
      <trkpt lat="44.6725" lon="6.65496">
        <ele>1057.11</ele>
        <time>2012-06-10T11:59:57.000Z</time>
      </trkpt>
      <trkpt lat="44.67252" lon="6.65495">
        <ele>1057.59</ele>
        <time>2012-06-10T11:59:58.000Z</time>
      </trkpt>
      <trkpt lat="44.67253" lon="6.65494">
        <ele>1057.59</ele>
        <time>2012-06-10T11:59:59.000Z</time>
      </trkpt>
      <trkpt lat="44.67254" lon="6.65493">
        <ele>1058.55</ele>
        <time>2012-06-10T12:00:00.000Z</time>
      </trkpt>
      <trkpt lat="44.67255" lon="6.65493">
        <ele>1058.07</ele>
        <time>2012-06-10T12:00:01.000Z</time>
      </trkpt>
      <trkpt lat="44.67256" lon="6.65492">
        <ele>1057.11</ele>
        <time>2012-06-10T12:00:02.000Z</time>
      </trkpt>
      <trkpt lat="44.67265" lon="6.65487">
        <ele>1059.03</ele>
        <time>2012-06-10T12:00:13.000Z</time>
      </trkpt>
      <trkpt lat="44.67266" lon="6.65485">
        <ele>1059.03</ele>
        <time>2012-06-10T12:00:14.000Z</time>
      </trkpt>
      <trkpt lat="44.67268" lon="6.65483">
        <ele>1059.03</ele>
        <time>2012-06-10T12:00:15.000Z</time>
      </trkpt>
      <trkpt lat="44.6727" lon="6.65482">
        <ele>1058.55</ele>
        <time>2012-06-10T12:00:16.000Z</time>
      </trkpt>
      <trkpt lat="44.67272" lon="6.65479">
        <ele>1058.55</ele>
        <time>2012-06-10T12:00:17.000Z</time>
      </trkpt>
      <trkpt lat="44.67274" lon="6.65478">
        <ele>1059.03</ele>
        <time>2012-06-10T12:00:18.000Z</time>
      </trkpt>
      <trkpt lat="44.67276" lon="6.65478">
        <ele>1059.51</ele>
        <time>2012-06-10T12:00:20.000Z</time>
      </trkpt>
      <trkpt lat="44.67291" lon="6.6549">
        <ele>1060.95</ele>
        <time>2012-06-10T12:00:31.000Z</time>
      </trkpt>
      <trkpt lat="44.67292" lon="6.6549">
        <ele>1060.95</ele>
        <time>2012-06-10T12:00:32.000Z</time>
      </trkpt>
      <trkpt lat="44.67294" lon="6.6549">
        <ele>1061.43</ele>
        <time>2012-06-10T12:00:33.000Z</time>
      </trkpt>
      <trkpt lat="44.67305" lon="6.65488">
        <ele>1061.91</ele>
        <time>2012-06-10T12:00:40.000Z</time>
      </trkpt>
      <trkpt lat="44.67318" lon="6.65482">
        <ele>1065.28</ele>
        <time>2012-06-10T12:00:50.000Z</time>
      </trkpt>
      <trkpt lat="44.67327" lon="6.65475">
        <ele>1067.2</ele>
        <time>2012-06-10T12:00:58.000Z</time>
      </trkpt>
      <trkpt lat="44.67329" lon="6.65474">
        <ele>1067.68</ele>
        <time>2012-06-10T12:00:59.000Z</time>
      </trkpt>
      <trkpt lat="44.6733" lon="6.65474">
        <ele>1068.16</ele>
        <time>2012-06-10T12:01:00.000Z</time>
      </trkpt>
      <trkpt lat="44.67347" lon="6.65464">
        <ele>1070.08</ele>
        <time>2012-06-10T12:01:14.000Z</time>
      </trkpt>
      <trkpt lat="44.67348" lon="6.65463">
        <ele>1071.05</ele>
        <time>2012-06-10T12:01:15.000Z</time>
      </trkpt>
      <trkpt lat="44.67365" lon="6.65445">
        <ele>1073.93</ele>
        <time>2012-06-10T12:01:29.000Z</time>
      </trkpt>
      <trkpt lat="44.67381" lon="6.65426">
        <ele>1076.33</ele>
        <time>2012-06-10T12:01:43.000Z</time>
      </trkpt>
      <trkpt lat="44.67382" lon="6.65425">
        <ele>1076.81</ele>
        <time>2012-06-10T12:01:44.000Z</time>
      </trkpt>
      <trkpt lat="44.67383" lon="6.65423">
        <ele>1077.29</ele>
        <time>2012-06-10T12:01:45.000Z</time>
      </trkpt>
      <trkpt lat="44.67384" lon="6.65422">
        <ele>1076.81</ele>
        <time>2012-06-10T12:01:46.000Z</time>
      </trkpt>
      <trkpt lat="44.67384" lon="6.6542">
        <ele>1077.29</ele>
        <time>2012-06-10T12:01:47.000Z</time>
      </trkpt>
      <trkpt lat="44.67385" lon="6.65419">
        <ele>1077.29</ele>
        <time>2012-06-10T12:01:48.000Z</time>
      </trkpt>
      <trkpt lat="44.67386" lon="6.65417">
        <ele>1077.78</ele>
        <time>2012-06-10T12:01:49.000Z</time>
      </trkpt>
      <trkpt lat="44.67387" lon="6.65416">
        <ele>1077.78</ele>
        <time>2012-06-10T12:01:50.000Z</time>
      </trkpt>
      <trkpt lat="44.67388" lon="6.65414">
        <ele>1078.26</ele>
        <time>2012-06-10T12:01:51.000Z</time>
      </trkpt>
      <trkpt lat="44.67389" lon="6.65413">
        <ele>1078.74</ele>
        <time>2012-06-10T12:01:52.000Z</time>
      </trkpt>
      <trkpt lat="44.6739" lon="6.65411">
        <ele>1078.74</ele>
        <time>2012-06-10T12:01:53.000Z</time>
      </trkpt>
      <trkpt lat="44.67392" lon="6.6541">
        <ele>1078.74</ele>
        <time>2012-06-10T12:01:54.000Z</time>
      </trkpt>
      <trkpt lat="44.67393" lon="6.65409">
        <ele>1078.74</ele>
        <time>2012-06-10T12:01:55.000Z</time>
      </trkpt>
      <trkpt lat="44.67394" lon="6.65408">
        <ele>1079.22</ele>
        <time>2012-06-10T12:01:56.000Z</time>
      </trkpt>
      <trkpt lat="44.67397" lon="6.65405">
        <ele>1079.7</ele>
        <time>2012-06-10T12:01:59.000Z</time>
      </trkpt>
      <trkpt lat="44.67398" lon="6.65404">
        <ele>1080.18</ele>
        <time>2012-06-10T12:02:00.000Z</time>
      </trkpt>
      <trkpt lat="44.67399" lon="6.65402">
        <ele>1080.18</ele>
        <time>2012-06-10T12:02:01.000Z</time>
      </trkpt>
      <trkpt lat="44.674" lon="6.654">
        <ele>1080.18</ele>
        <time>2012-06-10T12:02:02.000Z</time>
      </trkpt>
      <trkpt lat="44.67401" lon="6.65398">
        <ele>1080.66</ele>
        <time>2012-06-10T12:02:03.000Z</time>
      </trkpt>
      <trkpt lat="44.67401" lon="6.65396">
        <ele>1080.66</ele>
        <time>2012-06-10T12:02:04.000Z</time>
      </trkpt>
      <trkpt lat="44.67402" lon="6.65394">
        <ele>1080.66</ele>
        <time>2012-06-10T12:02:05.000Z</time>
      </trkpt>
      <trkpt lat="44.67403" lon="6.65393">
        <ele>1080.66</ele>
        <time>2012-06-10T12:02:06.000Z</time>
      </trkpt>
      <trkpt lat="44.67403" lon="6.65391">
        <ele>1081.14</ele>
        <time>2012-06-10T12:02:07.000Z</time>
      </trkpt>
      <trkpt lat="44.67406" lon="6.65383">
        <ele>1082.1</ele>
        <time>2012-06-10T12:02:13.000Z</time>
      </trkpt>
      <trkpt lat="44.67405" lon="6.6538">
        <ele>1082.58</ele>
        <time>2012-06-10T12:02:14.000Z</time>
      </trkpt>
      <trkpt lat="44.67405" lon="6.65375">
        <ele>1081.14</ele>
        <time>2012-06-10T12:02:15.000Z</time>
      </trkpt>
      <trkpt lat="44.67405" lon="6.65367">
        <ele>1080.18</ele>
        <time>2012-06-10T12:02:16.000Z</time>
      </trkpt>
      <trkpt lat="44.67406" lon="6.6536">
        <ele>1080.18</ele>
        <time>2012-06-10T12:02:17.000Z</time>
      </trkpt>
      <trkpt lat="44.67405" lon="6.65321">
        <ele>1081.62</ele>
        <time>2012-06-10T12:02:26.000Z</time>
      </trkpt>
      <trkpt lat="44.67404" lon="6.65314">
        <ele>1080.66</ele>
        <time>2012-06-10T12:02:28.000Z</time>
      </trkpt>
      <trkpt lat="44.67401" lon="6.65303">
        <ele>1080.18</ele>
        <time>2012-06-10T12:02:30.000Z</time>
      </trkpt>
      <trkpt lat="44.674" lon="6.65297">
        <ele>1079.7</ele>
        <time>2012-06-10T12:02:31.000Z</time>
      </trkpt>
      <trkpt lat="44.67398" lon="6.65291">
        <ele>1078.74</ele>
        <time>2012-06-10T12:02:32.000Z</time>
      </trkpt>
      <trkpt lat="44.67396" lon="6.65286">
        <ele>1077.78</ele>
        <time>2012-06-10T12:02:33.000Z</time>
      </trkpt>
      <trkpt lat="44.67395" lon="6.65279">
        <ele>1077.29</ele>
        <time>2012-06-10T12:02:34.000Z</time>
      </trkpt>
      <trkpt lat="44.67395" lon="6.65274">
        <ele>1076.33</ele>
        <time>2012-06-10T12:02:35.000Z</time>
      </trkpt>
      <trkpt lat="44.67395" lon="6.65269">
        <ele>1076.33</ele>
        <time>2012-06-10T12:02:36.000Z</time>
      </trkpt>
      <trkpt lat="44.67396" lon="6.65262">
        <ele>1075.37</ele>
        <time>2012-06-10T12:02:37.000Z</time>
      </trkpt>
      <trkpt lat="44.67398" lon="6.65255">
        <ele>1074.89</ele>
        <time>2012-06-10T12:02:38.000Z</time>
      </trkpt>
      <trkpt lat="44.67399" lon="6.65248">
        <ele>1074.89</ele>
        <time>2012-06-10T12:02:39.000Z</time>
      </trkpt>
      <trkpt lat="44.67401" lon="6.65243">
        <ele>1074.89</ele>
        <time>2012-06-10T12:02:40.000Z</time>
      </trkpt>
      <trkpt lat="44.67403" lon="6.65238">
        <ele>1075.85</ele>
        <time>2012-06-10T12:02:41.000Z</time>
      </trkpt>
      <trkpt lat="44.67411" lon="6.65211">
        <ele>1075.37</ele>
        <time>2012-06-10T12:02:46.000Z</time>
      </trkpt>
      <trkpt lat="44.67415" lon="6.65191">
        <ele>1074.89</ele>
        <time>2012-06-10T12:02:49.000Z</time>
      </trkpt>
      <trkpt lat="44.67417" lon="6.65184">
        <ele>1075.37</ele>
        <time>2012-06-10T12:02:50.000Z</time>
      </trkpt>
      <trkpt lat="44.67422" lon="6.65157">
        <ele>1075.37</ele>
        <time>2012-06-10T12:02:54.000Z</time>
      </trkpt>
      <trkpt lat="44.67424" lon="6.65151">
        <ele>1075.37</ele>
        <time>2012-06-10T12:02:55.000Z</time>
      </trkpt>
      <trkpt lat="44.67426" lon="6.65144">
        <ele>1074.89</ele>
        <time>2012-06-10T12:02:56.000Z</time>
      </trkpt>
      <trkpt lat="44.67428" lon="6.65137">
        <ele>1074.41</ele>
        <time>2012-06-10T12:02:57.000Z</time>
      </trkpt>
      <trkpt lat="44.67431" lon="6.6513">
        <ele>1073.93</ele>
        <time>2012-06-10T12:02:58.000Z</time>
      </trkpt>
      <trkpt lat="44.67435" lon="6.65124">
        <ele>1073.93</ele>
        <time>2012-06-10T12:02:59.000Z</time>
      </trkpt>
      <trkpt lat="44.67438" lon="6.65118">
        <ele>1072.97</ele>
        <time>2012-06-10T12:03:00.000Z</time>
      </trkpt>
      <trkpt lat="44.67442" lon="6.65112">
        <ele>1072.49</ele>
        <time>2012-06-10T12:03:01.000Z</time>
      </trkpt>
      <trkpt lat="44.67447" lon="6.65106">
        <ele>1071.05</ele>
        <time>2012-06-10T12:03:02.000Z</time>
      </trkpt>
      <trkpt lat="44.67452" lon="6.651">
        <ele>1070.57</ele>
        <time>2012-06-10T12:03:03.000Z</time>
      </trkpt>
      <trkpt lat="44.67474" lon="6.65073">
        <ele>1066.24</ele>
        <time>2012-06-10T12:03:07.000Z</time>
      </trkpt>
      <trkpt lat="44.67488" lon="6.65054">
        <ele>1062.87</ele>
        <time>2012-06-10T12:03:10.000Z</time>
      </trkpt>
      <trkpt lat="44.67491" lon="6.65046">
        <ele>1062.39</ele>
        <time>2012-06-10T12:03:11.000Z</time>
      </trkpt>
      <trkpt lat="44.67493" lon="6.65037">
        <ele>1061.43</ele>
        <time>2012-06-10T12:03:12.000Z</time>
      </trkpt>
      <trkpt lat="44.67496" lon="6.64996">
        <ele>1058.07</ele>
        <time>2012-06-10T12:03:16.000Z</time>
      </trkpt>
      <trkpt lat="44.67498" lon="6.64963">
        <ele>1055.18</ele>
        <time>2012-06-10T12:03:19.000Z</time>
      </trkpt>
      <trkpt lat="44.67499" lon="6.64953">
        <ele>1054.7</ele>
        <time>2012-06-10T12:03:20.000Z</time>
      </trkpt>
      <trkpt lat="44.67502" lon="6.64924">
        <ele>1054.7</ele>
        <time>2012-06-10T12:03:23.000Z</time>
      </trkpt>
      <trkpt lat="44.67503" lon="6.64916">
        <ele>1054.7</ele>
        <time>2012-06-10T12:03:24.000Z</time>
      </trkpt>
      <trkpt lat="44.67503" lon="6.6491">
        <ele>1054.7</ele>
        <time>2012-06-10T12:03:25.000Z</time>
      </trkpt>
      <trkpt lat="44.67501" lon="6.64907">
        <ele>1054.7</ele>
        <time>2012-06-10T12:03:26.000Z</time>
      </trkpt>
      <trkpt lat="44.67497" lon="6.64905">
        <ele>1054.22</ele>
        <time>2012-06-10T12:03:27.000Z</time>
      </trkpt>
      <trkpt lat="44.67492" lon="6.64905">
        <ele>1054.22</ele>
        <time>2012-06-10T12:03:28.000Z</time>
      </trkpt>
      <trkpt lat="44.67486" lon="6.64904">
        <ele>1053.74</ele>
        <time>2012-06-10T12:03:29.000Z</time>
      </trkpt>
      <trkpt lat="44.67479" lon="6.64904">
        <ele>1052.78</ele>
        <time>2012-06-10T12:03:30.000Z</time>
      </trkpt>
      <trkpt lat="44.67464" lon="6.64903">
        <ele>1050.86</ele>
        <time>2012-06-10T12:03:32.000Z</time>
      </trkpt>
      <trkpt lat="44.67455" lon="6.64906">
        <ele>1049.42</ele>
        <time>2012-06-10T12:03:33.000Z</time>
      </trkpt>
      <trkpt lat="44.67447" lon="6.64908">
        <ele>1049.42</ele>
        <time>2012-06-10T12:03:34.000Z</time>
      </trkpt>
      <trkpt lat="44.67432" lon="6.64908">
        <ele>1048.45</ele>
        <time>2012-06-10T12:03:36.000Z</time>
      </trkpt>
      <trkpt lat="44.67416" lon="6.64902">
        <ele>1048.94</ele>
        <time>2012-06-10T12:03:39.000Z</time>
      </trkpt>
      <trkpt lat="44.67412" lon="6.64899">
        <ele>1048.94</ele>
        <time>2012-06-10T12:03:40.000Z</time>
      </trkpt>
      <trkpt lat="44.67405" lon="6.64893">
        <ele>1048.45</ele>
        <time>2012-06-10T12:03:42.000Z</time>
      </trkpt>
      <trkpt lat="44.67401" lon="6.6489">
        <ele>1048.45</ele>
        <time>2012-06-10T12:03:43.000Z</time>
      </trkpt>
      <trkpt lat="44.67398" lon="6.64887">
        <ele>1047.97</ele>
        <time>2012-06-10T12:03:44.000Z</time>
      </trkpt>
      <trkpt lat="44.67385" lon="6.64878">
        <ele>1047.49</ele>
        <time>2012-06-10T12:03:47.000Z</time>
      </trkpt>
      <trkpt lat="44.67368" lon="6.64869">
        <ele>1044.61</ele>
        <time>2012-06-10T12:03:51.000Z</time>
      </trkpt>
      <trkpt lat="44.67358" lon="6.64864">
        <ele>1042.21</ele>
        <time>2012-06-10T12:03:54.000Z</time>
      </trkpt>
      <trkpt lat="44.67354" lon="6.64864">
        <ele>1040.76</ele>
        <time>2012-06-10T12:03:55.000Z</time>
      </trkpt>
      <trkpt lat="44.6735" lon="6.64866">
        <ele>1040.28</ele>
        <time>2012-06-10T12:03:56.000Z</time>
      </trkpt>
      <trkpt lat="44.67348" lon="6.6487">
        <ele>1039.32</ele>
        <time>2012-06-10T12:03:57.000Z</time>
      </trkpt>
      <trkpt lat="44.67347" lon="6.64876">
        <ele>1038.84</ele>
        <time>2012-06-10T12:03:58.000Z</time>
      </trkpt>
      <trkpt lat="44.67346" lon="6.64883">
        <ele>1037.4</ele>
        <time>2012-06-10T12:03:59.000Z</time>
      </trkpt>
      <trkpt lat="44.67344" lon="6.6489">
        <ele>1036.44</ele>
        <time>2012-06-10T12:04:00.000Z</time>
      </trkpt>
      <trkpt lat="44.67342" lon="6.64898">
        <ele>1035</ele>
        <time>2012-06-10T12:04:01.000Z</time>
      </trkpt>
      <trkpt lat="44.67339" lon="6.64904">
        <ele>1033.07</ele>
        <time>2012-06-10T12:04:02.000Z</time>
      </trkpt>
      <trkpt lat="44.67336" lon="6.6491">
        <ele>1032.11</ele>
        <time>2012-06-10T12:04:03.000Z</time>
      </trkpt>
      <trkpt lat="44.67332" lon="6.64914">
        <ele>1030.67</ele>
        <time>2012-06-10T12:04:04.000Z</time>
      </trkpt>
      <trkpt lat="44.67327" lon="6.64918">
        <ele>1029.23</ele>
        <time>2012-06-10T12:04:05.000Z</time>
      </trkpt>
      <trkpt lat="44.67323" lon="6.64919">
        <ele>1027.79</ele>
        <time>2012-06-10T12:04:06.000Z</time>
      </trkpt>
      <trkpt lat="44.67318" lon="6.64926">
        <ele>1023.94</ele>
        <time>2012-06-10T12:04:09.000Z</time>
      </trkpt>
      <trkpt lat="44.67315" lon="6.64944">
        <ele>1020.1</ele>
        <time>2012-06-10T12:04:12.000Z</time>
      </trkpt>
      <trkpt lat="44.67313" lon="6.64949">
        <ele>1017.69</ele>
        <time>2012-06-10T12:04:14.000Z</time>
      </trkpt>
      <trkpt lat="44.67311" lon="6.64945">
        <ele>1016.73</ele>
        <time>2012-06-10T12:04:16.000Z</time>
      </trkpt>
      <trkpt lat="44.67308" lon="6.64941">
        <ele>1016.73</ele>
        <time>2012-06-10T12:04:17.000Z</time>
      </trkpt>
      <trkpt lat="44.67305" lon="6.64928">
        <ele>1015.29</ele>
        <time>2012-06-10T12:04:19.000Z</time>
      </trkpt>
      <trkpt lat="44.67302" lon="6.64922">
        <ele>1014.33</ele>
        <time>2012-06-10T12:04:20.000Z</time>
      </trkpt>
      <trkpt lat="44.67299" lon="6.64916">
        <ele>1013.37</ele>
        <time>2012-06-10T12:04:21.000Z</time>
      </trkpt>
      <trkpt lat="44.67294" lon="6.6491">
        <ele>1013.37</ele>
        <time>2012-06-10T12:04:22.000Z</time>
      </trkpt>
      <trkpt lat="44.67291" lon="6.64904">
        <ele>1011.93</ele>
        <time>2012-06-10T12:04:23.000Z</time>
      </trkpt>
      <trkpt lat="44.67289" lon="6.64898">
        <ele>1011.44</ele>
        <time>2012-06-10T12:04:24.000Z</time>
      </trkpt>
      <trkpt lat="44.67287" lon="6.64892">
        <ele>1010.48</ele>
        <time>2012-06-10T12:04:25.000Z</time>
      </trkpt>
      <trkpt lat="44.67283" lon="6.64887">
        <ele>1009.52</ele>
        <time>2012-06-10T12:04:26.000Z</time>
      </trkpt>
      <trkpt lat="44.6728" lon="6.64883">
        <ele>1009.04</ele>
        <time>2012-06-10T12:04:27.000Z</time>
      </trkpt>
      <trkpt lat="44.67271" lon="6.64883">
        <ele>1005.2</ele>
        <time>2012-06-10T12:04:30.000Z</time>
      </trkpt>
      <trkpt lat="44.67272" lon="6.64885">
        <ele>1004.72</ele>
        <time>2012-06-10T12:04:31.000Z</time>
      </trkpt>
      <trkpt lat="44.67274" lon="6.649">
        <ele>1002.31</ele>
        <time>2012-06-10T12:04:35.000Z</time>
      </trkpt>
      <trkpt lat="44.6727" lon="6.64897">
        <ele>1000.87</ele>
        <time>2012-06-10T12:04:38.000Z</time>
      </trkpt>
      <trkpt lat="44.67266" lon="6.64894">
        <ele>999.91</ele>
        <time>2012-06-10T12:04:39.000Z</time>
      </trkpt>
      <trkpt lat="44.67263" lon="6.6489">
        <ele>998.47</ele>
        <time>2012-06-10T12:04:40.000Z</time>
      </trkpt>
      <trkpt lat="44.67261" lon="6.64903">
        <ele>995.1</ele>
        <time>2012-06-10T12:04:46.000Z</time>
      </trkpt>
      <trkpt lat="44.67262" lon="6.64918">
        <ele>991.74</ele>
        <time>2012-06-10T12:04:48.000Z</time>
      </trkpt>
      <trkpt lat="44.67261" lon="6.64926">
        <ele>990.3</ele>
        <time>2012-06-10T12:04:49.000Z</time>
      </trkpt>
      <trkpt lat="44.6726" lon="6.64935">
        <ele>989.33</ele>
        <time>2012-06-10T12:04:50.000Z</time>
      </trkpt>
      <trkpt lat="44.67259" lon="6.64943">
        <ele>987.89</ele>
        <time>2012-06-10T12:04:51.000Z</time>
      </trkpt>
      <trkpt lat="44.67252" lon="6.64976">
        <ele>983.57</ele>
        <time>2012-06-10T12:04:56.000Z</time>
      </trkpt>
      <trkpt lat="44.6725" lon="6.64982">
        <ele>982.12</ele>
        <time>2012-06-10T12:04:57.000Z</time>
      </trkpt>
      <trkpt lat="44.67249" lon="6.64987">
        <ele>980.68</ele>
        <time>2012-06-10T12:04:58.000Z</time>
      </trkpt>
      <trkpt lat="44.6724" lon="6.64979">
        <ele>976.84</ele>
        <time>2012-06-10T12:05:02.000Z</time>
      </trkpt>
      <trkpt lat="44.67237" lon="6.64973">
        <ele>975.39</ele>
        <time>2012-06-10T12:05:03.000Z</time>
      </trkpt>
      <trkpt lat="44.67231" lon="6.64947">
        <ele>972.51</ele>
        <time>2012-06-10T12:05:07.000Z</time>
      </trkpt>
      <trkpt lat="44.67228" lon="6.64941">
        <ele>972.03</ele>
        <time>2012-06-10T12:05:08.000Z</time>
      </trkpt>
      <trkpt lat="44.67224" lon="6.64935">
        <ele>971.55</ele>
        <time>2012-06-10T12:05:09.000Z</time>
      </trkpt>
      <trkpt lat="44.67221" lon="6.64929">
        <ele>970.59</ele>
        <time>2012-06-10T12:05:10.000Z</time>
      </trkpt>
      <trkpt lat="44.67219" lon="6.64921">
        <ele>970.11</ele>
        <time>2012-06-10T12:05:11.000Z</time>
      </trkpt>
      <trkpt lat="44.67208" lon="6.64887">
        <ele>967.7</ele>
        <time>2012-06-10T12:05:15.000Z</time>
      </trkpt>
      <trkpt lat="44.67204" lon="6.64879">
        <ele>967.22</ele>
        <time>2012-06-10T12:05:16.000Z</time>
      </trkpt>
      <trkpt lat="44.672" lon="6.64871">
        <ele>966.74</ele>
        <time>2012-06-10T12:05:17.000Z</time>
      </trkpt>
      <trkpt lat="44.67198" lon="6.64862">
        <ele>967.22</ele>
        <time>2012-06-10T12:05:18.000Z</time>
      </trkpt>
      <trkpt lat="44.67197" lon="6.64853">
        <ele>967.22</ele>
        <time>2012-06-10T12:05:19.000Z</time>
      </trkpt>
      <trkpt lat="44.67196" lon="6.64845">
        <ele>967.22</ele>
        <time>2012-06-10T12:05:20.000Z</time>
      </trkpt>
      <trkpt lat="44.67194" lon="6.64837">
        <ele>966.74</ele>
        <time>2012-06-10T12:05:21.000Z</time>
      </trkpt>
      <trkpt lat="44.67181" lon="6.64716">
        <ele>966.74</ele>
        <time>2012-06-10T12:05:36.000Z</time>
      </trkpt>
      <trkpt lat="44.67182" lon="6.64708">
        <ele>966.26</ele>
        <time>2012-06-10T12:05:37.000Z</time>
      </trkpt>
      <trkpt lat="44.67186" lon="6.64645">
        <ele>965.78</ele>
        <time>2012-06-10T12:05:45.000Z</time>
      </trkpt>
      <trkpt lat="44.67195" lon="6.64601">
        <ele>966.74</ele>
        <time>2012-06-10T12:05:51.000Z</time>
      </trkpt>
      <trkpt lat="44.67197" lon="6.64594">
        <ele>966.74</ele>
        <time>2012-06-10T12:05:52.000Z</time>
      </trkpt>
      <trkpt lat="44.67201" lon="6.64579">
        <ele>966.26</ele>
        <time>2012-06-10T12:05:54.000Z</time>
      </trkpt>
      <trkpt lat="44.67202" lon="6.64572">
        <ele>966.26</ele>
        <time>2012-06-10T12:05:55.000Z</time>
      </trkpt>
      <trkpt lat="44.67203" lon="6.64564">
        <ele>966.26</ele>
        <time>2012-06-10T12:05:56.000Z</time>
      </trkpt>
      <trkpt lat="44.67203" lon="6.64557">
        <ele>966.26</ele>
        <time>2012-06-10T12:05:57.000Z</time>
      </trkpt>
      <trkpt lat="44.67202" lon="6.6455">
        <ele>966.74</ele>
        <time>2012-06-10T12:05:58.000Z</time>
      </trkpt>
      <trkpt lat="44.672" lon="6.64544">
        <ele>965.78</ele>
        <time>2012-06-10T12:05:59.000Z</time>
      </trkpt>
      <trkpt lat="44.67196" lon="6.64539">
        <ele>966.26</ele>
        <time>2012-06-10T12:06:00.000Z</time>
      </trkpt>
      <trkpt lat="44.67191" lon="6.64536">
        <ele>965.78</ele>
        <time>2012-06-10T12:06:01.000Z</time>
      </trkpt>
      <trkpt lat="44.67186" lon="6.64535">
        <ele>965.78</ele>
        <time>2012-06-10T12:06:02.000Z</time>
      </trkpt>
      <trkpt lat="44.6718" lon="6.64534">
        <ele>965.3</ele>
        <time>2012-06-10T12:06:03.000Z</time>
      </trkpt>
      <trkpt lat="44.67115" lon="6.64524">
        <ele>966.74</ele>
        <time>2012-06-10T12:06:15.000Z</time>
      </trkpt>
      <trkpt lat="44.67112" lon="6.64524">
        <ele>967.22</ele>
        <time>2012-06-10T12:06:16.000Z</time>
      </trkpt>
      <trkpt lat="44.67109" lon="6.64525">
        <ele>967.7</ele>
        <time>2012-06-10T12:06:17.000Z</time>
      </trkpt>
      <trkpt lat="44.67103" lon="6.64528">
        <ele>970.59</ele>
        <time>2012-06-10T12:06:21.000Z</time>
      </trkpt>
      <trkpt lat="44.67102" lon="6.64527">
        <ele>971.55</ele>
        <time>2012-06-10T12:06:23.000Z</time>
      </trkpt>
      <trkpt lat="44.67097" lon="6.64526">
        <ele>974.43</ele>
        <time>2012-06-10T12:06:36.000Z</time>
      </trkpt>
      <trkpt lat="44.6709" lon="6.64533">
        <ele>975.88</ele>
        <time>2012-06-10T12:06:47.000Z</time>
      </trkpt>
      <trkpt lat="44.67081" lon="6.64553">
        <ele>976.36</ele>
        <time>2012-06-10T12:06:56.000Z</time>
      </trkpt>
      <trkpt lat="44.67066" lon="6.64595">
        <ele>977.32</ele>
        <time>2012-06-10T12:07:09.000Z</time>
      </trkpt>
      <trkpt lat="44.67055" lon="6.64631">
        <ele>976.36</ele>
        <time>2012-06-10T12:07:17.000Z</time>
      </trkpt>
      <trkpt lat="44.67052" lon="6.64636">
        <ele>976.84</ele>
        <time>2012-06-10T12:07:19.000Z</time>
      </trkpt>
      <trkpt lat="44.67053" lon="6.64645">
        <ele>976.84</ele>
        <time>2012-06-10T12:07:31.000Z</time>
      </trkpt>
      <trkpt lat="44.67053" lon="6.64647">
        <ele>976.84</ele>
        <time>2012-06-10T12:07:32.000Z</time>
      </trkpt>
      <trkpt lat="44.67052" lon="6.64676">
        <ele>976.36</ele>
        <time>2012-06-10T12:07:38.000Z</time>
      </trkpt>
      <trkpt lat="44.67049" lon="6.64712">
        <ele>978.28</ele>
        <time>2012-06-10T12:07:47.000Z</time>
      </trkpt>
      <trkpt lat="44.67049" lon="6.64723">
        <ele>978.76</ele>
        <time>2012-06-10T12:07:50.000Z</time>
      </trkpt>
      <trkpt lat="44.67049" lon="6.64756">
        <ele>982.12</ele>
        <time>2012-06-10T12:08:02.000Z</time>
      </trkpt>
      <trkpt lat="44.67046" lon="6.64785">
        <ele>984.53</ele>
        <time>2012-06-10T12:08:14.000Z</time>
      </trkpt>
      <trkpt lat="44.67042" lon="6.64779">
        <ele>987.41</ele>
        <time>2012-06-10T12:08:26.000Z</time>
      </trkpt>
      <trkpt lat="44.67037" lon="6.64782">
        <ele>989.33</ele>
        <time>2012-06-10T12:08:38.000Z</time>
      </trkpt>
      <trkpt lat="44.67035" lon="6.64791">
        <ele>992.7</ele>
        <time>2012-06-10T12:08:47.000Z</time>
      </trkpt>
      <trkpt lat="44.67034" lon="6.64793">
        <ele>992.7</ele>
        <time>2012-06-10T12:08:48.000Z</time>
      </trkpt>
      <trkpt lat="44.67029" lon="6.64807">
        <ele>995.58</ele>
        <time>2012-06-10T12:09:00.000Z</time>
      </trkpt>
      <trkpt lat="44.67026" lon="6.64819">
        <ele>998.47</ele>
        <time>2012-06-10T12:09:13.000Z</time>
      </trkpt>
      <trkpt lat="44.67025" lon="6.64822">
        <ele>1000.39</ele>
        <time>2012-06-10T12:09:20.000Z</time>
      </trkpt>
      <trkpt lat="44.6702" lon="6.64833">
        <ele>1001.83</ele>
        <time>2012-06-10T12:09:31.000Z</time>
      </trkpt>
      <trkpt lat="44.67018" lon="6.64847">
        <ele>1004.72</ele>
        <time>2012-06-10T12:09:43.000Z</time>
      </trkpt>
      <trkpt lat="44.67014" lon="6.64859">
        <ele>1007.12</ele>
        <time>2012-06-10T12:09:56.000Z</time>
      </trkpt>
      <trkpt lat="44.67013" lon="6.64866">
        <ele>1008.56</ele>
        <time>2012-06-10T12:10:08.000Z</time>
      </trkpt>
      <trkpt lat="44.67014" lon="6.64878">
        <ele>1009.04</ele>
        <time>2012-06-10T12:10:21.000Z</time>
      </trkpt>
      <trkpt lat="44.67013" lon="6.6488">
        <ele>1010</ele>
        <time>2012-06-10T12:10:26.000Z</time>
      </trkpt>
      <trkpt lat="44.67011" lon="6.64883">
        <ele>1010.48</ele>
        <time>2012-06-10T12:10:28.000Z</time>
      </trkpt>
      <trkpt lat="44.6701" lon="6.64912">
        <ele>1012.89</ele>
        <time>2012-06-10T12:10:43.000Z</time>
      </trkpt>
      <trkpt lat="44.6701" lon="6.6492">
        <ele>1013.85</ele>
        <time>2012-06-10T12:10:48.000Z</time>
      </trkpt>
      <trkpt lat="44.67017" lon="6.64929">
        <ele>1014.81</ele>
        <time>2012-06-10T12:10:54.000Z</time>
      </trkpt>
      <trkpt lat="44.67022" lon="6.64949">
        <ele>1016.73</ele>
        <time>2012-06-10T12:11:05.000Z</time>
      </trkpt>
      <trkpt lat="44.6703" lon="6.64966">
        <ele>1018.65</ele>
        <time>2012-06-10T12:11:16.000Z</time>
      </trkpt>
      <trkpt lat="44.67036" lon="6.6498">
        <ele>1020.58</ele>
        <time>2012-06-10T12:11:25.000Z</time>
      </trkpt>
      <trkpt lat="44.67038" lon="6.65001">
        <ele>1023.94</ele>
        <time>2012-06-10T12:11:38.000Z</time>
      </trkpt>
      <trkpt lat="44.67039" lon="6.6502">
        <ele>1026.34</ele>
        <time>2012-06-10T12:11:52.000Z</time>
      </trkpt>
      <trkpt lat="44.67037" lon="6.65033">
        <ele>1028.75</ele>
        <time>2012-06-10T12:12:02.000Z</time>
      </trkpt>
      <trkpt lat="44.67033" lon="6.6504">
        <ele>1031.63</ele>
        <time>2012-06-10T12:12:16.000Z</time>
      </trkpt>
      <trkpt lat="44.67026" lon="6.65049">
        <ele>1034.52</ele>
        <time>2012-06-10T12:12:27.000Z</time>
      </trkpt>
      <trkpt lat="44.6702" lon="6.65063">
        <ele>1036.92</ele>
        <time>2012-06-10T12:12:43.000Z</time>
      </trkpt>
      <trkpt lat="44.67015" lon="6.65073">
        <ele>1039.32</ele>
        <time>2012-06-10T12:12:54.000Z</time>
      </trkpt>
      <trkpt lat="44.67012" lon="6.6508">
        <ele>1042.21</ele>
        <time>2012-06-10T12:13:05.000Z</time>
      </trkpt>
      <trkpt lat="44.6701" lon="6.65092">
        <ele>1044.13</ele>
        <time>2012-06-10T12:13:17.000Z</time>
      </trkpt>
      <trkpt lat="44.67005" lon="6.65101">
        <ele>1047.01</ele>
        <time>2012-06-10T12:13:28.000Z</time>
      </trkpt>
      <trkpt lat="44.66996" lon="6.65106">
        <ele>1048.94</ele>
        <time>2012-06-10T12:13:40.000Z</time>
      </trkpt>
      <trkpt lat="44.66989" lon="6.65105">
        <ele>1050.86</ele>
        <time>2012-06-10T12:13:52.000Z</time>
      </trkpt>
      <trkpt lat="44.66986" lon="6.651">
        <ele>1052.3</ele>
        <time>2012-06-10T12:13:58.000Z</time>
      </trkpt>
      <trkpt lat="44.66986" lon="6.65099">
        <ele>1052.78</ele>
        <time>2012-06-10T12:14:00.000Z</time>
      </trkpt>
      <trkpt lat="44.6698" lon="6.65093">
        <ele>1053.26</ele>
        <time>2012-06-10T12:14:06.000Z</time>
      </trkpt>
      <trkpt lat="44.66979" lon="6.6509">
        <ele>1053.26</ele>
        <time>2012-06-10T12:14:08.000Z</time>
      </trkpt>
      <trkpt lat="44.6698" lon="6.65087">
        <ele>1053.74</ele>
        <time>2012-06-10T12:14:10.000Z</time>
      </trkpt>
      <trkpt lat="44.6697" lon="6.65073">
        <ele>1055.67</ele>
        <time>2012-06-10T12:14:22.000Z</time>
      </trkpt>
      <trkpt lat="44.66966" lon="6.65071">
        <ele>1057.11</ele>
        <time>2012-06-10T12:14:33.000Z</time>
      </trkpt>
      <trkpt lat="44.66965" lon="6.65074">
        <ele>1058.07</ele>
        <time>2012-06-10T12:14:35.000Z</time>
      </trkpt>
      <trkpt lat="44.66962" lon="6.65081">
        <ele>1058.55</ele>
        <time>2012-06-10T12:14:39.000Z</time>
      </trkpt>
      <trkpt lat="44.66957" lon="6.65089">
        <ele>1059.51</ele>
        <time>2012-06-10T12:14:43.000Z</time>
      </trkpt>
      <trkpt lat="44.66958" lon="6.65108">
        <ele>1060.95</ele>
        <time>2012-06-10T12:14:51.000Z</time>
      </trkpt>
      <trkpt lat="44.66961" lon="6.6513">
        <ele>1062.87</ele>
        <time>2012-06-10T12:14:59.000Z</time>
      </trkpt>
      <trkpt lat="44.6696" lon="6.65135">
        <ele>1062.87</ele>
        <time>2012-06-10T12:15:01.000Z</time>
      </trkpt>
      <trkpt lat="44.66959" lon="6.65171">
        <ele>1063.84</ele>
        <time>2012-06-10T12:15:12.000Z</time>
      </trkpt>
      <trkpt lat="44.66966" lon="6.65199">
        <ele>1065.76</ele>
        <time>2012-06-10T12:15:21.000Z</time>
      </trkpt>
      <trkpt lat="44.66975" lon="6.65237">
        <ele>1067.68</ele>
        <time>2012-06-10T12:15:33.000Z</time>
      </trkpt>
      <trkpt lat="44.66975" lon="6.65248">
        <ele>1069.12</ele>
        <time>2012-06-10T12:15:37.000Z</time>
      </trkpt>
      <trkpt lat="44.66975" lon="6.6525">
        <ele>1069.12</ele>
        <time>2012-06-10T12:15:38.000Z</time>
      </trkpt>
      <trkpt lat="44.66973" lon="6.65263">
        <ele>1071.05</ele>
        <time>2012-06-10T12:15:44.000Z</time>
      </trkpt>
      <trkpt lat="44.6697" lon="6.65282">
        <ele>1073.93</ele>
        <time>2012-06-10T12:15:54.000Z</time>
      </trkpt>
      <trkpt lat="44.66964" lon="6.65299">
        <ele>1075.85</ele>
        <time>2012-06-10T12:16:03.000Z</time>
      </trkpt>
      <trkpt lat="44.66961" lon="6.65305">
        <ele>1076.33</ele>
        <time>2012-06-10T12:16:06.000Z</time>
      </trkpt>
      <trkpt lat="44.66954" lon="6.65336">
        <ele>1079.22</ele>
        <time>2012-06-10T12:16:20.000Z</time>
      </trkpt>
      <trkpt lat="44.66954" lon="6.65341">
        <ele>1080.18</ele>
        <time>2012-06-10T12:16:22.000Z</time>
      </trkpt>
      <trkpt lat="44.66956" lon="6.65347">
        <ele>1081.14</ele>
        <time>2012-06-10T12:16:25.000Z</time>
      </trkpt>
      <trkpt lat="44.66956" lon="6.65356">
        <ele>1082.1</ele>
        <time>2012-06-10T12:16:29.000Z</time>
      </trkpt>
      <trkpt lat="44.66949" lon="6.6538">
        <ele>1084.99</ele>
        <time>2012-06-10T12:16:43.000Z</time>
      </trkpt>
      <trkpt lat="44.66945" lon="6.65391">
        <ele>1085.95</ele>
        <time>2012-06-10T12:16:50.000Z</time>
      </trkpt>
      <trkpt lat="44.66942" lon="6.654">
        <ele>1085.95</ele>
        <time>2012-06-10T12:16:55.000Z</time>
      </trkpt>
      <trkpt lat="44.66941" lon="6.65404">
        <ele>1086.43</ele>
        <time>2012-06-10T12:16:57.000Z</time>
      </trkpt>
      <trkpt lat="44.66937" lon="6.65411">
        <ele>1088.35</ele>
        <time>2012-06-10T12:17:03.000Z</time>
      </trkpt>
      <trkpt lat="44.66936" lon="6.65412">
        <ele>1087.87</ele>
        <time>2012-06-10T12:17:04.000Z</time>
      </trkpt>
      <trkpt lat="44.66932" lon="6.65419">
        <ele>1088.83</ele>
        <time>2012-06-10T12:17:11.000Z</time>
      </trkpt>
      <trkpt lat="44.66916" lon="6.65421">
        <ele>1092.2</ele>
        <time>2012-06-10T12:17:27.000Z</time>
      </trkpt>
      <trkpt lat="44.66914" lon="6.6542">
        <ele>1093.16</ele>
        <time>2012-06-10T12:17:30.000Z</time>
      </trkpt>
      <trkpt lat="44.66912" lon="6.65425">
        <ele>1093.64</ele>
        <time>2012-06-10T12:17:34.000Z</time>
      </trkpt>
      <trkpt lat="44.66911" lon="6.65429">
        <ele>1093.64</ele>
        <time>2012-06-10T12:17:37.000Z</time>
      </trkpt>
      <trkpt lat="44.66912" lon="6.65434">
        <ele>1094.6</ele>
        <time>2012-06-10T12:17:43.000Z</time>
      </trkpt>
      <trkpt lat="44.66912" lon="6.65444">
        <ele>1094.6</ele>
        <time>2012-06-10T12:17:47.000Z</time>
      </trkpt>
      <trkpt lat="44.66908" lon="6.65463">
        <ele>1095.08</ele>
        <time>2012-06-10T12:17:52.000Z</time>
      </trkpt>
      <trkpt lat="44.66909" lon="6.65474">
        <ele>1096.52</ele>
        <time>2012-06-10T12:17:56.000Z</time>
      </trkpt>
      <trkpt lat="44.66908" lon="6.65479">
        <ele>1096.04</ele>
        <time>2012-06-10T12:17:58.000Z</time>
      </trkpt>
      <trkpt lat="44.66895" lon="6.65505">
        <ele>1096.04</ele>
        <time>2012-06-10T12:18:05.000Z</time>
      </trkpt>
      <trkpt lat="44.66895" lon="6.65512">
        <ele>1095.56</ele>
        <time>2012-06-10T12:18:06.000Z</time>
      </trkpt>
      <trkpt lat="44.66895" lon="6.65519">
        <ele>1095.56</ele>
        <time>2012-06-10T12:18:07.000Z</time>
      </trkpt>
      <trkpt lat="44.66898" lon="6.65526">
        <ele>1095.08</ele>
        <time>2012-06-10T12:18:08.000Z</time>
      </trkpt>
      <trkpt lat="44.669" lon="6.65532">
        <ele>1094.6</ele>
        <time>2012-06-10T12:18:09.000Z</time>
      </trkpt>
      <trkpt lat="44.66903" lon="6.65539">
        <ele>1094.6</ele>
        <time>2012-06-10T12:18:10.000Z</time>
      </trkpt>
      <trkpt lat="44.66909" lon="6.6556">
        <ele>1094.6</ele>
        <time>2012-06-10T12:18:13.000Z</time>
      </trkpt>
      <trkpt lat="44.6691" lon="6.65568">
        <ele>1094.12</ele>
        <time>2012-06-10T12:18:14.000Z</time>
      </trkpt>
      <trkpt lat="44.6691" lon="6.65577">
        <ele>1095.08</ele>
        <time>2012-06-10T12:18:15.000Z</time>
      </trkpt>
      <trkpt lat="44.66909" lon="6.65585">
        <ele>1094.12</ele>
        <time>2012-06-10T12:18:16.000Z</time>
      </trkpt>
      <trkpt lat="44.66909" lon="6.65594">
        <ele>1094.6</ele>
        <time>2012-06-10T12:18:17.000Z</time>
      </trkpt>
      <trkpt lat="44.6691" lon="6.65602">
        <ele>1093.64</ele>
        <time>2012-06-10T12:18:18.000Z</time>
      </trkpt>
      <trkpt lat="44.66911" lon="6.65619">
        <ele>1094.12</ele>
        <time>2012-06-10T12:18:20.000Z</time>
      </trkpt>
      <trkpt lat="44.66909" lon="6.65626">
        <ele>1094.6</ele>
        <time>2012-06-10T12:18:21.000Z</time>
      </trkpt>
      <trkpt lat="44.66906" lon="6.65641">
        <ele>1093.64</ele>
        <time>2012-06-10T12:18:23.000Z</time>
      </trkpt>
      <trkpt lat="44.66904" lon="6.65648">
        <ele>1093.64</ele>
        <time>2012-06-10T12:18:24.000Z</time>
      </trkpt>
      <trkpt lat="44.66902" lon="6.65653">
        <ele>1093.64</ele>
        <time>2012-06-10T12:18:25.000Z</time>
      </trkpt>
      <trkpt lat="44.66894" lon="6.6567">
        <ele>1094.12</ele>
        <time>2012-06-10T12:18:29.000Z</time>
      </trkpt>
      <trkpt lat="44.66893" lon="6.65681">
        <ele>1096.04</ele>
        <time>2012-06-10T12:18:32.000Z</time>
      </trkpt>
      <trkpt lat="44.6687" lon="6.65714">
        <ele>1095.56</ele>
        <time>2012-06-10T12:18:42.000Z</time>
      </trkpt>
      <trkpt lat="44.66847" lon="6.65729">
        <ele>1098.44</ele>
        <time>2012-06-10T12:18:52.000Z</time>
      </trkpt>
      <trkpt lat="44.66828" lon="6.65734">
        <ele>1100.37</ele>
        <time>2012-06-10T12:19:06.000Z</time>
      </trkpt>
      <trkpt lat="44.6682" lon="6.6574">
        <ele>1103.25</ele>
        <time>2012-06-10T12:19:17.000Z</time>
      </trkpt>
      <trkpt lat="44.66819" lon="6.65741">
        <ele>1104.21</ele>
        <time>2012-06-10T12:19:19.000Z</time>
      </trkpt>
      <trkpt lat="44.66805" lon="6.65752">
        <ele>1106.61</ele>
        <time>2012-06-10T12:19:36.000Z</time>
      </trkpt>
      <trkpt lat="44.668" lon="6.65762">
        <ele>1109.5</ele>
        <time>2012-06-10T12:19:48.000Z</time>
      </trkpt>
      <trkpt lat="44.6679" lon="6.65778">
        <ele>1110.94</ele>
        <time>2012-06-10T12:20:02.000Z</time>
      </trkpt>
      <trkpt lat="44.66778" lon="6.65785">
        <ele>1113.34</ele>
        <time>2012-06-10T12:20:15.000Z</time>
      </trkpt>
      <trkpt lat="44.66764" lon="6.65798">
        <ele>1114.79</ele>
        <time>2012-06-10T12:20:23.000Z</time>
      </trkpt>
      <trkpt lat="44.66756" lon="6.65806">
        <ele>1116.71</ele>
        <time>2012-06-10T12:20:31.000Z</time>
      </trkpt>
      <trkpt lat="44.66738" lon="6.65822">
        <ele>1118.15</ele>
        <time>2012-06-10T12:20:40.000Z</time>
      </trkpt>
      <trkpt lat="44.66719" lon="6.65848">
        <ele>1120.07</ele>
        <time>2012-06-10T12:20:52.000Z</time>
      </trkpt>
      <trkpt lat="44.66702" lon="6.65878">
        <ele>1121.52</ele>
        <time>2012-06-10T12:21:04.000Z</time>
      </trkpt>
      <trkpt lat="44.66691" lon="6.65898">
        <ele>1122</ele>
        <time>2012-06-10T12:21:12.000Z</time>
      </trkpt>
      <trkpt lat="44.66668" lon="6.65912">
        <ele>1124.4</ele>
        <time>2012-06-10T12:21:23.000Z</time>
      </trkpt>
      <trkpt lat="44.6666" lon="6.65905">
        <ele>1125.36</ele>
        <time>2012-06-10T12:21:29.000Z</time>
      </trkpt>
      <trkpt lat="44.66658" lon="6.65893">
        <ele>1127.28</ele>
        <time>2012-06-10T12:21:34.000Z</time>
      </trkpt>
      <trkpt lat="44.66652" lon="6.6588">
        <ele>1129.69</ele>
        <time>2012-06-10T12:21:40.000Z</time>
      </trkpt>
      <trkpt lat="44.66626" lon="6.65869">
        <ele>1131.61</ele>
        <time>2012-06-10T12:21:53.000Z</time>
      </trkpt>
      <trkpt lat="44.66581" lon="6.65859">
        <ele>1133.05</ele>
        <time>2012-06-10T12:22:08.000Z</time>
      </trkpt>
      <trkpt lat="44.66544" lon="6.65843">
        <ele>1132.09</ele>
        <time>2012-06-10T12:22:17.000Z</time>
      </trkpt>
      <trkpt lat="44.6654" lon="6.65839">
        <ele>1131.61</ele>
        <time>2012-06-10T12:22:18.000Z</time>
      </trkpt>
      <trkpt lat="44.66536" lon="6.65834">
        <ele>1131.61</ele>
        <time>2012-06-10T12:22:19.000Z</time>
      </trkpt>
      <trkpt lat="44.6649" lon="6.65765">
        <ele>1130.65</ele>
        <time>2012-06-10T12:22:32.000Z</time>
      </trkpt>
      <trkpt lat="44.66474" lon="6.65729">
        <ele>1129.69</ele>
        <time>2012-06-10T12:22:37.000Z</time>
      </trkpt>
      <trkpt lat="44.6647" lon="6.65723">
        <ele>1130.17</ele>
        <time>2012-06-10T12:22:38.000Z</time>
      </trkpt>
      <trkpt lat="44.66465" lon="6.65716">
        <ele>1129.21</ele>
        <time>2012-06-10T12:22:39.000Z</time>
      </trkpt>
      <trkpt lat="44.6646" lon="6.65708">
        <ele>1128.24</ele>
        <time>2012-06-10T12:22:40.000Z</time>
      </trkpt>
      <trkpt lat="44.66455" lon="6.65698">
        <ele>1127.76</ele>
        <time>2012-06-10T12:22:41.000Z</time>
      </trkpt>
      <trkpt lat="44.66452" lon="6.65688">
        <ele>1126.32</ele>
        <time>2012-06-10T12:22:42.000Z</time>
      </trkpt>
      <trkpt lat="44.66436" lon="6.65645">
        <ele>1122.96</ele>
        <time>2012-06-10T12:22:46.000Z</time>
      </trkpt>
      <trkpt lat="44.66418" lon="6.65599">
        <ele>1120.55</ele>
        <time>2012-06-10T12:22:50.000Z</time>
      </trkpt>
      <trkpt lat="44.66412" lon="6.65588">
        <ele>1120.07</ele>
        <time>2012-06-10T12:22:51.000Z</time>
      </trkpt>
      <trkpt lat="44.66407" lon="6.65577">
        <ele>1119.11</ele>
        <time>2012-06-10T12:22:52.000Z</time>
      </trkpt>
      <trkpt lat="44.66402" lon="6.65564">
        <ele>1118.15</ele>
        <time>2012-06-10T12:22:53.000Z</time>
      </trkpt>
      <trkpt lat="44.66399" lon="6.65551">
        <ele>1117.67</ele>
        <time>2012-06-10T12:22:54.000Z</time>
      </trkpt>
      <trkpt lat="44.66396" lon="6.65538">
        <ele>1116.23</ele>
        <time>2012-06-10T12:22:55.000Z</time>
      </trkpt>
      <trkpt lat="44.66393" lon="6.65523">
        <ele>1114.79</ele>
        <time>2012-06-10T12:22:56.000Z</time>
      </trkpt>
      <trkpt lat="44.66391" lon="6.65509">
        <ele>1114.31</ele>
        <time>2012-06-10T12:22:57.000Z</time>
      </trkpt>
      <trkpt lat="44.66389" lon="6.65495">
        <ele>1113.82</ele>
        <time>2012-06-10T12:22:58.000Z</time>
      </trkpt>
      <trkpt lat="44.66384" lon="6.65457">
        <ele>1111.42</ele>
        <time>2012-06-10T12:23:01.000Z</time>
      </trkpt>
      <trkpt lat="44.66379" lon="6.65447">
        <ele>1109.5</ele>
        <time>2012-06-10T12:23:02.000Z</time>
      </trkpt>
      <trkpt lat="44.66374" lon="6.65438">
        <ele>1109.02</ele>
        <time>2012-06-10T12:23:03.000Z</time>
      </trkpt>
      <trkpt lat="44.66368" lon="6.65432">
        <ele>1106.61</ele>
        <time>2012-06-10T12:23:04.000Z</time>
      </trkpt>
      <trkpt lat="44.66361" lon="6.65427">
        <ele>1105.17</ele>
        <time>2012-06-10T12:23:05.000Z</time>
      </trkpt>
      <trkpt lat="44.66354" lon="6.65421">
        <ele>1102.77</ele>
        <time>2012-06-10T12:23:06.000Z</time>
      </trkpt>
      <trkpt lat="44.66348" lon="6.65413">
        <ele>1101.33</ele>
        <time>2012-06-10T12:23:07.000Z</time>
      </trkpt>
      <trkpt lat="44.66344" lon="6.65404">
        <ele>1099.89</ele>
        <time>2012-06-10T12:23:08.000Z</time>
      </trkpt>
      <trkpt lat="44.66343" lon="6.65394">
        <ele>1098.44</ele>
        <time>2012-06-10T12:23:09.000Z</time>
      </trkpt>
      <trkpt lat="44.66339" lon="6.65382">
        <ele>1095.56</ele>
        <time>2012-06-10T12:23:11.000Z</time>
      </trkpt>
      <trkpt lat="44.66337" lon="6.65382">
        <ele>1095.08</ele>
        <time>2012-06-10T12:23:12.000Z</time>
      </trkpt>
      <trkpt lat="44.66336" lon="6.65384">
        <ele>1094.6</ele>
        <time>2012-06-10T12:23:13.000Z</time>
      </trkpt>
      <trkpt lat="44.66336" lon="6.65387">
        <ele>1095.08</ele>
        <time>2012-06-10T12:23:14.000Z</time>
      </trkpt>
      <trkpt lat="44.66336" lon="6.65391">
        <ele>1094.12</ele>
        <time>2012-06-10T12:23:15.000Z</time>
      </trkpt>
      <trkpt lat="44.66336" lon="6.65397">
        <ele>1094.12</ele>
        <time>2012-06-10T12:23:16.000Z</time>
      </trkpt>
      <trkpt lat="44.66336" lon="6.65402">
        <ele>1094.12</ele>
        <time>2012-06-10T12:23:17.000Z</time>
      </trkpt>
      <trkpt lat="44.66336" lon="6.65408">
        <ele>1094.12</ele>
        <time>2012-06-10T12:23:18.000Z</time>
      </trkpt>
      <trkpt lat="44.66337" lon="6.65413">
        <ele>1094.12</ele>
        <time>2012-06-10T12:23:19.000Z</time>
      </trkpt>
      <trkpt lat="44.66338" lon="6.65415">
        <ele>1094.12</ele>
        <time>2012-06-10T12:23:20.000Z</time>
      </trkpt>
      <trkpt lat="44.66338" lon="6.65417">
        <ele>1094.6</ele>
        <time>2012-06-10T12:23:21.000Z</time>
      </trkpt>
      <trkpt lat="44.66338" lon="6.65418">
        <ele>1094.6</ele>
        <time>2012-06-10T12:23:22.000Z</time>
      </trkpt>
      <trkpt lat="44.66338" lon="6.6542">
        <ele>1094.6</ele>
        <time>2012-06-10T12:23:23.000Z</time>
      </trkpt>
      <trkpt lat="44.66339" lon="6.65422">
        <ele>1094.6</ele>
        <time>2012-06-10T12:23:24.000Z</time>
      </trkpt>
      <trkpt lat="44.66339" lon="6.65424">
        <ele>1095.56</ele>
        <time>2012-06-10T12:23:25.000Z</time>
      </trkpt>
      <trkpt lat="44.66338" lon="6.65426">
        <ele>1095.56</ele>
        <time>2012-06-10T12:23:26.000Z</time>
      </trkpt>
      <trkpt lat="44.66338" lon="6.65429">
        <ele>1095.08</ele>
        <time>2012-06-10T12:23:27.000Z</time>
      </trkpt>
      <trkpt lat="44.66338" lon="6.65432">
        <ele>1095.08</ele>
        <time>2012-06-10T12:23:28.000Z</time>
      </trkpt>
      <trkpt lat="44.66338" lon="6.65435">
        <ele>1095.56</ele>
        <time>2012-06-10T12:23:29.000Z</time>
      </trkpt>
      <trkpt lat="44.66338" lon="6.65441">
        <ele>1096.04</ele>
        <time>2012-06-10T12:23:30.000Z</time>
      </trkpt>
      <trkpt lat="44.66335" lon="6.65465">
        <ele>1095.08</ele>
        <time>2012-06-10T12:23:34.000Z</time>
      </trkpt>
      <trkpt lat="44.66333" lon="6.65507">
        <ele>1096.52</ele>
        <time>2012-06-10T12:23:41.000Z</time>
      </trkpt>
      <trkpt lat="44.66334" lon="6.65513">
        <ele>1095.56</ele>
        <time>2012-06-10T12:23:42.000Z</time>
      </trkpt>
      <trkpt lat="44.66336" lon="6.65578">
        <ele>1097.48</ele>
        <time>2012-06-10T12:23:54.000Z</time>
      </trkpt>
      <trkpt lat="44.66331" lon="6.65585">
        <ele>1097</ele>
        <time>2012-06-10T12:23:56.000Z</time>
      </trkpt>
      <trkpt lat="44.66328" lon="6.65587">
        <ele>1097.48</ele>
        <time>2012-06-10T12:23:57.000Z</time>
      </trkpt>
      <trkpt lat="44.66325" lon="6.65588">
        <ele>1097.96</ele>
        <time>2012-06-10T12:23:58.000Z</time>
      </trkpt>
      <trkpt lat="44.66322" lon="6.6559">
        <ele>1097.48</ele>
        <time>2012-06-10T12:23:59.000Z</time>
      </trkpt>
      <trkpt lat="44.66319" lon="6.65591">
        <ele>1097.48</ele>
        <time>2012-06-10T12:24:00.000Z</time>
      </trkpt>
      <trkpt lat="44.66315" lon="6.65593">
        <ele>1097</ele>
        <time>2012-06-10T12:24:01.000Z</time>
      </trkpt>
      <trkpt lat="44.66298" lon="6.656">
        <ele>1097.48</ele>
        <time>2012-06-10T12:24:06.000Z</time>
      </trkpt>
      <trkpt lat="44.66296" lon="6.65598">
        <ele>1097</ele>
        <time>2012-06-10T12:24:07.000Z</time>
      </trkpt>
      <trkpt lat="44.66293" lon="6.65594">
        <ele>1096.04</ele>
        <time>2012-06-10T12:24:08.000Z</time>
      </trkpt>
      <trkpt lat="44.66282" lon="6.65563">
        <ele>1095.08</ele>
        <time>2012-06-10T12:24:13.000Z</time>
      </trkpt>
      <trkpt lat="44.66278" lon="6.6556">
        <ele>1094.12</ele>
        <time>2012-06-10T12:24:14.000Z</time>
      </trkpt>
      <trkpt lat="44.66268" lon="6.65556">
        <ele>1093.16</ele>
        <time>2012-06-10T12:24:16.000Z</time>
      </trkpt>
      <trkpt lat="44.66252" lon="6.65543">
        <ele>1092.2</ele>
        <time>2012-06-10T12:24:19.000Z</time>
      </trkpt>
      <trkpt lat="44.66246" lon="6.65541">
        <ele>1092.2</ele>
        <time>2012-06-10T12:24:20.000Z</time>
      </trkpt>
      <trkpt lat="44.66225" lon="6.6555">
        <ele>1092.68</ele>
        <time>2012-06-10T12:24:24.000Z</time>
      </trkpt>
      <trkpt lat="44.66211" lon="6.65561">
        <ele>1091.71</ele>
        <time>2012-06-10T12:24:27.000Z</time>
      </trkpt>
      <trkpt lat="44.66193" lon="6.6557">
        <ele>1088.83</ele>
        <time>2012-06-10T12:24:33.000Z</time>
      </trkpt>
      <trkpt lat="44.66188" lon="6.6557">
        <ele>1086.43</ele>
        <time>2012-06-10T12:24:43.000Z</time>
      </trkpt>
      <trkpt lat="44.66187" lon="6.65567">
        <ele>1085.47</ele>
        <time>2012-06-10T12:24:45.000Z</time>
      </trkpt>
      <trkpt lat="44.6618" lon="6.6555">
        <ele>1084.99</ele>
        <time>2012-06-10T12:24:49.000Z</time>
      </trkpt>
      <trkpt lat="44.66164" lon="6.65471">
        <ele>1081.62</ele>
        <time>2012-06-10T12:24:58.000Z</time>
      </trkpt>
      <trkpt lat="44.66159" lon="6.65454">
        <ele>1080.18</ele>
        <time>2012-06-10T12:25:00.000Z</time>
      </trkpt>
      <trkpt lat="44.66149" lon="6.65412">
        <ele>1076.33</ele>
        <time>2012-06-10T12:25:07.000Z</time>
      </trkpt>
      <trkpt lat="44.66148" lon="6.65403">
        <ele>1075.37</ele>
        <time>2012-06-10T12:25:09.000Z</time>
      </trkpt>
      <trkpt lat="44.66142" lon="6.6534">
        <ele>1072.97</ele>
        <time>2012-06-10T12:25:17.000Z</time>
      </trkpt>
      <trkpt lat="44.66137" lon="6.65299">
        <ele>1070.57</ele>
        <time>2012-06-10T12:25:21.000Z</time>
      </trkpt>
      <trkpt lat="44.66135" lon="6.65282">
        <ele>1069.6</ele>
        <time>2012-06-10T12:25:23.000Z</time>
      </trkpt>
      <trkpt lat="44.66134" lon="6.65274">
        <ele>1068.64</ele>
        <time>2012-06-10T12:25:24.000Z</time>
      </trkpt>
      <trkpt lat="44.66127" lon="6.65191">
        <ele>1065.28</ele>
        <time>2012-06-10T12:25:33.000Z</time>
      </trkpt>
      <trkpt lat="44.66126" lon="6.65184">
        <ele>1065.28</ele>
        <time>2012-06-10T12:25:34.000Z</time>
      </trkpt>
      <trkpt lat="44.66124" lon="6.65179">
        <ele>1064.8</ele>
        <time>2012-06-10T12:25:35.000Z</time>
      </trkpt>
      <trkpt lat="44.66123" lon="6.65176">
        <ele>1064.32</ele>
        <time>2012-06-10T12:25:36.000Z</time>
      </trkpt>
      <trkpt lat="44.6612" lon="6.65172">
        <ele>1062.87</ele>
        <time>2012-06-10T12:25:40.000Z</time>
      </trkpt>
      <trkpt lat="44.66118" lon="6.65171">
        <ele>1062.87</ele>
        <time>2012-06-10T12:25:41.000Z</time>
      </trkpt>
      <trkpt lat="44.66116" lon="6.65169">
        <ele>1062.39</ele>
        <time>2012-06-10T12:25:42.000Z</time>
      </trkpt>
      <trkpt lat="44.66114" lon="6.65166">
        <ele>1061.43</ele>
        <time>2012-06-10T12:25:43.000Z</time>
      </trkpt>
      <trkpt lat="44.66114" lon="6.65162">
        <ele>1061.43</ele>
        <time>2012-06-10T12:25:44.000Z</time>
      </trkpt>
      <trkpt lat="44.66114" lon="6.65156">
        <ele>1061.43</ele>
        <time>2012-06-10T12:25:45.000Z</time>
      </trkpt>
      <trkpt lat="44.66114" lon="6.65151">
        <ele>1060.95</ele>
        <time>2012-06-10T12:25:46.000Z</time>
      </trkpt>
      <trkpt lat="44.66113" lon="6.65145">
        <ele>1060.95</ele>
        <time>2012-06-10T12:25:47.000Z</time>
      </trkpt>
      <trkpt lat="44.66109" lon="6.65136">
        <ele>1060.47</ele>
        <time>2012-06-10T12:25:49.000Z</time>
      </trkpt>
      <trkpt lat="44.66102" lon="6.65131">
        <ele>1060.47</ele>
        <time>2012-06-10T12:25:51.000Z</time>
      </trkpt>
      <trkpt lat="44.66098" lon="6.65125">
        <ele>1059.99</ele>
        <time>2012-06-10T12:25:52.000Z</time>
      </trkpt>
      <trkpt lat="44.66084" lon="6.6511">
        <ele>1057.59</ele>
        <time>2012-06-10T12:25:56.000Z</time>
      </trkpt>
      <trkpt lat="44.6608" lon="6.65111">
        <ele>1056.63</ele>
        <time>2012-06-10T12:25:57.000Z</time>
      </trkpt>
      <trkpt lat="44.66074" lon="6.65112">
        <ele>1056.15</ele>
        <time>2012-06-10T12:25:58.000Z</time>
      </trkpt>
      <trkpt lat="44.66067" lon="6.65114">
        <ele>1055.67</ele>
        <time>2012-06-10T12:25:59.000Z</time>
      </trkpt>
      <trkpt lat="44.6606" lon="6.65117">
        <ele>1054.7</ele>
        <time>2012-06-10T12:26:00.000Z</time>
      </trkpt>
      <trkpt lat="44.66055" lon="6.65115">
        <ele>1054.7</ele>
        <time>2012-06-10T12:26:01.000Z</time>
      </trkpt>
      <trkpt lat="44.6605" lon="6.65112">
        <ele>1054.7</ele>
        <time>2012-06-10T12:26:02.000Z</time>
      </trkpt>
      <trkpt lat="44.66046" lon="6.65106">
        <ele>1054.7</ele>
        <time>2012-06-10T12:26:03.000Z</time>
      </trkpt>
      <trkpt lat="44.66042" lon="6.65099">
        <ele>1054.7</ele>
        <time>2012-06-10T12:26:04.000Z</time>
      </trkpt>
      <trkpt lat="44.66035" lon="6.65083">
        <ele>1052.78</ele>
        <time>2012-06-10T12:26:06.000Z</time>
      </trkpt>
      <trkpt lat="44.66036" lon="6.65074">
        <ele>1052.3</ele>
        <time>2012-06-10T12:26:07.000Z</time>
      </trkpt>
      <trkpt lat="44.66039" lon="6.65067">
        <ele>1052.78</ele>
        <time>2012-06-10T12:26:08.000Z</time>
      </trkpt>
      <trkpt lat="44.66045" lon="6.65063">
        <ele>1052.78</ele>
        <time>2012-06-10T12:26:09.000Z</time>
      </trkpt>
      <trkpt lat="44.66051" lon="6.6506">
        <ele>1052.78</ele>
        <time>2012-06-10T12:26:10.000Z</time>
      </trkpt>
    </trkseg>
  </trk>
</gpx>